<?xml version='1.0' encoding='UTF-8'?><gpx version="1.1" creator="JPX - https://github.com/jenetics/jpx" xmlns="http://www.topografix.com/GPX/1/1"><trk><trkseg><trkpt lat="50.63680471309821" lon="3.0696611745960265"><ele>27.0</ele><time>2026-04-11T11:11:15Z</time></trkpt><trkpt lat="50.636716429451894" lon="3.0696062742499612"><ele>27.0</ele><time>2026-04-11T11:11:18Z</time></trkpt><trkpt lat="50.636624218220256" lon="3.0695609664771935"><ele>27.0</ele><time>2026-04-11T11:11:21Z</time></trkpt><trkpt lat="50.63655619165033" lon="3.0695295848117805"><ele>27.0</ele><time>2026-04-11T11:11:23Z</time></trkpt><trkpt lat="50.636513390165135" lon="3.069450476109567"><ele>27.0</ele><time>2026-04-11T11:11:25Z</time></trkpt><trkpt lat="50.636430501783174" lon="3.0693994366298103"><ele>27.0</ele><time>2026-04-11T11:11:27Z</time></trkpt><trkpt lat="50.636337574281306" lon="3.069385123514844"><ele>27.0</ele><time>2026-04-11T11:11:29Z</time></trkpt><trkpt lat="50.63624285345119" lon="3.0694344590026508"><ele>27.000000000000004</ele><time>2026-04-11T11:11:31Z</time></trkpt><trkpt lat="50.63615230924298" lon="3.069501910104477"><ele>27.000000000000004</ele><time>2026-04-11T11:11:33Z</time></trkpt><trkpt lat="50.636070398179" lon="3.0695954121548734"><ele>27.0</ele><time>2026-04-11T11:11:35Z</time></trkpt><trkpt lat="50.63600011154969" lon="3.069703874384548"><ele>27.0</ele><time>2026-04-11T11:11:37Z</time></trkpt><trkpt lat="50.635930755604264" lon="3.069806385009662"><ele>27.6</ele><time>2026-04-11T11:11:39Z</time></trkpt><trkpt lat="50.63588500288869" lon="3.069912759017113"><ele>28.200000000000003</ele><time>2026-04-11T11:11:41Z</time></trkpt><trkpt lat="50.63582857749757" lon="3.0700171943256263"><ele>28.8</ele><time>2026-04-11T11:11:43Z</time></trkpt><trkpt lat="50.63579669139867" lon="3.0701561068367655"><ele>29.4</ele><time>2026-04-11T11:11:45Z</time></trkpt><trkpt lat="50.63573700752317" lon="3.070278643231247"><ele>30.0</ele><time>2026-04-11T11:11:47Z</time></trkpt><trkpt lat="50.635668058122654" lon="3.070393296471846"><ele>30.0</ele><time>2026-04-11T11:11:49Z</time></trkpt><trkpt lat="50.635615073001475" lon="3.0705152665192172"><ele>30.0</ele><time>2026-04-11T11:11:51Z</time></trkpt><trkpt lat="50.635544531188316" lon="3.0706399014685304"><ele>30.0</ele><time>2026-04-11T11:11:53Z</time></trkpt><trkpt lat="50.63547261326416" lon="3.070751651354868"><ele>30.0</ele><time>2026-04-11T11:11:55Z</time></trkpt><trkpt lat="50.635432017454015" lon="3.070829321377607"><ele>30.0</ele><time>2026-04-11T11:11:57Z</time></trkpt><trkpt lat="50.635349494197925" lon="3.0707696112616674"><ele>30.333333333333332</ele><time>2026-04-11T11:11:59Z</time></trkpt><trkpt lat="50.63529385809897" lon="3.0707108105926206"><ele>30.666666666666664</ele><time>2026-04-11T11:12:00Z</time></trkpt><trkpt lat="50.63521042553058" lon="3.070712480292124"><ele>31.0</ele><time>2026-04-11T11:12:03Z</time></trkpt><trkpt lat="50.63512028113195" lon="3.070699942512892"><ele>31.333333333333332</ele><time>2026-04-11T11:12:05Z</time></trkpt><trkpt lat="50.63502936101324" lon="3.070664884469374"><ele>31.666666666666664</ele><time>2026-04-11T11:12:07Z</time></trkpt><trkpt lat="50.63493544347302" lon="3.0706346778196587"><ele>32.0</ele><time>2026-04-11T11:12:09Z</time></trkpt><trkpt lat="50.634829126830475" lon="3.0705995875979517"><ele>32.0</ele><time>2026-04-11T11:12:11Z</time></trkpt><trkpt lat="50.6347321372215" lon="3.07056851964313"><ele>32.0</ele><time>2026-04-11T11:12:13Z</time></trkpt><trkpt lat="50.63462616044689" lon="3.0705382642752457"><ele>32.0</ele><time>2026-04-11T11:12:15Z</time></trkpt><trkpt lat="50.63452738824809" lon="3.0705064565248144"><ele>32.0</ele><time>2026-04-11T11:12:17Z</time></trkpt><trkpt lat="50.63441866882958" lon="3.0704730328420236"><ele>32.0</ele><time>2026-04-11T11:12:19Z</time></trkpt><trkpt lat="50.634316886705435" lon="3.070438556965331"><ele>31.6</ele><time>2026-04-11T11:12:21Z</time></trkpt><trkpt lat="50.63421722453846" lon="3.0703976857195308"><ele>31.200000000000003</ele><time>2026-04-11T11:12:22.999Z</time></trkpt><trkpt lat="50.63411802154577" lon="3.0703880432848623"><ele>30.8</ele><time>2026-04-11T11:12:24.999Z</time></trkpt><trkpt lat="50.634037644059546" lon="3.0703597027025835"><ele>30.4</ele><time>2026-04-11T11:12:26.999Z</time></trkpt><trkpt lat="50.63395312112847" lon="3.0702814975623522"><ele>30.0</ele><time>2026-04-11T11:12:28.999Z</time></trkpt><trkpt lat="50.63386812104434" lon="3.070232662174299"><ele>30.0</ele><time>2026-04-11T11:12:30.999Z</time></trkpt><trkpt lat="50.63378365967925" lon="3.0702105490416027"><ele>30.0</ele><time>2026-04-11T11:12:32.999Z</time></trkpt><trkpt lat="50.63373147939473" lon="3.0700932430787753"><ele>30.0</ele><time>2026-04-11T11:12:34.999Z</time></trkpt><trkpt lat="50.63364589903601" lon="3.070125894132166"><ele>30.0</ele><time>2026-04-11T11:12:36.999Z</time></trkpt><trkpt lat="50.63359715345416" lon="3.070060818841032"><ele>30.0</ele><time>2026-04-11T11:12:39.999Z</time></trkpt><trkpt lat="50.633575049199656" lon="3.0699227672676885"><ele>30.0</ele><time>2026-04-11T11:12:41.999Z</time></trkpt><trkpt lat="50.63358451327958" lon="3.0697598371821315"><ele>29.8</ele><time>2026-04-11T11:12:44Z</time></trkpt><trkpt lat="50.63358450542358" lon="3.0695943143854656"><ele>29.6</ele><time>2026-04-11T11:12:46Z</time></trkpt><trkpt lat="50.63358998781649" lon="3.069428783770536"><ele>29.4</ele><time>2026-04-11T11:12:48Z</time></trkpt><trkpt lat="50.63359022373426" lon="3.069271771876617"><ele>29.2</ele><time>2026-04-11T11:12:50Z</time></trkpt><trkpt lat="50.63358289731061" lon="3.0691071252968367"><ele>29.0</ele><time>2026-04-11T11:12:52Z</time></trkpt><trkpt lat="50.63358419185231" lon="3.0689399783671822"><ele>28.999999999999996</ele><time>2026-04-11T11:12:54Z</time></trkpt><trkpt lat="50.63357940032391" lon="3.0687856750302855"><ele>29.0</ele><time>2026-04-11T11:12:56Z</time></trkpt><trkpt lat="50.63357194859097" lon="3.068627631736218"><ele>29.0</ele><time>2026-04-11T11:12:58Z</time></trkpt><trkpt lat="50.63356177435029" lon="3.068479131520487"><ele>29.0</ele><time>2026-04-11T11:13:00Z</time></trkpt><trkpt lat="50.63356216330497" lon="3.0683444360466217"><ele>28.999999999999996</ele><time>2026-04-11T11:13:02Z</time></trkpt><trkpt lat="50.63355522705754" lon="3.0682340479503756"><ele>29.0</ele><time>2026-04-11T11:13:04Z</time></trkpt><trkpt lat="50.63354018786142" lon="3.0681194253343653"><ele>28.799999999999997</ele><time>2026-04-11T11:13:07Z</time></trkpt><trkpt lat="50.633497486534885" lon="3.067992314467777"><ele>28.599999999999998</ele><time>2026-04-11T11:13:11Z</time></trkpt><trkpt lat="50.633415581098966" lon="3.067980944046597"><ele>28.4</ele><time>2026-04-11T11:13:13Z</time></trkpt><trkpt lat="50.633318512632734" lon="3.0680226171573"><ele>28.2</ele><time>2026-04-11T11:13:15Z</time></trkpt><trkpt lat="50.63322262433145" lon="3.068028502739306"><ele>28.0</ele><time>2026-04-11T11:13:17Z</time></trkpt><trkpt lat="50.63311562086279" lon="3.0680408941477726"><ele>28.0</ele><time>2026-04-11T11:13:19Z</time></trkpt><trkpt lat="50.63301166474222" lon="3.0680515397491566"><ele>27.999999999999996</ele><time>2026-04-11T11:13:21Z</time></trkpt><trkpt lat="50.63290690661281" lon="3.0680493268075555"><ele>27.999999999999996</ele><time>2026-04-11T11:13:23Z</time></trkpt><trkpt lat="50.63280673287132" lon="3.0680597042702176"><ele>28.0</ele><time>2026-04-11T11:13:25Z</time></trkpt><trkpt lat="50.63270100023814" lon="3.0680683318475674"><ele>28.0</ele><time>2026-04-11T11:13:27Z</time></trkpt><trkpt lat="50.63260136351023" lon="3.0680871905051075"><ele>27.799999999999997</ele><time>2026-04-11T11:13:29Z</time></trkpt><trkpt lat="50.63249644229476" lon="3.0681129486466556"><ele>27.599999999999998</ele><time>2026-04-11T11:13:31Z</time></trkpt><trkpt lat="50.63239652599556" lon="3.068126413099401"><ele>27.400000000000002</ele><time>2026-04-11T11:13:33Z</time></trkpt><trkpt lat="50.63229228970156" lon="3.0681541715427234"><ele>27.200000000000003</ele><time>2026-04-11T11:13:35Z</time></trkpt><trkpt lat="50.63219444997344" lon="3.06818457984585"><ele>27.0</ele><time>2026-04-11T11:13:37Z</time></trkpt><trkpt lat="50.63210935872027" lon="3.0681796991620853"><ele>27.0</ele><time>2026-04-11T11:13:39Z</time></trkpt><trkpt lat="50.632036032096565" lon="3.0681433178644695"><ele>27.000000000000004</ele><time>2026-04-11T11:13:41Z</time></trkpt><trkpt lat="50.63194624936965" lon="3.068173507262769"><ele>27.000000000000004</ele><time>2026-04-11T11:13:45Z</time></trkpt><trkpt lat="50.631857980421024" lon="3.0681956172402898"><ele>27.0</ele><time>2026-04-11T11:13:47.001Z</time></trkpt><trkpt lat="50.63176344660609" lon="3.0682216133328977"><ele>27.0</ele><time>2026-04-11T11:13:49.001Z</time></trkpt><trkpt lat="50.63166661734667" lon="3.0682437003354566"><ele>27.200000000000003</ele><time>2026-04-11T11:13:51.001Z</time></trkpt><trkpt lat="50.631567217164985" lon="3.068266563805839"><ele>27.400000000000002</ele><time>2026-04-11T11:13:53.001Z</time></trkpt><trkpt lat="50.63146281532565" lon="3.0683010854418167"><ele>27.599999999999998</ele><time>2026-04-11T11:13:55.001Z</time></trkpt><trkpt lat="50.63135479081819" lon="3.0683352407511046"><ele>27.799999999999997</ele><time>2026-04-11T11:13:57.001Z</time></trkpt><trkpt lat="50.63126526931906" lon="3.0683528219131997"><ele>28.0</ele><time>2026-04-11T11:13:59.001Z</time></trkpt><trkpt lat="50.631164827515406" lon="3.0683827687696943"><ele>27.599999999999998</ele><time>2026-04-11T11:14:01.001Z</time></trkpt><trkpt lat="50.63106673066059" lon="3.068402977009016"><ele>27.199999999999996</ele><time>2026-04-11T11:14:03.001Z</time></trkpt><trkpt lat="50.63097078634788" lon="3.0684240644538834"><ele>26.8</ele><time>2026-04-11T11:14:05.001Z</time></trkpt><trkpt lat="50.630867913742186" lon="3.068450500751379"><ele>26.4</ele><time>2026-04-11T11:14:07.001Z</time></trkpt><trkpt lat="50.630771244241394" lon="3.068489871319751"><ele>26.0</ele><time>2026-04-11T11:14:09.001Z</time></trkpt><trkpt lat="50.63066693795698" lon="3.068504438594825"><ele>26.0</ele><time>2026-04-11T11:14:11.001Z</time></trkpt><trkpt lat="50.63056863791607" lon="3.0685408714034357"><ele>26.0</ele><time>2026-04-11T11:14:13.001Z</time></trkpt><trkpt lat="50.630464727271686" lon="3.068574518018995"><ele>26.0</ele><time>2026-04-11T11:14:15.001Z</time></trkpt><trkpt lat="50.630360101388554" lon="3.0685944983120432"><ele>26.0</ele><time>2026-04-11T11:14:17.001Z</time></trkpt><trkpt lat="50.63025957005584" lon="3.0686210042647266"><ele>26.0</ele><time>2026-04-11T11:14:19.001Z</time></trkpt><trkpt lat="50.63016205210333" lon="3.0686444490322327"><ele>26.4</ele><time>2026-04-11T11:14:21.001Z</time></trkpt><trkpt lat="50.63006968980045" lon="3.0686210204311637"><ele>26.8</ele><time>2026-04-11T11:14:23.001Z</time></trkpt><trkpt lat="50.62998125038698" lon="3.068546450903769"><ele>27.199999999999996</ele><time>2026-04-11T11:14:25.001Z</time></trkpt><trkpt lat="50.62988686403523" lon="3.0684761834119874"><ele>27.599999999999998</ele><time>2026-04-11T11:14:27.001Z</time></trkpt><trkpt lat="50.62979188559717" lon="3.0684086487707987"><ele>28.0</ele><time>2026-04-11T11:14:29Z</time></trkpt><trkpt lat="50.62969668227884" lon="3.068343679291334"><ele>28.0</ele><time>2026-04-11T11:14:31Z</time></trkpt><trkpt lat="50.62961126396637" lon="3.0683235445321033"><ele>27.999999999999996</ele><time>2026-04-11T11:14:33Z</time></trkpt><trkpt lat="50.62951695426177" lon="3.0683447500876424"><ele>27.999999999999996</ele><time>2026-04-11T11:14:35Z</time></trkpt><trkpt lat="50.629420329980825" lon="3.068411153015868"><ele>28.0</ele><time>2026-04-11T11:14:37Z</time></trkpt><trkpt lat="50.62934218896936" lon="3.068532560222717"><ele>28.0</ele><time>2026-04-11T11:14:39Z</time></trkpt><trkpt lat="50.6292810776424" lon="3.0686700360032324"><ele>28.0</ele><time>2026-04-11T11:14:41Z</time></trkpt><trkpt lat="50.629206990529575" lon="3.0687854501095804"><ele>27.999999999999996</ele><time>2026-04-11T11:14:43Z</time></trkpt><trkpt lat="50.629095983815624" lon="3.068770738946875"><ele>27.999999999999996</ele><time>2026-04-11T11:14:45Z</time></trkpt><trkpt lat="50.62898742266415" lon="3.0687603592702732"><ele>28.0</ele><time>2026-04-11T11:14:47Z</time></trkpt><trkpt lat="50.628884039545596" lon="3.06876908306199"><ele>28.0</ele><time>2026-04-11T11:14:49Z</time></trkpt><trkpt lat="50.628767802241505" lon="3.068786239290922"><ele>28.0</ele><time>2026-04-11T11:14:51Z</time></trkpt><trkpt lat="50.62866593288132" lon="3.0688036253519395"><ele>27.999999999999996</ele><time>2026-04-11T11:14:53Z</time></trkpt><trkpt lat="50.62855815998573" lon="3.0687958346763686"><ele>27.999999999999996</ele><time>2026-04-11T11:14:55Z</time></trkpt><trkpt lat="50.62844975216763" lon="3.0688231962699404"><ele>28.0</ele><time>2026-04-11T11:14:57Z</time></trkpt><trkpt lat="50.62836016569809" lon="3.068822981031179"><ele>28.0</ele><time>2026-04-11T11:14:59Z</time></trkpt><trkpt lat="50.62829187674528" lon="3.0687602882335"><ele>28.4</ele><time>2026-04-11T11:15:01Z</time></trkpt><trkpt lat="50.62823596302935" lon="3.068635837262135"><ele>28.799999999999997</ele><time>2026-04-11T11:15:03Z</time></trkpt><trkpt lat="50.62819292661742" lon="3.0684726370972477"><ele>29.2</ele><time>2026-04-11T11:15:05Z</time></trkpt><trkpt lat="50.62809806688757" lon="3.068373876802024"><ele>29.6</ele><time>2026-04-11T11:15:07.001Z</time></trkpt><trkpt lat="50.62798503656947" lon="3.068362370016102"><ele>30.0</ele><time>2026-04-11T11:15:09.001Z</time></trkpt><trkpt lat="50.62787181089259" lon="3.0683685040370396"><ele>29.6</ele><time>2026-04-11T11:15:11.001Z</time></trkpt><trkpt lat="50.627760230113275" lon="3.068375105698002"><ele>29.2</ele><time>2026-04-11T11:15:13.001Z</time></trkpt><trkpt lat="50.62764601570012" lon="3.0683987667921993"><ele>28.799999999999997</ele><time>2026-04-11T11:15:15.001Z</time></trkpt><trkpt lat="50.62754420610022" lon="3.068376896697052"><ele>28.4</ele><time>2026-04-11T11:15:17.001Z</time></trkpt><trkpt lat="50.62744740969653" lon="3.0683437792185226"><ele>28.0</ele><time>2026-04-11T11:15:19.001Z</time></trkpt><trkpt lat="50.62734385100285" lon="3.0683335202740656"><ele>28.0</ele><time>2026-04-11T11:15:21.001Z</time></trkpt><trkpt lat="50.62727872413537" lon="3.06832317333335"><ele>27.999999999999996</ele><time>2026-04-11T11:15:22.001Z</time></trkpt><trkpt lat="50.62718834846196" lon="3.068332449146996"><ele>27.999999999999996</ele><time>2026-04-11T11:15:24.001Z</time></trkpt><trkpt lat="50.627069973079436" lon="3.0683185927602166"><ele>28.0</ele><time>2026-04-11T11:15:26.001Z</time></trkpt><trkpt lat="50.62696638073053" lon="3.0683404115331867"><ele>28.0</ele><time>2026-04-11T11:15:28.001Z</time></trkpt><trkpt lat="50.626874081419096" lon="3.068353473223602"><ele>27.799999999999997</ele><time>2026-04-11T11:15:30.001Z</time></trkpt><trkpt lat="50.62676710427295" lon="3.0683517657344863"><ele>27.599999999999998</ele><time>2026-04-11T11:15:32.001Z</time></trkpt><trkpt lat="50.62664874778344" lon="3.0683634132751196"><ele>27.400000000000002</ele><time>2026-04-11T11:15:34.001Z</time></trkpt><trkpt lat="50.62655638414982" lon="3.068351540194066"><ele>27.200000000000003</ele><time>2026-04-11T11:15:36.001Z</time></trkpt><trkpt lat="50.62649243365603" lon="3.068351223676194"><ele>27.0</ele><time>2026-04-11T11:15:37.001Z</time></trkpt><trkpt lat="50.62638244518893" lon="3.0683516202944814"><ele>27.0</ele><time>2026-04-11T11:15:39.001Z</time></trkpt><trkpt lat="50.626278891343475" lon="3.0683753866277077"><ele>27.000000000000004</ele><time>2026-04-11T11:15:41.001Z</time></trkpt><trkpt lat="50.626178271609305" lon="3.0683567030338703"><ele>27.000000000000004</ele><time>2026-04-11T11:15:43.001Z</time></trkpt><trkpt lat="50.6261085440828" lon="3.0683590776549736"><ele>27.0</ele><time>2026-04-11T11:15:44.001Z</time></trkpt><trkpt lat="50.62601366572811" lon="3.068335377952362"><ele>27.0</ele><time>2026-04-11T11:15:46.001Z</time></trkpt><trkpt lat="50.625902917612805" lon="3.0683214633033518"><ele>26.6</ele><time>2026-04-11T11:15:48.001Z</time></trkpt><trkpt lat="50.62578318144824" lon="3.0683301290225553"><ele>26.200000000000003</ele><time>2026-04-11T11:15:50.001Z</time></trkpt><trkpt lat="50.62566553744867" lon="3.0683490536833395"><ele>25.8</ele><time>2026-04-11T11:15:52.001Z</time></trkpt><trkpt lat="50.625561948182074" lon="3.0683481274835915"><ele>25.4</ele><time>2026-04-11T11:15:54.001Z</time></trkpt><trkpt lat="50.625459511538956" lon="3.0683404732084814"><ele>25.0</ele><time>2026-04-11T11:15:56.001Z</time></trkpt><trkpt lat="50.625343142067884" lon="3.0683523744272474"><ele>25.4</ele><time>2026-04-11T11:15:58.001Z</time></trkpt><trkpt lat="50.6252341585879" lon="3.0683604384096084"><ele>25.8</ele><time>2026-04-11T11:16:00.001Z</time></trkpt><trkpt lat="50.62512309959281" lon="3.0683638453134106"><ele>26.200000000000003</ele><time>2026-04-11T11:16:02.001Z</time></trkpt><trkpt lat="50.625018622421535" lon="3.0683700717392424"><ele>26.6</ele><time>2026-04-11T11:16:04.001Z</time></trkpt><trkpt lat="50.62490728074272" lon="3.0683823043585994"><ele>27.0</ele><time>2026-04-11T11:16:06.001Z</time></trkpt><trkpt lat="50.62480513422203" lon="3.068391352440652"><ele>27.0</ele><time>2026-04-11T11:16:08.001Z</time></trkpt><trkpt lat="50.62470705026422" lon="3.0684119945624544"><ele>27.0</ele><time>2026-04-11T11:16:10.001Z</time></trkpt><trkpt lat="50.624639892449856" lon="3.0684187049878027"><ele>27.0</ele><time>2026-04-11T11:16:12.001Z</time></trkpt><trkpt lat="50.62458409820116" lon="3.0683219628534264"><ele>27.0</ele><time>2026-04-11T11:16:15.001Z</time></trkpt><trkpt lat="50.62455580024028" lon="3.068202641609059"><ele>27.0</ele><time>2026-04-11T11:16:17.001Z</time></trkpt><trkpt lat="50.624501882754174" lon="3.0681395944400287"><ele>27.0</ele><time>2026-04-11T11:16:19.001Z</time></trkpt><trkpt lat="50.62441907428548" lon="3.0680757393575617"><ele>27.0</ele><time>2026-04-11T11:16:21.001Z</time></trkpt><trkpt lat="50.624342853097126" lon="3.068037876224713"><ele>27.000000000000004</ele><time>2026-04-11T11:16:23.001Z</time></trkpt><trkpt lat="50.62425489821967" lon="3.0680415406637036"><ele>27.000000000000004</ele><time>2026-04-11T11:16:25.001Z</time></trkpt><trkpt lat="50.62417083397143" lon="3.068129434807024"><ele>27.0</ele><time>2026-04-11T11:16:27.001Z</time></trkpt><trkpt lat="50.62410869318734" lon="3.0682824711808"><ele>27.0</ele><time>2026-04-11T11:16:29.001Z</time></trkpt><trkpt lat="50.62405908059838" lon="3.068420966604311"><ele>26.8</ele><time>2026-04-11T11:16:31.001Z</time></trkpt><trkpt lat="50.62399339165664" lon="3.068538782150649"><ele>26.6</ele><time>2026-04-11T11:16:33.001Z</time></trkpt><trkpt lat="50.62392043372846" lon="3.0686665727239837"><ele>26.400000000000002</ele><time>2026-04-11T11:16:35.001Z</time></trkpt><trkpt lat="50.62385096853859" lon="3.0687945763594286"><ele>26.200000000000003</ele><time>2026-04-11T11:16:37.001Z</time></trkpt><trkpt lat="50.623789516434634" lon="3.0689215124641906"><ele>26.0</ele><time>2026-04-11T11:16:39.001Z</time></trkpt><trkpt lat="50.62371823237507" lon="3.0690480204076467"><ele>25.8</ele><time>2026-04-11T11:16:41.001Z</time></trkpt><trkpt lat="50.62365403595284" lon="3.0691717470863216"><ele>25.6</ele><time>2026-04-11T11:16:43.001Z</time></trkpt><trkpt lat="50.62358391230419" lon="3.069303717483418"><ele>25.4</ele><time>2026-04-11T11:16:45.001Z</time></trkpt><trkpt lat="50.62351599470755" lon="3.069430028544574"><ele>25.2</ele><time>2026-04-11T11:16:47.001Z</time></trkpt><trkpt lat="50.623451507643196" lon="3.0695625636538697"><ele>25.0</ele><time>2026-04-11T11:16:49.001Z</time></trkpt><trkpt lat="50.62338360045796" lon="3.0696949656813404"><ele>25.2</ele><time>2026-04-11T11:16:51.001Z</time></trkpt><trkpt lat="50.623324647295796" lon="3.069831390572152"><ele>25.4</ele><time>2026-04-11T11:16:53.001Z</time></trkpt><trkpt lat="50.62325284636086" lon="3.0699581187905114"><ele>25.6</ele><time>2026-04-11T11:16:55.001Z</time></trkpt><trkpt lat="50.62318114765486" lon="3.0700887555799743"><ele>25.8</ele><time>2026-04-11T11:16:57.001Z</time></trkpt><trkpt lat="50.62311852108497" lon="3.070218414204535"><ele>26.0</ele><time>2026-04-11T11:16:59.001Z</time></trkpt><trkpt lat="50.62305088423998" lon="3.0703477269342025"><ele>26.0</ele><time>2026-04-11T11:17:01.001Z</time></trkpt><trkpt lat="50.622978274012276" lon="3.070480117213575"><ele>26.0</ele><time>2026-04-11T11:17:03.001Z</time></trkpt><trkpt lat="50.622911030703136" lon="3.0706064150309773"><ele>26.0</ele><time>2026-04-11T11:17:05.001Z</time></trkpt><trkpt lat="50.622846165355625" lon="3.0707333128837937"><ele>26.0</ele><time>2026-04-11T11:17:07.001Z</time></trkpt><trkpt lat="50.62278079652948" lon="3.0708574795826333"><ele>26.0</ele><time>2026-04-11T11:17:09.001Z</time></trkpt><trkpt lat="50.62271645917602" lon="3.070981622265109"><ele>26.0</ele><time>2026-04-11T11:17:11.001Z</time></trkpt><trkpt lat="50.62265811722311" lon="3.0711025390379576"><ele>26.0</ele><time>2026-04-11T11:17:13.001Z</time></trkpt><trkpt lat="50.62258565952048" lon="3.0712344002663925"><ele>26.0</ele><time>2026-04-11T11:17:15.001Z</time></trkpt><trkpt lat="50.62251822275348" lon="3.0713585803139227"><ele>26.0</ele><time>2026-04-11T11:17:17.001Z</time></trkpt><trkpt lat="50.622453060425926" lon="3.0714851752812873"><ele>26.0</ele><time>2026-04-11T11:17:19.001Z</time></trkpt><trkpt lat="50.62238488514407" lon="3.0716092032801456"><ele>26.200000000000003</ele><time>2026-04-11T11:17:21.001Z</time></trkpt><trkpt lat="50.622322236738775" lon="3.0717328070540004"><ele>26.400000000000002</ele><time>2026-04-11T11:17:23.001Z</time></trkpt><trkpt lat="50.622247796305615" lon="3.071837458086279"><ele>26.6</ele><time>2026-04-11T11:17:25.001Z</time></trkpt><trkpt lat="50.62216402075013" lon="3.071920954669742"><ele>26.8</ele><time>2026-04-11T11:17:27.001Z</time></trkpt><trkpt lat="50.622077201672035" lon="3.0719919720312925"><ele>27.0</ele><time>2026-04-11T11:17:29.001Z</time></trkpt><trkpt lat="50.621981576714305" lon="3.0720434313303895"><ele>27.400000000000002</ele><time>2026-04-11T11:17:31.001Z</time></trkpt><trkpt lat="50.62188578205563" lon="3.0720862543255643"><ele>27.800000000000004</ele><time>2026-04-11T11:17:33.001Z</time></trkpt><trkpt lat="50.621786228948864" lon="3.0721339966204217"><ele>28.2</ele><time>2026-04-11T11:17:35.001Z</time></trkpt><trkpt lat="50.6216831699552" lon="3.0721855178469966"><ele>28.6</ele><time>2026-04-11T11:17:37.001Z</time></trkpt><trkpt lat="50.621577317683" lon="3.0722402578833616"><ele>29.0</ele><time>2026-04-11T11:17:39.001Z</time></trkpt><trkpt lat="50.621483226317785" lon="3.0722766283289253"><ele>29.0</ele><time>2026-04-11T11:17:41.001Z</time></trkpt><trkpt lat="50.62137993957892" lon="3.0723266203813435"><ele>29.0</ele><time>2026-04-11T11:17:43.001Z</time></trkpt><trkpt lat="50.62132279781754" lon="3.0723721725004025"><ele>29.0</ele><time>2026-04-11T11:17:44.001Z</time></trkpt><trkpt lat="50.62121811325165" lon="3.0724114991371168"><ele>29.0</ele><time>2026-04-11T11:17:46.001Z</time></trkpt><trkpt lat="50.62110886074467" lon="3.072463890910388"><ele>29.0</ele><time>2026-04-11T11:17:48.001Z</time></trkpt><trkpt lat="50.621005383892054" lon="3.0725181983657706"><ele>29.0</ele><time>2026-04-11T11:17:50.001Z</time></trkpt><trkpt lat="50.620896791215884" lon="3.0725572795286364"><ele>29.0</ele><time>2026-04-11T11:17:52.001Z</time></trkpt><trkpt lat="50.62080289061729" lon="3.072612123382192"><ele>29.0</ele><time>2026-04-11T11:17:54.001Z</time></trkpt><trkpt lat="50.620693329871315" lon="3.0726637624093938"><ele>29.0</ele><time>2026-04-11T11:17:56.001Z</time></trkpt><trkpt lat="50.62058684433484" lon="3.0727084457686153"><ele>29.0</ele><time>2026-04-11T11:17:58.001Z</time></trkpt><trkpt lat="50.620485623253394" lon="3.072749375832824"><ele>29.0</ele><time>2026-04-11T11:18:00.001Z</time></trkpt><trkpt lat="50.620381127035095" lon="3.0727928587650437"><ele>29.0</ele><time>2026-04-11T11:18:02.001Z</time></trkpt><trkpt lat="50.62027375838976" lon="3.072835924967959"><ele>29.0</ele><time>2026-04-11T11:18:04.001Z</time></trkpt><trkpt lat="50.62017026661361" lon="3.0728739817253654"><ele>29.0</ele><time>2026-04-11T11:18:06.001Z</time></trkpt><trkpt lat="50.62007105237828" lon="3.0729109831370103"><ele>29.0</ele><time>2026-04-11T11:18:08.001Z</time></trkpt><trkpt lat="50.6199755044794" lon="3.0729361806339397"><ele>29.0</ele><time>2026-04-11T11:18:10.001Z</time></trkpt><trkpt lat="50.61987255939237" lon="3.072975514842127"><ele>29.0</ele><time>2026-04-11T11:18:12.001Z</time></trkpt><trkpt lat="50.61977769882251" lon="3.0730162140568424"><ele>29.0</ele><time>2026-04-11T11:18:14.001Z</time></trkpt><trkpt lat="50.61967634453273" lon="3.073054010637504"><ele>29.0</ele><time>2026-04-11T11:18:16.001Z</time></trkpt><trkpt lat="50.61958118316629" lon="3.073089203880178"><ele>29.0</ele><time>2026-04-11T11:18:18.001Z</time></trkpt><trkpt lat="50.619485513366705" lon="3.0731243499687024"><ele>29.166666666666664</ele><time>2026-04-11T11:18:20.001Z</time></trkpt><trkpt lat="50.619392986893196" lon="3.073155898820599"><ele>29.333333333333332</ele><time>2026-04-11T11:18:22.001Z</time></trkpt><trkpt lat="50.6193007455283" lon="3.0731865135029346"><ele>29.5</ele><time>2026-04-11T11:18:24.001Z</time></trkpt><trkpt lat="50.619209737562976" lon="3.073212597643838"><ele>29.666666666666664</ele><time>2026-04-11T11:18:26.001Z</time></trkpt><trkpt lat="50.61912363482117" lon="3.0732457452047273"><ele>29.833333333333332</ele><time>2026-04-11T11:18:28.001Z</time></trkpt><trkpt lat="50.619048771659244" lon="3.0732652194006267"><ele>30.0</ele><time>2026-04-11T11:18:32.001Z</time></trkpt><trkpt lat="50.618957409285606" lon="3.073296525049348"><ele>30.166666666666668</ele><time>2026-04-11T11:18:36.001Z</time></trkpt><trkpt lat="50.618881933396516" lon="3.073324390746455"><ele>30.333333333333336</ele><time>2026-04-11T11:18:38.001Z</time></trkpt><trkpt lat="50.61879594985443" lon="3.073351703769731"><ele>30.5</ele><time>2026-04-11T11:18:40.002Z</time></trkpt><trkpt lat="50.61870521818769" lon="3.0733807257330907"><ele>30.666666666666668</ele><time>2026-04-11T11:18:42.002Z</time></trkpt><trkpt lat="50.61861676621475" lon="3.0734142778074145"><ele>30.833333333333336</ele><time>2026-04-11T11:18:44.001Z</time></trkpt><trkpt lat="50.61854265408098" lon="3.073428283011878"><ele>31.0</ele><time>2026-04-11T11:18:46.001Z</time></trkpt><trkpt lat="50.61847462153401" lon="3.073451375372496"><ele>30.666666666666668</ele><time>2026-04-11T11:18:48.001Z</time></trkpt><trkpt lat="50.61839613021759" lon="3.073471865617638"><ele>30.333333333333336</ele><time>2026-04-11T11:18:51.001Z</time></trkpt><trkpt lat="50.61831339658559" lon="3.073484863219891"><ele>30.0</ele><time>2026-04-11T11:18:58.001Z</time></trkpt><trkpt lat="50.6182498203287" lon="3.0735220385325657"><ele>29.666666666666664</ele><time>2026-04-11T11:19:00.001Z</time></trkpt><trkpt lat="50.618167273688705" lon="3.073559683275108"><ele>29.333333333333332</ele><time>2026-04-11T11:19:03.001Z</time></trkpt><trkpt lat="50.61809654524821" lon="3.073576444008605"><ele>29.0</ele><time>2026-04-11T11:19:05.001Z</time></trkpt><trkpt lat="50.61801124065615" lon="3.073586593288662"><ele>29.0</ele><time>2026-04-11T11:19:07.001Z</time></trkpt><trkpt lat="50.61791578998539" lon="3.0736026336016593"><ele>29.0</ele><time>2026-04-11T11:19:09.001Z</time></trkpt><trkpt lat="50.61781634259143" lon="3.0736394982205564"><ele>29.0</ele><time>2026-04-11T11:19:11.001Z</time></trkpt><trkpt lat="50.61772041950625" lon="3.0736530006521656"><ele>29.0</ele><time>2026-04-11T11:19:13.001Z</time></trkpt><trkpt lat="50.617614790027034" lon="3.0736953226605994"><ele>29.0</ele><time>2026-04-11T11:19:15.001Z</time></trkpt><trkpt lat="50.61751524714273" lon="3.0737361544352884"><ele>28.799999999999997</ele><time>2026-04-11T11:19:17.001Z</time></trkpt><trkpt lat="50.617418897975924" lon="3.0737567309290426"><ele>28.599999999999998</ele><time>2026-04-11T11:19:19.001Z</time></trkpt><trkpt lat="50.61731801396068" lon="3.073791011258806"><ele>28.4</ele><time>2026-04-11T11:19:21.001Z</time></trkpt><trkpt lat="50.617220417125516" lon="3.0738253773656163"><ele>28.2</ele><time>2026-04-11T11:19:23.001Z</time></trkpt><trkpt lat="50.61711881931905" lon="3.07385427091654"><ele>28.0</ele><time>2026-04-11T11:19:25.001Z</time></trkpt><trkpt lat="50.61702166783693" lon="3.073877419342192"><ele>28.2</ele><time>2026-04-11T11:19:27.001Z</time></trkpt><trkpt lat="50.6169248872446" lon="3.073909600292485"><ele>28.4</ele><time>2026-04-11T11:19:29.001Z</time></trkpt><trkpt lat="50.61682454213148" lon="3.073941251892235"><ele>28.599999999999998</ele><time>2026-04-11T11:19:31.001Z</time></trkpt><trkpt lat="50.616722975660004" lon="3.0739690656164567"><ele>28.799999999999997</ele><time>2026-04-11T11:19:33.001Z</time></trkpt><trkpt lat="50.61662274820101" lon="3.074002622722933"><ele>29.0</ele><time>2026-04-11T11:19:35.001Z</time></trkpt><trkpt lat="50.61651628237644" lon="3.074039621719695"><ele>29.0</ele><time>2026-04-11T11:19:37.001Z</time></trkpt><trkpt lat="50.61641309881386" lon="3.0740721137749585"><ele>29.0</ele><time>2026-04-11T11:19:39.001Z</time></trkpt><trkpt lat="50.61631288212934" lon="3.0741011496087296"><ele>29.0</ele><time>2026-04-11T11:19:41.001Z</time></trkpt><trkpt lat="50.616207962152046" lon="3.0741329415458774"><ele>29.0</ele><time>2026-04-11T11:19:43.001Z</time></trkpt><trkpt lat="50.61610058605692" lon="3.0741616791941406"><ele>29.0</ele><time>2026-04-11T11:19:45.001Z</time></trkpt><trkpt lat="50.61599097392966" lon="3.0742016117336393"><ele>29.75</ele><time>2026-04-11T11:19:47.001Z</time></trkpt><trkpt lat="50.61588415937284" lon="3.0742425768097585"><ele>30.5</ele><time>2026-04-11T11:19:49.001Z</time></trkpt><trkpt lat="50.61576878573033" lon="3.074258914530234"><ele>31.25</ele><time>2026-04-11T11:19:51.001Z</time></trkpt><trkpt lat="50.615651769841136" lon="3.0742946084708582"><ele>32.0</ele><time>2026-04-11T11:19:53.001Z</time></trkpt><trkpt lat="50.61553632952502" lon="3.0743308179344853"><ele>32.0</ele><time>2026-04-11T11:19:55.001Z</time></trkpt><trkpt lat="50.61542425506483" lon="3.074357309304965"><ele>32.0</ele><time>2026-04-11T11:19:57.001Z</time></trkpt><trkpt lat="50.615315207517675" lon="3.074388053997503"><ele>32.0</ele><time>2026-04-11T11:19:59.001Z</time></trkpt><trkpt lat="50.61521313243868" lon="3.0744185896662195"><ele>32.0</ele><time>2026-04-11T11:20:01.001Z</time></trkpt><trkpt lat="50.615116308289196" lon="3.0744422599599877"><ele>32.0</ele><time>2026-04-11T11:20:03.001Z</time></trkpt><trkpt lat="50.6150246607079" lon="3.074458809350206"><ele>31.8</ele><time>2026-04-11T11:20:05.001Z</time></trkpt><trkpt lat="50.614925611941516" lon="3.0744808284000515"><ele>31.6</ele><time>2026-04-11T11:20:07.001Z</time></trkpt><trkpt lat="50.614814189218514" lon="3.0745065145121915"><ele>31.400000000000002</ele><time>2026-04-11T11:20:09.001Z</time></trkpt><trkpt lat="50.6147103565479" lon="3.0745230430930475"><ele>31.200000000000003</ele><time>2026-04-11T11:20:11.001Z</time></trkpt><trkpt lat="50.61460569503338" lon="3.0745495078287313"><ele>31.0</ele><time>2026-04-11T11:20:13.001Z</time></trkpt><trkpt lat="50.61450188543968" lon="3.074566616835031"><ele>30.500000000000004</ele><time>2026-04-11T11:20:15.001Z</time></trkpt><trkpt lat="50.614406755629105" lon="3.074582058962903"><ele>30.0</ele><time>2026-04-11T11:20:17.001Z</time></trkpt><trkpt lat="50.614332767493806" lon="3.074592923624969"><ele>29.5</ele><time>2026-04-11T11:20:19.001Z</time></trkpt><trkpt lat="50.6142594238581" lon="3.074612207189357"><ele>29.0</ele><time>2026-04-11T11:20:21.001Z</time></trkpt><trkpt lat="50.61419269890079" lon="3.074619884826851"><ele>28.500000000000004</ele><time>2026-04-11T11:20:23.001Z</time></trkpt><trkpt lat="50.61409936010508" lon="3.0746359431476944"><ele>28.0</ele><time>2026-04-11T11:20:26.001Z</time></trkpt><trkpt lat="50.61401363634272" lon="3.074646834193643"><ele>28.0</ele><time>2026-04-11T11:20:28.001Z</time></trkpt><trkpt lat="50.61391046469823" lon="3.0746664813670845"><ele>27.999999999999996</ele><time>2026-04-11T11:20:30.001Z</time></trkpt><trkpt lat="50.613814980602726" lon="3.074683089587277"><ele>27.999999999999996</ele><time>2026-04-11T11:20:32.001Z</time></trkpt><trkpt lat="50.61370594712005" lon="3.074712605506024"><ele>28.0</ele><time>2026-04-11T11:20:34.001Z</time></trkpt><trkpt lat="50.613599808875726" lon="3.0747286450637525"><ele>28.0</ele><time>2026-04-11T11:20:36.001Z</time></trkpt><trkpt lat="50.61349355768756" lon="3.074787882527872"><ele>28.2</ele><time>2026-04-11T11:20:38.001Z</time></trkpt><trkpt lat="50.61338128736666" lon="3.0748165481235885"><ele>28.4</ele><time>2026-04-11T11:20:40.001Z</time></trkpt><trkpt lat="50.613287937821376" lon="3.0749145341143533"><ele>28.599999999999998</ele><time>2026-04-11T11:20:42.001Z</time></trkpt><trkpt lat="50.61319293740309" lon="3.0750191607035333"><ele>28.799999999999997</ele><time>2026-04-11T11:20:44.001Z</time></trkpt><trkpt lat="50.61315654202634" lon="3.0751060055834443"><ele>29.0</ele><time>2026-04-11T11:20:45.001Z</time></trkpt><trkpt lat="50.61312935294844" lon="3.0752837415343928"><ele>29.0</ele><time>2026-04-11T11:20:47.001Z</time></trkpt><trkpt lat="50.613084437830835" lon="3.0754449292269492"><ele>29.0</ele><time>2026-04-11T11:20:49.001Z</time></trkpt><trkpt lat="50.613044260731016" lon="3.075610475999524"><ele>29.0</ele><time>2026-04-11T11:20:51.001Z</time></trkpt><trkpt lat="50.612990859137284" lon="3.0757643833358137"><ele>29.0</ele><time>2026-04-11T11:20:53.001Z</time></trkpt><trkpt lat="50.61294587401371" lon="3.0759246907288307"><ele>29.0</ele><time>2026-04-11T11:20:55.001Z</time></trkpt><trkpt lat="50.612904337956216" lon="3.076080081139301"><ele>29.4</ele><time>2026-04-11T11:20:57.001Z</time></trkpt><trkpt lat="50.612857836340794" lon="3.0762201121517956"><ele>29.799999999999997</ele><time>2026-04-11T11:20:59.001Z</time></trkpt><trkpt lat="50.61281341734517" lon="3.076375497587993"><ele>30.200000000000003</ele><time>2026-04-11T11:21:01.001Z</time></trkpt><trkpt lat="50.612755964135786" lon="3.0765085271168107"><ele>30.6</ele><time>2026-04-11T11:21:03.001Z</time></trkpt><trkpt lat="50.612698815681945" lon="3.076625086833364"><ele>31.0</ele><time>2026-04-11T11:21:05.001Z</time></trkpt><trkpt lat="50.61264868845554" lon="3.0767688935846578"><ele>31.200000000000003</ele><time>2026-04-11T11:21:07.001Z</time></trkpt><trkpt lat="50.61259734027918" lon="3.0769005412682184"><ele>31.400000000000002</ele><time>2026-04-11T11:21:09.001Z</time></trkpt><trkpt lat="50.61255108456408" lon="3.077031058745965"><ele>31.6</ele><time>2026-04-11T11:21:11.001Z</time></trkpt><trkpt lat="50.612505644666705" lon="3.077162826692096"><ele>31.8</ele><time>2026-04-11T11:21:13.001Z</time></trkpt><trkpt lat="50.61244955872495" lon="3.077291734336736"><ele>32.0</ele><time>2026-04-11T11:21:15.001Z</time></trkpt><trkpt lat="50.6123994227117" lon="3.077418309849351"><ele>32.0</ele><time>2026-04-11T11:21:17.001Z</time></trkpt><trkpt lat="50.612345549127056" lon="3.0775489619003618"><ele>32.0</ele><time>2026-04-11T11:21:19.001Z</time></trkpt><trkpt lat="50.61229576691561" lon="3.0776761899576712"><ele>32.0</ele><time>2026-04-11T11:21:21.001Z</time></trkpt><trkpt lat="50.612244946002505" lon="3.0778057774709393"><ele>32.0</ele><time>2026-04-11T11:21:23.001Z</time></trkpt><trkpt lat="50.612190300508686" lon="3.07793797895689"><ele>32.0</ele><time>2026-04-11T11:21:25.001Z</time></trkpt><trkpt lat="50.612146081427426" lon="3.0780612478944054"><ele>32.0</ele><time>2026-04-11T11:21:27.001Z</time></trkpt><trkpt lat="50.612091426919164" lon="3.07818961545655"><ele>32.0</ele><time>2026-04-11T11:21:29.001Z</time></trkpt><trkpt lat="50.61204886962268" lon="3.078311798083538"><ele>32.0</ele><time>2026-04-11T11:21:31.001Z</time></trkpt><trkpt lat="50.611994707512366" lon="3.078441009500363"><ele>32.0</ele><time>2026-04-11T11:21:33.001Z</time></trkpt><trkpt lat="50.61193973333462" lon="3.0785653090623826"><ele>32.0</ele><time>2026-04-11T11:21:35.001Z</time></trkpt><trkpt lat="50.6118914872727" lon="3.0786945183192076"><ele>33.0</ele><time>2026-04-11T11:21:37.001Z</time></trkpt><trkpt lat="50.6118412043167" lon="3.078817908165052"><ele>34.0</ele><time>2026-04-11T11:21:39.001Z</time></trkpt><trkpt lat="50.611789086581076" lon="3.078949931743398"><ele>35.0</ele><time>2026-04-11T11:21:41.001Z</time></trkpt><trkpt lat="50.61173840115899" lon="3.07907731886819"><ele>36.0</ele><time>2026-04-11T11:21:43.001Z</time></trkpt><trkpt lat="50.61168425963704" lon="3.079192746897538"><ele>37.0</ele><time>2026-04-11T11:21:45.001Z</time></trkpt><trkpt lat="50.611636948953326" lon="3.079316973789101"><ele>37.0</ele><time>2026-04-11T11:21:47.001Z</time></trkpt><trkpt lat="50.611586689959374" lon="3.079442214131291"><ele>37.0</ele><time>2026-04-11T11:21:49.001Z</time></trkpt><trkpt lat="50.61153711784281" lon="3.0795665697240535"><ele>37.0</ele><time>2026-04-11T11:21:51.001Z</time></trkpt><trkpt lat="50.61149099185601" lon="3.079688544533983"><ele>37.0</ele><time>2026-04-11T11:21:53.001Z</time></trkpt><trkpt lat="50.61144953011012" lon="3.0797969546463926"><ele>37.0</ele><time>2026-04-11T11:21:55.001Z</time></trkpt><trkpt lat="50.61140741900167" lon="3.079891925198518"><ele>37.0</ele><time>2026-04-11T11:21:57.001Z</time></trkpt><trkpt lat="50.61138134336747" lon="3.079996260862123"><ele>37.0</ele><time>2026-04-11T11:21:59.001Z</time></trkpt><trkpt lat="50.611336793154216" lon="3.080109468951532"><ele>37.0</ele><time>2026-04-11T11:22:02.001Z</time></trkpt><trkpt lat="50.611278835257856" lon="3.080177987615272"><ele>37.0</ele><time>2026-04-11T11:22:56.001Z</time></trkpt><trkpt lat="50.61124401132771" lon="3.0802685734453497"><ele>37.0</ele><time>2026-04-11T11:23:02.001Z</time></trkpt><trkpt lat="50.61121586131988" lon="3.0803727192149015"><ele>37.0</ele><time>2026-04-11T11:23:41Z</time></trkpt><trkpt lat="50.61118402092444" lon="3.08046554082761"><ele>37.0</ele><time>2026-04-11T11:23:43Z</time></trkpt><trkpt lat="50.61114501418843" lon="3.080605857597821"><ele>37.0</ele><time>2026-04-11T11:23:45Z</time></trkpt><trkpt lat="50.611096572019434" lon="3.0807725927791187"><ele>37.0</ele><time>2026-04-11T11:23:47Z</time></trkpt><trkpt lat="50.61105206890655" lon="3.080952291832446"><ele>37.0</ele><time>2026-04-11T11:23:49Z</time></trkpt><trkpt lat="50.610993082771074" lon="3.081135940647056"><ele>37.0</ele><time>2026-04-11T11:23:51Z</time></trkpt><trkpt lat="50.61096331168737" lon="3.0812240526648718"><ele>37.0</ele><time>2026-04-11T11:23:52Z</time></trkpt><trkpt lat="50.61091104541835" lon="3.0814095218108464"><ele>37.0</ele><time>2026-04-11T11:23:54Z</time></trkpt><trkpt lat="50.61088210685254" lon="3.08150216827395"><ele>37.0</ele><time>2026-04-11T11:23:55Z</time></trkpt><trkpt lat="50.61085284066421" lon="3.0815983695707283"><ele>37.0</ele><time>2026-04-11T11:23:56Z</time></trkpt><trkpt lat="50.61079644873119" lon="3.081781233778988"><ele>37.0</ele><time>2026-04-11T11:23:58Z</time></trkpt><trkpt lat="50.6107396006849" lon="3.081967696549391"><ele>37.0</ele><time>2026-04-11T11:24:00Z</time></trkpt><trkpt lat="50.61071099204103" lon="3.082062498813486"><ele>37.0</ele><time>2026-04-11T11:24:01Z</time></trkpt><trkpt lat="50.610681660698766" lon="3.08215977655156"><ele>37.0</ele><time>2026-04-11T11:24:02Z</time></trkpt><trkpt lat="50.61065092006919" lon="3.08225326045337"><ele>37.0</ele><time>2026-04-11T11:24:03Z</time></trkpt><trkpt lat="50.6106233941149" lon="3.0823582692311007"><ele>37.0</ele><time>2026-04-11T11:24:04Z</time></trkpt><trkpt lat="50.6105947908723" lon="3.082456721135101"><ele>37.0</ele><time>2026-04-11T11:24:05Z</time></trkpt><trkpt lat="50.610569195257746" lon="3.0825588834101945"><ele>37.0</ele><time>2026-04-11T11:24:06Z</time></trkpt><trkpt lat="50.610522634134966" lon="3.0827706941248008"><ele>37.0</ele><time>2026-04-11T11:24:08Z</time></trkpt><trkpt lat="50.6104995481405" lon="3.0828799956261053"><ele>37.0</ele><time>2026-04-11T11:24:09Z</time></trkpt><trkpt lat="50.610475922130014" lon="3.082980736615176"><ele>37.0</ele><time>2026-04-11T11:24:10Z</time></trkpt><trkpt lat="50.61045645641786" lon="3.083080467714538"><ele>37.0</ele><time>2026-04-11T11:24:11Z</time></trkpt><trkpt lat="50.610434577069675" lon="3.083181631033161"><ele>37.0</ele><time>2026-04-11T11:24:12Z</time></trkpt><trkpt lat="50.610411281472935" lon="3.0832857721600218"><ele>37.0</ele><time>2026-04-11T11:24:13Z</time></trkpt><trkpt lat="50.61039457979841" lon="3.083392035480337"><ele>37.0</ele><time>2026-04-11T11:24:14Z</time></trkpt><trkpt lat="50.610377551383706" lon="3.0835044969925938"><ele>36.833333333333336</ele><time>2026-04-11T11:24:15Z</time></trkpt><trkpt lat="50.61035467976727" lon="3.083616088005344"><ele>36.66666666666667</ele><time>2026-04-11T11:24:16Z</time></trkpt><trkpt lat="50.61033415182756" lon="3.0837290604763754"><ele>36.5</ele><time>2026-04-11T11:24:17Z</time></trkpt><trkpt lat="50.61031733129248" lon="3.0838405112558647"><ele>36.333333333333336</ele><time>2026-04-11T11:24:18Z</time></trkpt><trkpt lat="50.61029656686885" lon="3.0839475708733026"><ele>36.166666666666664</ele><time>2026-04-11T11:24:19Z</time></trkpt><trkpt lat="50.61025892920985" lon="3.084114591308128"><ele>36.0</ele><time>2026-04-11T11:24:21Z</time></trkpt><trkpt lat="50.6102458061554" lon="3.08421380437043"><ele>36.0</ele><time>2026-04-11T11:24:22Z</time></trkpt><trkpt lat="50.610207951962856" lon="3.0844055990117454"><ele>36.0</ele><time>2026-04-11T11:24:24Z</time></trkpt><trkpt lat="50.6101868093744" lon="3.0845065065853428"><ele>36.0</ele><time>2026-04-11T11:24:25Z</time></trkpt><trkpt lat="50.610169667500244" lon="3.084617046215315"><ele>36.0</ele><time>2026-04-11T11:24:26Z</time></trkpt><trkpt lat="50.610151542721425" lon="3.0847258860040894"><ele>36.0</ele><time>2026-04-11T11:24:27Z</time></trkpt><trkpt lat="50.61010448563186" lon="3.084930160422937"><ele>36.00000000000001</ele><time>2026-04-11T11:24:29Z</time></trkpt><trkpt lat="50.6100807629852" lon="3.085038383334604"><ele>36.0</ele><time>2026-04-11T11:24:30Z</time></trkpt><trkpt lat="50.61006059635891" lon="3.0851394959472507"><ele>36.0</ele><time>2026-04-11T11:24:31Z</time></trkpt><trkpt lat="50.6100408361407" lon="3.085250619304782"><ele>36.0</ele><time>2026-04-11T11:24:32Z</time></trkpt><trkpt lat="50.6100150624146" lon="3.085351882019078"><ele>36.0</ele><time>2026-04-11T11:24:33Z</time></trkpt><trkpt lat="50.60999401955406" lon="3.0854592640363023"><ele>36.00000000000001</ele><time>2026-04-11T11:24:34Z</time></trkpt><trkpt lat="50.60997785129382" lon="3.0855740697487604"><ele>36.0</ele><time>2026-04-11T11:24:35Z</time></trkpt><trkpt lat="50.609961092717874" lon="3.0856747798582242"><ele>36.0</ele><time>2026-04-11T11:24:36Z</time></trkpt><trkpt lat="50.609947736022" lon="3.085773987185986"><ele>36.0</ele><time>2026-04-11T11:24:37Z</time></trkpt><trkpt lat="50.60992912814091" lon="3.085874538978462"><ele>36.0</ele><time>2026-04-11T11:24:38Z</time></trkpt><trkpt lat="50.60991348040312" lon="3.085975623924527"><ele>36.0</ele><time>2026-04-11T11:24:39Z</time></trkpt><trkpt lat="50.60987151440212" lon="3.0861468941593793"><ele>36.0</ele><time>2026-04-11T11:24:41Z</time></trkpt><trkpt lat="50.609824019452084" lon="3.086249256155051"><ele>36.0</ele><time>2026-04-11T11:24:43Z</time></trkpt><trkpt lat="50.60978668795984" lon="3.086352128650617"><ele>36.0</ele><time>2026-04-11T11:24:46Z</time></trkpt><trkpt lat="50.609745127049706" lon="3.086449475701835"><ele>36.0</ele><time>2026-04-11T11:24:51Z</time></trkpt><trkpt lat="50.609708627532875" lon="3.0865382369614593"><ele>36.0</ele><time>2026-04-11T11:28:06Z</time></trkpt><trkpt lat="50.60963376338301" lon="3.0866295376266963"><ele>36.0</ele><time>2026-04-11T11:28:10Z</time></trkpt><trkpt lat="50.609540455987755" lon="3.0866130542031436"><ele>36.0</ele><time>2026-04-11T11:28:12Z</time></trkpt><trkpt lat="50.60944197753218" lon="3.086557040303992"><ele>36.0</ele><time>2026-04-11T11:28:14Z</time></trkpt><trkpt lat="50.60934578607775" lon="3.0865991075063053"><ele>35.8</ele><time>2026-04-11T11:28:16Z</time></trkpt><trkpt lat="50.60926000313754" lon="3.0866477363943448"><ele>35.6</ele><time>2026-04-11T11:28:18Z</time></trkpt><trkpt lat="50.60916030300892" lon="3.08671358375578"><ele>35.4</ele><time>2026-04-11T11:28:20Z</time></trkpt><trkpt lat="50.60906353814969" lon="3.086784681770998"><ele>35.2</ele><time>2026-04-11T11:28:22Z</time></trkpt><trkpt lat="50.60896325709137" lon="3.086839011263957"><ele>35.0</ele><time>2026-04-11T11:28:24Z</time></trkpt><trkpt lat="50.608870190559685" lon="3.086907175291611"><ele>35.0</ele><time>2026-04-11T11:28:26Z</time></trkpt><trkpt lat="50.60876904059547" lon="3.086971554874599"><ele>35.0</ele><time>2026-04-11T11:28:28Z</time></trkpt><trkpt lat="50.60865864339046" lon="3.0870376440292655"><ele>35.0</ele><time>2026-04-11T11:28:30Z</time></trkpt><trkpt lat="50.608548026720506" lon="3.087108902084313"><ele>35.0</ele><time>2026-04-11T11:28:32Z</time></trkpt><trkpt lat="50.60845137043111" lon="3.087200461268476"><ele>35.4</ele><time>2026-04-11T11:28:34Z</time></trkpt><trkpt lat="50.60835456920284" lon="3.0872893703793527"><ele>35.8</ele><time>2026-04-11T11:28:36Z</time></trkpt><trkpt lat="50.60825625219185" lon="3.0873803332291714"><ele>36.2</ele><time>2026-04-11T11:28:38Z</time></trkpt><trkpt lat="50.608168408328225" lon="3.0874624862906708"><ele>36.6</ele><time>2026-04-11T11:28:40Z</time></trkpt><trkpt lat="50.608065838044226" lon="3.0875614959411792"><ele>37.0</ele><time>2026-04-11T11:28:42Z</time></trkpt><trkpt lat="50.607970732440556" lon="3.087652660319321"><ele>37.0</ele><time>2026-04-11T11:28:44Z</time></trkpt><trkpt lat="50.607875366407114" lon="3.0877359850473627"><ele>37.0</ele><time>2026-04-11T11:28:46Z</time></trkpt><trkpt lat="50.60778356621165" lon="3.0878235850090254"><ele>37.0</ele><time>2026-04-11T11:28:48Z</time></trkpt><trkpt lat="50.6076931907072" lon="3.087908780775229"><ele>37.0</ele><time>2026-04-11T11:28:50Z</time></trkpt><trkpt lat="50.60760345455651" lon="3.0879900002174607"><ele>37.0</ele><time>2026-04-11T11:28:52Z</time></trkpt><trkpt lat="50.60750790669243" lon="3.088085238931823"><ele>37.0</ele><time>2026-04-11T11:28:54Z</time></trkpt><trkpt lat="50.60742789938611" lon="3.088167482395341"><ele>37.0</ele><time>2026-04-11T11:28:56Z</time></trkpt><trkpt lat="50.60733806192744" lon="3.0882592888460354"><ele>37.0</ele><time>2026-04-11T11:28:58Z</time></trkpt><trkpt lat="50.607283473251336" lon="3.0883143990121167"><ele>37.0</ele><time>2026-04-11T11:28:59Z</time></trkpt><trkpt lat="50.607198708189" lon="3.0883909667312768"><ele>37.0</ele><time>2026-04-11T11:29:01Z</time></trkpt><trkpt lat="50.60711591851177" lon="3.0884794165014124"><ele>37.0</ele><time>2026-04-11T11:29:03Z</time></trkpt><trkpt lat="50.607061565259066" lon="3.088539181742099"><ele>37.0</ele><time>2026-04-11T11:29:05Z</time></trkpt><trkpt lat="50.60700018610617" lon="3.0885987350491027"><ele>37.0</ele><time>2026-04-11T11:29:07Z</time></trkpt><trkpt lat="50.60692768496854" lon="3.0886317446049802"><ele>37.0</ele><time>2026-04-11T11:29:10Z</time></trkpt><trkpt lat="50.60688296968929" lon="3.0885257925010143"><ele>37.0</ele><time>2026-04-11T11:29:15Z</time></trkpt><trkpt lat="50.6068262920191" lon="3.0884100346114027"><ele>37.0</ele><time>2026-04-11T11:29:18Z</time></trkpt><trkpt lat="50.60678633176881" lon="3.088312809094788"><ele>37.0</ele><time>2026-04-11T11:29:20Z</time></trkpt><trkpt lat="50.60673675610232" lon="3.0882140315809727"><ele>37.0</ele><time>2026-04-11T11:29:22Z</time></trkpt><trkpt lat="50.6066818588991" lon="3.0881063419115407"><ele>37.0</ele><time>2026-04-11T11:29:24Z</time></trkpt><trkpt lat="50.606627244626786" lon="3.088002038990333"><ele>37.0</ele><time>2026-04-11T11:29:27Z</time></trkpt><trkpt lat="50.60658142218631" lon="3.087915056512651"><ele>37.0</ele><time>2026-04-11T11:29:29Z</time></trkpt><trkpt lat="50.60651396569591" lon="3.087832593935954"><ele>37.0</ele><time>2026-04-11T11:29:31Z</time></trkpt><trkpt lat="50.60644945488511" lon="3.087745015895441"><ele>37.0</ele><time>2026-04-11T11:29:33Z</time></trkpt><trkpt lat="50.60637369158074" lon="3.0876553300601493"><ele>37.0</ele><time>2026-04-11T11:29:35Z</time></trkpt><trkpt lat="50.606302622675706" lon="3.0875720657063344"><ele>37.0</ele><time>2026-04-11T11:29:37Z</time></trkpt><trkpt lat="50.60623034008852" lon="3.08750097725639"><ele>37.0</ele><time>2026-04-11T11:29:39Z</time></trkpt><trkpt lat="50.60615102626198" lon="3.087439088809114"><ele>37.0</ele><time>2026-04-11T11:29:41Z</time></trkpt><trkpt lat="50.606073834353396" lon="3.0873865994290455"><ele>37.0</ele><time>2026-04-11T11:29:43Z</time></trkpt><trkpt lat="50.60599002123564" lon="3.0873366856142885"><ele>37.333333333333336</ele><time>2026-04-11T11:29:45Z</time></trkpt><trkpt lat="50.60590510560078" lon="3.0872851313567753"><ele>37.66666666666667</ele><time>2026-04-11T11:29:47Z</time></trkpt><trkpt lat="50.60582000180126" lon="3.0872498208568877"><ele>38.0</ele><time>2026-04-11T11:29:49Z</time></trkpt><trkpt lat="50.605731364677126" lon="3.0872176843509913"><ele>38.333333333333336</ele><time>2026-04-11T11:29:51Z</time></trkpt><trkpt lat="50.6056478051075" lon="3.0871924564338085"><ele>38.666666666666664</ele><time>2026-04-11T11:29:53Z</time></trkpt><trkpt lat="50.60555822332107" lon="3.087175958067852"><ele>39.0</ele><time>2026-04-11T11:29:55Z</time></trkpt><trkpt lat="50.605471330519805" lon="3.0871701589836196"><ele>39.0</ele><time>2026-04-11T11:29:57Z</time></trkpt><trkpt lat="50.60537928374653" lon="3.0871648374385137"><ele>39.0</ele><time>2026-04-11T11:29:59Z</time></trkpt><trkpt lat="50.60529243504838" lon="3.087168647489595"><ele>39.0</ele><time>2026-04-11T11:30:01Z</time></trkpt><trkpt lat="50.60520229343075" lon="3.087180614527982"><ele>39.0</ele><time>2026-04-11T11:30:03Z</time></trkpt><trkpt lat="50.60511657948702" lon="3.0871969893174365"><ele>39.0</ele><time>2026-04-11T11:30:05Z</time></trkpt><trkpt lat="50.60503151284059" lon="3.0872251897983087"><ele>39.0</ele><time>2026-04-11T11:30:07Z</time></trkpt><trkpt lat="50.60495242991692" lon="3.0872614749940475"><ele>39.142857142857146</ele><time>2026-04-11T11:30:10Z</time></trkpt><trkpt lat="50.604896324246546" lon="3.0873217237570754"><ele>39.285714285714285</ele><time>2026-04-11T11:30:12Z</time></trkpt><trkpt lat="50.6048399266216" lon="3.0873675319348632"><ele>39.42857142857143</ele><time>2026-04-11T11:30:15Z</time></trkpt><trkpt lat="50.60477761836132" lon="3.087400611127451"><ele>39.57142857142857</ele><time>2026-04-11T11:30:18Z</time></trkpt><trkpt lat="50.60471312123124" lon="3.0874857647384344"><ele>39.714285714285715</ele><time>2026-04-11T11:30:22Z</time></trkpt><trkpt lat="50.60463651862385" lon="3.0874418481841257"><ele>39.857142857142854</ele><time>2026-04-11T11:30:24Z</time></trkpt><trkpt lat="50.60455234040532" lon="3.087440189262883"><ele>40.0</ele><time>2026-04-11T11:30:26Z</time></trkpt><trkpt lat="50.604469012269085" lon="3.0874908927384173"><ele>40.0</ele><time>2026-04-11T11:30:28Z</time></trkpt><trkpt lat="50.604394330711486" lon="3.087575830190624"><ele>40.0</ele><time>2026-04-11T11:30:30Z</time></trkpt><trkpt lat="50.60431497507199" lon="3.087668009493068"><ele>40.0</ele><time>2026-04-11T11:30:32Z</time></trkpt><trkpt lat="50.60423774052699" lon="3.0877625368575496"><ele>40.0</ele><time>2026-04-11T11:30:34Z</time></trkpt><trkpt lat="50.60415681832384" lon="3.0878676416363033"><ele>40.0</ele><time>2026-04-11T11:30:36Z</time></trkpt><trkpt lat="50.60407540167426" lon="3.087966391295931"><ele>40.0</ele><time>2026-04-11T11:30:38Z</time></trkpt><trkpt lat="50.6039999380763" lon="3.0880684258674407"><ele>40.0</ele><time>2026-04-11T11:30:40Z</time></trkpt><trkpt lat="50.60391972354937" lon="3.0881740363845873"><ele>40.0</ele><time>2026-04-11T11:30:42Z</time></trkpt><trkpt lat="50.60383505866839" lon="3.088269111008197"><ele>40.0</ele><time>2026-04-11T11:30:44Z</time></trkpt><trkpt lat="50.6037541816299" lon="3.088369525605418"><ele>40.0</ele><time>2026-04-11T11:30:46Z</time></trkpt><trkpt lat="50.60366968397829" lon="3.088477044955416"><ele>39.8</ele><time>2026-04-11T11:30:48Z</time></trkpt><trkpt lat="50.60359074477802" lon="3.08857716658522"><ele>39.6</ele><time>2026-04-11T11:30:50Z</time></trkpt><trkpt lat="50.603503620729505" lon="3.088680712710859"><ele>39.4</ele><time>2026-04-11T11:30:52Z</time></trkpt><trkpt lat="50.6034222583393" lon="3.088795712286876"><ele>39.2</ele><time>2026-04-11T11:30:54Z</time></trkpt><trkpt lat="50.603335144906566" lon="3.0888946267543016"><ele>39.0</ele><time>2026-04-11T11:30:56Z</time></trkpt><trkpt lat="50.60324927159146" lon="3.0890065986945183"><ele>39.2</ele><time>2026-04-11T11:30:58Z</time></trkpt><trkpt lat="50.60316384667992" lon="3.0891063671226844"><ele>39.4</ele><time>2026-04-11T11:31:00Z</time></trkpt><trkpt lat="50.603074568344084" lon="3.0892264932973266"><ele>39.6</ele><time>2026-04-11T11:31:02Z</time></trkpt><trkpt lat="50.602992408498174" lon="3.0893303684199753"><ele>39.8</ele><time>2026-04-11T11:31:04Z</time></trkpt><trkpt lat="50.60290843233134" lon="3.0894413915151775"><ele>40.0</ele><time>2026-04-11T11:31:06Z</time></trkpt><trkpt lat="50.60283121236101" lon="3.089531087257296"><ele>39.857142857142854</ele><time>2026-04-11T11:31:08Z</time></trkpt><trkpt lat="50.602767644447795" lon="3.08962016712966"><ele>39.714285714285715</ele><time>2026-04-11T11:31:10Z</time></trkpt><trkpt lat="50.6027185722766" lon="3.0896832677992268"><ele>39.57142857142857</ele><time>2026-04-11T11:31:12Z</time></trkpt><trkpt lat="50.60265620905665" lon="3.089727654922321"><ele>39.42857142857143</ele><time>2026-04-11T11:31:18Z</time></trkpt><trkpt lat="50.60259837279252" lon="3.089793130181763"><ele>39.285714285714285</ele><time>2026-04-11T11:31:23Z</time></trkpt><trkpt lat="50.6025521789597" lon="3.08987386635282"><ele>39.142857142857146</ele><time>2026-04-11T11:31:25Z</time></trkpt><trkpt lat="50.602492220530436" lon="3.0899578345737315"><ele>39.0</ele><time>2026-04-11T11:31:27Z</time></trkpt><trkpt lat="50.60242791951876" lon="3.0900320040309537"><ele>39.6</ele><time>2026-04-11T11:31:29Z</time></trkpt><trkpt lat="50.60235817791112" lon="3.090117884187318"><ele>40.2</ele><time>2026-04-11T11:31:31Z</time></trkpt><trkpt lat="50.602283607571344" lon="3.0902153891753845"><ele>40.800000000000004</ele><time>2026-04-11T11:31:33Z</time></trkpt><trkpt lat="50.60220495792453" lon="3.0903215164910933"><ele>41.4</ele><time>2026-04-11T11:31:35Z</time></trkpt><trkpt lat="50.60213406360165" lon="3.0904568604309617"><ele>42.0</ele><time>2026-04-11T11:31:37Z</time></trkpt><trkpt lat="50.602036015174804" lon="3.0905690045019334"><ele>41.75</ele><time>2026-04-11T11:31:39Z</time></trkpt><trkpt lat="50.60193981062247" lon="3.090668703837891"><ele>41.5</ele><time>2026-04-11T11:31:41Z</time></trkpt><trkpt lat="50.6018265377715" lon="3.09076538821952"><ele>41.25</ele><time>2026-04-11T11:31:43Z</time></trkpt><trkpt lat="50.60172620900896" lon="3.0908853007719066"><ele>41.0</ele><time>2026-04-11T11:31:45Z</time></trkpt><trkpt lat="50.60163712277849" lon="3.0909799330843652"><ele>41.5</ele><time>2026-04-11T11:31:47Z</time></trkpt><trkpt lat="50.601552211686176" lon="3.0911007858939192"><ele>42.0</ele><time>2026-04-11T11:31:49Z</time></trkpt><trkpt lat="50.60145904252942" lon="3.0912076077455297"><ele>42.5</ele><time>2026-04-11T11:31:51Z</time></trkpt><trkpt lat="50.60136873888008" lon="3.091323316129615"><ele>43.0</ele><time>2026-04-11T11:31:53Z</time></trkpt><trkpt lat="50.60128026192304" lon="3.091430134665056"><ele>43.0</ele><time>2026-04-11T11:31:55Z</time></trkpt><trkpt lat="50.601190601822466" lon="3.0915315350800996"><ele>43.0</ele><time>2026-04-11T11:31:57Z</time></trkpt><trkpt lat="50.60109907024599" lon="3.091640279497412"><ele>43.0</ele><time>2026-04-11T11:31:59Z</time></trkpt><trkpt lat="50.60102202700622" lon="3.0917392838469726"><ele>43.0</ele><time>2026-04-11T11:32:01Z</time></trkpt><trkpt lat="50.60092408385866" lon="3.0918463844801547"><ele>43.0</ele><time>2026-04-11T11:32:03Z</time></trkpt><trkpt lat="50.60082029556361" lon="3.091943433542665"><ele>43.599999999999994</ele><time>2026-04-11T11:32:05Z</time></trkpt><trkpt lat="50.600760256301214" lon="3.0920446253590073"><ele>44.199999999999996</ele><time>2026-04-11T11:32:07Z</time></trkpt><trkpt lat="50.60067507902369" lon="3.0921501802498472"><ele>44.8</ele><time>2026-04-11T11:32:09Z</time></trkpt><trkpt lat="50.60058516347856" lon="3.0922425847228694"><ele>45.4</ele><time>2026-04-11T11:32:11Z</time></trkpt><trkpt lat="50.60050033106434" lon="3.09234943795196"><ele>46.0</ele><time>2026-04-11T11:32:13Z</time></trkpt><trkpt lat="50.60042080284905" lon="3.092451191726885"><ele>45.8</ele><time>2026-04-11T11:32:15Z</time></trkpt><trkpt lat="50.600333712144135" lon="3.0925470724969126"><ele>45.599999999999994</ele><time>2026-04-11T11:32:17Z</time></trkpt><trkpt lat="50.600258400797884" lon="3.092647722630272"><ele>45.4</ele><time>2026-04-11T11:32:19Z</time></trkpt><trkpt lat="50.60016968670878" lon="3.0927443371255037"><ele>45.2</ele><time>2026-04-11T11:32:21Z</time></trkpt><trkpt lat="50.60008802586817" lon="3.0928379103690826"><ele>45.0</ele><time>2026-04-11T11:32:23Z</time></trkpt><trkpt lat="50.6000095579282" lon="3.09294900889216"><ele>45.0</ele><time>2026-04-11T11:32:25Z</time></trkpt><trkpt lat="50.59992972424803" lon="3.0930510291656637"><ele>45.0</ele><time>2026-04-11T11:32:27Z</time></trkpt><trkpt lat="50.599850598443325" lon="3.093146189312141"><ele>45.0</ele><time>2026-04-11T11:32:29Z</time></trkpt><trkpt lat="50.59977041693788" lon="3.0932410401495694"><ele>45.0</ele><time>2026-04-11T11:32:31Z</time></trkpt><trkpt lat="50.59969095214206" lon="3.0933341476838963"><ele>45.0</ele><time>2026-04-11T11:32:33Z</time></trkpt><trkpt lat="50.59961235241725" lon="3.09343110264497"><ele>45.0</ele><time>2026-04-11T11:32:35Z</time></trkpt><trkpt lat="50.59953770391976" lon="3.09352039731542"><ele>45.0</ele><time>2026-04-11T11:32:37Z</time></trkpt><trkpt lat="50.59945355611339" lon="3.093616906917743"><ele>45.0</ele><time>2026-04-11T11:32:39Z</time></trkpt><trkpt lat="50.5993703083275" lon="3.093718874357017"><ele>45.0</ele><time>2026-04-11T11:32:41Z</time></trkpt><trkpt lat="50.59929817900283" lon="3.093800862860172"><ele>45.0</ele><time>2026-04-11T11:32:43Z</time></trkpt><trkpt lat="50.59922366410683" lon="3.093884150016622"><ele>45.0</ele><time>2026-04-11T11:32:45Z</time></trkpt><trkpt lat="50.59916252147745" lon="3.093965785714383"><ele>45.0</ele><time>2026-04-11T11:32:47Z</time></trkpt><trkpt lat="50.59910873295921" lon="3.0940274972180184"><ele>45.0</ele><time>2026-04-11T11:32:49Z</time></trkpt><trkpt lat="50.599047633149034" lon="3.0940854414876764"><ele>45.0</ele><time>2026-04-11T11:32:55Z</time></trkpt><trkpt lat="50.598960481275505" lon="3.0941321001047286"><ele>45.0</ele><time>2026-04-11T11:33:01Z</time></trkpt><trkpt lat="50.598894864912374" lon="3.0942082383672114"><ele>45.0</ele><time>2026-04-11T11:33:03Z</time></trkpt><trkpt lat="50.598809425884824" lon="3.094264092840612"><ele>45.2</ele><time>2026-04-11T11:33:05Z</time></trkpt><trkpt lat="50.59871680117823" lon="3.094308137932612"><ele>45.4</ele><time>2026-04-11T11:33:07Z</time></trkpt><trkpt lat="50.59862988573746" lon="3.094373242128182"><ele>45.599999999999994</ele><time>2026-04-11T11:33:09Z</time></trkpt><trkpt lat="50.598528723967746" lon="3.094444143149451"><ele>45.8</ele><time>2026-04-11T11:33:11Z</time></trkpt><trkpt lat="50.598442164821066" lon="3.09456400187756"><ele>46.0</ele><time>2026-04-11T11:33:13Z</time></trkpt><trkpt lat="50.5983927125703" lon="3.0947227486360394"><ele>46.0</ele><time>2026-04-11T11:33:15Z</time></trkpt><trkpt lat="50.59834706788715" lon="3.0948934407658295"><ele>46.0</ele><time>2026-04-11T11:33:17Z</time></trkpt><trkpt lat="50.59829921902557" lon="3.0950539145332154"><ele>46.0</ele><time>2026-04-11T11:33:19Z</time></trkpt><trkpt lat="50.59825668516703" lon="3.0952157050447484"><ele>46.0</ele><time>2026-04-11T11:33:21Z</time></trkpt><trkpt lat="50.59821356307198" lon="3.09537194164261"><ele>46.0</ele><time>2026-04-11T11:33:23Z</time></trkpt><trkpt lat="50.59816683711485" lon="3.095517215962064"><ele>46.0</ele><time>2026-04-11T11:33:25Z</time></trkpt><trkpt lat="50.598127933133576" lon="3.095673741415202"><ele>46.0</ele><time>2026-04-11T11:33:27Z</time></trkpt><trkpt lat="50.598082026735696" lon="3.0958347214756445"><ele>46.0</ele><time>2026-04-11T11:33:29Z</time></trkpt><trkpt lat="50.59803862216756" lon="3.0959891895368834"><ele>46.0</ele><time>2026-04-11T11:33:31Z</time></trkpt><trkpt lat="50.59797388449104" lon="3.0961425193464747"><ele>46.0</ele><time>2026-04-11T11:33:33Z</time></trkpt><trkpt lat="50.59790303181286" lon="3.09628444503894"><ele>46.0</ele><time>2026-04-11T11:33:35Z</time></trkpt><trkpt lat="50.597829693280026" lon="3.09641412449516"><ele>46.0</ele><time>2026-04-11T11:33:37Z</time></trkpt><trkpt lat="50.597758951310304" lon="3.096545508057059"><ele>46.0</ele><time>2026-04-11T11:33:39Z</time></trkpt><trkpt lat="50.597681529202" lon="3.096688582527314"><ele>46.0</ele><time>2026-04-11T11:33:41Z</time></trkpt><trkpt lat="50.59760949926013" lon="3.0968249800638796"><ele>46.0</ele><time>2026-04-11T11:33:43Z</time></trkpt><trkpt lat="50.59753493683943" lon="3.0969613254688033"><ele>46.0</ele><time>2026-04-11T11:33:45Z</time></trkpt><trkpt lat="50.59745817661135" lon="3.0970969794934433"><ele>46.0</ele><time>2026-04-11T11:33:47Z</time></trkpt><trkpt lat="50.59738391714779" lon="3.097237497330301"><ele>46.0</ele><time>2026-04-11T11:33:49Z</time></trkpt><trkpt lat="50.59730448708316" lon="3.097377370191553"><ele>46.5</ele><time>2026-04-11T11:33:51Z</time></trkpt><trkpt lat="50.59722919367372" lon="3.0975154513221783"><ele>47.0</ele><time>2026-04-11T11:33:53Z</time></trkpt><trkpt lat="50.59714946448196" lon="3.0976457126007637"><ele>47.5</ele><time>2026-04-11T11:33:55Z</time></trkpt><trkpt lat="50.5970582502661" lon="3.097765241255184"><ele>48.0</ele><time>2026-04-11T11:33:57Z</time></trkpt><trkpt lat="50.596974883780675" lon="3.097863041740582"><ele>48.25</ele><time>2026-04-11T11:33:59Z</time></trkpt><trkpt lat="50.596874835706295" lon="3.0978794167559394"><ele>48.5</ele><time>2026-04-11T11:34:01Z</time></trkpt><trkpt lat="50.59676452076655" lon="3.097817948193953"><ele>48.75</ele><time>2026-04-11T11:34:03Z</time></trkpt><trkpt lat="50.596650233062846" lon="3.097881800315472"><ele>49.0</ele><time>2026-04-11T11:34:05Z</time></trkpt><trkpt lat="50.596578280015954" lon="3.098034638279726"><ele>48.99999999999999</ele><time>2026-04-11T11:34:07Z</time></trkpt><trkpt lat="50.59656276212746" lon="3.0982290329793956"><ele>49.0</ele><time>2026-04-11T11:34:09Z</time></trkpt><trkpt lat="50.59654767701633" lon="3.0984228093250104"><ele>49.0</ele><time>2026-04-11T11:34:11Z</time></trkpt><trkpt lat="50.59651353683537" lon="3.098508066914994"><ele>49.0</ele><time>2026-04-11T11:34:12Z</time></trkpt><trkpt lat="50.596461892411114" lon="3.098573113401743"><ele>48.99999999999999</ele><time>2026-04-11T11:34:13Z</time></trkpt><trkpt lat="50.59640689306323" lon="3.098634631667079"><ele>49.0</ele><time>2026-04-11T11:34:14Z</time></trkpt><trkpt lat="50.59630925758126" lon="3.0987532057972444"><ele>48.800000000000004</ele><time>2026-04-11T11:34:16Z</time></trkpt><trkpt lat="50.5962137120736" lon="3.0988849520483783"><ele>48.6</ele><time>2026-04-11T11:34:18Z</time></trkpt><trkpt lat="50.59612764355412" lon="3.0990139740694973"><ele>48.4</ele><time>2026-04-11T11:34:20Z</time></trkpt><trkpt lat="50.59603691366021" lon="3.0991370739365025"><ele>48.2</ele><time>2026-04-11T11:34:22Z</time></trkpt><trkpt lat="50.59598540337496" lon="3.0991953057316133"><ele>48.0</ele><time>2026-04-11T11:34:23Z</time></trkpt><trkpt lat="50.59588501511065" lon="3.099296088906862"><ele>47.599999999999994</ele><time>2026-04-11T11:34:25Z</time></trkpt><trkpt lat="50.595789238745304" lon="3.0993778243530787"><ele>47.199999999999996</ele><time>2026-04-11T11:34:27Z</time></trkpt><trkpt lat="50.59569607551786" lon="3.099451812749249"><ele>46.8</ele><time>2026-04-11T11:34:29Z</time></trkpt><trkpt lat="50.59561045982469" lon="3.0995183323357787"><ele>46.4</ele><time>2026-04-11T11:34:31Z</time></trkpt><trkpt lat="50.59552840586128" lon="3.099577698651554"><ele>46.0</ele><time>2026-04-11T11:34:33Z</time></trkpt><trkpt lat="50.59544633902408" lon="3.099635163822215"><ele>46.0</ele><time>2026-04-11T11:34:35Z</time></trkpt><trkpt lat="50.59536660070691" lon="3.099694885208237"><ele>46.0</ele><time>2026-04-11T11:34:37Z</time></trkpt><trkpt lat="50.595287054358465" lon="3.0997502333299174"><ele>46.0</ele><time>2026-04-11T11:34:39Z</time></trkpt><trkpt lat="50.59521341810246" lon="3.099793971601626"><ele>46.0</ele><time>2026-04-11T11:34:41Z</time></trkpt><trkpt lat="50.59513686656623" lon="3.0998477241361946"><ele>46.0</ele><time>2026-04-11T11:34:43Z</time></trkpt><trkpt lat="50.595063713624604" lon="3.0998983873082615"><ele>46.0</ele><time>2026-04-11T11:34:45Z</time></trkpt><trkpt lat="50.594993091380545" lon="3.099946044480847"><ele>46.16666666666667</ele><time>2026-04-11T11:34:47Z</time></trkpt><trkpt lat="50.59492399136976" lon="3.099998146521236"><ele>46.333333333333336</ele><time>2026-04-11T11:34:49Z</time></trkpt><trkpt lat="50.59485294155276" lon="3.100043278835959"><ele>46.5</ele><time>2026-04-11T11:34:51Z</time></trkpt><trkpt lat="50.594784371185334" lon="3.100091094408531"><ele>46.666666666666664</ele><time>2026-04-11T11:34:53Z</time></trkpt><trkpt lat="50.59471728858113" lon="3.100139267786505"><ele>46.83333333333333</ele><time>2026-04-11T11:34:55Z</time></trkpt><trkpt lat="50.59465200842033" lon="3.10018031009592"><ele>47.0</ele><time>2026-04-11T11:34:57Z</time></trkpt><trkpt lat="50.594581928013056" lon="3.100232875302397"><ele>47.0</ele><time>2026-04-11T11:34:59Z</time></trkpt><trkpt lat="50.594506294785525" lon="3.100284796661858"><ele>47.0</ele><time>2026-04-11T11:35:01Z</time></trkpt><trkpt lat="50.59442782012304" lon="3.1003297584956684"><ele>47.0</ele><time>2026-04-11T11:35:03Z</time></trkpt><trkpt lat="50.59435228593353" lon="3.1003822185314447"><ele>47.0</ele><time>2026-04-11T11:35:05Z</time></trkpt><trkpt lat="50.594275016108966" lon="3.1004378306771603"><ele>47.0</ele><time>2026-04-11T11:35:07Z</time></trkpt><trkpt lat="50.59418715194064" lon="3.1005002158794945"><ele>47.0</ele><time>2026-04-11T11:35:09Z</time></trkpt><trkpt lat="50.59409770190029" lon="3.100558954212307"><ele>47.400000000000006</ele><time>2026-04-11T11:35:11Z</time></trkpt><trkpt lat="50.5940117912499" lon="3.100614585556474"><ele>47.800000000000004</ele><time>2026-04-11T11:35:13Z</time></trkpt><trkpt lat="50.59392016093687" lon="3.100676902150575"><ele>48.2</ele><time>2026-04-11T11:35:15Z</time></trkpt><trkpt lat="50.59382679610107" lon="3.100732419920686"><ele>48.6</ele><time>2026-04-11T11:35:17Z</time></trkpt><trkpt lat="50.593740822989375" lon="3.1007869323004127"><ele>49.0</ele><time>2026-04-11T11:35:19Z</time></trkpt><trkpt lat="50.593649593339755" lon="3.1008483847219956"><ele>50.0</ele><time>2026-04-11T11:35:21Z</time></trkpt><trkpt lat="50.59355383797378" lon="3.100905681641433"><ele>51.0</ele><time>2026-04-11T11:35:23Z</time></trkpt><trkpt lat="50.59345618590434" lon="3.1009736521516453"><ele>52.00000000000001</ele><time>2026-04-11T11:35:25Z</time></trkpt><trkpt lat="50.593354572822356" lon="3.1010361088307836"><ele>53.0</ele><time>2026-04-11T11:35:27Z</time></trkpt><trkpt lat="50.59325357221716" lon="3.101096197591747"><ele>54.0</ele><time>2026-04-11T11:35:29Z</time></trkpt><trkpt lat="50.593145820177774" lon="3.101137214021462"><ele>54.0</ele><time>2026-04-11T11:35:31Z</time></trkpt><trkpt lat="50.59303534061691" lon="3.1011626930149987"><ele>54.0</ele><time>2026-04-11T11:35:33Z</time></trkpt><trkpt lat="50.592917846843925" lon="3.1011783189924986"><ele>54.0</ele><time>2026-04-11T11:35:35Z</time></trkpt><trkpt lat="50.59279510902396" lon="3.1011849227694235"><ele>54.0</ele><time>2026-04-11T11:35:37Z</time></trkpt><trkpt lat="50.59267598202939" lon="3.1011912169627314"><ele>54.0</ele><time>2026-04-11T11:35:39Z</time></trkpt><trkpt lat="50.592549223807936" lon="3.101188453056401"><ele>54.0</ele><time>2026-04-11T11:35:41Z</time></trkpt><trkpt lat="50.592486092113425" lon="3.1011900688121834"><ele>54.0</ele><time>2026-04-11T11:35:42Z</time></trkpt><trkpt lat="50.59242095644007" lon="3.1011988009322566"><ele>54.0</ele><time>2026-04-11T11:35:43Z</time></trkpt><trkpt lat="50.59235539554548" lon="3.1012135807510917"><ele>54.0</ele><time>2026-04-11T11:35:44Z</time></trkpt><trkpt lat="50.592248520836" lon="3.1012484921063375"><ele>54.0</ele><time>2026-04-11T11:35:46Z</time></trkpt><trkpt lat="50.59213795022899" lon="3.1012786134385166"><ele>54.0</ele><time>2026-04-11T11:35:48Z</time></trkpt><trkpt lat="50.59203077796938" lon="3.101303178538896"><ele>54.0</ele><time>2026-04-11T11:35:50Z</time></trkpt><trkpt lat="50.59191179643446" lon="3.1013415210587234"><ele>54.0</ele><time>2026-04-11T11:35:52Z</time></trkpt><trkpt lat="50.59178975206364" lon="3.1013757098861006"><ele>54.0</ele><time>2026-04-11T11:35:54Z</time></trkpt><trkpt lat="50.59166353560042" lon="3.1014144369496512"><ele>54.0</ele><time>2026-04-11T11:35:56Z</time></trkpt><trkpt lat="50.59159717577922" lon="3.1014255081116175"><ele>54.0</ele><time>2026-04-11T11:35:57Z</time></trkpt><trkpt lat="50.59153256836664" lon="3.1014430025297997"><ele>54.0</ele><time>2026-04-11T11:35:58Z</time></trkpt><trkpt lat="50.59146530796203" lon="3.101461838622135"><ele>54.0</ele><time>2026-04-11T11:35:59Z</time></trkpt><trkpt lat="50.59139894023338" lon="3.1014803862842926"><ele>54.0</ele><time>2026-04-11T11:36:00Z</time></trkpt><trkpt lat="50.59133243532705" lon="3.1014949982638904"><ele>54.0</ele><time>2026-04-11T11:36:01Z</time></trkpt><trkpt lat="50.59126512718288" lon="3.1015089818388484"><ele>54.0</ele><time>2026-04-11T11:36:02Z</time></trkpt><trkpt lat="50.591198108490815" lon="3.101526898835403"><ele>53.714285714285715</ele><time>2026-04-11T11:36:03Z</time></trkpt><trkpt lat="50.59113095817847" lon="3.10154184962971"><ele>53.42857142857143</ele><time>2026-04-11T11:36:04Z</time></trkpt><trkpt lat="50.59106501440971" lon="3.1015527775757543"><ele>53.14285714285714</ele><time>2026-04-11T11:36:05Z</time></trkpt><trkpt lat="50.59099838148542" lon="3.1015561834029213"><ele>52.85714285714286</ele><time>2026-04-11T11:36:06Z</time></trkpt><trkpt lat="50.590933402088794" lon="3.10156088704713"><ele>52.57142857142858</ele><time>2026-04-11T11:36:07Z</time></trkpt><trkpt lat="50.590868462786936" lon="3.101580688224113"><ele>52.285714285714285</ele><time>2026-04-11T11:36:08Z</time></trkpt><trkpt lat="50.590807720163234" lon="3.101609142693855"><ele>52.0</ele><time>2026-04-11T11:36:09Z</time></trkpt><trkpt lat="50.59074321696738" lon="3.1016359366714736"><ele>51.83333333333333</ele><time>2026-04-11T11:36:10Z</time></trkpt><trkpt lat="50.59067774954794" lon="3.10165592545135"><ele>51.666666666666664</ele><time>2026-04-11T11:36:11Z</time></trkpt><trkpt lat="50.59061127020425" lon="3.1016790227418785"><ele>51.5</ele><time>2026-04-11T11:36:12Z</time></trkpt><trkpt lat="50.59054637227891" lon="3.1016920058314095"><ele>51.33333333333333</ele><time>2026-04-11T11:36:13Z</time></trkpt><trkpt lat="50.590480873259246" lon="3.1017048911972736"><ele>51.166666666666664</ele><time>2026-04-11T11:36:14Z</time></trkpt><trkpt lat="50.59035974769264" lon="3.1017224243882557"><ele>51.0</ele><time>2026-04-11T11:36:16Z</time></trkpt><trkpt lat="50.590296339651864" lon="3.1017309197244027"><ele>51.0</ele><time>2026-04-11T11:36:17Z</time></trkpt><trkpt lat="50.59019966453149" lon="3.101723858112577"><ele>51.0</ele><time>2026-04-11T11:36:19Z</time></trkpt><trkpt lat="50.59008315551386" lon="3.1016779637748804"><ele>51.0</ele><time>2026-04-11T11:36:21Z</time></trkpt><trkpt lat="50.59001997711476" lon="3.101660676883811"><ele>51.0</ele><time>2026-04-11T11:36:22Z</time></trkpt><trkpt lat="50.58993648331408" lon="3.1015285109192248"><ele>51.0</ele><time>2026-04-11T11:36:24Z</time></trkpt><trkpt lat="50.58987537375151" lon="3.101374516846044"><ele>51.0</ele><time>2026-04-11T11:36:26Z</time></trkpt><trkpt lat="50.58983159778887" lon="3.1012976745954126"><ele>51.0</ele><time>2026-04-11T11:36:27Z</time></trkpt><trkpt lat="50.58975183905744" lon="3.1011602079617653"><ele>51.0</ele><time>2026-04-11T11:36:29Z</time></trkpt><trkpt lat="50.58966482196579" lon="3.1010404207767803"><ele>51.0</ele><time>2026-04-11T11:36:31Z</time></trkpt><trkpt lat="50.58956753295591" lon="3.100930739943151"><ele>51.0</ele><time>2026-04-11T11:36:33Z</time></trkpt><trkpt lat="50.589468441002126" lon="3.1008329556975838"><ele>51.199999999999996</ele><time>2026-04-11T11:36:35Z</time></trkpt><trkpt lat="50.58936389581485" lon="3.1007560036011377"><ele>51.4</ele><time>2026-04-11T11:36:37Z</time></trkpt><trkpt lat="50.589265861769924" lon="3.100677077411179"><ele>51.6</ele><time>2026-04-11T11:36:39Z</time></trkpt><trkpt lat="50.58916543642425" lon="3.1005969034956258"><ele>51.8</ele><time>2026-04-11T11:36:41Z</time></trkpt><trkpt lat="50.589066789733025" lon="3.1005202790008175"><ele>52.0</ele><time>2026-04-11T11:36:43Z</time></trkpt><trkpt lat="50.58900698077471" lon="3.1004892579860246"><ele>52.0</ele><time>2026-04-11T11:36:44Z</time></trkpt><trkpt lat="50.58890660439474" lon="3.1004150064490017"><ele>52.0</ele><time>2026-04-11T11:36:46Z</time></trkpt><trkpt lat="50.58881129004442" lon="3.1003459636493447"><ele>52.0</ele><time>2026-04-11T11:36:48Z</time></trkpt><trkpt lat="50.588721475071026" lon="3.100283394108978"><ele>52.0</ele><time>2026-04-11T11:36:50Z</time></trkpt><trkpt lat="50.588649798267014" lon="3.100254718124657"><ele>52.0</ele><time>2026-04-11T11:36:52Z</time></trkpt><trkpt lat="50.588568365220056" lon="3.1002117082630765"><ele>52.2</ele><time>2026-04-11T11:36:55Z</time></trkpt><trkpt lat="50.588480263942664" lon="3.1001514340449963"><ele>52.400000000000006</ele><time>2026-04-11T11:36:57Z</time></trkpt><trkpt lat="50.588374971489436" lon="3.1001114586387426"><ele>52.599999999999994</ele><time>2026-04-11T11:36:59Z</time></trkpt><trkpt lat="50.58826766962861" lon="3.100207547956539"><ele>52.8</ele><time>2026-04-11T11:37:01Z</time></trkpt><trkpt lat="50.588241500553096" lon="3.1003070621157987"><ele>53.0</ele><time>2026-04-11T11:37:02Z</time></trkpt><trkpt lat="50.58822546857453" lon="3.1004032977695393"><ele>53.0</ele><time>2026-04-11T11:37:03Z</time></trkpt><trkpt lat="50.5882021558419" lon="3.1005074848198744"><ele>53.0</ele><time>2026-04-11T11:37:04Z</time></trkpt><trkpt lat="50.58816376422147" lon="3.1006872998156605"><ele>53.0</ele><time>2026-04-11T11:37:06Z</time></trkpt><trkpt lat="50.58813657262851" lon="3.100784820794321"><ele>53.0</ele><time>2026-04-11T11:37:07Z</time></trkpt><trkpt lat="50.588091938781446" lon="3.1009558361112433"><ele>53.0</ele><time>2026-04-11T11:37:09Z</time></trkpt><trkpt lat="50.58804847066369" lon="3.1011352903375005"><ele>53.0</ele><time>2026-04-11T11:37:11Z</time></trkpt><trkpt lat="50.588004970531145" lon="3.1013105149484237"><ele>53.0</ele><time>2026-04-11T11:37:13Z</time></trkpt><trkpt lat="50.587960748322054" lon="3.101465326940309"><ele>53.0</ele><time>2026-04-11T11:37:15Z</time></trkpt><trkpt lat="50.587904680358214" lon="3.101613582409057"><ele>53.0</ele><time>2026-04-11T11:37:17Z</time></trkpt><trkpt lat="50.58781062593046" lon="3.1017135445154596"><ele>53.4</ele><time>2026-04-11T11:37:18.999Z</time></trkpt><trkpt lat="50.58772470525465" lon="3.1018216769995637"><ele>53.8</ele><time>2026-04-11T11:37:20.999Z</time></trkpt><trkpt lat="50.58763573248838" lon="3.101935541170331"><ele>54.2</ele><time>2026-04-11T11:37:22.999Z</time></trkpt><trkpt lat="50.58755624942973" lon="3.1020373926500446"><ele>54.6</ele><time>2026-04-11T11:37:24.999Z</time></trkpt><trkpt lat="50.58747791961" lon="3.1021710029592766"><ele>55.0</ele><time>2026-04-11T11:37:26.999Z</time></trkpt><trkpt lat="50.5874049155726" lon="3.102311165047637"><ele>55.2</ele><time>2026-04-11T11:37:28.999Z</time></trkpt><trkpt lat="50.587335968721845" lon="3.102440082046254"><ele>55.4</ele><time>2026-04-11T11:37:30.999Z</time></trkpt><trkpt lat="50.58726959698939" lon="3.102578244334924"><ele>55.599999999999994</ele><time>2026-04-11T11:37:32.999Z</time></trkpt><trkpt lat="50.58720498001121" lon="3.1026994388403617"><ele>55.8</ele><time>2026-04-11T11:37:35Z</time></trkpt><trkpt lat="50.58713495640184" lon="3.102842554589524"><ele>56.0</ele><time>2026-04-11T11:37:37Z</time></trkpt><trkpt lat="50.587066574213885" lon="3.102987147699852"><ele>56.199999999999996</ele><time>2026-04-11T11:37:39Z</time></trkpt><trkpt lat="50.58700246796163" lon="3.1031303241519397"><ele>56.39999999999999</ele><time>2026-04-11T11:37:41Z</time></trkpt><trkpt lat="50.58693411211532" lon="3.103262126218164"><ele>56.6</ele><time>2026-04-11T11:37:43Z</time></trkpt><trkpt lat="50.58687062899942" lon="3.10340398344171"><ele>56.8</ele><time>2026-04-11T11:37:45Z</time></trkpt><trkpt lat="50.58678929530624" lon="3.1035302282506745"><ele>57.0</ele><time>2026-04-11T11:37:47Z</time></trkpt><trkpt lat="50.5867050203483" lon="3.1036381245708484"><ele>57.0</ele><time>2026-04-11T11:37:49Z</time></trkpt><trkpt lat="50.586621449213794" lon="3.1037699665879335"><ele>57.0</ele><time>2026-04-11T11:37:51Z</time></trkpt><trkpt lat="50.58657483702581" lon="3.1038381381269615"><ele>57.0</ele><time>2026-04-11T11:37:52Z</time></trkpt><trkpt lat="50.586505006525435" lon="3.1039215508905684"><ele>57.0</ele><time>2026-04-11T11:37:54Z</time></trkpt><trkpt lat="50.58644821701756" lon="3.103995647807777"><ele>57.0</ele><time>2026-04-11T11:37:57Z</time></trkpt><trkpt lat="50.58640945851218" lon="3.1040791175616858"><ele>57.0</ele><time>2026-04-11T11:38:00Z</time></trkpt><trkpt lat="50.586323088766456" lon="3.10417908051452"><ele>56.833333333333336</ele><time>2026-04-11T11:38:03Z</time></trkpt><trkpt lat="50.58625847322348" lon="3.1042713655134584"><ele>56.66666666666667</ele><time>2026-04-11T11:38:05Z</time></trkpt><trkpt lat="50.58617603791794" lon="3.104359227019621"><ele>56.5</ele><time>2026-04-11T11:38:07Z</time></trkpt><trkpt lat="50.58611290940285" lon="3.104449366201135"><ele>56.333333333333336</ele><time>2026-04-11T11:38:09Z</time></trkpt><trkpt lat="50.586052973760935" lon="3.104520273689672"><ele>56.16666666666667</ele><time>2026-04-11T11:38:11Z</time></trkpt><trkpt lat="50.58598943097781" lon="3.104569874951601"><ele>56.0</ele><time>2026-04-11T11:38:13Z</time></trkpt><trkpt lat="50.58592177984469" lon="3.104650019663025"><ele>55.66666666666667</ele><time>2026-04-11T11:38:15Z</time></trkpt><trkpt lat="50.585860949534364" lon="3.104732043652347"><ele>55.333333333333336</ele><time>2026-04-11T11:38:17Z</time></trkpt><trkpt lat="50.58579020706916" lon="3.1047912133042637"><ele>55.0</ele><time>2026-04-11T11:38:19Z</time></trkpt><trkpt lat="50.5857318088807" lon="3.1048708744698543"><ele>54.66666666666667</ele><time>2026-04-11T11:38:21Z</time></trkpt><trkpt lat="50.58567048827319" lon="3.104928439430963"><ele>54.333333333333336</ele><time>2026-04-11T11:38:23Z</time></trkpt><trkpt lat="50.58559688706533" lon="3.104991748811771"><ele>54.0</ele><time>2026-04-11T11:38:25Z</time></trkpt><trkpt lat="50.58555003148984" lon="3.105073801375174"><ele>54.0</ele><time>2026-04-11T11:38:28Z</time></trkpt><trkpt lat="50.58556126126753" lon="3.1051770459371535"><ele>54.0</ele><time>2026-04-11T11:38:35Z</time></trkpt><trkpt lat="50.585478519953504" lon="3.1051668125101797"><ele>54.0</ele><time>2026-04-11T11:38:42Z</time></trkpt><trkpt lat="50.585415443568216" lon="3.105207338307423"><ele>54.0</ele><time>2026-04-11T11:38:45Z</time></trkpt><trkpt lat="50.58533938294525" lon="3.105285990320445"><ele>54.0</ele><time>2026-04-11T11:38:48Z</time></trkpt><trkpt lat="50.58527301300687" lon="3.1053569601451207"><ele>54.0</ele><time>2026-04-11T11:38:50Z</time></trkpt><trkpt lat="50.58519581605206" lon="3.1054334263502725"><ele>54.2</ele><time>2026-04-11T11:38:52Z</time></trkpt><trkpt lat="50.585120925586985" lon="3.1055167638988195"><ele>54.400000000000006</ele><time>2026-04-11T11:38:54Z</time></trkpt><trkpt lat="50.58503160043355" lon="3.105601604135115"><ele>54.6</ele><time>2026-04-11T11:38:56Z</time></trkpt><trkpt lat="50.58494481968121" lon="3.105699296558083"><ele>54.8</ele><time>2026-04-11T11:38:58Z</time></trkpt><trkpt lat="50.584841903293515" lon="3.1057563522010057"><ele>55.0</ele><time>2026-04-11T11:39:00Z</time></trkpt><trkpt lat="50.58472457744075" lon="3.105799494437641"><ele>54.666666666666664</ele><time>2026-04-11T11:39:02Z</time></trkpt><trkpt lat="50.58462692282881" lon="3.105826143428604"><ele>54.33333333333333</ele><time>2026-04-11T11:39:04Z</time></trkpt><trkpt lat="50.58455151728438" lon="3.1058004510754755"><ele>54.0</ele><time>2026-04-11T11:39:10Z</time></trkpt><trkpt lat="50.58447134115305" lon="3.1058035166884013"><ele>53.66666666666667</ele><time>2026-04-11T11:39:13Z</time></trkpt><trkpt lat="50.58439714318812" lon="3.105812893535505"><ele>53.333333333333336</ele><time>2026-04-11T11:39:15Z</time></trkpt><trkpt lat="50.584292088602055" lon="3.1057960188438827"><ele>53.0</ele><time>2026-04-11T11:39:17Z</time></trkpt><trkpt lat="50.584172284207924" lon="3.105792880742322"><ele>53.0</ele><time>2026-04-11T11:39:19Z</time></trkpt><trkpt lat="50.584102698669014" lon="3.1057834156576614"><ele>53.0</ele><time>2026-04-11T11:39:20Z</time></trkpt><trkpt lat="50.58403560545373" lon="3.1057752086490575"><ele>53.0</ele><time>2026-04-11T11:39:21Z</time></trkpt><trkpt lat="50.58396713456921" lon="3.105768149134247"><ele>53.0</ele><time>2026-04-11T11:39:22Z</time></trkpt><trkpt lat="50.583900045058904" lon="3.1057595354996077"><ele>53.0</ele><time>2026-04-11T11:39:23Z</time></trkpt><trkpt lat="50.58383273325637" lon="3.10575338320564"><ele>53.0</ele><time>2026-04-11T11:39:24Z</time></trkpt><trkpt lat="50.5837662782263" lon="3.1057365342410894"><ele>53.0</ele><time>2026-04-11T11:39:25Z</time></trkpt><trkpt lat="50.583701777377854" lon="3.1057229631951855"><ele>52.4</ele><time>2026-04-11T11:39:26Z</time></trkpt><trkpt lat="50.58356176529" lon="3.10570624009865"><ele>51.8</ele><time>2026-04-11T11:39:28Z</time></trkpt><trkpt lat="50.583491054433786" lon="3.105703364986556"><ele>51.2</ele><time>2026-04-11T11:39:29Z</time></trkpt><trkpt lat="50.58341792384756" lon="3.105696173843524"><ele>50.6</ele><time>2026-04-11T11:39:30Z</time></trkpt><trkpt lat="50.583353688556834" lon="3.1056852233081744"><ele>50.0</ele><time>2026-04-11T11:39:31Z</time></trkpt><trkpt lat="50.583237690138155" lon="3.105667483203226"><ele>50.00000000000001</ele><time>2026-04-11T11:39:33Z</time></trkpt><trkpt lat="50.583174719794" lon="3.105661482672961"><ele>50.0</ele><time>2026-04-11T11:39:34Z</time></trkpt><trkpt lat="50.58307404768354" lon="3.105643758037755"><ele>50.0</ele><time>2026-04-11T11:39:36Z</time></trkpt><trkpt lat="50.58297530234094" lon="3.105632800952139"><ele>50.0</ele><time>2026-04-11T11:39:38Z</time></trkpt><trkpt lat="50.58288094022005" lon="3.1056254441910527"><ele>50.00000000000001</ele><time>2026-04-11T11:39:40Z</time></trkpt><trkpt lat="50.58279291302711" lon="3.1056135560765767"><ele>50.0</ele><time>2026-04-11T11:39:42Z</time></trkpt><trkpt lat="50.582708764384705" lon="3.1055956521321173"><ele>50.42857142857143</ele><time>2026-04-11T11:39:44Z</time></trkpt><trkpt lat="50.58262431368977" lon="3.1055831942657535"><ele>50.85714285714286</ele><time>2026-04-11T11:39:46Z</time></trkpt><trkpt lat="50.58255407946311" lon="3.105576814059744"><ele>51.28571428571429</ele><time>2026-04-11T11:39:48Z</time></trkpt><trkpt lat="50.58247633444579" lon="3.1055763987070053"><ele>51.714285714285715</ele><time>2026-04-11T11:39:50Z</time></trkpt><trkpt lat="50.58241276392061" lon="3.1055473789876555"><ele>52.14285714285714</ele><time>2026-04-11T11:39:52Z</time></trkpt><trkpt lat="50.582345085401165" lon="3.105537294384776"><ele>52.57142857142858</ele><time>2026-04-11T11:39:54Z</time></trkpt><trkpt lat="50.582272335044614" lon="3.1055323631680287"><ele>53.0</ele><time>2026-04-11T11:39:56Z</time></trkpt><trkpt lat="50.582163888247976" lon="3.105499154472054"><ele>53.00000000000001</ele><time>2026-04-11T11:44:25Z</time></trkpt><trkpt lat="50.58208524333028" lon="3.1054819074755127"><ele>53.0</ele><time>2026-04-11T11:44:28Z</time></trkpt><trkpt lat="50.58201702656667" lon="3.105494899887065"><ele>53.0</ele><time>2026-04-11T11:44:30Z</time></trkpt><trkpt lat="50.581938833041626" lon="3.105501370335674"><ele>53.0</ele><time>2026-04-11T11:44:32Z</time></trkpt><trkpt lat="50.581860721047484" lon="3.1055046150548784"><ele>53.00000000000001</ele><time>2026-04-11T11:44:34Z</time></trkpt><trkpt lat="50.581780860402205" lon="3.105494167269086"><ele>53.0</ele><time>2026-04-11T11:44:36Z</time></trkpt><trkpt lat="50.581688928588946" lon="3.1054915506485994"><ele>53.4</ele><time>2026-04-11T11:44:38Z</time></trkpt><trkpt lat="50.58159387163739" lon="3.105503307139281"><ele>53.8</ele><time>2026-04-11T11:44:40Z</time></trkpt><trkpt lat="50.58149373296996" lon="3.1055251968761466"><ele>54.2</ele><time>2026-04-11T11:44:42Z</time></trkpt><trkpt lat="50.58139826600228" lon="3.105543923681749"><ele>54.6</ele><time>2026-04-11T11:44:44Z</time></trkpt><trkpt lat="50.58130739820858" lon="3.1055642726133392"><ele>55.0</ele><time>2026-04-11T11:44:46Z</time></trkpt><trkpt lat="50.58120758184719" lon="3.105577982588805"><ele>55.0</ele><time>2026-04-11T11:44:48Z</time></trkpt><trkpt lat="50.581104619152015" lon="3.105628093447122"><ele>55.0</ele><time>2026-04-11T11:44:50Z</time></trkpt><trkpt lat="50.58099969176213" lon="3.105684736590262"><ele>55.0</ele><time>2026-04-11T11:44:52Z</time></trkpt><trkpt lat="50.58089013375706" lon="3.1057312302173736"><ele>55.0</ele><time>2026-04-11T11:44:54Z</time></trkpt><trkpt lat="50.58078084133598" lon="3.1057549020972854"><ele>55.0</ele><time>2026-04-11T11:44:56Z</time></trkpt><trkpt lat="50.58066967570611" lon="3.105825044436167"><ele>55.0</ele><time>2026-04-11T11:44:58Z</time></trkpt><trkpt lat="50.580564790725305" lon="3.105905080540367"><ele>55.0</ele><time>2026-04-11T11:45:00Z</time></trkpt><trkpt lat="50.58051225253468" lon="3.1059601580965044"><ele>55.0</ele><time>2026-04-11T11:45:01Z</time></trkpt><trkpt lat="50.58039536993345" lon="3.1059958436230106"><ele>55.0</ele><time>2026-04-11T11:45:03Z</time></trkpt><trkpt lat="50.580280336942636" lon="3.106059326523752"><ele>55.0</ele><time>2026-04-11T11:45:05Z</time></trkpt><trkpt lat="50.58022077495811" lon="3.106097104712173"><ele>54.83333333333333</ele><time>2026-04-11T11:45:06Z</time></trkpt><trkpt lat="50.58015816933596" lon="3.106131326612288"><ele>54.666666666666664</ele><time>2026-04-11T11:45:07Z</time></trkpt><trkpt lat="50.580096842763396" lon="3.1061690077095547"><ele>54.5</ele><time>2026-04-11T11:45:08Z</time></trkpt><trkpt lat="50.58003683576958" lon="3.106201441054006"><ele>54.33333333333333</ele><time>2026-04-11T11:45:09Z</time></trkpt><trkpt lat="50.57997525226175" lon="3.1062370259798455"><ele>54.166666666666664</ele><time>2026-04-11T11:45:10Z</time></trkpt><trkpt lat="50.57986172475126" lon="3.1063155872372965"><ele>54.0</ele><time>2026-04-11T11:45:12Z</time></trkpt><trkpt lat="50.57973624237996" lon="3.1063795848222697"><ele>54.0</ele><time>2026-04-11T11:45:14Z</time></trkpt><trkpt lat="50.579620012231025" lon="3.1064437565419034"><ele>54.0</ele><time>2026-04-11T11:45:16Z</time></trkpt><trkpt lat="50.57955413794496" lon="3.106479625847035"><ele>54.0</ele><time>2026-04-11T11:45:17Z</time></trkpt><trkpt lat="50.57949071036638" lon="3.106506745226696"><ele>54.0</ele><time>2026-04-11T11:45:18Z</time></trkpt><trkpt lat="50.57942734612628" lon="3.1065333247773297"><ele>54.0</ele><time>2026-04-11T11:45:19Z</time></trkpt><trkpt lat="50.57936061370341" lon="3.106568556410162"><ele>54.0</ele><time>2026-04-11T11:45:20Z</time></trkpt><trkpt lat="50.57929573303647" lon="3.1066071103717037"><ele>54.6</ele><time>2026-04-11T11:45:21Z</time></trkpt><trkpt lat="50.57917178789465" lon="3.106664006642717"><ele>55.2</ele><time>2026-04-11T11:45:23Z</time></trkpt><trkpt lat="50.57910829634952" lon="3.106697703650577"><ele>55.800000000000004</ele><time>2026-04-11T11:45:24Z</time></trkpt><trkpt lat="50.579043005603054" lon="3.1067362250391994"><ele>56.400000000000006</ele><time>2026-04-11T11:45:25Z</time></trkpt><trkpt lat="50.57898127038538" lon="3.106775975467749"><ele>57.0</ele><time>2026-04-11T11:45:26Z</time></trkpt><trkpt lat="50.57884985050274" lon="3.106824493261527"><ele>57.0</ele><time>2026-04-11T11:45:28Z</time></trkpt><trkpt lat="50.57878199760174" lon="3.106860532536402"><ele>57.0</ele><time>2026-04-11T11:45:29Z</time></trkpt><trkpt lat="50.578718011337926" lon="3.106899788359952"><ele>57.0</ele><time>2026-04-11T11:45:30Z</time></trkpt><trkpt lat="50.57865660470009" lon="3.1069252974095587"><ele>57.0</ele><time>2026-04-11T11:45:31Z</time></trkpt><trkpt lat="50.57859023035736" lon="3.106960989804746"><ele>57.0</ele><time>2026-04-11T11:45:32Z</time></trkpt><trkpt lat="50.57852612922822" lon="3.106992787228196"><ele>57.0</ele><time>2026-04-11T11:45:33Z</time></trkpt><trkpt lat="50.57840990154334" lon="3.107050927321898"><ele>56.42857142857142</ele><time>2026-04-11T11:45:35Z</time></trkpt><trkpt lat="50.57834645523404" lon="3.107081915645896"><ele>55.85714285714285</ele><time>2026-04-11T11:45:36Z</time></trkpt><trkpt lat="50.578284969153465" lon="3.107117204871531"><ele>55.285714285714285</ele><time>2026-04-11T11:45:37Z</time></trkpt><trkpt lat="50.57822124071885" lon="3.1071505735017317"><ele>54.71428571428571</ele><time>2026-04-11T11:45:38Z</time></trkpt><trkpt lat="50.57815989017682" lon="3.1071871392703496"><ele>54.14285714285714</ele><time>2026-04-11T11:45:39Z</time></trkpt><trkpt lat="50.578097347901135" lon="3.1072359378022005"><ele>53.57142857142857</ele><time>2026-04-11T11:45:40Z</time></trkpt><trkpt lat="50.57803637595041" lon="3.107279911898006"><ele>53.0</ele><time>2026-04-11T11:45:41Z</time></trkpt><trkpt lat="50.57797760205591" lon="3.1073326303970825"><ele>53.0</ele><time>2026-04-11T11:45:42Z</time></trkpt><trkpt lat="50.57791632031295" lon="3.107377176783551"><ele>53.0</ele><time>2026-04-11T11:45:43Z</time></trkpt><trkpt lat="50.57785825646579" lon="3.1074332604048505"><ele>53.0</ele><time>2026-04-11T11:45:44Z</time></trkpt><trkpt lat="50.57780386112133" lon="3.107498460598842"><ele>53.0</ele><time>2026-04-11T11:45:45Z</time></trkpt><trkpt lat="50.57775177080368" lon="3.1075651073506583"><ele>53.0</ele><time>2026-04-11T11:45:46Z</time></trkpt><trkpt lat="50.577702028403806" lon="3.1076297372321724"><ele>53.0</ele><time>2026-04-11T11:45:47Z</time></trkpt><trkpt lat="50.577652069405474" lon="3.1076987893887624"><ele>53.0</ele><time>2026-04-11T11:45:48Z</time></trkpt><trkpt lat="50.57759696603413" lon="3.1077629683895265"><ele>52.85714285714286</ele><time>2026-04-11T11:45:49Z</time></trkpt><trkpt lat="50.57754183980568" lon="3.1078233390028625"><ele>52.71428571428571</ele><time>2026-04-11T11:45:50Z</time></trkpt><trkpt lat="50.57748556277785" lon="3.1078912515558965"><ele>52.57142857142857</ele><time>2026-04-11T11:45:51Z</time></trkpt><trkpt lat="50.577433243180636" lon="3.107958690968871"><ele>52.42857142857143</ele><time>2026-04-11T11:45:52Z</time></trkpt><trkpt lat="50.57738259085154" lon="3.1080318081961313"><ele>52.28571428571429</ele><time>2026-04-11T11:45:53Z</time></trkpt><trkpt lat="50.57733223022528" lon="3.108105588037226"><ele>52.14285714285714</ele><time>2026-04-11T11:45:53.999Z</time></trkpt><trkpt lat="50.577279087734205" lon="3.1081840150188205"><ele>52.0</ele><time>2026-04-11T11:45:54.999Z</time></trkpt><trkpt lat="50.577222624998605" lon="3.108254777183549"><ele>52.0</ele><time>2026-04-11T11:45:55.999Z</time></trkpt><trkpt lat="50.57716835641373" lon="3.1083256091748455"><ele>52.0</ele><time>2026-04-11T11:45:56.999Z</time></trkpt><trkpt lat="50.577115320346756" lon="3.1083954985133704"><ele>52.0</ele><time>2026-04-11T11:45:58Z</time></trkpt><trkpt lat="50.577061273999185" lon="3.1084654558020897"><ele>52.0</ele><time>2026-04-11T11:45:59Z</time></trkpt><trkpt lat="50.577008360890126" lon="3.108533397062409"><ele>52.0</ele><time>2026-04-11T11:46:00Z</time></trkpt><trkpt lat="50.576951264315866" lon="3.1086099241343725"><ele>52.0</ele><time>2026-04-11T11:46:01Z</time></trkpt><trkpt lat="50.576901543716055" lon="3.108674240069322"><ele>52.0</ele><time>2026-04-11T11:46:02Z</time></trkpt><trkpt lat="50.57684908254301" lon="3.1087476838039105"><ele>52.0</ele><time>2026-04-11T11:46:03Z</time></trkpt><trkpt lat="50.57679481866724" lon="3.1088203477139458"><ele>52.0</ele><time>2026-04-11T11:46:04Z</time></trkpt><trkpt lat="50.576742185485266" lon="3.1088850554337406"><ele>52.0</ele><time>2026-04-11T11:46:05Z</time></trkpt><trkpt lat="50.576688590538915" lon="3.108944265500187"><ele>52.0</ele><time>2026-04-11T11:46:06Z</time></trkpt><trkpt lat="50.57663632068768" lon="3.1090164216351575"><ele>52.0</ele><time>2026-04-11T11:46:07Z</time></trkpt><trkpt lat="50.57657991291129" lon="3.10909021559481"><ele>52.0</ele><time>2026-04-11T11:46:08Z</time></trkpt><trkpt lat="50.57652560218483" lon="3.1091568413781348"><ele>52.0</ele><time>2026-04-11T11:46:09Z</time></trkpt><trkpt lat="50.576471322556635" lon="3.109230200771339"><ele>52.285714285714285</ele><time>2026-04-11T11:46:10Z</time></trkpt><trkpt lat="50.57641396133248" lon="3.109300204840991"><ele>52.57142857142858</ele><time>2026-04-11T11:46:11Z</time></trkpt><trkpt lat="50.57635909925645" lon="3.1093734252087177"><ele>52.85714285714286</ele><time>2026-04-11T11:46:12Z</time></trkpt><trkpt lat="50.57630327692103" lon="3.109446612894294"><ele>53.14285714285714</ele><time>2026-04-11T11:46:13Z</time></trkpt><trkpt lat="50.57624712295055" lon="3.109517975849246"><ele>53.42857142857143</ele><time>2026-04-11T11:46:14Z</time></trkpt><trkpt lat="50.57619526538365" lon="3.1095918447728272"><ele>53.714285714285715</ele><time>2026-04-11T11:46:15Z</time></trkpt><trkpt lat="50.57614079617047" lon="3.1096575831664994"><ele>54.0</ele><time>2026-04-11T11:46:16Z</time></trkpt><trkpt lat="50.57608467971709" lon="3.1097294221721548"><ele>53.0</ele><time>2026-04-11T11:46:17Z</time></trkpt><trkpt lat="50.57603112786138" lon="3.1098002037285255"><ele>52.0</ele><time>2026-04-11T11:46:18Z</time></trkpt><trkpt lat="50.57597704847788" lon="3.1098691204965023"><ele>51.0</ele><time>2026-04-11T11:46:19Z</time></trkpt><trkpt lat="50.57592279587225" lon="3.10994207664932"><ele>50.0</ele><time>2026-04-11T11:46:20Z</time></trkpt><trkpt lat="50.57587093676324" lon="3.110015936730001"><ele>49.0</ele><time>2026-04-11T11:46:21Z</time></trkpt><trkpt lat="50.575816336957836" lon="3.1100871895745934"><ele>48.0</ele><time>2026-04-11T11:46:22Z</time></trkpt><trkpt lat="50.57576204768075" lon="3.110156447369749"><ele>47.0</ele><time>2026-04-11T11:46:23Z</time></trkpt><trkpt lat="50.57570600589052" lon="3.1102285075696336"><ele>47.0</ele><time>2026-04-11T11:46:24Z</time></trkpt><trkpt lat="50.57565055410033" lon="3.110295001774263"><ele>47.0</ele><time>2026-04-11T11:46:25Z</time></trkpt><trkpt lat="50.5755957152019" lon="3.11036259697537"><ele>47.0</ele><time>2026-04-11T11:46:26Z</time></trkpt><trkpt lat="50.57553944498489" lon="3.1104335363959037"><ele>47.0</ele><time>2026-04-11T11:46:27Z</time></trkpt><trkpt lat="50.575487420021894" lon="3.1105071656457444"><ele>47.0</ele><time>2026-04-11T11:46:28Z</time></trkpt><trkpt lat="50.5754352443085" lon="3.1105810563977943"><ele>47.0</ele><time>2026-04-11T11:46:29Z</time></trkpt><trkpt lat="50.57537985617592" lon="3.1106495214290417"><ele>47.0</ele><time>2026-04-11T11:46:30Z</time></trkpt><trkpt lat="50.5753242856313" lon="3.1107151525138845"><ele>46.666666666666664</ele><time>2026-04-11T11:46:31Z</time></trkpt><trkpt lat="50.57527169668004" lon="3.1107844457824756"><ele>46.33333333333333</ele><time>2026-04-11T11:46:32Z</time></trkpt><trkpt lat="50.575220344280545" lon="3.1108528221259633"><ele>46.0</ele><time>2026-04-11T11:46:33Z</time></trkpt><trkpt lat="50.57517168150778" lon="3.110919152142761"><ele>45.666666666666664</ele><time>2026-04-11T11:46:34Z</time></trkpt><trkpt lat="50.57508679438548" lon="3.111022428685136"><ele>45.333333333333336</ele><time>2026-04-11T11:46:36Z</time></trkpt><trkpt lat="50.57502887723836" lon="3.1111140714497094"><ele>45.0</ele><time>2026-04-11T11:46:38Z</time></trkpt><trkpt lat="50.575007996817064" lon="3.111255964391424"><ele>45.0</ele><time>2026-04-11T11:46:40Z</time></trkpt><trkpt lat="50.575091677611994" lon="3.111392776448402"><ele>45.0</ele><time>2026-04-11T11:46:42Z</time></trkpt><trkpt lat="50.575181156835065" lon="3.111518937051551"><ele>45.0</ele><time>2026-04-11T11:46:44Z</time></trkpt><trkpt lat="50.575233958939485" lon="3.1116943452967143"><ele>45.0</ele><time>2026-04-11T11:46:46Z</time></trkpt><trkpt lat="50.575247813675865" lon="3.1117913959631305"><ele>45.0</ele><time>2026-04-11T11:46:47Z</time></trkpt><trkpt lat="50.575251235243776" lon="3.1119925420991104"><ele>45.2</ele><time>2026-04-11T11:46:49Z</time></trkpt><trkpt lat="50.57525077817074" lon="3.112092285760459"><ele>45.4</ele><time>2026-04-11T11:46:50Z</time></trkpt><trkpt lat="50.57525025038045" lon="3.112191956623466"><ele>45.599999999999994</ele><time>2026-04-11T11:46:51Z</time></trkpt><trkpt lat="50.575242246688035" lon="3.1123813214600604"><ele>45.8</ele><time>2026-04-11T11:46:53Z</time></trkpt><trkpt lat="50.5752241192471" lon="3.1125593027602276"><ele>46.0</ele><time>2026-04-11T11:46:55Z</time></trkpt><trkpt lat="50.57516838076396" lon="3.1127160841678605"><ele>46.16666666666667</ele><time>2026-04-11T11:46:57Z</time></trkpt><trkpt lat="50.57511955813089" lon="3.1127840522763597"><ele>46.333333333333336</ele><time>2026-04-11T11:46:58Z</time></trkpt><trkpt lat="50.57501688024688" lon="3.1128897406772635"><ele>46.5</ele><time>2026-04-11T11:47:00Z</time></trkpt><trkpt lat="50.574995322245" lon="3.112986278648075"><ele>46.666666666666664</ele><time>2026-04-11T11:47:01Z</time></trkpt><trkpt lat="50.57499359907618" lon="3.113089586782566"><ele>46.83333333333333</ele><time>2026-04-11T11:47:02Z</time></trkpt><trkpt lat="50.575050289997904" lon="3.1132397436326373"><ele>47.0</ele><time>2026-04-11T11:47:04Z</time></trkpt><trkpt lat="50.575139945603546" lon="3.113364063117487"><ele>47.0</ele><time>2026-04-11T11:47:06Z</time></trkpt><trkpt lat="50.57517465442605" lon="3.1134495801526936"><ele>47.0</ele><time>2026-04-11T11:47:07Z</time></trkpt><trkpt lat="50.575180537774294" lon="3.1136472430243898"><ele>47.0</ele><time>2026-04-11T11:47:09Z</time></trkpt><trkpt lat="50.57518328487406" lon="3.113749339373608"><ele>47.0</ele><time>2026-04-11T11:47:10Z</time></trkpt><trkpt lat="50.575193746692975" lon="3.113848049634689"><ele>47.0</ele><time>2026-04-11T11:47:11Z</time></trkpt><trkpt lat="50.57521012877294" lon="3.1139480237969615"><ele>47.0</ele><time>2026-04-11T11:47:12Z</time></trkpt><trkpt lat="50.57522800795198" lon="3.114048298544979"><ele>46.857142857142854</ele><time>2026-04-11T11:47:13Z</time></trkpt><trkpt lat="50.57524354799392" lon="3.1141494568404933"><ele>46.71428571428571</ele><time>2026-04-11T11:47:14Z</time></trkpt><trkpt lat="50.57525001866997" lon="3.1142614046558044"><ele>46.57142857142857</ele><time>2026-04-11T11:47:15Z</time></trkpt><trkpt lat="50.57525397213298" lon="3.114368424043655"><ele>46.42857142857143</ele><time>2026-04-11T11:47:16Z</time></trkpt><trkpt lat="50.57525917640186" lon="3.1144774108789894"><ele>46.285714285714285</ele><time>2026-04-11T11:47:17Z</time></trkpt><trkpt lat="50.575261360739155" lon="3.114590090433519"><ele>46.142857142857146</ele><time>2026-04-11T11:47:18Z</time></trkpt><trkpt lat="50.5752639672491" lon="3.1147042339100155"><ele>46.0</ele><time>2026-04-11T11:47:19Z</time></trkpt><trkpt lat="50.575264804639914" lon="3.114813376166633"><ele>46.0</ele><time>2026-04-11T11:47:20Z</time></trkpt><trkpt lat="50.57527075288535" lon="3.1149334897026018"><ele>46.0</ele><time>2026-04-11T11:47:21Z</time></trkpt><trkpt lat="50.57527107878361" lon="3.115043876036295"><ele>46.0</ele><time>2026-04-11T11:47:22Z</time></trkpt><trkpt lat="50.57527260708011" lon="3.1151504597690276"><ele>46.0</ele><time>2026-04-11T11:47:23Z</time></trkpt><trkpt lat="50.57527683487089" lon="3.1152638058478996"><ele>46.0</ele><time>2026-04-11T11:47:24Z</time></trkpt><trkpt lat="50.575275327884164" lon="3.1153677370414945"><ele>46.0</ele><time>2026-04-11T11:47:25Z</time></trkpt><trkpt lat="50.57527754165472" lon="3.1154795912613995"><ele>46.0</ele><time>2026-04-11T11:47:26Z</time></trkpt><trkpt lat="50.57528144842812" lon="3.1155954055226056"><ele>46.0</ele><time>2026-04-11T11:47:27Z</time></trkpt><trkpt lat="50.575282768695054" lon="3.115710402020141"><ele>46.0</ele><time>2026-04-11T11:47:28Z</time></trkpt><trkpt lat="50.57528354583648" lon="3.115824097924072"><ele>46.0</ele><time>2026-04-11T11:47:29Z</time></trkpt><trkpt lat="50.57528390020244" lon="3.1159302058894602"><ele>46.0</ele><time>2026-04-11T11:47:30Z</time></trkpt><trkpt lat="50.57529103203228" lon="3.1160476015965903"><ele>46.0</ele><time>2026-04-11T11:47:31Z</time></trkpt><trkpt lat="50.5752917731818" lon="3.116157557448464"><ele>46.0</ele><time>2026-04-11T11:47:32Z</time></trkpt><trkpt lat="50.575294292039636" lon="3.1162648172550367"><ele>46.0</ele><time>2026-04-11T11:47:33Z</time></trkpt><trkpt lat="50.57529768858024" lon="3.116369660523767"><ele>46.0</ele><time>2026-04-11T11:47:34Z</time></trkpt><trkpt lat="50.575298956700316" lon="3.1164738860210806"><ele>46.0</ele><time>2026-04-11T11:47:35Z</time></trkpt><trkpt lat="50.575301164311206" lon="3.116576597167133"><ele>46.0</ele><time>2026-04-11T11:47:36Z</time></trkpt><trkpt lat="50.57530390118911" lon="3.116678388022472"><ele>46.0</ele><time>2026-04-11T11:47:37Z</time></trkpt><trkpt lat="50.57530782304081" lon="3.1167834736162994"><ele>46.0</ele><time>2026-04-11T11:47:38Z</time></trkpt><trkpt lat="50.575309467284924" lon="3.1169751555179457"><ele>46.0</ele><time>2026-04-11T11:47:40Z</time></trkpt><trkpt lat="50.57531407401521" lon="3.11707414518856"><ele>46.0</ele><time>2026-04-11T11:47:40.999Z</time></trkpt><trkpt lat="50.575311435720806" lon="3.1172621724005993"><ele>46.0</ele><time>2026-04-11T11:47:42.999Z</time></trkpt><trkpt lat="50.575315228419875" lon="3.1173622121474898"><ele>46.0</ele><time>2026-04-11T11:47:43.999Z</time></trkpt><trkpt lat="50.57530479955993" lon="3.1175496492812944"><ele>46.0</ele><time>2026-04-11T11:47:45.999Z</time></trkpt><trkpt lat="50.575298091379864" lon="3.1176497828694347"><ele>46.0</ele><time>2026-04-11T11:47:46.999Z</time></trkpt><trkpt lat="50.57527371430676" lon="3.117838739917497"><ele>46.0</ele><time>2026-04-11T11:47:48.999Z</time></trkpt><trkpt lat="50.57525732672403" lon="3.117935715954262"><ele>46.0</ele><time>2026-04-11T11:47:49.999Z</time></trkpt><trkpt lat="50.575235624583684" lon="3.11803403523547"><ele>46.16666666666667</ele><time>2026-04-11T11:47:50.999Z</time></trkpt><trkpt lat="50.57517265215195" lon="3.1182061117222455"><ele>46.333333333333336</ele><time>2026-04-11T11:47:52.999Z</time></trkpt><trkpt lat="50.57513051361757" lon="3.118283460606659"><ele>46.5</ele><time>2026-04-11T11:47:53.999Z</time></trkpt><trkpt lat="50.5750834092579" lon="3.1183543173599904"><ele>46.666666666666664</ele><time>2026-04-11T11:47:54.999Z</time></trkpt><trkpt lat="50.5750351471112" lon="3.1184221707734747"><ele>46.83333333333333</ele><time>2026-04-11T11:47:55.999Z</time></trkpt><trkpt lat="50.57498727599539" lon="3.1184918206050822"><ele>47.0</ele><time>2026-04-11T11:47:56.999Z</time></trkpt><trkpt lat="50.57493755716021" lon="3.118566152570743"><ele>47.285714285714285</ele><time>2026-04-11T11:47:57.999Z</time></trkpt><trkpt lat="50.57488545887803" lon="3.11864096783281"><ele>47.57142857142857</ele><time>2026-04-11T11:47:58.999Z</time></trkpt><trkpt lat="50.57483157163752" lon="3.118720239213256"><ele>47.85714285714286</ele><time>2026-04-11T11:47:59.999Z</time></trkpt><trkpt lat="50.57478045598311" lon="3.11879845985964"><ele>48.14285714285714</ele><time>2026-04-11T11:48:00.999Z</time></trkpt><trkpt lat="50.57472977073309" lon="3.1188758343989003"><ele>48.42857142857143</ele><time>2026-04-11T11:48:01.999Z</time></trkpt><trkpt lat="50.574677865316914" lon="3.1189554740492222"><ele>48.714285714285715</ele><time>2026-04-11T11:48:02.999Z</time></trkpt><trkpt lat="50.57462819350116" lon="3.1190366792101503"><ele>49.0</ele><time>2026-04-11T11:48:04Z</time></trkpt><trkpt lat="50.57457390579736" lon="3.1191172647115595"><ele>48.666666666666664</ele><time>2026-04-11T11:48:05Z</time></trkpt><trkpt lat="50.574516529637776" lon="3.119193864227441"><ele>48.33333333333333</ele><time>2026-04-11T11:48:06Z</time></trkpt><trkpt lat="50.574460570937866" lon="3.1192720377405885"><ele>48.0</ele><time>2026-04-11T11:48:07Z</time></trkpt><trkpt lat="50.574402603743835" lon="3.1193499617480254"><ele>47.666666666666664</ele><time>2026-04-11T11:48:08Z</time></trkpt><trkpt lat="50.57434251984091" lon="3.1194228226812672"><ele>47.33333333333333</ele><time>2026-04-11T11:48:09Z</time></trkpt><trkpt lat="50.574280701489876" lon="3.119493270398865"><ele>47.0</ele><time>2026-04-11T11:48:10Z</time></trkpt><trkpt lat="50.57421533420358" lon="3.1195602939714537"><ele>47.0</ele><time>2026-04-11T11:48:11Z</time></trkpt><trkpt lat="50.574151842175105" lon="3.119624943046607"><ele>47.0</ele><time>2026-04-11T11:48:12Z</time></trkpt><trkpt lat="50.57408678587468" lon="3.1196877804389445"><ele>47.0</ele><time>2026-04-11T11:48:13Z</time></trkpt><trkpt lat="50.57401896468018" lon="3.119746526108502"><ele>47.0</ele><time>2026-04-11T11:48:14Z</time></trkpt><trkpt lat="50.573949701609294" lon="3.1198016305769216"><ele>47.0</ele><time>2026-04-11T11:48:15Z</time></trkpt><trkpt lat="50.573878812542766" lon="3.1198533190684805"><ele>47.0</ele><time>2026-04-11T11:48:16Z</time></trkpt><trkpt lat="50.57380870776481" lon="3.1199038802740438"><ele>46.666666666666664</ele><time>2026-04-11T11:48:17Z</time></trkpt><trkpt lat="50.57373754176462" lon="3.119952185681237"><ele>46.33333333333333</ele><time>2026-04-11T11:48:18Z</time></trkpt><trkpt lat="50.57366683486856" lon="3.1199990084616647"><ele>46.0</ele><time>2026-04-11T11:48:19Z</time></trkpt><trkpt lat="50.5735956731462" lon="3.120046762632373"><ele>45.666666666666664</ele><time>2026-04-11T11:48:20Z</time></trkpt><trkpt lat="50.573525263137995" lon="3.1200923164843397"><ele>45.333333333333336</ele><time>2026-04-11T11:48:21Z</time></trkpt><trkpt lat="50.573454448786784" lon="3.1201373821187217"><ele>45.0</ele><time>2026-04-11T11:48:22Z</time></trkpt><trkpt lat="50.573385194424134" lon="3.120184012684179"><ele>44.666666666666664</ele><time>2026-04-11T11:48:23Z</time></trkpt><trkpt lat="50.57331678245863" lon="3.1202303542458094"><ele>44.333333333333336</ele><time>2026-04-11T11:48:24Z</time></trkpt><trkpt lat="50.57324648072897" lon="3.1202766679126364"><ele>44.0</ele><time>2026-04-11T11:48:25Z</time></trkpt><trkpt lat="50.573177697153795" lon="3.1203197373139218"><ele>43.66666666666667</ele><time>2026-04-11T11:48:26Z</time></trkpt><trkpt lat="50.57310806280691" lon="3.120361868157038"><ele>43.333333333333336</ele><time>2026-04-11T11:48:27Z</time></trkpt><trkpt lat="50.5730374078469" lon="3.1204100022093897"><ele>43.0</ele><time>2026-04-11T11:48:28Z</time></trkpt><trkpt lat="50.572966405980765" lon="3.120455789168203"><ele>43.00000000000001</ele><time>2026-04-11T11:48:29Z</time></trkpt><trkpt lat="50.57289843557477" lon="3.120501775607333"><ele>43.0</ele><time>2026-04-11T11:48:30Z</time></trkpt><trkpt lat="50.57282999554754" lon="3.1205473261387064"><ele>43.0</ele><time>2026-04-11T11:48:31Z</time></trkpt><trkpt lat="50.572761832857466" lon="3.1205924252578523"><ele>43.0</ele><time>2026-04-11T11:48:32Z</time></trkpt><trkpt lat="50.572693485252515" lon="3.1206382140143627"><ele>43.0</ele><time>2026-04-11T11:48:33Z</time></trkpt><trkpt lat="50.57262729023217" lon="3.120683905774822"><ele>43.00000000000001</ele><time>2026-04-11T11:48:34Z</time></trkpt><trkpt lat="50.57256061658886" lon="3.1207285847405655"><ele>43.0</ele><time>2026-04-11T11:48:35Z</time></trkpt><trkpt lat="50.57249490024401" lon="3.1207722839873355"><ele>42.85714285714286</ele><time>2026-04-11T11:48:36Z</time></trkpt><trkpt lat="50.57242798953015" lon="3.1208144185183926"><ele>42.714285714285715</ele><time>2026-04-11T11:48:37Z</time></trkpt><trkpt lat="50.57236300056249" lon="3.120857332146863"><ele>42.57142857142857</ele><time>2026-04-11T11:48:38Z</time></trkpt><trkpt lat="50.572299802050054" lon="3.1208987358733093"><ele>42.42857142857143</ele><time>2026-04-11T11:48:39Z</time></trkpt><trkpt lat="50.57223285170551" lon="3.1209412787453576"><ele>42.285714285714285</ele><time>2026-04-11T11:48:40Z</time></trkpt><trkpt lat="50.57216762793618" lon="3.1209873987673875"><ele>42.142857142857146</ele><time>2026-04-11T11:48:41Z</time></trkpt><trkpt lat="50.572103732026456" lon="3.121033127743955"><ele>42.0</ele><time>2026-04-11T11:48:42Z</time></trkpt><trkpt lat="50.57204012947785" lon="3.1210676913185127"><ele>41.857142857142854</ele><time>2026-04-11T11:48:43Z</time></trkpt><trkpt lat="50.571975214127654" lon="3.121106942362097"><ele>41.714285714285715</ele><time>2026-04-11T11:48:44Z</time></trkpt><trkpt lat="50.57191287500374" lon="3.1211534994104806"><ele>41.57142857142857</ele><time>2026-04-11T11:48:45Z</time></trkpt><trkpt lat="50.57185048642082" lon="3.1211969252630833"><ele>41.42857142857143</ele><time>2026-04-11T11:48:46Z</time></trkpt><trkpt lat="50.57178809961957" lon="3.1212372075447337"><ele>41.285714285714285</ele><time>2026-04-11T11:48:47Z</time></trkpt><trkpt lat="50.5717246162083" lon="3.121281857872135"><ele>41.14285714285714</ele><time>2026-04-11T11:48:48Z</time></trkpt><trkpt lat="50.57166416548137" lon="3.121324449060201"><ele>41.0</ele><time>2026-04-11T11:48:49Z</time></trkpt><trkpt lat="50.57160350419304" lon="3.1213731487700667"><ele>40.99999999999999</ele><time>2026-04-11T11:48:50Z</time></trkpt><trkpt lat="50.5715429230959" lon="3.121426979450213"><ele>41.0</ele><time>2026-04-11T11:48:51Z</time></trkpt><trkpt lat="50.571482876364804" lon="3.121480685097698"><ele>41.0</ele><time>2026-04-11T11:48:52Z</time></trkpt><trkpt lat="50.571425466168755" lon="3.1215307650216735"><ele>41.0</ele><time>2026-04-11T11:48:53Z</time></trkpt><trkpt lat="50.57136685370052" lon="3.121580539932122"><ele>41.0</ele><time>2026-04-11T11:48:54Z</time></trkpt><trkpt lat="50.57131009029271" lon="3.12162883155396"><ele>40.99999999999999</ele><time>2026-04-11T11:48:55Z</time></trkpt><trkpt lat="50.57125314591938" lon="3.121684720945051"><ele>41.0</ele><time>2026-04-11T11:48:56Z</time></trkpt><trkpt lat="50.57119241204575" lon="3.1217404633435843"><ele>41.199999999999996</ele><time>2026-04-11T11:48:57Z</time></trkpt><trkpt lat="50.57113560074161" lon="3.1217916770003056"><ele>41.4</ele><time>2026-04-11T11:48:58Z</time></trkpt><trkpt lat="50.571080097091944" lon="3.1218410609973475"><ele>41.6</ele><time>2026-04-11T11:48:59Z</time></trkpt><trkpt lat="50.571025021239734" lon="3.12189265109987"><ele>41.8</ele><time>2026-04-11T11:49:00Z</time></trkpt><trkpt lat="50.57091383732417" lon="3.121993610993512"><ele>42.0</ele><time>2026-04-11T11:49:02Z</time></trkpt><trkpt lat="50.570802325815436" lon="3.1220923712445168"><ele>42.0</ele><time>2026-04-11T11:49:04Z</time></trkpt><trkpt lat="50.570744768949986" lon="3.1221464012170133"><ele>42.0</ele><time>2026-04-11T11:49:05Z</time></trkpt><trkpt lat="50.57068849352529" lon="3.122198408340812"><ele>42.0</ele><time>2026-04-11T11:49:06Z</time></trkpt><trkpt lat="50.570631310380456" lon="3.122248970928816"><ele>42.0</ele><time>2026-04-11T11:49:07Z</time></trkpt><trkpt lat="50.57057449946613" lon="3.12229939480868"><ele>42.0</ele><time>2026-04-11T11:49:08Z</time></trkpt><trkpt lat="50.57051724510337" lon="3.122352991926842"><ele>42.0</ele><time>2026-04-11T11:49:09Z</time></trkpt><trkpt lat="50.57045961484264" lon="3.122401738080326"><ele>42.0</ele><time>2026-04-11T11:49:10Z</time></trkpt><trkpt lat="50.57040007990764" lon="3.1224541612316847"><ele>41.666666666666664</ele><time>2026-04-11T11:49:11Z</time></trkpt><trkpt lat="50.570346753522706" lon="3.122507113546602"><ele>41.333333333333336</ele><time>2026-04-11T11:49:12Z</time></trkpt><trkpt lat="50.57023707666045" lon="3.122604277416325"><ele>41.0</ele><time>2026-04-11T11:49:14Z</time></trkpt><trkpt lat="50.57017895090253" lon="3.122654575701009"><ele>40.66666666666667</ele><time>2026-04-11T11:49:15Z</time></trkpt><trkpt lat="50.57011898024371" lon="3.1227029764414955"><ele>40.333333333333336</ele><time>2026-04-11T11:49:16Z</time></trkpt><trkpt lat="50.57006018874239" lon="3.12274869186271"><ele>40.0</ele><time>2026-04-11T11:49:17Z</time></trkpt><trkpt lat="50.57000112577136" lon="3.1227900687313186"><ele>40.0</ele><time>2026-04-11T11:49:18Z</time></trkpt><trkpt lat="50.56993906974888" lon="3.122823707752196"><ele>40.0</ele><time>2026-04-11T11:49:19Z</time></trkpt><trkpt lat="50.569876031053234" lon="3.122858726945024"><ele>40.0</ele><time>2026-04-11T11:49:20Z</time></trkpt><trkpt lat="50.56981275919219" lon="3.122895475075382"><ele>40.0</ele><time>2026-04-11T11:49:21Z</time></trkpt><trkpt lat="50.56975138261362" lon="3.122932802756373"><ele>40.0</ele><time>2026-04-11T11:49:22Z</time></trkpt><trkpt lat="50.5696894560408" lon="3.122969438877436"><ele>40.0</ele><time>2026-04-11T11:49:23Z</time></trkpt><trkpt lat="50.56962829071145" lon="3.1230078936235555"><ele>40.0</ele><time>2026-04-11T11:49:24Z</time></trkpt><trkpt lat="50.569563695202575" lon="3.1230559326979654"><ele>40.0</ele><time>2026-04-11T11:49:25Z</time></trkpt><trkpt lat="50.56950471487097" lon="3.1230952086274275"><ele>40.0</ele><time>2026-04-11T11:49:26Z</time></trkpt><trkpt lat="50.569441559165476" lon="3.123136381365238"><ele>40.0</ele><time>2026-04-11T11:49:27Z</time></trkpt><trkpt lat="50.56937884456555" lon="3.1231815890267"><ele>40.0</ele><time>2026-04-11T11:49:28Z</time></trkpt><trkpt lat="50.56931289790997" lon="3.1232285818826715"><ele>40.0</ele><time>2026-04-11T11:49:29Z</time></trkpt><trkpt lat="50.56924580499269" lon="3.1232705610644036"><ele>40.0</ele><time>2026-04-11T11:49:30Z</time></trkpt><trkpt lat="50.56917606679584" lon="3.123315328767774"><ele>40.0</ele><time>2026-04-11T11:49:31Z</time></trkpt><trkpt lat="50.56910658275462" lon="3.123359312052113"><ele>40.0</ele><time>2026-04-11T11:49:32Z</time></trkpt><trkpt lat="50.569034579223484" lon="3.123400221707171"><ele>40.0</ele><time>2026-04-11T11:49:33Z</time></trkpt><trkpt lat="50.56896242106262" lon="3.123456388321488"><ele>40.0</ele><time>2026-04-11T11:49:34Z</time></trkpt><trkpt lat="50.56888574559392" lon="3.1235053419230865"><ele>40.0</ele><time>2026-04-11T11:49:35Z</time></trkpt><trkpt lat="50.568815854360544" lon="3.1235538138618675"><ele>40.0</ele><time>2026-04-11T11:49:36Z</time></trkpt><trkpt lat="50.56874165177944" lon="3.1236025048908758"><ele>40.0</ele><time>2026-04-11T11:49:37Z</time></trkpt><trkpt lat="50.56867041092659" lon="3.1236517107771613"><ele>39.57142857142857</ele><time>2026-04-11T11:49:38Z</time></trkpt><trkpt lat="50.568598924419405" lon="3.1237031334962464"><ele>39.142857142857146</ele><time>2026-04-11T11:49:39Z</time></trkpt><trkpt lat="50.56853129352935" lon="3.123749251923379"><ele>38.714285714285715</ele><time>2026-04-11T11:49:40Z</time></trkpt><trkpt lat="50.56846495791964" lon="3.1237987183735814"><ele>38.285714285714285</ele><time>2026-04-11T11:49:41Z</time></trkpt><trkpt lat="50.56839891246612" lon="3.1238448917703114"><ele>37.857142857142854</ele><time>2026-04-11T11:49:42Z</time></trkpt><trkpt lat="50.56833704523802" lon="3.1238929519108027"><ele>37.42857142857143</ele><time>2026-04-11T11:49:43Z</time></trkpt><trkpt lat="50.568277637505375" lon="3.1239413743255224"><ele>37.0</ele><time>2026-04-11T11:49:43.999Z</time></trkpt><trkpt lat="50.568218016101596" lon="3.1239937245243086"><ele>37.0</ele><time>2026-04-11T11:49:44.999Z</time></trkpt><trkpt lat="50.568161539095705" lon="3.1240433932533236"><ele>37.0</ele><time>2026-04-11T11:49:45.999Z</time></trkpt><trkpt lat="50.568103418047805" lon="3.1240921339069514"><ele>37.0</ele><time>2026-04-11T11:49:46.999Z</time></trkpt><trkpt lat="50.568001147804075" lon="3.124181836769983"><ele>37.0</ele><time>2026-04-11T11:49:48.999Z</time></trkpt><trkpt lat="50.56790821592961" lon="3.124280470164269"><ele>37.0</ele><time>2026-04-11T11:49:50.999Z</time></trkpt><trkpt lat="50.56781070641358" lon="3.1243683231677597"><ele>37.4</ele><time>2026-04-11T11:49:52.999Z</time></trkpt><trkpt lat="50.567714016645354" lon="3.1244642704789047"><ele>37.800000000000004</ele><time>2026-04-11T11:49:54.999Z</time></trkpt><trkpt lat="50.56761915880264" lon="3.124554739773741"><ele>38.2</ele><time>2026-04-11T11:49:56.999Z</time></trkpt><trkpt lat="50.56753198804447" lon="3.1246445668266047"><ele>38.6</ele><time>2026-04-11T11:49:58.999Z</time></trkpt><trkpt lat="50.56744618517419" lon="3.1247209068700017"><ele>39.0</ele><time>2026-04-11T11:50:00.999Z</time></trkpt><trkpt lat="50.567351718364215" lon="3.124805589619587"><ele>39.0</ele><time>2026-04-11T11:50:02.999Z</time></trkpt><trkpt lat="50.56725546635661" lon="3.1248828510311397"><ele>39.0</ele><time>2026-04-11T11:50:04.999Z</time></trkpt><trkpt lat="50.567156294469925" lon="3.1249536861689697"><ele>39.0</ele><time>2026-04-11T11:50:06.999Z</time></trkpt><trkpt lat="50.567054707050325" lon="3.125025687723894"><ele>39.0</ele><time>2026-04-11T11:50:08.999Z</time></trkpt><trkpt lat="50.566952424882665" lon="3.1250973156177047"><ele>39.0</ele><time>2026-04-11T11:50:11Z</time></trkpt><trkpt lat="50.56684744549547" lon="3.125169988282082"><ele>39.25</ele><time>2026-04-11T11:50:13Z</time></trkpt><trkpt lat="50.56674359304703" lon="3.125237186072954"><ele>39.5</ele><time>2026-04-11T11:50:15Z</time></trkpt><trkpt lat="50.56663902335577" lon="3.1253083203124867"><ele>39.75</ele><time>2026-04-11T11:50:17Z</time></trkpt><trkpt lat="50.56653420587683" lon="3.1253804283537194"><ele>40.0</ele><time>2026-04-11T11:50:19Z</time></trkpt><trkpt lat="50.56642521734904" lon="3.1254569732603605"><ele>40.0</ele><time>2026-04-11T11:50:21Z</time></trkpt><trkpt lat="50.56631374638167" lon="3.12553220478855"><ele>40.0</ele><time>2026-04-11T11:50:23Z</time></trkpt><trkpt lat="50.56620776175855" lon="3.1256093839007737"><ele>40.0</ele><time>2026-04-11T11:50:25Z</time></trkpt><trkpt lat="50.566103169679934" lon="3.1256804858450233"><ele>40.0</ele><time>2026-04-11T11:50:27Z</time></trkpt><trkpt lat="50.56599926182783" lon="3.125760015996018"><ele>39.4</ele><time>2026-04-11T11:50:29Z</time></trkpt><trkpt lat="50.56589672795707" lon="3.1258425814905735"><ele>38.8</ele><time>2026-04-11T11:50:31Z</time></trkpt><trkpt lat="50.565793037215286" lon="3.1259219132085985"><ele>38.2</ele><time>2026-04-11T11:50:33Z</time></trkpt><trkpt lat="50.5656960023728" lon="3.125994280307267"><ele>37.6</ele><time>2026-04-11T11:50:35Z</time></trkpt><trkpt lat="50.56563870179096" lon="3.1260366375663606"><ele>37.0</ele><time>2026-04-11T11:50:36Z</time></trkpt><trkpt lat="50.56554786704436" lon="3.126110382108991"><ele>37.0</ele><time>2026-04-11T11:50:38Z</time></trkpt><trkpt lat="50.5654473145729" lon="3.126185861022951"><ele>37.0</ele><time>2026-04-11T11:50:40Z</time></trkpt><trkpt lat="50.56534936732861" lon="3.1262669064253554"><ele>37.0</ele><time>2026-04-11T11:50:42Z</time></trkpt><trkpt lat="50.565254517543636" lon="3.126330129249066"><ele>37.0</ele><time>2026-04-11T11:50:44Z</time></trkpt><trkpt lat="50.565150429095816" lon="3.126398780534727"><ele>37.0</ele><time>2026-04-11T11:50:46Z</time></trkpt><trkpt lat="50.56504926341445" lon="3.1264591552719256"><ele>36.800000000000004</ele><time>2026-04-11T11:50:48Z</time></trkpt><trkpt lat="50.5649448631616" lon="3.126518173218001"><ele>36.6</ele><time>2026-04-11T11:50:50Z</time></trkpt><trkpt lat="50.5648367516933" lon="3.126583668699355"><ele>36.400000000000006</ele><time>2026-04-11T11:50:52Z</time></trkpt><trkpt lat="50.56473385005011" lon="3.126641683468944"><ele>36.2</ele><time>2026-04-11T11:50:54Z</time></trkpt><trkpt lat="50.56462902186266" lon="3.126687950354043"><ele>36.0</ele><time>2026-04-11T11:50:56Z</time></trkpt><trkpt lat="50.564525480296105" lon="3.126750680747887"><ele>36.0</ele><time>2026-04-11T11:50:58Z</time></trkpt><trkpt lat="50.56442208550537" lon="3.12680417176866"><ele>36.0</ele><time>2026-04-11T11:51:00Z</time></trkpt><trkpt lat="50.56431700099192" lon="3.1268585927134644"><ele>36.0</ele><time>2026-04-11T11:51:02Z</time></trkpt><trkpt lat="50.56421149800318" lon="3.1269172889660766"><ele>36.0</ele><time>2026-04-11T11:51:04Z</time></trkpt><trkpt lat="50.5641142009426" lon="3.126968966566639"><ele>36.0</ele><time>2026-04-11T11:51:06Z</time></trkpt><trkpt lat="50.56400783293162" lon="3.127016194321701"><ele>36.0</ele><time>2026-04-11T11:51:08Z</time></trkpt><trkpt lat="50.56389738210443" lon="3.1270545590400607"><ele>36.0</ele><time>2026-04-11T11:51:10Z</time></trkpt><trkpt lat="50.56379280365587" lon="3.127091648895727"><ele>36.0</ele><time>2026-04-11T11:51:12Z</time></trkpt><trkpt lat="50.563683544391694" lon="3.127130969036047"><ele>36.0</ele><time>2026-04-11T11:51:14Z</time></trkpt><trkpt lat="50.563575861636636" lon="3.127170183903925"><ele>36.0</ele><time>2026-04-11T11:51:16Z</time></trkpt><trkpt lat="50.56347040783762" lon="3.127200783157944"><ele>36.25</ele><time>2026-04-11T11:51:18Z</time></trkpt><trkpt lat="50.5633630513884" lon="3.1272425186911534"><ele>36.5</ele><time>2026-04-11T11:51:20Z</time></trkpt><trkpt lat="50.56325350445347" lon="3.12727687366017"><ele>36.75</ele><time>2026-04-11T11:51:22Z</time></trkpt><trkpt lat="50.56314322771029" lon="3.127323097997964"><ele>37.0</ele><time>2026-04-11T11:51:24Z</time></trkpt><trkpt lat="50.56303144438094" lon="3.1273547980718663"><ele>36.800000000000004</ele><time>2026-04-11T11:51:26Z</time></trkpt><trkpt lat="50.56292442727624" lon="3.1273978927265094"><ele>36.6</ele><time>2026-04-11T11:51:28Z</time></trkpt><trkpt lat="50.5628215050981" lon="3.1274396552935717"><ele>36.400000000000006</ele><time>2026-04-11T11:51:30Z</time></trkpt><trkpt lat="50.562711945292236" lon="3.1274665056187194"><ele>36.2</ele><time>2026-04-11T11:51:32Z</time></trkpt><trkpt lat="50.56261318374662" lon="3.1275041485364503"><ele>36.0</ele><time>2026-04-11T11:51:34Z</time></trkpt><trkpt lat="50.56250648967083" lon="3.1275279818699375"><ele>36.4</ele><time>2026-04-11T11:51:36Z</time></trkpt><trkpt lat="50.56239770455104" lon="3.1275810074212935"><ele>36.8</ele><time>2026-04-11T11:51:38Z</time></trkpt><trkpt lat="50.56229253502781" lon="3.1276262147126994"><ele>37.199999999999996</ele><time>2026-04-11T11:51:40Z</time></trkpt><trkpt lat="50.56222223702393" lon="3.1276486021700958"><ele>37.6</ele><time>2026-04-11T11:51:41Z</time></trkpt><trkpt lat="50.56211668033825" lon="3.127671461379217"><ele>38.0</ele><time>2026-04-11T11:51:43Z</time></trkpt><trkpt lat="50.56202376683479" lon="3.127707218018269"><ele>38.599999999999994</ele><time>2026-04-11T11:51:45Z</time></trkpt><trkpt lat="50.561957699675" lon="3.127739644251537"><ele>39.199999999999996</ele><time>2026-04-11T11:51:46Z</time></trkpt><trkpt lat="50.56184841101398" lon="3.1277804624211947"><ele>39.8</ele><time>2026-04-11T11:51:48Z</time></trkpt><trkpt lat="50.56174190705981" lon="3.1278127545536387"><ele>40.4</ele><time>2026-04-11T11:51:50Z</time></trkpt><trkpt lat="50.56164757636569" lon="3.127849444057172"><ele>41.0</ele><time>2026-04-11T11:51:52Z</time></trkpt><trkpt lat="50.561543956313024" lon="3.1278817751796306"><ele>41.0</ele><time>2026-04-11T11:51:54Z</time></trkpt><trkpt lat="50.56148243407387" lon="3.1279110917398913"><ele>41.0</ele><time>2026-04-11T11:51:55Z</time></trkpt><trkpt lat="50.56138682147883" lon="3.1279985490567275"><ele>41.0</ele><time>2026-04-11T11:51:57Z</time></trkpt><trkpt lat="50.56130004318074" lon="3.1281012757572313"><ele>41.0</ele><time>2026-04-11T11:51:59Z</time></trkpt><trkpt lat="50.56121716935191" lon="3.128233489977227"><ele>41.0</ele><time>2026-04-11T11:52:01Z</time></trkpt><trkpt lat="50.56113543412049" lon="3.1283772938960137"><ele>40.199999999999996</ele><time>2026-04-11T11:52:03Z</time></trkpt><trkpt lat="50.561055193511905" lon="3.1285117672763425"><ele>39.4</ele><time>2026-04-11T11:52:04.999Z</time></trkpt><trkpt lat="50.56092256087335" lon="3.1285520969930456"><ele>38.6</ele><time>2026-04-11T11:52:06.999Z</time></trkpt><trkpt lat="50.56085555813911" lon="3.1285792971107513"><ele>37.8</ele><time>2026-04-11T11:52:07.999Z</time></trkpt><trkpt lat="50.560775874017146" lon="3.1287302302154756"><ele>37.0</ele><time>2026-04-11T11:52:09.999Z</time></trkpt><trkpt lat="50.56075362799309" lon="3.1288369381502057"><ele>37.0</ele><time>2026-04-11T11:52:10.999Z</time></trkpt><trkpt lat="50.5607482611219" lon="3.128941163848642"><ele>37.0</ele><time>2026-04-11T11:52:11.999Z</time></trkpt><trkpt lat="50.560752784380696" lon="3.1290430334153734"><ele>37.0</ele><time>2026-04-11T11:52:12.999Z</time></trkpt><trkpt lat="50.56077265586708" lon="3.129137919791349"><ele>37.0</ele><time>2026-04-11T11:52:13.999Z</time></trkpt><trkpt lat="50.56084638884688" lon="3.1292919583791283"><ele>37.0</ele><time>2026-04-11T11:52:16Z</time></trkpt><trkpt lat="50.560925324287" lon="3.129437821186339"><ele>37.0</ele><time>2026-04-11T11:52:18Z</time></trkpt><trkpt lat="50.560946967034575" lon="3.129533225898706"><ele>36.833333333333336</ele><time>2026-04-11T11:52:19Z</time></trkpt><trkpt lat="50.56095651037127" lon="3.1296385973165317"><ele>36.66666666666667</ele><time>2026-04-11T11:52:20Z</time></trkpt><trkpt lat="50.56095336184124" lon="3.1297438299420333"><ele>36.5</ele><time>2026-04-11T11:52:21Z</time></trkpt><trkpt lat="50.56095309934522" lon="3.1298466588434875"><ele>36.333333333333336</ele><time>2026-04-11T11:52:22Z</time></trkpt><trkpt lat="50.560962551608995" lon="3.129948807192824"><ele>36.166666666666664</ele><time>2026-04-11T11:52:23Z</time></trkpt><trkpt lat="50.560982861530135" lon="3.1301392684560163"><ele>36.0</ele><time>2026-04-11T11:52:25Z</time></trkpt><trkpt lat="50.56102231103108" lon="3.1303189248195182"><ele>36.0</ele><time>2026-04-11T11:52:27Z</time></trkpt><trkpt lat="50.561067381181644" lon="3.130486896768713"><ele>36.0</ele><time>2026-04-11T11:52:29Z</time></trkpt><trkpt lat="50.5611134556595" lon="3.1306546771299826"><ele>36.0</ele><time>2026-04-11T11:52:31Z</time></trkpt><trkpt lat="50.56117200504573" lon="3.1308094622047076"><ele>36.0</ele><time>2026-04-11T11:52:33Z</time></trkpt><trkpt lat="50.56123531129869" lon="3.1309529530051985"><ele>36.0</ele><time>2026-04-11T11:52:35Z</time></trkpt><trkpt lat="50.56130833157769" lon="3.1310985496567305"><ele>36.0</ele><time>2026-04-11T11:52:37Z</time></trkpt><trkpt lat="50.56137836990204" lon="3.131245560245261"><ele>36.0</ele><time>2026-04-11T11:52:39Z</time></trkpt><trkpt lat="50.56144685710708" lon="3.131395781579773"><ele>36.0</ele><time>2026-04-11T11:52:41Z</time></trkpt><trkpt lat="50.561490183289955" lon="3.1315736069809623"><ele>36.00000000000001</ele><time>2026-04-11T11:52:43Z</time></trkpt><trkpt lat="50.561512113964454" lon="3.1317604357830975"><ele>36.0</ele><time>2026-04-11T11:52:45Z</time></trkpt><trkpt lat="50.56151991445264" lon="3.1318618728382264"><ele>36.0</ele><time>2026-04-11T11:52:46Z</time></trkpt><trkpt lat="50.56152200598299" lon="3.131964518962474"><ele>36.0</ele><time>2026-04-11T11:52:47Z</time></trkpt><trkpt lat="50.56151415628491" lon="3.132065297747941"><ele>36.0</ele><time>2026-04-11T11:52:48Z</time></trkpt><trkpt lat="50.56149918942574" lon="3.132164348325624"><ele>36.00000000000001</ele><time>2026-04-11T11:52:49Z</time></trkpt><trkpt lat="50.561481022372334" lon="3.13226722694264"><ele>36.0</ele><time>2026-04-11T11:52:50Z</time></trkpt><trkpt lat="50.561426845142165" lon="3.13244112365893"><ele>36.00000000000001</ele><time>2026-04-11T11:52:52Z</time></trkpt><trkpt lat="50.56139070208842" lon="3.132528097714863"><ele>36.0</ele><time>2026-04-11T11:52:53Z</time></trkpt><trkpt lat="50.561349375191234" lon="3.13261356790612"><ele>36.0</ele><time>2026-04-11T11:52:54Z</time></trkpt><trkpt lat="50.561310644252934" lon="3.1326998137005586"><ele>36.0</ele><time>2026-04-11T11:52:55Z</time></trkpt><trkpt lat="50.561268422781396" lon="3.132785301496229"><ele>36.0</ele><time>2026-04-11T11:52:56Z</time></trkpt><trkpt lat="50.56122614669356" lon="3.132870480641311"><ele>36.00000000000001</ele><time>2026-04-11T11:52:57Z</time></trkpt><trkpt lat="50.5611855821306" lon="3.1329544969668355"><ele>36.0</ele><time>2026-04-11T11:52:58Z</time></trkpt><trkpt lat="50.5611438830469" lon="3.1330396198358588"><ele>36.0</ele><time>2026-04-11T11:52:59Z</time></trkpt><trkpt lat="50.561051308956856" lon="3.133192183011563"><ele>36.0</ele><time>2026-04-11T11:53:01Z</time></trkpt><trkpt lat="50.56100062439484" lon="3.1332779401924595"><ele>36.0</ele><time>2026-04-11T11:53:02Z</time></trkpt><trkpt lat="50.56094948388146" lon="3.133367482435792"><ele>36.0</ele><time>2026-04-11T11:53:03Z</time></trkpt><trkpt lat="50.56089973192419" lon="3.1334511699486103"><ele>36.0</ele><time>2026-04-11T11:53:04Z</time></trkpt><trkpt lat="50.56085004230757" lon="3.1335378141288213"><ele>36.0</ele><time>2026-04-11T11:53:05Z</time></trkpt><trkpt lat="50.560800167917016" lon="3.1336251531858754"><ele>36.00000000000001</ele><time>2026-04-11T11:53:06Z</time></trkpt><trkpt lat="50.56074929580654" lon="3.1337130482257907"><ele>36.0</ele><time>2026-04-11T11:53:07Z</time></trkpt><trkpt lat="50.560700766836796" lon="3.1338021045588356"><ele>36.0</ele><time>2026-04-11T11:53:08Z</time></trkpt><trkpt lat="50.560654483839315" lon="3.133893502695035"><ele>36.0</ele><time>2026-04-11T11:53:09Z</time></trkpt><trkpt lat="50.560610264963366" lon="3.133990135788006"><ele>36.0</ele><time>2026-04-11T11:53:10Z</time></trkpt><trkpt lat="50.56056919054823" lon="3.1340860658536576"><ele>36.00000000000001</ele><time>2026-04-11T11:53:11Z</time></trkpt><trkpt lat="50.56052525101548" lon="3.1341813316900997"><ele>36.0</ele><time>2026-04-11T11:53:12Z</time></trkpt><trkpt lat="50.56048093261864" lon="3.134273953159923"><ele>36.0</ele><time>2026-04-11T11:53:13Z</time></trkpt><trkpt lat="50.560434550891294" lon="3.1343690833328157"><ele>36.0</ele><time>2026-04-11T11:53:14Z</time></trkpt><trkpt lat="50.56038326881196" lon="3.1344518529418695"><ele>36.0</ele><time>2026-04-11T11:53:15Z</time></trkpt><trkpt lat="50.560329536088894" lon="3.13452588130436"><ele>36.0</ele><time>2026-04-11T11:53:16Z</time></trkpt><trkpt lat="50.56025309186566" lon="3.134598579756864"><ele>36.0</ele><time>2026-04-11T11:53:17Z</time></trkpt><trkpt lat="50.56018730451109" lon="3.134667823694411"><ele>36.0</ele><time>2026-04-11T11:53:18Z</time></trkpt><trkpt lat="50.56012394898103" lon="3.134743761167875"><ele>36.0</ele><time>2026-04-11T11:53:19Z</time></trkpt><trkpt lat="50.56006162549073" lon="3.1348162492042895"><ele>36.0</ele><time>2026-04-11T11:53:20Z</time></trkpt><trkpt lat="50.559996172931285" lon="3.134888146905427"><ele>36.0</ele><time>2026-04-11T11:53:21Z</time></trkpt><trkpt lat="50.55993182704968" lon="3.134957240591806"><ele>36.0</ele><time>2026-04-11T11:53:22Z</time></trkpt><trkpt lat="50.5598656091184" lon="3.135019699075185"><ele>36.0</ele><time>2026-04-11T11:53:23Z</time></trkpt><trkpt lat="50.55979550451012" lon="3.1350758765065927"><ele>36.0</ele><time>2026-04-11T11:53:24Z</time></trkpt><trkpt lat="50.55972508844453" lon="3.1351219373226433"><ele>36.00000000000001</ele><time>2026-04-11T11:53:25Z</time></trkpt><trkpt lat="50.559654952323264" lon="3.135168764960654"><ele>36.0</ele><time>2026-04-11T11:53:26Z</time></trkpt><trkpt lat="50.55959002410956" lon="3.135205087315666"><ele>36.0</ele><time>2026-04-11T11:53:27Z</time></trkpt><trkpt lat="50.55952355163983" lon="3.1352513833593085"><ele>36.0</ele><time>2026-04-11T11:53:28Z</time></trkpt><trkpt lat="50.55945996393744" lon="3.1352850417684146"><ele>36.0</ele><time>2026-04-11T11:53:29Z</time></trkpt><trkpt lat="50.559394130494994" lon="3.135328013203847"><ele>36.00000000000001</ele><time>2026-04-11T11:53:30Z</time></trkpt><trkpt lat="50.55933102273374" lon="3.135372093367868"><ele>36.0</ele><time>2026-04-11T11:53:31Z</time></trkpt><trkpt lat="50.559262437677155" lon="3.1354064344190347"><ele>35.833333333333336</ele><time>2026-04-11T11:53:32Z</time></trkpt><trkpt lat="50.55919632613766" lon="3.1354473295362055"><ele>35.666666666666664</ele><time>2026-04-11T11:53:33Z</time></trkpt><trkpt lat="50.55912808289282" lon="3.1354841711252406"><ele>35.5</ele><time>2026-04-11T11:53:34Z</time></trkpt><trkpt lat="50.55906702953457" lon="3.1355216478536723"><ele>35.33333333333333</ele><time>2026-04-11T11:53:35Z</time></trkpt><trkpt lat="50.558994080817804" lon="3.1355610233805384"><ele>35.166666666666664</ele><time>2026-04-11T11:53:36Z</time></trkpt><trkpt lat="50.558861665762564" lon="3.1356227560197723"><ele>35.0</ele><time>2026-04-11T11:53:38Z</time></trkpt><trkpt lat="50.55879176289261" lon="3.135656001146432"><ele>35.0</ele><time>2026-04-11T11:53:39Z</time></trkpt><trkpt lat="50.55872833851164" lon="3.1356823786322154"><ele>35.0</ele><time>2026-04-11T11:53:40Z</time></trkpt><trkpt lat="50.55865145849289" lon="3.1357006319956713"><ele>35.0</ele><time>2026-04-11T11:53:42Z</time></trkpt><trkpt lat="50.558583655939756" lon="3.1357137875652445"><ele>35.0</ele><time>2026-04-11T11:53:45Z</time></trkpt><trkpt lat="50.558519886261735" lon="3.1357468758438714"><ele>35.0</ele><time>2026-04-11T11:53:47Z</time></trkpt><trkpt lat="50.55844427213787" lon="3.13579404096517"><ele>35.0</ele><time>2026-04-11T11:53:49Z</time></trkpt><trkpt lat="50.55835814435243" lon="3.135865045731621"><ele>34.83333333333333</ele><time>2026-04-11T11:53:51Z</time></trkpt><trkpt lat="50.55825942577601" lon="3.13594988101841"><ele>34.666666666666664</ele><time>2026-04-11T11:53:53Z</time></trkpt><trkpt lat="50.55820388085808" lon="3.135999691860209"><ele>34.5</ele><time>2026-04-11T11:53:54Z</time></trkpt><trkpt lat="50.558142889636464" lon="3.1360551301978887"><ele>34.333333333333336</ele><time>2026-04-11T11:53:55Z</time></trkpt><trkpt lat="50.55808354961977" lon="3.136125724792201"><ele>34.16666666666667</ele><time>2026-04-11T11:53:56Z</time></trkpt><trkpt lat="50.55802596812351" lon="3.136198672543018"><ele>34.0</ele><time>2026-04-11T11:53:57Z</time></trkpt><trkpt lat="50.55796597282508" lon="3.1362866955176716"><ele>34.0</ele><time>2026-04-11T11:53:58Z</time></trkpt><trkpt lat="50.55790794599835" lon="3.136372090219766"><ele>34.0</ele><time>2026-04-11T11:53:59Z</time></trkpt><trkpt lat="50.55784181838906" lon="3.1364486159498473"><ele>34.0</ele><time>2026-04-11T11:54:00Z</time></trkpt><trkpt lat="50.55776342756467" lon="3.1365095387536677"><ele>34.0</ele><time>2026-04-11T11:54:01Z</time></trkpt><trkpt lat="50.557684046943216" lon="3.136565669416015"><ele>34.0</ele><time>2026-04-11T11:54:02Z</time></trkpt><trkpt lat="50.557609327327995" lon="3.1366148572608807"><ele>34.0</ele><time>2026-04-11T11:54:03Z</time></trkpt><trkpt lat="50.55753239288681" lon="3.136671684407115"><ele>33.66666666666667</ele><time>2026-04-11T11:54:04Z</time></trkpt><trkpt lat="50.55745778756402" lon="3.136724690636772"><ele>33.333333333333336</ele><time>2026-04-11T11:54:05Z</time></trkpt><trkpt lat="50.55739520922005" lon="3.136801113320084"><ele>33.0</ele><time>2026-04-11T11:54:06Z</time></trkpt><trkpt lat="50.55734345560896" lon="3.136921247322705"><ele>32.666666666666664</ele><time>2026-04-11T11:54:07Z</time></trkpt><trkpt lat="50.55730329778539" lon="3.137043467380764"><ele>32.33333333333333</ele><time>2026-04-11T11:54:08Z</time></trkpt><trkpt lat="50.557267653903345" lon="3.1371632843393114"><ele>32.0</ele><time>2026-04-11T11:54:09Z</time></trkpt><trkpt lat="50.55722432405257" lon="3.1372825366281876"><ele>31.999999999999996</ele><time>2026-04-11T11:54:10Z</time></trkpt><trkpt lat="50.55716995131955" lon="3.1373946002669406"><ele>32.0</ele><time>2026-04-11T11:54:11Z</time></trkpt><trkpt lat="50.55710705847805" lon="3.1374887953155506"><ele>32.0</ele><time>2026-04-11T11:54:12Z</time></trkpt><trkpt lat="50.55702945794577" lon="3.1375505888633524"><ele>32.0</ele><time>2026-04-11T11:54:13Z</time></trkpt><trkpt lat="50.55694507515467" lon="3.137581863287577"><ele>31.999999999999996</ele><time>2026-04-11T11:54:14Z</time></trkpt><trkpt lat="50.55686089678967" lon="3.137600731249581"><ele>32.0</ele><time>2026-04-11T11:54:15Z</time></trkpt><trkpt lat="50.55677677339259" lon="3.1376133904490224"><ele>31.999999999999996</ele><time>2026-04-11T11:54:16Z</time></trkpt><trkpt lat="50.55669664696911" lon="3.1376250026276997"><ele>32.0</ele><time>2026-04-11T11:54:17Z</time></trkpt><trkpt lat="50.55661895828315" lon="3.1376423243130853"><ele>32.0</ele><time>2026-04-11T11:54:18Z</time></trkpt><trkpt lat="50.556539477109965" lon="3.1376640777175604"><ele>32.0</ele><time>2026-04-11T11:54:19Z</time></trkpt><trkpt lat="50.55646378160153" lon="3.1376860612094832"><ele>31.999999999999996</ele><time>2026-04-11T11:54:20Z</time></trkpt><trkpt lat="50.55638576396669" lon="3.137710567179724"><ele>32.0</ele><time>2026-04-11T11:54:21Z</time></trkpt><trkpt lat="50.55630376110765" lon="3.1377395161172603"><ele>31.999999999999996</ele><time>2026-04-11T11:54:22Z</time></trkpt><trkpt lat="50.55623396619326" lon="3.1377573083442374"><ele>32.0</ele><time>2026-04-11T11:54:23Z</time></trkpt><trkpt lat="50.556156918643204" lon="3.137771433865641"><ele>32.0</ele><time>2026-04-11T11:54:24Z</time></trkpt><trkpt lat="50.55607823083664" lon="3.13778319148174"><ele>32.0</ele><time>2026-04-11T11:54:25Z</time></trkpt><trkpt lat="50.556003779008925" lon="3.1377996539833326"><ele>31.999999999999996</ele><time>2026-04-11T11:54:26Z</time></trkpt><trkpt lat="50.55592964335785" lon="3.1378191763553067"><ele>32.0</ele><time>2026-04-11T11:54:27Z</time></trkpt><trkpt lat="50.55585651330426" lon="3.1378419799446964"><ele>31.71428571428571</ele><time>2026-04-11T11:54:28Z</time></trkpt><trkpt lat="50.55578585751309" lon="3.1378548919006013"><ele>31.428571428571423</ele><time>2026-04-11T11:54:29Z</time></trkpt><trkpt lat="50.55570960576542" lon="3.1378766272309"><ele>31.142857142857142</ele><time>2026-04-11T11:54:30Z</time></trkpt><trkpt lat="50.555637390167675" lon="3.137897755026262"><ele>30.857142857142854</ele><time>2026-04-11T11:54:31Z</time></trkpt><trkpt lat="50.55556413986391" lon="3.1379117129292347"><ele>30.57142857142857</ele><time>2026-04-11T11:54:32Z</time></trkpt><trkpt lat="50.55549349811299" lon="3.1379291294325142"><ele>30.285714285714285</ele><time>2026-04-11T11:54:33Z</time></trkpt><trkpt lat="50.55542395667783" lon="3.137947086031148"><ele>30.0</ele><time>2026-04-11T11:54:34Z</time></trkpt><trkpt lat="50.555356298682575" lon="3.137961722991653"><ele>29.714285714285715</ele><time>2026-04-11T11:54:35Z</time></trkpt><trkpt lat="50.55528888431671" lon="3.1379807597180953"><ele>29.428571428571427</ele><time>2026-04-11T11:54:36Z</time></trkpt><trkpt lat="50.555220250885824" lon="3.137997829477955"><ele>29.142857142857142</ele><time>2026-04-11T11:54:37Z</time></trkpt><trkpt lat="50.55515342178037" lon="3.1380251961100516"><ele>28.857142857142858</ele><time>2026-04-11T11:54:38Z</time></trkpt><trkpt lat="50.55508841263211" lon="3.1380588904230944"><ele>28.57142857142857</ele><time>2026-04-11T11:54:39Z</time></trkpt><trkpt lat="50.55502176015849" lon="3.1380904634218907"><ele>28.285714285714285</ele><time>2026-04-11T11:54:40Z</time></trkpt><trkpt lat="50.554952973778576" lon="3.1381279220412495"><ele>28.0</ele><time>2026-04-11T11:54:41Z</time></trkpt><trkpt lat="50.55488663800349" lon="3.1381793474857984"><ele>28.0</ele><time>2026-04-11T11:54:42Z</time></trkpt><trkpt lat="50.55482535473197" lon="3.138246017321898"><ele>28.0</ele><time>2026-04-11T11:54:43Z</time></trkpt><trkpt lat="50.55477027537823" lon="3.1383209660754066"><ele>28.0</ele><time>2026-04-11T11:54:44Z</time></trkpt><trkpt lat="50.55471249460922" lon="3.138396755965837"><ele>28.0</ele><time>2026-04-11T11:54:45Z</time></trkpt><trkpt lat="50.55465716307172" lon="3.1384697945302893"><ele>28.0</ele><time>2026-04-11T11:54:46Z</time></trkpt><trkpt lat="50.55460037487213" lon="3.1385489623774947"><ele>28.0</ele><time>2026-04-11T11:54:47Z</time></trkpt><trkpt lat="50.55454026716964" lon="3.1386240485690036"><ele>28.0</ele><time>2026-04-11T11:54:48Z</time></trkpt><trkpt lat="50.55448226277591" lon="3.1386976059100795"><ele>28.000000000000004</ele><time>2026-04-11T11:54:49Z</time></trkpt><trkpt lat="50.55442145759648" lon="3.1387722638115063"><ele>28.0</ele><time>2026-04-11T11:54:50Z</time></trkpt><trkpt lat="50.55435916091363" lon="3.138846294455769"><ele>28.0</ele><time>2026-04-11T11:54:51Z</time></trkpt><trkpt lat="50.55429675498472" lon="3.1389252602640854"><ele>28.0</ele><time>2026-04-11T11:54:52Z</time></trkpt><trkpt lat="50.55423725186058" lon="3.1390043877645257"><ele>28.000000000000004</ele><time>2026-04-11T11:54:53Z</time></trkpt><trkpt lat="50.55417757106776" lon="3.1390777134309076"><ele>28.0</ele><time>2026-04-11T11:54:54Z</time></trkpt><trkpt lat="50.55411651135237" lon="3.1391550694705996"><ele>28.000000000000004</ele><time>2026-04-11T11:54:55Z</time></trkpt><trkpt lat="50.55405396087242" lon="3.1392303982111422"><ele>28.0</ele><time>2026-04-11T11:54:56Z</time></trkpt><trkpt lat="50.553994271115435" lon="3.139302465477556"><ele>28.0</ele><time>2026-04-11T11:54:57Z</time></trkpt><trkpt lat="50.55393549778023" lon="3.1393792830297906"><ele>28.0</ele><time>2026-04-11T11:54:58Z</time></trkpt><trkpt lat="50.55387918858978" lon="3.139456506232477"><ele>28.000000000000004</ele><time>2026-04-11T11:54:59Z</time></trkpt><trkpt lat="50.55381912810908" lon="3.139526128812848"><ele>28.0</ele><time>2026-04-11T11:55:00Z</time></trkpt><trkpt lat="50.553760827825414" lon="3.1395911119936484"><ele>28.0</ele><time>2026-04-11T11:55:01Z</time></trkpt><trkpt lat="50.55370285007472" lon="3.1396685037024588"><ele>28.0</ele><time>2026-04-11T11:55:02Z</time></trkpt><trkpt lat="50.553647918568295" lon="3.1397425435543127"><ele>28.0</ele><time>2026-04-11T11:55:03Z</time></trkpt><trkpt lat="50.55359766471492" lon="3.1398085755879506"><ele>28.0</ele><time>2026-04-11T11:55:04Z</time></trkpt><trkpt lat="50.55354174990089" lon="3.1398705836985146"><ele>28.0</ele><time>2026-04-11T11:55:05Z</time></trkpt><trkpt lat="50.553487393336965" lon="3.1399348322932252"><ele>28.0</ele><time>2026-04-11T11:55:06Z</time></trkpt><trkpt lat="50.553434910163865" lon="3.140007214157398"><ele>28.0</ele><time>2026-04-11T11:55:07Z</time></trkpt><trkpt lat="50.553381387265865" lon="3.1400697707016634"><ele>27.833333333333336</ele><time>2026-04-11T11:55:08Z</time></trkpt><trkpt lat="50.55332958892059" lon="3.140134990358643"><ele>27.666666666666668</ele><time>2026-04-11T11:55:09Z</time></trkpt><trkpt lat="50.553275767154936" lon="3.1401992843916875"><ele>27.5</ele><time>2026-04-11T11:55:10Z</time></trkpt><trkpt lat="50.55322089122576" lon="3.140257206908137"><ele>27.333333333333336</ele><time>2026-04-11T11:55:11Z</time></trkpt><trkpt lat="50.553117495573964" lon="3.140357693569551"><ele>27.166666666666668</ele><time>2026-04-11T11:55:13Z</time></trkpt><trkpt lat="50.55306554456784" lon="3.1404169598624216"><ele>27.0</ele><time>2026-04-11T11:55:14Z</time></trkpt><trkpt lat="50.55296829811581" lon="3.1405183431192434"><ele>27.0</ele><time>2026-04-11T11:55:16Z</time></trkpt><trkpt lat="50.55286709372793" lon="3.14062284047285"><ele>27.0</ele><time>2026-04-11T11:55:18Z</time></trkpt><trkpt lat="50.552768138927874" lon="3.1407309547103455"><ele>27.0</ele><time>2026-04-11T11:55:20Z</time></trkpt><trkpt lat="50.55267006087079" lon="3.140834178175402"><ele>27.0</ele><time>2026-04-11T11:55:22Z</time></trkpt><trkpt lat="50.552569356539806" lon="3.140936870569357"><ele>27.25</ele><time>2026-04-11T11:55:24Z</time></trkpt><trkpt lat="50.55246489820479" lon="3.1410353728591787"><ele>27.5</ele><time>2026-04-11T11:55:26Z</time></trkpt><trkpt lat="50.55236328066563" lon="3.141139985728761"><ele>27.75</ele><time>2026-04-11T11:55:28Z</time></trkpt><trkpt lat="50.552266047257426" lon="3.1412343215339824"><ele>28.0</ele><time>2026-04-11T11:55:30Z</time></trkpt><trkpt lat="50.552165521182864" lon="3.141318086996402"><ele>28.0</ele><time>2026-04-11T11:55:32Z</time></trkpt><trkpt lat="50.55206301904073" lon="3.14140618379298"><ele>27.999999999999996</ele><time>2026-04-11T11:55:34Z</time></trkpt><trkpt lat="50.551969854216956" lon="3.141496547077098"><ele>27.999999999999996</ele><time>2026-04-11T11:55:36Z</time></trkpt><trkpt lat="50.55187019654038" lon="3.141582730193182"><ele>28.0</ele><time>2026-04-11T11:55:38Z</time></trkpt><trkpt lat="50.55177467835152" lon="3.141661877007677"><ele>28.0</ele><time>2026-04-11T11:55:40Z</time></trkpt><trkpt lat="50.55167675263239" lon="3.141743751728662"><ele>27.799999999999997</ele><time>2026-04-11T11:55:42Z</time></trkpt><trkpt lat="50.55158242413215" lon="3.1418299144640507"><ele>27.599999999999998</ele><time>2026-04-11T11:55:44Z</time></trkpt><trkpt lat="50.55148340161703" lon="3.1419085563062863"><ele>27.400000000000002</ele><time>2026-04-11T11:55:46Z</time></trkpt><trkpt lat="50.55138709020012" lon="3.141990407479015"><ele>27.200000000000003</ele><time>2026-04-11T11:55:48Z</time></trkpt><trkpt lat="50.551291961864216" lon="3.1420739235610626"><ele>27.0</ele><time>2026-04-11T11:55:50Z</time></trkpt><trkpt lat="50.55119597048924" lon="3.142155237161893"><ele>26.75</ele><time>2026-04-11T11:55:52Z</time></trkpt><trkpt lat="50.55109702522355" lon="3.1422496634626955"><ele>26.5</ele><time>2026-04-11T11:55:54Z</time></trkpt><trkpt lat="50.55099850301911" lon="3.1423259917260036"><ele>26.25</ele><time>2026-04-11T11:55:56Z</time></trkpt><trkpt lat="50.55089971296241" lon="3.142414451570656"><ele>26.0</ele><time>2026-04-11T11:55:58Z</time></trkpt><trkpt lat="50.55079849825159" lon="3.142501559526158"><ele>25.75</ele><time>2026-04-11T11:56:00Z</time></trkpt><trkpt lat="50.550699729278364" lon="3.1425880475891117"><ele>25.5</ele><time>2026-04-11T11:56:02Z</time></trkpt><trkpt lat="50.550598350876264" lon="3.142674190056619"><ele>25.25</ele><time>2026-04-11T11:56:04Z</time></trkpt><trkpt lat="50.55049632274304" lon="3.14276617606343"><ele>25.0</ele><time>2026-04-11T11:56:06Z</time></trkpt><trkpt lat="50.55038987822252" lon="3.1428562660303925"><ele>25.25</ele><time>2026-04-11T11:56:08Z</time></trkpt><trkpt lat="50.55028768077305" lon="3.1429447401023265"><ele>25.5</ele><time>2026-04-11T11:56:10Z</time></trkpt><trkpt lat="50.550182405726886" lon="3.143039351808207"><ele>25.75</ele><time>2026-04-11T11:56:12Z</time></trkpt><trkpt lat="50.5500746269292" lon="3.143128621330193"><ele>26.0</ele><time>2026-04-11T11:56:14Z</time></trkpt><trkpt lat="50.54997001396954" lon="3.143217812734117"><ele>26.25</ele><time>2026-04-11T11:56:16Z</time></trkpt><trkpt lat="50.549868343940645" lon="3.1433057636215"><ele>26.5</ele><time>2026-04-11T11:56:18Z</time></trkpt><trkpt lat="50.549763790729266" lon="3.1434000503612567"><ele>26.75</ele><time>2026-04-11T11:56:20Z</time></trkpt><trkpt lat="50.54965913516141" lon="3.1434922243524115"><ele>27.0</ele><time>2026-04-11T11:56:22Z</time></trkpt><trkpt lat="50.54955556184943" lon="3.14357904621321"><ele>26.75</ele><time>2026-04-11T11:56:23.999Z</time></trkpt><trkpt lat="50.549449240718566" lon="3.1436698046433635"><ele>26.5</ele><time>2026-04-11T11:56:25.999Z</time></trkpt><trkpt lat="50.549343239627085" lon="3.1437623802018555"><ele>26.25</ele><time>2026-04-11T11:56:28Z</time></trkpt><trkpt lat="50.54923733733953" lon="3.1438531283192077"><ele>26.0</ele><time>2026-04-11T11:56:30Z</time></trkpt><trkpt lat="50.54913306981399" lon="3.143946607268743"><ele>26.0</ele><time>2026-04-11T11:56:32Z</time></trkpt><trkpt lat="50.54902619047842" lon="3.1440334191493333"><ele>26.0</ele><time>2026-04-11T11:56:34Z</time></trkpt><trkpt lat="50.548925894766676" lon="3.1441236504697385"><ele>26.0</ele><time>2026-04-11T11:56:36Z</time></trkpt><trkpt lat="50.54882901978753" lon="3.144208338644851"><ele>26.0</ele><time>2026-04-11T11:56:38Z</time></trkpt><trkpt lat="50.548727929823194" lon="3.1442957077754583"><ele>27.0</ele><time>2026-04-11T11:56:40Z</time></trkpt><trkpt lat="50.54862455812397" lon="3.1443846420175623"><ele>28.0</ele><time>2026-04-11T11:56:42Z</time></trkpt><trkpt lat="50.54852113376243" lon="3.1444722993185565"><ele>29.0</ele><time>2026-04-11T11:56:44Z</time></trkpt><trkpt lat="50.54842337751809" lon="3.1445641759093435"><ele>30.0</ele><time>2026-04-11T11:56:46Z</time></trkpt><trkpt lat="50.548322438078024" lon="3.144658345896493"><ele>30.0</ele><time>2026-04-11T11:56:48Z</time></trkpt><trkpt lat="50.548269320274535" lon="3.1447166034237743"><ele>30.0</ele><time>2026-04-11T11:56:49Z</time></trkpt><trkpt lat="50.54817069223403" lon="3.144829567285228"><ele>30.0</ele><time>2026-04-11T11:56:51Z</time></trkpt><trkpt lat="50.5480680122312" lon="3.1449407725549654"><ele>30.0</ele><time>2026-04-11T11:56:53Z</time></trkpt><trkpt lat="50.54801568418452" lon="3.1450043148188285"><ele>30.0</ele><time>2026-04-11T11:56:54Z</time></trkpt><trkpt lat="50.547963572666745" lon="3.145067714142002"><ele>30.0</ele><time>2026-04-11T11:56:55Z</time></trkpt><trkpt lat="50.54791237636647" lon="3.145128196057254"><ele>29.6</ele><time>2026-04-11T11:56:56Z</time></trkpt><trkpt lat="50.54786106900031" lon="3.1451917462288153"><ele>29.2</ele><time>2026-04-11T11:56:57Z</time></trkpt><trkpt lat="50.54776534527593" lon="3.145306067188625"><ele>28.799999999999997</ele><time>2026-04-11T11:56:59Z</time></trkpt><trkpt lat="50.54766474792029" lon="3.145424677525538"><ele>28.4</ele><time>2026-04-11T11:57:01Z</time></trkpt><trkpt lat="50.5476136256777" lon="3.1454830299221874"><ele>28.0</ele><time>2026-04-11T11:57:02Z</time></trkpt><trkpt lat="50.54751559746084" lon="3.145599346488237"><ele>28.25</ele><time>2026-04-11T11:57:04Z</time></trkpt><trkpt lat="50.54741773764039" lon="3.145717338014805"><ele>28.5</ele><time>2026-04-11T11:57:06Z</time></trkpt><trkpt lat="50.547316858033255" lon="3.1458356888795556"><ele>28.75</ele><time>2026-04-11T11:57:08Z</time></trkpt><trkpt lat="50.547217538205004" lon="3.14595699133921"><ele>29.0</ele><time>2026-04-11T11:57:10Z</time></trkpt><trkpt lat="50.54711784397856" lon="3.1460679122511794"><ele>28.75</ele><time>2026-04-11T11:57:12Z</time></trkpt><trkpt lat="50.54702023247408" lon="3.146184800827712"><ele>28.5</ele><time>2026-04-11T11:57:14Z</time></trkpt><trkpt lat="50.54692210835089" lon="3.146300308087748"><ele>28.25</ele><time>2026-04-11T11:57:16Z</time></trkpt><trkpt lat="50.546831582631" lon="3.1464142798717067"><ele>28.0</ele><time>2026-04-11T11:57:18Z</time></trkpt><trkpt lat="50.54673914359949" lon="3.146526777873354"><ele>27.75</ele><time>2026-04-11T11:57:20Z</time></trkpt><trkpt lat="50.546647433938844" lon="3.14663156375461"><ele>27.5</ele><time>2026-04-11T11:57:22Z</time></trkpt><trkpt lat="50.54655727840147" lon="3.1467422368190943"><ele>27.25</ele><time>2026-04-11T11:57:24Z</time></trkpt><trkpt lat="50.546466177495525" lon="3.1468515186614394"><ele>27.0</ele><time>2026-04-11T11:57:26Z</time></trkpt><trkpt lat="50.546375804437865" lon="3.146960891789999"><ele>27.0</ele><time>2026-04-11T11:57:28Z</time></trkpt><trkpt lat="50.546292969186275" lon="3.1470589778722626"><ele>27.000000000000004</ele><time>2026-04-11T11:57:30Z</time></trkpt><trkpt lat="50.546205525893605" lon="3.147159854302691"><ele>27.000000000000004</ele><time>2026-04-11T11:57:32Z</time></trkpt><trkpt lat="50.54611689645803" lon="3.147261868263341"><ele>27.0</ele><time>2026-04-11T11:57:34Z</time></trkpt><trkpt lat="50.546028893289666" lon="3.1473655467424555"><ele>27.0</ele><time>2026-04-11T11:57:36Z</time></trkpt><trkpt lat="50.54593824908758" lon="3.1474677128010806"><ele>27.400000000000002</ele><time>2026-04-11T11:57:38Z</time></trkpt><trkpt lat="50.5458515224296" lon="3.147576821339483"><ele>27.800000000000004</ele><time>2026-04-11T11:57:40Z</time></trkpt><trkpt lat="50.54576120412597" lon="3.1476796572289043"><ele>28.2</ele><time>2026-04-11T11:57:42Z</time></trkpt><trkpt lat="50.545674680358765" lon="3.1477850960949647"><ele>28.6</ele><time>2026-04-11T11:57:44Z</time></trkpt><trkpt lat="50.54558897337357" lon="3.147885941208971"><ele>29.0</ele><time>2026-04-11T11:57:46Z</time></trkpt><trkpt lat="50.545503632575105" lon="3.147983775046882"><ele>29.0</ele><time>2026-04-11T11:57:48Z</time></trkpt><trkpt lat="50.54542024007999" lon="3.148082623015358"><ele>29.0</ele><time>2026-04-11T11:57:50Z</time></trkpt><trkpt lat="50.545339256041544" lon="3.1481825027994303"><ele>29.0</ele><time>2026-04-11T11:57:52Z</time></trkpt><trkpt lat="50.545259229936164" lon="3.148272440410735"><ele>29.0</ele><time>2026-04-11T11:57:54Z</time></trkpt><trkpt lat="50.545181128204106" lon="3.1483628384189983"><ele>29.0</ele><time>2026-04-11T11:57:56Z</time></trkpt><trkpt lat="50.54509522973048" lon="3.1484636049957615"><ele>29.0</ele><time>2026-04-11T11:57:58Z</time></trkpt><trkpt lat="50.5450092443104" lon="3.148565822408971"><ele>29.0</ele><time>2026-04-11T11:58:00Z</time></trkpt><trkpt lat="50.544919407966844" lon="3.1486734266965812"><ele>29.0</ele><time>2026-04-11T11:58:02Z</time></trkpt><trkpt lat="50.544832947101526" lon="3.1487768269602445"><ele>29.0</ele><time>2026-04-11T11:58:04Z</time></trkpt><trkpt lat="50.54474703259232" lon="3.148881563034709"><ele>29.0</ele><time>2026-04-11T11:58:06Z</time></trkpt><trkpt lat="50.54465932562218" lon="3.148985444128204"><ele>28.75</ele><time>2026-04-11T11:58:08Z</time></trkpt><trkpt lat="50.5445684366571" lon="3.1490896553144716"><ele>28.5</ele><time>2026-04-11T11:58:10Z</time></trkpt><trkpt lat="50.54447239631616" lon="3.14920189738456"><ele>28.25</ele><time>2026-04-11T11:58:12Z</time></trkpt><trkpt lat="50.544375456726115" lon="3.149318539324891"><ele>28.0</ele><time>2026-04-11T11:58:14Z</time></trkpt><trkpt lat="50.544278787492374" lon="3.1494359937137255"><ele>28.0</ele><time>2026-04-11T11:58:16Z</time></trkpt><trkpt lat="50.54418088899223" lon="3.1495458233158247"><ele>28.0</ele><time>2026-04-11T11:58:18Z</time></trkpt><trkpt lat="50.54408050889488" lon="3.149668089375758"><ele>28.0</ele><time>2026-04-11T11:58:20Z</time></trkpt><trkpt lat="50.54398406373066" lon="3.149779307252475"><ele>28.0</ele><time>2026-04-11T11:58:22Z</time></trkpt><trkpt lat="50.543885283234694" lon="3.1498978332683145"><ele>28.0</ele><time>2026-04-11T11:58:24Z</time></trkpt><trkpt lat="50.54378688821892" lon="3.1500119772843465"><ele>27.999999999999996</ele><time>2026-04-11T11:58:26Z</time></trkpt><trkpt lat="50.543688944902044" lon="3.1501279397879802"><ele>27.999999999999996</ele><time>2026-04-11T11:58:28Z</time></trkpt><trkpt lat="50.54363925236813" lon="3.1501892910436373"><ele>28.0</ele><time>2026-04-11T11:58:29Z</time></trkpt><trkpt lat="50.54354086741432" lon="3.150310074312218"><ele>28.0</ele><time>2026-04-11T11:58:31Z</time></trkpt><trkpt lat="50.54343746013421" lon="3.15042865779045"><ele>28.333333333333336</ele><time>2026-04-11T11:58:33Z</time></trkpt><trkpt lat="50.54333817140315" lon="3.1505490786274892"><ele>28.666666666666668</ele><time>2026-04-11T11:58:35Z</time></trkpt><trkpt lat="50.543240629315804" lon="3.150663963340729"><ele>29.0</ele><time>2026-04-11T11:58:37Z</time></trkpt><trkpt lat="50.543186674594324" lon="3.1507248239837824"><ele>29.333333333333336</ele><time>2026-04-11T11:58:38Z</time></trkpt><trkpt lat="50.54313777192988" lon="3.150791874480571"><ele>29.666666666666668</ele><time>2026-04-11T11:58:39Z</time></trkpt><trkpt lat="50.54308710054857" lon="3.1508569993671505"><ele>30.0</ele><time>2026-04-11T11:58:40Z</time></trkpt><trkpt lat="50.5430381870573" lon="3.15092455958432"><ele>30.0</ele><time>2026-04-11T11:58:41Z</time></trkpt><trkpt lat="50.54298884026754" lon="3.1509954171667998"><ele>30.0</ele><time>2026-04-11T11:58:42Z</time></trkpt><trkpt lat="50.54294063318157" lon="3.1510665968007805"><ele>30.0</ele><time>2026-04-11T11:58:43Z</time></trkpt><trkpt lat="50.54289160299793" lon="3.1511374981258906"><ele>30.0</ele><time>2026-04-11T11:58:44Z</time></trkpt><trkpt lat="50.54284609108857" lon="3.15121153469894"><ele>30.0</ele><time>2026-04-11T11:58:45Z</time></trkpt><trkpt lat="50.54280023683394" lon="3.151285542700562"><ele>30.0</ele><time>2026-04-11T11:58:46Z</time></trkpt><trkpt lat="50.54274999553353" lon="3.1513627531929216"><ele>30.0</ele><time>2026-04-11T11:58:47Z</time></trkpt><trkpt lat="50.54270292662887" lon="3.1514411579386787"><ele>30.0</ele><time>2026-04-11T11:58:48Z</time></trkpt><trkpt lat="50.5426590313503" lon="3.1515202445129766"><ele>30.0</ele><time>2026-04-11T11:58:49Z</time></trkpt><trkpt lat="50.542614767422236" lon="3.1515979753781855"><ele>30.0</ele><time>2026-04-11T11:58:50Z</time></trkpt><trkpt lat="50.5425705795982" lon="3.1516793210850653"><ele>30.0</ele><time>2026-04-11T11:58:51Z</time></trkpt><trkpt lat="50.542528841597026" lon="3.1517592366284375"><ele>30.0</ele><time>2026-04-11T11:58:52Z</time></trkpt><trkpt lat="50.542488320299896" lon="3.151841979214529"><ele>30.0</ele><time>2026-04-11T11:58:53Z</time></trkpt><trkpt lat="50.54244916264666" lon="3.1519244167399583"><ele>30.0</ele><time>2026-04-11T11:58:54Z</time></trkpt><trkpt lat="50.542412612029224" lon="3.1520059309457795"><ele>30.0</ele><time>2026-04-11T11:58:55Z</time></trkpt><trkpt lat="50.542340388037736" lon="3.1521610173098473"><ele>30.0</ele><time>2026-04-11T11:58:57Z</time></trkpt><trkpt lat="50.54230655229786" lon="3.152244884075019"><ele>30.0</ele><time>2026-04-11T11:58:58Z</time></trkpt><trkpt lat="50.542239956001026" lon="3.1524096498690897"><ele>30.0</ele><time>2026-04-11T11:59:00Z</time></trkpt><trkpt lat="50.54217802117674" lon="3.152582046066236"><ele>30.0</ele><time>2026-04-11T11:59:02Z</time></trkpt><trkpt lat="50.54211745404029" lon="3.152749269805614"><ele>30.0</ele><time>2026-04-11T11:59:04Z</time></trkpt><trkpt lat="50.54208615582319" lon="3.1528379741641257"><ele>30.0</ele><time>2026-04-11T11:59:05Z</time></trkpt><trkpt lat="50.54202618780641" lon="3.1530107983698104"><ele>30.0</ele><time>2026-04-11T11:59:07Z</time></trkpt><trkpt lat="50.541996831107525" lon="3.153098496101536"><ele>30.0</ele><time>2026-04-11T11:59:08Z</time></trkpt><trkpt lat="50.5419390740888" lon="3.1532785082125656"><ele>30.0</ele><time>2026-04-11T11:59:10Z</time></trkpt><trkpt lat="50.54190952089105" lon="3.1533664608462355"><ele>30.0</ele><time>2026-04-11T11:59:11Z</time></trkpt><trkpt lat="50.5418456287988" lon="3.153538682783438"><ele>30.0</ele><time>2026-04-11T11:59:13Z</time></trkpt><trkpt lat="50.541811432835814" lon="3.1536242928948415"><ele>30.0</ele><time>2026-04-11T11:59:14Z</time></trkpt><trkpt lat="50.541743570638154" lon="3.1537879694694566"><ele>30.0</ele><time>2026-04-11T11:59:16Z</time></trkpt><trkpt lat="50.54167445474178" lon="3.153947921363511"><ele>30.0</ele><time>2026-04-11T11:59:18Z</time></trkpt><trkpt lat="50.54160403654565" lon="3.15410862056568"><ele>30.0</ele><time>2026-04-11T11:59:20Z</time></trkpt><trkpt lat="50.54156710462249" lon="3.154189872288108"><ele>29.75</ele><time>2026-04-11T11:59:21Z</time></trkpt><trkpt lat="50.54149046496855" lon="3.1543328775158153"><ele>29.5</ele><time>2026-04-11T11:59:23Z</time></trkpt><trkpt lat="50.54141198215839" lon="3.154485055657514"><ele>29.25</ele><time>2026-04-11T11:59:25Z</time></trkpt><trkpt lat="50.54133375791489" lon="3.154627928963606"><ele>29.0</ele><time>2026-04-11T11:59:27Z</time></trkpt><trkpt lat="50.541253599182674" lon="3.1547646414127937"><ele>28.999999999999996</ele><time>2026-04-11T11:59:29Z</time></trkpt><trkpt lat="50.541172982130355" lon="3.154897400973154"><ele>29.0</ele><time>2026-04-11T11:59:31Z</time></trkpt><trkpt lat="50.54108789484057" lon="3.15503932921836"><ele>29.0</ele><time>2026-04-11T11:59:33Z</time></trkpt><trkpt lat="50.541045190172106" lon="3.1551123420265093"><ele>29.0</ele><time>2026-04-11T11:59:34Z</time></trkpt><trkpt lat="50.54100088878892" lon="3.1551875101541085"><ele>28.999999999999996</ele><time>2026-04-11T11:59:35Z</time></trkpt><trkpt lat="50.540957805951514" lon="3.1552611769394305"><ele>29.0</ele><time>2026-04-11T11:59:36Z</time></trkpt><trkpt lat="50.54087194796339" lon="3.155402819050146"><ele>29.0</ele><time>2026-04-11T11:59:38Z</time></trkpt><trkpt lat="50.54079243217943" lon="3.15554902280435"><ele>29.0</ele><time>2026-04-11T11:59:40Z</time></trkpt><trkpt lat="50.54071447835123" lon="3.155697405557042"><ele>29.0</ele><time>2026-04-11T11:59:42Z</time></trkpt><trkpt lat="50.540642996606124" lon="3.155851059680055"><ele>29.0</ele><time>2026-04-11T11:59:44Z</time></trkpt><trkpt lat="50.54057290648656" lon="3.15600882756663"><ele>29.0</ele><time>2026-04-11T11:59:46Z</time></trkpt><trkpt lat="50.54050567625487" lon="3.1561679101514395"><ele>29.0</ele><time>2026-04-11T11:59:48Z</time></trkpt><trkpt lat="50.54044585939489" lon="3.156326078249578"><ele>29.0</ele><time>2026-04-11T11:59:50Z</time></trkpt><trkpt lat="50.54038470323535" lon="3.156482653732147"><ele>29.0</ele><time>2026-04-11T11:59:52Z</time></trkpt><trkpt lat="50.54032781027912" lon="3.1566409049321917"><ele>29.0</ele><time>2026-04-11T11:59:54Z</time></trkpt><trkpt lat="50.54027659208534" lon="3.1568061485825587"><ele>29.0</ele><time>2026-04-11T11:59:56Z</time></trkpt><trkpt lat="50.54022952768816" lon="3.156972940851208"><ele>29.0</ele><time>2026-04-11T11:59:58Z</time></trkpt><trkpt lat="50.540185456016935" lon="3.1571480190492034"><ele>29.0</ele><time>2026-04-11T12:00:00Z</time></trkpt><trkpt lat="50.54014336438477" lon="3.15732715063223"><ele>29.25</ele><time>2026-04-11T12:00:02Z</time></trkpt><trkpt lat="50.5401044514677" lon="3.157508670057576"><ele>29.5</ele><time>2026-04-11T12:00:04Z</time></trkpt><trkpt lat="50.540064164355265" lon="3.157691093016731"><ele>29.75</ele><time>2026-04-11T12:00:06Z</time></trkpt><trkpt lat="50.54002284269814" lon="3.1578752918373882"><ele>30.0</ele><time>2026-04-11T12:00:08Z</time></trkpt><trkpt lat="50.539986382591486" lon="3.1580605210317074"><ele>30.0</ele><time>2026-04-11T12:00:10Z</time></trkpt><trkpt lat="50.539964777369754" lon="3.1581541639574415"><ele>30.0</ele><time>2026-04-11T12:00:11Z</time></trkpt><trkpt lat="50.53992338520218" lon="3.158331647190469"><ele>30.0</ele><time>2026-04-11T12:00:13Z</time></trkpt><trkpt lat="50.53988738487376" lon="3.1585131030791085"><ele>30.0</ele><time>2026-04-11T12:00:15Z</time></trkpt><trkpt lat="50.53984731730195" lon="3.158693609078426"><ele>30.0</ele><time>2026-04-11T12:00:17Z</time></trkpt><trkpt lat="50.539805579798" lon="3.158874269603103"><ele>29.6</ele><time>2026-04-11T12:00:19Z</time></trkpt><trkpt lat="50.539769088550095" lon="3.1590570256271877"><ele>29.2</ele><time>2026-04-11T12:00:21Z</time></trkpt><trkpt lat="50.53972577016879" lon="3.1592391328938274"><ele>28.799999999999997</ele><time>2026-04-11T12:00:23Z</time></trkpt><trkpt lat="50.53968703415861" lon="3.1594239851521047"><ele>28.4</ele><time>2026-04-11T12:00:25Z</time></trkpt><trkpt lat="50.539667719230756" lon="3.159520842307151"><ele>28.0</ele><time>2026-04-11T12:00:26Z</time></trkpt><trkpt lat="50.539634095858496" lon="3.159705657082976"><ele>28.2</ele><time>2026-04-11T12:00:28Z</time></trkpt><trkpt lat="50.5395913595396" lon="3.159886989843941"><ele>28.4</ele><time>2026-04-11T12:00:30Z</time></trkpt><trkpt lat="50.53957044788274" lon="3.1599867296394533"><ele>28.599999999999998</ele><time>2026-04-11T12:00:31Z</time></trkpt><trkpt lat="50.53952234262907" lon="3.160160093592266"><ele>28.799999999999997</ele><time>2026-04-11T12:00:33Z</time></trkpt><trkpt lat="50.53946936478992" lon="3.160335042787533"><ele>29.0</ele><time>2026-04-11T12:00:35Z</time></trkpt><trkpt lat="50.53944060430466" lon="3.1604272866865912"><ele>29.2</ele><time>2026-04-11T12:00:36Z</time></trkpt><trkpt lat="50.53940995658348" lon="3.1605177047665083"><ele>29.4</ele><time>2026-04-11T12:00:37Z</time></trkpt><trkpt lat="50.53935203606398" lon="3.160680715004375"><ele>29.6</ele><time>2026-04-11T12:00:39Z</time></trkpt><trkpt lat="50.539290337180816" lon="3.1608324224652367"><ele>29.8</ele><time>2026-04-11T12:00:41Z</time></trkpt><trkpt lat="50.53921593758224" lon="3.160980873502612"><ele>30.0</ele><time>2026-04-11T12:00:43Z</time></trkpt><trkpt lat="50.53914770220282" lon="3.161124784305432"><ele>30.0</ele><time>2026-04-11T12:00:45Z</time></trkpt><trkpt lat="50.53907627974861" lon="3.161267570905042"><ele>30.0</ele><time>2026-04-11T12:00:47Z</time></trkpt><trkpt lat="50.53900363964372" lon="3.161408236293731"><ele>30.0</ele><time>2026-04-11T12:00:49Z</time></trkpt><trkpt lat="50.538920959922464" lon="3.1615467874618677"><ele>30.0</ele><time>2026-04-11T12:00:51Z</time></trkpt><trkpt lat="50.53883670408495" lon="3.1616822216253926"><ele>30.0</ele><time>2026-04-11T12:00:53Z</time></trkpt><trkpt lat="50.53878893683604" lon="3.161754038613535"><ele>30.0</ele><time>2026-04-11T12:00:54Z</time></trkpt><trkpt lat="50.53873734242632" lon="3.1618269448766667"><ele>30.0</ele><time>2026-04-11T12:00:55Z</time></trkpt><trkpt lat="50.5386481638318" lon="3.1619483480570327"><ele>30.0</ele><time>2026-04-11T12:00:57Z</time></trkpt><trkpt lat="50.53859968841002" lon="3.162026292117236"><ele>30.0</ele><time>2026-04-11T12:00:58Z</time></trkpt><trkpt lat="50.53855162102804" lon="3.1620906510090574"><ele>30.0</ele><time>2026-04-11T12:00:59Z</time></trkpt><trkpt lat="50.53850020398854" lon="3.162163811597992"><ele>30.0</ele><time>2026-04-11T12:01:00Z</time></trkpt><trkpt lat="50.5384468035541" lon="3.1622265601120167"><ele>30.0</ele><time>2026-04-11T12:01:01Z</time></trkpt><trkpt lat="50.538396931393876" lon="3.162290830328011"><ele>30.0</ele><time>2026-04-11T12:01:02Z</time></trkpt><trkpt lat="50.53830000478022" lon="3.1624239911701935"><ele>30.0</ele><time>2026-04-11T12:01:04Z</time></trkpt><trkpt lat="50.5382527383513" lon="3.1624898960067296"><ele>30.0</ele><time>2026-04-11T12:01:05Z</time></trkpt><trkpt lat="50.53820373636698" lon="3.162559676044656"><ele>30.0</ele><time>2026-04-11T12:01:06Z</time></trkpt><trkpt lat="50.53810740929527" lon="3.162688618246745"><ele>30.0</ele><time>2026-04-11T12:01:08Z</time></trkpt><trkpt lat="50.538020078789394" lon="3.1628127688502947"><ele>30.0</ele><time>2026-04-11T12:01:10Z</time></trkpt><trkpt lat="50.53797128186875" lon="3.1628843553763293"><ele>30.0</ele><time>2026-04-11T12:01:11Z</time></trkpt><trkpt lat="50.537885098142176" lon="3.1630011025230798"><ele>30.0</ele><time>2026-04-11T12:01:13Z</time></trkpt><trkpt lat="50.537787657500786" lon="3.1631205260350805"><ele>30.0</ele><time>2026-04-11T12:01:15Z</time></trkpt><trkpt lat="50.5376911580833" lon="3.1632275274731865"><ele>30.0</ele><time>2026-04-11T12:01:17Z</time></trkpt><trkpt lat="50.537596709319835" lon="3.1633278438751717"><ele>30.0</ele><time>2026-04-11T12:01:19Z</time></trkpt><trkpt lat="50.537497844734666" lon="3.163414371727087"><ele>30.0</ele><time>2026-04-11T12:01:21Z</time></trkpt><trkpt lat="50.53739302261821" lon="3.1634862485945803"><ele>30.0</ele><time>2026-04-11T12:01:23Z</time></trkpt><trkpt lat="50.537285621609456" lon="3.1635551050134567"><ele>30.0</ele><time>2026-04-11T12:01:25Z</time></trkpt><trkpt lat="50.537173021443046" lon="3.1635945167300723"><ele>30.0</ele><time>2026-04-11T12:01:27Z</time></trkpt><trkpt lat="50.53706309231834" lon="3.163635387306385"><ele>30.0</ele><time>2026-04-11T12:01:29Z</time></trkpt><trkpt lat="50.53695563571043" lon="3.163688279285198"><ele>30.0</ele><time>2026-04-11T12:01:31Z</time></trkpt><trkpt lat="50.536851677768404" lon="3.1637308697105384"><ele>30.0</ele><time>2026-04-11T12:01:33Z</time></trkpt><trkpt lat="50.53675034879622" lon="3.1636972431555757"><ele>30.4</ele><time>2026-04-11T12:01:35Z</time></trkpt><trkpt lat="50.536667087283625" lon="3.163788133328453"><ele>30.8</ele><time>2026-04-11T12:01:37Z</time></trkpt><trkpt lat="50.536660734619794" lon="3.163968237714995"><ele>31.200000000000003</ele><time>2026-04-11T12:01:39Z</time></trkpt><trkpt lat="50.53671852465847" lon="3.16412496931698"><ele>31.6</ele><time>2026-04-11T12:01:41Z</time></trkpt><trkpt lat="50.53672325688469" lon="3.16430339365122"><ele>32.0</ele><time>2026-04-11T12:01:43Z</time></trkpt><trkpt lat="50.53666222658314" lon="3.164471332718654"><ele>32.0</ele><time>2026-04-11T12:01:45Z</time></trkpt><trkpt lat="50.5366109612105" lon="3.1646408568097817"><ele>32.0</ele><time>2026-04-11T12:01:47Z</time></trkpt><trkpt lat="50.536582657513165" lon="3.164732486905656"><ele>32.0</ele><time>2026-04-11T12:01:48Z</time></trkpt><trkpt lat="50.53652715031789" lon="3.16489668130718"><ele>32.0</ele><time>2026-04-11T12:01:50Z</time></trkpt><trkpt lat="50.53647223386308" lon="3.165064304508074"><ele>32.0</ele><time>2026-04-11T12:01:52Z</time></trkpt><trkpt lat="50.53642085706836" lon="3.165226679034224"><ele>32.0</ele><time>2026-04-11T12:01:54Z</time></trkpt><trkpt lat="50.53636648698918" lon="3.1653921399508054"><ele>32.0</ele><time>2026-04-11T12:01:56Z</time></trkpt><trkpt lat="50.53631360625405" lon="3.16554781333339"><ele>32.0</ele><time>2026-04-11T12:01:58Z</time></trkpt><trkpt lat="50.536260325472824" lon="3.165706740468933"><ele>32.0</ele><time>2026-04-11T12:02:00Z</time></trkpt><trkpt lat="50.53620908341217" lon="3.1658624186742554"><ele>32.0</ele><time>2026-04-11T12:02:02Z</time></trkpt><trkpt lat="50.53615664724037" lon="3.166026517513244"><ele>32.0</ele><time>2026-04-11T12:02:04Z</time></trkpt><trkpt lat="50.53610187911837" lon="3.166185657168436"><ele>32.0</ele><time>2026-04-11T12:02:06Z</time></trkpt><trkpt lat="50.53604924124798" lon="3.1663575055499957"><ele>32.0</ele><time>2026-04-11T12:02:08Z</time></trkpt><trkpt lat="50.536019953264955" lon="3.166445942319"><ele>32.0</ele><time>2026-04-11T12:02:09Z</time></trkpt><trkpt lat="50.53596660080355" lon="3.16661639078229"><ele>32.25</ele><time>2026-04-11T12:02:11Z</time></trkpt><trkpt lat="50.53590931137916" lon="3.166786665766214"><ele>32.5</ele><time>2026-04-11T12:02:13Z</time></trkpt><trkpt lat="50.535860540558524" lon="3.1669744838986156"><ele>32.75</ele><time>2026-04-11T12:02:15Z</time></trkpt><trkpt lat="50.535802246548634" lon="3.1671409829667008"><ele>33.0</ele><time>2026-04-11T12:02:17Z</time></trkpt><trkpt lat="50.535743908151375" lon="3.167307554057008"><ele>33.25</ele><time>2026-04-11T12:02:19Z</time></trkpt><trkpt lat="50.53568825483678" lon="3.1674795583152253"><ele>33.5</ele><time>2026-04-11T12:02:21Z</time></trkpt><trkpt lat="50.53563884697861" lon="3.167651300867049"><ele>33.75</ele><time>2026-04-11T12:02:23Z</time></trkpt><trkpt lat="50.53559757977017" lon="3.167819556406064"><ele>34.0</ele><time>2026-04-11T12:02:25Z</time></trkpt><trkpt lat="50.53555775252907" lon="3.167996255699021"><ele>34.0</ele><time>2026-04-11T12:02:27Z</time></trkpt><trkpt lat="50.53552682869764" lon="3.16819072492942"><ele>34.0</ele><time>2026-04-11T12:02:29Z</time></trkpt><trkpt lat="50.53550817377293" lon="3.1683898928840115"><ele>34.0</ele><time>2026-04-11T12:02:30.999Z</time></trkpt><trkpt lat="50.53550343762506" lon="3.1684912257283933"><ele>34.0</ele><time>2026-04-11T12:02:31.999Z</time></trkpt><trkpt lat="50.5355058697509" lon="3.1685925812580216"><ele>34.0</ele><time>2026-04-11T12:02:32.999Z</time></trkpt><trkpt lat="50.53551265549265" lon="3.1687018919409673"><ele>34.0</ele><time>2026-04-11T12:02:33.999Z</time></trkpt><trkpt lat="50.53551406622266" lon="3.1688947401779117"><ele>34.0</ele><time>2026-04-11T12:02:35.999Z</time></trkpt><trkpt lat="50.535495845839684" lon="3.169098581197703"><ele>34.0</ele><time>2026-04-11T12:02:37.999Z</time></trkpt><trkpt lat="50.53548399246011" lon="3.1691991864965203"><ele>34.0</ele><time>2026-04-11T12:02:38.999Z</time></trkpt><trkpt lat="50.535451622831694" lon="3.169393305889645"><ele>34.0</ele><time>2026-04-11T12:02:40.999Z</time></trkpt><trkpt lat="50.53539041572723" lon="3.169544955309627"><ele>34.0</ele><time>2026-04-11T12:02:42.999Z</time></trkpt><trkpt lat="50.53531440122852" lon="3.1696614171908335"><ele>34.0</ele><time>2026-04-11T12:02:44.999Z</time></trkpt><trkpt lat="50.535218991460994" lon="3.1697800077529696"><ele>34.0</ele><time>2026-04-11T12:02:47Z</time></trkpt><trkpt lat="50.53509438915779" lon="3.1698742296232227"><ele>34.0</ele><time>2026-04-11T12:02:49Z</time></trkpt><trkpt lat="50.53502392132397" lon="3.1699184330709023"><ele>34.0</ele><time>2026-04-11T12:02:50Z</time></trkpt><trkpt lat="50.53495760093169" lon="3.1699654519156613"><ele>34.14285714285714</ele><time>2026-04-11T12:02:51Z</time></trkpt><trkpt lat="50.534896143437635" lon="3.1700142652680454"><ele>34.285714285714285</ele><time>2026-04-11T12:02:52Z</time></trkpt><trkpt lat="50.53483390890184" lon="3.1700660747806455"><ele>34.42857142857143</ele><time>2026-04-11T12:02:53Z</time></trkpt><trkpt lat="50.53478065151528" lon="3.170126023933708"><ele>34.57142857142857</ele><time>2026-04-11T12:02:54Z</time></trkpt><trkpt lat="50.534728805932644" lon="3.17018890062952"><ele>34.714285714285715</ele><time>2026-04-11T12:02:55Z</time></trkpt><trkpt lat="50.53467735627774" lon="3.1702615386733384"><ele>34.857142857142854</ele><time>2026-04-11T12:02:56Z</time></trkpt><trkpt lat="50.53463007102621" lon="3.1703387031808923"><ele>35.0</ele><time>2026-04-11T12:02:57Z</time></trkpt><trkpt lat="50.534587047137215" lon="3.170413850845357"><ele>35.2</ele><time>2026-04-11T12:02:58Z</time></trkpt><trkpt lat="50.53454532030468" lon="3.170488844755895"><ele>35.4</ele><time>2026-04-11T12:02:59Z</time></trkpt><trkpt lat="50.534461961132436" lon="3.1706368853449933"><ele>35.6</ele><time>2026-04-11T12:03:01Z</time></trkpt><trkpt lat="50.53442222147451" lon="3.170716298161564"><ele>35.8</ele><time>2026-04-11T12:03:02Z</time></trkpt><trkpt lat="50.53434081597468" lon="3.1708610390165055"><ele>36.0</ele><time>2026-04-11T12:03:04Z</time></trkpt><trkpt lat="50.53426549790624" lon="3.17100705939845"><ele>36.0</ele><time>2026-04-11T12:03:06Z</time></trkpt><trkpt lat="50.53418594110459" lon="3.171147142847235"><ele>36.0</ele><time>2026-04-11T12:03:08Z</time></trkpt><trkpt lat="50.534144010677906" lon="3.171223727421604"><ele>36.0</ele><time>2026-04-11T12:03:09Z</time></trkpt><trkpt lat="50.53406575699612" lon="3.171373562365607"><ele>36.0</ele><time>2026-04-11T12:03:11Z</time></trkpt><trkpt lat="50.533991510561485" lon="3.1714874550264236"><ele>36.0</ele><time>2026-04-11T12:03:13Z</time></trkpt><trkpt lat="50.53390062403675" lon="3.1716142437760966"><ele>36.0</ele><time>2026-04-11T12:03:15Z</time></trkpt><trkpt lat="50.53381691368479" lon="3.171720176742661"><ele>36.0</ele><time>2026-04-11T12:03:17Z</time></trkpt><trkpt lat="50.53372879234124" lon="3.171835412055252"><ele>36.0</ele><time>2026-04-11T12:03:19Z</time></trkpt><trkpt lat="50.53363946661599" lon="3.17195473086052"><ele>36.0</ele><time>2026-04-11T12:03:21Z</time></trkpt><trkpt lat="50.53355157221189" lon="3.1720696143708915"><ele>36.4</ele><time>2026-04-11T12:03:23Z</time></trkpt><trkpt lat="50.533462284162944" lon="3.1721872785066734"><ele>36.8</ele><time>2026-04-11T12:03:25Z</time></trkpt><trkpt lat="50.53337889201851" lon="3.1722957790163404"><ele>37.199999999999996</ele><time>2026-04-11T12:03:27Z</time></trkpt><trkpt lat="50.53329837159432" lon="3.172411725425628"><ele>37.6</ele><time>2026-04-11T12:03:29Z</time></trkpt><trkpt lat="50.53322045210643" lon="3.172521015640887"><ele>38.0</ele><time>2026-04-11T12:03:31Z</time></trkpt><trkpt lat="50.53314432515239" lon="3.1726244201548477"><ele>38.199999999999996</ele><time>2026-04-11T12:03:33Z</time></trkpt><trkpt lat="50.533054774601695" lon="3.17271262460217"><ele>38.4</ele><time>2026-04-11T12:03:35Z</time></trkpt><trkpt lat="50.53301313008686" lon="3.172787864329358"><ele>38.599999999999994</ele><time>2026-04-11T12:03:36Z</time></trkpt><trkpt lat="50.53293090185086" lon="3.172902923863549"><ele>38.8</ele><time>2026-04-11T12:03:38Z</time></trkpt><trkpt lat="50.5328497222968" lon="3.173018865822476"><ele>39.0</ele><time>2026-04-11T12:03:40Z</time></trkpt><trkpt lat="50.53277193246297" lon="3.1731200532521875"><ele>39.8</ele><time>2026-04-11T12:03:42Z</time></trkpt><trkpt lat="50.53269718584816" lon="3.1732262454676765"><ele>40.599999999999994</ele><time>2026-04-11T12:03:44Z</time></trkpt><trkpt lat="50.53262919211244" lon="3.173335100709041"><ele>41.4</ele><time>2026-04-11T12:03:46Z</time></trkpt><trkpt lat="50.53254637866597" lon="3.173447315044621"><ele>42.199999999999996</ele><time>2026-04-11T12:03:48Z</time></trkpt><trkpt lat="50.53246967050697" lon="3.1735525409915737"><ele>43.0</ele><time>2026-04-11T12:03:50Z</time></trkpt><trkpt lat="50.532397775084476" lon="3.173655801911279"><ele>43.0</ele><time>2026-04-11T12:03:52Z</time></trkpt><trkpt lat="50.53232704651301" lon="3.173763826673773"><ele>43.0</ele><time>2026-04-11T12:03:54Z</time></trkpt><trkpt lat="50.53225462565166" lon="3.1738718230035863"><ele>43.0</ele><time>2026-04-11T12:03:56Z</time></trkpt><trkpt lat="50.53218751773043" lon="3.1739700272795295"><ele>43.0</ele><time>2026-04-11T12:03:58Z</time></trkpt><trkpt lat="50.53211487990997" lon="3.174069656915119"><ele>43.0</ele><time>2026-04-11T12:04:00Z</time></trkpt><trkpt lat="50.53203903976316" lon="3.1741687862512915"><ele>43.2</ele><time>2026-04-11T12:04:02Z</time></trkpt><trkpt lat="50.531972761434936" lon="3.174273931185059"><ele>43.4</ele><time>2026-04-11T12:04:04Z</time></trkpt><trkpt lat="50.53190462451702" lon="3.174376401659616"><ele>43.6</ele><time>2026-04-11T12:04:06Z</time></trkpt><trkpt lat="50.53182918086629" lon="3.1744711247881026"><ele>43.800000000000004</ele><time>2026-04-11T12:04:08Z</time></trkpt><trkpt lat="50.531754680825365" lon="3.1745697079426707"><ele>44.0</ele><time>2026-04-11T12:04:10Z</time></trkpt><trkpt lat="50.53168094725685" lon="3.1746711904799745"><ele>44.0</ele><time>2026-04-11T12:04:12Z</time></trkpt><trkpt lat="50.53160770127078" lon="3.1747779041351096"><ele>44.0</ele><time>2026-04-11T12:04:14Z</time></trkpt><trkpt lat="50.53153782083404" lon="3.174877684592975"><ele>44.0</ele><time>2026-04-11T12:04:16Z</time></trkpt><trkpt lat="50.531462687793514" lon="3.174981160080839"><ele>44.0</ele><time>2026-04-11T12:04:18Z</time></trkpt><trkpt lat="50.53138903291192" lon="3.1750820502306816"><ele>44.0</ele><time>2026-04-11T12:04:20Z</time></trkpt><trkpt lat="50.531318180091674" lon="3.175175404399591"><ele>44.2</ele><time>2026-04-11T12:04:22Z</time></trkpt><trkpt lat="50.53122649633445" lon="3.1752228727381646"><ele>44.400000000000006</ele><time>2026-04-11T12:04:24Z</time></trkpt><trkpt lat="50.53113574572543" lon="3.1751559349138323"><ele>44.6</ele><time>2026-04-11T12:04:26Z</time></trkpt><trkpt lat="50.53106739149959" lon="3.1750547301806518"><ele>44.8</ele><time>2026-04-11T12:04:28Z</time></trkpt><trkpt lat="50.53098720772338" lon="3.174969488139238"><ele>45.0</ele><time>2026-04-11T12:04:29.999Z</time></trkpt><trkpt lat="50.53091104240023" lon="3.17488226884711"><ele>44.6</ele><time>2026-04-11T12:04:31.999Z</time></trkpt><trkpt lat="50.53082733641055" lon="3.1747901984746787"><ele>44.2</ele><time>2026-04-11T12:04:33.999Z</time></trkpt><trkpt lat="50.530740049632044" lon="3.1747136603475887"><ele>43.8</ele><time>2026-04-11T12:04:35.999Z</time></trkpt><trkpt lat="50.5306478850533" lon="3.174670362442866"><ele>43.4</ele><time>2026-04-11T12:04:37.999Z</time></trkpt><trkpt lat="50.53055331608303" lon="3.174650006555095"><ele>43.0</ele><time>2026-04-11T12:04:39.999Z</time></trkpt><trkpt lat="50.53044842330008" lon="3.1746369271118273"><ele>43.2</ele><time>2026-04-11T12:04:41.999Z</time></trkpt><trkpt lat="50.53034693632021" lon="3.1746260983566925"><ele>43.4</ele><time>2026-04-11T12:04:43.999Z</time></trkpt><trkpt lat="50.53024635376972" lon="3.174608320335167"><ele>43.6</ele><time>2026-04-11T12:04:45.999Z</time></trkpt><trkpt lat="50.53014829092421" lon="3.174580955936077"><ele>43.800000000000004</ele><time>2026-04-11T12:04:47.999Z</time></trkpt><trkpt lat="50.53004803401277" lon="3.1745630834654373"><ele>44.0</ele><time>2026-04-11T12:04:49.999Z</time></trkpt><trkpt lat="50.52996503510471" lon="3.174545854793756"><ele>44.0</ele><time>2026-04-11T12:04:52Z</time></trkpt><trkpt lat="50.52990108104995" lon="3.174535616401675"><ele>44.0</ele><time>2026-04-11T12:04:53Z</time></trkpt><trkpt lat="50.529809965695634" lon="3.1745216104829628"><ele>44.0</ele><time>2026-04-11T12:04:55Z</time></trkpt><trkpt lat="50.52969836747235" lon="3.1744927240179486"><ele>44.0</ele><time>2026-04-11T12:04:57Z</time></trkpt><trkpt lat="50.5295845851134" lon="3.174479299029362"><ele>44.0</ele><time>2026-04-11T12:04:59Z</time></trkpt><trkpt lat="50.52947207499627" lon="3.174454675505751"><ele>44.2</ele><time>2026-04-11T12:05:01Z</time></trkpt><trkpt lat="50.52936173134264" lon="3.174441699682338"><ele>44.400000000000006</ele><time>2026-04-11T12:05:03Z</time></trkpt><trkpt lat="50.52925150547458" lon="3.1744282675832944"><ele>44.6</ele><time>2026-04-11T12:05:05Z</time></trkpt><trkpt lat="50.52914522242404" lon="3.1744043362341245"><ele>44.8</ele><time>2026-04-11T12:05:07Z</time></trkpt><trkpt lat="50.52904662637434" lon="3.174356268400539"><ele>45.0</ele><time>2026-04-11T12:05:09Z</time></trkpt><trkpt lat="50.528955935150734" lon="3.1742859143054902"><ele>45.0</ele><time>2026-04-11T12:05:11Z</time></trkpt><trkpt lat="50.52887014585373" lon="3.1741964701832956"><ele>45.0</ele><time>2026-04-11T12:05:13Z</time></trkpt><trkpt lat="50.528782717526184" lon="3.1741284636748355"><ele>45.0</ele><time>2026-04-11T12:05:15Z</time></trkpt><trkpt lat="50.528684594262295" lon="3.1740711049583856"><ele>45.0</ele><time>2026-04-11T12:05:17Z</time></trkpt><trkpt lat="50.52861478462661" lon="3.1739873492245283"><ele>45.0</ele><time>2026-04-11T12:05:19Z</time></trkpt><trkpt lat="50.52854513892303" lon="3.1739098237930765"><ele>45.333333333333336</ele><time>2026-04-11T12:05:21Z</time></trkpt><trkpt lat="50.52847478066259" lon="3.1738205307597402"><ele>45.666666666666664</ele><time>2026-04-11T12:05:23Z</time></trkpt><trkpt lat="50.52839457519737" lon="3.1737509722465966"><ele>46.0</ele><time>2026-04-11T12:05:25Z</time></trkpt><trkpt lat="50.52832324717206" lon="3.173658446305067"><ele>46.33333333333333</ele><time>2026-04-11T12:05:27Z</time></trkpt><trkpt lat="50.52826451165294" lon="3.1735825434999034"><ele>46.666666666666664</ele><time>2026-04-11T12:05:29Z</time></trkpt><trkpt lat="50.5282271419224" lon="3.1734955836698657"><ele>47.0</ele><time>2026-04-11T12:05:32Z</time></trkpt><trkpt lat="50.528210497457366" lon="3.173607332985106"><ele>47.0</ele><time>2026-04-11T12:05:36Z</time></trkpt><trkpt lat="50.52829148996229" lon="3.173663300649306"><ele>47.0</ele><time>2026-04-11T12:05:38Z</time></trkpt><trkpt lat="50.528372518892084" lon="3.1737618406716748"><ele>47.0</ele><time>2026-04-11T12:05:40Z</time></trkpt><trkpt lat="50.528465333434674" lon="3.173861358200224"><ele>47.0</ele><time>2026-04-11T12:05:42Z</time></trkpt><trkpt lat="50.52855782322391" lon="3.1739699590533332"><ele>47.0</ele><time>2026-04-11T12:05:44Z</time></trkpt><trkpt lat="50.52863562435032" lon="3.1740910693931244"><ele>46.8</ele><time>2026-04-11T12:05:46Z</time></trkpt><trkpt lat="50.528584922871254" lon="3.1742401240098213"><ele>46.6</ele><time>2026-04-11T12:05:48Z</time></trkpt><trkpt lat="50.528523145833205" lon="3.1742789998050855"><ele>46.4</ele><time>2026-04-11T12:05:49Z</time></trkpt><trkpt lat="50.52842807398752" lon="3.1742608739683535"><ele>46.199999999999996</ele><time>2026-04-11T12:05:51Z</time></trkpt><trkpt lat="50.52834817457616" lon="3.1743232385536357"><ele>46.0</ele><time>2026-04-11T12:05:53Z</time></trkpt><trkpt lat="50.5282518298655" lon="3.1743940373801864"><ele>46.0</ele><time>2026-04-11T12:05:55Z</time></trkpt><trkpt lat="50.528169817848784" lon="3.174460256117312"><ele>46.0</ele><time>2026-04-11T12:05:57Z</time></trkpt><trkpt lat="50.52808270964258" lon="3.1745061340189267"><ele>46.0</ele><time>2026-04-11T12:05:59Z</time></trkpt><trkpt lat="50.52799388252234" lon="3.174544520059385"><ele>46.0</ele><time>2026-04-11T12:06:01Z</time></trkpt><trkpt lat="50.527908826029865" lon="3.174592321119325"><ele>46.0</ele><time>2026-04-11T12:06:03Z</time></trkpt><trkpt lat="50.52781608404123" lon="3.1746347189194806"><ele>46.199999999999996</ele><time>2026-04-11T12:06:05Z</time></trkpt><trkpt lat="50.52772535034463" lon="3.174680092063951"><ele>46.4</ele><time>2026-04-11T12:06:07Z</time></trkpt><trkpt lat="50.527629705295624" lon="3.1747221511778347"><ele>46.6</ele><time>2026-04-11T12:06:09Z</time></trkpt><trkpt lat="50.52753597217017" lon="3.1747759847098704"><ele>46.8</ele><time>2026-04-11T12:06:11Z</time></trkpt><trkpt lat="50.52743233517427" lon="3.174824893141219"><ele>47.0</ele><time>2026-04-11T12:06:13Z</time></trkpt><trkpt lat="50.52733117575404" lon="3.1748652546547342"><ele>47.0</ele><time>2026-04-11T12:06:15Z</time></trkpt><trkpt lat="50.5272382060907" lon="3.1748886813474937"><ele>47.0</ele><time>2026-04-11T12:06:17Z</time></trkpt><trkpt lat="50.5271368148237" lon="3.174907478421885"><ele>47.0</ele><time>2026-04-11T12:06:19Z</time></trkpt><trkpt lat="50.52704075992727" lon="3.174934658641222"><ele>47.0</ele><time>2026-04-11T12:06:21Z</time></trkpt><trkpt lat="50.52693138136577" lon="3.174956725235996"><ele>47.0</ele><time>2026-04-11T12:06:23Z</time></trkpt><trkpt lat="50.52683025147231" lon="3.1749895744416308"><ele>47.0</ele><time>2026-04-11T12:06:25Z</time></trkpt><trkpt lat="50.526724556490585" lon="3.1750227032250202"><ele>47.0</ele><time>2026-04-11T12:06:27Z</time></trkpt><trkpt lat="50.52660909290294" lon="3.175042671864645"><ele>47.0</ele><time>2026-04-11T12:06:29Z</time></trkpt><trkpt lat="50.5264972335351" lon="3.175073482508244"><ele>47.0</ele><time>2026-04-11T12:06:31Z</time></trkpt><trkpt lat="50.52639277397444" lon="3.1751063038072336"><ele>47.0</ele><time>2026-04-11T12:06:33Z</time></trkpt><trkpt lat="50.52628373756679" lon="3.1751394470657712"><ele>46.6</ele><time>2026-04-11T12:06:34.999Z</time></trkpt><trkpt lat="50.52617765151098" lon="3.1751792446866407"><ele>46.2</ele><time>2026-04-11T12:06:36.999Z</time></trkpt><trkpt lat="50.526073152257" lon="3.1752304022250883"><ele>45.8</ele><time>2026-04-11T12:06:38.999Z</time></trkpt><trkpt lat="50.52596951876576" lon="3.1752814556366165"><ele>45.4</ele><time>2026-04-11T12:06:40.999Z</time></trkpt><trkpt lat="50.525866982901746" lon="3.175338238877511"><ele>45.0</ele><time>2026-04-11T12:06:42.999Z</time></trkpt><trkpt lat="50.52576364633548" lon="3.1753971794047837"><ele>45.0</ele><time>2026-04-11T12:06:44.999Z</time></trkpt><trkpt lat="50.525662611389855" lon="3.1754562806643705"><ele>45.0</ele><time>2026-04-11T12:06:46.999Z</time></trkpt><trkpt lat="50.52555474076923" lon="3.1755086912500263"><ele>45.0</ele><time>2026-04-11T12:06:48.999Z</time></trkpt><trkpt lat="50.52544986300717" lon="3.175572506587142"><ele>45.0</ele><time>2026-04-11T12:06:50.999Z</time></trkpt><trkpt lat="50.52535891508814" lon="3.1756252443845625"><ele>45.0</ele><time>2026-04-11T12:06:52.999Z</time></trkpt><trkpt lat="50.52524995729749" lon="3.175681197675378"><ele>45.0</ele><time>2026-04-11T12:06:54.999Z</time></trkpt><trkpt lat="50.52514776286785" lon="3.1757307446825287"><ele>45.0</ele><time>2026-04-11T12:06:56.999Z</time></trkpt><trkpt lat="50.52504467087493" lon="3.1757909652908594"><ele>45.0</ele><time>2026-04-11T12:06:59Z</time></trkpt><trkpt lat="50.52493528230147" lon="3.1758460390010614"><ele>45.0</ele><time>2026-04-11T12:07:01Z</time></trkpt><trkpt lat="50.524833485849285" lon="3.1759065038438727"><ele>45.0</ele><time>2026-04-11T12:07:03Z</time></trkpt><trkpt lat="50.52473100822049" lon="3.1759533395768123"><ele>45.0</ele><time>2026-04-11T12:07:05Z</time></trkpt><trkpt lat="50.52463583645522" lon="3.1760083274293884"><ele>45.0</ele><time>2026-04-11T12:07:07Z</time></trkpt><trkpt lat="50.52453318910526" lon="3.1760564967612215"><ele>45.0</ele><time>2026-04-11T12:07:09Z</time></trkpt><trkpt lat="50.5244249889351" lon="3.1760935042174703"><ele>45.0</ele><time>2026-04-11T12:07:11Z</time></trkpt><trkpt lat="50.52432272448657" lon="3.1761224229504355"><ele>45.0</ele><time>2026-04-11T12:07:13Z</time></trkpt><trkpt lat="50.52421956468043" lon="3.176141008776238"><ele>45.0</ele><time>2026-04-11T12:07:15Z</time></trkpt><trkpt lat="50.52410918311703" lon="3.176158815966437"><ele>45.0</ele><time>2026-04-11T12:07:17Z</time></trkpt><trkpt lat="50.52400515940682" lon="3.176154728412671"><ele>45.0</ele><time>2026-04-11T12:07:19Z</time></trkpt><trkpt lat="50.52390622931797" lon="3.1761483904807752"><ele>45.0</ele><time>2026-04-11T12:07:21Z</time></trkpt><trkpt lat="50.52380681120053" lon="3.1761350330923133"><ele>45.0</ele><time>2026-04-11T12:07:23Z</time></trkpt><trkpt lat="50.523726346889966" lon="3.1761535021700595"><ele>45.166666666666664</ele><time>2026-04-11T12:07:25Z</time></trkpt><trkpt lat="50.52365892668056" lon="3.176107153034966"><ele>45.333333333333336</ele><time>2026-04-11T12:07:28Z</time></trkpt><trkpt lat="50.523607008335254" lon="3.176002696554886"><ele>45.5</ele><time>2026-04-11T12:07:30Z</time></trkpt><trkpt lat="50.52353946302368" lon="3.17593938420969"><ele>45.66666666666667</ele><time>2026-04-11T12:07:32Z</time></trkpt><trkpt lat="50.52345841158353" lon="3.1758869461872092"><ele>45.833333333333336</ele><time>2026-04-11T12:07:34Z</time></trkpt><trkpt lat="50.52338374806911" lon="3.1758135175738413"><ele>46.0</ele><time>2026-04-11T12:07:36Z</time></trkpt><trkpt lat="50.52330534438413" lon="3.1757329516782673"><ele>46.199999999999996</ele><time>2026-04-11T12:07:38Z</time></trkpt><trkpt lat="50.523219520616664" lon="3.1756745324912243"><ele>46.4</ele><time>2026-04-11T12:07:40Z</time></trkpt><trkpt lat="50.52314087188604" lon="3.1756086080043717"><ele>46.6</ele><time>2026-04-11T12:07:42Z</time></trkpt><trkpt lat="50.52305732305176" lon="3.175533218073784"><ele>46.8</ele><time>2026-04-11T12:07:44Z</time></trkpt><trkpt lat="50.52298104271539" lon="3.1754639068458657"><ele>47.0</ele><time>2026-04-11T12:07:46Z</time></trkpt><trkpt lat="50.5229000976956" lon="3.1754010442314224"><ele>47.0</ele><time>2026-04-11T12:07:48Z</time></trkpt><trkpt lat="50.52281752906147" lon="3.175338976657965"><ele>47.0</ele><time>2026-04-11T12:07:50Z</time></trkpt><trkpt lat="50.52274180512879" lon="3.175285419636615"><ele>47.0</ele><time>2026-04-11T12:07:52Z</time></trkpt><trkpt lat="50.522657192525976" lon="3.1752086075788983"><ele>47.0</ele><time>2026-04-11T12:07:54Z</time></trkpt><trkpt lat="50.52257199433753" lon="3.1751372190717038"><ele>47.0</ele><time>2026-04-11T12:07:56Z</time></trkpt><trkpt lat="50.52248828042806" lon="3.1750716252239726"><ele>47.0</ele><time>2026-04-11T12:07:58Z</time></trkpt><trkpt lat="50.5224078302352" lon="3.175003525791723"><ele>47.0</ele><time>2026-04-11T12:08:00Z</time></trkpt><trkpt lat="50.522316777189" lon="3.1749574759231503"><ele>47.0</ele><time>2026-04-11T12:08:02Z</time></trkpt><trkpt lat="50.52224730055612" lon="3.174895470855014"><ele>47.0</ele><time>2026-04-11T12:08:04Z</time></trkpt><trkpt lat="50.52219091108509" lon="3.1748443806799"><ele>47.0</ele><time>2026-04-11T12:08:06Z</time></trkpt><trkpt lat="50.52213340073375" lon="3.1747935636415012"><ele>47.0</ele><time>2026-04-11T12:08:21Z</time></trkpt><trkpt lat="50.52207494088809" lon="3.174908093206133"><ele>47.0</ele><time>2026-04-11T12:08:23Z</time></trkpt><trkpt lat="50.522067305716384" lon="3.175015446471885"><ele>47.0</ele><time>2026-04-11T12:08:24Z</time></trkpt><trkpt lat="50.522035944141386" lon="3.175144405733544"><ele>47.0</ele><time>2026-04-11T12:08:26Z</time></trkpt><trkpt lat="50.52194451408565" lon="3.175220694750618"><ele>47.0</ele><time>2026-04-11T12:08:28Z</time></trkpt><trkpt lat="50.52183551418387" lon="3.1752203067429967"><ele>47.0</ele><time>2026-04-11T12:08:30Z</time></trkpt><trkpt lat="50.52173071062677" lon="3.175207008313415"><ele>46.75</ele><time>2026-04-11T12:08:32Z</time></trkpt><trkpt lat="50.521617449425385" lon="3.175202700192402"><ele>46.5</ele><time>2026-04-11T12:08:34Z</time></trkpt><trkpt lat="50.52150323001219" lon="3.1752012760808994"><ele>46.25</ele><time>2026-04-11T12:08:36Z</time></trkpt><trkpt lat="50.52138453259615" lon="3.175213448284567"><ele>46.0</ele><time>2026-04-11T12:08:38Z</time></trkpt><trkpt lat="50.5212644396134" lon="3.1752456403353064"><ele>45.8</ele><time>2026-04-11T12:08:39.999Z</time></trkpt><trkpt lat="50.52114452147512" lon="3.1752911421414662"><ele>45.599999999999994</ele><time>2026-04-11T12:08:41.999Z</time></trkpt><trkpt lat="50.52108230648378" lon="3.1753242269160684"><ele>45.4</ele><time>2026-04-11T12:08:42.999Z</time></trkpt><trkpt lat="50.520968538795294" lon="3.1753858211970143"><ele>45.2</ele><time>2026-04-11T12:08:44.999Z</time></trkpt><trkpt lat="50.5208464152278" lon="3.1754446906250138"><ele>45.0</ele><time>2026-04-11T12:08:46.999Z</time></trkpt><trkpt lat="50.52072868731328" lon="3.175490536169399"><ele>45.0</ele><time>2026-04-11T12:08:48.999Z</time></trkpt><trkpt lat="50.5206100722036" lon="3.175581241365898"><ele>45.0</ele><time>2026-04-11T12:08:50.999Z</time></trkpt><trkpt lat="50.52055619599393" lon="3.1756536589570117"><ele>45.0</ele><time>2026-04-11T12:08:51.999Z</time></trkpt><trkpt lat="50.520507662774364" lon="3.175724015426441"><ele>45.0</ele><time>2026-04-11T12:08:52.999Z</time></trkpt><trkpt lat="50.52046045500605" lon="3.1757921365057804"><ele>45.0</ele><time>2026-04-11T12:08:53.999Z</time></trkpt><trkpt lat="50.52041104729795" lon="3.175859983786771"><ele>45.0</ele><time>2026-04-11T12:08:54.999Z</time></trkpt><trkpt lat="50.52036289217178" lon="3.1759260606247466"><ele>44.714285714285715</ele><time>2026-04-11T12:08:55.999Z</time></trkpt><trkpt lat="50.520314335148576" lon="3.1759993895328935"><ele>44.42857142857143</ele><time>2026-04-11T12:08:56.999Z</time></trkpt><trkpt lat="50.520261222635966" lon="3.1760628244343034"><ele>44.142857142857146</ele><time>2026-04-11T12:08:57.999Z</time></trkpt><trkpt lat="50.520206730080076" lon="3.1761196487210515"><ele>43.85714285714286</ele><time>2026-04-11T12:08:58.999Z</time></trkpt><trkpt lat="50.52014833929081" lon="3.176168571078406"><ele>43.57142857142857</ele><time>2026-04-11T12:08:59.999Z</time></trkpt><trkpt lat="50.5200861753734" lon="3.1762085597054086"><ele>43.28571428571429</ele><time>2026-04-11T12:09:00.999Z</time></trkpt><trkpt lat="50.52002452844132" lon="3.176230858775391"><ele>43.0</ele><time>2026-04-11T12:09:01.999Z</time></trkpt><trkpt lat="50.51996190004306" lon="3.176248214421356"><ele>43.0</ele><time>2026-04-11T12:09:02.999Z</time></trkpt><trkpt lat="50.51983932867395" lon="3.176261729571372"><ele>43.0</ele><time>2026-04-11T12:09:05Z</time></trkpt><trkpt lat="50.51971920769668" lon="3.176233695705894"><ele>43.0</ele><time>2026-04-11T12:09:07Z</time></trkpt><trkpt lat="50.519605889589585" lon="3.1761836389050306"><ele>43.0</ele><time>2026-04-11T12:09:09Z</time></trkpt><trkpt lat="50.519491802742515" lon="3.176136361660475"><ele>42.5</ele><time>2026-04-11T12:09:11Z</time></trkpt><trkpt lat="50.51938229775831" lon="3.176089808111549"><ele>42.0</ele><time>2026-04-11T12:09:13Z</time></trkpt><trkpt lat="50.519268045650996" lon="3.1760624805391244"><ele>41.5</ele><time>2026-04-11T12:09:15Z</time></trkpt><trkpt lat="50.519160690697454" lon="3.1760192524438606"><ele>41.0</ele><time>2026-04-11T12:09:17Z</time></trkpt><trkpt lat="50.51905116097126" lon="3.175979200990379"><ele>41.0</ele><time>2026-04-11T12:09:19Z</time></trkpt><trkpt lat="50.518942669776564" lon="3.1759406124171483"><ele>41.0</ele><time>2026-04-11T12:09:21Z</time></trkpt><trkpt lat="50.51883711727496" lon="3.175889191387684"><ele>41.0</ele><time>2026-04-11T12:09:23Z</time></trkpt><trkpt lat="50.5187365459041" lon="3.1758490323361657"><ele>41.0</ele><time>2026-04-11T12:09:25Z</time></trkpt><trkpt lat="50.51863980495407" lon="3.1757866988040298"><ele>41.0</ele><time>2026-04-11T12:09:27Z</time></trkpt><trkpt lat="50.518550373251685" lon="3.1756977387592804"><ele>40.5</ele><time>2026-04-11T12:09:29Z</time></trkpt><trkpt lat="50.51846375818397" lon="3.1755991369323993"><ele>40.0</ele><time>2026-04-11T12:09:31Z</time></trkpt><trkpt lat="50.51836860563" lon="3.175505651027841"><ele>39.5</ele><time>2026-04-11T12:09:33Z</time></trkpt><trkpt lat="50.51828184995624" lon="3.1753948463620607"><ele>39.0</ele><time>2026-04-11T12:09:35Z</time></trkpt><trkpt lat="50.51817968139718" lon="3.175296667732878"><ele>39.0</ele><time>2026-04-11T12:09:37Z</time></trkpt><trkpt lat="50.5180864990497" lon="3.1752066974501583"><ele>39.0</ele><time>2026-04-11T12:09:39Z</time></trkpt><trkpt lat="50.517985575179175" lon="3.1751206905726357"><ele>39.0</ele><time>2026-04-11T12:09:41Z</time></trkpt><trkpt lat="50.51788429432605" lon="3.1750421959176296"><ele>39.0</ele><time>2026-04-11T12:09:43Z</time></trkpt><trkpt lat="50.517776035005475" lon="3.1749657330239978"><ele>39.0</ele><time>2026-04-11T12:09:45Z</time></trkpt><trkpt lat="50.51766569413798" lon="3.1748828630019053"><ele>39.0</ele><time>2026-04-11T12:09:47Z</time></trkpt><trkpt lat="50.51755484667629" lon="3.174806536697976"><ele>39.0</ele><time>2026-04-11T12:09:49Z</time></trkpt><trkpt lat="50.51744317296682" lon="3.17472969500436"><ele>39.0</ele><time>2026-04-11T12:09:51Z</time></trkpt><trkpt lat="50.517329168604036" lon="3.1746576960783663"><ele>39.25</ele><time>2026-04-11T12:09:53Z</time></trkpt><trkpt lat="50.51721511537412" lon="3.17458335885517"><ele>39.5</ele><time>2026-04-11T12:09:55Z</time></trkpt><trkpt lat="50.51710409925446" lon="3.174507975307277"><ele>39.75</ele><time>2026-04-11T12:09:57Z</time></trkpt><trkpt lat="50.51699220090967" lon="3.17443329342621"><ele>40.0</ele><time>2026-04-11T12:09:59Z</time></trkpt><trkpt lat="50.51687853415436" lon="3.1743595925065495"><ele>40.4</ele><time>2026-04-11T12:10:01Z</time></trkpt><trkpt lat="50.516770100267195" lon="3.1742921795969963"><ele>40.8</ele><time>2026-04-11T12:10:03Z</time></trkpt><trkpt lat="50.51667115242301" lon="3.174210008106057"><ele>41.2</ele><time>2026-04-11T12:10:05Z</time></trkpt><trkpt lat="50.51657440953793" lon="3.1741171008272193"><ele>41.6</ele><time>2026-04-11T12:10:07Z</time></trkpt><trkpt lat="50.51650085823911" lon="3.1740181388473085"><ele>42.0</ele><time>2026-04-11T12:10:09Z</time></trkpt><trkpt lat="50.51642152890104" lon="3.1739065936481556"><ele>42.400000000000006</ele><time>2026-04-11T12:10:11Z</time></trkpt><trkpt lat="50.51633814384617" lon="3.1737968147865163"><ele>42.800000000000004</ele><time>2026-04-11T12:10:13Z</time></trkpt><trkpt lat="50.51626653678136" lon="3.1736942182651933"><ele>43.2</ele><time>2026-04-11T12:10:15Z</time></trkpt><trkpt lat="50.51619203649557" lon="3.173589180357788"><ele>43.6</ele><time>2026-04-11T12:10:17Z</time></trkpt><trkpt lat="50.5161160181901" lon="3.1734906873429547"><ele>44.0</ele><time>2026-04-11T12:10:19Z</time></trkpt><trkpt lat="50.51604811889541" lon="3.1733939721735753"><ele>44.166666666666664</ele><time>2026-04-11T12:10:21Z</time></trkpt><trkpt lat="50.515976446772896" lon="3.173303583742811"><ele>44.33333333333333</ele><time>2026-04-11T12:10:23Z</time></trkpt><trkpt lat="50.51592070550821" lon="3.173208040497168"><ele>44.5</ele><time>2026-04-11T12:10:25Z</time></trkpt><trkpt lat="50.515848816443174" lon="3.17312631334192"><ele>44.666666666666664</ele><time>2026-04-11T12:10:27Z</time></trkpt><trkpt lat="50.515781600827225" lon="3.173030321565283"><ele>44.833333333333336</ele><time>2026-04-11T12:10:29Z</time></trkpt><trkpt lat="50.51571239066666" lon="3.1729359498929877"><ele>45.0</ele><time>2026-04-11T12:10:31Z</time></trkpt><trkpt lat="50.515647304764244" lon="3.1728421272535607"><ele>45.166666666666664</ele><time>2026-04-11T12:10:33Z</time></trkpt><trkpt lat="50.515592883971294" lon="3.172727319870642"><ele>45.333333333333336</ele><time>2026-04-11T12:10:35Z</time></trkpt><trkpt lat="50.51555651978796" lon="3.1725990837925666"><ele>45.5</ele><time>2026-04-11T12:10:37Z</time></trkpt><trkpt lat="50.51553285916527" lon="3.1724713560001256"><ele>45.66666666666667</ele><time>2026-04-11T12:10:39Z</time></trkpt><trkpt lat="50.51551464586626" lon="3.17233549125536"><ele>45.833333333333336</ele><time>2026-04-11T12:10:41Z</time></trkpt><trkpt lat="50.51549505725211" lon="3.172202232486859"><ele>46.0</ele><time>2026-04-11T12:10:43Z</time></trkpt><trkpt lat="50.515476215217404" lon="3.172077734340343"><ele>46.0</ele><time>2026-04-11T12:10:45Z</time></trkpt><trkpt lat="50.51545569180413" lon="3.1719518395947777"><ele>46.0</ele><time>2026-04-11T12:10:47Z</time></trkpt><trkpt lat="50.51543170374948" lon="3.1718230820232227"><ele>46.0</ele><time>2026-04-11T12:10:49Z</time></trkpt><trkpt lat="50.51541015600026" lon="3.171690878086159"><ele>46.0</ele><time>2026-04-11T12:10:51Z</time></trkpt><trkpt lat="50.51539090040157" lon="3.171563957816469"><ele>46.0</ele><time>2026-04-11T12:10:53Z</time></trkpt><trkpt lat="50.51536334892792" lon="3.1714443835887676"><ele>46.0</ele><time>2026-04-11T12:10:55Z</time></trkpt><trkpt lat="50.51532603925346" lon="3.171319474512076"><ele>46.5</ele><time>2026-04-11T12:10:57Z</time></trkpt><trkpt lat="50.51527807303653" lon="3.171217824688627"><ele>47.0</ele><time>2026-04-11T12:10:58.999Z</time></trkpt><trkpt lat="50.51520649299878" lon="3.171162779575596"><ele>47.5</ele><time>2026-04-11T12:11:00.999Z</time></trkpt><trkpt lat="50.51511815650471" lon="3.171191046933298"><ele>48.0</ele><time>2026-04-11T12:11:02.999Z</time></trkpt><trkpt lat="50.51503520842637" lon="3.1712379910480406"><ele>48.49999999999999</ele><time>2026-04-11T12:11:04.999Z</time></trkpt><trkpt lat="50.51495089946847" lon="3.1712826765691675"><ele>49.0</ele><time>2026-04-11T12:11:06.999Z</time></trkpt><trkpt lat="50.51485846317509" lon="3.17131937193427"><ele>49.0</ele><time>2026-04-11T12:11:08.999Z</time></trkpt><trkpt lat="50.51475972661903" lon="3.1713718154802337"><ele>49.0</ele><time>2026-04-11T12:11:11Z</time></trkpt><trkpt lat="50.51465354044759" lon="3.171421538629239"><ele>49.0</ele><time>2026-04-11T12:11:13Z</time></trkpt><trkpt lat="50.51453626799205" lon="3.171487488323081"><ele>49.0</ele><time>2026-04-11T12:11:15Z</time></trkpt><trkpt lat="50.51447545994009" lon="3.171517434907813"><ele>49.0</ele><time>2026-04-11T12:11:16Z</time></trkpt><trkpt lat="50.514407303306434" lon="3.1715476694764275"><ele>48.714285714285715</ele><time>2026-04-11T12:11:17Z</time></trkpt><trkpt lat="50.514330570700224" lon="3.1715748884245802"><ele>48.42857142857143</ele><time>2026-04-11T12:11:18Z</time></trkpt><trkpt lat="50.51425764026493" lon="3.171581328382047"><ele>48.14285714285714</ele><time>2026-04-11T12:11:19Z</time></trkpt><trkpt lat="50.514193384797466" lon="3.1715685387374655"><ele>47.85714285714286</ele><time>2026-04-11T12:11:20Z</time></trkpt><trkpt lat="50.51411599696672" lon="3.17153976662523"><ele>47.57142857142857</ele><time>2026-04-11T12:11:21Z</time></trkpt><trkpt lat="50.51405025536259" lon="3.1715112389668745"><ele>47.285714285714285</ele><time>2026-04-11T12:11:22Z</time></trkpt><trkpt lat="50.51398493491126" lon="3.1714862118348"><ele>47.0</ele><time>2026-04-11T12:11:23Z</time></trkpt><trkpt lat="50.51392377649062" lon="3.171462470809568"><ele>47.0</ele><time>2026-04-11T12:11:24Z</time></trkpt><trkpt lat="50.51386170344939" lon="3.1714346234251916"><ele>47.0</ele><time>2026-04-11T12:11:25Z</time></trkpt><trkpt lat="50.51379903440526" lon="3.171407774237608"><ele>47.0</ele><time>2026-04-11T12:11:26Z</time></trkpt><trkpt lat="50.513679037858665" lon="3.1713532475541237"><ele>47.0</ele><time>2026-04-11T12:11:28Z</time></trkpt><trkpt lat="50.51361850796858" lon="3.1713174990765163"><ele>47.0</ele><time>2026-04-11T12:11:29Z</time></trkpt><trkpt lat="50.51352155880321" lon="3.171212100218831"><ele>47.0</ele><time>2026-04-11T12:11:31Z</time></trkpt><trkpt lat="50.51344430950042" lon="3.1710780343752747"><ele>47.0</ele><time>2026-04-11T12:11:33Z</time></trkpt><trkpt lat="50.51336764655874" lon="3.1709354232964926"><ele>47.0</ele><time>2026-04-11T12:11:35Z</time></trkpt><trkpt lat="50.513309443193435" lon="3.1707880746184394"><ele>47.0</ele><time>2026-04-11T12:11:37Z</time></trkpt><trkpt lat="50.513247236541616" lon="3.1706331941162347"><ele>47.0</ele><time>2026-04-11T12:11:39Z</time></trkpt><trkpt lat="50.513193260127345" lon="3.170488786039254"><ele>47.0</ele><time>2026-04-11T12:11:41Z</time></trkpt><trkpt lat="50.513213784094496" lon="3.1703404182084807"><ele>47.0</ele><time>2026-04-11T12:11:43Z</time></trkpt><trkpt lat="50.51319398993569" lon="3.170221743137248"><ele>47.0</ele><time>2026-04-11T12:11:45Z</time></trkpt><trkpt lat="50.51310642513945" lon="3.170235073850672"><ele>47.0</ele><time>2026-04-11T12:11:47Z</time></trkpt><trkpt lat="50.51307259011124" lon="3.170383423828677"><ele>47.0</ele><time>2026-04-11T12:11:49Z</time></trkpt><trkpt lat="50.51301298409199" lon="3.1704764585490146"><ele>47.0</ele><time>2026-04-11T12:11:51Z</time></trkpt><trkpt lat="50.51292373989173" lon="3.1705091740109266"><ele>47.0</ele><time>2026-04-11T12:11:53Z</time></trkpt><trkpt lat="50.512826097576635" lon="3.170499355071258"><ele>47.0</ele><time>2026-04-11T12:11:55Z</time></trkpt><trkpt lat="50.5127281303849" lon="3.170482110562195"><ele>47.0</ele><time>2026-04-11T12:11:57Z</time></trkpt><trkpt lat="50.5126207356107" lon="3.1705207412343035"><ele>47.0</ele><time>2026-04-11T12:11:59Z</time></trkpt><trkpt lat="50.512512188151454" lon="3.1705607531484348"><ele>47.0</ele><time>2026-04-11T12:12:01Z</time></trkpt><trkpt lat="50.51241952130201" lon="3.170617441136263"><ele>47.0</ele><time>2026-04-11T12:12:03Z</time></trkpt><trkpt lat="50.51232126485718" lon="3.1706493657721513"><ele>47.0</ele><time>2026-04-11T12:12:05Z</time></trkpt><trkpt lat="50.512229584398824" lon="3.170701095845995"><ele>47.0</ele><time>2026-04-11T12:12:07Z</time></trkpt><trkpt lat="50.51214016351736" lon="3.170772052559833"><ele>47.0</ele><time>2026-04-11T12:12:09Z</time></trkpt><trkpt lat="50.512052902749545" lon="3.1708426692994207"><ele>47.0</ele><time>2026-04-11T12:12:11Z</time></trkpt><trkpt lat="50.51196647282557" lon="3.1709473803621804"><ele>46.6</ele><time>2026-04-11T12:12:13Z</time></trkpt><trkpt lat="50.511884402285354" lon="3.1710422630337622"><ele>46.2</ele><time>2026-04-11T12:12:15Z</time></trkpt><trkpt lat="50.51181088682974" lon="3.171143906491626"><ele>45.8</ele><time>2026-04-11T12:12:17Z</time></trkpt><trkpt lat="50.511731328811955" lon="3.1712512630013747"><ele>45.4</ele><time>2026-04-11T12:12:19Z</time></trkpt><trkpt lat="50.51163769699557" lon="3.171314077936112"><ele>45.0</ele><time>2026-04-11T12:12:21Z</time></trkpt><trkpt lat="50.51155595667924" lon="3.171418483332555"><ele>45.0</ele><time>2026-04-11T12:12:23Z</time></trkpt><trkpt lat="50.511507640611654" lon="3.1714849887276184"><ele>45.0</ele><time>2026-04-11T12:12:24Z</time></trkpt><trkpt lat="50.51142923372396" lon="3.171567662823881"><ele>45.0</ele><time>2026-04-11T12:12:26Z</time></trkpt><trkpt lat="50.51134656422377" lon="3.1716544420397788"><ele>45.0</ele><time>2026-04-11T12:12:28Z</time></trkpt><trkpt lat="50.51126427181125" lon="3.1717091358380225"><ele>45.0</ele><time>2026-04-11T12:12:30Z</time></trkpt><trkpt lat="50.51116864210498" lon="3.1717309962895723"><ele>45.0</ele><time>2026-04-11T12:12:32Z</time></trkpt><trkpt lat="50.511069525140805" lon="3.171728099500657"><ele>44.8</ele><time>2026-04-11T12:12:34Z</time></trkpt><trkpt lat="50.51098096167791" lon="3.1717066071185274"><ele>44.6</ele><time>2026-04-11T12:12:36Z</time></trkpt><trkpt lat="50.51089765101566" lon="3.171718696904703"><ele>44.400000000000006</ele><time>2026-04-11T12:12:38Z</time></trkpt><trkpt lat="50.51079289021111" lon="3.171716669598194"><ele>44.2</ele><time>2026-04-11T12:12:40Z</time></trkpt><trkpt lat="50.510690771314145" lon="3.1717258018200694"><ele>44.0</ele><time>2026-04-11T12:12:42Z</time></trkpt><trkpt lat="50.51058626367328" lon="3.1717372260557286"><ele>44.0</ele><time>2026-04-11T12:12:44Z</time></trkpt><trkpt lat="50.51047626868952" lon="3.1717240413838734"><ele>44.0</ele><time>2026-04-11T12:12:46Z</time></trkpt><trkpt lat="50.510372697993255" lon="3.17169286819915"><ele>44.0</ele><time>2026-04-11T12:12:48Z</time></trkpt><trkpt lat="50.5102735069908" lon="3.171666047892006"><ele>44.0</ele><time>2026-04-11T12:12:50Z</time></trkpt><trkpt lat="50.510167616558746" lon="3.1716364480776535"><ele>44.0</ele><time>2026-04-11T12:12:52Z</time></trkpt><trkpt lat="50.510070586751205" lon="3.171597140851913"><ele>44.0</ele><time>2026-04-11T12:12:54Z</time></trkpt><trkpt lat="50.509977285051136" lon="3.1715722070892123"><ele>44.0</ele><time>2026-04-11T12:12:56Z</time></trkpt><trkpt lat="50.50987776583872" lon="3.1715434341558493"><ele>44.0</ele><time>2026-04-11T12:12:58Z</time></trkpt><trkpt lat="50.50978823822383" lon="3.1715132156691785"><ele>44.0</ele><time>2026-04-11T12:13:00Z</time></trkpt><trkpt lat="50.50969043777733" lon="3.171512520682771"><ele>44.0</ele><time>2026-04-11T12:13:02Z</time></trkpt><trkpt lat="50.50960621864386" lon="3.171477244940701"><ele>44.0</ele><time>2026-04-11T12:13:03.999Z</time></trkpt><trkpt lat="50.509527951109284" lon="3.171437337138734"><ele>44.0</ele><time>2026-04-11T12:13:05.999Z</time></trkpt><trkpt lat="50.509452382200905" lon="3.1714109436691125"><ele>44.0</ele><time>2026-04-11T12:13:07.999Z</time></trkpt><trkpt lat="50.50936684619158" lon="3.1714016241226477"><ele>44.0</ele><time>2026-04-11T12:13:09.999Z</time></trkpt><trkpt lat="50.509275541793485" lon="3.171373416108659"><ele>44.0</ele><time>2026-04-11T12:13:11.999Z</time></trkpt><trkpt lat="50.50917676254657" lon="3.1713464513675347"><ele>44.0</ele><time>2026-04-11T12:13:13.999Z</time></trkpt><trkpt lat="50.509079414187575" lon="3.171311362170264"><ele>44.0</ele><time>2026-04-11T12:13:16Z</time></trkpt><trkpt lat="50.50898090058612" lon="3.171270711760158"><ele>44.0</ele><time>2026-04-11T12:13:18Z</time></trkpt><trkpt lat="50.50888611048609" lon="3.17124226995897"><ele>44.0</ele><time>2026-04-11T12:13:20Z</time></trkpt><trkpt lat="50.50877908782508" lon="3.171210927361724"><ele>44.0</ele><time>2026-04-11T12:13:22Z</time></trkpt><trkpt lat="50.508679841229736" lon="3.171171103146335"><ele>44.0</ele><time>2026-04-11T12:13:24Z</time></trkpt><trkpt lat="50.50857426965443" lon="3.1711686448709324"><ele>43.6</ele><time>2026-04-11T12:13:26Z</time></trkpt><trkpt lat="50.508467284655424" lon="3.1711782900212775"><ele>43.2</ele><time>2026-04-11T12:13:28Z</time></trkpt><trkpt lat="50.50837037604901" lon="3.1711548890711017"><ele>42.800000000000004</ele><time>2026-04-11T12:13:30Z</time></trkpt><trkpt lat="50.50827443317387" lon="3.1711121396727173"><ele>42.400000000000006</ele><time>2026-04-11T12:13:32Z</time></trkpt><trkpt lat="50.50816321265521" lon="3.1710941982162804"><ele>42.0</ele><time>2026-04-11T12:13:34Z</time></trkpt><trkpt lat="50.50805256719276" lon="3.171137009837703"><ele>42.0</ele><time>2026-04-11T12:13:36Z</time></trkpt><trkpt lat="50.50795140381163" lon="3.1712103327238834"><ele>42.0</ele><time>2026-04-11T12:13:38Z</time></trkpt><trkpt lat="50.50784020542094" lon="3.1712862356857414"><ele>42.0</ele><time>2026-04-11T12:13:40Z</time></trkpt><trkpt lat="50.507734004747974" lon="3.1713502249253693"><ele>42.0</ele><time>2026-04-11T12:13:42Z</time></trkpt><trkpt lat="50.50762504439928" lon="3.171420072774155"><ele>41.8</ele><time>2026-04-11T12:13:44Z</time></trkpt><trkpt lat="50.50752156496175" lon="3.1714930284491265"><ele>41.6</ele><time>2026-04-11T12:13:46Z</time></trkpt><trkpt lat="50.50741822621574" lon="3.1715614260254377"><ele>41.4</ele><time>2026-04-11T12:13:48Z</time></trkpt><trkpt lat="50.507317463788915" lon="3.1716271301684666"><ele>41.199999999999996</ele><time>2026-04-11T12:13:50Z</time></trkpt><trkpt lat="50.507219880562005" lon="3.1716910814122303"><ele>41.0</ele><time>2026-04-11T12:13:52Z</time></trkpt><trkpt lat="50.507124509313755" lon="3.171760043662523"><ele>41.199999999999996</ele><time>2026-04-11T12:13:54Z</time></trkpt><trkpt lat="50.507032158361355" lon="3.171829424835285"><ele>41.4</ele><time>2026-04-11T12:13:56Z</time></trkpt><trkpt lat="50.506949342920954" lon="3.1719339174287424"><ele>41.6</ele><time>2026-04-11T12:13:58Z</time></trkpt><trkpt lat="50.50687666689051" lon="3.172047341656315"><ele>41.8</ele><time>2026-04-11T12:14:00Z</time></trkpt><trkpt lat="50.50680065815109" lon="3.1721587237698925"><ele>42.0</ele><time>2026-04-11T12:14:02Z</time></trkpt><trkpt lat="50.50670865049981" lon="3.172216618721038"><ele>42.0</ele><time>2026-04-11T12:14:04Z</time></trkpt><trkpt lat="50.50663836389985" lon="3.1723210048229986"><ele>42.0</ele><time>2026-04-11T12:14:06Z</time></trkpt><trkpt lat="50.50656967647137" lon="3.172431415464776"><ele>42.0</ele><time>2026-04-11T12:14:08Z</time></trkpt><trkpt lat="50.506501008439166" lon="3.1725406737813824"><ele>42.0</ele><time>2026-04-11T12:14:10Z</time></trkpt><trkpt lat="50.5064250963579" lon="3.1726374511307904"><ele>42.0</ele><time>2026-04-11T12:14:12Z</time></trkpt><trkpt lat="50.50634230412132" lon="3.172714261162918"><ele>42.0</ele><time>2026-04-11T12:14:14Z</time></trkpt><trkpt lat="50.50626039634534" lon="3.1728010273911034"><ele>42.0</ele><time>2026-04-11T12:14:16Z</time></trkpt><trkpt lat="50.506166720308464" lon="3.172846097287664"><ele>42.0</ele><time>2026-04-11T12:14:18Z</time></trkpt><trkpt lat="50.50607582742528" lon="3.1729011487989993"><ele>42.0</ele><time>2026-04-11T12:14:20Z</time></trkpt><trkpt lat="50.505977847350465" lon="3.1729674225761575"><ele>42.0</ele><time>2026-04-11T12:14:22Z</time></trkpt><trkpt lat="50.5058830295545" lon="3.173027534607814"><ele>42.2</ele><time>2026-04-11T12:14:24Z</time></trkpt><trkpt lat="50.50579225924222" lon="3.1730968907716726"><ele>42.400000000000006</ele><time>2026-04-11T12:14:26Z</time></trkpt><trkpt lat="50.50570378786234" lon="3.1731731506699163"><ele>42.599999999999994</ele><time>2026-04-11T12:14:28Z</time></trkpt><trkpt lat="50.50562270467174" lon="3.173278160142749"><ele>42.8</ele><time>2026-04-11T12:14:30Z</time></trkpt><trkpt lat="50.505551364816284" lon="3.173395346695931"><ele>43.0</ele><time>2026-04-11T12:14:32Z</time></trkpt><trkpt lat="50.505508240190785" lon="3.1735509316956394"><ele>43.0</ele><time>2026-04-11T12:14:34Z</time></trkpt><trkpt lat="50.50549757474133" lon="3.1737289781860514"><ele>43.0</ele><time>2026-04-11T12:14:36Z</time></trkpt><trkpt lat="50.505490787396354" lon="3.173902967732073"><ele>43.0</ele><time>2026-04-11T12:14:38Z</time></trkpt><trkpt lat="50.50548848969325" lon="3.174087163408682"><ele>43.0</ele><time>2026-04-11T12:14:40Z</time></trkpt><trkpt lat="50.50547501150927" lon="3.174266653818988"><ele>43.0</ele><time>2026-04-11T12:14:42Z</time></trkpt><trkpt lat="50.505447441146906" lon="3.174434629742757"><ele>43.0</ele><time>2026-04-11T12:14:44Z</time></trkpt><trkpt lat="50.50542305196761" lon="3.1746153594748474"><ele>43.0</ele><time>2026-04-11T12:14:46Z</time></trkpt><trkpt lat="50.505392479129554" lon="3.1747863290625373"><ele>43.0</ele><time>2026-04-11T12:14:48Z</time></trkpt><trkpt lat="50.505361642517364" lon="3.1749556749086425"><ele>43.2</ele><time>2026-04-11T12:14:50Z</time></trkpt><trkpt lat="50.50532384597534" lon="3.175124964181522"><ele>43.4</ele><time>2026-04-11T12:14:52Z</time></trkpt><trkpt lat="50.50528736470219" lon="3.175295034677632"><ele>43.6</ele><time>2026-04-11T12:14:54Z</time></trkpt><trkpt lat="50.50525678726653" lon="3.175452343284857"><ele>43.800000000000004</ele><time>2026-04-11T12:14:55.999Z</time></trkpt><trkpt lat="50.50523097072397" lon="3.175629574408353"><ele>44.0</ele><time>2026-04-11T12:14:57.999Z</time></trkpt><trkpt lat="50.50518809740788" lon="3.175787615118228"><ele>44.0</ele><time>2026-04-11T12:14:59.999Z</time></trkpt><trkpt lat="50.50514397875143" lon="3.175944798994231"><ele>44.0</ele><time>2026-04-11T12:15:01.999Z</time></trkpt><trkpt lat="50.50509090132173" lon="3.1760928659240433"><ele>44.0</ele><time>2026-04-11T12:15:03.999Z</time></trkpt><trkpt lat="50.50501834938192" lon="3.1762188571687173"><ele>44.0</ele><time>2026-04-11T12:15:05.999Z</time></trkpt><trkpt lat="50.50493483384034" lon="3.176322180113007"><ele>44.0</ele><time>2026-04-11T12:15:07.999Z</time></trkpt><trkpt lat="50.50485813549263" lon="3.1764394755844565"><ele>43.800000000000004</ele><time>2026-04-11T12:15:09.999Z</time></trkpt><trkpt lat="50.50477821531865" lon="3.1765523850595856"><ele>43.6</ele><time>2026-04-11T12:15:11.999Z</time></trkpt><trkpt lat="50.504696266804714" lon="3.176660639312512"><ele>43.4</ele><time>2026-04-11T12:15:13.999Z</time></trkpt><trkpt lat="50.504614154149934" lon="3.1767665255361948"><ele>43.2</ele><time>2026-04-11T12:15:15.999Z</time></trkpt><trkpt lat="50.50453087930472" lon="3.176873700392734"><ele>43.0</ele><time>2026-04-11T12:15:17.999Z</time></trkpt><trkpt lat="50.50444821191727" lon="3.1769695797821336"><ele>43.4</ele><time>2026-04-11T12:15:19.999Z</time></trkpt><trkpt lat="50.504363056059596" lon="3.177077541012722"><ele>43.8</ele><time>2026-04-11T12:15:22Z</time></trkpt><trkpt lat="50.50427691255736" lon="3.1771820567518376"><ele>44.2</ele><time>2026-04-11T12:15:24Z</time></trkpt><trkpt lat="50.50419370738844" lon="3.1772814375071503"><ele>44.6</ele><time>2026-04-11T12:15:26Z</time></trkpt><trkpt lat="50.50411194095653" lon="3.1773954067779426"><ele>45.0</ele><time>2026-04-11T12:15:28Z</time></trkpt><trkpt lat="50.504027173128144" lon="3.1775029746743964"><ele>45.0</ele><time>2026-04-11T12:15:30Z</time></trkpt><trkpt lat="50.50394031427499" lon="3.177599108891489"><ele>45.0</ele><time>2026-04-11T12:15:32Z</time></trkpt><trkpt lat="50.50384307737899" lon="3.177670831846257"><ele>45.0</ele><time>2026-04-11T12:15:34Z</time></trkpt><trkpt lat="50.50374069185696" lon="3.1777152861803586"><ele>45.0</ele><time>2026-04-11T12:15:36Z</time></trkpt><trkpt lat="50.50364173079944" lon="3.177753705507712"><ele>45.0</ele><time>2026-04-11T12:15:38Z</time></trkpt><trkpt lat="50.503546866584315" lon="3.1777851529298458"><ele>45.0</ele><time>2026-04-11T12:15:40Z</time></trkpt><trkpt lat="50.50345551795593" lon="3.1778216108889814"><ele>45.0</ele><time>2026-04-11T12:15:42Z</time></trkpt><trkpt lat="50.50336863575742" lon="3.177844459981555"><ele>45.0</ele><time>2026-04-11T12:15:44Z</time></trkpt><trkpt lat="50.50329320058968" lon="3.1778359307042088"><ele>45.0</ele><time>2026-04-11T12:15:46Z</time></trkpt><trkpt lat="50.50325070584539" lon="3.1777621933993623"><ele>45.0</ele><time>2026-04-11T12:15:48Z</time></trkpt><trkpt lat="50.50321738405952" lon="3.177640364503612"><ele>45.0</ele><time>2026-04-11T12:15:51Z</time></trkpt><trkpt lat="50.5031581032576" lon="3.177596975370617"><ele>45.0</ele><time>2026-04-11T12:15:53Z</time></trkpt><trkpt lat="50.50307787745559" lon="3.1776691030851376"><ele>45.0</ele><time>2026-04-11T12:15:55Z</time></trkpt><trkpt lat="50.50300237571057" lon="3.1777679419267284"><ele>45.0</ele><time>2026-04-11T12:15:57Z</time></trkpt><trkpt lat="50.50295365644478" lon="3.177909798883509"><ele>45.0</ele><time>2026-04-11T12:15:59Z</time></trkpt><trkpt lat="50.50288722548684" lon="3.178042195863034"><ele>45.0</ele><time>2026-04-11T12:16:01Z</time></trkpt><trkpt lat="50.5028248524271" lon="3.178174446794998"><ele>45.4</ele><time>2026-04-11T12:16:03Z</time></trkpt><trkpt lat="50.50276166883318" lon="3.1783074695335984"><ele>45.8</ele><time>2026-04-11T12:16:05Z</time></trkpt><trkpt lat="50.50269752380527" lon="3.1784403254240092"><ele>46.2</ele><time>2026-04-11T12:16:07Z</time></trkpt><trkpt lat="50.50263776984287" lon="3.178573386500388"><ele>46.6</ele><time>2026-04-11T12:16:09Z</time></trkpt><trkpt lat="50.50257339056176" lon="3.1787047740736467"><ele>47.0</ele><time>2026-04-11T12:16:11Z</time></trkpt><trkpt lat="50.502508980157366" lon="3.178839768568188"><ele>47.0</ele><time>2026-04-11T12:16:13Z</time></trkpt><trkpt lat="50.50244655683527" lon="3.1789666804888643"><ele>47.0</ele><time>2026-04-11T12:16:15Z</time></trkpt><trkpt lat="50.502382171514135" lon="3.1791051052839046"><ele>47.0</ele><time>2026-04-11T12:16:17Z</time></trkpt><trkpt lat="50.502317086102195" lon="3.1792414505314937"><ele>47.0</ele><time>2026-04-11T12:16:19Z</time></trkpt><trkpt lat="50.50225181558484" lon="3.1793767663060812"><ele>47.0</ele><time>2026-04-11T12:16:21Z</time></trkpt><trkpt lat="50.50219589983025" lon="3.179504548459317"><ele>47.0</ele><time>2026-04-11T12:16:23Z</time></trkpt><trkpt lat="50.50213528397733" lon="3.179624158318019"><ele>47.0</ele><time>2026-04-11T12:16:25Z</time></trkpt><trkpt lat="50.502075523892955" lon="3.1797482970453674"><ele>47.0</ele><time>2026-04-11T12:16:27Z</time></trkpt><trkpt lat="50.50201779133631" lon="3.1798694754378336"><ele>47.0</ele><time>2026-04-11T12:16:29Z</time></trkpt><trkpt lat="50.501960265273745" lon="3.179988529385709"><ele>47.0</ele><time>2026-04-11T12:16:31Z</time></trkpt><trkpt lat="50.501902568408994" lon="3.1801096490790095"><ele>46.8</ele><time>2026-04-11T12:16:33Z</time></trkpt><trkpt lat="50.50184782694702" lon="3.1802287812659533"><ele>46.6</ele><time>2026-04-11T12:16:35Z</time></trkpt><trkpt lat="50.50178976920616" lon="3.1803416386656664"><ele>46.4</ele><time>2026-04-11T12:16:37Z</time></trkpt><trkpt lat="50.50173414722756" lon="3.1804527241266562"><ele>46.199999999999996</ele><time>2026-04-11T12:16:39Z</time></trkpt><trkpt lat="50.50168324749772" lon="3.180572821214206"><ele>46.0</ele><time>2026-04-11T12:16:41Z</time></trkpt><trkpt lat="50.50162546870778" lon="3.1806857457099196"><ele>46.0</ele><time>2026-04-11T12:16:43Z</time></trkpt><trkpt lat="50.50156909743588" lon="3.1808037460844965"><ele>46.0</ele><time>2026-04-11T12:16:45Z</time></trkpt><trkpt lat="50.50151617921668" lon="3.180917369120274"><ele>46.0</ele><time>2026-04-11T12:16:47Z</time></trkpt><trkpt lat="50.50145763880566" lon="3.1810386164091127"><ele>46.0</ele><time>2026-04-11T12:16:49Z</time></trkpt><trkpt lat="50.50140004968675" lon="3.1811608402042157"><ele>46.0</ele><time>2026-04-11T12:16:51Z</time></trkpt><trkpt lat="50.50134204356295" lon="3.1812832096741004"><ele>46.0</ele><time>2026-04-11T12:16:53Z</time></trkpt><trkpt lat="50.501278755067865" lon="3.18140801187952"><ele>46.0</ele><time>2026-04-11T12:16:55Z</time></trkpt><trkpt lat="50.50122146733139" lon="3.181533079221452"><ele>46.0</ele><time>2026-04-11T12:16:57Z</time></trkpt><trkpt lat="50.50116045829126" lon="3.1816570737459333"><ele>46.0</ele><time>2026-04-11T12:16:59Z</time></trkpt><trkpt lat="50.50110071175967" lon="3.181777464481636"><ele>46.0</ele><time>2026-04-11T12:17:01Z</time></trkpt><trkpt lat="50.50104399916873" lon="3.1819074012685538"><ele>46.199999999999996</ele><time>2026-04-11T12:17:03Z</time></trkpt><trkpt lat="50.5009821199046" lon="3.182025733539336"><ele>46.4</ele><time>2026-04-11T12:17:05Z</time></trkpt><trkpt lat="50.50092013828551" lon="3.1821533088769627"><ele>46.6</ele><time>2026-04-11T12:17:07Z</time></trkpt><trkpt lat="50.50085887890587" lon="3.1822792596096696"><ele>46.8</ele><time>2026-04-11T12:17:09Z</time></trkpt><trkpt lat="50.500796700624306" lon="3.1824011523508964"><ele>47.0</ele><time>2026-04-11T12:17:11Z</time></trkpt><trkpt lat="50.50074018577856" lon="3.182527505297512"><ele>47.400000000000006</ele><time>2026-04-11T12:17:12.999Z</time></trkpt><trkpt lat="50.500678364685655" lon="3.1826564923072755"><ele>47.800000000000004</ele><time>2026-04-11T12:17:14.999Z</time></trkpt><trkpt lat="50.50062056786413" lon="3.1827761090621944"><ele>48.2</ele><time>2026-04-11T12:17:16.999Z</time></trkpt><trkpt lat="50.50056311610147" lon="3.182895608099748"><ele>48.6</ele><time>2026-04-11T12:17:18.999Z</time></trkpt><trkpt lat="50.500505490522926" lon="3.1830161735032063"><ele>49.0</ele><time>2026-04-11T12:17:20.999Z</time></trkpt><trkpt lat="50.500446935843144" lon="3.1831354127899987"><ele>48.800000000000004</ele><time>2026-04-11T12:17:22.999Z</time></trkpt><trkpt lat="50.50038782594226" lon="3.1832560255943347"><ele>48.6</ele><time>2026-04-11T12:17:24.999Z</time></trkpt><trkpt lat="50.50032995476636" lon="3.1833787414044408"><ele>48.4</ele><time>2026-04-11T12:17:26.999Z</time></trkpt><trkpt lat="50.50027086117904" lon="3.1835043138671213"><ele>48.2</ele><time>2026-04-11T12:17:29Z</time></trkpt><trkpt lat="50.50021234383648" lon="3.1836306294993437"><ele>48.0</ele><time>2026-04-11T12:17:31Z</time></trkpt><trkpt lat="50.50015226670478" lon="3.1837556797406665"><ele>48.0</ele><time>2026-04-11T12:17:33Z</time></trkpt><trkpt lat="50.5000913584992" lon="3.1838789825387375"><ele>48.0</ele><time>2026-04-11T12:17:35Z</time></trkpt><trkpt lat="50.50003318928515" lon="3.1839994395656634"><ele>48.0</ele><time>2026-04-11T12:17:37Z</time></trkpt><trkpt lat="50.499974535773354" lon="3.184121300141672"><ele>48.0</ele><time>2026-04-11T12:17:39Z</time></trkpt><trkpt lat="50.49991626554117" lon="3.184249149281443"><ele>48.0</ele><time>2026-04-11T12:17:41Z</time></trkpt><trkpt lat="50.49985645514938" lon="3.1843716199767647"><ele>48.2</ele><time>2026-04-11T12:17:43Z</time></trkpt><trkpt lat="50.499795850081625" lon="3.18449494614744"><ele>48.4</ele><time>2026-04-11T12:17:45Z</time></trkpt><trkpt lat="50.49973721831271" lon="3.184617915530506"><ele>48.6</ele><time>2026-04-11T12:17:47Z</time></trkpt><trkpt lat="50.49967687089945" lon="3.1847401400728725"><ele>48.800000000000004</ele><time>2026-04-11T12:17:49Z</time></trkpt><trkpt lat="50.49961946962848" lon="3.184866083039637"><ele>49.0</ele><time>2026-04-11T12:17:51Z</time></trkpt><trkpt lat="50.499560627908764" lon="3.184983108318244"><ele>49.2</ele><time>2026-04-11T12:17:53Z</time></trkpt><trkpt lat="50.49950414488471" lon="3.1851043343983347"><ele>49.400000000000006</ele><time>2026-04-11T12:17:55Z</time></trkpt><trkpt lat="50.49944849879672" lon="3.1852281270261775"><ele>49.6</ele><time>2026-04-11T12:17:57Z</time></trkpt><trkpt lat="50.49939175692445" lon="3.185352917561438"><ele>49.8</ele><time>2026-04-11T12:17:59Z</time></trkpt><trkpt lat="50.499331284515605" lon="3.1854677188285727"><ele>50.0</ele><time>2026-04-11T12:18:01Z</time></trkpt><trkpt lat="50.49927308436681" lon="3.185587591402406"><ele>50.0</ele><time>2026-04-11T12:18:03Z</time></trkpt><trkpt lat="50.499216562314025" lon="3.1857082351761874"><ele>50.0</ele><time>2026-04-11T12:18:05Z</time></trkpt><trkpt lat="50.499155900501016" lon="3.185825974408139"><ele>50.0</ele><time>2026-04-11T12:18:07Z</time></trkpt><trkpt lat="50.499097832848264" lon="3.185946253443381"><ele>50.0</ele><time>2026-04-11T12:18:09Z</time></trkpt><trkpt lat="50.49903846060079" lon="3.1860706459209114"><ele>50.0</ele><time>2026-04-11T12:18:11Z</time></trkpt><trkpt lat="50.49898046548972" lon="3.186200843325564"><ele>50.0</ele><time>2026-04-11T12:18:13Z</time></trkpt><trkpt lat="50.49891924433111" lon="3.1863179634015095"><ele>50.0</ele><time>2026-04-11T12:18:15Z</time></trkpt><trkpt lat="50.49885798363622" lon="3.1864481756192147"><ele>50.0</ele><time>2026-04-11T12:18:17Z</time></trkpt><trkpt lat="50.49880276887288" lon="3.186570695941946"><ele>50.0</ele><time>2026-04-11T12:18:19Z</time></trkpt><trkpt lat="50.49874142195304" lon="3.1866965111998646"><ele>50.0</ele><time>2026-04-11T12:18:21Z</time></trkpt><trkpt lat="50.49868114707379" lon="3.186819170898884"><ele>50.2</ele><time>2026-04-11T12:18:23Z</time></trkpt><trkpt lat="50.49862428391946" lon="3.186940875105726"><ele>50.4</ele><time>2026-04-11T12:18:25Z</time></trkpt><trkpt lat="50.498564421325305" lon="3.1870653742100195"><ele>50.599999999999994</ele><time>2026-04-11T12:18:27Z</time></trkpt><trkpt lat="50.49850776766056" lon="3.187187700520938"><ele>50.8</ele><time>2026-04-11T12:18:29Z</time></trkpt><trkpt lat="50.498448053199525" lon="3.187308769985999"><ele>51.0</ele><time>2026-04-11T12:18:31Z</time></trkpt><trkpt lat="50.49838941091785" lon="3.1874320932847144"><ele>51.0</ele><time>2026-04-11T12:18:33Z</time></trkpt><trkpt lat="50.49832691072464" lon="3.1875540340445854"><ele>51.0</ele><time>2026-04-11T12:18:35Z</time></trkpt><trkpt lat="50.498268612569845" lon="3.187682295269168"><ele>51.0</ele><time>2026-04-11T12:18:37Z</time></trkpt><trkpt lat="50.49820498748899" lon="3.1878138236165716"><ele>51.0</ele><time>2026-04-11T12:18:39Z</time></trkpt><trkpt lat="50.498141309261165" lon="3.187949216734172"><ele>51.0</ele><time>2026-04-11T12:18:41Z</time></trkpt><trkpt lat="50.49807325455787" lon="3.188082439769412"><ele>50.8</ele><time>2026-04-11T12:18:43Z</time></trkpt><trkpt lat="50.498003867118484" lon="3.1882226393714177"><ele>50.599999999999994</ele><time>2026-04-11T12:18:45Z</time></trkpt><trkpt lat="50.497935542220425" lon="3.188357323385585"><ele>50.4</ele><time>2026-04-11T12:18:47Z</time></trkpt><trkpt lat="50.49786167425759" lon="3.188493316686049"><ele>50.2</ele><time>2026-04-11T12:18:49Z</time></trkpt><trkpt lat="50.49779214163036" lon="3.188628609107809"><ele>50.0</ele><time>2026-04-11T12:18:51Z</time></trkpt><trkpt lat="50.497720007216806" lon="3.188765106523896"><ele>50.0</ele><time>2026-04-11T12:18:53Z</time></trkpt><trkpt lat="50.497649458030274" lon="3.1889015550744966"><ele>50.0</ele><time>2026-04-11T12:18:55Z</time></trkpt><trkpt lat="50.49758027753195" lon="3.1890314698084503"><ele>50.0</ele><time>2026-04-11T12:18:57Z</time></trkpt><trkpt lat="50.49751116102084" lon="3.189160709465779"><ele>50.0</ele><time>2026-04-11T12:18:59Z</time></trkpt><trkpt lat="50.49743857194444" lon="3.1892898258524527"><ele>50.0</ele><time>2026-04-11T12:19:01Z</time></trkpt><trkpt lat="50.49736229498299" lon="3.1894163735297965"><ele>50.4</ele><time>2026-04-11T12:19:03Z</time></trkpt><trkpt lat="50.49728860891253" lon="3.1895410318527637"><ele>50.8</ele><time>2026-04-11T12:19:05Z</time></trkpt><trkpt lat="50.497215373415685" lon="3.189655330448394"><ele>51.2</ele><time>2026-04-11T12:19:07Z</time></trkpt><trkpt lat="50.497142961159014" lon="3.18978089938731"><ele>51.6</ele><time>2026-04-11T12:19:09Z</time></trkpt><trkpt lat="50.49706739540719" lon="3.189872314876223"><ele>52.0</ele><time>2026-04-11T12:19:11Z</time></trkpt><trkpt lat="50.49698881997868" lon="3.1899778136608394"><ele>52.0</ele><time>2026-04-11T12:19:13Z</time></trkpt><trkpt lat="50.496922570006845" lon="3.1901085479526023"><ele>52.0</ele><time>2026-04-11T12:19:15Z</time></trkpt><trkpt lat="50.4968503576396" lon="3.190239714133742"><ele>52.0</ele><time>2026-04-11T12:19:17Z</time></trkpt><trkpt lat="50.496773629210374" lon="3.1903583329933425"><ele>52.0</ele><time>2026-04-11T12:19:19Z</time></trkpt><trkpt lat="50.49669488925148" lon="3.1904677645664683"><ele>52.0</ele><time>2026-04-11T12:19:21Z</time></trkpt><trkpt lat="50.49661827083111" lon="3.1905851304597737"><ele>52.0</ele><time>2026-04-11T12:19:22.999Z</time></trkpt><trkpt lat="50.4965391660395" lon="3.1906934045151214"><ele>52.0</ele><time>2026-04-11T12:19:24.999Z</time></trkpt><trkpt lat="50.49645962060121" lon="3.190813748803901"><ele>52.0</ele><time>2026-04-11T12:19:26.999Z</time></trkpt><trkpt lat="50.49636705178332" lon="3.1909245674932722"><ele>52.0</ele><time>2026-04-11T12:19:28.999Z</time></trkpt><trkpt lat="50.496283031905634" lon="3.1909982596301782"><ele>52.0</ele><time>2026-04-11T12:19:30.999Z</time></trkpt><trkpt lat="50.49620227857336" lon="3.19112554903879"><ele>52.0</ele><time>2026-04-11T12:19:32.999Z</time></trkpt><trkpt lat="50.49612666369959" lon="3.1912542843669467"><ele>52.0</ele><time>2026-04-11T12:19:35Z</time></trkpt><trkpt lat="50.4960321907149" lon="3.1913489748305492"><ele>52.0</ele><time>2026-04-11T12:19:37Z</time></trkpt><trkpt lat="50.49594207099566" lon="3.1914539987847155"><ele>52.0</ele><time>2026-04-11T12:19:39Z</time></trkpt><trkpt lat="50.49585089473063" lon="3.1915555305088605"><ele>52.0</ele><time>2026-04-11T12:19:41Z</time></trkpt><trkpt lat="50.49575937502871" lon="3.191655256844767"><ele>52.0</ele><time>2026-04-11T12:19:43Z</time></trkpt><trkpt lat="50.49566502745266" lon="3.191754373236313"><ele>52.0</ele><time>2026-04-11T12:19:45Z</time></trkpt><trkpt lat="50.49556048293333" lon="3.1918613599296597"><ele>52.0</ele><time>2026-04-11T12:19:47Z</time></trkpt><trkpt lat="50.495479420363004" lon="3.1919421370745154"><ele>52.0</ele><time>2026-04-11T12:19:49Z</time></trkpt><trkpt lat="50.49538636863315" lon="3.192031621399428"><ele>52.0</ele><time>2026-04-11T12:19:51Z</time></trkpt><trkpt lat="50.49529480296856" lon="3.1921236676653963"><ele>51.8</ele><time>2026-04-11T12:19:53Z</time></trkpt><trkpt lat="50.495201322232454" lon="3.192221054615775"><ele>51.6</ele><time>2026-04-11T12:19:55Z</time></trkpt><trkpt lat="50.49510982308166" lon="3.1923137535938784"><ele>51.4</ele><time>2026-04-11T12:19:57Z</time></trkpt><trkpt lat="50.495018172212774" lon="3.192407353786542"><ele>51.199999999999996</ele><time>2026-04-11T12:19:59Z</time></trkpt><trkpt lat="50.49492610224634" lon="3.192497442978603"><ele>51.0</ele><time>2026-04-11T12:20:01Z</time></trkpt><trkpt lat="50.49483243737264" lon="3.1925902657572904"><ele>51.0</ele><time>2026-04-11T12:20:03Z</time></trkpt><trkpt lat="50.49473796993088" lon="3.1926847164048167"><ele>51.0</ele><time>2026-04-11T12:20:05Z</time></trkpt><trkpt lat="50.49464574516153" lon="3.192781467652589"><ele>51.0</ele><time>2026-04-11T12:20:07Z</time></trkpt><trkpt lat="50.49455228391229" lon="3.192874771454677"><ele>51.0</ele><time>2026-04-11T12:20:09Z</time></trkpt><trkpt lat="50.49445833170827" lon="3.1929663627796927"><ele>51.0</ele><time>2026-04-11T12:20:11Z</time></trkpt><trkpt lat="50.494366543066775" lon="3.19306193367231"><ele>51.0</ele><time>2026-04-11T12:20:13Z</time></trkpt><trkpt lat="50.49427286202907" lon="3.193157791561713"><ele>51.0</ele><time>2026-04-11T12:20:15Z</time></trkpt><trkpt lat="50.494179160291466" lon="3.193256846086605"><ele>51.0</ele><time>2026-04-11T12:20:17Z</time></trkpt><trkpt lat="50.49408378343655" lon="3.1933501009318697"><ele>51.0</ele><time>2026-04-11T12:20:19Z</time></trkpt><trkpt lat="50.4939906367764" lon="3.193444094901753"><ele>51.0</ele><time>2026-04-11T12:20:21Z</time></trkpt><trkpt lat="50.49389630462606" lon="3.1935393810096038"><ele>51.0</ele><time>2026-04-11T12:20:23Z</time></trkpt><trkpt lat="50.49380078067855" lon="3.193638928116111"><ele>51.0</ele><time>2026-04-11T12:20:25Z</time></trkpt><trkpt lat="50.49370706727488" lon="3.1937315018466164"><ele>51.0</ele><time>2026-04-11T12:20:27Z</time></trkpt><trkpt lat="50.493613366760464" lon="3.193818159187062"><ele>51.0</ele><time>2026-04-11T12:20:29Z</time></trkpt><trkpt lat="50.49352142269039" lon="3.193910796716478"><ele>51.0</ele><time>2026-04-11T12:20:31Z</time></trkpt><trkpt lat="50.493425341449694" lon="3.194004790307829"><ele>50.599999999999994</ele><time>2026-04-11T12:20:33Z</time></trkpt><trkpt lat="50.493333114181794" lon="3.1941052266707195"><ele>50.2</ele><time>2026-04-11T12:20:35Z</time></trkpt><trkpt lat="50.493238804588835" lon="3.194193676611884"><ele>49.8</ele><time>2026-04-11T12:20:37Z</time></trkpt><trkpt lat="50.49314876129017" lon="3.1942868248449656"><ele>49.400000000000006</ele><time>2026-04-11T12:20:39Z</time></trkpt><trkpt lat="50.49305742020519" lon="3.1943813033904007"><ele>49.0</ele><time>2026-04-11T12:20:41Z</time></trkpt><trkpt lat="50.492964623447165" lon="3.1944815728698646"><ele>48.75</ele><time>2026-04-11T12:20:43Z</time></trkpt><trkpt lat="50.492869560191075" lon="3.194582338653213"><ele>48.5</ele><time>2026-04-11T12:20:45Z</time></trkpt><trkpt lat="50.492775465695736" lon="3.1946825377313623"><ele>48.25</ele><time>2026-04-11T12:20:47Z</time></trkpt><trkpt lat="50.492679600732906" lon="3.1947883739200633"><ele>48.0</ele><time>2026-04-11T12:20:49Z</time></trkpt><trkpt lat="50.49257755501071" lon="3.194892967519309"><ele>47.8</ele><time>2026-04-11T12:20:51Z</time></trkpt><trkpt lat="50.492479277210144" lon="3.1950020137593036"><ele>47.599999999999994</ele><time>2026-04-11T12:20:53Z</time></trkpt><trkpt lat="50.49237918977455" lon="3.1951205457113043"><ele>47.400000000000006</ele><time>2026-04-11T12:20:55Z</time></trkpt><trkpt lat="50.49227824713217" lon="3.1952224709331447"><ele>47.2</ele><time>2026-04-11T12:20:57Z</time></trkpt><trkpt lat="50.49222669682579" lon="3.195281297582295"><ele>47.0</ele><time>2026-04-11T12:20:58Z</time></trkpt><trkpt lat="50.49212798602543" lon="3.195396268661765"><ele>47.2</ele><time>2026-04-11T12:21:00Z</time></trkpt><trkpt lat="50.4920762745656" lon="3.1954540743151156"><ele>47.400000000000006</ele><time>2026-04-11T12:21:01Z</time></trkpt><trkpt lat="50.49197722870584" lon="3.1955504258711516"><ele>47.599999999999994</ele><time>2026-04-11T12:21:03Z</time></trkpt><trkpt lat="50.49188011877725" lon="3.1956592537506445"><ele>47.8</ele><time>2026-04-11T12:21:05Z</time></trkpt><trkpt lat="50.49178528345796" lon="3.1957625457078476"><ele>48.0</ele><time>2026-04-11T12:21:07Z</time></trkpt><trkpt lat="50.491734446662726" lon="3.1958228003442937"><ele>48.0</ele><time>2026-04-11T12:21:08Z</time></trkpt><trkpt lat="50.49164452859438" lon="3.1959305969009075"><ele>48.0</ele><time>2026-04-11T12:21:10Z</time></trkpt><trkpt lat="50.491544926216385" lon="3.1960451214980603"><ele>48.0</ele><time>2026-04-11T12:21:11.999Z</time></trkpt><trkpt lat="50.49144363680727" lon="3.196149115063863"><ele>48.0</ele><time>2026-04-11T12:21:13.999Z</time></trkpt><trkpt lat="50.4913424968623" lon="3.1962647791942835"><ele>47.599999999999994</ele><time>2026-04-11T12:21:15.999Z</time></trkpt><trkpt lat="50.49124139396474" lon="3.1963772003629884"><ele>47.199999999999996</ele><time>2026-04-11T12:21:17.999Z</time></trkpt><trkpt lat="50.49118952155961" lon="3.1964372228603275"><ele>46.8</ele><time>2026-04-11T12:21:18.999Z</time></trkpt><trkpt lat="50.4911337593964" lon="3.1964908434613166"><ele>46.4</ele><time>2026-04-11T12:21:19.999Z</time></trkpt><trkpt lat="50.49102948711486" lon="3.1966002005327674"><ele>46.0</ele><time>2026-04-11T12:21:21.999Z</time></trkpt><trkpt lat="50.490921992172105" lon="3.196705427615235"><ele>45.66666666666667</ele><time>2026-04-11T12:21:23.999Z</time></trkpt><trkpt lat="50.490819935212436" lon="3.196808842085738"><ele>45.333333333333336</ele><time>2026-04-11T12:21:25.999Z</time></trkpt><trkpt lat="50.49076578374634" lon="3.1968595134207782"><ele>45.0</ele><time>2026-04-11T12:21:26.999Z</time></trkpt><trkpt lat="50.49071339293318" lon="3.1969155183449525"><ele>44.666666666666664</ele><time>2026-04-11T12:21:27.999Z</time></trkpt><trkpt lat="50.49060604180874" lon="3.1970158021564155"><ele>44.33333333333333</ele><time>2026-04-11T12:21:29.999Z</time></trkpt><trkpt lat="50.49055273980899" lon="3.1970701911341424"><ele>44.0</ele><time>2026-04-11T12:21:30.999Z</time></trkpt><trkpt lat="50.49044716028576" lon="3.1971665416268773"><ele>43.85714285714286</ele><time>2026-04-11T12:21:32.999Z</time></trkpt><trkpt lat="50.490394150506155" lon="3.1972228553257547"><ele>43.714285714285715</ele><time>2026-04-11T12:21:33.999Z</time></trkpt><trkpt lat="50.49028844772409" lon="3.1973251591025935"><ele>43.57142857142857</ele><time>2026-04-11T12:21:35.999Z</time></trkpt><trkpt lat="50.49023295304816" lon="3.197382456216616"><ele>43.42857142857143</ele><time>2026-04-11T12:21:36.999Z</time></trkpt><trkpt lat="50.490179370538485" lon="3.1974346331862087"><ele>43.285714285714285</ele><time>2026-04-11T12:21:37.999Z</time></trkpt><trkpt lat="50.490121355084256" lon="3.197475454059267"><ele>43.142857142857146</ele><time>2026-04-11T12:21:38.999Z</time></trkpt><trkpt lat="50.490068918157604" lon="3.1975379928566805"><ele>43.0</ele><time>2026-04-11T12:21:40Z</time></trkpt><trkpt lat="50.49001464024762" lon="3.197599134381912"><ele>43.00000000000001</ele><time>2026-04-11T12:21:41Z</time></trkpt><trkpt lat="50.4899576939675" lon="3.1976522830059695"><ele>43.0</ele><time>2026-04-11T12:21:42Z</time></trkpt><trkpt lat="50.48989878646012" lon="3.1976901862787694"><ele>43.0</ele><time>2026-04-11T12:21:43Z</time></trkpt><trkpt lat="50.48984093251508" lon="3.1977500759865873"><ele>43.0</ele><time>2026-04-11T12:21:44Z</time></trkpt><trkpt lat="50.48978394239524" lon="3.1978071369457908"><ele>43.0</ele><time>2026-04-11T12:21:45Z</time></trkpt><trkpt lat="50.4897269774433" lon="3.1978606425290597"><ele>43.00000000000001</ele><time>2026-04-11T12:21:46Z</time></trkpt><trkpt lat="50.48966883212512" lon="3.197919190634664"><ele>43.0</ele><time>2026-04-11T12:21:47Z</time></trkpt><trkpt lat="50.48960763008726" lon="3.1979721513421153"><ele>42.85714285714286</ele><time>2026-04-11T12:21:48Z</time></trkpt><trkpt lat="50.48954809048594" lon="3.1980328349673406"><ele>42.714285714285715</ele><time>2026-04-11T12:21:49Z</time></trkpt><trkpt lat="50.489488245828724" lon="3.198095027458474"><ele>42.57142857142857</ele><time>2026-04-11T12:21:50Z</time></trkpt><trkpt lat="50.489428513340066" lon="3.1981497683572817"><ele>42.42857142857143</ele><time>2026-04-11T12:21:51Z</time></trkpt><trkpt lat="50.48936578737937" lon="3.1982099805911575"><ele>42.285714285714285</ele><time>2026-04-11T12:21:52Z</time></trkpt><trkpt lat="50.48930524067847" lon="3.198268781617939"><ele>42.142857142857146</ele><time>2026-04-11T12:21:53Z</time></trkpt><trkpt lat="50.489245526793496" lon="3.198323759276878"><ele>42.0</ele><time>2026-04-11T12:21:54Z</time></trkpt><trkpt lat="50.48918543722821" lon="3.1983827603121386"><ele>42.0</ele><time>2026-04-11T12:21:55Z</time></trkpt><trkpt lat="50.48912538090725" lon="3.198442012769028"><ele>42.0</ele><time>2026-04-11T12:21:56Z</time></trkpt><trkpt lat="50.48906352565241" lon="3.1984964056498484"><ele>42.0</ele><time>2026-04-11T12:21:57Z</time></trkpt><trkpt lat="50.48900332247976" lon="3.19855473148066"><ele>42.0</ele><time>2026-04-11T12:21:58Z</time></trkpt><trkpt lat="50.48894142575295" lon="3.1986165936449305"><ele>42.0</ele><time>2026-04-11T12:21:59Z</time></trkpt><trkpt lat="50.488883376528" lon="3.1986790009390837"><ele>42.0</ele><time>2026-04-11T12:22:00Z</time></trkpt><trkpt lat="50.48882474557577" lon="3.1987382502434425"><ele>42.0</ele><time>2026-04-11T12:22:01Z</time></trkpt><trkpt lat="50.48876705693925" lon="3.1987920836469024"><ele>41.833333333333336</ele><time>2026-04-11T12:22:02Z</time></trkpt><trkpt lat="50.488710004084155" lon="3.19884538127183"><ele>41.666666666666664</ele><time>2026-04-11T12:22:03Z</time></trkpt><trkpt lat="50.48865348465755" lon="3.1989029004407707"><ele>41.5</ele><time>2026-04-11T12:22:04Z</time></trkpt><trkpt lat="50.488598678384434" lon="3.1989642198261996"><ele>41.33333333333333</ele><time>2026-04-11T12:22:05Z</time></trkpt><trkpt lat="50.48854548768314" lon="3.1990239808999825"><ele>41.166666666666664</ele><time>2026-04-11T12:22:06Z</time></trkpt><trkpt lat="50.48844080206509" lon="3.1991388081038354"><ele>41.0</ele><time>2026-04-11T12:22:08Z</time></trkpt><trkpt lat="50.48838545551204" lon="3.1992033764382364"><ele>40.99999999999999</ele><time>2026-04-11T12:22:09Z</time></trkpt><trkpt lat="50.488333154799086" lon="3.199261113005383"><ele>41.0</ele><time>2026-04-11T12:22:10Z</time></trkpt><trkpt lat="50.488282143942996" lon="3.1993228383250427"><ele>41.0</ele><time>2026-04-11T12:22:11Z</time></trkpt><trkpt lat="50.48822798044804" lon="3.199380273245351"><ele>41.0</ele><time>2026-04-11T12:22:12Z</time></trkpt><trkpt lat="50.4881770443792" lon="3.19944544140167"><ele>41.0</ele><time>2026-04-11T12:22:13Z</time></trkpt><trkpt lat="50.48812447317051" lon="3.1995120295003976"><ele>40.99999999999999</ele><time>2026-04-11T12:22:14Z</time></trkpt><trkpt lat="50.488071790349785" lon="3.1995706655873213"><ele>41.0</ele><time>2026-04-11T12:22:15Z</time></trkpt><trkpt lat="50.4880191017958" lon="3.1996310136053085"><ele>40.99999999999999</ele><time>2026-04-11T12:22:16Z</time></trkpt><trkpt lat="50.4879666034008" lon="3.1997016831359284"><ele>41.0</ele><time>2026-04-11T12:22:17Z</time></trkpt><trkpt lat="50.48791370457256" lon="3.199764084692181"><ele>41.0</ele><time>2026-04-11T12:22:18Z</time></trkpt><trkpt lat="50.48786147330588" lon="3.199834666524394"><ele>41.0</ele><time>2026-04-11T12:22:19Z</time></trkpt><trkpt lat="50.487809910434216" lon="3.1998966779026885"><ele>41.0</ele><time>2026-04-11T12:22:20Z</time></trkpt><trkpt lat="50.48775956521928" lon="3.199960085507164"><ele>40.99999999999999</ele><time>2026-04-11T12:22:21Z</time></trkpt><trkpt lat="50.4877060872567" lon="3.2000204327298296"><ele>41.0</ele><time>2026-04-11T12:22:22Z</time></trkpt><trkpt lat="50.48765240746103" lon="3.2000809094267795"><ele>40.42857142857142</ele><time>2026-04-11T12:22:23Z</time></trkpt><trkpt lat="50.48760063840837" lon="3.200145496552976"><ele>39.857142857142854</ele><time>2026-04-11T12:22:24Z</time></trkpt><trkpt lat="50.48754787250413" lon="3.2002106315683387"><ele>39.285714285714285</ele><time>2026-04-11T12:22:25Z</time></trkpt><trkpt lat="50.4874969110786" lon="3.2002768033887103"><ele>38.71428571428571</ele><time>2026-04-11T12:22:26Z</time></trkpt><trkpt lat="50.48744586133761" lon="3.200344553270781"><ele>38.14285714285714</ele><time>2026-04-11T12:22:27Z</time></trkpt><trkpt lat="50.48739663843347" lon="3.2004211715295616"><ele>37.57142857142857</ele><time>2026-04-11T12:22:28Z</time></trkpt><trkpt lat="50.48734464258885" lon="3.200485278028618"><ele>37.0</ele><time>2026-04-11T12:22:29Z</time></trkpt><trkpt lat="50.48728823533621" lon="3.200545628751988"><ele>37.0</ele><time>2026-04-11T12:22:30Z</time></trkpt><trkpt lat="50.48723073974029" lon="3.200611399204457"><ele>37.0</ele><time>2026-04-11T12:22:31Z</time></trkpt><trkpt lat="50.48717590690769" lon="3.2006708384452374"><ele>37.0</ele><time>2026-04-11T12:22:32Z</time></trkpt><trkpt lat="50.48712144086496" lon="3.200739206316779"><ele>37.0</ele><time>2026-04-11T12:22:33Z</time></trkpt><trkpt lat="50.48706946272895" lon="3.200800549534539"><ele>37.0</ele><time>2026-04-11T12:22:34Z</time></trkpt><trkpt lat="50.48701609595925" lon="3.200860088307194"><ele>37.0</ele><time>2026-04-11T12:22:35Z</time></trkpt><trkpt lat="50.486962965686274" lon="3.2009231712772817"><ele>37.0</ele><time>2026-04-11T12:22:36Z</time></trkpt><trkpt lat="50.48690986274208" lon="3.200989766774166"><ele>36.800000000000004</ele><time>2026-04-11T12:22:37Z</time></trkpt><trkpt lat="50.486857306209885" lon="3.2010442588188317"><ele>36.6</ele><time>2026-04-11T12:22:38Z</time></trkpt><trkpt lat="50.486805037204874" lon="3.20110811467196"><ele>36.400000000000006</ele><time>2026-04-11T12:22:39Z</time></trkpt><trkpt lat="50.48670874679432" lon="3.2012165806756556"><ele>36.2</ele><time>2026-04-11T12:22:41Z</time></trkpt><trkpt lat="50.4866211124586" lon="3.201334637359388"><ele>36.0</ele><time>2026-04-11T12:22:43Z</time></trkpt><trkpt lat="50.48653336496322" lon="3.2014434657588198"><ele>36.2</ele><time>2026-04-11T12:22:45Z</time></trkpt><trkpt lat="50.48644832316831" lon="3.201546723934667"><ele>36.400000000000006</ele><time>2026-04-11T12:22:47Z</time></trkpt><trkpt lat="50.48636138935001" lon="3.2016543492223146"><ele>36.6</ele><time>2026-04-11T12:22:49Z</time></trkpt><trkpt lat="50.486275709618724" lon="3.2017569158560555"><ele>36.800000000000004</ele><time>2026-04-11T12:22:51Z</time></trkpt><trkpt lat="50.4861837587369" lon="3.201875354671322"><ele>37.0</ele><time>2026-04-11T12:22:53Z</time></trkpt><trkpt lat="50.48609131793831" lon="3.201983634437472"><ele>37.0</ele><time>2026-04-11T12:22:55Z</time></trkpt><trkpt lat="50.48600146345628" lon="3.2020949414625814"><ele>37.0</ele><time>2026-04-11T12:22:57Z</time></trkpt><trkpt lat="50.485908854639376" lon="3.2022016147901518"><ele>37.0</ele><time>2026-04-11T12:22:59Z</time></trkpt><trkpt lat="50.485816753293065" lon="3.202311183685987"><ele>37.0</ele><time>2026-04-11T12:23:01Z</time></trkpt><trkpt lat="50.48572976702554" lon="3.2024235790117475"><ele>37.0</ele><time>2026-04-11T12:23:03Z</time></trkpt><trkpt lat="50.485641408742644" lon="3.2025336323361615"><ele>37.0</ele><time>2026-04-11T12:23:05Z</time></trkpt><trkpt lat="50.485551360415734" lon="3.2026445338547833"><ele>37.0</ele><time>2026-04-11T12:23:07Z</time></trkpt><trkpt lat="50.48546224676019" lon="3.202751418638863"><ele>37.0</ele><time>2026-04-11T12:23:09Z</time></trkpt><trkpt lat="50.48537491811545" lon="3.2028612345705154"><ele>37.2</ele><time>2026-04-11T12:23:11Z</time></trkpt><trkpt lat="50.48529008138798" lon="3.202954749812264"><ele>37.400000000000006</ele><time>2026-04-11T12:23:13Z</time></trkpt><trkpt lat="50.48520361176493" lon="3.2030730245517693"><ele>37.599999999999994</ele><time>2026-04-11T12:23:15Z</time></trkpt><trkpt lat="50.48512187044523" lon="3.20317393776859"><ele>37.8</ele><time>2026-04-11T12:23:17Z</time></trkpt><trkpt lat="50.48503632916783" lon="3.203275782089091"><ele>38.0</ele><time>2026-04-11T12:23:19Z</time></trkpt><trkpt lat="50.48495660347086" lon="3.2033791220455043"><ele>38.199999999999996</ele><time>2026-04-11T12:23:21Z</time></trkpt><trkpt lat="50.48487284740216" lon="3.2034802459765253"><ele>38.4</ele><time>2026-04-11T12:23:23Z</time></trkpt><trkpt lat="50.484790181598434" lon="3.203578670922698"><ele>38.599999999999994</ele><time>2026-04-11T12:23:25Z</time></trkpt><trkpt lat="50.48470775623834" lon="3.2036776538784766"><ele>38.8</ele><time>2026-04-11T12:23:27Z</time></trkpt><trkpt lat="50.48462449700742" lon="3.20377980351363"><ele>39.0</ele><time>2026-04-11T12:23:29Z</time></trkpt><trkpt lat="50.48454275151963" lon="3.20387900162076"><ele>39.2</ele><time>2026-04-11T12:23:31Z</time></trkpt><trkpt lat="50.48446204451527" lon="3.203979024776927"><ele>39.4</ele><time>2026-04-11T12:23:33Z</time></trkpt><trkpt lat="50.4843853840346" lon="3.2040750511765563"><ele>39.6</ele><time>2026-04-11T12:23:34.999Z</time></trkpt><trkpt lat="50.48431004896925" lon="3.2041641297966104"><ele>39.8</ele><time>2026-04-11T12:23:36.999Z</time></trkpt><trkpt lat="50.48423161107857" lon="3.2042584621670516"><ele>40.0</ele><time>2026-04-11T12:23:38.999Z</time></trkpt><trkpt lat="50.48415406919282" lon="3.2043390125083318"><ele>40.0</ele><time>2026-04-11T12:23:40.999Z</time></trkpt><trkpt lat="50.48407994835703" lon="3.2044440758451542"><ele>40.0</ele><time>2026-04-11T12:23:42.999Z</time></trkpt><trkpt lat="50.484005609985196" lon="3.2045398444906343"><ele>40.0</ele><time>2026-04-11T12:23:44.999Z</time></trkpt><trkpt lat="50.4839142085527" lon="3.2046221904760506"><ele>40.0</ele><time>2026-04-11T12:23:47Z</time></trkpt><trkpt lat="50.48383792938264" lon="3.20467213187428"><ele>40.0</ele><time>2026-04-11T12:23:49Z</time></trkpt><trkpt lat="50.48376479068856" lon="3.2047529333201417"><ele>40.4</ele><time>2026-04-11T12:23:51Z</time></trkpt><trkpt lat="50.48369151021373" lon="3.204850831999976"><ele>40.8</ele><time>2026-04-11T12:23:53Z</time></trkpt><trkpt lat="50.48361624828332" lon="3.2049446898623644"><ele>41.2</ele><time>2026-04-11T12:23:55Z</time></trkpt><trkpt lat="50.483548695302986" lon="3.2050431809675164"><ele>41.6</ele><time>2026-04-11T12:23:57Z</time></trkpt><trkpt lat="50.48349436786566" lon="3.2051733223983643"><ele>42.0</ele><time>2026-04-11T12:23:59Z</time></trkpt><trkpt lat="50.48341359705214" lon="3.2052699808070395"><ele>42.0</ele><time>2026-04-11T12:24:01Z</time></trkpt><trkpt lat="50.48333182819803" lon="3.2053616742526265"><ele>42.0</ele><time>2026-04-11T12:24:03Z</time></trkpt><trkpt lat="50.483250002497606" lon="3.2054597340805837"><ele>42.0</ele><time>2026-04-11T12:24:05Z</time></trkpt><trkpt lat="50.48316942384531" lon="3.2055606862249"><ele>42.0</ele><time>2026-04-11T12:24:07Z</time></trkpt><trkpt lat="50.483088817452824" lon="3.2056572438881683"><ele>42.0</ele><time>2026-04-11T12:24:09Z</time></trkpt><trkpt lat="50.48300800285973" lon="3.2057534074610774"><ele>41.8</ele><time>2026-04-11T12:24:11Z</time></trkpt><trkpt lat="50.482932994551966" lon="3.2058494459728055"><ele>41.6</ele><time>2026-04-11T12:24:13Z</time></trkpt><trkpt lat="50.48285331351147" lon="3.205943513278041"><ele>41.4</ele><time>2026-04-11T12:24:15Z</time></trkpt><trkpt lat="50.48277651343077" lon="3.206035656591757"><ele>41.199999999999996</ele><time>2026-04-11T12:24:17Z</time></trkpt><trkpt lat="50.48270016116403" lon="3.2061330190623503"><ele>41.0</ele><time>2026-04-11T12:24:19Z</time></trkpt><trkpt lat="50.482624889508386" lon="3.2062252419978803"><ele>41.0</ele><time>2026-04-11T12:24:21Z</time></trkpt><trkpt lat="50.48254901416717" lon="3.2063168722813824"><ele>41.0</ele><time>2026-04-11T12:24:23Z</time></trkpt><trkpt lat="50.482472110485546" lon="3.2064109196817037"><ele>41.0</ele><time>2026-04-11T12:24:25Z</time></trkpt><trkpt lat="50.482398948065324" lon="3.2065046571185567"><ele>41.0</ele><time>2026-04-11T12:24:27Z</time></trkpt><trkpt lat="50.48232274526581" lon="3.206591868070265"><ele>41.0</ele><time>2026-04-11T12:24:29Z</time></trkpt><trkpt lat="50.482250173486904" lon="3.20668120382111"><ele>41.0</ele><time>2026-04-11T12:24:31Z</time></trkpt><trkpt lat="50.48218017209115" lon="3.206770227345976"><ele>41.0</ele><time>2026-04-11T12:24:33Z</time></trkpt><trkpt lat="50.48210906900805" lon="3.206862194176327"><ele>41.0</ele><time>2026-04-11T12:24:35Z</time></trkpt><trkpt lat="50.48204024318094" lon="3.2069444286071156"><ele>41.0</ele><time>2026-04-11T12:24:37Z</time></trkpt><trkpt lat="50.4819696437735" lon="3.2070307011186454"><ele>41.0</ele><time>2026-04-11T12:24:39Z</time></trkpt><trkpt lat="50.48189614574328" lon="3.2071211171553418"><ele>41.599999999999994</ele><time>2026-04-11T12:24:41Z</time></trkpt><trkpt lat="50.48182401144596" lon="3.20720450448319"><ele>42.2</ele><time>2026-04-11T12:24:43Z</time></trkpt><trkpt lat="50.48174735381847" lon="3.2072959962693153"><ele>42.8</ele><time>2026-04-11T12:24:45Z</time></trkpt><trkpt lat="50.48167327565741" lon="3.2073886981916213"><ele>43.400000000000006</ele><time>2026-04-11T12:24:47Z</time></trkpt><trkpt lat="50.48159949119015" lon="3.2074811970190225"><ele>44.0</ele><time>2026-04-11T12:24:49Z</time></trkpt><trkpt lat="50.481529433192065" lon="3.2075741692049364"><ele>44.0</ele><time>2026-04-11T12:24:51Z</time></trkpt><trkpt lat="50.48145576557349" lon="3.2076716395633573"><ele>44.0</ele><time>2026-04-11T12:24:53Z</time></trkpt><trkpt lat="50.48137765179064" lon="3.2077628860137763"><ele>44.0</ele><time>2026-04-11T12:24:55Z</time></trkpt><trkpt lat="50.48129943860923" lon="3.207865345633048"><ele>44.0</ele><time>2026-04-11T12:24:57Z</time></trkpt><trkpt lat="50.4812193793623" lon="3.2079555220629685"><ele>44.0</ele><time>2026-04-11T12:24:59Z</time></trkpt><trkpt lat="50.48114184799898" lon="3.208053975682751"><ele>44.25</ele><time>2026-04-11T12:25:01Z</time></trkpt><trkpt lat="50.48105993090507" lon="3.208153529338506"><ele>44.5</ele><time>2026-04-11T12:25:03Z</time></trkpt><trkpt lat="50.48097025962939" lon="3.2082608903607337"><ele>44.75</ele><time>2026-04-11T12:25:05Z</time></trkpt><trkpt lat="50.48088019100572" lon="3.208364653267014"><ele>45.0</ele><time>2026-04-11T12:25:07Z</time></trkpt><trkpt lat="50.48078593287736" lon="3.208487795780483"><ele>44.8</ele><time>2026-04-11T12:25:09Z</time></trkpt><trkpt lat="50.48069549993799" lon="3.2086013882203823"><ele>44.6</ele><time>2026-04-11T12:25:11Z</time></trkpt><trkpt lat="50.480599644178625" lon="3.2087170138163765"><ele>44.400000000000006</ele><time>2026-04-11T12:25:13Z</time></trkpt><trkpt lat="50.48054951876871" lon="3.2087869829954196"><ele>44.2</ele><time>2026-04-11T12:25:14Z</time></trkpt><trkpt lat="50.48045712352756" lon="3.20888983036806"><ele>44.0</ele><time>2026-04-11T12:25:16Z</time></trkpt><trkpt lat="50.480360779148846" lon="3.2090061174151154"><ele>44.0</ele><time>2026-04-11T12:25:18Z</time></trkpt><trkpt lat="50.48026860810638" lon="3.2091217029058035"><ele>44.0</ele><time>2026-04-11T12:25:20Z</time></trkpt><trkpt lat="50.48017127025035" lon="3.209238070374554"><ele>44.0</ele><time>2026-04-11T12:25:22Z</time></trkpt><trkpt lat="50.48007597507112" lon="3.209350041434145"><ele>44.0</ele><time>2026-04-11T12:25:24Z</time></trkpt><trkpt lat="50.479980132626395" lon="3.209469025170732"><ele>44.0</ele><time>2026-04-11T12:25:26Z</time></trkpt><trkpt lat="50.47988585587256" lon="3.209582193827946"><ele>44.0</ele><time>2026-04-11T12:25:28Z</time></trkpt><trkpt lat="50.4797908743673" lon="3.209698550711641"><ele>44.0</ele><time>2026-04-11T12:25:30Z</time></trkpt><trkpt lat="50.47969438983492" lon="3.20981250167683"><ele>44.0</ele><time>2026-04-11T12:25:31.999Z</time></trkpt><trkpt lat="50.479597503516004" lon="3.209933552300652"><ele>43.75</ele><time>2026-04-11T12:25:33.999Z</time></trkpt><trkpt lat="50.47950126548377" lon="3.2100516214513015"><ele>43.5</ele><time>2026-04-11T12:25:35.999Z</time></trkpt><trkpt lat="50.47941065250273" lon="3.2101672532780903"><ele>43.25</ele><time>2026-04-11T12:25:37.999Z</time></trkpt><trkpt lat="50.47930460918534" lon="3.21027723791767"><ele>43.0</ele><time>2026-04-11T12:25:39.999Z</time></trkpt><trkpt lat="50.47921107667868" lon="3.2103983224281496"><ele>43.0</ele><time>2026-04-11T12:25:41.999Z</time></trkpt><trkpt lat="50.47911862137421" lon="3.210513793753952"><ele>43.0</ele><time>2026-04-11T12:25:43.999Z</time></trkpt><trkpt lat="50.479069388511824" lon="3.2105782416683577"><ele>43.0</ele><time>2026-04-11T12:25:44.999Z</time></trkpt><trkpt lat="50.47897685143895" lon="3.210687524009105"><ele>43.0</ele><time>2026-04-11T12:25:46.999Z</time></trkpt><trkpt lat="50.47888597636693" lon="3.21081698090098"><ele>43.0</ele><time>2026-04-11T12:25:48.999Z</time></trkpt><trkpt lat="50.47878550454816" lon="3.2109295940039275"><ele>43.0</ele><time>2026-04-11T12:25:50.999Z</time></trkpt><trkpt lat="50.47868869081527" lon="3.211048685779718"><ele>43.0</ele><time>2026-04-11T12:25:53Z</time></trkpt><trkpt lat="50.47859516301499" lon="3.211167820264494"><ele>43.0</ele><time>2026-04-11T12:25:55Z</time></trkpt><trkpt lat="50.47850169345649" lon="3.211288860733797"><ele>43.0</ele><time>2026-04-11T12:25:57Z</time></trkpt><trkpt lat="50.47840782781353" lon="3.2114105821674133"><ele>42.8</ele><time>2026-04-11T12:25:59Z</time></trkpt><trkpt lat="50.47831480693665" lon="3.2115244383880017"><ele>42.599999999999994</ele><time>2026-04-11T12:26:01Z</time></trkpt><trkpt lat="50.47826303749798" lon="3.211590046039563"><ele>42.400000000000006</ele><time>2026-04-11T12:26:02Z</time></trkpt><trkpt lat="50.47817187335229" lon="3.211721517544621"><ele>42.2</ele><time>2026-04-11T12:26:04Z</time></trkpt><trkpt lat="50.478079316255446" lon="3.2118440887970365"><ele>42.0</ele><time>2026-04-11T12:26:06Z</time></trkpt><trkpt lat="50.47803445944254" lon="3.2119156882156084"><ele>42.0</ele><time>2026-04-11T12:26:07Z</time></trkpt><trkpt lat="50.477944419119126" lon="3.2120396754970666"><ele>42.0</ele><time>2026-04-11T12:26:09Z</time></trkpt><trkpt lat="50.47785539424097" lon="3.2121677233275836"><ele>42.0</ele><time>2026-04-11T12:26:11Z</time></trkpt><trkpt lat="50.47780798482228" lon="3.2122339095633934"><ele>42.0</ele><time>2026-04-11T12:26:12Z</time></trkpt><trkpt lat="50.47776295277349" lon="3.212303273918392"><ele>42.0</ele><time>2026-04-11T12:26:13Z</time></trkpt><trkpt lat="50.47771358661716" lon="3.21237582540017"><ele>42.0</ele><time>2026-04-11T12:26:14Z</time></trkpt><trkpt lat="50.477671305028956" lon="3.212451554576196"><ele>41.6</ele><time>2026-04-11T12:26:15Z</time></trkpt><trkpt lat="50.47758816073248" lon="3.212587851991507"><ele>41.2</ele><time>2026-04-11T12:26:17Z</time></trkpt><trkpt lat="50.47750396121895" lon="3.2127174509568333"><ele>40.8</ele><time>2026-04-11T12:26:19Z</time></trkpt><trkpt lat="50.47744804747005" lon="3.212764629678137"><ele>40.4</ele><time>2026-04-11T12:26:20Z</time></trkpt><trkpt lat="50.47736996686121" lon="3.212688285710327"><ele>40.0</ele><time>2026-04-11T12:26:22Z</time></trkpt><trkpt lat="50.47732369223921" lon="3.212581476879773"><ele>40.0</ele><time>2026-04-11T12:26:24Z</time></trkpt><trkpt lat="50.47725660825135" lon="3.2125969354785964"><ele>40.0</ele><time>2026-04-11T12:26:26Z</time></trkpt><trkpt lat="50.477242145412525" lon="3.212727948294843"><ele>40.0</ele><time>2026-04-11T12:26:28Z</time></trkpt><trkpt lat="50.4772503559088" lon="3.212873460393484"><ele>40.0</ele><time>2026-04-11T12:26:30Z</time></trkpt><trkpt lat="50.47724648543481" lon="3.213034383748799"><ele>40.0</ele><time>2026-04-11T12:26:32Z</time></trkpt><trkpt lat="50.47723132035439" lon="3.213206345381319"><ele>40.0</ele><time>2026-04-11T12:26:34Z</time></trkpt><trkpt lat="50.47717285363308" lon="3.2133575160801304"><ele>40.0</ele><time>2026-04-11T12:26:36Z</time></trkpt><trkpt lat="50.47709437403875" lon="3.2134909627870782"><ele>40.0</ele><time>2026-04-11T12:26:38Z</time></trkpt><trkpt lat="50.477026855405924" lon="3.213632890734684"><ele>40.0</ele><time>2026-04-11T12:26:40Z</time></trkpt><trkpt lat="50.476960415276" lon="3.213779591502123"><ele>40.0</ele><time>2026-04-11T12:26:42Z</time></trkpt><trkpt lat="50.476892867290516" lon="3.2139214742473157"><ele>40.0</ele><time>2026-04-11T12:26:44Z</time></trkpt><trkpt lat="50.47682910419717" lon="3.2140551076679267"><ele>40.0</ele><time>2026-04-11T12:26:46Z</time></trkpt><trkpt lat="50.47679552280166" lon="3.214142017982388"><ele>40.0</ele><time>2026-04-11T12:26:47Z</time></trkpt><trkpt lat="50.47673179957117" lon="3.2142951453384905"><ele>40.0</ele><time>2026-04-11T12:26:49Z</time></trkpt><trkpt lat="50.4766693143003" lon="3.214458788684075"><ele>40.0</ele><time>2026-04-11T12:26:51Z</time></trkpt><trkpt lat="50.47661008368556" lon="3.214611485971382"><ele>40.0</ele><time>2026-04-11T12:26:53Z</time></trkpt><trkpt lat="50.476548826515675" lon="3.2147736752427494"><ele>40.0</ele><time>2026-04-11T12:26:55Z</time></trkpt><trkpt lat="50.47649112200889" lon="3.2149373882029737"><ele>40.0</ele><time>2026-04-11T12:26:57Z</time></trkpt><trkpt lat="50.47643365112266" lon="3.215104590374095"><ele>39.75</ele><time>2026-04-11T12:26:59Z</time></trkpt><trkpt lat="50.47637423846854" lon="3.2152762058556297"><ele>39.5</ele><time>2026-04-11T12:27:01Z</time></trkpt><trkpt lat="50.476316151322656" lon="3.2154399309823183"><ele>39.25</ele><time>2026-04-11T12:27:03Z</time></trkpt><trkpt lat="50.476257579343695" lon="3.215616896519521"><ele>39.0</ele><time>2026-04-11T12:27:05Z</time></trkpt><trkpt lat="50.47619651845036" lon="3.2157802742612236"><ele>38.75</ele><time>2026-04-11T12:27:07Z</time></trkpt><trkpt lat="50.47614000377345" lon="3.21595263659133"><ele>38.5</ele><time>2026-04-11T12:27:09Z</time></trkpt><trkpt lat="50.47607944158388" lon="3.216114824603115"><ele>38.25</ele><time>2026-04-11T12:27:11Z</time></trkpt><trkpt lat="50.47602146970936" lon="3.216284165720149"><ele>38.0</ele><time>2026-04-11T12:27:13Z</time></trkpt><trkpt lat="50.47596082022387" lon="3.21644827718149"><ele>38.0</ele><time>2026-04-11T12:27:15Z</time></trkpt><trkpt lat="50.475902488969524" lon="3.2166169446051627"><ele>38.0</ele><time>2026-04-11T12:27:17Z</time></trkpt><trkpt lat="50.47584782689618" lon="3.2167756194824806"><ele>38.0</ele><time>2026-04-11T12:27:19Z</time></trkpt><trkpt lat="50.4757922915846" lon="3.216942010629388"><ele>38.0</ele><time>2026-04-11T12:27:21Z</time></trkpt><trkpt lat="50.47573174594482" lon="3.2171046897813707"><ele>38.0</ele><time>2026-04-11T12:27:23Z</time></trkpt><trkpt lat="50.475668985090834" lon="3.2172639789082256"><ele>38.0</ele><time>2026-04-11T12:27:25Z</time></trkpt><trkpt lat="50.475612590369366" lon="3.217426837738403"><ele>38.0</ele><time>2026-04-11T12:27:27Z</time></trkpt><trkpt lat="50.47555141362625" lon="3.217585274037337"><ele>38.0</ele><time>2026-04-11T12:27:29Z</time></trkpt><trkpt lat="50.47549256785397" lon="3.2177448933355985"><ele>38.25</ele><time>2026-04-11T12:27:30.999Z</time></trkpt><trkpt lat="50.475434228794576" lon="3.2179043732641492"><ele>38.5</ele><time>2026-04-11T12:27:32.999Z</time></trkpt><trkpt lat="50.47537382428648" lon="3.2180555591507427"><ele>38.75</ele><time>2026-04-11T12:27:34.999Z</time></trkpt><trkpt lat="50.47531720161263" lon="3.2182036417948927"><ele>39.0</ele><time>2026-04-11T12:27:36.999Z</time></trkpt><trkpt lat="50.47525463697684" lon="3.2183548527832797"><ele>39.0</ele><time>2026-04-11T12:27:38.999Z</time></trkpt><trkpt lat="50.47519839638548" lon="3.2185083695039696"><ele>39.0</ele><time>2026-04-11T12:27:40.999Z</time></trkpt><trkpt lat="50.47513666853228" lon="3.2186578180789125"><ele>39.0</ele><time>2026-04-11T12:27:42.999Z</time></trkpt><trkpt lat="50.47506997237749" lon="3.218806810816835"><ele>39.0</ele><time>2026-04-11T12:27:44.999Z</time></trkpt><trkpt lat="50.475006072960525" lon="3.2189510000035604"><ele>39.0</ele><time>2026-04-11T12:27:46.999Z</time></trkpt><trkpt lat="50.47494669406869" lon="3.219094876114358"><ele>39.0</ele><time>2026-04-11T12:27:48.999Z</time></trkpt><trkpt lat="50.47488360219514" lon="3.219236402061782"><ele>39.0</ele><time>2026-04-11T12:27:50.999Z</time></trkpt><trkpt lat="50.47482124787651" lon="3.2193723924348134"><ele>39.0</ele><time>2026-04-11T12:27:52.999Z</time></trkpt><trkpt lat="50.47476078741488" lon="3.219514426467536"><ele>39.0</ele><time>2026-04-11T12:27:54.999Z</time></trkpt><trkpt lat="50.474699465450634" lon="3.2196492173402054"><ele>39.0</ele><time>2026-04-11T12:27:56.999Z</time></trkpt><trkpt lat="50.47463802678803" lon="3.2197822377996728"><ele>39.0</ele><time>2026-04-11T12:27:59Z</time></trkpt><trkpt lat="50.474581288574285" lon="3.2199143811931386"><ele>39.0</ele><time>2026-04-11T12:28:01Z</time></trkpt><trkpt lat="50.474521327474946" lon="3.2200459917107005"><ele>39.0</ele><time>2026-04-11T12:28:03Z</time></trkpt><trkpt lat="50.47446679986902" lon="3.2201603798783798"><ele>39.0</ele><time>2026-04-11T12:28:05Z</time></trkpt><trkpt lat="50.474425973363445" lon="3.2202904426302656"><ele>39.166666666666664</ele><time>2026-04-11T12:28:07Z</time></trkpt><trkpt lat="50.47438158744853" lon="3.2204001646392877"><ele>39.333333333333336</ele><time>2026-04-11T12:28:09Z</time></trkpt><trkpt lat="50.474408929171545" lon="3.220501333806162"><ele>39.5</ele><time>2026-04-11T12:28:11Z</time></trkpt><trkpt lat="50.474465758728925" lon="3.2205472030298155"><ele>39.66666666666667</ele><time>2026-04-11T12:28:13Z</time></trkpt><trkpt lat="50.47453506255365" lon="3.220612646327271"><ele>39.833333333333336</ele><time>2026-04-11T12:28:17Z</time></trkpt><trkpt lat="50.47460445529006" lon="3.2206786695748275"><ele>40.0</ele><time>2026-04-11T12:28:19Z</time></trkpt><trkpt lat="50.47462862569182" lon="3.2208142417255234"><ele>40.0</ele><time>2026-04-11T12:28:21Z</time></trkpt><trkpt lat="50.47458235420069" lon="3.220963596245819"><ele>40.0</ele><time>2026-04-11T12:28:23Z</time></trkpt><trkpt lat="50.47454424116947" lon="3.2211024198184948"><ele>40.0</ele><time>2026-04-11T12:28:25Z</time></trkpt><trkpt lat="50.47450712646308" lon="3.2212483969204144"><ele>40.0</ele><time>2026-04-11T12:28:27Z</time></trkpt><trkpt lat="50.474468667585676" lon="3.221404083433201"><ele>40.0</ele><time>2026-04-11T12:28:29Z</time></trkpt><trkpt lat="50.474429617848" lon="3.2215609420874465"><ele>40.0</ele><time>2026-04-11T12:28:31Z</time></trkpt><trkpt lat="50.4743866121052" lon="3.221714037627408"><ele>40.0</ele><time>2026-04-11T12:28:33Z</time></trkpt><trkpt lat="50.47434321769823" lon="3.2218672179490153"><ele>40.0</ele><time>2026-04-11T12:28:35Z</time></trkpt><trkpt lat="50.474300870783125" lon="3.222026648679927"><ele>40.0</ele><time>2026-04-11T12:28:37Z</time></trkpt><trkpt lat="50.47426050966403" lon="3.2221755284575724"><ele>40.0</ele><time>2026-04-11T12:28:39Z</time></trkpt><trkpt lat="50.47421472694962" lon="3.2223068028977124"><ele>40.2</ele><time>2026-04-11T12:28:41Z</time></trkpt><trkpt lat="50.47416127203125" lon="3.2224169699831626"><ele>40.4</ele><time>2026-04-11T12:28:43Z</time></trkpt><trkpt lat="50.474121666689925" lon="3.22254930516811"><ele>40.599999999999994</ele><time>2026-04-11T12:28:45Z</time></trkpt><trkpt lat="50.47408256228618" lon="3.2226877203438975"><ele>40.8</ele><time>2026-04-11T12:28:47Z</time></trkpt><trkpt lat="50.4740056882471" lon="3.2227798374412857"><ele>41.0</ele><time>2026-04-11T12:28:49Z</time></trkpt><trkpt lat="50.473926603466836" lon="3.222873748596851"><ele>41.0</ele><time>2026-04-11T12:28:51Z</time></trkpt><trkpt lat="50.473853685369704" lon="3.222966964078309"><ele>41.0</ele><time>2026-04-11T12:28:53Z</time></trkpt><trkpt lat="50.47378793652306" lon="3.2230735895973326"><ele>41.0</ele><time>2026-04-11T12:28:56Z</time></trkpt><trkpt lat="50.47372168028744" lon="3.2231297234178227"><ele>41.0</ele><time>2026-04-11T12:28:58Z</time></trkpt><trkpt lat="50.47366406094543" lon="3.2231815763934026"><ele>41.0</ele><time>2026-04-11T12:29:00Z</time></trkpt><trkpt lat="50.4735945873641" lon="3.223279571280182"><ele>41.0</ele><time>2026-04-11T12:29:03Z</time></trkpt><trkpt lat="50.4735651064898" lon="3.2234225946465322"><ele>41.42857142857142</ele><time>2026-04-11T12:29:06Z</time></trkpt><trkpt lat="50.47356198666178" lon="3.223521866911316"><ele>41.857142857142854</ele><time>2026-04-11T12:29:08Z</time></trkpt><trkpt lat="50.47358523268171" lon="3.223616799468796"><ele>42.285714285714285</ele><time>2026-04-11T12:29:10Z</time></trkpt><trkpt lat="50.47360605846324" lon="3.22373081819847"><ele>42.71428571428571</ele><time>2026-04-11T12:29:13Z</time></trkpt><trkpt lat="50.4736330846516" lon="3.223830334887687"><ele>43.14285714285714</ele><time>2026-04-11T12:29:15Z</time></trkpt><trkpt lat="50.4736504417164" lon="3.2239351949681128"><ele>43.57142857142857</ele><time>2026-04-11T12:29:17Z</time></trkpt><trkpt lat="50.47365606401858" lon="3.224036056945953"><ele>44.0</ele><time>2026-04-11T12:29:19Z</time></trkpt><trkpt lat="50.473621059708606" lon="3.2241434971235727"><ele>44.0</ele><time>2026-04-11T12:29:21Z</time></trkpt><trkpt lat="50.47360695584037" lon="3.2242700880577435"><ele>44.0</ele><time>2026-04-11T12:29:23Z</time></trkpt><trkpt lat="50.47358547661534" lon="3.2244163259489826"><ele>44.0</ele><time>2026-04-11T12:29:25Z</time></trkpt><trkpt lat="50.47355445671885" lon="3.2245541536449958"><ele>44.0</ele><time>2026-04-11T12:29:27Z</time></trkpt><trkpt lat="50.47354854505541" lon="3.2246657931566527"><ele>44.0</ele><time>2026-04-11T12:29:28Z</time></trkpt><trkpt lat="50.473523673185554" lon="3.2248162746986035"><ele>44.0</ele><time>2026-04-11T12:29:30Z</time></trkpt><trkpt lat="50.473492590606185" lon="3.224949142209411"><ele>44.0</ele><time>2026-04-11T12:29:31.999Z</time></trkpt><trkpt lat="50.473453898354215" lon="3.225076699472362"><ele>44.0</ele><time>2026-04-11T12:29:33.999Z</time></trkpt><trkpt lat="50.47342366037841" lon="3.2252218729471225"><ele>44.0</ele><time>2026-04-11T12:29:35.999Z</time></trkpt><trkpt lat="50.47338593162116" lon="3.225358280504871"><ele>44.0</ele><time>2026-04-11T12:29:37.999Z</time></trkpt><trkpt lat="50.473345352934736" lon="3.2254935942715504"><ele>44.0</ele><time>2026-04-11T12:29:39.999Z</time></trkpt><trkpt lat="50.47330921658896" lon="3.225639217200628"><ele>44.2</ele><time>2026-04-11T12:29:41.999Z</time></trkpt><trkpt lat="50.47327429995499" lon="3.2257888139373607"><ele>44.400000000000006</ele><time>2026-04-11T12:29:43.999Z</time></trkpt><trkpt lat="50.473231401526846" lon="3.225934247739644"><ele>44.6</ele><time>2026-04-11T12:29:45.999Z</time></trkpt><trkpt lat="50.473185949555706" lon="3.2260784762196573"><ele>44.8</ele><time>2026-04-11T12:29:47.999Z</time></trkpt><trkpt lat="50.47314394910658" lon="3.226225768882495"><ele>45.0</ele><time>2026-04-11T12:29:49.999Z</time></trkpt><trkpt lat="50.473103547898155" lon="3.226367712719364"><ele>45.2</ele><time>2026-04-11T12:29:51.999Z</time></trkpt><trkpt lat="50.47306607339541" lon="3.226511368786487"><ele>45.4</ele><time>2026-04-11T12:29:53.999Z</time></trkpt><trkpt lat="50.47302600350818" lon="3.2266552865507903"><ele>45.599999999999994</ele><time>2026-04-11T12:29:55.999Z</time></trkpt><trkpt lat="50.47298522936499" lon="3.2268006054256904"><ele>45.8</ele><time>2026-04-11T12:29:57.999Z</time></trkpt><trkpt lat="50.47294978728331" lon="3.2269479555559997"><ele>46.0</ele><time>2026-04-11T12:29:59.999Z</time></trkpt><trkpt lat="50.47291195755359" lon="3.2270921595957827"><ele>46.0</ele><time>2026-04-11T12:30:01.999Z</time></trkpt><trkpt lat="50.472876179822684" lon="3.227237092455845"><ele>46.0</ele><time>2026-04-11T12:30:04Z</time></trkpt><trkpt lat="50.472837158354345" lon="3.227373595942311"><ele>46.0</ele><time>2026-04-11T12:30:06Z</time></trkpt><trkpt lat="50.47280060113711" lon="3.227517867163325"><ele>46.0</ele><time>2026-04-11T12:30:08Z</time></trkpt><trkpt lat="50.47276376763647" lon="3.22766961220321"><ele>46.0</ele><time>2026-04-11T12:30:10Z</time></trkpt><trkpt lat="50.47272267577159" lon="3.2278045011413337"><ele>46.0</ele><time>2026-04-11T12:30:12Z</time></trkpt><trkpt lat="50.47268846080943" lon="3.2279441021215813"><ele>46.0</ele><time>2026-04-11T12:30:14Z</time></trkpt><trkpt lat="50.472650369064525" lon="3.2280815360837827"><ele>46.0</ele><time>2026-04-11T12:30:16Z</time></trkpt><trkpt lat="50.47262839203207" lon="3.228230902726354"><ele>46.0</ele><time>2026-04-11T12:30:18Z</time></trkpt><trkpt lat="50.472612805398434" lon="3.228381605629624"><ele>46.0</ele><time>2026-04-11T12:30:20Z</time></trkpt><trkpt lat="50.472601745855805" lon="3.2285351116377545"><ele>46.0</ele><time>2026-04-11T12:30:22Z</time></trkpt><trkpt lat="50.47259382820878" lon="3.228689420729958"><ele>46.0</ele><time>2026-04-11T12:30:24Z</time></trkpt><trkpt lat="50.472595605088905" lon="3.2288413303635024"><ele>46.0</ele><time>2026-04-11T12:30:26Z</time></trkpt><trkpt lat="50.4726107561699" lon="3.229003162131736"><ele>46.0</ele><time>2026-04-11T12:30:28Z</time></trkpt><trkpt lat="50.472637527717346" lon="3.2291758984686654"><ele>46.0</ele><time>2026-04-11T12:30:30Z</time></trkpt><trkpt lat="50.472671886355194" lon="3.2293479293832914"><ele>46.0</ele><time>2026-04-11T12:30:32Z</time></trkpt><trkpt lat="50.472719261401274" lon="3.229515032953297"><ele>46.0</ele><time>2026-04-11T12:30:34Z</time></trkpt><trkpt lat="50.47274052254207" lon="3.229609445076854"><ele>46.0</ele><time>2026-04-11T12:30:35Z</time></trkpt><trkpt lat="50.47277600767701" lon="3.229786204710695"><ele>46.0</ele><time>2026-04-11T12:30:37Z</time></trkpt><trkpt lat="50.47282112043512" lon="3.229970798519507"><ele>46.0</ele><time>2026-04-11T12:30:39Z</time></trkpt><trkpt lat="50.472845854209865" lon="3.230062616895144"><ele>45.5</ele><time>2026-04-11T12:30:40Z</time></trkpt><trkpt lat="50.47288860576082" lon="3.2302497849565346"><ele>45.0</ele><time>2026-04-11T12:30:42Z</time></trkpt><trkpt lat="50.472944502279645" lon="3.2304293719417743"><ele>44.5</ele><time>2026-04-11T12:30:44Z</time></trkpt><trkpt lat="50.472971326289155" lon="3.2305188807905085"><ele>44.0</ele><time>2026-04-11T12:30:45Z</time></trkpt><trkpt lat="50.472994293432194" lon="3.230612267882729"><ele>43.5</ele><time>2026-04-11T12:30:46Z</time></trkpt><trkpt lat="50.47300018674008" lon="3.2307109089906687"><ele>43.0</ele><time>2026-04-11T12:30:47Z</time></trkpt><trkpt lat="50.47298423833391" lon="3.2308073094793848"><ele>43.00000000000001</ele><time>2026-04-11T12:30:48Z</time></trkpt><trkpt lat="50.47297608335576" lon="3.230906135323463"><ele>43.0</ele><time>2026-04-11T12:30:49Z</time></trkpt><trkpt lat="50.472981065618086" lon="3.2310141844104483"><ele>43.0</ele><time>2026-04-11T12:30:50Z</time></trkpt><trkpt lat="50.47298995917608" lon="3.2311201483107603"><ele>43.0</ele><time>2026-04-11T12:30:51Z</time></trkpt><trkpt lat="50.47301061626532" lon="3.23122578322747"><ele>43.0</ele><time>2026-04-11T12:30:52Z</time></trkpt><trkpt lat="50.47303824703127" lon="3.2313227108685862"><ele>43.00000000000001</ele><time>2026-04-11T12:30:53Z</time></trkpt><trkpt lat="50.47306838874871" lon="3.2314195257683513"><ele>43.0</ele><time>2026-04-11T12:30:54Z</time></trkpt><trkpt lat="50.473093052426336" lon="3.231515546394567"><ele>43.0</ele><time>2026-04-11T12:30:55Z</time></trkpt><trkpt lat="50.47311573620198" lon="3.231609821833195"><ele>43.0</ele><time>2026-04-11T12:30:56Z</time></trkpt><trkpt lat="50.47315370954164" lon="3.2317834408590858"><ele>43.0</ele><time>2026-04-11T12:30:58Z</time></trkpt><trkpt lat="50.473195169860894" lon="3.2319149484404788"><ele>43.0</ele><time>2026-04-11T12:31:00Z</time></trkpt><trkpt lat="50.47313514380354" lon="3.2319883619059597"><ele>43.0</ele><time>2026-04-11T12:31:16Z</time></trkpt><trkpt lat="50.47306767224327" lon="3.2319269459473494"><ele>43.0</ele><time>2026-04-11T12:31:19Z</time></trkpt><trkpt lat="50.4730274459421" lon="3.231824883086798"><ele>43.0</ele><time>2026-04-11T12:31:21Z</time></trkpt><trkpt lat="50.47300235276107" lon="3.231707472450426"><ele>43.0</ele><time>2026-04-11T12:31:23Z</time></trkpt><trkpt lat="50.47298504572266" lon="3.2315790900851704"><ele>43.0</ele><time>2026-04-11T12:31:25Z</time></trkpt><trkpt lat="50.47296535653238" lon="3.231465629437583"><ele>43.0</ele><time>2026-04-11T12:31:27Z</time></trkpt><trkpt lat="50.47295174320775" lon="3.2313591899177525"><ele>43.0</ele><time>2026-04-11T12:31:29Z</time></trkpt><trkpt lat="50.472933068015735" lon="3.231242411865812"><ele>43.0</ele><time>2026-04-11T12:31:31Z</time></trkpt><trkpt lat="50.472916082478484" lon="3.2311149538732398"><ele>42.85714285714286</ele><time>2026-04-11T12:31:33Z</time></trkpt><trkpt lat="50.472898765053905" lon="3.230987948714017"><ele>42.714285714285715</ele><time>2026-04-11T12:31:35Z</time></trkpt><trkpt lat="50.47288665669967" lon="3.2308750586618427"><ele>42.57142857142857</ele><time>2026-04-11T12:31:37Z</time></trkpt><trkpt lat="50.47287623903266" lon="3.2307556637779964"><ele>42.42857142857143</ele><time>2026-04-11T12:31:39Z</time></trkpt><trkpt lat="50.472860921565314" lon="3.2306551157973806"><ele>42.285714285714285</ele><time>2026-04-11T12:31:41Z</time></trkpt><trkpt lat="50.47288925465621" lon="3.2307766115718564"><ele>42.142857142857146</ele><time>2026-04-11T12:31:47.999Z</time></trkpt><trkpt lat="50.47290156255972" lon="3.2308801852668245"><ele>42.0</ele><time>2026-04-11T12:31:49.999Z</time></trkpt><trkpt lat="50.47291261101224" lon="3.2309816793604127"><ele>42.0</ele><time>2026-04-11T12:31:51.999Z</time></trkpt><trkpt lat="50.47292393075889" lon="3.2310810278187576"><ele>42.0</ele><time>2026-04-11T12:31:53.999Z</time></trkpt><trkpt lat="50.47294620124729" lon="3.2311932091029996"><ele>42.0</ele><time>2026-04-11T12:31:55.999Z</time></trkpt><trkpt lat="50.472953340104" lon="3.2312958282347966"><ele>42.0</ele><time>2026-04-11T12:31:57.999Z</time></trkpt><trkpt lat="50.47296959880357" lon="3.231410412193595"><ele>42.0</ele><time>2026-04-11T12:31:59.999Z</time></trkpt><trkpt lat="50.47299553577027" lon="3.2315696408676473"><ele>42.0</ele><time>2026-04-11T12:32:02.999Z</time></trkpt><trkpt lat="50.47301176708723" lon="3.2316878543977365"><ele>42.2</ele><time>2026-04-11T12:32:05.999Z</time></trkpt><trkpt lat="50.47302608252371" lon="3.231824433637226"><ele>42.400000000000006</ele><time>2026-04-11T12:32:08.999Z</time></trkpt><trkpt lat="50.4729471642444" lon="3.231816280926482"><ele>42.599999999999994</ele><time>2026-04-11T12:32:12Z</time></trkpt><trkpt lat="50.472879778309085" lon="3.231844784969698"><ele>42.8</ele><time>2026-04-11T12:32:14Z</time></trkpt><trkpt lat="50.472842167053535" lon="3.232010616559327"><ele>43.0</ele><time>2026-04-11T12:32:16Z</time></trkpt><trkpt lat="50.47280247202989" lon="3.232160910709632"><ele>42.75</ele><time>2026-04-11T12:32:18Z</time></trkpt><trkpt lat="50.472754653240756" lon="3.232316516750126"><ele>42.5</ele><time>2026-04-11T12:32:20Z</time></trkpt><trkpt lat="50.47266486230941" lon="3.2324466782996186"><ele>42.25</ele><time>2026-04-11T12:32:22Z</time></trkpt><trkpt lat="50.4725477402187" lon="3.2324916403209305"><ele>42.0</ele><time>2026-04-11T12:32:24Z</time></trkpt><trkpt lat="50.47243422291302" lon="3.2324613929429993"><ele>42.0</ele><time>2026-04-11T12:32:26Z</time></trkpt><trkpt lat="50.47233718417465" lon="3.2323930614806864"><ele>42.0</ele><time>2026-04-11T12:32:28Z</time></trkpt><trkpt lat="50.47225207282606" lon="3.232289017681286"><ele>42.0</ele><time>2026-04-11T12:32:30Z</time></trkpt><trkpt lat="50.472166729876776" lon="3.2322051484021808"><ele>42.0</ele><time>2026-04-11T12:32:32Z</time></trkpt><trkpt lat="50.47208293757677" lon="3.232115725513824"><ele>42.0</ele><time>2026-04-11T12:32:34Z</time></trkpt><trkpt lat="50.472006284605364" lon="3.2320326906964323"><ele>42.5</ele><time>2026-04-11T12:32:36Z</time></trkpt><trkpt lat="50.471930512830156" lon="3.231948963074805"><ele>43.0</ele><time>2026-04-11T12:32:38Z</time></trkpt><trkpt lat="50.47185528695604" lon="3.2318665693427975"><ele>43.5</ele><time>2026-04-11T12:32:40Z</time></trkpt><trkpt lat="50.47177815385552" lon="3.231789812118565"><ele>44.0</ele><time>2026-04-11T12:32:42Z</time></trkpt><trkpt lat="50.47170830243338" lon="3.231716827920777"><ele>44.5</ele><time>2026-04-11T12:32:44Z</time></trkpt><trkpt lat="50.47163665007091" lon="3.2316414885186555"><ele>45.0</ele><time>2026-04-11T12:32:46Z</time></trkpt><trkpt lat="50.47156021775689" lon="3.2315656690249335"><ele>45.0</ele><time>2026-04-11T12:32:48Z</time></trkpt><trkpt lat="50.47149058626894" lon="3.2314846637164947"><ele>45.0</ele><time>2026-04-11T12:32:50Z</time></trkpt><trkpt lat="50.47142876852348" lon="3.2314122944229804"><ele>45.0</ele><time>2026-04-11T12:32:52Z</time></trkpt><trkpt lat="50.471374184531896" lon="3.231360022863806"><ele>45.0</ele><time>2026-04-11T12:32:54Z</time></trkpt><trkpt lat="50.47130192480572" lon="3.231324330759517"><ele>45.0</ele><time>2026-04-11T12:32:58Z</time></trkpt><trkpt lat="50.471239079853966" lon="3.231383213746479"><ele>45.0</ele><time>2026-04-11T12:33:00Z</time></trkpt><trkpt lat="50.47121530263517" lon="3.2315304637214965"><ele>45.2</ele><time>2026-04-11T12:33:02Z</time></trkpt><trkpt lat="50.471178494642125" lon="3.231658609699055"><ele>45.4</ele><time>2026-04-11T12:33:04Z</time></trkpt><trkpt lat="50.471108025384424" lon="3.2317797063245286"><ele>45.599999999999994</ele><time>2026-04-11T12:33:06Z</time></trkpt><trkpt lat="50.47106081037111" lon="3.2318986703851103"><ele>45.8</ele><time>2026-04-11T12:33:08Z</time></trkpt><trkpt lat="50.47102123535603" lon="3.232047745692525"><ele>46.0</ele><time>2026-04-11T12:33:10Z</time></trkpt><trkpt lat="50.470978745796145" lon="3.23219620987735"><ele>45.8</ele><time>2026-04-11T12:33:12Z</time></trkpt><trkpt lat="50.47093674773408" lon="3.2323481742807165"><ele>45.599999999999994</ele><time>2026-04-11T12:33:14Z</time></trkpt><trkpt lat="50.470894347018074" lon="3.2325077417337487"><ele>45.4</ele><time>2026-04-11T12:33:16Z</time></trkpt><trkpt lat="50.47085063522107" lon="3.2326628755656417"><ele>45.2</ele><time>2026-04-11T12:33:18Z</time></trkpt><trkpt lat="50.47081323886703" lon="3.2328213586952317"><ele>45.0</ele><time>2026-04-11T12:33:20Z</time></trkpt><trkpt lat="50.4707732867965" lon="3.2329814228330487"><ele>45.25</ele><time>2026-04-11T12:33:22Z</time></trkpt><trkpt lat="50.47075153101734" lon="3.233152999504127"><ele>45.5</ele><time>2026-04-11T12:33:24Z</time></trkpt><trkpt lat="50.470744008007394" lon="3.2333360481039493"><ele>45.75</ele><time>2026-04-11T12:33:26Z</time></trkpt><trkpt lat="50.47076812694847" lon="3.233516745017935"><ele>46.0</ele><time>2026-04-11T12:33:28Z</time></trkpt><trkpt lat="50.47080222674538" lon="3.2336759793295307"><ele>46.0</ele><time>2026-04-11T12:33:30Z</time></trkpt><trkpt lat="50.470858028959356" lon="3.233782578479018"><ele>46.0</ele><time>2026-04-11T12:33:32Z</time></trkpt><trkpt lat="50.47094480728935" lon="3.2338826854674885"><ele>46.0</ele><time>2026-04-11T12:33:34Z</time></trkpt><trkpt lat="50.47102597212101" lon="3.233990055743138"><ele>46.0</ele><time>2026-04-11T12:33:36Z</time></trkpt><trkpt lat="50.471107403412454" lon="3.2341057565761986"><ele>46.0</ele><time>2026-04-11T12:33:38Z</time></trkpt><trkpt lat="50.471196653027185" lon="3.234215027232567"><ele>45.599999999999994</ele><time>2026-04-11T12:33:40Z</time></trkpt><trkpt lat="50.471287170565944" lon="3.2343337782725943"><ele>45.2</ele><time>2026-04-11T12:33:42Z</time></trkpt><trkpt lat="50.47137814122826" lon="3.2344574984471492"><ele>44.8</ele><time>2026-04-11T12:33:44Z</time></trkpt><trkpt lat="50.47145304465764" lon="3.2345590510427473"><ele>44.400000000000006</ele><time>2026-04-11T12:33:46Z</time></trkpt><trkpt lat="50.4715017333973" lon="3.2346526442979613"><ele>44.0</ele><time>2026-04-11T12:33:49Z</time></trkpt><trkpt lat="50.471544963154415" lon="3.2347274486459763"><ele>44.0</ele><time>2026-04-11T12:33:51Z</time></trkpt><trkpt lat="50.4716271528856" lon="3.234769871418748"><ele>44.0</ele><time>2026-04-11T12:33:52.999Z</time></trkpt><trkpt lat="50.471691654226454" lon="3.2348717387519312"><ele>44.0</ele><time>2026-04-11T12:33:54.999Z</time></trkpt><trkpt lat="50.471761435775115" lon="3.234973380128486"><ele>44.0</ele><time>2026-04-11T12:33:56.999Z</time></trkpt><trkpt lat="50.471837376126246" lon="3.2350735647608424"><ele>44.0</ele><time>2026-04-11T12:33:58.999Z</time></trkpt><trkpt lat="50.471917362005414" lon="3.235180569617691"><ele>44.2</ele><time>2026-04-11T12:34:00.999Z</time></trkpt><trkpt lat="50.47199643383743" lon="3.235286706240268"><ele>44.400000000000006</ele><time>2026-04-11T12:34:02.999Z</time></trkpt><trkpt lat="50.47207361603734" lon="3.2353944670756847"><ele>44.6</ele><time>2026-04-11T12:34:04.999Z</time></trkpt><trkpt lat="50.47215404032825" lon="3.235506009007511"><ele>44.8</ele><time>2026-04-11T12:34:06.999Z</time></trkpt><trkpt lat="50.47223308812724" lon="3.2356088280215793"><ele>45.0</ele><time>2026-04-11T12:34:08.999Z</time></trkpt><trkpt lat="50.47231083789308" lon="3.235716115061583"><ele>44.6</ele><time>2026-04-11T12:34:10.999Z</time></trkpt><trkpt lat="50.47239668997747" lon="3.2358254310743226"><ele>44.2</ele><time>2026-04-11T12:34:12.999Z</time></trkpt><trkpt lat="50.472467818356876" lon="3.235934754872273"><ele>43.8</ele><time>2026-04-11T12:34:14.999Z</time></trkpt><trkpt lat="50.47254869814124" lon="3.236040817639852"><ele>43.4</ele><time>2026-04-11T12:34:17Z</time></trkpt><trkpt lat="50.47260988506366" lon="3.236136755461075"><ele>43.0</ele><time>2026-04-11T12:34:19Z</time></trkpt><trkpt lat="50.4726610877487" lon="3.236201534123215"><ele>43.0</ele><time>2026-04-11T12:34:21Z</time></trkpt><trkpt lat="50.47276896112846" lon="3.2362758343485876"><ele>43.0</ele><time>2026-04-11T12:35:14Z</time></trkpt><trkpt lat="50.472832422486626" lon="3.2362090095136002"><ele>43.0</ele><time>2026-04-11T12:35:17Z</time></trkpt><trkpt lat="50.47288843725494" lon="3.2362815160187073"><ele>43.0</ele><time>2026-04-11T12:35:20Z</time></trkpt><trkpt lat="50.47294930711656" lon="3.2363848006820306"><ele>43.0</ele><time>2026-04-11T12:35:23Z</time></trkpt><trkpt lat="50.47300265089326" lon="3.236450276931573"><ele>43.0</ele><time>2026-04-11T12:35:25Z</time></trkpt><trkpt lat="50.47304783808777" lon="3.2365320699411733"><ele>42.8</ele><time>2026-04-11T12:35:27Z</time></trkpt><trkpt lat="50.47307912651309" lon="3.236673259922074"><ele>42.599999999999994</ele><time>2026-04-11T12:35:30Z</time></trkpt><trkpt lat="50.47309781092833" lon="3.236804059788564"><ele>42.400000000000006</ele><time>2026-04-11T12:35:32Z</time></trkpt><trkpt lat="50.47314414194568" lon="3.236935030127906"><ele>42.2</ele><time>2026-04-11T12:35:34Z</time></trkpt><trkpt lat="50.473193764745766" lon="3.2370764432489376"><ele>42.0</ele><time>2026-04-11T12:35:36Z</time></trkpt><trkpt lat="50.47324764534473" lon="3.237224136140127"><ele>42.0</ele><time>2026-04-11T12:35:38Z</time></trkpt><trkpt lat="50.47330411462321" lon="3.2373538804612108"><ele>42.0</ele><time>2026-04-11T12:35:40Z</time></trkpt><trkpt lat="50.473354886017326" lon="3.23750440302568"><ele>42.0</ele><time>2026-04-11T12:35:42Z</time></trkpt><trkpt lat="50.473411583979235" lon="3.237661394463068"><ele>42.0</ele><time>2026-04-11T12:35:44Z</time></trkpt><trkpt lat="50.4734501341556" lon="3.2378306297900172"><ele>42.0</ele><time>2026-04-11T12:35:46Z</time></trkpt><trkpt lat="50.47349360278191" lon="3.23800126852369"><ele>41.75</ele><time>2026-04-11T12:35:48Z</time></trkpt><trkpt lat="50.47347885223799" lon="3.238190806792673"><ele>41.5</ele><time>2026-04-11T12:35:50Z</time></trkpt><trkpt lat="50.47342367198007" lon="3.2383505236255323"><ele>41.25</ele><time>2026-04-11T12:35:52Z</time></trkpt><trkpt lat="50.47335946634143" lon="3.2385144717160324"><ele>41.0</ele><time>2026-04-11T12:35:54Z</time></trkpt><trkpt lat="50.473301541102074" lon="3.2386879588669344"><ele>41.0</ele><time>2026-04-11T12:35:56Z</time></trkpt><trkpt lat="50.47323981528554" lon="3.238855316565092"><ele>41.0</ele><time>2026-04-11T12:35:58Z</time></trkpt><trkpt lat="50.47318674515865" lon="3.239035819750581"><ele>41.0</ele><time>2026-04-11T12:36:00Z</time></trkpt><trkpt lat="50.47317523637675" lon="3.239136797971729"><ele>41.0</ele><time>2026-04-11T12:36:01Z</time></trkpt><trkpt lat="50.4732401225769" lon="3.2393153157367665"><ele>41.0</ele><time>2026-04-11T12:36:03Z</time></trkpt><trkpt lat="50.47328444808847" lon="3.239391088931689"><ele>41.0</ele><time>2026-04-11T12:36:04Z</time></trkpt><trkpt lat="50.473326734148216" lon="3.239464631060465"><ele>41.0</ele><time>2026-04-11T12:36:05Z</time></trkpt><trkpt lat="50.47340430911761" lon="3.2396155903415464"><ele>41.0</ele><time>2026-04-11T12:36:06.999Z</time></trkpt><trkpt lat="50.473457140749645" lon="3.239692234159757"><ele>41.0</ele><time>2026-04-11T12:36:07.999Z</time></trkpt><trkpt lat="50.47350503675971" lon="3.23975701248793"><ele>41.0</ele><time>2026-04-11T12:36:08.999Z</time></trkpt><trkpt lat="50.47359750850369" lon="3.2398902225885173"><ele>41.0</ele><time>2026-04-11T12:36:10.999Z</time></trkpt><trkpt lat="50.473648847456886" lon="3.2399544191387903"><ele>41.14285714285714</ele><time>2026-04-11T12:36:11.999Z</time></trkpt><trkpt lat="50.4737090864306" lon="3.240014316207546"><ele>41.285714285714285</ele><time>2026-04-11T12:36:12.999Z</time></trkpt><trkpt lat="50.4737727880606" lon="3.24008028913085"><ele>41.42857142857143</ele><time>2026-04-11T12:36:13.999Z</time></trkpt><trkpt lat="50.47382464557982" lon="3.2401604850998944"><ele>41.57142857142857</ele><time>2026-04-11T12:36:14.999Z</time></trkpt><trkpt lat="50.473878125162344" lon="3.2402356968093864"><ele>41.714285714285715</ele><time>2026-04-11T12:36:15.999Z</time></trkpt><trkpt lat="50.47393842155188" lon="3.240307213024663"><ele>41.857142857142854</ele><time>2026-04-11T12:36:16.999Z</time></trkpt><trkpt lat="50.47400241686396" lon="3.240380070354349"><ele>42.0</ele><time>2026-04-11T12:36:17.999Z</time></trkpt><trkpt lat="50.47405953609594" lon="3.240458355068134"><ele>41.833333333333336</ele><time>2026-04-11T12:36:18.999Z</time></trkpt><trkpt lat="50.4741170589781" lon="3.2405276594734542"><ele>41.666666666666664</ele><time>2026-04-11T12:36:19.999Z</time></trkpt><trkpt lat="50.4741707058693" lon="3.24060193430852"><ele>41.5</ele><time>2026-04-11T12:36:20.999Z</time></trkpt><trkpt lat="50.47422519757284" lon="3.2406830023563025"><ele>41.33333333333333</ele><time>2026-04-11T12:36:22Z</time></trkpt><trkpt lat="50.47427881152554" lon="3.2407520963250898"><ele>41.166666666666664</ele><time>2026-04-11T12:36:23Z</time></trkpt><trkpt lat="50.47432226744258" lon="3.2408298687967223"><ele>41.0</ele><time>2026-04-11T12:36:24Z</time></trkpt><trkpt lat="50.47439465706406" lon="3.240944931922297"><ele>41.0</ele><time>2026-04-11T12:36:26Z</time></trkpt><trkpt lat="50.47445755620715" lon="3.2410341008223735"><ele>41.0</ele><time>2026-04-11T12:36:28Z</time></trkpt><trkpt lat="50.474446334392525" lon="3.241168806835126"><ele>41.0</ele><time>2026-04-11T12:36:30Z</time></trkpt><trkpt lat="50.47436182077391" lon="3.241280000855007"><ele>41.0</ele><time>2026-04-11T12:36:32Z</time></trkpt><trkpt lat="50.47428333552555" lon="3.2413963361661375"><ele>41.0</ele><time>2026-04-11T12:36:34Z</time></trkpt><trkpt lat="50.47420816683636" lon="3.241522705495604"><ele>41.25</ele><time>2026-04-11T12:36:36Z</time></trkpt><trkpt lat="50.47412934685412" lon="3.241646636125185"><ele>41.5</ele><time>2026-04-11T12:36:38Z</time></trkpt><trkpt lat="50.47404880187689" lon="3.241769509574979"><ele>41.75</ele><time>2026-04-11T12:36:40Z</time></trkpt><trkpt lat="50.47396228557775" lon="3.2418786199057945"><ele>42.0</ele><time>2026-04-11T12:36:42Z</time></trkpt><trkpt lat="50.47387264107946" lon="3.241995888151323"><ele>42.0</ele><time>2026-04-11T12:36:44Z</time></trkpt><trkpt lat="50.47378574142625" lon="3.242102288983056"><ele>42.0</ele><time>2026-04-11T12:36:46Z</time></trkpt><trkpt lat="50.47370377238474" lon="3.2422163124836785"><ele>42.0</ele><time>2026-04-11T12:36:48Z</time></trkpt><trkpt lat="50.47361532092489" lon="3.2423240010778374"><ele>42.0</ele><time>2026-04-11T12:36:50Z</time></trkpt><trkpt lat="50.473534205925674" lon="3.242426124327627"><ele>42.0</ele><time>2026-04-11T12:36:52Z</time></trkpt><trkpt lat="50.47344672752449" lon="3.242535881280937"><ele>41.75</ele><time>2026-04-11T12:36:54Z</time></trkpt><trkpt lat="50.47336441568481" lon="3.2426402736014723"><ele>41.5</ele><time>2026-04-11T12:36:56Z</time></trkpt><trkpt lat="50.473278162220055" lon="3.242757269762961"><ele>41.25</ele><time>2026-04-11T12:36:58Z</time></trkpt><trkpt lat="50.473190062808854" lon="3.242869783532909"><ele>41.0</ele><time>2026-04-11T12:37:00Z</time></trkpt><trkpt lat="50.47309553000688" lon="3.2429797436777057"><ele>41.0</ele><time>2026-04-11T12:37:02Z</time></trkpt><trkpt lat="50.473005021391714" lon="3.24309724459055"><ele>41.0</ele><time>2026-04-11T12:37:04Z</time></trkpt><trkpt lat="50.472917254686706" lon="3.2432012124297684"><ele>41.0</ele><time>2026-04-11T12:37:06Z</time></trkpt><trkpt lat="50.47283320766806" lon="3.24330448370599"><ele>41.0</ele><time>2026-04-11T12:37:08Z</time></trkpt><trkpt lat="50.472734937757224" lon="3.243399995540886"><ele>40.4</ele><time>2026-04-11T12:37:10Z</time></trkpt><trkpt lat="50.47268152027409" lon="3.243454106678999"><ele>39.8</ele><time>2026-04-11T12:37:11Z</time></trkpt><trkpt lat="50.47257888054777" lon="3.2435339257368105"><ele>39.199999999999996</ele><time>2026-04-11T12:37:13Z</time></trkpt><trkpt lat="50.47247979636842" lon="3.243611421952497"><ele>38.599999999999994</ele><time>2026-04-11T12:37:15Z</time></trkpt><trkpt lat="50.472385236872775" lon="3.2437013807889064"><ele>38.0</ele><time>2026-04-11T12:37:17Z</time></trkpt><trkpt lat="50.47228964125287" lon="3.24378183072668"><ele>38.0</ele><time>2026-04-11T12:37:19Z</time></trkpt><trkpt lat="50.472183857207966" lon="3.243849929749272"><ele>38.0</ele><time>2026-04-11T12:37:21Z</time></trkpt><trkpt lat="50.472082935738094" lon="3.243918668264629"><ele>38.0</ele><time>2026-04-11T12:37:23Z</time></trkpt><trkpt lat="50.47198425181695" lon="3.2439945288317986"><ele>38.0</ele><time>2026-04-11T12:37:25Z</time></trkpt><trkpt lat="50.471876328863594" lon="3.2440637364525733"><ele>38.199999999999996</ele><time>2026-04-11T12:37:27Z</time></trkpt><trkpt lat="50.47177440980361" lon="3.2441344428008736"><ele>38.4</ele><time>2026-04-11T12:37:29Z</time></trkpt><trkpt lat="50.47167423624275" lon="3.2442035272424894"><ele>38.599999999999994</ele><time>2026-04-11T12:37:31Z</time></trkpt><trkpt lat="50.471568861556335" lon="3.2442807306245087"><ele>38.8</ele><time>2026-04-11T12:37:33Z</time></trkpt><trkpt lat="50.47147157002208" lon="3.2443494036180933"><ele>39.0</ele><time>2026-04-11T12:37:35Z</time></trkpt><trkpt lat="50.47137350035085" lon="3.2444111115387417"><ele>39.0</ele><time>2026-04-11T12:37:37Z</time></trkpt><trkpt lat="50.47127759736644" lon="3.2444951270982405"><ele>39.0</ele><time>2026-04-11T12:37:39Z</time></trkpt><trkpt lat="50.471189447629015" lon="3.2445387932493386"><ele>39.0</ele><time>2026-04-11T12:37:41Z</time></trkpt><trkpt lat="50.47112599625995" lon="3.2446362301373934"><ele>39.0</ele><time>2026-04-11T12:37:43Z</time></trkpt><trkpt lat="50.47115858538616" lon="3.2448008982475876"><ele>39.0</ele><time>2026-04-11T12:37:45Z</time></trkpt><trkpt lat="50.47122954086443" lon="3.2449201116857065"><ele>38.5</ele><time>2026-04-11T12:37:47Z</time></trkpt><trkpt lat="50.4712986614455" lon="3.245054236688552"><ele>38.0</ele><time>2026-04-11T12:37:49Z</time></trkpt><trkpt lat="50.47135045900195" lon="3.245211580039387"><ele>37.5</ele><time>2026-04-11T12:37:51Z</time></trkpt><trkpt lat="50.471416473495566" lon="3.245370219538182"><ele>37.0</ele><time>2026-04-11T12:37:53Z</time></trkpt><trkpt lat="50.471479087530106" lon="3.2455440017584483"><ele>36.833333333333336</ele><time>2026-04-11T12:37:55Z</time></trkpt><trkpt lat="50.47153756760882" lon="3.2457150265055157"><ele>36.66666666666667</ele><time>2026-04-11T12:37:57Z</time></trkpt><trkpt lat="50.471574688762026" lon="3.2457975590731825"><ele>36.5</ele><time>2026-04-11T12:37:58Z</time></trkpt><trkpt lat="50.47161415465188" lon="3.24587762407359"><ele>36.333333333333336</ele><time>2026-04-11T12:37:59Z</time></trkpt><trkpt lat="50.47164820873751" lon="3.245972294225904"><ele>36.166666666666664</ele><time>2026-04-11T12:38:00Z</time></trkpt><trkpt lat="50.47167986166149" lon="3.2460688076019317"><ele>36.0</ele><time>2026-04-11T12:38:01Z</time></trkpt><trkpt lat="50.47169488113379" lon="3.2461679717246534"><ele>36.00000000000001</ele><time>2026-04-11T12:38:02Z</time></trkpt><trkpt lat="50.47169124895169" lon="3.2462719453714883"><ele>36.0</ele><time>2026-04-11T12:38:03Z</time></trkpt><trkpt lat="50.47167203530513" lon="3.246378725106354"><ele>36.0</ele><time>2026-04-11T12:38:04Z</time></trkpt><trkpt lat="50.47164150108283" lon="3.246474948839602"><ele>36.0</ele><time>2026-04-11T12:38:05Z</time></trkpt><trkpt lat="50.47160320381956" lon="3.246563050748287"><ele>36.0</ele><time>2026-04-11T12:38:06Z</time></trkpt><trkpt lat="50.47156177726612" lon="3.2466485304906434"><ele>36.00000000000001</ele><time>2026-04-11T12:38:07Z</time></trkpt><trkpt lat="50.47151944152196" lon="3.2467376922701585"><ele>36.0</ele><time>2026-04-11T12:38:08Z</time></trkpt><trkpt lat="50.47147649685627" lon="3.2468200002199374"><ele>36.00000000000001</ele><time>2026-04-11T12:38:09Z</time></trkpt><trkpt lat="50.471431035779574" lon="3.2468924997238138"><ele>36.0</ele><time>2026-04-11T12:38:10Z</time></trkpt><trkpt lat="50.47138658401327" lon="3.246974322559564"><ele>36.0</ele><time>2026-04-11T12:38:11Z</time></trkpt><trkpt lat="50.47133711518705" lon="3.247055353930386"><ele>36.0</ele><time>2026-04-11T12:38:12Z</time></trkpt><trkpt lat="50.47128743301395" lon="3.247128397491079"><ele>36.0</ele><time>2026-04-11T12:38:13Z</time></trkpt><trkpt lat="50.471241641669586" lon="3.2472066672403272"><ele>36.00000000000001</ele><time>2026-04-11T12:38:13.999Z</time></trkpt><trkpt lat="50.47119283967468" lon="3.2472807886198147"><ele>36.0</ele><time>2026-04-11T12:38:14.999Z</time></trkpt><trkpt lat="50.471147539436046" lon="3.2473514662973235"><ele>36.00000000000001</ele><time>2026-04-11T12:38:15.999Z</time></trkpt><trkpt lat="50.471098599108004" lon="3.2474378431786337"><ele>36.0</ele><time>2026-04-11T12:38:16.999Z</time></trkpt><trkpt lat="50.471048239138284" lon="3.2475054447892124"><ele>36.0</ele><time>2026-04-11T12:38:17.999Z</time></trkpt><trkpt lat="50.471003824429644" lon="3.247583251615485"><ele>36.0</ele><time>2026-04-11T12:38:18.999Z</time></trkpt><trkpt lat="50.47095888020725" lon="3.2476681220429398"><ele>36.0</ele><time>2026-04-11T12:38:19.999Z</time></trkpt><trkpt lat="50.47091911411946" lon="3.247748817590306"><ele>36.00000000000001</ele><time>2026-04-11T12:38:20.999Z</time></trkpt><trkpt lat="50.470874153362494" lon="3.2478231869605745"><ele>36.0</ele><time>2026-04-11T12:38:21.999Z</time></trkpt><trkpt lat="50.470823914154984" lon="3.247895179925661"><ele>36.00000000000001</ele><time>2026-04-11T12:38:22.999Z</time></trkpt><trkpt lat="50.470783645151975" lon="3.247978466479436"><ele>36.0</ele><time>2026-04-11T12:38:23.999Z</time></trkpt><trkpt lat="50.470742238144254" lon="3.248059230014541"><ele>36.0</ele><time>2026-04-11T12:38:24.999Z</time></trkpt><trkpt lat="50.47069274663076" lon="3.2481337598626943"><ele>36.0</ele><time>2026-04-11T12:38:25.999Z</time></trkpt><trkpt lat="50.470643670559596" lon="3.2482096226234"><ele>36.0</ele><time>2026-04-11T12:38:26.999Z</time></trkpt><trkpt lat="50.47060312254066" lon="3.248310881048466"><ele>36.00000000000001</ele><time>2026-04-11T12:38:28Z</time></trkpt><trkpt lat="50.470553973044375" lon="3.248399079985743"><ele>36.0</ele><time>2026-04-11T12:38:29Z</time></trkpt><trkpt lat="50.470502719911146" lon="3.248476208521417"><ele>35.833333333333336</ele><time>2026-04-11T12:38:30Z</time></trkpt><trkpt lat="50.470448308316435" lon="3.2485517230046614"><ele>35.666666666666664</ele><time>2026-04-11T12:38:31Z</time></trkpt><trkpt lat="50.47039570815693" lon="3.248638221593144"><ele>35.5</ele><time>2026-04-11T12:38:32Z</time></trkpt><trkpt lat="50.470348241322036" lon="3.2487306662505713"><ele>35.33333333333333</ele><time>2026-04-11T12:38:33Z</time></trkpt><trkpt lat="50.4702952133802" lon="3.248814612311863"><ele>35.166666666666664</ele><time>2026-04-11T12:38:34Z</time></trkpt><trkpt lat="50.47023726978054" lon="3.2488974270875497"><ele>35.0</ele><time>2026-04-11T12:38:35Z</time></trkpt><trkpt lat="50.47018062049676" lon="3.2489833680403266"><ele>34.666666666666664</ele><time>2026-04-11T12:38:36Z</time></trkpt><trkpt lat="50.47011911827373" lon="3.249060754517697"><ele>34.33333333333333</ele><time>2026-04-11T12:38:37Z</time></trkpt><trkpt lat="50.47005472429405" lon="3.2491365065358497"><ele>34.0</ele><time>2026-04-11T12:38:38Z</time></trkpt><trkpt lat="50.46998843502897" lon="3.2492075802553524"><ele>33.666666666666664</ele><time>2026-04-11T12:38:39Z</time></trkpt><trkpt lat="50.46991903087158" lon="3.2492709348908857"><ele>33.333333333333336</ele><time>2026-04-11T12:38:40Z</time></trkpt><trkpt lat="50.469847944075326" lon="3.2493356352652194"><ele>33.0</ele><time>2026-04-11T12:38:41Z</time></trkpt><trkpt lat="50.469781198214875" lon="3.249401599248685"><ele>33.0</ele><time>2026-04-11T12:38:42Z</time></trkpt><trkpt lat="50.469716621004565" lon="3.2494684129794265"><ele>33.0</ele><time>2026-04-11T12:38:43Z</time></trkpt><trkpt lat="50.46965382624165" lon="3.249536687020766"><ele>33.0</ele><time>2026-04-11T12:38:44Z</time></trkpt><trkpt lat="50.469593076247655" lon="3.249607876854945"><ele>33.0</ele><time>2026-04-11T12:38:45Z</time></trkpt><trkpt lat="50.46953734667652" lon="3.249689915074416"><ele>33.0</ele><time>2026-04-11T12:38:46Z</time></trkpt><trkpt lat="50.4694856038476" lon="3.2497784492198565"><ele>33.0</ele><time>2026-04-11T12:38:47Z</time></trkpt><trkpt lat="50.46943407061588" lon="3.2498693376260106"><ele>32.857142857142854</ele><time>2026-04-11T12:38:48Z</time></trkpt><trkpt lat="50.46938436366478" lon="3.2499573093729723"><ele>32.714285714285715</ele><time>2026-04-11T12:38:49Z</time></trkpt><trkpt lat="50.46933805314668" lon="3.250047498957425"><ele>32.57142857142857</ele><time>2026-04-11T12:38:50Z</time></trkpt><trkpt lat="50.46929570783462" lon="3.2501437177824437"><ele>32.42857142857143</ele><time>2026-04-11T12:38:51Z</time></trkpt><trkpt lat="50.469251124898776" lon="3.2502420903110414"><ele>32.285714285714285</ele><time>2026-04-11T12:38:52Z</time></trkpt><trkpt lat="50.46920631938592" lon="3.250333143197788"><ele>32.14285714285714</ele><time>2026-04-11T12:38:53Z</time></trkpt><trkpt lat="50.469163339353386" lon="3.2504304411763614"><ele>32.0</ele><time>2026-04-11T12:38:54Z</time></trkpt><trkpt lat="50.46912450805789" lon="3.250523346812004"><ele>32.0</ele><time>2026-04-11T12:38:55Z</time></trkpt><trkpt lat="50.46907858458697" lon="3.2506239539195656"><ele>31.999999999999996</ele><time>2026-04-11T12:38:56Z</time></trkpt><trkpt lat="50.469031394790484" lon="3.2507160764629135"><ele>32.0</ele><time>2026-04-11T12:38:57Z</time></trkpt><trkpt lat="50.46898297659063" lon="3.25080586353378"><ele>32.0</ele><time>2026-04-11T12:38:58Z</time></trkpt><trkpt lat="50.46894005649078" lon="3.2508965910675878"><ele>31.999999999999996</ele><time>2026-04-11T12:38:59Z</time></trkpt><trkpt lat="50.46889688575398" lon="3.2509907996609373"><ele>32.0</ele><time>2026-04-11T12:39:00Z</time></trkpt><trkpt lat="50.4688551717291" lon="3.2510875021065395"><ele>32.0</ele><time>2026-04-11T12:39:01Z</time></trkpt><trkpt lat="50.46881232016874" lon="3.2511739552634378"><ele>31.857142857142854</ele><time>2026-04-11T12:39:02Z</time></trkpt><trkpt lat="50.468767610137625" lon="3.251267344447812"><ele>31.71428571428571</ele><time>2026-04-11T12:39:03Z</time></trkpt><trkpt lat="50.46872643565927" lon="3.2513589302425436"><ele>31.57142857142857</ele><time>2026-04-11T12:39:04Z</time></trkpt><trkpt lat="50.46868166759702" lon="3.2514438524477485"><ele>31.42857142857143</ele><time>2026-04-11T12:39:05Z</time></trkpt><trkpt lat="50.46864057944572" lon="3.251535878054676"><ele>31.28571428571429</ele><time>2026-04-11T12:39:06Z</time></trkpt><trkpt lat="50.46859430086525" lon="3.251623272246857"><ele>31.142857142857146</ele><time>2026-04-11T12:39:07Z</time></trkpt><trkpt lat="50.468547343772855" lon="3.251710178976107"><ele>31.0</ele><time>2026-04-11T12:39:08Z</time></trkpt><trkpt lat="50.46850350677579" lon="3.2517980515871026"><ele>30.857142857142858</ele><time>2026-04-11T12:39:09Z</time></trkpt><trkpt lat="50.46846860372709" lon="3.2518909081917413"><ele>30.714285714285715</ele><time>2026-04-11T12:39:10Z</time></trkpt><trkpt lat="50.46842532329576" lon="3.251983586079907"><ele>30.571428571428573</ele><time>2026-04-11T12:39:11Z</time></trkpt><trkpt lat="50.46838044698115" lon="3.2520667267535517"><ele>30.42857142857143</ele><time>2026-04-11T12:39:12Z</time></trkpt><trkpt lat="50.46834347510458" lon="3.2521556238155536"><ele>30.285714285714285</ele><time>2026-04-11T12:39:13Z</time></trkpt><trkpt lat="50.468301131947584" lon="3.2522463258542333"><ele>30.142857142857146</ele><time>2026-04-11T12:39:14Z</time></trkpt><trkpt lat="50.46825895187765" lon="3.252320460102409"><ele>30.0</ele><time>2026-04-11T12:39:15Z</time></trkpt><trkpt lat="50.46821873316511" lon="3.252415151067071"><ele>30.0</ele><time>2026-04-11T12:39:16Z</time></trkpt><trkpt lat="50.46818113524715" lon="3.2525023780720876"><ele>30.0</ele><time>2026-04-11T12:39:17Z</time></trkpt><trkpt lat="50.468124100122004" lon="3.2526837725308577"><ele>30.0</ele><time>2026-04-11T12:39:19Z</time></trkpt><trkpt lat="50.46807926996505" lon="3.2527577844625473"><ele>30.0</ele><time>2026-04-11T12:39:20Z</time></trkpt><trkpt lat="50.467994131047426" lon="3.2528508569156727"><ele>30.0</ele><time>2026-04-11T12:39:22Z</time></trkpt><trkpt lat="50.467885257650885" lon="3.2528210412355305"><ele>30.0</ele><time>2026-04-11T12:39:24Z</time></trkpt><trkpt lat="50.4677755040978" lon="3.2527962375049957"><ele>30.0</ele><time>2026-04-11T12:39:26Z</time></trkpt><trkpt lat="50.46769541345282" lon="3.2528288471987015"><ele>30.0</ele><time>2026-04-11T12:39:28Z</time></trkpt><trkpt lat="50.46763396583404" lon="3.2529863687669263"><ele>30.0</ele><time>2026-04-11T12:39:30Z</time></trkpt><trkpt lat="50.46761542907525" lon="3.253163713375677"><ele>30.0</ele><time>2026-04-11T12:39:32Z</time></trkpt><trkpt lat="50.467685275941" lon="3.253320852598831"><ele>30.2</ele><time>2026-04-11T12:39:34Z</time></trkpt><trkpt lat="50.46774192342291" lon="3.253487955830274"><ele>30.4</ele><time>2026-04-11T12:39:36Z</time></trkpt><trkpt lat="50.46770174365843" lon="3.2536856175913034"><ele>30.6</ele><time>2026-04-11T12:39:38Z</time></trkpt><trkpt lat="50.467667136184154" lon="3.2537720984498955"><ele>30.8</ele><time>2026-04-11T12:39:39Z</time></trkpt><trkpt lat="50.46763483712267" lon="3.2538585786637872"><ele>31.0</ele><time>2026-04-11T12:39:40Z</time></trkpt><trkpt lat="50.46758066337167" lon="3.254038542990582"><ele>31.000000000000004</ele><time>2026-04-11T12:39:42Z</time></trkpt><trkpt lat="50.46755821611279" lon="3.254131370575462"><ele>31.0</ele><time>2026-04-11T12:39:43Z</time></trkpt><trkpt lat="50.46752777298201" lon="3.2542224800376305"><ele>31.0</ele><time>2026-04-11T12:39:44Z</time></trkpt><trkpt lat="50.46747230114205" lon="3.254396823676669"><ele>31.0</ele><time>2026-04-11T12:39:46Z</time></trkpt><trkpt lat="50.467425629049536" lon="3.254574063234508"><ele>31.000000000000004</ele><time>2026-04-11T12:39:48Z</time></trkpt><trkpt lat="50.467401152318" lon="3.254667640312276"><ele>31.0</ele><time>2026-04-11T12:39:49Z</time></trkpt><trkpt lat="50.467374961386184" lon="3.254758642719702"><ele>30.714285714285715</ele><time>2026-04-11T12:39:50Z</time></trkpt><trkpt lat="50.46734851551278" lon="3.2548502878261685"><ele>30.42857142857143</ele><time>2026-04-11T12:39:51Z</time></trkpt><trkpt lat="50.46732230415772" lon="3.254945088959671"><ele>30.142857142857146</ele><time>2026-04-11T12:39:52Z</time></trkpt><trkpt lat="50.46729933198363" lon="3.255042946705475"><ele>29.85714285714286</ele><time>2026-04-11T12:39:53Z</time></trkpt><trkpt lat="50.46727502528081" lon="3.2551387279324167"><ele>29.571428571428573</ele><time>2026-04-11T12:39:54Z</time></trkpt><trkpt lat="50.46724996864299" lon="3.255231919111387"><ele>29.285714285714292</ele><time>2026-04-11T12:39:55Z</time></trkpt><trkpt lat="50.467211213817436" lon="3.255320894281399"><ele>29.000000000000004</ele><time>2026-04-11T12:39:56Z</time></trkpt><trkpt lat="50.46717117784952" lon="3.2554088858431482"><ele>29.000000000000004</ele><time>2026-04-11T12:39:57Z</time></trkpt><trkpt lat="50.467144907293026" lon="3.2555029354594365"><ele>29.0</ele><time>2026-04-11T12:39:58Z</time></trkpt><trkpt lat="50.46712612230705" lon="3.2556029450439845"><ele>29.000000000000004</ele><time>2026-04-11T12:39:59Z</time></trkpt><trkpt lat="50.467103735077245" lon="3.255708141011312"><ele>29.000000000000004</ele><time>2026-04-11T12:40:00Z</time></trkpt><trkpt lat="50.46708363342323" lon="3.2558109620831526"><ele>29.0</ele><time>2026-04-11T12:40:01Z</time></trkpt><trkpt lat="50.46706408055883" lon="3.255908836927756"><ele>29.000000000000004</ele><time>2026-04-11T12:40:02Z</time></trkpt><trkpt lat="50.46704469682112" lon="3.256012852873823"><ele>29.000000000000004</ele><time>2026-04-11T12:40:03Z</time></trkpt><trkpt lat="50.46702182013216" lon="3.2561066553243725"><ele>29.000000000000004</ele><time>2026-04-11T12:40:04Z</time></trkpt><trkpt lat="50.466997933462885" lon="3.2562095793966193"><ele>29.0</ele><time>2026-04-11T12:40:05Z</time></trkpt><trkpt lat="50.46697391968204" lon="3.256303400541971"><ele>29.000000000000004</ele><time>2026-04-11T12:40:06Z</time></trkpt><trkpt lat="50.46694936317819" lon="3.256400561248447"><ele>29.000000000000004</ele><time>2026-04-11T12:40:07Z</time></trkpt><trkpt lat="50.4669172697686" lon="3.256488585854832"><ele>29.0</ele><time>2026-04-11T12:40:08Z</time></trkpt><trkpt lat="50.466884429616414" lon="3.2565783610801255"><ele>29.000000000000004</ele><time>2026-04-11T12:40:09Z</time></trkpt><trkpt lat="50.46685512250606" lon="3.256670675014052"><ele>29.000000000000004</ele><time>2026-04-11T12:40:10Z</time></trkpt><trkpt lat="50.46683156796197" lon="3.2567735307624766"><ele>28.799999999999997</ele><time>2026-04-11T12:40:11Z</time></trkpt><trkpt lat="50.46680907608224" lon="3.256869602507658"><ele>28.599999999999998</ele><time>2026-04-11T12:40:12Z</time></trkpt><trkpt lat="50.46675976728829" lon="3.2570527551093673"><ele>28.4</ele><time>2026-04-11T12:40:14Z</time></trkpt><trkpt lat="50.46671528099937" lon="3.2572259282360996"><ele>28.2</ele><time>2026-04-11T12:40:16Z</time></trkpt><trkpt lat="50.46667284554592" lon="3.2574123773168937"><ele>28.0</ele><time>2026-04-11T12:40:18Z</time></trkpt><trkpt lat="50.46665811202983" lon="3.257512631801225"><ele>27.75</ele><time>2026-04-11T12:40:19Z</time></trkpt><trkpt lat="50.46664815171008" lon="3.257688230345948"><ele>27.5</ele><time>2026-04-11T12:40:21Z</time></trkpt><trkpt lat="50.466613949059315" lon="3.257853906975862"><ele>27.25</ele><time>2026-04-11T12:40:23Z</time></trkpt><trkpt lat="50.466572138079215" lon="3.258018024882274"><ele>27.0</ele><time>2026-04-11T12:40:25Z</time></trkpt><trkpt lat="50.46652573041075" lon="3.2581834491149446"><ele>26.8</ele><time>2026-04-11T12:40:27Z</time></trkpt><trkpt lat="50.46648366347399" lon="3.2583557416076756"><ele>26.6</ele><time>2026-04-11T12:40:29Z</time></trkpt><trkpt lat="50.46643933046512" lon="3.258527630872475"><ele>26.400000000000002</ele><time>2026-04-11T12:40:31Z</time></trkpt><trkpt lat="50.46641434981234" lon="3.258618988615518"><ele>26.200000000000003</ele><time>2026-04-11T12:40:32Z</time></trkpt><trkpt lat="50.46637449730873" lon="3.2587970464915688"><ele>26.0</ele><time>2026-04-11T12:40:34Z</time></trkpt><trkpt lat="50.46632128703177" lon="3.2589731504747226"><ele>26.200000000000003</ele><time>2026-04-11T12:40:36Z</time></trkpt><trkpt lat="50.46627229567761" lon="3.2591549234877073"><ele>26.400000000000002</ele><time>2026-04-11T12:40:38Z</time></trkpt><trkpt lat="50.46624869288157" lon="3.259247788845441"><ele>26.6</ele><time>2026-04-11T12:40:39Z</time></trkpt><trkpt lat="50.46620277943777" lon="3.259431080841505"><ele>26.8</ele><time>2026-04-11T12:40:41Z</time></trkpt><trkpt lat="50.46617881911421" lon="3.259526486418607"><ele>27.0</ele><time>2026-04-11T12:40:42Z</time></trkpt><trkpt lat="50.46613255463203" lon="3.2597115792406957"><ele>27.0</ele><time>2026-04-11T12:40:44Z</time></trkpt><trkpt lat="50.46610939827004" lon="3.2598078012440848"><ele>27.0</ele><time>2026-04-11T12:40:45Z</time></trkpt><trkpt lat="50.46608077566431" lon="3.259896971635042"><ele>27.0</ele><time>2026-04-11T12:40:46Z</time></trkpt><trkpt lat="50.46605383147239" lon="3.2599895962320113"><ele>27.0</ele><time>2026-04-11T12:40:47Z</time></trkpt><trkpt lat="50.46602729712301" lon="3.2600967936621412"><ele>27.0</ele><time>2026-04-11T12:40:48Z</time></trkpt><trkpt lat="50.466005401858474" lon="3.2601912840741822"><ele>27.0</ele><time>2026-04-11T12:40:49Z</time></trkpt><trkpt lat="50.4659866522659" lon="3.260291854388388"><ele>27.0</ele><time>2026-04-11T12:40:50Z</time></trkpt><trkpt lat="50.46596079355239" lon="3.260386509497225"><ele>27.0</ele><time>2026-04-11T12:40:51Z</time></trkpt><trkpt lat="50.465935743872805" lon="3.26048463478489"><ele>27.0</ele><time>2026-04-11T12:40:52Z</time></trkpt><trkpt lat="50.46591444199311" lon="3.2605843067427327"><ele>27.0</ele><time>2026-04-11T12:40:53Z</time></trkpt><trkpt lat="50.465889857627936" lon="3.2606854047468246"><ele>27.0</ele><time>2026-04-11T12:40:54Z</time></trkpt><trkpt lat="50.46586766223533" lon="3.260787686995998"><ele>27.0</ele><time>2026-04-11T12:40:55Z</time></trkpt><trkpt lat="50.465845557626785" lon="3.2608886722357378"><ele>27.0</ele><time>2026-04-11T12:40:56Z</time></trkpt><trkpt lat="50.46582392758703" lon="3.2609870404315537"><ele>27.0</ele><time>2026-04-11T12:40:57Z</time></trkpt><trkpt lat="50.465801643207435" lon="3.261084608422046"><ele>26.714285714285715</ele><time>2026-04-11T12:40:58Z</time></trkpt><trkpt lat="50.46577817222647" lon="3.261180223878226"><ele>26.428571428571427</ele><time>2026-04-11T12:40:59Z</time></trkpt><trkpt lat="50.46575724866553" lon="3.261282222265467"><ele>26.142857142857146</ele><time>2026-04-11T12:41:00Z</time></trkpt><trkpt lat="50.465736622232846" lon="3.2613782245696408"><ele>25.857142857142858</ele><time>2026-04-11T12:41:01Z</time></trkpt><trkpt lat="50.465711544537754" lon="3.261475035056951"><ele>25.571428571428573</ele><time>2026-04-11T12:41:02Z</time></trkpt><trkpt lat="50.465683195985406" lon="3.261567636035274"><ele>25.28571428571429</ele><time>2026-04-11T12:41:03Z</time></trkpt><trkpt lat="50.46565608367465" lon="3.2616619102796522"><ele>25.0</ele><time>2026-04-11T12:41:04Z</time></trkpt><trkpt lat="50.46562854837239" lon="3.261755096938865"><ele>25.0</ele><time>2026-04-11T12:41:05Z</time></trkpt><trkpt lat="50.465565760242754" lon="3.2619264516403375"><ele>25.0</ele><time>2026-04-11T12:41:07Z</time></trkpt><trkpt lat="50.465452847023066" lon="3.261965216158503"><ele>25.0</ele><time>2026-04-11T12:41:09Z</time></trkpt><trkpt lat="50.465366562502865" lon="3.262057746836935"><ele>25.0</ele><time>2026-04-11T12:41:11Z</time></trkpt><trkpt lat="50.46535733192163" lon="3.2621590119622557"><ele>25.0</ele><time>2026-04-11T12:41:12Z</time></trkpt><trkpt lat="50.46540556718691" lon="3.262323933202693"><ele>25.000000000000004</ele><time>2026-04-11T12:41:14Z</time></trkpt><trkpt lat="50.465441444847265" lon="3.2624999545202935"><ele>25.0</ele><time>2026-04-11T12:41:16Z</time></trkpt><trkpt lat="50.465383899086966" lon="3.262678891932317"><ele>25.0</ele><time>2026-04-11T12:41:18Z</time></trkpt><trkpt lat="50.4653563142744" lon="3.262772548618875"><ele>25.0</ele><time>2026-04-11T12:41:19Z</time></trkpt><trkpt lat="50.46532757542438" lon="3.2628641006259644"><ele>25.000000000000004</ele><time>2026-04-11T12:41:20Z</time></trkpt><trkpt lat="50.46529837353878" lon="3.2629621227678562"><ele>25.0</ele><time>2026-04-11T12:41:21Z</time></trkpt><trkpt lat="50.46527425975386" lon="3.2630553261504187"><ele>25.000000000000004</ele><time>2026-04-11T12:41:22Z</time></trkpt><trkpt lat="50.46524540471585" lon="3.2631504563882867"><ele>25.0</ele><time>2026-04-11T12:41:23Z</time></trkpt><trkpt lat="50.46521383762499" lon="3.2632452812506663"><ele>25.0</ele><time>2026-04-11T12:41:24Z</time></trkpt><trkpt lat="50.46518594079995" lon="3.2633353062302985"><ele>25.0</ele><time>2026-04-11T12:41:25Z</time></trkpt><trkpt lat="50.46515918906627" lon="3.263434886760651"><ele>25.0</ele><time>2026-04-11T12:41:26Z</time></trkpt><trkpt lat="50.46513546076259" lon="3.2635404726085175"><ele>25.000000000000004</ele><time>2026-04-11T12:41:27Z</time></trkpt><trkpt lat="50.46510844576578" lon="3.2636422638415725"><ele>25.0</ele><time>2026-04-11T12:41:28Z</time></trkpt><trkpt lat="50.4650809421187" lon="3.263740999805792"><ele>25.000000000000004</ele><time>2026-04-11T12:41:29Z</time></trkpt><trkpt lat="50.46505257168036" lon="3.2638422238225386"><ele>25.0</ele><time>2026-04-11T12:41:30Z</time></trkpt><trkpt lat="50.465026432459595" lon="3.263941783084314"><ele>25.0</ele><time>2026-04-11T12:41:31Z</time></trkpt><trkpt lat="50.464999153389655" lon="3.2640430295002703"><ele>25.0</ele><time>2026-04-11T12:41:32Z</time></trkpt><trkpt lat="50.4649740829104" lon="3.2641450502508578"><ele>25.0</ele><time>2026-04-11T12:41:33Z</time></trkpt><trkpt lat="50.46494777152837" lon="3.2642487681333674"><ele>25.000000000000004</ele><time>2026-04-11T12:41:34Z</time></trkpt><trkpt lat="50.46492179647464" lon="3.2643487105721234"><ele>25.0</ele><time>2026-04-11T12:41:35Z</time></trkpt><trkpt lat="50.464897270270065" lon="3.264450256932311"><ele>24.857142857142858</ele><time>2026-04-11T12:41:36Z</time></trkpt><trkpt lat="50.464873270578146" lon="3.2645523154456004"><ele>24.714285714285715</ele><time>2026-04-11T12:41:37Z</time></trkpt><trkpt lat="50.4648464886029" lon="3.2646515699638585"><ele>24.57142857142857</ele><time>2026-04-11T12:41:38Z</time></trkpt><trkpt lat="50.464817968863876" lon="3.2647534027586462"><ele>24.42857142857143</ele><time>2026-04-11T12:41:39Z</time></trkpt><trkpt lat="50.464793120259216" lon="3.2648538513405194"><ele>24.285714285714285</ele><time>2026-04-11T12:41:40Z</time></trkpt><trkpt lat="50.46477405977304" lon="3.264953033037658"><ele>24.142857142857142</ele><time>2026-04-11T12:41:41Z</time></trkpt><trkpt lat="50.464749440335936" lon="3.2650529127986743"><ele>24.0</ele><time>2026-04-11T12:41:42Z</time></trkpt><trkpt lat="50.46472280095237" lon="3.2651476159679045"><ele>23.857142857142854</ele><time>2026-04-11T12:41:43Z</time></trkpt><trkpt lat="50.46469835977037" lon="3.265243949617072"><ele>23.714285714285715</ele><time>2026-04-11T12:41:44Z</time></trkpt><trkpt lat="50.46467215064058" lon="3.2653381304655373"><ele>23.57142857142857</ele><time>2026-04-11T12:41:45Z</time></trkpt><trkpt lat="50.464647354140915" lon="3.265432153172467"><ele>23.428571428571427</ele><time>2026-04-11T12:41:46Z</time></trkpt><trkpt lat="50.46462258649133" lon="3.2655310257398757"><ele>23.285714285714285</ele><time>2026-04-11T12:41:47Z</time></trkpt><trkpt lat="50.46459606922225" lon="3.2656227919766794"><ele>23.142857142857142</ele><time>2026-04-11T12:41:48Z</time></trkpt><trkpt lat="50.46457206556861" lon="3.265715071490557"><ele>23.0</ele><time>2026-04-11T12:41:49Z</time></trkpt><trkpt lat="50.46454781245412" lon="3.2658085144511295"><ele>23.166666666666668</ele><time>2026-04-11T12:41:50Z</time></trkpt><trkpt lat="50.464519839794114" lon="3.2658999900492947"><ele>23.333333333333336</ele><time>2026-04-11T12:41:51Z</time></trkpt><trkpt lat="50.46445035677336" lon="3.266065914111615"><ele>23.5</ele><time>2026-04-11T12:41:53Z</time></trkpt><trkpt lat="50.4644163931599" lon="3.2661528583802455"><ele>23.666666666666668</ele><time>2026-04-11T12:41:54Z</time></trkpt><trkpt lat="50.46438829765174" lon="3.266244193373354"><ele>23.833333333333332</ele><time>2026-04-11T12:41:55Z</time></trkpt><trkpt lat="50.46433917148609" lon="3.266427327415545"><ele>24.0</ele><time>2026-04-11T12:41:57Z</time></trkpt><trkpt lat="50.46431150856566" lon="3.2665170636843337"><ele>24.0</ele><time>2026-04-11T12:41:58Z</time></trkpt><trkpt lat="50.46428649420845" lon="3.2666093803095713"><ele>24.0</ele><time>2026-04-11T12:41:59Z</time></trkpt><trkpt lat="50.464252089570465" lon="3.2667031642320494"><ele>24.0</ele><time>2026-04-11T12:42:00Z</time></trkpt><trkpt lat="50.464222929296454" lon="3.2667923378129067"><ele>24.0</ele><time>2026-04-11T12:42:01Z</time></trkpt><trkpt lat="50.464190739809325" lon="3.2668817741353595"><ele>24.0</ele><time>2026-04-11T12:42:02Z</time></trkpt><trkpt lat="50.46413651228422" lon="3.267060954568932"><ele>24.0</ele><time>2026-04-11T12:42:04Z</time></trkpt><trkpt lat="50.464111653186535" lon="3.267154029083548"><ele>24.0</ele><time>2026-04-11T12:42:05Z</time></trkpt><trkpt lat="50.46408134462512" lon="3.267242740032017"><ele>24.0</ele><time>2026-04-11T12:42:06Z</time></trkpt><trkpt lat="50.46402264525306" lon="3.2674241384513802"><ele>24.0</ele><time>2026-04-11T12:42:08Z</time></trkpt><trkpt lat="50.46399231373921" lon="3.26751483079441"><ele>24.0</ele><time>2026-04-11T12:42:09Z</time></trkpt><trkpt lat="50.46396479249994" lon="3.267604414394539"><ele>24.0</ele><time>2026-04-11T12:42:10Z</time></trkpt><trkpt lat="50.463935282194555" lon="3.2676955352148833"><ele>24.0</ele><time>2026-04-11T12:42:11Z</time></trkpt><trkpt lat="50.46390497838051" lon="3.267787931598796"><ele>23.999999999999996</ele><time>2026-04-11T12:42:12Z</time></trkpt><trkpt lat="50.46387175182535" lon="3.2678776691177087"><ele>24.0</ele><time>2026-04-11T12:42:13Z</time></trkpt><trkpt lat="50.46384108987002" lon="3.2679707794325017"><ele>24.0</ele><time>2026-04-11T12:42:14Z</time></trkpt><trkpt lat="50.46381008588207" lon="3.2680626124833414"><ele>24.0</ele><time>2026-04-11T12:42:15Z</time></trkpt><trkpt lat="50.46377896681497" lon="3.268153815658494"><ele>24.0</ele><time>2026-04-11T12:42:16Z</time></trkpt><trkpt lat="50.46374912962358" lon="3.2682425214720707"><ele>23.999999999999996</ele><time>2026-04-11T12:42:17Z</time></trkpt><trkpt lat="50.46371851857339" lon="3.2683411133228084"><ele>24.0</ele><time>2026-04-11T12:42:18Z</time></trkpt><trkpt lat="50.46368498219249" lon="3.2684318818581195"><ele>23.999999999999996</ele><time>2026-04-11T12:42:19Z</time></trkpt><trkpt lat="50.46365250970961" lon="3.26852241278631"><ele>24.0</ele><time>2026-04-11T12:42:20Z</time></trkpt><trkpt lat="50.46362099973045" lon="3.2686160919300145"><ele>24.0</ele><time>2026-04-11T12:42:21Z</time></trkpt><trkpt lat="50.463587369023685" lon="3.2687081512173184"><ele>24.0</ele><time>2026-04-11T12:42:22Z</time></trkpt><trkpt lat="50.46355589864135" lon="3.268799723610438"><ele>24.0</ele><time>2026-04-11T12:42:23Z</time></trkpt><trkpt lat="50.46352587455773" lon="3.2688925080484754"><ele>23.999999999999996</ele><time>2026-04-11T12:42:24Z</time></trkpt><trkpt lat="50.46349547771379" lon="3.2689836020826832"><ele>24.0</ele><time>2026-04-11T12:42:25Z</time></trkpt><trkpt lat="50.46346664695148" lon="3.269080135984562"><ele>23.833333333333332</ele><time>2026-04-11T12:42:26Z</time></trkpt><trkpt lat="50.46343590779126" lon="3.26917208656282"><ele>23.666666666666668</ele><time>2026-04-11T12:42:26.999Z</time></trkpt><trkpt lat="50.46340710766428" lon="3.2692651123965346"><ele>23.5</ele><time>2026-04-11T12:42:27.999Z</time></trkpt><trkpt lat="50.46337869559344" lon="3.2693631949755013"><ele>23.333333333333336</ele><time>2026-04-11T12:42:28.999Z</time></trkpt><trkpt lat="50.4633288155542" lon="3.269542579666297"><ele>23.166666666666668</ele><time>2026-04-11T12:42:30.999Z</time></trkpt><trkpt lat="50.46330459378968" lon="3.2696367941224684"><ele>23.0</ele><time>2026-04-11T12:42:31.999Z</time></trkpt><trkpt lat="50.463280403004184" lon="3.269729153616812"><ele>23.333333333333336</ele><time>2026-04-11T12:42:32.999Z</time></trkpt><trkpt lat="50.46325583138043" lon="3.269825397821386"><ele>23.666666666666668</ele><time>2026-04-11T12:42:33.999Z</time></trkpt><trkpt lat="50.46323055609031" lon="3.269916534248077"><ele>24.0</ele><time>2026-04-11T12:42:34.999Z</time></trkpt><trkpt lat="50.46320582325405" lon="3.2700147133937323"><ele>24.333333333333336</ele><time>2026-04-11T12:42:35.999Z</time></trkpt><trkpt lat="50.463177674334105" lon="3.2701069402876226"><ele>24.666666666666668</ele><time>2026-04-11T12:42:36.999Z</time></trkpt><trkpt lat="50.463127651694535" lon="3.27029214528779"><ele>25.0</ele><time>2026-04-11T12:42:38.999Z</time></trkpt><trkpt lat="50.463105988628456" lon="3.2703854060403996"><ele>25.000000000000004</ele><time>2026-04-11T12:42:40Z</time></trkpt><trkpt lat="50.463082205580264" lon="3.270480771626183"><ele>25.0</ele><time>2026-04-11T12:42:41Z</time></trkpt><trkpt lat="50.46302847899944" lon="3.270658541479655"><ele>25.0</ele><time>2026-04-11T12:42:43Z</time></trkpt><trkpt lat="50.46300499442548" lon="3.270750315019558"><ele>25.0</ele><time>2026-04-11T12:42:44Z</time></trkpt><trkpt lat="50.4629791467318" lon="3.2708440252259154"><ele>25.000000000000004</ele><time>2026-04-11T12:42:45Z</time></trkpt><trkpt lat="50.462953286237415" lon="3.2709382473545188"><ele>25.0</ele><time>2026-04-11T12:42:46Z</time></trkpt><trkpt lat="50.462901802090926" lon="3.271115673683677"><ele>24.8</ele><time>2026-04-11T12:42:48Z</time></trkpt><trkpt lat="50.46288255611217" lon="3.2712117308588913"><ele>24.6</ele><time>2026-04-11T12:42:49Z</time></trkpt><trkpt lat="50.462831068662204" lon="3.271376387120667"><ele>24.4</ele><time>2026-04-11T12:42:51Z</time></trkpt><trkpt lat="50.46278288928972" lon="3.271546172404851"><ele>24.2</ele><time>2026-04-11T12:42:53Z</time></trkpt><trkpt lat="50.462738968291426" lon="3.271720132776154"><ele>24.0</ele><time>2026-04-11T12:42:55Z</time></trkpt><trkpt lat="50.46269185326907" lon="3.2718873053275637"><ele>24.0</ele><time>2026-04-11T12:42:57Z</time></trkpt><trkpt lat="50.46264916108771" lon="3.2720660108077415"><ele>24.0</ele><time>2026-04-11T12:42:59Z</time></trkpt><trkpt lat="50.46260246142818" lon="3.2722388095339103"><ele>24.0</ele><time>2026-04-11T12:43:01Z</time></trkpt><trkpt lat="50.46255614330303" lon="3.2724052091072346"><ele>24.0</ele><time>2026-04-11T12:43:03Z</time></trkpt><trkpt lat="50.46251225554381" lon="3.272567353707726"><ele>24.2</ele><time>2026-04-11T12:43:05Z</time></trkpt><trkpt lat="50.46246904334825" lon="3.272731989290544"><ele>24.4</ele><time>2026-04-11T12:43:07Z</time></trkpt><trkpt lat="50.462426865186394" lon="3.272900254636917"><ele>24.6</ele><time>2026-04-11T12:43:09Z</time></trkpt><trkpt lat="50.462383349966295" lon="3.273068896132351"><ele>24.8</ele><time>2026-04-11T12:43:11Z</time></trkpt><trkpt lat="50.462357697266924" lon="3.2731618257026445"><ele>25.0</ele><time>2026-04-11T12:43:12Z</time></trkpt><trkpt lat="50.4623135910971" lon="3.2733326015237396"><ele>25.0</ele><time>2026-04-11T12:43:14Z</time></trkpt><trkpt lat="50.4622725669835" lon="3.273497349026329"><ele>25.0</ele><time>2026-04-11T12:43:16Z</time></trkpt><trkpt lat="50.462223377006794" lon="3.2736686819827385"><ele>25.0</ele><time>2026-04-11T12:43:18Z</time></trkpt><trkpt lat="50.462173459535045" lon="3.2738417071350425"><ele>25.0</ele><time>2026-04-11T12:43:20Z</time></trkpt><trkpt lat="50.462125575645054" lon="3.274023032477601"><ele>25.2</ele><time>2026-04-11T12:43:22Z</time></trkpt><trkpt lat="50.462078097539276" lon="3.2742017532237"><ele>25.4</ele><time>2026-04-11T12:43:24Z</time></trkpt><trkpt lat="50.46205682583161" lon="3.274296174081644"><ele>25.6</ele><time>2026-04-11T12:43:25Z</time></trkpt><trkpt lat="50.46200679081326" lon="3.2744713033196056"><ele>25.8</ele><time>2026-04-11T12:43:27Z</time></trkpt><trkpt lat="50.46195880409026" lon="3.274640248132367"><ele>26.0</ele><time>2026-04-11T12:43:29Z</time></trkpt><trkpt lat="50.46191497695974" lon="3.274825570287651"><ele>26.0</ele><time>2026-04-11T12:43:31Z</time></trkpt><trkpt lat="50.461863542370544" lon="3.274995457192982"><ele>26.0</ele><time>2026-04-11T12:43:33Z</time></trkpt><trkpt lat="50.46184053397207" lon="3.2750901499607643"><ele>26.0</ele><time>2026-04-11T12:43:34Z</time></trkpt><trkpt lat="50.461792736784915" lon="3.2752681787108173"><ele>26.0</ele><time>2026-04-11T12:43:36Z</time></trkpt><trkpt lat="50.46174681925768" lon="3.275454491540366"><ele>26.0</ele><time>2026-04-11T12:43:38Z</time></trkpt><trkpt lat="50.461692165211396" lon="3.275629609649067"><ele>26.0</ele><time>2026-04-11T12:43:40Z</time></trkpt><trkpt lat="50.46166820745809" lon="3.2757216643196556"><ele>26.0</ele><time>2026-04-11T12:43:41Z</time></trkpt><trkpt lat="50.461621478973996" lon="3.2759036409454647"><ele>26.0</ele><time>2026-04-11T12:43:43Z</time></trkpt><trkpt lat="50.4615996626991" lon="3.276003960191118"><ele>26.0</ele><time>2026-04-11T12:43:44Z</time></trkpt><trkpt lat="50.461548528676076" lon="3.276185063684316"><ele>26.0</ele><time>2026-04-11T12:43:46Z</time></trkpt><trkpt lat="50.461502899213606" lon="3.276367663382756"><ele>25.8</ele><time>2026-04-11T12:43:48Z</time></trkpt><trkpt lat="50.46145095908246" lon="3.2765489606695355"><ele>25.6</ele><time>2026-04-11T12:43:50Z</time></trkpt><trkpt lat="50.46140116643192" lon="3.2767257571433284"><ele>25.4</ele><time>2026-04-11T12:43:52Z</time></trkpt><trkpt lat="50.46137475006576" lon="3.276816920361751"><ele>25.2</ele><time>2026-04-11T12:43:53Z</time></trkpt><trkpt lat="50.46132718309393" lon="3.2769945259475084"><ele>25.0</ele><time>2026-04-11T12:43:55Z</time></trkpt><trkpt lat="50.46128192755796" lon="3.2771751469541712"><ele>25.0</ele><time>2026-04-11T12:43:57Z</time></trkpt><trkpt lat="50.46123326414571" lon="3.2773559382399644"><ele>25.0</ele><time>2026-04-11T12:43:59Z</time></trkpt><trkpt lat="50.46118362025309" lon="3.277539475686942"><ele>25.0</ele><time>2026-04-11T12:44:01Z</time></trkpt><trkpt lat="50.461137636043546" lon="3.277716224669489"><ele>25.0</ele><time>2026-04-11T12:44:03Z</time></trkpt><trkpt lat="50.46111202732169" lon="3.277812234753955"><ele>25.0</ele><time>2026-04-11T12:44:04Z</time></trkpt><trkpt lat="50.46108933645098" lon="3.277906043994123"><ele>25.0</ele><time>2026-04-11T12:44:05Z</time></trkpt><trkpt lat="50.46106424561939" lon="3.277997149784"><ele>25.0</ele><time>2026-04-11T12:44:06Z</time></trkpt><trkpt lat="50.46101137706287" lon="3.278181502040764"><ele>25.0</ele><time>2026-04-11T12:44:08Z</time></trkpt><trkpt lat="50.46096400000497" lon="3.278360569888964"><ele>25.0</ele><time>2026-04-11T12:44:10Z</time></trkpt><trkpt lat="50.46091504717597" lon="3.278533677807811"><ele>25.0</ele><time>2026-04-11T12:44:12Z</time></trkpt><trkpt lat="50.46086640377914" lon="3.2787131090704453"><ele>25.0</ele><time>2026-04-11T12:44:14Z</time></trkpt><trkpt lat="50.4608424842017" lon="3.2788072026570583"><ele>25.0</ele><time>2026-04-11T12:44:15Z</time></trkpt><trkpt lat="50.46081520375026" lon="3.278897352473706"><ele>25.0</ele><time>2026-04-11T12:44:16Z</time></trkpt><trkpt lat="50.46076981345087" lon="3.279079220207938"><ele>25.0</ele><time>2026-04-11T12:44:18Z</time></trkpt><trkpt lat="50.46072022140385" lon="3.279252833841434"><ele>25.0</ele><time>2026-04-11T12:44:20Z</time></trkpt><trkpt lat="50.460672635396065" lon="3.2794297843154814"><ele>25.0</ele><time>2026-04-11T12:44:22Z</time></trkpt><trkpt lat="50.4606279716716" lon="3.279609994755329"><ele>25.0</ele><time>2026-04-11T12:44:24Z</time></trkpt><trkpt lat="50.460577288013795" lon="3.279784335818384"><ele>25.0</ele><time>2026-04-11T12:44:26Z</time></trkpt><trkpt lat="50.46055305233525" lon="3.2798762595369353"><ele>25.0</ele><time>2026-04-11T12:44:26.999Z</time></trkpt><trkpt lat="50.46050584513918" lon="3.2800519451013477"><ele>25.0</ele><time>2026-04-11T12:44:28.999Z</time></trkpt><trkpt lat="50.46046427784137" lon="3.280230169104361"><ele>25.0</ele><time>2026-04-11T12:44:30.999Z</time></trkpt><trkpt lat="50.4604153001107" lon="3.280399856219096"><ele>25.0</ele><time>2026-04-11T12:44:32.999Z</time></trkpt><trkpt lat="50.4603697028131" lon="3.2805706664866343"><ele>25.0</ele><time>2026-04-11T12:44:34.999Z</time></trkpt><trkpt lat="50.46032500489344" lon="3.2807427449408655"><ele>25.0</ele><time>2026-04-11T12:44:36.999Z</time></trkpt><trkpt lat="50.460280070059405" lon="3.2809112527123303"><ele>25.0</ele><time>2026-04-11T12:44:38.999Z</time></trkpt><trkpt lat="50.46022883498432" lon="3.2810692496457996"><ele>25.0</ele><time>2026-04-11T12:44:40.999Z</time></trkpt><trkpt lat="50.46019039012296" lon="3.281232205839398"><ele>25.0</ele><time>2026-04-11T12:44:42.999Z</time></trkpt><trkpt lat="50.46014872686085" lon="3.2813800045358383"><ele>25.0</ele><time>2026-04-11T12:44:44.999Z</time></trkpt><trkpt lat="50.4601335451004" lon="3.2814834004998112"><ele>25.0</ele><time>2026-04-11T12:44:47Z</time></trkpt><trkpt lat="50.46009976181364" lon="3.2815717262810353"><ele>24.833333333333336</ele><time>2026-04-11T12:44:51Z</time></trkpt><trkpt lat="50.46007340745317" lon="3.2816737148654958"><ele>24.666666666666668</ele><time>2026-04-11T12:44:54Z</time></trkpt><trkpt lat="50.46003749835513" lon="3.2818216007818855"><ele>24.5</ele><time>2026-04-11T12:44:57Z</time></trkpt><trkpt lat="50.46000331308876" lon="3.2819380313811513"><ele>24.333333333333336</ele><time>2026-04-11T12:44:59Z</time></trkpt><trkpt lat="50.45996602409297" lon="3.282073702364229"><ele>24.166666666666668</ele><time>2026-04-11T12:45:01Z</time></trkpt><trkpt lat="50.459925696570565" lon="3.282211256089328"><ele>24.0</ele><time>2026-04-11T12:45:03Z</time></trkpt><trkpt lat="50.459890211018994" lon="3.282362854933705"><ele>24.0</ele><time>2026-04-11T12:45:05Z</time></trkpt><trkpt lat="50.45987207332581" lon="3.282525850557271"><ele>24.0</ele><time>2026-04-11T12:45:07Z</time></trkpt><trkpt lat="50.45985096774377" lon="3.2826831598070614"><ele>24.0</ele><time>2026-04-11T12:45:09Z</time></trkpt><trkpt lat="50.45980388914439" lon="3.2828239403057817"><ele>24.0</ele><time>2026-04-11T12:45:11Z</time></trkpt><trkpt lat="50.45975786365304" lon="3.282989472311604"><ele>24.0</ele><time>2026-04-11T12:45:13Z</time></trkpt><trkpt lat="50.459726744240214" lon="3.283160073465221"><ele>24.0</ele><time>2026-04-11T12:45:15Z</time></trkpt><trkpt lat="50.45969121706688" lon="3.283331478631313"><ele>24.0</ele><time>2026-04-11T12:45:17Z</time></trkpt><trkpt lat="50.4596583965149" lon="3.2835006446063018"><ele>24.0</ele><time>2026-04-11T12:45:19Z</time></trkpt><trkpt lat="50.45961026227696" lon="3.2836355247252103"><ele>24.0</ele><time>2026-04-11T12:45:21Z</time></trkpt><trkpt lat="50.45958687702539" lon="3.2837977662414217"><ele>24.0</ele><time>2026-04-11T12:45:23Z</time></trkpt><trkpt lat="50.45957014993397" lon="3.2839203935315373"><ele>24.0</ele><time>2026-04-11T12:45:25Z</time></trkpt><trkpt lat="50.459562296569125" lon="3.2840357182191875"><ele>24.0</ele><time>2026-04-11T12:45:28Z</time></trkpt><trkpt lat="50.459546836004954" lon="3.284137229061032"><ele>24.0</ele><time>2026-04-11T12:45:31Z</time></trkpt><trkpt lat="50.45954312463101" lon="3.284263092660877"><ele>24.0</ele><time>2026-04-11T12:45:33Z</time></trkpt><trkpt lat="50.45953722201128" lon="3.2844156466159875"><ele>24.0</ele><time>2026-04-11T12:45:35Z</time></trkpt><trkpt lat="50.459522841291204" lon="3.2846003001933513"><ele>24.0</ele><time>2026-04-11T12:45:37Z</time></trkpt><trkpt lat="50.45951753728294" lon="3.2847039633364914"><ele>23.999999999999996</ele><time>2026-04-11T12:45:38Z</time></trkpt><trkpt lat="50.4595125816541" lon="3.2848094804593146"><ele>24.0</ele><time>2026-04-11T12:45:39Z</time></trkpt><trkpt lat="50.45950839151977" lon="3.28492384195659"><ele>24.0</ele><time>2026-04-11T12:45:40Z</time></trkpt><trkpt lat="50.45950048310196" lon="3.285024835712042"><ele>24.0</ele><time>2026-04-11T12:45:41Z</time></trkpt><trkpt lat="50.459494289940004" lon="3.285139398998396"><ele>24.0</ele><time>2026-04-11T12:45:42Z</time></trkpt><trkpt lat="50.45948858540734" lon="3.2852489350387124"><ele>23.999999999999996</ele><time>2026-04-11T12:45:43Z</time></trkpt><trkpt lat="50.45948363259636" lon="3.2853502282180838"><ele>24.0</ele><time>2026-04-11T12:45:44Z</time></trkpt><trkpt lat="50.45947462943193" lon="3.2854639298826593"><ele>23.999999999999996</ele><time>2026-04-11T12:45:45Z</time></trkpt><trkpt lat="50.4594603557025" lon="3.2855723286206784"><ele>24.0</ele><time>2026-04-11T12:45:46Z</time></trkpt><trkpt lat="50.45944134701175" lon="3.2856740500422332"><ele>24.0</ele><time>2026-04-11T12:45:47Z</time></trkpt><trkpt lat="50.4594204827962" lon="3.285782912854112"><ele>24.0</ele><time>2026-04-11T12:45:48Z</time></trkpt><trkpt lat="50.459397544437095" lon="3.2858869702029367"><ele>24.0</ele><time>2026-04-11T12:45:49Z</time></trkpt><trkpt lat="50.45937530878648" lon="3.285989630212058"><ele>23.999999999999996</ele><time>2026-04-11T12:45:50Z</time></trkpt><trkpt lat="50.459351446995754" lon="3.2860931371535083"><ele>24.0</ele><time>2026-04-11T12:45:51Z</time></trkpt><trkpt lat="50.459329449281576" lon="3.286197656760964"><ele>23.999999999999996</ele><time>2026-04-11T12:45:52Z</time></trkpt><trkpt lat="50.459309340324545" lon="3.2863061734550336"><ele>24.0</ele><time>2026-04-11T12:45:53Z</time></trkpt><trkpt lat="50.45928514964188" lon="3.286400166854314"><ele>24.0</ele><time>2026-04-11T12:45:54Z</time></trkpt><trkpt lat="50.45924841542515" lon="3.2864993483399667"><ele>24.0</ele><time>2026-04-11T12:45:55Z</time></trkpt><trkpt lat="50.459209909267415" lon="3.286594190445493"><ele>24.0</ele><time>2026-04-11T12:45:56Z</time></trkpt><trkpt lat="50.45916001351258" lon="3.286679858858986"><ele>23.999999999999996</ele><time>2026-04-11T12:45:57Z</time></trkpt><trkpt lat="50.45911110616152" lon="3.2867645081173826"><ele>24.0</ele><time>2026-04-11T12:45:58Z</time></trkpt><trkpt lat="50.4590603772144" lon="3.2868554704504915"><ele>23.999999999999996</ele><time>2026-04-11T12:45:59Z</time></trkpt><trkpt lat="50.45901531767538" lon="3.2869374902510238"><ele>24.0</ele><time>2026-04-11T12:46:00Z</time></trkpt><trkpt lat="50.45896536739956" lon="3.2870140551961793"><ele>24.0</ele><time>2026-04-11T12:46:01Z</time></trkpt><trkpt lat="50.45892211164755" lon="3.2871020963385424"><ele>24.0</ele><time>2026-04-11T12:46:02Z</time></trkpt><trkpt lat="50.45888659516328" lon="3.2872023436002555"><ele>24.0</ele><time>2026-04-11T12:46:03Z</time></trkpt><trkpt lat="50.45885630826805" lon="3.287308680417615"><ele>23.999999999999996</ele><time>2026-04-11T12:46:04Z</time></trkpt><trkpt lat="50.45883174849614" lon="3.2874095779755907"><ele>24.0</ele><time>2026-04-11T12:46:05Z</time></trkpt><trkpt lat="50.45881768901498" lon="3.287532290547067"><ele>23.999999999999996</ele><time>2026-04-11T12:46:06Z</time></trkpt><trkpt lat="50.45880068217462" lon="3.2876435819509933"><ele>24.0</ele><time>2026-04-11T12:46:07Z</time></trkpt><trkpt lat="50.458781634113826" lon="3.287756517455146"><ele>24.0</ele><time>2026-04-11T12:46:08Z</time></trkpt><trkpt lat="50.45876180515819" lon="3.2878665982825717"><ele>24.0</ele><time>2026-04-11T12:46:09Z</time></trkpt><trkpt lat="50.45874127083466" lon="3.2879787921800263"><ele>24.0</ele><time>2026-04-11T12:46:10Z</time></trkpt><trkpt lat="50.45872491092568" lon="3.288088049413691"><ele>23.999999999999996</ele><time>2026-04-11T12:46:11Z</time></trkpt><trkpt lat="50.45870915277388" lon="3.288196492501061"><ele>24.0</ele><time>2026-04-11T12:46:12Z</time></trkpt><trkpt lat="50.458690904304426" lon="3.2883001186111493"><ele>23.857142857142854</ele><time>2026-04-11T12:46:13Z</time></trkpt><trkpt lat="50.45867489645983" lon="3.2884065373053906"><ele>23.714285714285715</ele><time>2026-04-11T12:46:14Z</time></trkpt><trkpt lat="50.458652678136296" lon="3.2885108900536846"><ele>23.57142857142857</ele><time>2026-04-11T12:46:15Z</time></trkpt><trkpt lat="50.45863305226513" lon="3.288607964529783"><ele>23.428571428571427</ele><time>2026-04-11T12:46:16Z</time></trkpt><trkpt lat="50.45861370504119" lon="3.288707813732293"><ele>23.285714285714285</ele><time>2026-04-11T12:46:17Z</time></trkpt><trkpt lat="50.45859644923004" lon="3.288803129201169"><ele>23.142857142857142</ele><time>2026-04-11T12:46:18Z</time></trkpt><trkpt lat="50.45857597387524" lon="3.2889061232159973"><ele>23.0</ele><time>2026-04-11T12:46:19Z</time></trkpt><trkpt lat="50.45855118348263" lon="3.2890009185656814"><ele>22.833333333333336</ele><time>2026-04-11T12:46:20Z</time></trkpt><trkpt lat="50.45852864596836" lon="3.28910128546481"><ele>22.666666666666668</ele><time>2026-04-11T12:46:21Z</time></trkpt><trkpt lat="50.45850971291958" lon="3.289205153812496"><ele>22.5</ele><time>2026-04-11T12:46:22Z</time></trkpt><trkpt lat="50.45849488456499" lon="3.2893031492872757"><ele>22.333333333333332</ele><time>2026-04-11T12:46:23Z</time></trkpt><trkpt lat="50.458478089322334" lon="3.2893993971932103"><ele>22.166666666666664</ele><time>2026-04-11T12:46:24Z</time></trkpt><trkpt lat="50.45843461009154" lon="3.2895843280808283"><ele>22.0</ele><time>2026-04-11T12:46:26Z</time></trkpt><trkpt lat="50.45841420955438" lon="3.289686557713695"><ele>22.142857142857142</ele><time>2026-04-11T12:46:27Z</time></trkpt><trkpt lat="50.458394277365265" lon="3.289783042780393"><ele>22.285714285714285</ele><time>2026-04-11T12:46:28Z</time></trkpt><trkpt lat="50.458371679162994" lon="3.289882024645746"><ele>22.42857142857143</ele><time>2026-04-11T12:46:29Z</time></trkpt><trkpt lat="50.458347170426" lon="3.289973732561818"><ele>22.57142857142857</ele><time>2026-04-11T12:46:30Z</time></trkpt><trkpt lat="50.45832198938366" lon="3.2900724574614864"><ele>22.71428571428571</ele><time>2026-04-11T12:46:31Z</time></trkpt><trkpt lat="50.458302019933235" lon="3.29016670338177"><ele>22.857142857142858</ele><time>2026-04-11T12:46:32Z</time></trkpt><trkpt lat="50.45828166595388" lon="3.2902706107004867"><ele>23.0</ele><time>2026-04-11T12:46:33Z</time></trkpt><trkpt lat="50.45825894566034" lon="3.290367912205819"><ele>23.0</ele><time>2026-04-11T12:46:34Z</time></trkpt><trkpt lat="50.4582374021123" lon="3.290466817521517"><ele>23.0</ele><time>2026-04-11T12:46:35Z</time></trkpt><trkpt lat="50.45821779742552" lon="3.290568390652621"><ele>23.0</ele><time>2026-04-11T12:46:36Z</time></trkpt><trkpt lat="50.4581900659144" lon="3.2906668338031317"><ele>23.0</ele><time>2026-04-11T12:46:37Z</time></trkpt><trkpt lat="50.458162539831584" lon="3.290770920977619"><ele>23.0</ele><time>2026-04-11T12:46:38Z</time></trkpt><trkpt lat="50.45812973501688" lon="3.2908727358895145"><ele>23.0</ele><time>2026-04-11T12:46:39Z</time></trkpt><trkpt lat="50.45810459238739" lon="3.2909676529006666"><ele>23.0</ele><time>2026-04-11T12:46:40Z</time></trkpt><trkpt lat="50.45808399757425" lon="3.2910732580077084"><ele>22.857142857142858</ele><time>2026-04-11T12:46:41Z</time></trkpt><trkpt lat="50.458064053011455" lon="3.291175563054933"><ele>22.71428571428571</ele><time>2026-04-11T12:46:42Z</time></trkpt><trkpt lat="50.4580431504306" lon="3.2912782630140245"><ele>22.57142857142857</ele><time>2026-04-11T12:46:43Z</time></trkpt><trkpt lat="50.458024494369546" lon="3.2913880172844068"><ele>22.42857142857143</ele><time>2026-04-11T12:46:44Z</time></trkpt><trkpt lat="50.458003634588195" lon="3.2914894120066376"><ele>22.285714285714285</ele><time>2026-04-11T12:46:45Z</time></trkpt><trkpt lat="50.45797746925805" lon="3.291593985138831"><ele>22.142857142857142</ele><time>2026-04-11T12:46:46Z</time></trkpt><trkpt lat="50.45795524672075" lon="3.29169687119182"><ele>22.0</ele><time>2026-04-11T12:46:47Z</time></trkpt><trkpt lat="50.457936054951816" lon="3.2918073979175144"><ele>22.0</ele><time>2026-04-11T12:46:48Z</time></trkpt><trkpt lat="50.457914410428984" lon="3.2919099494334785"><ele>22.0</ele><time>2026-04-11T12:46:49Z</time></trkpt><trkpt lat="50.45789395632408" lon="3.2920182794854105"><ele>22.0</ele><time>2026-04-11T12:46:50Z</time></trkpt><trkpt lat="50.45786979591497" lon="3.292125694939622"><ele>22.0</ele><time>2026-04-11T12:46:51Z</time></trkpt><trkpt lat="50.45784727996896" lon="3.292232889616347"><ele>22.0</ele><time>2026-04-11T12:46:52Z</time></trkpt><trkpt lat="50.4578254520614" lon="3.2923344908983165"><ele>22.0</ele><time>2026-04-11T12:46:53Z</time></trkpt><trkpt lat="50.45780299561627" lon="3.2924431502677316"><ele>22.0</ele><time>2026-04-11T12:46:54Z</time></trkpt><trkpt lat="50.45778004365731" lon="3.29254867928533"><ele>22.0</ele><time>2026-04-11T12:46:55Z</time></trkpt><trkpt lat="50.45775739168296" lon="3.292656274267669"><ele>22.0</ele><time>2026-04-11T12:46:56Z</time></trkpt><trkpt lat="50.45773610431116" lon="3.292759083402229"><ele>22.0</ele><time>2026-04-11T12:46:57Z</time></trkpt><trkpt lat="50.457719012829884" lon="3.2928707092228704"><ele>22.0</ele><time>2026-04-11T12:46:58Z</time></trkpt><trkpt lat="50.457696936123554" lon="3.292976413154666"><ele>22.0</ele><time>2026-04-11T12:46:59Z</time></trkpt><trkpt lat="50.457672578300006" lon="3.2930848048575445"><ele>22.0</ele><time>2026-04-11T12:47:00Z</time></trkpt><trkpt lat="50.4576486459264" lon="3.293184938031094"><ele>22.0</ele><time>2026-04-11T12:47:01Z</time></trkpt><trkpt lat="50.457628878446826" lon="3.293291849064"><ele>22.0</ele><time>2026-04-11T12:47:02Z</time></trkpt><trkpt lat="50.457606711158405" lon="3.2933962381634525"><ele>22.0</ele><time>2026-04-11T12:47:03Z</time></trkpt><trkpt lat="50.45758031216601" lon="3.2935018637134683"><ele>22.0</ele><time>2026-04-11T12:47:04Z</time></trkpt><trkpt lat="50.457561935914775" lon="3.293604577562821"><ele>22.0</ele><time>2026-04-11T12:47:05Z</time></trkpt><trkpt lat="50.45754289659441" lon="3.2937113697764295"><ele>22.0</ele><time>2026-04-11T12:47:06Z</time></trkpt><trkpt lat="50.457522269300476" lon="3.293820583115191"><ele>22.0</ele><time>2026-04-11T12:47:07Z</time></trkpt><trkpt lat="50.45750277487787" lon="3.293917460117969"><ele>22.0</ele><time>2026-04-11T12:47:08Z</time></trkpt><trkpt lat="50.45748145330231" lon="3.2940254951335572"><ele>21.857142857142858</ele><time>2026-04-11T12:47:09Z</time></trkpt><trkpt lat="50.4574641633146" lon="3.29413428206286"><ele>21.714285714285715</ele><time>2026-04-11T12:47:10Z</time></trkpt><trkpt lat="50.457452774311655" lon="3.2942361920705086"><ele>21.57142857142857</ele><time>2026-04-11T12:47:11Z</time></trkpt><trkpt lat="50.457440883672064" lon="3.2943410390043613"><ele>21.42857142857143</ele><time>2026-04-11T12:47:12Z</time></trkpt><trkpt lat="50.45743366977089" lon="3.294450386049937"><ele>21.285714285714285</ele><time>2026-04-11T12:47:13Z</time></trkpt><trkpt lat="50.45743611750549" lon="3.2945550806908597"><ele>21.142857142857142</ele><time>2026-04-11T12:47:14Z</time></trkpt><trkpt lat="50.457440731186566" lon="3.2946605812368834"><ele>21.0</ele><time>2026-04-11T12:47:15Z</time></trkpt><trkpt lat="50.45743999471679" lon="3.2947688580785406"><ele>20.857142857142858</ele><time>2026-04-11T12:47:16Z</time></trkpt><trkpt lat="50.457430451339" lon="3.294871640362864"><ele>20.714285714285715</ele><time>2026-04-11T12:47:17Z</time></trkpt><trkpt lat="50.457422772131864" lon="3.2949767982664753"><ele>20.57142857142857</ele><time>2026-04-11T12:47:18Z</time></trkpt><trkpt lat="50.45742185497557" lon="3.2950872016065684"><ele>20.42857142857143</ele><time>2026-04-11T12:47:19Z</time></trkpt><trkpt lat="50.45742295440873" lon="3.295197513859794"><ele>20.285714285714285</ele><time>2026-04-11T12:47:20Z</time></trkpt><trkpt lat="50.457426342218966" lon="3.2953022660637266"><ele>20.142857142857142</ele><time>2026-04-11T12:47:21Z</time></trkpt><trkpt lat="50.45743101611466" lon="3.295407416331699"><ele>20.0</ele><time>2026-04-11T12:47:22Z</time></trkpt><trkpt lat="50.45743609863456" lon="3.2955108745197075"><ele>20.0</ele><time>2026-04-11T12:47:23Z</time></trkpt><trkpt lat="50.45744079368521" lon="3.2956140358916617"><ele>20.0</ele><time>2026-04-11T12:47:24Z</time></trkpt><trkpt lat="50.457444509792055" lon="3.2957168459625072"><ele>20.0</ele><time>2026-04-11T12:47:25Z</time></trkpt><trkpt lat="50.45745056983851" lon="3.2958221333673996"><ele>20.0</ele><time>2026-04-11T12:47:26Z</time></trkpt><trkpt lat="50.45745685402624" lon="3.295931190077584"><ele>20.0</ele><time>2026-04-11T12:47:27Z</time></trkpt><trkpt lat="50.45746128748925" lon="3.296034924982483"><ele>20.0</ele><time>2026-04-11T12:47:28Z</time></trkpt><trkpt lat="50.45746564647867" lon="3.2961377090052952"><ele>20.0</ele><time>2026-04-11T12:47:29Z</time></trkpt><trkpt lat="50.45746932223917" lon="3.296245171893031"><ele>20.0</ele><time>2026-04-11T12:47:30Z</time></trkpt><trkpt lat="50.45747978588226" lon="3.296350222893933"><ele>20.0</ele><time>2026-04-11T12:47:31Z</time></trkpt><trkpt lat="50.457482347906144" lon="3.2964583945354695"><ele>20.0</ele><time>2026-04-11T12:47:32Z</time></trkpt><trkpt lat="50.45748404204701" lon="3.2965646231452803"><ele>20.0</ele><time>2026-04-11T12:47:33Z</time></trkpt><trkpt lat="50.45748601748615" lon="3.296675853394229"><ele>20.0</ele><time>2026-04-11T12:47:34Z</time></trkpt><trkpt lat="50.4574866692453" lon="3.296781985139374"><ele>20.0</ele><time>2026-04-11T12:47:35Z</time></trkpt><trkpt lat="50.45748742886747" lon="3.2968908220632183"><ele>20.0</ele><time>2026-04-11T12:47:36Z</time></trkpt><trkpt lat="50.45748372003609" lon="3.2969989756138065"><ele>20.142857142857142</ele><time>2026-04-11T12:47:37Z</time></trkpt><trkpt lat="50.45747601693913" lon="3.2971038092428113"><ele>20.285714285714285</ele><time>2026-04-11T12:47:38Z</time></trkpt><trkpt lat="50.457472704846005" lon="3.297215148963591"><ele>20.42857142857143</ele><time>2026-04-11T12:47:39Z</time></trkpt><trkpt lat="50.45746313618434" lon="3.2973268351538514"><ele>20.57142857142857</ele><time>2026-04-11T12:47:40Z</time></trkpt><trkpt lat="50.45745144326752" lon="3.2974358047038215"><ele>20.714285714285715</ele><time>2026-04-11T12:47:41Z</time></trkpt><trkpt lat="50.45743960966196" lon="3.2975407828198664"><ele>20.857142857142858</ele><time>2026-04-11T12:47:42Z</time></trkpt><trkpt lat="50.45742362553306" lon="3.2976463528172384"><ele>21.0</ele><time>2026-04-11T12:47:43Z</time></trkpt><trkpt lat="50.45740462704573" lon="3.297744438311394"><ele>21.166666666666668</ele><time>2026-04-11T12:47:44Z</time></trkpt><trkpt lat="50.457386618962346" lon="3.2978470143241263"><ele>21.333333333333332</ele><time>2026-04-11T12:47:45Z</time></trkpt><trkpt lat="50.45737074487455" lon="3.2979510797726417"><ele>21.5</ele><time>2026-04-11T12:47:46Z</time></trkpt><trkpt lat="50.457349270645764" lon="3.298046826741707"><ele>21.666666666666664</ele><time>2026-04-11T12:47:47Z</time></trkpt><trkpt lat="50.45732703070781" lon="3.2981446399451673"><ele>21.833333333333332</ele><time>2026-04-11T12:47:48Z</time></trkpt><trkpt lat="50.45727721023514" lon="3.298330174874542"><ele>22.0</ele><time>2026-04-11T12:47:50Z</time></trkpt><trkpt lat="50.457250825737894" lon="3.2984264117894835"><ele>22.0</ele><time>2026-04-11T12:47:51Z</time></trkpt><trkpt lat="50.45722581324458" lon="3.2985205104633706"><ele>22.0</ele><time>2026-04-11T12:47:52Z</time></trkpt><trkpt lat="50.45717610986144" lon="3.298689360302188"><ele>22.0</ele><time>2026-04-11T12:47:54Z</time></trkpt><trkpt lat="50.45712730496573" lon="3.298851339791355"><ele>22.0</ele><time>2026-04-11T12:47:56Z</time></trkpt><trkpt lat="50.457081736486884" lon="3.299007989177497"><ele>22.0</ele><time>2026-04-11T12:47:58Z</time></trkpt><trkpt lat="50.45703776053065" lon="3.2991585940909074"><ele>22.0</ele><time>2026-04-11T12:48:00Z</time></trkpt><trkpt lat="50.45699796297909" lon="3.2993012366366403"><ele>22.0</ele><time>2026-04-11T12:48:02Z</time></trkpt><trkpt lat="50.456956574138395" lon="3.299437989181327"><ele>22.0</ele><time>2026-04-11T12:48:04Z</time></trkpt><trkpt lat="50.456915934169594" lon="3.2995726581151703"><ele>22.0</ele><time>2026-04-11T12:48:06Z</time></trkpt><trkpt lat="50.45688223641961" lon="3.2997020007896096"><ele>22.0</ele><time>2026-04-11T12:48:08Z</time></trkpt><trkpt lat="50.45684462769636" lon="3.2998329593909896"><ele>22.200000000000003</ele><time>2026-04-11T12:48:10Z</time></trkpt><trkpt lat="50.45680612145843" lon="3.2999590742874587"><ele>22.4</ele><time>2026-04-11T12:48:12Z</time></trkpt><trkpt lat="50.45676854588805" lon="3.3000943955093667"><ele>22.6</ele><time>2026-04-11T12:48:14Z</time></trkpt><trkpt lat="50.45672309051452" lon="3.3002475236338444"><ele>22.799999999999997</ele><time>2026-04-11T12:48:16Z</time></trkpt><trkpt lat="50.456677132093446" lon="3.300398984263173"><ele>23.0</ele><time>2026-04-11T12:48:18Z</time></trkpt><trkpt lat="50.456630224189546" lon="3.300551089647668"><ele>23.0</ele><time>2026-04-11T12:48:20Z</time></trkpt><trkpt lat="50.45658704142758" lon="3.300713946235368"><ele>23.0</ele><time>2026-04-11T12:48:22Z</time></trkpt><trkpt lat="50.45653933094198" lon="3.300874162968374"><ele>23.0</ele><time>2026-04-11T12:48:24Z</time></trkpt><trkpt lat="50.45649582484117" lon="3.3010326390994407"><ele>23.0</ele><time>2026-04-11T12:48:26Z</time></trkpt><trkpt lat="50.45645289516895" lon="3.301182709393585"><ele>23.0</ele><time>2026-04-11T12:48:28Z</time></trkpt><trkpt lat="50.45640897681821" lon="3.301337791685602"><ele>23.0</ele><time>2026-04-11T12:48:30Z</time></trkpt><trkpt lat="50.456362428542434" lon="3.301492803403209"><ele>23.0</ele><time>2026-04-11T12:48:32Z</time></trkpt><trkpt lat="50.456315557895046" lon="3.301653156578222"><ele>23.0</ele><time>2026-04-11T12:48:34Z</time></trkpt><trkpt lat="50.45626844197683" lon="3.301812666180471"><ele>23.0</ele><time>2026-04-11T12:48:36Z</time></trkpt><trkpt lat="50.45621797653697" lon="3.301970898294559"><ele>23.0</ele><time>2026-04-11T12:48:38Z</time></trkpt><trkpt lat="50.45617229581697" lon="3.302129417270642"><ele>23.0</ele><time>2026-04-11T12:48:40Z</time></trkpt><trkpt lat="50.456123564381414" lon="3.3023001148053024"><ele>23.0</ele><time>2026-04-11T12:48:42Z</time></trkpt><trkpt lat="50.456071847735096" lon="3.3024608430200986"><ele>23.0</ele><time>2026-04-11T12:48:44Z</time></trkpt><trkpt lat="50.456017843746686" lon="3.30263535859315"><ele>23.0</ele><time>2026-04-11T12:48:46Z</time></trkpt><trkpt lat="50.45599159895522" lon="3.3027257156067407"><ele>23.0</ele><time>2026-04-11T12:48:47Z</time></trkpt><trkpt lat="50.45596398614143" lon="3.3028208158819896"><ele>23.0</ele><time>2026-04-11T12:48:48Z</time></trkpt><trkpt lat="50.455938536243124" lon="3.302911593364151"><ele>23.0</ele><time>2026-04-11T12:48:49Z</time></trkpt><trkpt lat="50.4559124757102" lon="3.303004682379243"><ele>23.0</ele><time>2026-04-11T12:48:50Z</time></trkpt><trkpt lat="50.45588435429143" lon="3.3031022437189868"><ele>23.0</ele><time>2026-04-11T12:48:50.999Z</time></trkpt><trkpt lat="50.45585559641771" lon="3.3031998887714193"><ele>23.0</ele><time>2026-04-11T12:48:51.999Z</time></trkpt><trkpt lat="50.45582520600747" lon="3.3032981603640277"><ele>23.0</ele><time>2026-04-11T12:48:52.999Z</time></trkpt><trkpt lat="50.45579522536592" lon="3.3034006363420434"><ele>23.0</ele><time>2026-04-11T12:48:53.999Z</time></trkpt><trkpt lat="50.455764130352954" lon="3.303505398047334"><ele>22.833333333333336</ele><time>2026-04-11T12:48:54.999Z</time></trkpt><trkpt lat="50.455733435081264" lon="3.3036157006608664"><ele>22.666666666666668</ele><time>2026-04-11T12:48:55.999Z</time></trkpt><trkpt lat="50.45570161351201" lon="3.3037255294198427"><ele>22.5</ele><time>2026-04-11T12:48:56.999Z</time></trkpt><trkpt lat="50.4556669754161" lon="3.3038370905193495"><ele>22.333333333333332</ele><time>2026-04-11T12:48:58Z</time></trkpt><trkpt lat="50.45563425571498" lon="3.303954981563965"><ele>22.166666666666664</ele><time>2026-04-11T12:48:59Z</time></trkpt><trkpt lat="50.455599361853295" lon="3.304070995833268"><ele>22.0</ele><time>2026-04-11T12:49:00Z</time></trkpt><trkpt lat="50.45556292687428" lon="3.304188606202924"><ele>21.833333333333332</ele><time>2026-04-11T12:49:01Z</time></trkpt><trkpt lat="50.45552784895257" lon="3.3043082701589883"><ele>21.666666666666664</ele><time>2026-04-11T12:49:02Z</time></trkpt><trkpt lat="50.4554941133845" lon="3.3044311228939165"><ele>21.5</ele><time>2026-04-11T12:49:03Z</time></trkpt><trkpt lat="50.4554566272853" lon="3.3045535786743723"><ele>21.333333333333332</ele><time>2026-04-11T12:49:04Z</time></trkpt><trkpt lat="50.45541974876908" lon="3.3046754872273403"><ele>21.166666666666668</ele><time>2026-04-11T12:49:05Z</time></trkpt><trkpt lat="50.45538346391219" lon="3.304801003919962"><ele>21.0</ele><time>2026-04-11T12:49:06Z</time></trkpt><trkpt lat="50.45534432997502" lon="3.3049252814878156"><ele>20.833333333333332</ele><time>2026-04-11T12:49:07Z</time></trkpt><trkpt lat="50.455309771933415" lon="3.305053169101916"><ele>20.666666666666668</ele><time>2026-04-11T12:49:08Z</time></trkpt><trkpt lat="50.45527318292448" lon="3.3051746068995893"><ele>20.5</ele><time>2026-04-11T12:49:09Z</time></trkpt><trkpt lat="50.4552374247829" lon="3.305299720876085"><ele>20.333333333333336</ele><time>2026-04-11T12:49:10Z</time></trkpt><trkpt lat="50.45520361853091" lon="3.3054255519308944"><ele>20.166666666666668</ele><time>2026-04-11T12:49:11Z</time></trkpt><trkpt lat="50.455169749704304" lon="3.305547379315688"><ele>20.0</ele><time>2026-04-11T12:49:12Z</time></trkpt><trkpt lat="50.45513074891709" lon="3.305663133629031"><ele>19.833333333333336</ele><time>2026-04-11T12:49:13Z</time></trkpt><trkpt lat="50.45509487577668" lon="3.305782606405175"><ele>19.666666666666668</ele><time>2026-04-11T12:49:14Z</time></trkpt><trkpt lat="50.45506284648132" lon="3.3058989530640486"><ele>19.5</ele><time>2026-04-11T12:49:15Z</time></trkpt><trkpt lat="50.45503526129481" lon="3.306015955508067"><ele>19.333333333333332</ele><time>2026-04-11T12:49:16Z</time></trkpt><trkpt lat="50.45500324633941" lon="3.3061255012186432"><ele>19.166666666666664</ele><time>2026-04-11T12:49:17Z</time></trkpt><trkpt lat="50.45497212578557" lon="3.306235902324762"><ele>19.0</ele><time>2026-04-11T12:49:18Z</time></trkpt><trkpt lat="50.45494211186809" lon="3.3063449100686286"><ele>19.142857142857142</ele><time>2026-04-11T12:49:19Z</time></trkpt><trkpt lat="50.45491113854723" lon="3.306453048442897"><ele>19.28571428571429</ele><time>2026-04-11T12:49:20Z</time></trkpt><trkpt lat="50.45488357183179" lon="3.306564396597122"><ele>19.42857142857143</ele><time>2026-04-11T12:49:21Z</time></trkpt><trkpt lat="50.454860426834735" lon="3.306674166050159"><ele>19.57142857142857</ele><time>2026-04-11T12:49:22Z</time></trkpt><trkpt lat="50.454836920673635" lon="3.3067819351575474"><ele>19.714285714285715</ele><time>2026-04-11T12:49:23Z</time></trkpt><trkpt lat="50.45481484681987" lon="3.3068936169466445"><ele>19.857142857142858</ele><time>2026-04-11T12:49:24Z</time></trkpt><trkpt lat="50.45479196853731" lon="3.307007681560475"><ele>20.0</ele><time>2026-04-11T12:49:25Z</time></trkpt><trkpt lat="50.45476784928029" lon="3.307118720098732"><ele>20.0</ele><time>2026-04-11T12:49:26Z</time></trkpt><trkpt lat="50.45474361529746" lon="3.307229691772508"><ele>20.0</ele><time>2026-04-11T12:49:27Z</time></trkpt><trkpt lat="50.45472171001087" lon="3.307340855362846"><ele>20.0</ele><time>2026-04-11T12:49:28Z</time></trkpt><trkpt lat="50.45469689671612" lon="3.307450815811176"><ele>20.0</ele><time>2026-04-11T12:49:29Z</time></trkpt><trkpt lat="50.454673788468504" lon="3.307560533622242"><ele>20.0</ele><time>2026-04-11T12:49:30Z</time></trkpt><trkpt lat="50.454652147428135" lon="3.3076709560665623"><ele>20.0</ele><time>2026-04-11T12:49:31Z</time></trkpt><trkpt lat="50.45462806012976" lon="3.307781154543503"><ele>20.0</ele><time>2026-04-11T12:49:32Z</time></trkpt><trkpt lat="50.454604824723624" lon="3.3078909622055406"><ele>20.0</ele><time>2026-04-11T12:49:33Z</time></trkpt><trkpt lat="50.45458389858617" lon="3.308002328086358"><ele>20.0</ele><time>2026-04-11T12:49:34Z</time></trkpt><trkpt lat="50.45455989755345" lon="3.308111185713742"><ele>20.0</ele><time>2026-04-11T12:49:35Z</time></trkpt><trkpt lat="50.454535205133645" lon="3.308220145617364"><ele>20.0</ele><time>2026-04-11T12:49:36Z</time></trkpt><trkpt lat="50.45451313348054" lon="3.308333196421943"><ele>20.0</ele><time>2026-04-11T12:49:37Z</time></trkpt><trkpt lat="50.45449002917918" lon="3.3084422110259784"><ele>20.0</ele><time>2026-04-11T12:49:38Z</time></trkpt><trkpt lat="50.454468264288444" lon="3.3085511592931978"><ele>20.0</ele><time>2026-04-11T12:49:39Z</time></trkpt><trkpt lat="50.45444693740538" lon="3.3086633347670658"><ele>20.0</ele><time>2026-04-11T12:49:40Z</time></trkpt><trkpt lat="50.454422805245024" lon="3.3087747722334524"><ele>20.0</ele><time>2026-04-11T12:49:41Z</time></trkpt><trkpt lat="50.45439851149069" lon="3.3088870923044134"><ele>20.0</ele><time>2026-04-11T12:49:42Z</time></trkpt><trkpt lat="50.454375009692434" lon="3.308998225793195"><ele>20.0</ele><time>2026-04-11T12:49:43Z</time></trkpt><trkpt lat="50.45434977680623" lon="3.309109649319462"><ele>20.0</ele><time>2026-04-11T12:49:44Z</time></trkpt><trkpt lat="50.45432682136021" lon="3.3092227321681786"><ele>20.0</ele><time>2026-04-11T12:49:45Z</time></trkpt><trkpt lat="50.45430351773976" lon="3.3093339873055934"><ele>20.0</ele><time>2026-04-11T12:49:46Z</time></trkpt><trkpt lat="50.45428093441114" lon="3.3094451137844905"><ele>20.0</ele><time>2026-04-11T12:49:47Z</time></trkpt><trkpt lat="50.454255983330484" lon="3.3095559274258814"><ele>20.0</ele><time>2026-04-11T12:49:48Z</time></trkpt><trkpt lat="50.454233418902376" lon="3.3096682227550462"><ele>20.0</ele><time>2026-04-11T12:49:49Z</time></trkpt><trkpt lat="50.45421048915066" lon="3.309779674637051"><ele>20.0</ele><time>2026-04-11T12:49:50Z</time></trkpt><trkpt lat="50.45418648881103" lon="3.3098890478728245"><ele>20.0</ele><time>2026-04-11T12:49:51Z</time></trkpt><trkpt lat="50.454163551833204" lon="3.3099985373339122"><ele>20.0</ele><time>2026-04-11T12:49:52Z</time></trkpt><trkpt lat="50.45414141827823" lon="3.3101059715296817"><ele>20.0</ele><time>2026-04-11T12:49:53Z</time></trkpt><trkpt lat="50.45411802241115" lon="3.310214023795527"><ele>20.0</ele><time>2026-04-11T12:49:54Z</time></trkpt><trkpt lat="50.454095959411234" lon="3.3103207489523734"><ele>20.0</ele><time>2026-04-11T12:49:55Z</time></trkpt><trkpt lat="50.45407413202899" lon="3.3104244686715396"><ele>20.0</ele><time>2026-04-11T12:49:56Z</time></trkpt><trkpt lat="50.45405166252503" lon="3.31052838730673"><ele>20.0</ele><time>2026-04-11T12:49:57Z</time></trkpt><trkpt lat="50.45402828393153" lon="3.3106323715148975"><ele>20.0</ele><time>2026-04-11T12:49:58Z</time></trkpt><trkpt lat="50.45400612563241" lon="3.3107370838291854"><ele>20.0</ele><time>2026-04-11T12:49:59Z</time></trkpt><trkpt lat="50.45398456973527" lon="3.310842978361323"><ele>20.0</ele><time>2026-04-11T12:50:00Z</time></trkpt><trkpt lat="50.453962570561224" lon="3.31094698909569"><ele>20.0</ele><time>2026-04-11T12:50:01Z</time></trkpt><trkpt lat="50.45394203634118" lon="3.311050976497204"><ele>20.0</ele><time>2026-04-11T12:50:02Z</time></trkpt><trkpt lat="50.453919193710675" lon="3.3111547499664695"><ele>20.0</ele><time>2026-04-11T12:50:03Z</time></trkpt><trkpt lat="50.45389519457303" lon="3.3112622765938755"><ele>20.0</ele><time>2026-04-11T12:50:04Z</time></trkpt><trkpt lat="50.453873955197075" lon="3.3113653000627967"><ele>20.0</ele><time>2026-04-11T12:50:05Z</time></trkpt><trkpt lat="50.453852702780644" lon="3.3114709299194347"><ele>20.0</ele><time>2026-04-11T12:50:06Z</time></trkpt><trkpt lat="50.453831844719616" lon="3.311573707294706"><ele>20.0</ele><time>2026-04-11T12:50:07Z</time></trkpt><trkpt lat="50.45381317435581" lon="3.311677054147808"><ele>20.0</ele><time>2026-04-11T12:50:08Z</time></trkpt><trkpt lat="50.45379308580799" lon="3.311777293751602"><ele>20.0</ele><time>2026-04-11T12:50:09Z</time></trkpt><trkpt lat="50.45377046952921" lon="3.311882543134062"><ele>20.0</ele><time>2026-04-11T12:50:10Z</time></trkpt><trkpt lat="50.45374762498647" lon="3.3119857072125"><ele>20.0</ele><time>2026-04-11T12:50:11Z</time></trkpt><trkpt lat="50.45372588819017" lon="3.3120888398765254"><ele>20.0</ele><time>2026-04-11T12:50:12Z</time></trkpt><trkpt lat="50.45370703560756" lon="3.3121908831312785"><ele>20.0</ele><time>2026-04-11T12:50:13Z</time></trkpt><trkpt lat="50.45368441155419" lon="3.312296873174114"><ele>19.714285714285715</ele><time>2026-04-11T12:50:14Z</time></trkpt><trkpt lat="50.45366223116504" lon="3.3124001121636972"><ele>19.42857142857143</ele><time>2026-04-11T12:50:15Z</time></trkpt><trkpt lat="50.45363937749467" lon="3.3125042651160856"><ele>19.142857142857146</ele><time>2026-04-11T12:50:16Z</time></trkpt><trkpt lat="50.45361745294319" lon="3.312605841932005"><ele>18.857142857142858</ele><time>2026-04-11T12:50:17Z</time></trkpt><trkpt lat="50.45359498503172" lon="3.312713264328311"><ele>18.571428571428573</ele><time>2026-04-11T12:50:18Z</time></trkpt><trkpt lat="50.453572292160445" lon="3.312819352460732"><ele>18.28571428571429</ele><time>2026-04-11T12:50:19Z</time></trkpt><trkpt lat="50.45355109854891" lon="3.3129237155189037"><ele>18.0</ele><time>2026-04-11T12:50:20Z</time></trkpt><trkpt lat="50.45352856417158" lon="3.3130274089845098"><ele>18.000000000000004</ele><time>2026-04-11T12:50:21Z</time></trkpt><trkpt lat="50.45350631038106" lon="3.313129992015736"><ele>18.0</ele><time>2026-04-11T12:50:22Z</time></trkpt><trkpt lat="50.4534837808774" lon="3.3132385290400124"><ele>18.0</ele><time>2026-04-11T12:50:23Z</time></trkpt><trkpt lat="50.45346056091201" lon="3.3133454610927973"><ele>18.0</ele><time>2026-04-11T12:50:24Z</time></trkpt><trkpt lat="50.45343800750065" lon="3.3134506433274886"><ele>18.0</ele><time>2026-04-11T12:50:25Z</time></trkpt><trkpt lat="50.4534146987972" lon="3.3135574160772006"><ele>18.000000000000004</ele><time>2026-04-11T12:50:26Z</time></trkpt><trkpt lat="50.4533921533613" lon="3.313662670065264"><ele>18.0</ele><time>2026-04-11T12:50:27Z</time></trkpt><trkpt lat="50.45337199086847" lon="3.3137663940702464"><ele>18.000000000000004</ele><time>2026-04-11T12:50:28Z</time></trkpt><trkpt lat="50.453347933684704" lon="3.313874806843434"><ele>18.0</ele><time>2026-04-11T12:50:29Z</time></trkpt><trkpt lat="50.45332560545683" lon="3.313981129738027"><ele>18.0</ele><time>2026-04-11T12:50:30Z</time></trkpt><trkpt lat="50.45330778735044" lon="3.314087586903876"><ele>18.0</ele><time>2026-04-11T12:50:31Z</time></trkpt><trkpt lat="50.453285672164235" lon="3.314194112437374"><ele>18.0</ele><time>2026-04-11T12:50:32Z</time></trkpt><trkpt lat="50.45326195065752" lon="3.314298614813647"><ele>18.000000000000004</ele><time>2026-04-11T12:50:33Z</time></trkpt><trkpt lat="50.453236948377246" lon="3.3144052764164433"><ele>18.0</ele><time>2026-04-11T12:50:34Z</time></trkpt><trkpt lat="50.453214472195675" lon="3.31450929045601"><ele>18.142857142857146</ele><time>2026-04-11T12:50:35Z</time></trkpt><trkpt lat="50.453191772038835" lon="3.314618334644301"><ele>18.285714285714285</ele><time>2026-04-11T12:50:36Z</time></trkpt><trkpt lat="50.453169653095955" lon="3.314725631725429"><ele>18.42857142857143</ele><time>2026-04-11T12:50:37Z</time></trkpt><trkpt lat="50.453147342645664" lon="3.3148327789210574"><ele>18.571428571428573</ele><time>2026-04-11T12:50:38Z</time></trkpt><trkpt lat="50.45312431512586" lon="3.3149386204876623"><ele>18.714285714285715</ele><time>2026-04-11T12:50:39Z</time></trkpt><trkpt lat="50.45310124894811" lon="3.315045387175026"><ele>18.857142857142858</ele><time>2026-04-11T12:50:40Z</time></trkpt><trkpt lat="50.453078060248885" lon="3.3151519689658326"><ele>19.0</ele><time>2026-04-11T12:50:41Z</time></trkpt><trkpt lat="50.453056333214434" lon="3.3152546272816266"><ele>19.0</ele><time>2026-04-11T12:50:42Z</time></trkpt><trkpt lat="50.45303621037281" lon="3.315361301448591"><ele>19.0</ele><time>2026-04-11T12:50:43Z</time></trkpt><trkpt lat="50.45301137115031" lon="3.3154692706651647"><ele>19.0</ele><time>2026-04-11T12:50:44Z</time></trkpt><trkpt lat="50.45298987771346" lon="3.315568740823724"><ele>19.0</ele><time>2026-04-11T12:50:45Z</time></trkpt><trkpt lat="50.452966861715794" lon="3.3156713390364954"><ele>19.0</ele><time>2026-04-11T12:50:46Z</time></trkpt><trkpt lat="50.45294409868552" lon="3.3157755339542243"><ele>19.0</ele><time>2026-04-11T12:50:47Z</time></trkpt><trkpt lat="50.45293006122193" lon="3.3158730888598877"><ele>19.0</ele><time>2026-04-11T12:50:48Z</time></trkpt><trkpt lat="50.452905968776165" lon="3.3159823416144603"><ele>19.0</ele><time>2026-04-11T12:50:49Z</time></trkpt><trkpt lat="50.4528814208685" lon="3.316082931769541"><ele>19.0</ele><time>2026-04-11T12:50:50Z</time></trkpt><trkpt lat="50.45285870495539" lon="3.316188437214623"><ele>19.0</ele><time>2026-04-11T12:50:51Z</time></trkpt><trkpt lat="50.45283525669215" lon="3.3162881031800473"><ele>19.0</ele><time>2026-04-11T12:50:52Z</time></trkpt><trkpt lat="50.45281602998759" lon="3.3163924683001897"><ele>19.0</ele><time>2026-04-11T12:50:53Z</time></trkpt><trkpt lat="50.45279412785401" lon="3.3164980655082856"><ele>19.0</ele><time>2026-04-11T12:50:54Z</time></trkpt><trkpt lat="50.452771604754595" lon="3.316603384160683"><ele>19.0</ele><time>2026-04-11T12:50:55Z</time></trkpt><trkpt lat="50.452750796941075" lon="3.3167060126870958"><ele>19.0</ele><time>2026-04-11T12:50:56Z</time></trkpt><trkpt lat="50.45272892086626" lon="3.3168100474528277"><ele>19.0</ele><time>2026-04-11T12:50:57Z</time></trkpt><trkpt lat="50.452707408068434" lon="3.316914281836863"><ele>19.0</ele><time>2026-04-11T12:50:58Z</time></trkpt><trkpt lat="50.452685971689235" lon="3.317019796235801"><ele>19.0</ele><time>2026-04-11T12:50:59Z</time></trkpt><trkpt lat="50.45266372783979" lon="3.317129314372973"><ele>19.0</ele><time>2026-04-11T12:51:00Z</time></trkpt><trkpt lat="50.452646360937386" lon="3.317240000257757"><ele>19.0</ele><time>2026-04-11T12:51:00.999Z</time></trkpt><trkpt lat="50.45262073948487" lon="3.31733501802665"><ele>19.0</ele><time>2026-04-11T12:51:01.999Z</time></trkpt><trkpt lat="50.4525997755823" lon="3.317435736190384"><ele>18.857142857142858</ele><time>2026-04-11T12:51:03Z</time></trkpt><trkpt lat="50.4525784587666" lon="3.3175387509443395"><ele>18.714285714285715</ele><time>2026-04-11T12:51:04Z</time></trkpt><trkpt lat="50.45255616603212" lon="3.317644884480446"><ele>18.571428571428573</ele><time>2026-04-11T12:51:05Z</time></trkpt><trkpt lat="50.45253760908557" lon="3.3177467561633964"><ele>18.42857142857143</ele><time>2026-04-11T12:51:06Z</time></trkpt><trkpt lat="50.45251681542534" lon="3.317850638681312"><ele>18.285714285714285</ele><time>2026-04-11T12:51:07Z</time></trkpt><trkpt lat="50.45249365979205" lon="3.317954254992119"><ele>18.142857142857146</ele><time>2026-04-11T12:51:08Z</time></trkpt><trkpt lat="50.45247218718111" lon="3.3180568005905444"><ele>18.0</ele><time>2026-04-11T12:51:09Z</time></trkpt><trkpt lat="50.4524502431378" lon="3.3181647470945266"><ele>18.000000000000004</ele><time>2026-04-11T12:51:10Z</time></trkpt><trkpt lat="50.452429714519816" lon="3.3182661684343353"><ele>18.0</ele><time>2026-04-11T12:51:11Z</time></trkpt><trkpt lat="50.452407466093376" lon="3.3183693507554697"><ele>18.0</ele><time>2026-04-11T12:51:12Z</time></trkpt><trkpt lat="50.45238669959588" lon="3.3184684824356214"><ele>18.0</ele><time>2026-04-11T12:51:13Z</time></trkpt><trkpt lat="50.452365712488735" lon="3.3185675231800382"><ele>18.0</ele><time>2026-04-11T12:51:14Z</time></trkpt><trkpt lat="50.45234464499519" lon="3.318671162203222"><ele>18.000000000000004</ele><time>2026-04-11T12:51:15Z</time></trkpt><trkpt lat="50.45232456398153" lon="3.3187703520639813"><ele>18.0</ele><time>2026-04-11T12:51:16Z</time></trkpt><trkpt lat="50.45230453732801" lon="3.3188702553539287"><ele>18.000000000000004</ele><time>2026-04-11T12:51:17Z</time></trkpt><trkpt lat="50.45227947650576" lon="3.3189696588262767"><ele>18.0</ele><time>2026-04-11T12:51:18Z</time></trkpt><trkpt lat="50.452255356954595" lon="3.319071490947863"><ele>18.0</ele><time>2026-04-11T12:51:19Z</time></trkpt><trkpt lat="50.4522389252746" lon="3.319170835666235"><ele>18.0</ele><time>2026-04-11T12:51:20Z</time></trkpt><trkpt lat="50.452219430944226" lon="3.3192718415342135"><ele>18.0</ele><time>2026-04-11T12:51:21Z</time></trkpt><trkpt lat="50.45219940428283" lon="3.3193707241435617"><ele>18.000000000000004</ele><time>2026-04-11T12:51:22Z</time></trkpt><trkpt lat="50.45217828991397" lon="3.3194710308707345"><ele>18.0</ele><time>2026-04-11T12:51:23Z</time></trkpt><trkpt lat="50.45215603308663" lon="3.319571428603757"><ele>18.000000000000004</ele><time>2026-04-11T12:51:24Z</time></trkpt><trkpt lat="50.452134033455536" lon="3.3196670891450455"><ele>18.0</ele><time>2026-04-11T12:51:25Z</time></trkpt><trkpt lat="50.452111041433426" lon="3.3197646915625882"><ele>18.0</ele><time>2026-04-11T12:51:26Z</time></trkpt><trkpt lat="50.45209228600293" lon="3.319862820963748"><ele>18.0</ele><time>2026-04-11T12:51:27Z</time></trkpt><trkpt lat="50.45207420511203" lon="3.3199607121937174"><ele>18.0</ele><time>2026-04-11T12:51:28Z</time></trkpt><trkpt lat="50.45205509064036" lon="3.3200588790623504"><ele>18.000000000000004</ele><time>2026-04-11T12:51:29Z</time></trkpt><trkpt lat="50.45203595599336" lon="3.320155006189324"><ele>18.0</ele><time>2026-04-11T12:51:30Z</time></trkpt><trkpt lat="50.452013923329645" lon="3.3202499605515006"><ele>18.0</ele><time>2026-04-11T12:51:31Z</time></trkpt><trkpt lat="50.45199316869946" lon="3.320344889843131"><ele>18.0</ele><time>2026-04-11T12:51:32Z</time></trkpt><trkpt lat="50.45197178675622" lon="3.3204379969553597"><ele>18.0</ele><time>2026-04-11T12:51:33Z</time></trkpt><trkpt lat="50.451935336661464" lon="3.32062269700433"><ele>18.0</ele><time>2026-04-11T12:51:35Z</time></trkpt><trkpt lat="50.45189781589164" lon="3.3208041153951213"><ele>18.0</ele><time>2026-04-11T12:51:37Z</time></trkpt><trkpt lat="50.451859208101396" lon="3.3209827419270916"><ele>18.0</ele><time>2026-04-11T12:51:39Z</time></trkpt><trkpt lat="50.45182318492452" lon="3.321162574395055"><ele>18.0</ele><time>2026-04-11T12:51:41Z</time></trkpt><trkpt lat="50.451786383025926" lon="3.3213438625114082"><ele>18.0</ele><time>2026-04-11T12:51:43Z</time></trkpt><trkpt lat="50.45174427916066" lon="3.3215212708294373"><ele>18.0</ele><time>2026-04-11T12:51:45Z</time></trkpt><trkpt lat="50.45172550272465" lon="3.3216179140401563"><ele>18.0</ele><time>2026-04-11T12:51:46Z</time></trkpt><trkpt lat="50.45168886320825" lon="3.3217952029492395"><ele>18.0</ele><time>2026-04-11T12:51:48Z</time></trkpt><trkpt lat="50.45165192658496" lon="3.321971107886956"><ele>18.0</ele><time>2026-04-11T12:51:50Z</time></trkpt><trkpt lat="50.451612887193825" lon="3.322147655547135"><ele>18.0</ele><time>2026-04-11T12:51:52Z</time></trkpt><trkpt lat="50.45157042564457" lon="3.3223336727971566"><ele>18.0</ele><time>2026-04-11T12:51:54Z</time></trkpt><trkpt lat="50.45155402417334" lon="3.3224304547682757"><ele>18.0</ele><time>2026-04-11T12:51:55Z</time></trkpt><trkpt lat="50.451515234021684" lon="3.322609604464335"><ele>18.166666666666668</ele><time>2026-04-11T12:51:57Z</time></trkpt><trkpt lat="50.45148045878061" lon="3.3227857832364798"><ele>18.333333333333332</ele><time>2026-04-11T12:51:59Z</time></trkpt><trkpt lat="50.451440815953596" lon="3.322972943882816"><ele>18.5</ele><time>2026-04-11T12:52:01Z</time></trkpt><trkpt lat="50.451420157859005" lon="3.3230717724366827"><ele>18.666666666666664</ele><time>2026-04-11T12:52:02Z</time></trkpt><trkpt lat="50.451398706922674" lon="3.323168242390131"><ele>18.833333333333332</ele><time>2026-04-11T12:52:03Z</time></trkpt><trkpt lat="50.45137822401158" lon="3.3232674299180354"><ele>19.0</ele><time>2026-04-11T12:52:04Z</time></trkpt><trkpt lat="50.45135745158806" lon="3.323368357991389"><ele>19.142857142857142</ele><time>2026-04-11T12:52:05Z</time></trkpt><trkpt lat="50.45133737486047" lon="3.3234677396708303"><ele>19.28571428571429</ele><time>2026-04-11T12:52:06Z</time></trkpt><trkpt lat="50.45131724156309" lon="3.323565881257667"><ele>19.42857142857143</ele><time>2026-04-11T12:52:07Z</time></trkpt><trkpt lat="50.451297244646376" lon="3.323668440864538"><ele>19.57142857142857</ele><time>2026-04-11T12:52:08Z</time></trkpt><trkpt lat="50.451279460637124" lon="3.323766710046542"><ele>19.714285714285715</ele><time>2026-04-11T12:52:09Z</time></trkpt><trkpt lat="50.45125457379254" lon="3.3238610726265825"><ele>19.857142857142858</ele><time>2026-04-11T12:52:10Z</time></trkpt><trkpt lat="50.451232160735756" lon="3.323954482679073"><ele>20.0</ele><time>2026-04-11T12:52:11Z</time></trkpt><trkpt lat="50.45120952343236" lon="3.3240525397716674"><ele>19.857142857142858</ele><time>2026-04-11T12:52:12Z</time></trkpt><trkpt lat="50.45118678976113" lon="3.324145519521885"><ele>19.714285714285715</ele><time>2026-04-11T12:52:13Z</time></trkpt><trkpt lat="50.451165448356676" lon="3.3242411219794867"><ele>19.57142857142857</ele><time>2026-04-11T12:52:14Z</time></trkpt><trkpt lat="50.451142194276414" lon="3.324339076655681"><ele>19.42857142857143</ele><time>2026-04-11T12:52:15Z</time></trkpt><trkpt lat="50.45111814228381" lon="3.3244374869767572"><ele>19.28571428571429</ele><time>2026-04-11T12:52:16Z</time></trkpt><trkpt lat="50.451097390091" lon="3.3245367580039114"><ele>19.142857142857142</ele><time>2026-04-11T12:52:17Z</time></trkpt><trkpt lat="50.451079496729825" lon="3.324639802508357"><ele>19.0</ele><time>2026-04-11T12:52:18Z</time></trkpt><trkpt lat="50.451063388620646" lon="3.3247405334309663"><ele>19.0</ele><time>2026-04-11T12:52:19Z</time></trkpt><trkpt lat="50.45104514664134" lon="3.3248434241988645"><ele>19.0</ele><time>2026-04-11T12:52:20Z</time></trkpt><trkpt lat="50.45102720190206" lon="3.3249423892139918"><ele>19.0</ele><time>2026-04-11T12:52:21Z</time></trkpt><trkpt lat="50.450988289880506" lon="3.3251382647150236"><ele>19.0</ele><time>2026-04-11T12:52:23Z</time></trkpt><trkpt lat="50.45096796287023" lon="3.325235871658167"><ele>19.0</ele><time>2026-04-11T12:52:24Z</time></trkpt><trkpt lat="50.450947732586116" lon="3.3253369054938986"><ele>19.0</ele><time>2026-04-11T12:52:25Z</time></trkpt><trkpt lat="50.45092330320954" lon="3.325432391853639"><ele>19.0</ele><time>2026-04-11T12:52:26Z</time></trkpt><trkpt lat="50.450902614784525" lon="3.32552943352734"><ele>19.0</ele><time>2026-04-11T12:52:27Z</time></trkpt><trkpt lat="50.45087509488143" lon="3.3256237480774717"><ele>19.0</ele><time>2026-04-11T12:52:28Z</time></trkpt><trkpt lat="50.45085658115154" lon="3.325731175223925"><ele>19.0</ele><time>2026-04-11T12:52:29Z</time></trkpt><trkpt lat="50.45083734265738" lon="3.325830963701009"><ele>19.0</ele><time>2026-04-11T12:52:30Z</time></trkpt><trkpt lat="50.45081578184761" lon="3.325927103605228"><ele>19.0</ele><time>2026-04-11T12:52:31Z</time></trkpt><trkpt lat="50.45079560284298" lon="3.326021042813675"><ele>19.0</ele><time>2026-04-11T12:52:32Z</time></trkpt><trkpt lat="50.450776686982124" lon="3.3261216621318463"><ele>19.2</ele><time>2026-04-11T12:52:33Z</time></trkpt><trkpt lat="50.450755175942646" lon="3.326214947467386"><ele>19.4</ele><time>2026-04-11T12:52:34Z</time></trkpt><trkpt lat="50.45073541138664" lon="3.3263130494877586"><ele>19.6</ele><time>2026-04-11T12:52:35Z</time></trkpt><trkpt lat="50.450698343881" lon="3.326503345813159"><ele>19.8</ele><time>2026-04-11T12:52:37Z</time></trkpt><trkpt lat="50.450660758659794" lon="3.3266970489614014"><ele>20.0</ele><time>2026-04-11T12:52:39Z</time></trkpt><trkpt lat="50.45061708360116" lon="3.3268842725590755"><ele>20.0</ele><time>2026-04-11T12:52:41Z</time></trkpt><trkpt lat="50.4505965359556" lon="3.326980279707395"><ele>20.0</ele><time>2026-04-11T12:52:42Z</time></trkpt><trkpt lat="50.450554439362676" lon="3.327169980074425"><ele>20.0</ele><time>2026-04-11T12:52:44Z</time></trkpt><trkpt lat="50.450534147799445" lon="3.3272649245343837"><ele>20.0</ele><time>2026-04-11T12:52:45Z</time></trkpt><trkpt lat="50.45051377196393" lon="3.3273646207198126"><ele>20.0</ele><time>2026-04-11T12:52:46Z</time></trkpt><trkpt lat="50.45049570904698" lon="3.327469439934638"><ele>20.0</ele><time>2026-04-11T12:52:47Z</time></trkpt><trkpt lat="50.450473359469186" lon="3.327565473636021"><ele>19.857142857142858</ele><time>2026-04-11T12:52:48Z</time></trkpt><trkpt lat="50.45045392710706" lon="3.3276634659540067"><ele>19.714285714285715</ele><time>2026-04-11T12:52:48.999Z</time></trkpt><trkpt lat="50.450436362545595" lon="3.3277629113060643"><ele>19.57142857142857</ele><time>2026-04-11T12:52:49.999Z</time></trkpt><trkpt lat="50.45041687258298" lon="3.3278609304625015"><ele>19.42857142857143</ele><time>2026-04-11T12:52:50.999Z</time></trkpt><trkpt lat="50.450394813203836" lon="3.3279592160282214"><ele>19.28571428571429</ele><time>2026-04-11T12:52:51.999Z</time></trkpt><trkpt lat="50.45037156947064" lon="3.328057384574115"><ele>19.142857142857142</ele><time>2026-04-11T12:52:52.999Z</time></trkpt><trkpt lat="50.450352708917386" lon="3.328156058486097"><ele>19.0</ele><time>2026-04-11T12:52:53.999Z</time></trkpt><trkpt lat="50.45033392809633" lon="3.3282574842193005"><ele>18.833333333333332</ele><time>2026-04-11T12:52:54.999Z</time></trkpt><trkpt lat="50.450312928989156" lon="3.3283554916133413"><ele>18.666666666666664</ele><time>2026-04-11T12:52:55.999Z</time></trkpt><trkpt lat="50.450291701954704" lon="3.3284528751962763"><ele>18.5</ele><time>2026-04-11T12:52:56.999Z</time></trkpt><trkpt lat="50.45027010625517" lon="3.328551246909578"><ele>18.333333333333332</ele><time>2026-04-11T12:52:57.999Z</time></trkpt><trkpt lat="50.450251028493625" lon="3.328649644393161"><ele>18.166666666666668</ele><time>2026-04-11T12:52:58.999Z</time></trkpt><trkpt lat="50.45023144164806" lon="3.328749090483654"><ele>18.0</ele><time>2026-04-11T12:52:59.999Z</time></trkpt><trkpt lat="50.4501896115655" lon="3.3289404863596643"><ele>17.857142857142858</ele><time>2026-04-11T12:53:01.999Z</time></trkpt><trkpt lat="50.45016708327116" lon="3.329035543742436"><ele>17.714285714285715</ele><time>2026-04-11T12:53:02.999Z</time></trkpt><trkpt lat="50.45014522347649" lon="3.3291364011147797"><ele>17.57142857142857</ele><time>2026-04-11T12:53:03.999Z</time></trkpt><trkpt lat="50.45012512680703" lon="3.3292331121827656"><ele>17.42857142857143</ele><time>2026-04-11T12:53:04.999Z</time></trkpt><trkpt lat="50.450104771814175" lon="3.329334900241833"><ele>17.285714285714285</ele><time>2026-04-11T12:53:05.999Z</time></trkpt><trkpt lat="50.45008411452909" lon="3.329436019841277"><ele>17.142857142857142</ele><time>2026-04-11T12:53:06.999Z</time></trkpt><trkpt lat="50.45006468268107" lon="3.3295314144605395"><ele>17.0</ele><time>2026-04-11T12:53:07.999Z</time></trkpt><trkpt lat="50.45004337456245" lon="3.329630728904544"><ele>16.999999999999996</ele><time>2026-04-11T12:53:08.999Z</time></trkpt><trkpt lat="50.45002308803599" lon="3.3297331566173574"><ele>17.0</ele><time>2026-04-11T12:53:10Z</time></trkpt><trkpt lat="50.45000470345641" lon="3.3298319301816988"><ele>17.0</ele><time>2026-04-11T12:53:11Z</time></trkpt><trkpt lat="50.44998215631793" lon="3.3299337301096403"><ele>17.0</ele><time>2026-04-11T12:53:12Z</time></trkpt><trkpt lat="50.44996057267754" lon="3.3300304100665596"><ele>17.0</ele><time>2026-04-11T12:53:13Z</time></trkpt><trkpt lat="50.449940441264346" lon="3.330132707959048"><ele>16.999999999999996</ele><time>2026-04-11T12:53:14Z</time></trkpt><trkpt lat="50.449920274513865" lon="3.330229402187224"><ele>17.0</ele><time>2026-04-11T12:53:15Z</time></trkpt><trkpt lat="50.44989954620837" lon="3.3303300826263187"><ele>16.999999999999996</ele><time>2026-04-11T12:53:16Z</time></trkpt><trkpt lat="50.44987850165675" lon="3.3304271143648765"><ele>17.0</ele><time>2026-04-11T12:53:17Z</time></trkpt><trkpt lat="50.44985637751539" lon="3.330528170267443"><ele>17.0</ele><time>2026-04-11T12:53:18Z</time></trkpt><trkpt lat="50.44983581578065" lon="3.3306231450775234"><ele>17.0</ele><time>2026-04-11T12:53:19Z</time></trkpt><trkpt lat="50.44981538657307" lon="3.3307189484240793"><ele>17.0</ele><time>2026-04-11T12:53:20Z</time></trkpt><trkpt lat="50.44979954266589" lon="3.33081929136526"><ele>16.999999999999996</ele><time>2026-04-11T12:53:21Z</time></trkpt><trkpt lat="50.44978012677302" lon="3.3309137360043235"><ele>17.0</ele><time>2026-04-11T12:53:22Z</time></trkpt><trkpt lat="50.44975878744832" lon="3.3310071960733265"><ele>17.166666666666668</ele><time>2026-04-11T12:53:23Z</time></trkpt><trkpt lat="50.44973898606157" lon="3.3311021310926305"><ele>17.333333333333336</ele><time>2026-04-11T12:53:24Z</time></trkpt><trkpt lat="50.44969921913855" lon="3.3312912698880193"><ele>17.5</ele><time>2026-04-11T12:53:26Z</time></trkpt><trkpt lat="50.44967934093624" lon="3.3313860201731766"><ele>17.666666666666668</ele><time>2026-04-11T12:53:27Z</time></trkpt><trkpt lat="50.44963726895442" lon="3.331567098460614"><ele>17.833333333333332</ele><time>2026-04-11T12:53:29Z</time></trkpt><trkpt lat="50.44961674490848" lon="3.33166365357962"><ele>18.0</ele><time>2026-04-11T12:53:30Z</time></trkpt><trkpt lat="50.44958016919601" lon="3.331850375234875"><ele>18.0</ele><time>2026-04-11T12:53:32Z</time></trkpt><trkpt lat="50.44956060231803" lon="3.331944902968481"><ele>18.0</ele><time>2026-04-11T12:53:33Z</time></trkpt><trkpt lat="50.44954106828026" lon="3.332040037156432"><ele>18.0</ele><time>2026-04-11T12:53:34Z</time></trkpt><trkpt lat="50.449502020942774" lon="3.3322267864025275"><ele>18.0</ele><time>2026-04-11T12:53:36Z</time></trkpt><trkpt lat="50.44946450513853" lon="3.332412306822085"><ele>18.0</ele><time>2026-04-11T12:53:38Z</time></trkpt><trkpt lat="50.44942479505784" lon="3.3325977049145106"><ele>18.0</ele><time>2026-04-11T12:53:40Z</time></trkpt><trkpt lat="50.4494055710937" lon="3.332692215461802"><ele>18.0</ele><time>2026-04-11T12:53:41Z</time></trkpt><trkpt lat="50.449366808810474" lon="3.33287008071234"><ele>18.0</ele><time>2026-04-11T12:53:43Z</time></trkpt><trkpt lat="50.44932952501651" lon="3.3330476641745403"><ele>18.0</ele><time>2026-04-11T12:53:45Z</time></trkpt><trkpt lat="50.44929263549952" lon="3.3332297013945182"><ele>18.0</ele><time>2026-04-11T12:53:47Z</time></trkpt><trkpt lat="50.44925359249311" lon="3.3334094741566576"><ele>18.0</ele><time>2026-04-11T12:53:49Z</time></trkpt><trkpt lat="50.449217719408004" lon="3.3335922733403516"><ele>18.0</ele><time>2026-04-11T12:53:51Z</time></trkpt><trkpt lat="50.44917532117593" lon="3.3337677323806933"><ele>18.0</ele><time>2026-04-11T12:53:53Z</time></trkpt><trkpt lat="50.44915565652144" lon="3.333862565789782"><ele>18.0</ele><time>2026-04-11T12:53:54Z</time></trkpt><trkpt lat="50.449115981050355" lon="3.3340341916429335"><ele>18.0</ele><time>2026-04-11T12:53:56Z</time></trkpt><trkpt lat="50.44909583576178" lon="3.3341336977986495"><ele>18.0</ele><time>2026-04-11T12:53:57Z</time></trkpt><trkpt lat="50.44905996671956" lon="3.3343192619921678"><ele>18.0</ele><time>2026-04-11T12:53:59Z</time></trkpt><trkpt lat="50.449021583165425" lon="3.3344952590484933"><ele>18.0</ele><time>2026-04-11T12:54:01Z</time></trkpt><trkpt lat="50.44898615662534" lon="3.3346769011722293"><ele>18.0</ele><time>2026-04-11T12:54:03Z</time></trkpt><trkpt lat="50.44894859222537" lon="3.3348549307308013"><ele>18.0</ele><time>2026-04-11T12:54:05Z</time></trkpt><trkpt lat="50.44891281118849" lon="3.335037083755664"><ele>18.0</ele><time>2026-04-11T12:54:07Z</time></trkpt><trkpt lat="50.44887485334458" lon="3.3352173488496084"><ele>18.0</ele><time>2026-04-11T12:54:09Z</time></trkpt><trkpt lat="50.44883729582873" lon="3.3353990803942026"><ele>18.0</ele><time>2026-04-11T12:54:11Z</time></trkpt><trkpt lat="50.44879926000814" lon="3.33557982653949"><ele>17.75</ele><time>2026-04-11T12:54:13Z</time></trkpt><trkpt lat="50.448762767987276" lon="3.335760723454395"><ele>17.5</ele><time>2026-04-11T12:54:15Z</time></trkpt><trkpt lat="50.44872740141601" lon="3.3359402631707806"><ele>17.25</ele><time>2026-04-11T12:54:17Z</time></trkpt><trkpt lat="50.44868804157113" lon="3.336119280944322"><ele>17.0</ele><time>2026-04-11T12:54:19Z</time></trkpt><trkpt lat="50.44865507599302" lon="3.3363007462084795"><ele>17.0</ele><time>2026-04-11T12:54:21Z</time></trkpt><trkpt lat="50.448621811441974" lon="3.336478682670802"><ele>17.0</ele><time>2026-04-11T12:54:23Z</time></trkpt><trkpt lat="50.44858643676671" lon="3.3366434820633164"><ele>17.0</ele><time>2026-04-11T12:54:25Z</time></trkpt><trkpt lat="50.44854727389247" lon="3.336813839537503"><ele>17.0</ele><time>2026-04-11T12:54:27Z</time></trkpt><trkpt lat="50.44850289106707" lon="3.3369882421804373"><ele>17.0</ele><time>2026-04-11T12:54:29Z</time></trkpt><trkpt lat="50.44846038274613" lon="3.3371661829402988"><ele>17.0</ele><time>2026-04-11T12:54:31Z</time></trkpt><trkpt lat="50.44841468242346" lon="3.3373431705467445"><ele>17.0</ele><time>2026-04-11T12:54:33Z</time></trkpt><trkpt lat="50.44838050124893" lon="3.337517246906489"><ele>17.0</ele><time>2026-04-11T12:54:35Z</time></trkpt><trkpt lat="50.44833809343654" lon="3.3376976454884857"><ele>17.25</ele><time>2026-04-11T12:54:37Z</time></trkpt><trkpt lat="50.44829242454376" lon="3.3378755544742846"><ele>17.5</ele><time>2026-04-11T12:54:39Z</time></trkpt><trkpt lat="50.448249067188314" lon="3.338049230089051"><ele>17.75</ele><time>2026-04-11T12:54:41Z</time></trkpt><trkpt lat="50.448189161462125" lon="3.3382136864669776"><ele>18.0</ele><time>2026-04-11T12:54:43Z</time></trkpt><trkpt lat="50.44813387422348" lon="3.3383781998003004"><ele>18.0</ele><time>2026-04-11T12:54:44.999Z</time></trkpt><trkpt lat="50.448050618824446" lon="3.3385091488279492"><ele>18.0</ele><time>2026-04-11T12:54:46.999Z</time></trkpt><trkpt lat="50.44796230696657" lon="3.3386021571023994"><ele>18.0</ele><time>2026-04-11T12:54:48.999Z</time></trkpt><trkpt lat="50.447887544099004" lon="3.3386886284783186"><ele>18.0</ele><time>2026-04-11T12:54:50.999Z</time></trkpt><trkpt lat="50.4478120294237" lon="3.3387616712848294"><ele>18.0</ele><time>2026-04-11T12:54:52.999Z</time></trkpt><trkpt lat="50.44781786392324" lon="3.338878338741701"><ele>17.833333333333332</ele><time>2026-04-11T12:54:55.999Z</time></trkpt><trkpt lat="50.44784508618672" lon="3.3390035360237786"><ele>17.666666666666668</ele><time>2026-04-11T12:54:58.999Z</time></trkpt><trkpt lat="50.44781970241038" lon="3.3391099435191562"><ele>17.5</ele><time>2026-04-11T12:55:00.999Z</time></trkpt><trkpt lat="50.44786033810818" lon="3.339244299839365"><ele>17.333333333333336</ele><time>2026-04-11T12:55:03.999Z</time></trkpt><trkpt lat="50.44790925933889" lon="3.3393235539075166"><ele>17.166666666666668</ele><time>2026-04-11T12:55:05.999Z</time></trkpt><trkpt lat="50.44794715554091" lon="3.339429987546905"><ele>17.0</ele><time>2026-04-11T12:55:07.999Z</time></trkpt><trkpt lat="50.447940296823354" lon="3.339573648481271"><ele>17.2</ele><time>2026-04-11T12:55:09.999Z</time></trkpt><trkpt lat="50.44791481522723" lon="3.33972519584654"><ele>17.4</ele><time>2026-04-11T12:55:11.999Z</time></trkpt><trkpt lat="50.44789424758515" lon="3.339875803143257"><ele>17.6</ele><time>2026-04-11T12:55:13.999Z</time></trkpt><trkpt lat="50.44786163198176" lon="3.340025336071352"><ele>17.8</ele><time>2026-04-11T12:55:16Z</time></trkpt><trkpt lat="50.44783004049393" lon="3.340182282518318"><ele>18.0</ele><time>2026-04-11T12:55:18Z</time></trkpt><trkpt lat="50.447794878732154" lon="3.3403378743550993"><ele>18.0</ele><time>2026-04-11T12:55:20Z</time></trkpt><trkpt lat="50.447763776747756" lon="3.3404981368243067"><ele>18.0</ele><time>2026-04-11T12:55:22Z</time></trkpt><trkpt lat="50.44773018186469" lon="3.3406635680885644"><ele>18.0</ele><time>2026-04-11T12:55:24Z</time></trkpt><trkpt lat="50.447698137137515" lon="3.3408242349991633"><ele>18.0</ele><time>2026-04-11T12:55:26Z</time></trkpt><trkpt lat="50.44766395984143" lon="3.3409900986531005"><ele>18.0</ele><time>2026-04-11T12:55:28Z</time></trkpt><trkpt lat="50.44762941505532" lon="3.341162612218511"><ele>18.0</ele><time>2026-04-11T12:55:30Z</time></trkpt><trkpt lat="50.4475931836485" lon="3.3413374848576964"><ele>18.0</ele><time>2026-04-11T12:55:32Z</time></trkpt><trkpt lat="50.447560116728084" lon="3.3415114887657613"><ele>18.0</ele><time>2026-04-11T12:55:34Z</time></trkpt><trkpt lat="50.44752673372685" lon="3.341682801592404"><ele>18.0</ele><time>2026-04-11T12:55:36Z</time></trkpt><trkpt lat="50.447499277497" lon="3.3418561850705717"><ele>17.75</ele><time>2026-04-11T12:55:38Z</time></trkpt><trkpt lat="50.44746971416946" lon="3.3420281272610275"><ele>17.5</ele><time>2026-04-11T12:55:40Z</time></trkpt><trkpt lat="50.44744522378" lon="3.3421990738704093"><ele>17.25</ele><time>2026-04-11T12:55:42Z</time></trkpt><trkpt lat="50.44741546822246" lon="3.3423835370828794"><ele>17.0</ele><time>2026-04-11T12:55:44Z</time></trkpt><trkpt lat="50.44739820607382" lon="3.3425651832656555"><ele>17.0</ele><time>2026-04-11T12:55:46Z</time></trkpt><trkpt lat="50.44736838033196" lon="3.342750071091624"><ele>17.0</ele><time>2026-04-11T12:55:48Z</time></trkpt><trkpt lat="50.447334156626574" lon="3.3429315938742534"><ele>17.0</ele><time>2026-04-11T12:55:50Z</time></trkpt><trkpt lat="50.447306258021754" lon="3.3431035347601235"><ele>17.0</ele><time>2026-04-11T12:55:52Z</time></trkpt><trkpt lat="50.44727777808294" lon="3.3432640613555686"><ele>17.2</ele><time>2026-04-11T12:55:54Z</time></trkpt><trkpt lat="50.44725020787238" lon="3.34342133240737"><ele>17.4</ele><time>2026-04-11T12:55:56Z</time></trkpt><trkpt lat="50.447224310824545" lon="3.3435826161727196"><ele>17.6</ele><time>2026-04-11T12:55:58Z</time></trkpt><trkpt lat="50.447201311424166" lon="3.343716295525376"><ele>17.8</ele><time>2026-04-11T12:56:00Z</time></trkpt><trkpt lat="50.44717184314002" lon="3.3438567271774438"><ele>18.0</ele><time>2026-04-11T12:56:02Z</time></trkpt><trkpt lat="50.4471707001074" lon="3.3440053466721262"><ele>18.2</ele><time>2026-04-11T12:56:04Z</time></trkpt><trkpt lat="50.44719531861645" lon="3.3441437263775535"><ele>18.4</ele><time>2026-04-11T12:56:06Z</time></trkpt><trkpt lat="50.447195085149986" lon="3.3442860044262814"><ele>18.599999999999998</ele><time>2026-04-11T12:56:08Z</time></trkpt><trkpt lat="50.44716791245134" lon="3.3444312655374033"><ele>18.8</ele><time>2026-04-11T12:56:10Z</time></trkpt><trkpt lat="50.44713756132315" lon="3.3445772649257783"><ele>19.0</ele><time>2026-04-11T12:56:12Z</time></trkpt><trkpt lat="50.44711688860008" lon="3.344713787359776"><ele>18.666666666666664</ele><time>2026-04-11T12:56:14Z</time></trkpt><trkpt lat="50.44709326715032" lon="3.344852392319567"><ele>18.333333333333332</ele><time>2026-04-11T12:56:16Z</time></trkpt><trkpt lat="50.44707435292482" lon="3.3449939732378406"><ele>18.0</ele><time>2026-04-11T12:56:18Z</time></trkpt><trkpt lat="50.44704592606602" lon="3.345125674776306"><ele>17.666666666666668</ele><time>2026-04-11T12:56:20Z</time></trkpt><trkpt lat="50.447020876483904" lon="3.3452606628242956"><ele>17.333333333333336</ele><time>2026-04-11T12:56:22Z</time></trkpt><trkpt lat="50.446996172080986" lon="3.3453923700589936"><ele>17.0</ele><time>2026-04-11T12:56:24Z</time></trkpt><trkpt lat="50.44697501673" lon="3.3455152094558627"><ele>17.166666666666668</ele><time>2026-04-11T12:56:26Z</time></trkpt><trkpt lat="50.4469510530545" lon="3.345648097052254"><ele>17.333333333333336</ele><time>2026-04-11T12:56:28Z</time></trkpt><trkpt lat="50.44692962240488" lon="3.34577271264794"><ele>17.5</ele><time>2026-04-11T12:56:30Z</time></trkpt><trkpt lat="50.44690798945925" lon="3.34589317615504"><ele>17.666666666666668</ele><time>2026-04-11T12:56:32Z</time></trkpt><trkpt lat="50.44688495089273" lon="3.3460077399962667"><ele>17.833333333333332</ele><time>2026-04-11T12:56:34Z</time></trkpt><trkpt lat="50.44685837202542" lon="3.346119630178651"><ele>18.0</ele><time>2026-04-11T12:56:36Z</time></trkpt><trkpt lat="50.446833699717324" lon="3.3462460911299385"><ele>18.0</ele><time>2026-04-11T12:56:38Z</time></trkpt><trkpt lat="50.446812877227174" lon="3.3463691838649106"><ele>18.0</ele><time>2026-04-11T12:56:40Z</time></trkpt><trkpt lat="50.44678858043711" lon="3.3464886199577286"><ele>18.0</ele><time>2026-04-11T12:56:42Z</time></trkpt><trkpt lat="50.44676290677022" lon="3.3465997521921134"><ele>18.0</ele><time>2026-04-11T12:56:44Z</time></trkpt><trkpt lat="50.44673735782107" lon="3.3467155903861525"><ele>18.0</ele><time>2026-04-11T12:56:46Z</time></trkpt><trkpt lat="50.44671573688423" lon="3.3468345540955005"><ele>18.0</ele><time>2026-04-11T12:56:48Z</time></trkpt><trkpt lat="50.44668811124122" lon="3.346959610526091"><ele>18.166666666666668</ele><time>2026-04-11T12:56:49.999Z</time></trkpt><trkpt lat="50.44666684949123" lon="3.347082317547155"><ele>18.333333333333332</ele><time>2026-04-11T12:56:51.999Z</time></trkpt><trkpt lat="50.44663891068093" lon="3.34720643348494"><ele>18.5</ele><time>2026-04-11T12:56:53.999Z</time></trkpt><trkpt lat="50.446613559806444" lon="3.347325513927902"><ele>18.666666666666664</ele><time>2026-04-11T12:56:55.999Z</time></trkpt><trkpt lat="50.446589102486065" lon="3.3474515179326683"><ele>18.833333333333332</ele><time>2026-04-11T12:56:57.999Z</time></trkpt><trkpt lat="50.446561985737" lon="3.3475810386941593"><ele>19.0</ele><time>2026-04-11T12:56:59.999Z</time></trkpt><trkpt lat="50.44653444010358" lon="3.3477122921951454"><ele>19.2</ele><time>2026-04-11T12:57:01.999Z</time></trkpt><trkpt lat="50.44650701184073" lon="3.3478462073900936"><ele>19.4</ele><time>2026-04-11T12:57:03.999Z</time></trkpt><trkpt lat="50.44647727540002" lon="3.347981662966925"><ele>19.6</ele><time>2026-04-11T12:57:05.999Z</time></trkpt><trkpt lat="50.44644962202217" lon="3.3481278224534714"><ele>19.8</ele><time>2026-04-11T12:57:07.999Z</time></trkpt><trkpt lat="50.446417405157774" lon="3.34827597745615"><ele>20.0</ele><time>2026-04-11T12:57:09.999Z</time></trkpt><trkpt lat="50.44638647442361" lon="3.348425106509847"><ele>20.0</ele><time>2026-04-11T12:57:11.999Z</time></trkpt><trkpt lat="50.446351625823596" lon="3.3485851607857855"><ele>20.0</ele><time>2026-04-11T12:57:13.999Z</time></trkpt><trkpt lat="50.44632123554679" lon="3.348751129448958"><ele>20.0</ele><time>2026-04-11T12:57:15.999Z</time></trkpt><trkpt lat="50.44628593154276" lon="3.3489157813744805"><ele>20.0</ele><time>2026-04-11T12:57:17.999Z</time></trkpt><trkpt lat="50.446268275729636" lon="3.349016229534173"><ele>20.0</ele><time>2026-04-11T12:57:18.999Z</time></trkpt><trkpt lat="50.44622678330437" lon="3.3491830520525587"><ele>20.0</ele><time>2026-04-11T12:57:20.999Z</time></trkpt><trkpt lat="50.446186046515415" lon="3.3493841842539216"><ele>20.0</ele><time>2026-04-11T12:57:23Z</time></trkpt><trkpt lat="50.44616515621187" lon="3.3494814448205896"><ele>20.0</ele><time>2026-04-11T12:57:24Z</time></trkpt><trkpt lat="50.44614075643028" lon="3.34957792397793"><ele>20.0</ele><time>2026-04-11T12:57:25Z</time></trkpt><trkpt lat="50.446118913857134" lon="3.349674168722296"><ele>20.0</ele><time>2026-04-11T12:57:26Z</time></trkpt><trkpt lat="50.44609927125508" lon="3.349776841725357"><ele>20.0</ele><time>2026-04-11T12:57:27Z</time></trkpt><trkpt lat="50.44607716404647" lon="3.3498796938041098"><ele>20.0</ele><time>2026-04-11T12:57:28Z</time></trkpt><trkpt lat="50.4460554966543" lon="3.34998365099358"><ele>20.0</ele><time>2026-04-11T12:57:29Z</time></trkpt><trkpt lat="50.446031576603446" lon="3.350087671594982"><ele>20.0</ele><time>2026-04-11T12:57:30Z</time></trkpt><trkpt lat="50.44601019280691" lon="3.350195098686881"><ele>20.0</ele><time>2026-04-11T12:57:31Z</time></trkpt><trkpt lat="50.44598540123942" lon="3.3503070123463545"><ele>20.0</ele><time>2026-04-11T12:57:32Z</time></trkpt><trkpt lat="50.44595771066668" lon="3.3504152867530754"><ele>20.0</ele><time>2026-04-11T12:57:33Z</time></trkpt><trkpt lat="50.445929851628385" lon="3.3505288277546432"><ele>20.0</ele><time>2026-04-11T12:57:34Z</time></trkpt><trkpt lat="50.445899340886925" lon="3.35063976823756"><ele>19.666666666666668</ele><time>2026-04-11T12:57:35Z</time></trkpt><trkpt lat="50.44587121041181" lon="3.3507519518432383"><ele>19.333333333333336</ele><time>2026-04-11T12:57:36Z</time></trkpt><trkpt lat="50.44584525178044" lon="3.3508668909897863"><ele>19.0</ele><time>2026-04-11T12:57:37Z</time></trkpt><trkpt lat="50.44581919608778" lon="3.350984223548081"><ele>18.666666666666668</ele><time>2026-04-11T12:57:38Z</time></trkpt><trkpt lat="50.44578964304738" lon="3.351097044429753"><ele>18.333333333333332</ele><time>2026-04-11T12:57:39Z</time></trkpt><trkpt lat="50.44576012739455" lon="3.3512109464611037"><ele>18.0</ele><time>2026-04-11T12:57:40Z</time></trkpt><trkpt lat="50.44573001775213" lon="3.351325520781394"><ele>18.000000000000004</ele><time>2026-04-11T12:57:41Z</time></trkpt><trkpt lat="50.44569923969367" lon="3.3514389847847097"><ele>18.0</ele><time>2026-04-11T12:57:42Z</time></trkpt><trkpt lat="50.445669004914706" lon="3.3515514053716875"><ele>18.0</ele><time>2026-04-11T12:57:43Z</time></trkpt><trkpt lat="50.445642497372376" lon="3.351662070256844"><ele>18.0</ele><time>2026-04-11T12:57:44Z</time></trkpt><trkpt lat="50.44561230371868" lon="3.3517669445107314"><ele>18.0</ele><time>2026-04-11T12:57:45Z</time></trkpt><trkpt lat="50.44558071188781" lon="3.351870211610776"><ele>18.000000000000004</ele><time>2026-04-11T12:57:46Z</time></trkpt><trkpt lat="50.4455530624284" lon="3.351971608739179"><ele>18.0</ele><time>2026-04-11T12:57:47Z</time></trkpt><trkpt lat="50.445525428845215" lon="3.352064597893759"><ele>18.0</ele><time>2026-04-11T12:57:48Z</time></trkpt><trkpt lat="50.44549841052944" lon="3.3521585921761337"><ele>18.0</ele><time>2026-04-11T12:57:49Z</time></trkpt><trkpt lat="50.445446138563256" lon="3.352338303691518"><ele>18.0</ele><time>2026-04-11T12:57:51Z</time></trkpt><trkpt lat="50.44539633394016" lon="3.3525025175873533"><ele>18.0</ele><time>2026-04-11T12:57:53Z</time></trkpt><trkpt lat="50.445344664679325" lon="3.352661122941575"><ele>18.0</ele><time>2026-04-11T12:57:55Z</time></trkpt><trkpt lat="50.44529199093124" lon="3.352808169101357"><ele>18.0</ele><time>2026-04-11T12:57:57Z</time></trkpt><trkpt lat="50.44521756507396" lon="3.3529436624295226"><ele>18.0</ele><time>2026-04-11T12:57:59Z</time></trkpt><trkpt lat="50.445168451115684" lon="3.3531036737139517"><ele>18.0</ele><time>2026-04-11T12:58:01Z</time></trkpt><trkpt lat="50.44510366258196" lon="3.3532403732464284"><ele>18.0</ele><time>2026-04-11T12:58:03Z</time></trkpt><trkpt lat="50.445030103865825" lon="3.3533586928975367"><ele>18.0</ele><time>2026-04-11T12:58:05Z</time></trkpt><trkpt lat="50.44492443896107" lon="3.353437237330804"><ele>18.0</ele><time>2026-04-11T12:58:07Z</time></trkpt><trkpt lat="50.44484937645281" lon="3.3535680941048525"><ele>18.0</ele><time>2026-04-11T12:58:09Z</time></trkpt><trkpt lat="50.444826504461176" lon="3.3537523300975884"><ele>18.0</ele><time>2026-04-11T12:58:11Z</time></trkpt><trkpt lat="50.44485342599715" lon="3.353918801383483"><ele>18.0</ele><time>2026-04-11T12:58:13Z</time></trkpt><trkpt lat="50.44489196934328" lon="3.3540889217410395"><ele>17.75</ele><time>2026-04-11T12:58:15Z</time></trkpt><trkpt lat="50.44487889975405" lon="3.354266100503845"><ele>17.5</ele><time>2026-04-11T12:58:17Z</time></trkpt><trkpt lat="50.444850804518076" lon="3.3544478338232517"><ele>17.25</ele><time>2026-04-11T12:58:19Z</time></trkpt><trkpt lat="50.44482743648102" lon="3.3546246666633315"><ele>17.0</ele><time>2026-04-11T12:58:21Z</time></trkpt><trkpt lat="50.44479494737203" lon="3.3547902985947324"><ele>17.0</ele><time>2026-04-11T12:58:23Z</time></trkpt><trkpt lat="50.444764012684736" lon="3.354934273987605"><ele>17.0</ele><time>2026-04-11T12:58:25Z</time></trkpt><trkpt lat="50.44473234540323" lon="3.355109707034734"><ele>17.0</ele><time>2026-04-11T12:58:27Z</time></trkpt><trkpt lat="50.44469001575202" lon="3.355269283373348"><ele>17.0</ele><time>2026-04-11T12:58:29Z</time></trkpt><trkpt lat="50.44465916364699" lon="3.3554398723881893"><ele>17.0</ele><time>2026-04-11T12:58:31Z</time></trkpt><trkpt lat="50.44461373879932" lon="3.355609144031358"><ele>17.0</ele><time>2026-04-11T12:58:33Z</time></trkpt><trkpt lat="50.44459238767593" lon="3.355777894475867"><ele>17.0</ele><time>2026-04-11T12:58:35Z</time></trkpt><trkpt lat="50.44455621847007" lon="3.355946611332125"><ele>17.0</ele><time>2026-04-11T12:58:37Z</time></trkpt><trkpt lat="50.444520014500036" lon="3.3561289325956456"><ele>17.0</ele><time>2026-04-11T12:58:39Z</time></trkpt><trkpt lat="50.44448041013988" lon="3.3563024363094365"><ele>17.0</ele><time>2026-04-11T12:58:41Z</time></trkpt><trkpt lat="50.444439248980764" lon="3.3564802198056944"><ele>17.0</ele><time>2026-04-11T12:58:43Z</time></trkpt><trkpt lat="50.44439798356612" lon="3.356647760735872"><ele>17.0</ele><time>2026-04-11T12:58:45Z</time></trkpt><trkpt lat="50.44435934394813" lon="3.356809319033603"><ele>17.0</ele><time>2026-04-11T12:58:47Z</time></trkpt><trkpt lat="50.4443219038626" lon="3.356957939493917"><ele>17.0</ele><time>2026-04-11T12:58:49Z</time></trkpt><trkpt lat="50.444291995959865" lon="3.357113481762232"><ele>17.2</ele><time>2026-04-11T12:58:51Z</time></trkpt><trkpt lat="50.44425952350475" lon="3.3572593257213317"><ele>17.4</ele><time>2026-04-11T12:58:53Z</time></trkpt><trkpt lat="50.444227646931644" lon="3.3574053031796645"><ele>17.6</ele><time>2026-04-11T12:58:55Z</time></trkpt><trkpt lat="50.444198106732316" lon="3.3575436231724956"><ele>17.8</ele><time>2026-04-11T12:58:57Z</time></trkpt><trkpt lat="50.444170666544125" lon="3.357675679025011"><ele>18.0</ele><time>2026-04-11T12:58:59Z</time></trkpt><trkpt lat="50.44414982848582" lon="3.357801352586865"><ele>18.0</ele><time>2026-04-11T12:59:01Z</time></trkpt><trkpt lat="50.444123347646766" lon="3.3579162590356417"><ele>18.0</ele><time>2026-04-11T12:59:03Z</time></trkpt><trkpt lat="50.444100348345344" lon="3.3580288948554156"><ele>18.0</ele><time>2026-04-11T12:59:05Z</time></trkpt><trkpt lat="50.44407514922149" lon="3.3581289304797184"><ele>18.0</ele><time>2026-04-11T12:59:06.999Z</time></trkpt><trkpt lat="50.444055033049" lon="3.358225297088021"><ele>18.0</ele><time>2026-04-11T12:59:08.999Z</time></trkpt><trkpt lat="50.44400418304802" lon="3.3587790951281122"><ele>18.0</ele><time>2026-04-11T13:04:14Z</time></trkpt><trkpt lat="50.44397293861996" lon="3.3589106731273803"><ele>18.0</ele><time>2026-04-11T13:04:16Z</time></trkpt><trkpt lat="50.4439401379509" lon="3.359064549582402"><ele>18.0</ele><time>2026-04-11T13:04:18Z</time></trkpt><trkpt lat="50.443899659450324" lon="3.3592226289140843"><ele>18.0</ele><time>2026-04-11T13:04:20Z</time></trkpt><trkpt lat="50.44385995176129" lon="3.359393546926188"><ele>18.0</ele><time>2026-04-11T13:04:22Z</time></trkpt><trkpt lat="50.44382516670925" lon="3.3595473211827898"><ele>18.25</ele><time>2026-04-11T13:04:24Z</time></trkpt><trkpt lat="50.44378066278659" lon="3.359706337083615"><ele>18.5</ele><time>2026-04-11T13:04:26Z</time></trkpt><trkpt lat="50.443742874082375" lon="3.3598690306358727"><ele>18.75</ele><time>2026-04-11T13:04:28Z</time></trkpt><trkpt lat="50.4437108464541" lon="3.3600414781541335"><ele>19.0</ele><time>2026-04-11T13:04:30Z</time></trkpt><trkpt lat="50.443674823727484" lon="3.3602135652968386"><ele>19.0</ele><time>2026-04-11T13:04:32Z</time></trkpt><trkpt lat="50.44364009088482" lon="3.360385588233014"><ele>19.0</ele><time>2026-04-11T13:04:34Z</time></trkpt><trkpt lat="50.443608968661835" lon="3.3605601656562043"><ele>19.0</ele><time>2026-04-11T13:04:36Z</time></trkpt><trkpt lat="50.44357172985695" lon="3.360732977095804"><ele>19.0</ele><time>2026-04-11T13:04:38Z</time></trkpt><trkpt lat="50.44353069958699" lon="3.360902307332373"><ele>19.0</ele><time>2026-04-11T13:04:40Z</time></trkpt><trkpt lat="50.44349413938923" lon="3.3610775973311133"><ele>19.0</ele><time>2026-04-11T13:04:42Z</time></trkpt><trkpt lat="50.44345226303799" lon="3.36125859224592"><ele>19.0</ele><time>2026-04-11T13:04:44Z</time></trkpt><trkpt lat="50.443413252607336" lon="3.361434145515423"><ele>19.0</ele><time>2026-04-11T13:04:46Z</time></trkpt><trkpt lat="50.44337382606649" lon="3.361615892566188"><ele>18.75</ele><time>2026-04-11T13:04:48Z</time></trkpt><trkpt lat="50.443337322815474" lon="3.361789439717547"><ele>18.5</ele><time>2026-04-11T13:04:50Z</time></trkpt><trkpt lat="50.443301560485416" lon="3.3619617347003"><ele>18.25</ele><time>2026-04-11T13:04:52Z</time></trkpt><trkpt lat="50.443263046181514" lon="3.362129218107364"><ele>18.0</ele><time>2026-04-11T13:04:54Z</time></trkpt><trkpt lat="50.4432254266984" lon="3.362296568420609"><ele>18.0</ele><time>2026-04-11T13:04:56Z</time></trkpt><trkpt lat="50.443191075879795" lon="3.3624650492986192"><ele>18.0</ele><time>2026-04-11T13:04:58Z</time></trkpt><trkpt lat="50.44315575521605" lon="3.3626271596832287"><ele>18.0</ele><time>2026-04-11T13:05:00Z</time></trkpt><trkpt lat="50.443125510530066" lon="3.3627863897315646"><ele>18.0</ele><time>2026-04-11T13:05:02Z</time></trkpt><trkpt lat="50.44309061955926" lon="3.3629474269223327"><ele>18.0</ele><time>2026-04-11T13:05:04Z</time></trkpt><trkpt lat="50.44305905287383" lon="3.3631079747377006"><ele>18.0</ele><time>2026-04-11T13:05:06Z</time></trkpt><trkpt lat="50.44302315358334" lon="3.3632667876397497"><ele>18.0</ele><time>2026-04-11T13:05:08Z</time></trkpt><trkpt lat="50.44299203419715" lon="3.3634295316657363"><ele>18.0</ele><time>2026-04-11T13:05:10Z</time></trkpt><trkpt lat="50.44295651355347" lon="3.3635849487713854"><ele>18.0</ele><time>2026-04-11T13:05:12Z</time></trkpt><trkpt lat="50.44292287034668" lon="3.3637429899859868"><ele>18.0</ele><time>2026-04-11T13:05:13.999Z</time></trkpt><trkpt lat="50.44288112514552" lon="3.3638948969579436"><ele>18.0</ele><time>2026-04-11T13:05:15.999Z</time></trkpt><trkpt lat="50.44283887172386" lon="3.3640477785672176"><ele>18.0</ele><time>2026-04-11T13:05:17.999Z</time></trkpt><trkpt lat="50.44280412403301" lon="3.3642131066634913"><ele>18.0</ele><time>2026-04-11T13:05:19.999Z</time></trkpt><trkpt lat="50.442775505374975" lon="3.3643835092043215"><ele>18.0</ele><time>2026-04-11T13:05:21.999Z</time></trkpt><trkpt lat="50.442751394863016" lon="3.3645526830269206"><ele>18.0</ele><time>2026-04-11T13:05:23.999Z</time></trkpt><trkpt lat="50.44271863804604" lon="3.3647195527382268"><ele>18.0</ele><time>2026-04-11T13:05:25.999Z</time></trkpt><trkpt lat="50.442684314732034" lon="3.3648795422633553"><ele>18.0</ele><time>2026-04-11T13:05:27.999Z</time></trkpt><trkpt lat="50.44265066331879" lon="3.3650447226619518"><ele>18.0</ele><time>2026-04-11T13:05:29.999Z</time></trkpt><trkpt lat="50.44261467636403" lon="3.365214014994157"><ele>18.0</ele><time>2026-04-11T13:05:31.999Z</time></trkpt><trkpt lat="50.442584368179254" lon="3.3653808849568962"><ele>18.0</ele><time>2026-04-11T13:05:33.999Z</time></trkpt><trkpt lat="50.44254984913015" lon="3.3655456506740626"><ele>17.8</ele><time>2026-04-11T13:05:35.999Z</time></trkpt><trkpt lat="50.44251580534154" lon="3.3657083910014127"><ele>17.6</ele><time>2026-04-11T13:05:37.999Z</time></trkpt><trkpt lat="50.442477548556084" lon="3.3658750340499917"><ele>17.4</ele><time>2026-04-11T13:05:39.999Z</time></trkpt><trkpt lat="50.44244450620382" lon="3.3660449051083576"><ele>17.2</ele><time>2026-04-11T13:05:41.999Z</time></trkpt><trkpt lat="50.44240705369776" lon="3.3662108352251483"><ele>17.0</ele><time>2026-04-11T13:05:43.999Z</time></trkpt><trkpt lat="50.44237602132912" lon="3.366374190327966"><ele>17.0</ele><time>2026-04-11T13:05:46Z</time></trkpt><trkpt lat="50.44234241579317" lon="3.3665382042986582"><ele>17.0</ele><time>2026-04-11T13:05:48Z</time></trkpt><trkpt lat="50.44231104307505" lon="3.3667045798373922"><ele>17.0</ele><time>2026-04-11T13:05:50Z</time></trkpt><trkpt lat="50.44228227916265" lon="3.3668728424589425"><ele>17.0</ele><time>2026-04-11T13:05:52Z</time></trkpt><trkpt lat="50.44224679748215" lon="3.367044987908178"><ele>17.0</ele><time>2026-04-11T13:05:54Z</time></trkpt><trkpt lat="50.44220544631613" lon="3.3672180377067575"><ele>17.2</ele><time>2026-04-11T13:05:56Z</time></trkpt><trkpt lat="50.44216698412341" lon="3.367384114107151"><ele>17.4</ele><time>2026-04-11T13:05:58Z</time></trkpt><trkpt lat="50.44213092907958" lon="3.367555873933284"><ele>17.6</ele><time>2026-04-11T13:06:00Z</time></trkpt><trkpt lat="50.44209718646783" lon="3.367717217835394"><ele>17.8</ele><time>2026-04-11T13:06:02Z</time></trkpt><trkpt lat="50.44205909666923" lon="3.3678811879686106"><ele>18.0</ele><time>2026-04-11T13:06:04Z</time></trkpt><trkpt lat="50.442025149137834" lon="3.3680553260222688"><ele>18.0</ele><time>2026-04-11T13:06:06Z</time></trkpt><trkpt lat="50.44198717698379" lon="3.3682252714061014"><ele>18.0</ele><time>2026-04-11T13:06:08Z</time></trkpt><trkpt lat="50.4419539172925" lon="3.3683880187915345"><ele>18.0</ele><time>2026-04-11T13:06:10Z</time></trkpt><trkpt lat="50.441920185337125" lon="3.3685551685144444"><ele>18.0</ele><time>2026-04-11T13:06:12Z</time></trkpt><trkpt lat="50.441890209318295" lon="3.3687268676484186"><ele>18.0</ele><time>2026-04-11T13:06:14Z</time></trkpt><trkpt lat="50.44185426513822" lon="3.3688831705246756"><ele>18.0</ele><time>2026-04-11T13:06:16Z</time></trkpt><trkpt lat="50.4418217549048" lon="3.3690505900864105"><ele>18.0</ele><time>2026-04-11T13:06:18Z</time></trkpt><trkpt lat="50.44178733055854" lon="3.3692195215325365"><ele>18.0</ele><time>2026-04-11T13:06:20Z</time></trkpt><trkpt lat="50.44175424104196" lon="3.36938486157334"><ele>18.0</ele><time>2026-04-11T13:06:22Z</time></trkpt><trkpt lat="50.441721199587995" lon="3.3695448644867234"><ele>18.0</ele><time>2026-04-11T13:06:24Z</time></trkpt><trkpt lat="50.441683525681874" lon="3.369710228897852"><ele>18.2</ele><time>2026-04-11T13:06:26Z</time></trkpt><trkpt lat="50.44164840307719" lon="3.3698724584571282"><ele>18.4</ele><time>2026-04-11T13:06:28Z</time></trkpt><trkpt lat="50.44161507395502" lon="3.370031972195942"><ele>18.599999999999998</ele><time>2026-04-11T13:06:30Z</time></trkpt><trkpt lat="50.441584851135296" lon="3.3702005585705104"><ele>18.8</ele><time>2026-04-11T13:06:32Z</time></trkpt><trkpt lat="50.44154575403989" lon="3.3703603579827695"><ele>19.0</ele><time>2026-04-11T13:06:34Z</time></trkpt><trkpt lat="50.44151021304026" lon="3.3705250956298958"><ele>19.2</ele><time>2026-04-11T13:06:36Z</time></trkpt><trkpt lat="50.44148053807316" lon="3.3706860881146334"><ele>19.4</ele><time>2026-04-11T13:06:38Z</time></trkpt><trkpt lat="50.44145283878937" lon="3.3708455636072006"><ele>19.6</ele><time>2026-04-11T13:06:40Z</time></trkpt><trkpt lat="50.441424047786754" lon="3.3709998773374803"><ele>19.8</ele><time>2026-04-11T13:06:42Z</time></trkpt><trkpt lat="50.441392077118394" lon="3.3711532638057964"><ele>20.0</ele><time>2026-04-11T13:06:44Z</time></trkpt><trkpt lat="50.441359478092984" lon="3.3713092816861"><ele>20.4</ele><time>2026-04-11T13:06:45.999Z</time></trkpt><trkpt lat="50.44132388957622" lon="3.3714642966686634"><ele>20.8</ele><time>2026-04-11T13:06:47.999Z</time></trkpt><trkpt lat="50.44129242436545" lon="3.371618054108114"><ele>21.200000000000003</ele><time>2026-04-11T13:06:49.999Z</time></trkpt><trkpt lat="50.44126402575839" lon="3.3717715997169444"><ele>21.6</ele><time>2026-04-11T13:06:51.999Z</time></trkpt><trkpt lat="50.44123011678488" lon="3.3719218748272577"><ele>22.0</ele><time>2026-04-11T13:06:53.999Z</time></trkpt><trkpt lat="50.441199484162155" lon="3.3720718949023185"><ele>22.0</ele><time>2026-04-11T13:06:55.999Z</time></trkpt><trkpt lat="50.44117037263448" lon="3.3722290986442984"><ele>22.0</ele><time>2026-04-11T13:06:57.999Z</time></trkpt><trkpt lat="50.44113751779397" lon="3.3723762113947626"><ele>22.0</ele><time>2026-04-11T13:06:59.999Z</time></trkpt><trkpt lat="50.441102173757265" lon="3.3725309125837897"><ele>22.0</ele><time>2026-04-11T13:07:01.999Z</time></trkpt><trkpt lat="50.44106809185034" lon="3.372679360780661"><ele>22.0</ele><time>2026-04-11T13:07:03.999Z</time></trkpt><trkpt lat="50.441033902817274" lon="3.37282856231255"><ele>22.0</ele><time>2026-04-11T13:07:05.999Z</time></trkpt><trkpt lat="50.44100034778896" lon="3.3729800175340547"><ele>22.0</ele><time>2026-04-11T13:07:07.999Z</time></trkpt><trkpt lat="50.44096748184436" lon="3.373133437123837"><ele>22.0</ele><time>2026-04-11T13:07:09.999Z</time></trkpt><trkpt lat="50.440936183907134" lon="3.373287652148414"><ele>22.0</ele><time>2026-04-11T13:07:11.999Z</time></trkpt><trkpt lat="50.44090442333013" lon="3.3734459726230797"><ele>22.0</ele><time>2026-04-11T13:07:13.999Z</time></trkpt><trkpt lat="50.440872510792346" lon="3.373600654865612"><ele>21.6</ele><time>2026-04-11T13:07:15.999Z</time></trkpt><trkpt lat="50.44083776404113" lon="3.3737515115412324"><ele>21.200000000000003</ele><time>2026-04-11T13:07:17.999Z</time></trkpt><trkpt lat="50.44080433248348" lon="3.3739091889554116"><ele>20.8</ele><time>2026-04-11T13:07:19.999Z</time></trkpt><trkpt lat="50.44076930619012" lon="3.374068145281896"><ele>20.4</ele><time>2026-04-11T13:07:21.999Z</time></trkpt><trkpt lat="50.44073311974865" lon="3.3742252371783388"><ele>20.0</ele><time>2026-04-11T13:07:23.999Z</time></trkpt><trkpt lat="50.44070084999167" lon="3.374386094813625"><ele>20.0</ele><time>2026-04-11T13:07:25.999Z</time></trkpt><trkpt lat="50.44066009504018" lon="3.374538702763406"><ele>20.0</ele><time>2026-04-11T13:07:27.999Z</time></trkpt><trkpt lat="50.44061908460875" lon="3.374696829445332"><ele>20.0</ele><time>2026-04-11T13:07:29.999Z</time></trkpt><trkpt lat="50.440578910523286" lon="3.374846217363394"><ele>20.0</ele><time>2026-04-11T13:07:31.999Z</time></trkpt><trkpt lat="50.440554601017794" lon="3.37499834479477"><ele>20.0</ele><time>2026-04-11T13:07:33.999Z</time></trkpt><trkpt lat="50.44052443826115" lon="3.3751512102696024"><ele>19.8</ele><time>2026-04-11T13:07:35.999Z</time></trkpt><trkpt lat="50.440494271553284" lon="3.3753014532289685"><ele>19.6</ele><time>2026-04-11T13:07:37.999Z</time></trkpt><trkpt lat="50.44046147350311" lon="3.375442369123612"><ele>19.4</ele><time>2026-04-11T13:07:39.999Z</time></trkpt><trkpt lat="50.44043720196637" lon="3.375583455544606"><ele>19.2</ele><time>2026-04-11T13:07:41.999Z</time></trkpt><trkpt lat="50.440415831769855" lon="3.37572526908257"><ele>19.0</ele><time>2026-04-11T13:07:43.999Z</time></trkpt><trkpt lat="50.440390663008344" lon="3.375861304802394"><ele>17.0</ele><time>2026-04-11T13:07:45.999Z</time></trkpt><trkpt lat="50.44037068757117" lon="3.375994476401075"><ele>17.0</ele><time>2026-04-11T13:07:47.999Z</time></trkpt><trkpt lat="50.440346639998424" lon="3.3761181192386265"><ele>17.0</ele><time>2026-04-11T13:07:49.999Z</time></trkpt><trkpt lat="50.4403241933646" lon="3.376232095358087"><ele>17.0</ele><time>2026-04-11T13:07:51.999Z</time></trkpt><trkpt lat="50.44030030393558" lon="3.376323757253576"><ele>17.0</ele><time>2026-04-11T13:07:53.999Z</time></trkpt></trkseg><trkseg><trkpt lat="50.44281226326086" lon="3.375470098902388"><ele>20.0</ele><time>2026-04-11T13:11:48.999Z</time></trkpt><trkpt lat="50.442867423982655" lon="3.3752375889837474"><ele>20.0</ele><time>2026-04-11T13:11:51.999Z</time></trkpt><trkpt lat="50.442907552596985" lon="3.37508627580393"><ele>20.0</ele><time>2026-04-11T13:11:53.999Z</time></trkpt><trkpt lat="50.44296281211753" lon="3.3749344841850397"><ele>20.0</ele><time>2026-04-11T13:11:55.999Z</time></trkpt><trkpt lat="50.44301758983926" lon="3.374796031429788"><ele>19.6</ele><time>2026-04-11T13:11:57.999Z</time></trkpt><trkpt lat="50.44307677177808" lon="3.3746699735449552"><ele>19.2</ele><time>2026-04-11T13:11:59.999Z</time></trkpt><trkpt lat="50.44313707322512" lon="3.3745344225670655"><ele>18.8</ele><time>2026-04-11T13:12:01.999Z</time></trkpt><trkpt lat="50.443196894140826" lon="3.374401993744906"><ele>18.4</ele><time>2026-04-11T13:12:03.999Z</time></trkpt><trkpt lat="50.44324853358857" lon="3.374265034786351"><ele>18.0</ele><time>2026-04-11T13:12:05.999Z</time></trkpt><trkpt lat="50.443305851851164" lon="3.3741112672896088"><ele>18.0</ele><time>2026-04-11T13:12:07.999Z</time></trkpt><trkpt lat="50.44334311882578" lon="3.373951921762272"><ele>18.0</ele><time>2026-04-11T13:12:09.999Z</time></trkpt><trkpt lat="50.44337440445597" lon="3.373794482140725"><ele>18.0</ele><time>2026-04-11T13:12:11.999Z</time></trkpt><trkpt lat="50.44339635736004" lon="3.3736325821094337"><ele>18.0</ele><time>2026-04-11T13:12:13.999Z</time></trkpt><trkpt lat="50.443430158458106" lon="3.373472638039447"><ele>18.0</ele><time>2026-04-11T13:12:15.999Z</time></trkpt><trkpt lat="50.443476931860474" lon="3.37331951319556"><ele>18.0</ele><time>2026-04-11T13:12:17.999Z</time></trkpt><trkpt lat="50.44354061661405" lon="3.373180606150783"><ele>18.0</ele><time>2026-04-11T13:12:20Z</time></trkpt><trkpt lat="50.44361929381148" lon="3.3730604120697167"><ele>18.0</ele><time>2026-04-11T13:12:22Z</time></trkpt><trkpt lat="50.44369408724677" lon="3.37293919188174"><ele>18.0</ele><time>2026-04-11T13:12:24Z</time></trkpt><trkpt lat="50.44376765084335" lon="3.372817851415256"><ele>18.0</ele><time>2026-04-11T13:12:26Z</time></trkpt><trkpt lat="50.44383834628708" lon="3.3726982001292165"><ele>18.2</ele><time>2026-04-11T13:12:28Z</time></trkpt><trkpt lat="50.44390866792144" lon="3.3725758922189493"><ele>18.4</ele><time>2026-04-11T13:12:30Z</time></trkpt><trkpt lat="50.44398164760453" lon="3.372456886130771"><ele>18.599999999999998</ele><time>2026-04-11T13:12:32Z</time></trkpt><trkpt lat="50.444058694974586" lon="3.3723446463432145"><ele>18.8</ele><time>2026-04-11T13:12:34Z</time></trkpt><trkpt lat="50.4441306104642" lon="3.3722302780826925"><ele>19.0</ele><time>2026-04-11T13:12:36Z</time></trkpt><trkpt lat="50.44420125922986" lon="3.372111182048214"><ele>19.0</ele><time>2026-04-11T13:12:38Z</time></trkpt><trkpt lat="50.44426971463483" lon="3.3719969808864723"><ele>19.0</ele><time>2026-04-11T13:12:40Z</time></trkpt><trkpt lat="50.444332222626656" lon="3.3718797581053432"><ele>19.0</ele><time>2026-04-11T13:12:42Z</time></trkpt><trkpt lat="50.44439561529531" lon="3.3717644502104425"><ele>19.0</ele><time>2026-04-11T13:12:44Z</time></trkpt><trkpt lat="50.44445805999041" lon="3.371659837312325"><ele>19.0</ele><time>2026-04-11T13:12:46Z</time></trkpt><trkpt lat="50.44452167451578" lon="3.3715524375533503"><ele>19.0</ele><time>2026-04-11T13:12:48Z</time></trkpt><trkpt lat="50.444578677922905" lon="3.371446846797161"><ele>19.0</ele><time>2026-04-11T13:12:50Z</time></trkpt><trkpt lat="50.44464033196955" lon="3.3713381684193857"><ele>19.0</ele><time>2026-04-11T13:12:52Z</time></trkpt><trkpt lat="50.4446978743933" lon="3.37121150109708"><ele>19.0</ele><time>2026-04-11T13:12:54Z</time></trkpt><trkpt lat="50.44472740644217" lon="3.371071256766044"><ele>19.0</ele><time>2026-04-11T13:12:56Z</time></trkpt><trkpt lat="50.44474517891019" lon="3.370923666298722"><ele>19.2</ele><time>2026-04-11T13:12:58Z</time></trkpt><trkpt lat="50.44474633769683" lon="3.3707729724911992"><ele>19.4</ele><time>2026-04-11T13:13:00Z</time></trkpt><trkpt lat="50.444747689672816" lon="3.370625144713488"><ele>19.6</ele><time>2026-04-11T13:13:02Z</time></trkpt><trkpt lat="50.44475524772403" lon="3.370478915918047"><ele>19.8</ele><time>2026-04-11T13:13:04Z</time></trkpt><trkpt lat="50.44479193956453" lon="3.37033846873351"><ele>20.0</ele><time>2026-04-11T13:13:06Z</time></trkpt><trkpt lat="50.44483831609956" lon="3.370207073019538"><ele>19.6</ele><time>2026-04-11T13:13:08Z</time></trkpt><trkpt lat="50.44488315168055" lon="3.370075911019298"><ele>19.2</ele><time>2026-04-11T13:13:10Z</time></trkpt><trkpt lat="50.444926965845504" lon="3.369951272559066"><ele>18.8</ele><time>2026-04-11T13:13:12Z</time></trkpt><trkpt lat="50.44496890687688" lon="3.369819359380233"><ele>18.4</ele><time>2026-04-11T13:13:14Z</time></trkpt><trkpt lat="50.44501161813389" lon="3.3696851882840666"><ele>18.0</ele><time>2026-04-11T13:13:16Z</time></trkpt><trkpt lat="50.44505515025705" lon="3.369556566437847"><ele>18.0</ele><time>2026-04-11T13:13:18Z</time></trkpt><trkpt lat="50.445096167757384" lon="3.36942856526781"><ele>18.0</ele><time>2026-04-11T13:13:20Z</time></trkpt><trkpt lat="50.44515160813938" lon="3.3693141535178732"><ele>18.0</ele><time>2026-04-11T13:13:22Z</time></trkpt><trkpt lat="50.44521944781054" lon="3.369212202499255"><ele>18.0</ele><time>2026-04-11T13:13:24Z</time></trkpt><trkpt lat="50.445289345088064" lon="3.369104883526474"><ele>18.0</ele><time>2026-04-11T13:13:26Z</time></trkpt><trkpt lat="50.44536216453772" lon="3.369000524115943"><ele>18.0</ele><time>2026-04-11T13:13:28Z</time></trkpt><trkpt lat="50.44542309533324" lon="3.368874834019439"><ele>18.0</ele><time>2026-04-11T13:13:30Z</time></trkpt><trkpt lat="50.445472119389045" lon="3.3687441777054428"><ele>18.0</ele><time>2026-04-11T13:13:32Z</time></trkpt><trkpt lat="50.445504983901884" lon="3.3685931233053505"><ele>18.0</ele><time>2026-04-11T13:13:34Z</time></trkpt><trkpt lat="50.44552495313695" lon="3.3684380153216766"><ele>18.0</ele><time>2026-04-11T13:13:36Z</time></trkpt><trkpt lat="50.44552964449596" lon="3.3682768653140256"><ele>18.2</ele><time>2026-04-11T13:13:38Z</time></trkpt><trkpt lat="50.44553064387072" lon="3.368122685807508"><ele>18.4</ele><time>2026-04-11T13:13:40Z</time></trkpt><trkpt lat="50.44553189577244" lon="3.3679668474259574"><ele>18.599999999999998</ele><time>2026-04-11T13:13:42Z</time></trkpt><trkpt lat="50.44552997384272" lon="3.3678184961041273"><ele>18.8</ele><time>2026-04-11T13:13:44Z</time></trkpt><trkpt lat="50.445557835950375" lon="3.367669416157881"><ele>19.0</ele><time>2026-04-11T13:13:46Z</time></trkpt><trkpt lat="50.44557214800897" lon="3.3675089911158587"><ele>19.2</ele><time>2026-04-11T13:13:48Z</time></trkpt><trkpt lat="50.44558997552379" lon="3.3673504606709"><ele>19.4</ele><time>2026-04-11T13:13:50Z</time></trkpt><trkpt lat="50.44562584251679" lon="3.3671999245540225"><ele>19.6</ele><time>2026-04-11T13:13:52Z</time></trkpt><trkpt lat="50.445668228405275" lon="3.367058208447452"><ele>19.8</ele><time>2026-04-11T13:13:54Z</time></trkpt><trkpt lat="50.445732905826695" lon="3.3669379016061987"><ele>20.0</ele><time>2026-04-11T13:13:56Z</time></trkpt><trkpt lat="50.44580892347533" lon="3.3668312445308213"><ele>20.0</ele><time>2026-04-11T13:13:58Z</time></trkpt><trkpt lat="50.44588535810042" lon="3.366730430365827"><ele>20.0</ele><time>2026-04-11T13:14:00Z</time></trkpt><trkpt lat="50.44596312244571" lon="3.3666322646539597"><ele>20.0</ele><time>2026-04-11T13:14:02Z</time></trkpt><trkpt lat="50.44603793022153" lon="3.3665357858684524"><ele>20.0</ele><time>2026-04-11T13:14:04Z</time></trkpt><trkpt lat="50.44611051521098" lon="3.36643450570502"><ele>20.0</ele><time>2026-04-11T13:14:06Z</time></trkpt><trkpt lat="50.44618504277437" lon="3.366337935238397"><ele>19.8</ele><time>2026-04-11T13:14:08Z</time></trkpt><trkpt lat="50.44625922635794" lon="3.3662431679121094"><ele>19.6</ele><time>2026-04-11T13:14:10Z</time></trkpt><trkpt lat="50.446330318111926" lon="3.3661496317456225"><ele>19.4</ele><time>2026-04-11T13:14:12Z</time></trkpt><trkpt lat="50.4463970079476" lon="3.366049993878158"><ele>19.2</ele><time>2026-04-11T13:14:14Z</time></trkpt><trkpt lat="50.4464730217416" lon="3.3659499897464715"><ele>19.0</ele><time>2026-04-11T13:14:16Z</time></trkpt><trkpt lat="50.44655100516938" lon="3.3658511329599765"><ele>19.0</ele><time>2026-04-11T13:14:18Z</time></trkpt><trkpt lat="50.44661888744976" lon="3.36574385483056"><ele>19.0</ele><time>2026-04-11T13:14:20Z</time></trkpt><trkpt lat="50.446686000740435" lon="3.365642581537195"><ele>19.0</ele><time>2026-04-11T13:14:22Z</time></trkpt><trkpt lat="50.44676025301203" lon="3.3655433245486766"><ele>19.0</ele><time>2026-04-11T13:14:24Z</time></trkpt><trkpt lat="50.44682238851272" lon="3.3654378700624528"><ele>19.0</ele><time>2026-04-11T13:14:26Z</time></trkpt><trkpt lat="50.44688667276843" lon="3.365334429592776"><ele>19.0</ele><time>2026-04-11T13:14:28Z</time></trkpt><trkpt lat="50.44695154448533" lon="3.365228589195977"><ele>19.0</ele><time>2026-04-11T13:14:30Z</time></trkpt><trkpt lat="50.44701598293692" lon="3.3651249342247214"><ele>19.0</ele><time>2026-04-11T13:14:32Z</time></trkpt><trkpt lat="50.447077265156494" lon="3.3650186201154644"><ele>19.0</ele><time>2026-04-11T13:14:34Z</time></trkpt><trkpt lat="50.447138610765265" lon="3.364912042324845"><ele>19.0</ele><time>2026-04-11T13:14:36Z</time></trkpt><trkpt lat="50.44720645023223" lon="3.3648140174642647"><ele>19.0</ele><time>2026-04-11T13:14:38Z</time></trkpt><trkpt lat="50.44728040346304" lon="3.3647202134485434"><ele>19.0</ele><time>2026-04-11T13:14:40Z</time></trkpt><trkpt lat="50.44736313656393" lon="3.364645081868141"><ele>19.0</ele><time>2026-04-11T13:14:42Z</time></trkpt><trkpt lat="50.44745506775226" lon="3.3645954553264703"><ele>19.0</ele><time>2026-04-11T13:14:44Z</time></trkpt><trkpt lat="50.44753151726605" lon="3.3645344531435057"><ele>19.0</ele><time>2026-04-11T13:14:46Z</time></trkpt><trkpt lat="50.44759300550203" lon="3.3645075821991637"><ele>19.0</ele><time>2026-04-11T13:14:49Z</time></trkpt><trkpt lat="50.447654987831214" lon="3.3644777032054387"><ele>19.0</ele><time>2026-04-11T13:14:51Z</time></trkpt><trkpt lat="50.4477290962966" lon="3.364437269989454"><ele>19.0</ele><time>2026-04-11T13:14:53Z</time></trkpt><trkpt lat="50.44781823897701" lon="3.3644174911404314"><ele>19.0</ele><time>2026-04-11T13:14:55Z</time></trkpt><trkpt lat="50.44791571755975" lon="3.3644062397117103"><ele>19.0</ele><time>2026-04-11T13:14:57Z</time></trkpt><trkpt lat="50.44801753804932" lon="3.3643852566666497"><ele>19.0</ele><time>2026-04-11T13:14:59Z</time></trkpt><trkpt lat="50.44811819421002" lon="3.3643777175489684"><ele>18.8</ele><time>2026-04-11T13:15:01Z</time></trkpt><trkpt lat="50.4482184409946" lon="3.3644081273212687"><ele>18.599999999999998</ele><time>2026-04-11T13:15:03Z</time></trkpt><trkpt lat="50.44832236813988" lon="3.364459428525583"><ele>18.4</ele><time>2026-04-11T13:15:05Z</time></trkpt><trkpt lat="50.44843553325713" lon="3.364492103649436"><ele>18.2</ele><time>2026-04-11T13:15:07.001Z</time></trkpt><trkpt lat="50.44853442307483" lon="3.3645034558480664"><ele>18.0</ele><time>2026-04-11T13:15:09.001Z</time></trkpt><trkpt lat="50.448638852472094" lon="3.3644943760625354"><ele>18.0</ele><time>2026-04-11T13:15:11.001Z</time></trkpt><trkpt lat="50.448745076654525" lon="3.3644707170542296"><ele>18.0</ele><time>2026-04-11T13:15:13.001Z</time></trkpt><trkpt lat="50.44884992398056" lon="3.364418496298464"><ele>18.0</ele><time>2026-04-11T13:15:15.001Z</time></trkpt><trkpt lat="50.448946220667935" lon="3.3643468825962946"><ele>18.0</ele><time>2026-04-11T13:15:17.001Z</time></trkpt><trkpt lat="50.44904646091697" lon="3.3642894677544155"><ele>18.0</ele><time>2026-04-11T13:15:19.001Z</time></trkpt><trkpt lat="50.44914577438149" lon="3.36422213472303"><ele>18.0</ele><time>2026-04-11T13:15:21.001Z</time></trkpt><trkpt lat="50.4492476715661" lon="3.364155520914014"><ele>18.0</ele><time>2026-04-11T13:15:23.001Z</time></trkpt><trkpt lat="50.44934796072068" lon="3.3640947076995715"><ele>18.0</ele><time>2026-04-11T13:15:25.001Z</time></trkpt><trkpt lat="50.449460031094915" lon="3.364074876326579"><ele>18.0</ele><time>2026-04-11T13:15:27.001Z</time></trkpt><trkpt lat="50.44956681322774" lon="3.3641312027114263"><ele>18.0</ele><time>2026-04-11T13:15:29.001Z</time></trkpt><trkpt lat="50.44965877243678" lon="3.3642340223981204"><ele>18.0</ele><time>2026-04-11T13:15:31.001Z</time></trkpt><trkpt lat="50.44975244719051" lon="3.364324783462273"><ele>18.0</ele><time>2026-04-11T13:15:33.001Z</time></trkpt><trkpt lat="50.449843992758225" lon="3.3644173442104357"><ele>18.0</ele><time>2026-04-11T13:15:35.001Z</time></trkpt><trkpt lat="50.44993991684482" lon="3.364508288925282"><ele>18.0</ele><time>2026-04-11T13:15:37.001Z</time></trkpt><trkpt lat="50.45003871172264" lon="3.3645894944625656"><ele>18.0</ele><time>2026-04-11T13:15:39Z</time></trkpt><trkpt lat="50.45014103677032" lon="3.3646584365690284"><ele>18.0</ele><time>2026-04-11T13:15:41Z</time></trkpt><trkpt lat="50.450249213256875" lon="3.3647318785403253"><ele>18.0</ele><time>2026-04-11T13:15:43Z</time></trkpt><trkpt lat="50.450352536851014" lon="3.3648011596262717"><ele>18.0</ele><time>2026-04-11T13:15:45Z</time></trkpt><trkpt lat="50.45045591071516" lon="3.364872288954834"><ele>18.0</ele><time>2026-04-11T13:15:47Z</time></trkpt><trkpt lat="50.45055943708261" lon="3.3649504260569074"><ele>17.75</ele><time>2026-04-11T13:15:49Z</time></trkpt><trkpt lat="50.45066544347786" lon="3.365029569116695"><ele>17.5</ele><time>2026-04-11T13:15:51Z</time></trkpt><trkpt lat="50.450765134212936" lon="3.365107754095314"><ele>17.25</ele><time>2026-04-11T13:15:53Z</time></trkpt><trkpt lat="50.450872916435216" lon="3.365185368914185"><ele>17.0</ele><time>2026-04-11T13:15:55Z</time></trkpt><trkpt lat="50.45097965831714" lon="3.3652578477084605"><ele>17.0</ele><time>2026-04-11T13:15:57Z</time></trkpt><trkpt lat="50.45108208570825" lon="3.3653283815654667"><ele>17.0</ele><time>2026-04-11T13:15:59Z</time></trkpt><trkpt lat="50.45119634230583" lon="3.3653939011816347"><ele>17.0</ele><time>2026-04-11T13:16:01Z</time></trkpt><trkpt lat="50.45130651979163" lon="3.365465460133296"><ele>17.0</ele><time>2026-04-11T13:16:03Z</time></trkpt><trkpt lat="50.4514165604751" lon="3.365538007365673"><ele>17.2</ele><time>2026-04-11T13:16:05Z</time></trkpt><trkpt lat="50.45152201000045" lon="3.3656000226449683"><ele>17.4</ele><time>2026-04-11T13:16:07Z</time></trkpt><trkpt lat="50.45161284590393" lon="3.3656587553786736"><ele>17.6</ele><time>2026-04-11T13:16:09Z</time></trkpt><trkpt lat="50.4517187814077" lon="3.3657132865262933"><ele>17.8</ele><time>2026-04-11T13:16:11Z</time></trkpt><trkpt lat="50.451820207501406" lon="3.3657799043227663"><ele>18.0</ele><time>2026-04-11T13:16:13Z</time></trkpt><trkpt lat="50.45192034513167" lon="3.365866378588881"><ele>18.0</ele><time>2026-04-11T13:16:15Z</time></trkpt><trkpt lat="50.452013424039976" lon="3.3659667301787395"><ele>18.0</ele><time>2026-04-11T13:16:17Z</time></trkpt><trkpt lat="50.4521021553599" lon="3.366078697402503"><ele>18.0</ele><time>2026-04-11T13:16:19Z</time></trkpt><trkpt lat="50.452192816782166" lon="3.3661976089326937"><ele>18.0</ele><time>2026-04-11T13:16:21Z</time></trkpt><trkpt lat="50.452269866289605" lon="3.3663187982292153"><ele>17.8</ele><time>2026-04-11T13:16:23Z</time></trkpt><trkpt lat="50.45234358629975" lon="3.366443856237368"><ele>17.6</ele><time>2026-04-11T13:16:25Z</time></trkpt><trkpt lat="50.45241751124607" lon="3.3665704402269707"><ele>17.4</ele><time>2026-04-11T13:16:27.001Z</time></trkpt><trkpt lat="50.45248727960311" lon="3.366695921548878"><ele>17.2</ele><time>2026-04-11T13:16:29.001Z</time></trkpt><trkpt lat="50.45255897776653" lon="3.3668202972978807"><ele>17.0</ele><time>2026-04-11T13:16:31.001Z</time></trkpt><trkpt lat="50.45262493289783" lon="3.3669422519034287"><ele>17.0</ele><time>2026-04-11T13:16:33.001Z</time></trkpt><trkpt lat="50.45269864522984" lon="3.367034233479662"><ele>17.0</ele><time>2026-04-11T13:16:35.001Z</time></trkpt><trkpt lat="50.452789293849605" lon="3.36709225714355"><ele>17.0</ele><time>2026-04-11T13:16:37.001Z</time></trkpt><trkpt lat="50.45281546212766" lon="3.3672163527739953"><ele>17.0</ele><time>2026-04-11T13:16:38.001Z</time></trkpt><trkpt lat="50.45289495730922" lon="3.3673313815861365"><ele>17.0</ele><time>2026-04-11T13:16:40.001Z</time></trkpt><trkpt lat="50.45298618989082" lon="3.3674371482881074"><ele>16.75</ele><time>2026-04-11T13:16:42.001Z</time></trkpt><trkpt lat="50.453090449394175" lon="3.3674976427569914"><ele>16.5</ele><time>2026-04-11T13:16:44.001Z</time></trkpt><trkpt lat="50.45320823907545" lon="3.3674761887043774"><ele>16.25</ele><time>2026-04-11T13:16:46.001Z</time></trkpt><trkpt lat="50.453321206166315" lon="3.367450879153776"><ele>16.0</ele><time>2026-04-11T13:16:48.001Z</time></trkpt><trkpt lat="50.45342733249075" lon="3.367417102886137"><ele>16.0</ele><time>2026-04-11T13:16:50.001Z</time></trkpt><trkpt lat="50.45354096867397" lon="3.3673784714277817"><ele>16.0</ele><time>2026-04-11T13:16:52.001Z</time></trkpt><trkpt lat="50.45364067388547" lon="3.367300241773602"><ele>16.0</ele><time>2026-04-11T13:16:54.001Z</time></trkpt><trkpt lat="50.45372088214845" lon="3.3671727817707207"><ele>16.0</ele><time>2026-04-11T13:16:56.001Z</time></trkpt><trkpt lat="50.45379798543628" lon="3.367044170229221"><ele>16.0</ele><time>2026-04-11T13:16:58.001Z</time></trkpt><trkpt lat="50.45387583141977" lon="3.366922194158316"><ele>16.0</ele><time>2026-04-11T13:17:00.001Z</time></trkpt><trkpt lat="50.453950892088244" lon="3.366799303241966"><ele>16.0</ele><time>2026-04-11T13:17:02.001Z</time></trkpt><trkpt lat="50.454022385057094" lon="3.366679114524493"><ele>16.0</ele><time>2026-04-11T13:17:04.001Z</time></trkpt><trkpt lat="50.45410051957598" lon="3.366566181762514"><ele>16.0</ele><time>2026-04-11T13:17:06.001Z</time></trkpt><trkpt lat="50.454179387505455" lon="3.3664497199112717"><ele>16.2</ele><time>2026-04-11T13:17:08.001Z</time></trkpt><trkpt lat="50.45425552461805" lon="3.366338387322257"><ele>16.400000000000002</ele><time>2026-04-11T13:17:10.001Z</time></trkpt><trkpt lat="50.454325870385574" lon="3.366222653201215"><ele>16.6</ele><time>2026-04-11T13:17:12.001Z</time></trkpt><trkpt lat="50.454401495680905" lon="3.366107987285927"><ele>16.8</ele><time>2026-04-11T13:17:14.001Z</time></trkpt><trkpt lat="50.454475962350536" lon="3.3659959680019327"><ele>17.0</ele><time>2026-04-11T13:17:16.001Z</time></trkpt><trkpt lat="50.454549244027596" lon="3.3658863523157363"><ele>17.0</ele><time>2026-04-11T13:17:18.001Z</time></trkpt><trkpt lat="50.45461594502516" lon="3.365776861819668"><ele>17.0</ele><time>2026-04-11T13:17:20.001Z</time></trkpt><trkpt lat="50.45469032704508" lon="3.365671649806069"><ele>17.0</ele><time>2026-04-11T13:17:22.001Z</time></trkpt><trkpt lat="50.45476195963023" lon="3.3655594378051426"><ele>17.0</ele><time>2026-04-11T13:17:24.001Z</time></trkpt><trkpt lat="50.45483267818619" lon="3.3654413628788746"><ele>17.0</ele><time>2026-04-11T13:17:26.001Z</time></trkpt><trkpt lat="50.45490927628266" lon="3.365336741290054"><ele>17.0</ele><time>2026-04-11T13:17:28.001Z</time></trkpt><trkpt lat="50.45496924553032" lon="3.3652317649370382"><ele>17.0</ele><time>2026-04-11T13:17:30.001Z</time></trkpt><trkpt lat="50.45504161307559" lon="3.3651346885390767"><ele>17.0</ele><time>2026-04-11T13:17:32.001Z</time></trkpt><trkpt lat="50.4551120021871" lon="3.365025946150041"><ele>17.0</ele><time>2026-04-11T13:17:34.001Z</time></trkpt><trkpt lat="50.45517314339166" lon="3.3649186739804025"><ele>17.0</ele><time>2026-04-11T13:17:36.001Z</time></trkpt><trkpt lat="50.45524713859335" lon="3.364816586249312"><ele>17.0</ele><time>2026-04-11T13:17:38.001Z</time></trkpt><trkpt lat="50.45531287365596" lon="3.364710692428057"><ele>17.0</ele><time>2026-04-11T13:17:40.001Z</time></trkpt><trkpt lat="50.4553783506266" lon="3.364605000412407"><ele>17.0</ele><time>2026-04-11T13:17:42.001Z</time></trkpt><trkpt lat="50.45544794442489" lon="3.3645015968216514"><ele>17.0</ele><time>2026-04-11T13:17:44.001Z</time></trkpt><trkpt lat="50.455519155830345" lon="3.3644047379015616"><ele>17.0</ele><time>2026-04-11T13:17:46.001Z</time></trkpt><trkpt lat="50.45558446132189" lon="3.3643035573505378"><ele>17.166666666666668</ele><time>2026-04-11T13:17:48.001Z</time></trkpt><trkpt lat="50.45564686682794" lon="3.3642080952832"><ele>17.333333333333336</ele><time>2026-04-11T13:17:50Z</time></trkpt><trkpt lat="50.455714940393264" lon="3.3641113531311064"><ele>17.5</ele><time>2026-04-11T13:17:52Z</time></trkpt><trkpt lat="50.45577843538683" lon="3.3640170635022604"><ele>17.666666666666668</ele><time>2026-04-11T13:17:54Z</time></trkpt><trkpt lat="50.45584359461874" lon="3.3639212512274708"><ele>17.833333333333332</ele><time>2026-04-11T13:17:56Z</time></trkpt><trkpt lat="50.45590760176373" lon="3.363836073102544"><ele>18.0</ele><time>2026-04-11T13:17:58Z</time></trkpt><trkpt lat="50.45597129977086" lon="3.363744954461271"><ele>17.833333333333332</ele><time>2026-04-11T13:18:00Z</time></trkpt><trkpt lat="50.45603487817747" lon="3.3636611899508626"><ele>17.666666666666668</ele><time>2026-04-11T13:18:02Z</time></trkpt><trkpt lat="50.456102978160544" lon="3.363574201708593"><ele>17.5</ele><time>2026-04-11T13:18:04Z</time></trkpt><trkpt lat="50.45616912176606" lon="3.3634806668871633"><ele>17.333333333333336</ele><time>2026-04-11T13:18:06Z</time></trkpt><trkpt lat="50.45623428561861" lon="3.3633865131702563"><ele>17.166666666666668</ele><time>2026-04-11T13:18:08Z</time></trkpt><trkpt lat="50.45630442673393" lon="3.363287719845751"><ele>17.0</ele><time>2026-04-11T13:18:10Z</time></trkpt><trkpt lat="50.45637166258463" lon="3.363194620550021"><ele>17.0</ele><time>2026-04-11T13:18:12Z</time></trkpt><trkpt lat="50.45644944764725" lon="3.3631010595436304"><ele>17.0</ele><time>2026-04-11T13:18:14Z</time></trkpt><trkpt lat="50.45652544344157" lon="3.3630118934684443"><ele>17.0</ele><time>2026-04-11T13:18:16Z</time></trkpt><trkpt lat="50.456595684912415" lon="3.3629009379361126"><ele>17.0</ele><time>2026-04-11T13:18:18Z</time></trkpt><trkpt lat="50.45667063578968" lon="3.362804622820811"><ele>17.0</ele><time>2026-04-11T13:18:20Z</time></trkpt><trkpt lat="50.456748340603745" lon="3.3627147585606636"><ele>17.0</ele><time>2026-04-11T13:18:22Z</time></trkpt><trkpt lat="50.456818682924585" lon="3.3626246260346715"><ele>17.0</ele><time>2026-04-11T13:18:24Z</time></trkpt><trkpt lat="50.456891801560424" lon="3.3625390149017558"><ele>17.0</ele><time>2026-04-11T13:18:26Z</time></trkpt><trkpt lat="50.45695954570231" lon="3.3624355958649828"><ele>17.0</ele><time>2026-04-11T13:18:28Z</time></trkpt><trkpt lat="50.45703024960613" lon="3.3623400268976145"><ele>17.0</ele><time>2026-04-11T13:18:30Z</time></trkpt><trkpt lat="50.457088401267185" lon="3.3622242760550978"><ele>17.0</ele><time>2026-04-11T13:18:32Z</time></trkpt><trkpt lat="50.45714878592893" lon="3.3621088533302457"><ele>17.0</ele><time>2026-04-11T13:18:34Z</time></trkpt><trkpt lat="50.4572067111275" lon="3.361992347150991"><ele>17.0</ele><time>2026-04-11T13:18:36Z</time></trkpt><trkpt lat="50.45726627324994" lon="3.361868110072744"><ele>17.0</ele><time>2026-04-11T13:18:38Z</time></trkpt><trkpt lat="50.45732374978678" lon="3.361749085217608"><ele>17.0</ele><time>2026-04-11T13:18:40Z</time></trkpt><trkpt lat="50.45738500092997" lon="3.361636318810384"><ele>17.0</ele><time>2026-04-11T13:18:42Z</time></trkpt><trkpt lat="50.45743789393732" lon="3.361523411313224"><ele>17.0</ele><time>2026-04-11T13:18:44Z</time></trkpt><trkpt lat="50.45748024994296" lon="3.3614004544174074"><ele>17.0</ele><time>2026-04-11T13:18:46Z</time></trkpt><trkpt lat="50.457520575544294" lon="3.3612759632130125"><ele>17.0</ele><time>2026-04-11T13:18:48Z</time></trkpt><trkpt lat="50.45755941606333" lon="3.361156068180061"><ele>17.0</ele><time>2026-04-11T13:18:50Z</time></trkpt><trkpt lat="50.45759733822333" lon="3.361033598037795"><ele>17.0</ele><time>2026-04-11T13:18:52.001Z</time></trkpt><trkpt lat="50.45763511395506" lon="3.3609156412613643"><ele>17.0</ele><time>2026-04-11T13:18:54.001Z</time></trkpt><trkpt lat="50.45770187022871" lon="3.3608199033958406"><ele>17.0</ele><time>2026-04-11T13:18:56.001Z</time></trkpt><trkpt lat="50.457775337761994" lon="3.3607324136896892"><ele>17.0</ele><time>2026-04-11T13:18:58.001Z</time></trkpt><trkpt lat="50.4578489393213" lon="3.360667892717754"><ele>17.0</ele><time>2026-04-11T13:19:00.001Z</time></trkpt><trkpt lat="50.457922319517955" lon="3.360567657411965"><ele>17.0</ele><time>2026-04-11T13:19:02.001Z</time></trkpt><trkpt lat="50.45799894439583" lon="3.360490391684113"><ele>17.0</ele><time>2026-04-11T13:19:04.001Z</time></trkpt><trkpt lat="50.45807845619734" lon="3.360404121650204"><ele>17.0</ele><time>2026-04-11T13:19:06.001Z</time></trkpt><trkpt lat="50.45815599526644" lon="3.3603150601672547"><ele>17.0</ele><time>2026-04-11T13:19:08.001Z</time></trkpt><trkpt lat="50.458231747738054" lon="3.360227441033355"><ele>17.0</ele><time>2026-04-11T13:19:10.001Z</time></trkpt><trkpt lat="50.458309524760054" lon="3.3601359122015935"><ele>17.0</ele><time>2026-04-11T13:19:12.001Z</time></trkpt><trkpt lat="50.45838450728535" lon="3.3600422902623723"><ele>17.0</ele><time>2026-04-11T13:19:14.001Z</time></trkpt><trkpt lat="50.45846439280162" lon="3.3599562481055125"><ele>17.0</ele><time>2026-04-11T13:19:16.001Z</time></trkpt><trkpt lat="50.458550216581706" lon="3.3598749525035423"><ele>17.0</ele><time>2026-04-11T13:19:18.001Z</time></trkpt><trkpt lat="50.45863450834462" lon="3.3598084245396884"><ele>17.0</ele><time>2026-04-11T13:19:20.001Z</time></trkpt><trkpt lat="50.458717719010785" lon="3.3597408593435687"><ele>17.0</ele><time>2026-04-11T13:19:22.001Z</time></trkpt><trkpt lat="50.458804437388466" lon="3.3596761791399175"><ele>17.4</ele><time>2026-04-11T13:19:24.001Z</time></trkpt><trkpt lat="50.45889335179417" lon="3.3596025598329966"><ele>17.799999999999997</ele><time>2026-04-11T13:19:26.001Z</time></trkpt><trkpt lat="50.4589761755491" lon="3.359522264952998"><ele>18.2</ele><time>2026-04-11T13:19:28.001Z</time></trkpt><trkpt lat="50.45905146965446" lon="3.3594333871846587"><ele>18.599999999999998</ele><time>2026-04-11T13:19:30.001Z</time></trkpt><trkpt lat="50.45912266695694" lon="3.359334874380725"><ele>19.0</ele><time>2026-04-11T13:19:32.001Z</time></trkpt><trkpt lat="50.459189603436656" lon="3.359225927865058"><ele>19.0</ele><time>2026-04-11T13:19:34.001Z</time></trkpt><trkpt lat="50.45927212943644" lon="3.3591910521148165"><ele>19.0</ele><time>2026-04-11T13:19:36.001Z</time></trkpt><trkpt lat="50.459356064948416" lon="3.3592773893352765"><ele>19.0</ele><time>2026-04-11T13:19:38.001Z</time></trkpt><trkpt lat="50.45943661812027" lon="3.3593794756714974"><ele>19.0</ele><time>2026-04-11T13:19:40.001Z</time></trkpt><trkpt lat="50.45950740812735" lon="3.359481173258784"><ele>19.0</ele><time>2026-04-11T13:19:42.001Z</time></trkpt><trkpt lat="50.45957682838219" lon="3.3595799432212083"><ele>18.8</ele><time>2026-04-11T13:19:44.001Z</time></trkpt><trkpt lat="50.459644429557166" lon="3.359677614166729"><ele>18.599999999999998</ele><time>2026-04-11T13:19:46.001Z</time></trkpt><trkpt lat="50.45971581510486" lon="3.359770319672765"><ele>18.4</ele><time>2026-04-11T13:19:48.001Z</time></trkpt><trkpt lat="50.459800210726975" lon="3.3598488072097674"><ele>18.2</ele><time>2026-04-11T13:19:50.001Z</time></trkpt><trkpt lat="50.459886495007076" lon="3.359954526828993"><ele>18.0</ele><time>2026-04-11T13:19:52.001Z</time></trkpt><trkpt lat="50.45995517188859" lon="3.360061997716252"><ele>18.0</ele><time>2026-04-11T13:19:54.001Z</time></trkpt><trkpt lat="50.460022829511885" lon="3.3601733479009814"><ele>18.0</ele><time>2026-04-11T13:19:56.001Z</time></trkpt><trkpt lat="50.4600930787332" lon="3.3602866095602666"><ele>18.0</ele><time>2026-04-11T13:19:58.001Z</time></trkpt><trkpt lat="50.46016880545405" lon="3.3603898796858402"><ele>18.0</ele><time>2026-04-11T13:20:00.001Z</time></trkpt><trkpt lat="50.46024561481876" lon="3.3605000399055687"><ele>18.0</ele><time>2026-04-11T13:20:02.001Z</time></trkpt><trkpt lat="50.460329219154985" lon="3.3606083104695794"><ele>18.0</ele><time>2026-04-11T13:20:04.001Z</time></trkpt><trkpt lat="50.46040995398491" lon="3.360723605671522"><ele>18.0</ele><time>2026-04-11T13:20:06.001Z</time></trkpt><trkpt lat="50.460492402623125" lon="3.360827081753864"><ele>18.0</ele><time>2026-04-11T13:20:08.001Z</time></trkpt><trkpt lat="50.46058610058311" lon="3.360934245062962"><ele>18.0</ele><time>2026-04-11T13:20:10.001Z</time></trkpt><trkpt lat="50.460662116511855" lon="3.3610528471792227"><ele>18.0</ele><time>2026-04-11T13:20:12.001Z</time></trkpt><trkpt lat="50.460715011273955" lon="3.3611172724575207"><ele>17.8</ele><time>2026-04-11T13:20:13.001Z</time></trkpt><trkpt lat="50.46078823399766" lon="3.3612362482198903"><ele>17.6</ele><time>2026-04-11T13:20:15.001Z</time></trkpt><trkpt lat="50.46087050832422" lon="3.3613512520102313"><ele>17.4</ele><time>2026-04-11T13:20:17Z</time></trkpt><trkpt lat="50.46095683083962" lon="3.3614646628308704"><ele>17.2</ele><time>2026-04-11T13:20:19Z</time></trkpt><trkpt lat="50.46104884884411" lon="3.3615788155574102"><ele>17.0</ele><time>2026-04-11T13:20:21Z</time></trkpt><trkpt lat="50.46113987313788" lon="3.361687762101793"><ele>17.0</ele><time>2026-04-11T13:20:23Z</time></trkpt><trkpt lat="50.461235928150884" lon="3.3617964793047"><ele>17.0</ele><time>2026-04-11T13:20:25Z</time></trkpt><trkpt lat="50.461331209070615" lon="3.3618997477113584"><ele>17.0</ele><time>2026-04-11T13:20:27Z</time></trkpt><trkpt lat="50.461423134311225" lon="3.362005250910365"><ele>17.0</ele><time>2026-04-11T13:20:29Z</time></trkpt><trkpt lat="50.46164727408365" lon="3.362207531597359"><ele>17.166666666666668</ele><time>2026-04-11T13:20:30Z</time></trkpt><trkpt lat="50.46165040361475" lon="3.3623143634646264"><ele>17.333333333333336</ele><time>2026-04-11T13:20:35Z</time></trkpt><trkpt lat="50.461632624703924" lon="3.3624367692967567"><ele>17.5</ele><time>2026-04-11T13:20:37Z</time></trkpt><trkpt lat="50.461576613894565" lon="3.362557238696216"><ele>17.666666666666668</ele><time>2026-04-11T13:20:39Z</time></trkpt><trkpt lat="50.46152391425578" lon="3.3626736586845207"><ele>17.833333333333332</ele><time>2026-04-11T13:20:41Z</time></trkpt><trkpt lat="50.46147311098872" lon="3.362787550807203"><ele>18.0</ele><time>2026-04-11T13:20:43Z</time></trkpt><trkpt lat="50.4614261616668" lon="3.362907217656804"><ele>18.0</ele><time>2026-04-11T13:20:45Z</time></trkpt><trkpt lat="50.46137817540256" lon="3.3630262657893644"><ele>18.0</ele><time>2026-04-11T13:20:47Z</time></trkpt><trkpt lat="50.46133148720432" lon="3.36314764658469"><ele>18.0</ele><time>2026-04-11T13:20:49Z</time></trkpt><trkpt lat="50.461285824020415" lon="3.3632593567402496"><ele>18.0</ele><time>2026-04-11T13:20:51Z</time></trkpt><trkpt lat="50.461244803164" lon="3.363372120356451"><ele>18.0</ele><time>2026-04-11T13:20:53Z</time></trkpt><trkpt lat="50.46121607528753" lon="3.363475442519576"><ele>18.0</ele><time>2026-04-11T13:20:55Z</time></trkpt><trkpt lat="50.46119666116079" lon="3.3636010351212935"><ele>18.0</ele><time>2026-04-11T13:20:58Z</time></trkpt><trkpt lat="50.4612241736554" lon="3.3636928619153843"><ele>18.0</ele><time>2026-04-11T13:21:12.001Z</time></trkpt><trkpt lat="50.46116011305842" lon="3.363657147082136"><ele>18.0</ele><time>2026-04-11T13:21:37.001Z</time></trkpt><trkpt lat="50.46122620380139" lon="3.363690507843579"><ele>18.0</ele><time>2026-04-11T13:22:39Z</time></trkpt><trkpt lat="50.46129563818872" lon="3.363733813759801"><ele>18.0</ele><time>2026-04-11T13:24:11.001Z</time></trkpt><trkpt lat="50.461332391836244" lon="3.3618236084332764"><ele>17.8</ele><time>2026-04-11T13:28:01Z</time></trkpt><trkpt lat="50.461253624736585" lon="3.3617357300115436"><ele>17.6</ele><time>2026-04-11T13:28:03Z</time></trkpt><trkpt lat="50.46117626958164" lon="3.361633975375415"><ele>17.4</ele><time>2026-04-11T13:28:05Z</time></trkpt><trkpt lat="50.4610977777715" lon="3.361534421368688"><ele>17.2</ele><time>2026-04-11T13:28:07Z</time></trkpt><trkpt lat="50.461016744495645" lon="3.3614322346730674"><ele>17.0</ele><time>2026-04-11T13:28:09Z</time></trkpt><trkpt lat="50.46093279811092" lon="3.361329777087988"><ele>17.0</ele><time>2026-04-11T13:28:11Z</time></trkpt><trkpt lat="50.460850118282195" lon="3.3612335659248838"><ele>17.0</ele><time>2026-04-11T13:28:13Z</time></trkpt><trkpt lat="50.46076994620034" lon="3.3611319083562745"><ele>17.0</ele><time>2026-04-11T13:28:15Z</time></trkpt><trkpt lat="50.460692073238704" lon="3.361037043436639"><ele>17.0</ele><time>2026-04-11T13:28:17Z</time></trkpt><trkpt lat="50.46061511909121" lon="3.360935195484255"><ele>17.0</ele><time>2026-04-11T13:28:19Z</time></trkpt><trkpt lat="50.460539978585345" lon="3.36083426902494"><ele>17.0</ele><time>2026-04-11T13:28:21Z</time></trkpt><trkpt lat="50.460468064315776" lon="3.360728199082167"><ele>17.0</ele><time>2026-04-11T13:28:23Z</time></trkpt><trkpt lat="50.460411240033125" lon="3.3606266931514996"><ele>17.0</ele><time>2026-04-11T13:28:25Z</time></trkpt><trkpt lat="50.460335320515746" lon="3.3605199096518446"><ele>17.0</ele><time>2026-04-11T13:28:27Z</time></trkpt><trkpt lat="50.46025653057487" lon="3.3604203518746445"><ele>17.0</ele><time>2026-04-11T13:28:29Z</time></trkpt><trkpt lat="50.460176606080935" lon="3.3603129062522528"><ele>17.2</ele><time>2026-04-11T13:28:31Z</time></trkpt><trkpt lat="50.46009754147513" lon="3.3602068816702566"><ele>17.4</ele><time>2026-04-11T13:28:33Z</time></trkpt><trkpt lat="50.4600221939703" lon="3.3601066705065548"><ele>17.6</ele><time>2026-04-11T13:28:35Z</time></trkpt><trkpt lat="50.45994174629234" lon="3.359998788982952"><ele>17.8</ele><time>2026-04-11T13:28:37Z</time></trkpt><trkpt lat="50.45986507443318" lon="3.359888830787115"><ele>18.0</ele><time>2026-04-11T13:28:39Z</time></trkpt><trkpt lat="50.45978746567782" lon="3.359786423728614"><ele>17.8</ele><time>2026-04-11T13:28:41Z</time></trkpt><trkpt lat="50.459715819001424" lon="3.3596737202111853"><ele>17.6</ele><time>2026-04-11T13:28:43Z</time></trkpt><trkpt lat="50.45964002883963" lon="3.3595776491601463"><ele>17.4</ele><time>2026-04-11T13:28:45Z</time></trkpt><trkpt lat="50.45956313679367" lon="3.3594721002607413"><ele>17.2</ele><time>2026-04-11T13:28:47Z</time></trkpt><trkpt lat="50.45947920574009" lon="3.3593718130379364"><ele>17.0</ele><time>2026-04-11T13:28:49Z</time></trkpt><trkpt lat="50.459405510341654" lon="3.3592774561576473"><ele>17.333333333333336</ele><time>2026-04-11T13:28:51Z</time></trkpt><trkpt lat="50.45932841282039" lon="3.3592053955592482"><ele>17.666666666666668</ele><time>2026-04-11T13:28:53Z</time></trkpt><trkpt lat="50.459280343382204" lon="3.3591339361892554"><ele>18.0</ele><time>2026-04-11T13:28:56Z</time></trkpt><trkpt lat="50.4591972642858" lon="3.3591307374734387"><ele>18.333333333333332</ele><time>2026-04-11T13:28:59Z</time></trkpt><trkpt lat="50.459137628183335" lon="3.3592369707432024"><ele>18.666666666666664</ele><time>2026-04-11T13:29:01Z</time></trkpt><trkpt lat="50.45906962822415" lon="3.3593386182213503"><ele>19.0</ele><time>2026-04-11T13:29:03Z</time></trkpt><trkpt lat="50.45898831153703" lon="3.359429532535332"><ele>19.0</ele><time>2026-04-11T13:29:05Z</time></trkpt><trkpt lat="50.45891059422029" lon="3.359514204764008"><ele>19.0</ele><time>2026-04-11T13:29:07Z</time></trkpt><trkpt lat="50.4588270363779" lon="3.359591739388415"><ele>19.0</ele><time>2026-04-11T13:29:09Z</time></trkpt><trkpt lat="50.45873797985638" lon="3.3596558256048517"><ele>19.0</ele><time>2026-04-11T13:29:11Z</time></trkpt><trkpt lat="50.458650211992875" lon="3.359734957929549"><ele>19.0</ele><time>2026-04-11T13:29:13Z</time></trkpt><trkpt lat="50.45855893445714" lon="3.3598073851788093"><ele>18.666666666666664</ele><time>2026-04-11T13:29:15Z</time></trkpt><trkpt lat="50.458473646861634" lon="3.3598843261643827"><ele>18.333333333333332</ele><time>2026-04-11T13:29:17Z</time></trkpt><trkpt lat="50.458393720923944" lon="3.3599680100240854"><ele>18.0</ele><time>2026-04-11T13:29:19Z</time></trkpt><trkpt lat="50.45831483352953" lon="3.36005409446362"><ele>17.666666666666668</ele><time>2026-04-11T13:29:21Z</time></trkpt><trkpt lat="50.458263739764774" lon="3.36011246013084"><ele>17.333333333333336</ele><time>2026-04-11T13:29:22Z</time></trkpt><trkpt lat="50.458189443038606" lon="3.3601992188984107"><ele>17.0</ele><time>2026-04-11T13:29:24Z</time></trkpt><trkpt lat="50.45811522347041" lon="3.36028347284824"><ele>17.0</ele><time>2026-04-11T13:29:26Z</time></trkpt><trkpt lat="50.458041344330354" lon="3.360366466400006"><ele>17.0</ele><time>2026-04-11T13:29:28Z</time></trkpt><trkpt lat="50.4579737601958" lon="3.360435206616021"><ele>17.0</ele><time>2026-04-11T13:29:30Z</time></trkpt><trkpt lat="50.45788688224923" lon="3.3604644612215395"><ele>17.0</ele><time>2026-04-11T13:29:33Z</time></trkpt><trkpt lat="50.45782638465176" lon="3.3605495366773455"><ele>17.0</ele><time>2026-04-11T13:29:37Z</time></trkpt><trkpt lat="50.45777559680384" lon="3.360608915835429"><ele>17.0</ele><time>2026-04-11T13:29:41Z</time></trkpt><trkpt lat="50.45758104907492" lon="3.360916044494439"><ele>17.0</ele><time>2026-04-11T13:38:48Z</time></trkpt><trkpt lat="50.45755036565343" lon="3.3610548089884444"><ele>17.0</ele><time>2026-04-11T13:38:51Z</time></trkpt><trkpt lat="50.45750956147735" lon="3.3611683310745546"><ele>17.0</ele><time>2026-04-11T13:38:53Z</time></trkpt><trkpt lat="50.45746539002931" lon="3.361292580232535"><ele>17.0</ele><time>2026-04-11T13:38:55Z</time></trkpt><trkpt lat="50.45741822268353" lon="3.3614249185435243"><ele>17.0</ele><time>2026-04-11T13:38:57Z</time></trkpt><trkpt lat="50.45736395723245" lon="3.3615495280567433"><ele>17.0</ele><time>2026-04-11T13:38:59Z</time></trkpt><trkpt lat="50.45729695782502" lon="3.361667132643554"><ele>17.0</ele><time>2026-04-11T13:39:01Z</time></trkpt><trkpt lat="50.45723505837416" lon="3.3617926912768574"><ele>17.0</ele><time>2026-04-11T13:39:03Z</time></trkpt><trkpt lat="50.45716581235798" lon="3.3619174074893605"><ele>17.0</ele><time>2026-04-11T13:39:05Z</time></trkpt><trkpt lat="50.45710088578715" lon="3.3620489077981386"><ele>17.0</ele><time>2026-04-11T13:39:07Z</time></trkpt><trkpt lat="50.457036740403495" lon="3.362174500834542"><ele>17.0</ele><time>2026-04-11T13:39:09Z</time></trkpt><trkpt lat="50.45696927024621" lon="3.3622945926651324"><ele>17.0</ele><time>2026-04-11T13:39:11Z</time></trkpt><trkpt lat="50.45689974586971" lon="3.362405175648277"><ele>17.0</ele><time>2026-04-11T13:39:13Z</time></trkpt><trkpt lat="50.45682388224219" lon="3.362506966533735"><ele>17.0</ele><time>2026-04-11T13:39:15Z</time></trkpt><trkpt lat="50.45674472695398" lon="3.3626042202467374"><ele>17.0</ele><time>2026-04-11T13:39:17Z</time></trkpt><trkpt lat="50.45666401314349" lon="3.3627056710345395"><ele>17.0</ele><time>2026-04-11T13:39:19Z</time></trkpt><trkpt lat="50.45657882017383" lon="3.3628101071147163"><ele>17.0</ele><time>2026-04-11T13:39:21Z</time></trkpt><trkpt lat="50.45649891719728" lon="3.362919620470193"><ele>17.0</ele><time>2026-04-11T13:39:23Z</time></trkpt><trkpt lat="50.45642334880978" lon="3.3630280120479727"><ele>17.0</ele><time>2026-04-11T13:39:25Z</time></trkpt><trkpt lat="50.45634518290292" lon="3.3631402005094246"><ele>17.0</ele><time>2026-04-11T13:39:27Z</time></trkpt><trkpt lat="50.45627061139654" lon="3.36324373015964"><ele>16.8</ele><time>2026-04-11T13:39:29Z</time></trkpt><trkpt lat="50.4562000511682" lon="3.3633487623665865"><ele>16.6</ele><time>2026-04-11T13:39:31Z</time></trkpt><trkpt lat="50.45612514997675" lon="3.363446527915988"><ele>16.400000000000002</ele><time>2026-04-11T13:39:33Z</time></trkpt><trkpt lat="50.456050483959686" lon="3.3635496624412613"><ele>16.2</ele><time>2026-04-11T13:39:35Z</time></trkpt><trkpt lat="50.45597980661895" lon="3.3636512672885304"><ele>16.0</ele><time>2026-04-11T13:39:37Z</time></trkpt><trkpt lat="50.455909794070024" lon="3.363747989261764"><ele>16.0</ele><time>2026-04-11T13:39:39Z</time></trkpt><trkpt lat="50.45583712340218" lon="3.3638508627362524"><ele>16.0</ele><time>2026-04-11T13:39:41Z</time></trkpt><trkpt lat="50.45576407271227" lon="3.3639478020858142"><ele>16.0</ele><time>2026-04-11T13:39:43Z</time></trkpt><trkpt lat="50.45569079336345" lon="3.3640537040439864"><ele>16.0</ele><time>2026-04-11T13:39:45Z</time></trkpt><trkpt lat="50.45562158445992" lon="3.3641660429598295"><ele>16.0</ele><time>2026-04-11T13:39:47Z</time></trkpt><trkpt lat="50.455543812492" lon="3.364285543726441"><ele>16.2</ele><time>2026-04-11T13:39:49Z</time></trkpt><trkpt lat="50.45546821154628" lon="3.364391875805745"><ele>16.400000000000002</ele><time>2026-04-11T13:39:51Z</time></trkpt><trkpt lat="50.45539128351437" lon="3.3645064212941493"><ele>16.6</ele><time>2026-04-11T13:39:53Z</time></trkpt><trkpt lat="50.45532307598957" lon="3.3646171473640734"><ele>16.8</ele><time>2026-04-11T13:39:55Z</time></trkpt><trkpt lat="50.45525032086147" lon="3.3647313808735646"><ele>17.0</ele><time>2026-04-11T13:39:57Z</time></trkpt><trkpt lat="50.45517902352552" lon="3.364848265555134"><ele>17.0</ele><time>2026-04-11T13:39:59Z</time></trkpt><trkpt lat="50.45510829208918" lon="3.3649561224040316"><ele>17.0</ele><time>2026-04-11T13:40:01Z</time></trkpt><trkpt lat="50.4550354738167" lon="3.365061289520083"><ele>17.0</ele><time>2026-04-11T13:40:03Z</time></trkpt><trkpt lat="50.454965888229765" lon="3.365168132088896"><ele>17.0</ele><time>2026-04-11T13:40:05Z</time></trkpt><trkpt lat="50.454894475077005" lon="3.3652718687380005"><ele>17.0</ele><time>2026-04-11T13:40:07Z</time></trkpt><trkpt lat="50.454819499457145" lon="3.3653857729178647"><ele>17.0</ele><time>2026-04-11T13:40:09Z</time></trkpt><trkpt lat="50.45475035945412" lon="3.365496544480814"><ele>17.0</ele><time>2026-04-11T13:40:11Z</time></trkpt><trkpt lat="50.4546776001507" lon="3.3656097686964213"><ele>17.0</ele><time>2026-04-11T13:40:13Z</time></trkpt><trkpt lat="50.45460376284232" lon="3.3657220247969124"><ele>17.0</ele><time>2026-04-11T13:40:15Z</time></trkpt><trkpt lat="50.454530941589404" lon="3.3658374683684533"><ele>17.0</ele><time>2026-04-11T13:40:17Z</time></trkpt><trkpt lat="50.454454409848346" lon="3.3659544169068516"><ele>17.0</ele><time>2026-04-11T13:40:19Z</time></trkpt><trkpt lat="50.45437469378684" lon="3.3660684178091946"><ele>17.0</ele><time>2026-04-11T13:40:21Z</time></trkpt><trkpt lat="50.45429712266071" lon="3.3661899644868467"><ele>17.0</ele><time>2026-04-11T13:40:23Z</time></trkpt><trkpt lat="50.45421962427249" lon="3.3663063999778116"><ele>17.0</ele><time>2026-04-11T13:40:25Z</time></trkpt><trkpt lat="50.45414269818089" lon="3.366423321056369"><ele>17.0</ele><time>2026-04-11T13:40:27Z</time></trkpt><trkpt lat="50.45406357421787" lon="3.3665444386434658"><ele>16.8</ele><time>2026-04-11T13:40:29Z</time></trkpt><trkpt lat="50.45399001293073" lon="3.3666628747765155"><ele>16.6</ele><time>2026-04-11T13:40:31Z</time></trkpt><trkpt lat="50.4539165908028" lon="3.3667677031333496"><ele>16.400000000000002</ele><time>2026-04-11T13:40:33Z</time></trkpt><trkpt lat="50.45384302647993" lon="3.36688289481709"><ele>16.2</ele><time>2026-04-11T13:40:35Z</time></trkpt><trkpt lat="50.45376072979668" lon="3.3670117922596"><ele>16.0</ele><time>2026-04-11T13:40:37Z</time></trkpt><trkpt lat="50.45368288424088" lon="3.3671245703287918"><ele>16.0</ele><time>2026-04-11T13:40:39Z</time></trkpt><trkpt lat="50.453602973137684" lon="3.3672378546413646"><ele>16.0</ele><time>2026-04-11T13:40:41Z</time></trkpt><trkpt lat="50.45350553519598" lon="3.3673207750109815"><ele>16.0</ele><time>2026-04-11T13:40:43Z</time></trkpt><trkpt lat="50.453402848855006" lon="3.3673517588499324"><ele>16.0</ele><time>2026-04-11T13:40:45Z</time></trkpt><trkpt lat="50.45330173923198" lon="3.367373693433542"><ele>16.0</ele><time>2026-04-11T13:40:47Z</time></trkpt><trkpt lat="50.45320126190041" lon="3.3673953882787604"><ele>16.0</ele><time>2026-04-11T13:40:49Z</time></trkpt><trkpt lat="50.45309698842656" lon="3.367396029238105"><ele>16.0</ele><time>2026-04-11T13:40:51Z</time></trkpt><trkpt lat="50.45300063786827" lon="3.36735842016379"><ele>16.0</ele><time>2026-04-11T13:40:53Z</time></trkpt><trkpt lat="50.45291468370589" lon="3.367275292490727"><ele>16.0</ele><time>2026-04-11T13:40:55Z</time></trkpt><trkpt lat="50.45283890675261" lon="3.3671685003168776"><ele>16.0</ele><time>2026-04-11T13:40:57Z</time></trkpt><trkpt lat="50.45276464956525" lon="3.3670699082156212"><ele>16.2</ele><time>2026-04-11T13:40:59Z</time></trkpt><trkpt lat="50.45269739351896" lon="3.366962191757395"><ele>16.400000000000002</ele><time>2026-04-11T13:41:01Z</time></trkpt><trkpt lat="50.452635893598824" lon="3.3668742737844783"><ele>16.6</ele><time>2026-04-11T13:41:03Z</time></trkpt><trkpt lat="50.45258007986017" lon="3.366744475947915"><ele>16.8</ele><time>2026-04-11T13:41:05Z</time></trkpt><trkpt lat="50.45250809268626" lon="3.3666298798869554"><ele>17.0</ele><time>2026-04-11T13:41:07Z</time></trkpt><trkpt lat="50.45244709458721" lon="3.3665132455248954"><ele>17.0</ele><time>2026-04-11T13:41:09Z</time></trkpt><trkpt lat="50.45237516550145" lon="3.366394303964706"><ele>17.0</ele><time>2026-04-11T13:41:11Z</time></trkpt><trkpt lat="50.45230434778895" lon="3.36628255873615"><ele>17.0</ele><time>2026-04-11T13:41:12.999Z</time></trkpt><trkpt lat="50.452231334064244" lon="3.3661872127034314"><ele>17.0</ele><time>2026-04-11T13:41:14.999Z</time></trkpt><trkpt lat="50.45216680384245" lon="3.3660814860532984"><ele>17.0</ele><time>2026-04-11T13:41:16.999Z</time></trkpt><trkpt lat="50.452092565307765" lon="3.3659761549885077"><ele>17.2</ele><time>2026-04-11T13:41:18.999Z</time></trkpt><trkpt lat="50.45201034700383" lon="3.36588187209752"><ele>17.4</ele><time>2026-04-11T13:41:20.999Z</time></trkpt><trkpt lat="50.451924034794224" lon="3.3657898587192094"><ele>17.6</ele><time>2026-04-11T13:41:22.999Z</time></trkpt><trkpt lat="50.451833243876244" lon="3.3657209943961632"><ele>17.8</ele><time>2026-04-11T13:41:24.999Z</time></trkpt><trkpt lat="50.45170387006609" lon="3.3656282595563596"><ele>18.0</ele><time>2026-04-11T13:41:28Z</time></trkpt><trkpt lat="50.45161374573689" lon="3.365558738972813"><ele>17.8</ele><time>2026-04-11T13:41:30Z</time></trkpt><trkpt lat="50.45151957957554" lon="3.365496415927507"><ele>17.6</ele><time>2026-04-11T13:41:32Z</time></trkpt><trkpt lat="50.45142748709267" lon="3.3654346550155703"><ele>17.4</ele><time>2026-04-11T13:41:34Z</time></trkpt><trkpt lat="50.45133045518164" lon="3.3653743403168743"><ele>17.2</ele><time>2026-04-11T13:41:36Z</time></trkpt><trkpt lat="50.451230281547346" lon="3.3653186356471254"><ele>17.0</ele><time>2026-04-11T13:41:38Z</time></trkpt><trkpt lat="50.45113993467582" lon="3.3652516386728064"><ele>17.0</ele><time>2026-04-11T13:41:40Z</time></trkpt><trkpt lat="50.451047938307134" lon="3.3651790033751494"><ele>17.0</ele><time>2026-04-11T13:41:42Z</time></trkpt><trkpt lat="50.450952161523205" lon="3.365120704456187"><ele>17.0</ele><time>2026-04-11T13:41:44Z</time></trkpt><trkpt lat="50.450862132627286" lon="3.365047357727061"><ele>17.0</ele><time>2026-04-11T13:41:46Z</time></trkpt><trkpt lat="50.45077504661116" lon="3.364987943047335"><ele>17.0</ele><time>2026-04-11T13:41:48Z</time></trkpt><trkpt lat="50.45068227423397" lon="3.3649318011364215"><ele>17.0</ele><time>2026-04-11T13:41:50Z</time></trkpt><trkpt lat="50.45060267881386" lon="3.3648653712315597"><ele>17.0</ele><time>2026-04-11T13:41:52Z</time></trkpt><trkpt lat="50.45050746261041" lon="3.364805768778739"><ele>17.0</ele><time>2026-04-11T13:41:54Z</time></trkpt><trkpt lat="50.45041981135309" lon="3.364749710086122"><ele>17.0</ele><time>2026-04-11T13:41:56Z</time></trkpt><trkpt lat="50.45033554142033" lon="3.364688526420582"><ele>17.0</ele><time>2026-04-11T13:41:58Z</time></trkpt><trkpt lat="50.450244241351406" lon="3.364620248539479"><ele>17.2</ele><time>2026-04-11T13:42:00Z</time></trkpt><trkpt lat="50.45015333121843" lon="3.364560846927301"><ele>17.4</ele><time>2026-04-11T13:42:02Z</time></trkpt><trkpt lat="50.450061636688446" lon="3.3644963136035093"><ele>17.6</ele><time>2026-04-11T13:42:04Z</time></trkpt><trkpt lat="50.44997273428187" lon="3.364433026522244"><ele>17.8</ele><time>2026-04-11T13:42:06Z</time></trkpt><trkpt lat="50.44988894354867" lon="3.364361889959658"><ele>18.0</ele><time>2026-04-11T13:42:08Z</time></trkpt><trkpt lat="50.449803423182225" lon="3.3642814767247864"><ele>18.0</ele><time>2026-04-11T13:42:10Z</time></trkpt><trkpt lat="50.449715058131595" lon="3.36419448172648"><ele>18.0</ele><time>2026-04-11T13:42:12Z</time></trkpt><trkpt lat="50.44963085688721" lon="3.364112812775656"><ele>18.0</ele><time>2026-04-11T13:42:14Z</time></trkpt><trkpt lat="50.44954165919022" lon="3.3640364797554247"><ele>18.0</ele><time>2026-04-11T13:42:16Z</time></trkpt><trkpt lat="50.44943578813495" lon="3.3639998372500273"><ele>18.0</ele><time>2026-04-11T13:42:18Z</time></trkpt><trkpt lat="50.44933530284703" lon="3.3640209972694124"><ele>17.8</ele><time>2026-04-11T13:42:20Z</time></trkpt><trkpt lat="50.44923066316707" lon="3.3640707736840216"><ele>17.6</ele><time>2026-04-11T13:42:22Z</time></trkpt><trkpt lat="50.44913818812169" lon="3.3641417392152126"><ele>17.4</ele><time>2026-04-11T13:42:24Z</time></trkpt><trkpt lat="50.44904131910761" lon="3.3642021966375797"><ele>17.2</ele><time>2026-04-11T13:42:26Z</time></trkpt><trkpt lat="50.44894299467264" lon="3.3642629875311583"><ele>17.0</ele><time>2026-04-11T13:42:28Z</time></trkpt><trkpt lat="50.44883961687784" lon="3.3643271816153475"><ele>17.2</ele><time>2026-04-11T13:42:30Z</time></trkpt><trkpt lat="50.44873953235942" lon="3.364381706796146"><ele>17.4</ele><time>2026-04-11T13:42:32Z</time></trkpt><trkpt lat="50.44863635371346" lon="3.364411730680876"><ele>17.6</ele><time>2026-04-11T13:42:34Z</time></trkpt><trkpt lat="50.448531535801706" lon="3.364425178742183"><ele>17.8</ele><time>2026-04-11T13:42:36Z</time></trkpt><trkpt lat="50.448427369454" lon="3.364407596174144"><ele>18.0</ele><time>2026-04-11T13:42:38Z</time></trkpt><trkpt lat="50.448333597812415" lon="3.3643811539789144"><ele>18.0</ele><time>2026-04-11T13:42:40Z</time></trkpt><trkpt lat="50.448238981235804" lon="3.3643371675305365"><ele>18.0</ele><time>2026-04-11T13:42:42Z</time></trkpt><trkpt lat="50.44814126761702" lon="3.3643080769199827"><ele>18.0</ele><time>2026-04-11T13:42:44Z</time></trkpt><trkpt lat="50.44803674278053" lon="3.3642957590499845"><ele>18.0</ele><time>2026-04-11T13:42:46Z</time></trkpt><trkpt lat="50.44793140743679" lon="3.3643279304824563"><ele>18.0</ele><time>2026-04-11T13:42:48Z</time></trkpt><trkpt lat="50.44782391563615" lon="3.3643424083677407"><ele>18.2</ele><time>2026-04-11T13:42:50Z</time></trkpt><trkpt lat="50.44772637933058" lon="3.3643588756885676"><ele>18.4</ele><time>2026-04-11T13:42:52Z</time></trkpt><trkpt lat="50.44763262098755" lon="3.36437801093472"><ele>18.599999999999998</ele><time>2026-04-11T13:42:54Z</time></trkpt><trkpt lat="50.4475671234745" lon="3.364387180678872"><ele>18.8</ele><time>2026-04-11T13:42:56Z</time></trkpt><trkpt lat="50.44750723635868" lon="3.3641846073334363"><ele>19.0</ele><time>2026-04-11T13:42:58Z</time></trkpt><trkpt lat="50.44744836765963" lon="3.3640803891154833"><ele>19.0</ele><time>2026-04-11T13:43:00Z</time></trkpt><trkpt lat="50.447390441781224" lon="3.363962473600191"><ele>19.0</ele><time>2026-04-11T13:43:02Z</time></trkpt><trkpt lat="50.44734857321846" lon="3.3638686430214655"><ele>19.0</ele><time>2026-04-11T13:43:04Z</time></trkpt><trkpt lat="50.44738790817371" lon="3.363971902618427"><ele>19.0</ele><time>2026-04-11T13:43:09Z</time></trkpt><trkpt lat="50.44743476958394" lon="3.364076836688264"><ele>19.0</ele><time>2026-04-11T13:43:11Z</time></trkpt><trkpt lat="50.44748605064289" lon="3.364183252928421"><ele>19.0</ele><time>2026-04-11T13:43:13Z</time></trkpt><trkpt lat="50.447539201882925" lon="3.364293200585186"><ele>19.0</ele><time>2026-04-11T13:43:15Z</time></trkpt><trkpt lat="50.44757908598711" lon="3.364403140416752"><ele>19.0</ele><time>2026-04-11T13:43:17Z</time></trkpt><trkpt lat="50.44748341244622" lon="3.364528661590743"><ele>19.0</ele><time>2026-04-11T13:43:18Z</time></trkpt><trkpt lat="50.44739454853926" lon="3.364575803727141"><ele>19.0</ele><time>2026-04-11T13:43:19.999Z</time></trkpt><trkpt lat="50.4473068963555" lon="3.364639038738671"><ele>19.0</ele><time>2026-04-11T13:43:21.999Z</time></trkpt><trkpt lat="50.44722624429061" lon="3.3647265899888597"><ele>19.0</ele><time>2026-04-11T13:43:23.999Z</time></trkpt><trkpt lat="50.44715269759081" lon="3.3648308698996607"><ele>19.0</ele><time>2026-04-11T13:43:25.999Z</time></trkpt><trkpt lat="50.44708094151416" lon="3.3649480368666436"><ele>19.0</ele><time>2026-04-11T13:43:27.999Z</time></trkpt><trkpt lat="50.447001140365366" lon="3.3650584658195157"><ele>19.0</ele><time>2026-04-11T13:43:30Z</time></trkpt><trkpt lat="50.44692329890908" lon="3.365175165245889"><ele>19.0</ele><time>2026-04-11T13:43:32Z</time></trkpt><trkpt lat="50.44684651806799" lon="3.3652992176972463"><ele>19.0</ele><time>2026-04-11T13:43:34Z</time></trkpt><trkpt lat="50.44677261002153" lon="3.3654216044659275"><ele>19.0</ele><time>2026-04-11T13:43:36Z</time></trkpt><trkpt lat="50.446695281060684" lon="3.3655454774671334"><ele>19.0</ele><time>2026-04-11T13:43:38Z</time></trkpt><trkpt lat="50.44661435601834" lon="3.3656642886754873"><ele>19.0</ele><time>2026-04-11T13:43:40Z</time></trkpt><trkpt lat="50.44653399888229" lon="3.3657808678775676"><ele>19.0</ele><time>2026-04-11T13:43:42Z</time></trkpt><trkpt lat="50.44645187476728" lon="3.3659002671979135"><ele>19.0</ele><time>2026-04-11T13:43:44Z</time></trkpt><trkpt lat="50.44636622043733" lon="3.36600682900174"><ele>19.0</ele><time>2026-04-11T13:43:46Z</time></trkpt><trkpt lat="50.446284499241486" lon="3.3661163947273463"><ele>19.0</ele><time>2026-04-11T13:43:48Z</time></trkpt><trkpt lat="50.44620610201835" lon="3.366224151114486"><ele>19.0</ele><time>2026-04-11T13:43:50Z</time></trkpt><trkpt lat="50.446122908631395" lon="3.3663311682130153"><ele>19.0</ele><time>2026-04-11T13:43:52Z</time></trkpt><trkpt lat="50.446038685680335" lon="3.366439244502101"><ele>19.25</ele><time>2026-04-11T13:43:54Z</time></trkpt><trkpt lat="50.44595341363001" lon="3.3665529246685653"><ele>19.5</ele><time>2026-04-11T13:43:56Z</time></trkpt><trkpt lat="50.44586691774116" lon="3.3666655831357284"><ele>19.75</ele><time>2026-04-11T13:43:58Z</time></trkpt><trkpt lat="50.44578046256927" lon="3.3667871254357244"><ele>20.0</ele><time>2026-04-11T13:44:00Z</time></trkpt><trkpt lat="50.4456874716766" lon="3.366905099127753"><ele>20.0</ele><time>2026-04-11T13:44:02Z</time></trkpt><trkpt lat="50.445606748778324" lon="3.367042822564163"><ele>20.0</ele><time>2026-04-11T13:44:04Z</time></trkpt><trkpt lat="50.44556169774094" lon="3.3672022211822386"><ele>20.0</ele><time>2026-04-11T13:44:06Z</time></trkpt><trkpt lat="50.4455345213112" lon="3.3673706259687015"><ele>20.0</ele><time>2026-04-11T13:44:08Z</time></trkpt><trkpt lat="50.44552236569256" lon="3.3675412298127156"><ele>20.0</ele><time>2026-04-11T13:44:10Z</time></trkpt><trkpt lat="50.44549872547452" lon="3.3677130102890045"><ele>20.0</ele><time>2026-04-11T13:44:12Z</time></trkpt><trkpt lat="50.445487685242554" lon="3.3678858107710843"><ele>20.0</ele><time>2026-04-11T13:44:14Z</time></trkpt><trkpt lat="50.4454863481379" lon="3.3680659847240877"><ele>20.0</ele><time>2026-04-11T13:44:16Z</time></trkpt><trkpt lat="50.44548430509597" lon="3.3682443757864324"><ele>19.75</ele><time>2026-04-11T13:44:18Z</time></trkpt><trkpt lat="50.44547680724149" lon="3.3684185725685114"><ele>19.5</ele><time>2026-04-11T13:44:20Z</time></trkpt><trkpt lat="50.44545574032599" lon="3.368601913563953"><ele>19.25</ele><time>2026-04-11T13:44:22Z</time></trkpt><trkpt lat="50.44541716841874" lon="3.368773506249707"><ele>19.0</ele><time>2026-04-11T13:44:24Z</time></trkpt><trkpt lat="50.4453548470599" lon="3.3689167714765182"><ele>18.8</ele><time>2026-04-11T13:44:26Z</time></trkpt><trkpt lat="50.44527989558598" lon="3.369045012478862"><ele>18.599999999999998</ele><time>2026-04-11T13:44:28Z</time></trkpt><trkpt lat="50.44519645760622" lon="3.3691603896009292"><ele>18.4</ele><time>2026-04-11T13:44:30Z</time></trkpt><trkpt lat="50.445117504971094" lon="3.369282186210863"><ele>18.2</ele><time>2026-04-11T13:44:32Z</time></trkpt><trkpt lat="50.44505503203299" lon="3.3694172771459963"><ele>18.0</ele><time>2026-04-11T13:44:34Z</time></trkpt><trkpt lat="50.445012450270745" lon="3.3695343017448"><ele>18.0</ele><time>2026-04-11T13:44:36Z</time></trkpt><trkpt lat="50.444974585683205" lon="3.369651693748546"><ele>18.0</ele><time>2026-04-11T13:44:39Z</time></trkpt><trkpt lat="50.444946850170446" lon="3.3697439316997695"><ele>18.0</ele><time>2026-04-11T13:44:41Z</time></trkpt><trkpt lat="50.444916663070686" lon="3.3698591622912644"><ele>18.0</ele><time>2026-04-11T13:44:43Z</time></trkpt><trkpt lat="50.444869518005696" lon="3.36998432100075"><ele>18.0</ele><time>2026-04-11T13:44:45Z</time></trkpt><trkpt lat="50.444824430753854" lon="3.370122535142578"><ele>18.0</ele><time>2026-04-11T13:44:47Z</time></trkpt><trkpt lat="50.444772425497185" lon="3.370262046011813"><ele>18.0</ele><time>2026-04-11T13:44:49Z</time></trkpt><trkpt lat="50.44472643921701" lon="3.3704065862793495"><ele>18.0</ele><time>2026-04-11T13:44:51Z</time></trkpt><trkpt lat="50.44470470201704" lon="3.3705642551406556"><ele>18.0</ele><time>2026-04-11T13:44:53Z</time></trkpt><trkpt lat="50.444708527280085" lon="3.3707323903653177"><ele>18.0</ele><time>2026-04-11T13:44:55Z</time></trkpt><trkpt lat="50.44470078813761" lon="3.370911531773933"><ele>18.0</ele><time>2026-04-11T13:44:57Z</time></trkpt><trkpt lat="50.44468219004121" lon="3.371080503892958"><ele>18.2</ele><time>2026-04-11T13:44:59Z</time></trkpt><trkpt lat="50.44464874607276" lon="3.3712386390320246"><ele>18.4</ele><time>2026-04-11T13:45:01Z</time></trkpt><trkpt lat="50.44458271390575" lon="3.371372251595786"><ele>18.599999999999998</ele><time>2026-04-11T13:45:03Z</time></trkpt><trkpt lat="50.44450926820916" lon="3.3714899616106195"><ele>18.8</ele><time>2026-04-11T13:45:05Z</time></trkpt><trkpt lat="50.444436272213494" lon="3.3716119297454994"><ele>19.0</ele><time>2026-04-11T13:45:07Z</time></trkpt><trkpt lat="50.444363553049136" lon="3.37173869367775"><ele>19.0</ele><time>2026-04-11T13:45:09Z</time></trkpt><trkpt lat="50.44429192485321" lon="3.3718693460122435"><ele>19.0</ele><time>2026-04-11T13:45:11Z</time></trkpt><trkpt lat="50.4442152684013" lon="3.3720073908871324"><ele>19.0</ele><time>2026-04-11T13:45:13Z</time></trkpt><trkpt lat="50.44413535997668" lon="3.372144809034506"><ele>19.0</ele><time>2026-04-11T13:45:15Z</time></trkpt><trkpt lat="50.44405813421905" lon="3.3722769184839168"><ele>19.0</ele><time>2026-04-11T13:45:17Z</time></trkpt><trkpt lat="50.44397699372487" lon="3.372409763979521"><ele>19.0</ele><time>2026-04-11T13:45:19Z</time></trkpt><trkpt lat="50.44389807405941" lon="3.37254136256378"><ele>19.0</ele><time>2026-04-11T13:45:21Z</time></trkpt><trkpt lat="50.44381798546314" lon="3.372672016150243"><ele>19.0</ele><time>2026-04-11T13:45:23Z</time></trkpt><trkpt lat="50.44374198075098" lon="3.3728005531614276"><ele>19.0</ele><time>2026-04-11T13:45:25Z</time></trkpt><trkpt lat="50.44369527068905" lon="3.3728678200698603"><ele>19.0</ele><time>2026-04-11T13:45:26Z</time></trkpt><trkpt lat="50.44362050768637" lon="3.372988617626215"><ele>19.0</ele><time>2026-04-11T13:45:28Z</time></trkpt><trkpt lat="50.44354543323031" lon="3.3731156399997175"><ele>19.0</ele><time>2026-04-11T13:45:30Z</time></trkpt><trkpt lat="50.443471833072955" lon="3.3732463337454432"><ele>19.0</ele><time>2026-04-11T13:45:32Z</time></trkpt><trkpt lat="50.44342078807809" lon="3.3734023123218404"><ele>18.8</ele><time>2026-04-11T13:45:34Z</time></trkpt><trkpt lat="50.443390446867646" lon="3.3735643934063133"><ele>18.599999999999998</ele><time>2026-04-11T13:45:36Z</time></trkpt><trkpt lat="50.443361325819886" lon="3.373722255581207"><ele>18.4</ele><time>2026-04-11T13:45:38Z</time></trkpt><trkpt lat="50.44333153550936" lon="3.3738953867136297"><ele>18.2</ele><time>2026-04-11T13:45:40Z</time></trkpt><trkpt lat="50.443290178906516" lon="3.3740510514623776"><ele>18.0</ele><time>2026-04-11T13:45:42Z</time></trkpt><trkpt lat="50.443245016317846" lon="3.374206010952617"><ele>18.0</ele><time>2026-04-11T13:45:44Z</time></trkpt><trkpt lat="50.443191933040275" lon="3.374353196613785"><ele>18.0</ele><time>2026-04-11T13:45:46Z</time></trkpt><trkpt lat="50.44312676156337" lon="3.3744905333739275"><ele>18.0</ele><time>2026-04-11T13:45:48Z</time></trkpt><trkpt lat="50.44306578017693" lon="3.374636188639178"><ele>18.0</ele><time>2026-04-11T13:45:50Z</time></trkpt><trkpt lat="50.44300373824007" lon="3.3747885941828235"><ele>18.0</ele><time>2026-04-11T13:45:52Z</time></trkpt><trkpt lat="50.44294255809217" lon="3.3749246020898998"><ele>18.4</ele><time>2026-04-11T13:45:54Z</time></trkpt><trkpt lat="50.442894001930284" lon="3.375069570982096"><ele>18.8</ele><time>2026-04-11T13:45:56Z</time></trkpt><trkpt lat="50.44285038104587" lon="3.375221973803452"><ele>19.2</ele><time>2026-04-11T13:45:58Z</time></trkpt><trkpt lat="50.442816743976735" lon="3.375378050941567"><ele>19.6</ele><time>2026-04-11T13:46:00Z</time></trkpt><trkpt lat="50.442784345485265" lon="3.3755279228651296"><ele>20.0</ele><time>2026-04-11T13:46:02Z</time></trkpt><trkpt lat="50.44274811919459" lon="3.375670253329031"><ele>20.2</ele><time>2026-04-11T13:46:04Z</time></trkpt><trkpt lat="50.4427130490993" lon="3.375830649461653"><ele>20.4</ele><time>2026-04-11T13:46:06Z</time></trkpt><trkpt lat="50.44267364741249" lon="3.37598304317199"><ele>20.6</ele><time>2026-04-11T13:46:08Z</time></trkpt><trkpt lat="50.44263420841588" lon="3.3761220645440546"><ele>20.8</ele><time>2026-04-11T13:46:10Z</time></trkpt><trkpt lat="50.442601039896964" lon="3.3762526527459737"><ele>21.0</ele><time>2026-04-11T13:46:12Z</time></trkpt><trkpt lat="50.442571513890236" lon="3.376386291365062"><ele>20.6</ele><time>2026-04-11T13:46:14Z</time></trkpt><trkpt lat="50.44253844697028" lon="3.3765235834279705"><ele>20.200000000000003</ele><time>2026-04-11T13:46:16Z</time></trkpt><trkpt lat="50.44250394101618" lon="3.3766552551055247"><ele>19.799999999999997</ele><time>2026-04-11T13:46:18Z</time></trkpt><trkpt lat="50.44247990397274" lon="3.3768013110241664"><ele>19.4</ele><time>2026-04-11T13:46:20Z</time></trkpt><trkpt lat="50.44244909822078" lon="3.3769343978261652"><ele>19.0</ele><time>2026-04-11T13:46:22Z</time></trkpt><trkpt lat="50.442421685698925" lon="3.3770631233611743"><ele>18.599999999999998</ele><time>2026-04-11T13:46:24Z</time></trkpt><trkpt lat="50.442400055864624" lon="3.377190061780281"><ele>18.2</ele><time>2026-04-11T13:46:26Z</time></trkpt><trkpt lat="50.442370352490734" lon="3.3773176289398865"><ele>17.799999999999997</ele><time>2026-04-11T13:46:28Z</time></trkpt><trkpt lat="50.44233668745563" lon="3.3774516054383237"><ele>17.4</ele><time>2026-04-11T13:46:30Z</time></trkpt><trkpt lat="50.442296584280136" lon="3.3775876667840055"><ele>17.0</ele><time>2026-04-11T13:46:32Z</time></trkpt><trkpt lat="50.44224684069633" lon="3.3777282988577215"><ele>17.0</ele><time>2026-04-11T13:46:34Z</time></trkpt><trkpt lat="50.44218495078471" lon="3.377853915238875"><ele>17.0</ele><time>2026-04-11T13:46:36Z</time></trkpt><trkpt lat="50.44211711130445" lon="3.377951641115851"><ele>17.0</ele><time>2026-04-11T13:46:38Z</time></trkpt><trkpt lat="50.4420422436734" lon="3.37803656692924"><ele>17.0</ele><time>2026-04-11T13:46:40Z</time></trkpt><trkpt lat="50.441964364946664" lon="3.378094818120341"><ele>17.0</ele><time>2026-04-11T13:46:42Z</time></trkpt><trkpt lat="50.44188594133757" lon="3.378144922816981"><ele>16.8</ele><time>2026-04-11T13:46:44Z</time></trkpt><trkpt lat="50.441798492750245" lon="3.378188862299656"><ele>16.6</ele><time>2026-04-11T13:46:46Z</time></trkpt><trkpt lat="50.44171027512169" lon="3.378248274500967"><ele>16.400000000000002</ele><time>2026-04-11T13:46:48Z</time></trkpt><trkpt lat="50.44162245736782" lon="3.3782938026090017"><ele>16.2</ele><time>2026-04-11T13:46:50Z</time></trkpt><trkpt lat="50.44153309054087" lon="3.3783464279033"><ele>16.0</ele><time>2026-04-11T13:46:52Z</time></trkpt><trkpt lat="50.441444067686426" lon="3.378398136506984"><ele>15.999999999999998</ele><time>2026-04-11T13:46:54Z</time></trkpt><trkpt lat="50.44135845814933" lon="3.3784448033370706"><ele>16.0</ele><time>2026-04-11T13:46:56Z</time></trkpt><trkpt lat="50.441280830636515" lon="3.3784934850203063"><ele>16.0</ele><time>2026-04-11T13:46:58Z</time></trkpt><trkpt lat="50.44121089667706" lon="3.3785334204620403"><ele>16.0</ele><time>2026-04-11T13:47:00Z</time></trkpt><trkpt lat="50.44114633877838" lon="3.378571926050452"><ele>15.999999999999998</ele><time>2026-04-11T13:47:02Z</time></trkpt><trkpt lat="50.44108296253072" lon="3.3786047103271475"><ele>16.0</ele><time>2026-04-11T13:47:04Z</time></trkpt><trkpt lat="50.441009572350914" lon="3.3786093503308128"><ele>16.333333333333332</ele><time>2026-04-11T13:47:34Z</time></trkpt><trkpt lat="50.44094681833857" lon="3.3786472583734417"><ele>16.666666666666664</ele><time>2026-04-11T13:47:38Z</time></trkpt><trkpt lat="50.44086833200381" lon="3.3787146653579563"><ele>17.0</ele><time>2026-04-11T13:47:41Z</time></trkpt><trkpt lat="50.44080319550342" lon="3.378746896896017"><ele>17.333333333333332</ele><time>2026-04-11T13:47:43Z</time></trkpt><trkpt lat="50.44072826640355" lon="3.378784962407749"><ele>17.666666666666668</ele><time>2026-04-11T13:47:45Z</time></trkpt><trkpt lat="50.44065081394946" lon="3.378833592098948"><ele>18.0</ele><time>2026-04-11T13:47:47Z</time></trkpt><trkpt lat="50.440571125688194" lon="3.378883320447726"><ele>18.0</ele><time>2026-04-11T13:47:49Z</time></trkpt><trkpt lat="50.44048853845189" lon="3.378935867920268"><ele>18.0</ele><time>2026-04-11T13:47:51Z</time></trkpt><trkpt lat="50.440400730049795" lon="3.3789795105314284"><ele>18.0</ele><time>2026-04-11T13:47:53Z</time></trkpt><trkpt lat="50.44031563888011" lon="3.379026658109797"><ele>18.0</ele><time>2026-04-11T13:47:55Z</time></trkpt><trkpt lat="50.44022874894901" lon="3.3790635945740353"><ele>18.0</ele><time>2026-04-11T13:47:57Z</time></trkpt><trkpt lat="50.440156754590696" lon="3.3791123593683183"><ele>18.0</ele><time>2026-04-11T13:47:59Z</time></trkpt><trkpt lat="50.44009159176282" lon="3.3791645493959614"><ele>18.0</ele><time>2026-04-11T13:48:02Z</time></trkpt><trkpt lat="50.43999489900996" lon="3.3793788642211484"><ele>18.0</ele><time>2026-04-11T13:48:06Z</time></trkpt><trkpt lat="50.43995073687162" lon="3.379452142143241"><ele>18.0</ele><time>2026-04-11T13:48:10Z</time></trkpt><trkpt lat="50.43996978332648" lon="3.3795775632302996"><ele>18.0</ele><time>2026-04-11T13:48:12Z</time></trkpt><trkpt lat="50.43999226878936" lon="3.3797118216239457"><ele>18.0</ele><time>2026-04-11T13:48:14Z</time></trkpt><trkpt lat="50.44001349687084" lon="3.379859228737664"><ele>18.0</ele><time>2026-04-11T13:48:16Z</time></trkpt><trkpt lat="50.440036268800334" lon="3.3800060891389845"><ele>18.0</ele><time>2026-04-11T13:48:18Z</time></trkpt><trkpt lat="50.44005673306063" lon="3.3801814823764964"><ele>18.0</ele><time>2026-04-11T13:48:20Z</time></trkpt><trkpt lat="50.44008145828001" lon="3.380342895768445"><ele>18.0</ele><time>2026-04-11T13:48:22Z</time></trkpt><trkpt lat="50.44010440932749" lon="3.380513058606681"><ele>18.0</ele><time>2026-04-11T13:48:24Z</time></trkpt><trkpt lat="50.44012923338685" lon="3.380679926152429"><ele>18.2</ele><time>2026-04-11T13:48:26Z</time></trkpt><trkpt lat="50.44015377594853" lon="3.3808422025943092"><ele>18.4</ele><time>2026-04-11T13:48:28Z</time></trkpt><trkpt lat="50.44017492211267" lon="3.381007467353824"><ele>18.599999999999998</ele><time>2026-04-11T13:48:30Z</time></trkpt><trkpt lat="50.4402011264172" lon="3.381165036749801"><ele>18.8</ele><time>2026-04-11T13:48:32Z</time></trkpt><trkpt lat="50.44022399608699" lon="3.381326670915211"><ele>19.0</ele><time>2026-04-11T13:48:34Z</time></trkpt><trkpt lat="50.44024519431457" lon="3.3814921167873044"><ele>19.0</ele><time>2026-04-11T13:48:36Z</time></trkpt><trkpt lat="50.44026768520542" lon="3.3816433499580616"><ele>19.0</ele><time>2026-04-11T13:48:38Z</time></trkpt><trkpt lat="50.44029301536234" lon="3.3818038691792354"><ele>19.0</ele><time>2026-04-11T13:48:40Z</time></trkpt><trkpt lat="50.44031390520834" lon="3.3819480424272386"><ele>19.0</ele><time>2026-04-11T13:48:42Z</time></trkpt><trkpt lat="50.44033936192909" lon="3.3820956130863413"><ele>19.0</ele><time>2026-04-11T13:48:44Z</time></trkpt><trkpt lat="50.44033977902143" lon="3.382243135454485"><ele>19.0</ele><time>2026-04-11T13:48:46Z</time></trkpt><trkpt lat="50.44024143731158" lon="3.3823176487758753"><ele>19.0</ele><time>2026-04-11T13:48:48Z</time></trkpt><trkpt lat="50.44013412967816" lon="3.3823608173312296"><ele>19.0</ele><time>2026-04-11T13:48:50Z</time></trkpt><trkpt lat="50.440030664091694" lon="3.3824142858880077"><ele>19.0</ele><time>2026-04-11T13:48:52Z</time></trkpt><trkpt lat="50.439917628077346" lon="3.3824396663523886"><ele>19.0</ele><time>2026-04-11T13:48:54Z</time></trkpt><trkpt lat="50.439805576739424" lon="3.382474210674198"><ele>19.0</ele><time>2026-04-11T13:48:56Z</time></trkpt><trkpt lat="50.43969715417358" lon="3.382513621974284"><ele>19.0</ele><time>2026-04-11T13:48:58Z</time></trkpt><trkpt lat="50.439582223032424" lon="3.382549553761251"><ele>19.0</ele><time>2026-04-11T13:49:00Z</time></trkpt><trkpt lat="50.43947337815383" lon="3.3825950546471226"><ele>19.0</ele><time>2026-04-11T13:49:02Z</time></trkpt><trkpt lat="50.43941231554498" lon="3.3826193945168574"><ele>19.0</ele><time>2026-04-11T13:49:03Z</time></trkpt><trkpt lat="50.43929543710765" lon="3.38266132998887"><ele>19.0</ele><time>2026-04-11T13:49:05Z</time></trkpt><trkpt lat="50.439180593878326" lon="3.3826992203040227"><ele>19.0</ele><time>2026-04-11T13:49:07Z</time></trkpt><trkpt lat="50.43906605879697" lon="3.3827409736333247"><ele>19.0</ele><time>2026-04-11T13:49:09Z</time></trkpt><trkpt lat="50.43894500576227" lon="3.3827761823635707"><ele>19.0</ele><time>2026-04-11T13:49:11Z</time></trkpt><trkpt lat="50.43883116478981" lon="3.382813340023941"><ele>19.0</ele><time>2026-04-11T13:49:13Z</time></trkpt><trkpt lat="50.43872274003971" lon="3.3828488536256565"><ele>19.0</ele><time>2026-04-11T13:49:15Z</time></trkpt><trkpt lat="50.43861676501791" lon="3.3828816805089956"><ele>19.0</ele><time>2026-04-11T13:49:17Z</time></trkpt><trkpt lat="50.43850478131355" lon="3.3829045491062537"><ele>19.0</ele><time>2026-04-11T13:49:19Z</time></trkpt><trkpt lat="50.43838812659123" lon="3.382934936841793"><ele>19.0</ele><time>2026-04-11T13:49:21Z</time></trkpt><trkpt lat="50.43827363450927" lon="3.382975413648036"><ele>19.0</ele><time>2026-04-11T13:49:23Z</time></trkpt><trkpt lat="50.43815989599599" lon="3.383004895503267"><ele>19.0</ele><time>2026-04-11T13:49:25Z</time></trkpt><trkpt lat="50.43804641871013" lon="3.3830435550121325"><ele>19.0</ele><time>2026-04-11T13:49:27Z</time></trkpt><trkpt lat="50.43793504957659" lon="3.3830789779700896"><ele>19.2</ele><time>2026-04-11T13:49:29Z</time></trkpt><trkpt lat="50.43782684134474" lon="3.3831093886711603"><ele>19.4</ele><time>2026-04-11T13:49:31Z</time></trkpt><trkpt lat="50.437722696107976" lon="3.383142313848998"><ele>19.6</ele><time>2026-04-11T13:49:33Z</time></trkpt><trkpt lat="50.43761699733052" lon="3.383174875185838"><ele>19.8</ele><time>2026-04-11T13:49:35Z</time></trkpt><trkpt lat="50.4375085521284" lon="3.383213114835516"><ele>20.0</ele><time>2026-04-11T13:49:37Z</time></trkpt><trkpt lat="50.43740416011813" lon="3.3832415649187753"><ele>20.0</ele><time>2026-04-11T13:49:39Z</time></trkpt><trkpt lat="50.43730756571643" lon="3.3832778696286243"><ele>20.0</ele><time>2026-04-11T13:49:41Z</time></trkpt><trkpt lat="50.437205876297725" lon="3.3833136212992527"><ele>20.0</ele><time>2026-04-11T13:49:43Z</time></trkpt><trkpt lat="50.43710421103466" lon="3.383366772591879"><ele>20.0</ele><time>2026-04-11T13:49:45Z</time></trkpt><trkpt lat="50.43700119748215" lon="3.3833976648332413"><ele>20.0</ele><time>2026-04-11T13:49:47Z</time></trkpt><trkpt lat="50.436895589023145" lon="3.3834240894953647"><ele>20.0</ele><time>2026-04-11T13:49:49Z</time></trkpt><trkpt lat="50.43679026648238" lon="3.383462610720011"><ele>20.0</ele><time>2026-04-11T13:49:51Z</time></trkpt><trkpt lat="50.4366882390174" lon="3.383495799269628"><ele>20.0</ele><time>2026-04-11T13:49:53Z</time></trkpt><trkpt lat="50.436572208514576" lon="3.3835359514035526"><ele>20.0</ele><time>2026-04-11T13:49:55Z</time></trkpt><trkpt lat="50.43647075628561" lon="3.383576623788059"><ele>20.0</ele><time>2026-04-11T13:49:57Z</time></trkpt><trkpt lat="50.43636602189035" lon="3.3836108260183297"><ele>19.2</ele><time>2026-04-11T13:49:59Z</time></trkpt><trkpt lat="50.43625994121481" lon="3.3836433950907803"><ele>18.4</ele><time>2026-04-11T13:50:01Z</time></trkpt><trkpt lat="50.43615801188685" lon="3.3836788311324986"><ele>17.6</ele><time>2026-04-11T13:50:03Z</time></trkpt><trkpt lat="50.43605144173135" lon="3.3837107134543722"><ele>16.8</ele><time>2026-04-11T13:50:05Z</time></trkpt><trkpt lat="50.435949487163626" lon="3.383740857406453"><ele>16.0</ele><time>2026-04-11T13:50:07Z</time></trkpt><trkpt lat="50.435840592972056" lon="3.383777890905968"><ele>16.0</ele><time>2026-04-11T13:50:09Z</time></trkpt><trkpt lat="50.43573548116739" lon="3.383811308199116"><ele>16.0</ele><time>2026-04-11T13:50:11Z</time></trkpt><trkpt lat="50.43562725732386" lon="3.3838474739852282"><ele>16.0</ele><time>2026-04-11T13:50:13Z</time></trkpt><trkpt lat="50.43551899334919" lon="3.383868008726147"><ele>16.0</ele><time>2026-04-11T13:50:15Z</time></trkpt><trkpt lat="50.43540840492198" lon="3.3838885453922156"><ele>16.0</ele><time>2026-04-11T13:50:17Z</time></trkpt><trkpt lat="50.43530075012182" lon="3.3839270700364774"><ele>16.2</ele><time>2026-04-11T13:50:19Z</time></trkpt><trkpt lat="50.4351941186494" lon="3.3839625500599677"><ele>16.400000000000002</ele><time>2026-04-11T13:50:21Z</time></trkpt><trkpt lat="50.435086224317736" lon="3.3839995544669326"><ele>16.6</ele><time>2026-04-11T13:50:23Z</time></trkpt><trkpt lat="50.434979207931754" lon="3.3840376720557557"><ele>16.8</ele><time>2026-04-11T13:50:25Z</time></trkpt><trkpt lat="50.43486730314216" lon="3.384080934753693"><ele>17.0</ele><time>2026-04-11T13:50:27Z</time></trkpt><trkpt lat="50.43474974468591" lon="3.384121058881595"><ele>17.25</ele><time>2026-04-11T13:50:29Z</time></trkpt><trkpt lat="50.434633752009205" lon="3.384167622229391"><ele>17.5</ele><time>2026-04-11T13:50:31Z</time></trkpt><trkpt lat="50.43452578508746" lon="3.3842136022548925"><ele>17.75</ele><time>2026-04-11T13:50:33Z</time></trkpt><trkpt lat="50.43440839964541" lon="3.3842487484628276"><ele>18.0</ele><time>2026-04-11T13:50:35Z</time></trkpt><trkpt lat="50.43429465167988" lon="3.384266081116414"><ele>18.0</ele><time>2026-04-11T13:50:37Z</time></trkpt><trkpt lat="50.43417557488426" lon="3.3843006875422477"><ele>18.0</ele><time>2026-04-11T13:50:39Z</time></trkpt><trkpt lat="50.43405917085825" lon="3.384336140865894"><ele>18.0</ele><time>2026-04-11T13:50:41Z</time></trkpt><trkpt lat="50.43394184528325" lon="3.384377297136211"><ele>18.0</ele><time>2026-04-11T13:50:43Z</time></trkpt><trkpt lat="50.43382824263191" lon="3.384424013063307"><ele>17.75</ele><time>2026-04-11T13:50:45Z</time></trkpt><trkpt lat="50.43370658205384" lon="3.3844649666591753"><ele>17.5</ele><time>2026-04-11T13:50:47Z</time></trkpt><trkpt lat="50.43358981400098" lon="3.384496664166897"><ele>17.25</ele><time>2026-04-11T13:50:49Z</time></trkpt><trkpt lat="50.43347786438802" lon="3.384530544134023"><ele>17.0</ele><time>2026-04-11T13:50:51Z</time></trkpt><trkpt lat="50.43336307316296" lon="3.384571672967087"><ele>17.0</ele><time>2026-04-11T13:50:53Z</time></trkpt><trkpt lat="50.433250648721646" lon="3.384607509230293"><ele>17.0</ele><time>2026-04-11T13:50:55Z</time></trkpt><trkpt lat="50.43313755232051" lon="3.3846461348676953"><ele>17.0</ele><time>2026-04-11T13:50:57Z</time></trkpt><trkpt lat="50.43302634064577" lon="3.3846854355004634"><ele>17.0</ele><time>2026-04-11T13:50:59Z</time></trkpt><trkpt lat="50.432913656915176" lon="3.38471493608663"><ele>17.5</ele><time>2026-04-11T13:51:01Z</time></trkpt><trkpt lat="50.432805464024554" lon="3.3847519943379694"><ele>18.0</ele><time>2026-04-11T13:51:03Z</time></trkpt><trkpt lat="50.432693494403104" lon="3.384797202219864"><ele>18.5</ele><time>2026-04-11T13:51:05Z</time></trkpt><trkpt lat="50.43257947659604" lon="3.384836223201093"><ele>19.0</ele><time>2026-04-11T13:51:07Z</time></trkpt><trkpt lat="50.43247156011546" lon="3.384868726337091"><ele>19.0</ele><time>2026-04-11T13:51:09Z</time></trkpt><trkpt lat="50.43236448360505" lon="3.3849008605040822"><ele>19.0</ele><time>2026-04-11T13:51:11Z</time></trkpt><trkpt lat="50.43225581023576" lon="3.38493339863765"><ele>19.0</ele><time>2026-04-11T13:51:13Z</time></trkpt><trkpt lat="50.432146741930374" lon="3.384965948037842"><ele>19.0</ele><time>2026-04-11T13:51:15Z</time></trkpt><trkpt lat="50.43203864446447" lon="3.3849842523985276"><ele>19.0</ele><time>2026-04-11T13:51:17Z</time></trkpt><trkpt lat="50.43193484283713" lon="3.3850017956559064"><ele>18.4</ele><time>2026-04-11T13:51:19Z</time></trkpt><trkpt lat="50.43181858369795" lon="3.385038279826014"><ele>17.799999999999997</ele><time>2026-04-11T13:51:21Z</time></trkpt><trkpt lat="50.43175769213458" lon="3.385064213646941"><ele>17.200000000000003</ele><time>2026-04-11T13:51:22Z</time></trkpt><trkpt lat="50.43164371954469" lon="3.385119613736703"><ele>16.6</ele><time>2026-04-11T13:51:24Z</time></trkpt><trkpt lat="50.431527989527765" lon="3.3851678477894587"><ele>16.0</ele><time>2026-04-11T13:51:26Z</time></trkpt><trkpt lat="50.431418475921014" lon="3.385224388443736"><ele>16.0</ele><time>2026-04-11T13:51:28Z</time></trkpt><trkpt lat="50.43130682471315" lon="3.3852898572018"><ele>16.0</ele><time>2026-04-11T13:51:30Z</time></trkpt><trkpt lat="50.43119512654016" lon="3.3852998057762353"><ele>16.0</ele><time>2026-04-11T13:51:32Z</time></trkpt><trkpt lat="50.43114824513446" lon="3.385382509877492"><ele>16.0</ele><time>2026-04-11T13:51:33Z</time></trkpt><trkpt lat="50.43106702712251" lon="3.3854716069341064"><ele>16.0</ele><time>2026-04-11T13:51:35Z</time></trkpt><trkpt lat="50.43097464963944" lon="3.3855576684946005"><ele>15.833333333333332</ele><time>2026-04-11T13:51:37Z</time></trkpt><trkpt lat="50.4309019640924" lon="3.3856459115124546"><ele>15.666666666666666</ele><time>2026-04-11T13:51:39Z</time></trkpt><trkpt lat="50.43082893585786" lon="3.385724072708042"><ele>15.5</ele><time>2026-04-11T13:51:41Z</time></trkpt><trkpt lat="50.430759061965" lon="3.3858017238604776"><ele>15.333333333333332</ele><time>2026-04-11T13:51:43.001Z</time></trkpt><trkpt lat="50.43068807868023" lon="3.385866089128352"><ele>15.166666666666666</ele><time>2026-04-11T13:51:45.001Z</time></trkpt><trkpt lat="50.43062397262867" lon="3.385926914251181"><ele>15.0</ele><time>2026-04-11T13:51:47.001Z</time></trkpt><trkpt lat="50.4305557461359" lon="3.3859999581424054"><ele>15.0</ele><time>2026-04-11T13:51:49.001Z</time></trkpt><trkpt lat="50.430490018164086" lon="3.3860657512463637"><ele>15.0</ele><time>2026-04-11T13:51:51.001Z</time></trkpt><trkpt lat="50.430426676475484" lon="3.38613078487198"><ele>15.0</ele><time>2026-04-11T13:51:53Z</time></trkpt><trkpt lat="50.430362140928075" lon="3.38618736287389"><ele>15.0</ele><time>2026-04-11T13:51:55Z</time></trkpt><trkpt lat="50.430302280907526" lon="3.386247692510314"><ele>15.0</ele><time>2026-04-11T13:51:57Z</time></trkpt><trkpt lat="50.430242279931264" lon="3.3862965555613433"><ele>15.0</ele><time>2026-04-11T13:51:59Z</time></trkpt><trkpt lat="50.43018173708674" lon="3.386346455874056"><ele>15.0</ele><time>2026-04-11T13:52:01Z</time></trkpt><trkpt lat="50.43009361752366" lon="3.3864109029032208"><ele>15.142857142857142</ele><time>2026-04-11T13:52:04Z</time></trkpt><trkpt lat="50.43003069623213" lon="3.386451550750497"><ele>15.285714285714285</ele><time>2026-04-11T13:52:06Z</time></trkpt><trkpt lat="50.4299625033306" lon="3.386484367189348"><ele>15.428571428571427</ele><time>2026-04-11T13:52:08Z</time></trkpt><trkpt lat="50.429872325312644" lon="3.3865347443090528"><ele>15.571428571428571</ele><time>2026-04-11T13:52:11Z</time></trkpt><trkpt lat="50.429807558417984" lon="3.386569401142809"><ele>15.714285714285712</ele><time>2026-04-11T13:52:13Z</time></trkpt><trkpt lat="50.429738447706534" lon="3.386607386919324"><ele>15.857142857142856</ele><time>2026-04-11T13:52:15Z</time></trkpt><trkpt lat="50.42967416043595" lon="3.3866419231917195"><ele>16.0</ele><time>2026-04-11T13:52:17Z</time></trkpt><trkpt lat="50.42960276185143" lon="3.386679260084191"><ele>15.999999999999998</ele><time>2026-04-11T13:52:19Z</time></trkpt><trkpt lat="50.429522428623045" lon="3.3867224163882486"><ele>16.0</ele><time>2026-04-11T13:52:21Z</time></trkpt><trkpt lat="50.42944074823267" lon="3.386764122979031"><ele>16.0</ele><time>2026-04-11T13:52:23Z</time></trkpt><trkpt lat="50.42935391974864" lon="3.3868082227207617"><ele>16.0</ele><time>2026-04-11T13:52:25Z</time></trkpt><trkpt lat="50.42927295461467" lon="3.386848841288681"><ele>15.999999999999998</ele><time>2026-04-11T13:52:27Z</time></trkpt><trkpt lat="50.429190058665235" lon="3.386899187090656"><ele>16.0</ele><time>2026-04-11T13:52:29Z</time></trkpt><trkpt lat="50.42909860438981" lon="3.386939097849629"><ele>16.0</ele><time>2026-04-11T13:52:31Z</time></trkpt><trkpt lat="50.42900008067629" lon="3.3869891262940857"><ele>16.0</ele><time>2026-04-11T13:52:33Z</time></trkpt><trkpt lat="50.428904057297245" lon="3.3870493543029423"><ele>16.0</ele><time>2026-04-11T13:52:35Z</time></trkpt><trkpt lat="50.428796282411824" lon="3.3871249489364175"><ele>16.0</ele><time>2026-04-11T13:52:37Z</time></trkpt><trkpt lat="50.428685062814694" lon="3.3871959291867055"><ele>16.0</ele><time>2026-04-11T13:52:39Z</time></trkpt><trkpt lat="50.42858643910308" lon="3.387255411161082"><ele>15.999999999999998</ele><time>2026-04-11T13:52:41Z</time></trkpt><trkpt lat="50.428495740319185" lon="3.387332838779469"><ele>16.0</ele><time>2026-04-11T13:52:43Z</time></trkpt><trkpt lat="50.42842133151092" lon="3.3873793749582757"><ele>16.0</ele><time>2026-04-11T13:52:45Z</time></trkpt><trkpt lat="50.42836571471456" lon="3.38744281676305"><ele>16.0</ele><time>2026-04-11T13:52:48Z</time></trkpt><trkpt lat="50.42830347195675" lon="3.3874904078893375"><ele>15.999999999999998</ele><time>2026-04-11T13:52:52Z</time></trkpt><trkpt lat="50.42833191349367" lon="3.3876199880032396"><ele>16.0</ele><time>2026-04-11T13:52:54Z</time></trkpt><trkpt lat="50.428277191746204" lon="3.3876820661449436"><ele>15.999999999999998</ele><time>2026-04-11T13:52:56Z</time></trkpt><trkpt lat="50.42821331699507" lon="3.3876480366447344"><ele>16.0</ele><time>2026-04-11T13:52:57Z</time></trkpt><trkpt lat="50.4281371501131" lon="3.387713296210865"><ele>16.0</ele><time>2026-04-11T13:52:59Z</time></trkpt><trkpt lat="50.428056304397956" lon="3.3877818667606223"><ele>16.0</ele><time>2026-04-11T13:53:01Z</time></trkpt><trkpt lat="50.42797303250492" lon="3.387849406021799"><ele>15.999999999999998</ele><time>2026-04-11T13:53:03Z</time></trkpt><trkpt lat="50.4278784371172" lon="3.387922232900611"><ele>16.0</ele><time>2026-04-11T13:53:05Z</time></trkpt><trkpt lat="50.42782045011094" lon="3.387963026774255"><ele>16.0</ele><time>2026-04-11T13:53:06Z</time></trkpt><trkpt lat="50.42770800183943" lon="3.3880273707615567"><ele>16.0</ele><time>2026-04-11T13:53:08Z</time></trkpt><trkpt lat="50.42759476162761" lon="3.38807928132499"><ele>16.0</ele><time>2026-04-11T13:53:10Z</time></trkpt><trkpt lat="50.427480432314724" lon="3.3881288998869743"><ele>16.0</ele><time>2026-04-11T13:53:12Z</time></trkpt><trkpt lat="50.427364956444144" lon="3.3881763712553354"><ele>16.0</ele><time>2026-04-11T13:53:14Z</time></trkpt><trkpt lat="50.42724917261166" lon="3.38822291617085"><ele>16.0</ele><time>2026-04-11T13:53:16Z</time></trkpt><trkpt lat="50.427131710122076" lon="3.3882699362889905"><ele>16.0</ele><time>2026-04-11T13:53:18Z</time></trkpt><trkpt lat="50.427019251015636" lon="3.388313980887341"><ele>16.0</ele><time>2026-04-11T13:53:20Z</time></trkpt><trkpt lat="50.426899513414256" lon="3.388360121509568"><ele>16.0</ele><time>2026-04-11T13:53:22Z</time></trkpt><trkpt lat="50.42678384133217" lon="3.38840359390331"><ele>16.0</ele><time>2026-04-11T13:53:24Z</time></trkpt><trkpt lat="50.42672259186749" lon="3.388426735260883"><ele>16.0</ele><time>2026-04-11T13:53:25Z</time></trkpt><trkpt lat="50.42660646375588" lon="3.388470611366329"><ele>16.0</ele><time>2026-04-11T13:53:27Z</time></trkpt><trkpt lat="50.42648806009005" lon="3.3885153464447235"><ele>16.0</ele><time>2026-04-11T13:53:29Z</time></trkpt><trkpt lat="50.42642636571512" lon="3.388538850503096"><ele>15.999999999999998</ele><time>2026-04-11T13:53:30Z</time></trkpt><trkpt lat="50.426359296606925" lon="3.388564343486723"><ele>16.0</ele><time>2026-04-11T13:53:31Z</time></trkpt><trkpt lat="50.42624706900263" lon="3.3886070013326313"><ele>16.0</ele><time>2026-04-11T13:53:33Z</time></trkpt><trkpt lat="50.42618302308283" lon="3.3886314602771113"><ele>16.0</ele><time>2026-04-11T13:53:34Z</time></trkpt><trkpt lat="50.426118447395666" lon="3.3886562382105763"><ele>15.999999999999998</ele><time>2026-04-11T13:53:35Z</time></trkpt><trkpt lat="50.42599401860094" lon="3.3887039816004694"><ele>16.0</ele><time>2026-04-11T13:53:37Z</time></trkpt><trkpt lat="50.42592836548854" lon="3.3887320748136323"><ele>16.142857142857142</ele><time>2026-04-11T13:53:38Z</time></trkpt><trkpt lat="50.42586209447431" lon="3.388760062122618"><ele>16.285714285714285</ele><time>2026-04-11T13:53:39Z</time></trkpt><trkpt lat="50.425792676130456" lon="3.3887925500717873"><ele>16.428571428571427</ele><time>2026-04-11T13:53:40Z</time></trkpt><trkpt lat="50.425725369877256" lon="3.388824049598808"><ele>16.57142857142857</ele><time>2026-04-11T13:53:41Z</time></trkpt><trkpt lat="50.425655598951266" lon="3.388859781669869"><ele>16.714285714285715</ele><time>2026-04-11T13:53:42Z</time></trkpt><trkpt lat="50.42558454335863" lon="3.3888963201061353"><ele>16.857142857142854</ele><time>2026-04-11T13:53:43Z</time></trkpt><trkpt lat="50.42550932738938" lon="3.3889396859308816"><ele>17.0</ele><time>2026-04-11T13:53:44Z</time></trkpt><trkpt lat="50.425432078769404" lon="3.388985570415177"><ele>17.333333333333336</ele><time>2026-04-11T13:53:45Z</time></trkpt><trkpt lat="50.42535952265902" lon="3.3890337321379413"><ele>17.666666666666668</ele><time>2026-04-11T13:53:46Z</time></trkpt><trkpt lat="50.42528900666687" lon="3.389082077915771"><ele>18.0</ele><time>2026-04-11T13:53:47Z</time></trkpt><trkpt lat="50.42521668492401" lon="3.389135678315129"><ele>18.333333333333332</ele><time>2026-04-11T13:53:48Z</time></trkpt><trkpt lat="50.42514480943774" lon="3.3891926392739133"><ele>18.666666666666664</ele><time>2026-04-11T13:53:49Z</time></trkpt><trkpt lat="50.4250777738167" lon="3.3892481942213313"><ele>19.0</ele><time>2026-04-11T13:53:50Z</time></trkpt><trkpt lat="50.42500805571456" lon="3.3893110965891378"><ele>19.0</ele><time>2026-04-11T13:53:51Z</time></trkpt><trkpt lat="50.42493988150664" lon="3.389373562184001"><ele>19.0</ele><time>2026-04-11T13:53:52Z</time></trkpt><trkpt lat="50.42487299224259" lon="3.3894400905296838"><ele>19.0</ele><time>2026-04-11T13:53:53Z</time></trkpt><trkpt lat="50.42481165997576" lon="3.3895008751254174"><ele>19.0</ele><time>2026-04-11T13:53:54Z</time></trkpt><trkpt lat="50.42475104109398" lon="3.389567064748636"><ele>19.0</ele><time>2026-04-11T13:53:55Z</time></trkpt><trkpt lat="50.42469085005685" lon="3.3896479564920865"><ele>19.0</ele><time>2026-04-11T13:53:56Z</time></trkpt><trkpt lat="50.42463609747296" lon="3.3897190088698332"><ele>18.57142857142857</ele><time>2026-04-11T13:53:57Z</time></trkpt><trkpt lat="50.42458252612412" lon="3.3897885286382072"><ele>18.142857142857146</ele><time>2026-04-11T13:53:58Z</time></trkpt><trkpt lat="50.424531802074334" lon="3.38985435291647"><ele>17.714285714285715</ele><time>2026-04-11T13:53:59Z</time></trkpt><trkpt lat="50.424478863829144" lon="3.389923050867767"><ele>17.285714285714285</ele><time>2026-04-11T13:54:00Z</time></trkpt><trkpt lat="50.42442613574947" lon="3.3899936472971857"><ele>16.857142857142854</ele><time>2026-04-11T13:54:01Z</time></trkpt><trkpt lat="50.42437715300987" lon="3.3900597017943213"><ele>16.428571428571427</ele><time>2026-04-11T13:54:02Z</time></trkpt><trkpt lat="50.424325525557315" lon="3.390132584217039"><ele>16.0</ele><time>2026-04-11T13:54:03Z</time></trkpt><trkpt lat="50.424277132068084" lon="3.3902020183903345"><ele>16.0</ele><time>2026-04-11T13:54:04Z</time></trkpt><trkpt lat="50.42422842604505" lon="3.3902749790454214"><ele>15.999999999999998</ele><time>2026-04-11T13:54:05Z</time></trkpt><trkpt lat="50.424179473376746" lon="3.3903539509727842"><ele>16.0</ele><time>2026-04-11T13:54:06Z</time></trkpt><trkpt lat="50.42413186790474" lon="3.3904352845939347"><ele>16.0</ele><time>2026-04-11T13:54:07Z</time></trkpt><trkpt lat="50.42408835064566" lon="3.3905126745978476"><ele>15.999999999999998</ele><time>2026-04-11T13:54:08Z</time></trkpt><trkpt lat="50.424043330527695" lon="3.3905927406032728"><ele>16.0</ele><time>2026-04-11T13:54:09Z</time></trkpt><trkpt lat="50.42400026257128" lon="3.3906885101545776"><ele>16.0</ele><time>2026-04-11T13:54:10Z</time></trkpt><trkpt lat="50.423922007423" lon="3.3908497283366548"><ele>16.0</ele><time>2026-04-11T13:54:12Z</time></trkpt><trkpt lat="50.42388135425204" lon="3.3909374167720507"><ele>15.999999999999998</ele><time>2026-04-11T13:54:13Z</time></trkpt><trkpt lat="50.42384103077008" lon="3.3910242989596187"><ele>16.0</ele><time>2026-04-11T13:54:14Z</time></trkpt><trkpt lat="50.423800294366806" lon="3.3911122631056982"><ele>16.0</ele><time>2026-04-11T13:54:15Z</time></trkpt><trkpt lat="50.4237609546633" lon="3.39119981277819"><ele>15.999999999999998</ele><time>2026-04-11T13:54:16Z</time></trkpt><trkpt lat="50.423724241126884" lon="3.3912838309910036"><ele>16.0</ele><time>2026-04-11T13:54:17Z</time></trkpt><trkpt lat="50.42368458428643" lon="3.3913745847895846"><ele>16.0</ele><time>2026-04-11T13:54:18Z</time></trkpt><trkpt lat="50.4236454100422" lon="3.3914661414570895"><ele>16.0</ele><time>2026-04-11T13:54:19Z</time></trkpt><trkpt lat="50.42360854493091" lon="3.3915537343549857"><ele>15.999999999999998</ele><time>2026-04-11T13:54:20Z</time></trkpt><trkpt lat="50.42357076102383" lon="3.391643510548583"><ele>16.0</ele><time>2026-04-11T13:54:21Z</time></trkpt><trkpt lat="50.4235328444275" lon="3.3917336018989324"><ele>16.0</ele><time>2026-04-11T13:54:22Z</time></trkpt><trkpt lat="50.42349573418893" lon="3.391821777330102"><ele>15.999999999999998</ele><time>2026-04-11T13:54:23Z</time></trkpt><trkpt lat="50.423458479041905" lon="3.3919102970775716"><ele>16.0</ele><time>2026-04-11T13:54:24Z</time></trkpt><trkpt lat="50.42342236497518" lon="3.391997956289811"><ele>16.0</ele><time>2026-04-11T13:54:25Z</time></trkpt><trkpt lat="50.42338647803884" lon="3.3920855563063372"><ele>16.142857142857142</ele><time>2026-04-11T13:54:26Z</time></trkpt><trkpt lat="50.423347733970196" lon="3.392180285936004"><ele>16.285714285714285</ele><time>2026-04-11T13:54:27Z</time></trkpt><trkpt lat="50.42331278294427" lon="3.3922673966911407"><ele>16.428571428571427</ele><time>2026-04-11T13:54:28Z</time></trkpt><trkpt lat="50.423277903043484" lon="3.3923543302592334"><ele>16.57142857142857</ele><time>2026-04-11T13:54:29Z</time></trkpt><trkpt lat="50.42324434446692" lon="3.3924387650801084"><ele>16.714285714285715</ele><time>2026-04-11T13:54:30Z</time></trkpt><trkpt lat="50.423209364332514" lon="3.392526951330754"><ele>16.857142857142854</ele><time>2026-04-11T13:54:31Z</time></trkpt><trkpt lat="50.42317254499292" lon="3.392619772928847"><ele>17.0</ele><time>2026-04-11T13:54:32Z</time></trkpt><trkpt lat="50.42313523672453" lon="3.3927117208294955"><ele>16.999999999999996</ele><time>2026-04-11T13:54:33Z</time></trkpt><trkpt lat="50.42309804389117" lon="3.3928033599533705"><ele>17.0</ele><time>2026-04-11T13:54:34Z</time></trkpt><trkpt lat="50.42306246723315" lon="3.3928910167543465"><ele>17.0</ele><time>2026-04-11T13:54:35Z</time></trkpt><trkpt lat="50.42302431855212" lon="3.3929850109720023"><ele>17.0</ele><time>2026-04-11T13:54:36Z</time></trkpt><trkpt lat="50.42298614987558" lon="3.3930790544054297"><ele>17.0</ele><time>2026-04-11T13:54:37Z</time></trkpt><trkpt lat="50.42295003541219" lon="3.3931680363660544"><ele>16.999999999999996</ele><time>2026-04-11T13:54:38Z</time></trkpt><trkpt lat="50.42291367202503" lon="3.3932576318917755"><ele>17.0</ele><time>2026-04-11T13:54:39Z</time></trkpt><trkpt lat="50.4228766010404" lon="3.393348970671479"><ele>16.999999999999996</ele><time>2026-04-11T13:54:40Z</time></trkpt><trkpt lat="50.422840689320196" lon="3.3934374532414"><ele>17.0</ele><time>2026-04-11T13:54:41Z</time></trkpt><trkpt lat="50.42280195352811" lon="3.3935328937893665"><ele>17.0</ele><time>2026-04-11T13:54:42Z</time></trkpt><trkpt lat="50.422763646750575" lon="3.3936272775492595"><ele>17.0</ele><time>2026-04-11T13:54:43Z</time></trkpt><trkpt lat="50.42272649712354" lon="3.3937188101688442"><ele>17.0</ele><time>2026-04-11T13:54:44Z</time></trkpt><trkpt lat="50.42268942557372" lon="3.393810150388555"><ele>16.999999999999996</ele><time>2026-04-11T13:54:45Z</time></trkpt><trkpt lat="50.422651615198696" lon="3.393903310952583"><ele>17.0</ele><time>2026-04-11T13:54:46Z</time></trkpt><trkpt lat="50.422615316958876" lon="3.393992745889271"><ele>16.71428571428571</ele><time>2026-04-11T13:54:47Z</time></trkpt><trkpt lat="50.422578829142815" lon="3.3940826478055213"><ele>16.428571428571427</ele><time>2026-04-11T13:54:48Z</time></trkpt><trkpt lat="50.42254044356138" lon="3.3941772255982716"><ele>16.142857142857142</ele><time>2026-04-11T13:54:49Z</time></trkpt><trkpt lat="50.42250347530031" lon="3.3942682944546965"><ele>15.857142857142856</ele><time>2026-04-11T13:54:50Z</time></trkpt><trkpt lat="50.42246653510372" lon="3.3943588298635476"><ele>15.57142857142857</ele><time>2026-04-11T13:54:51Z</time></trkpt><trkpt lat="50.42242797448552" lon="3.3944533367156127"><ele>15.285714285714286</ele><time>2026-04-11T13:54:52Z</time></trkpt><trkpt lat="50.42238965273058" lon="3.394547258083078"><ele>15.0</ele><time>2026-04-11T13:54:53Z</time></trkpt><trkpt lat="50.42235420717542" lon="3.3946341303249925"><ele>15.142857142857142</ele><time>2026-04-11T13:54:54Z</time></trkpt><trkpt lat="50.42231713770383" lon="3.394724982573741"><ele>15.285714285714285</ele><time>2026-04-11T13:54:55Z</time></trkpt><trkpt lat="50.42227966768735" lon="3.3948168437968245"><ele>15.428571428571427</ele><time>2026-04-11T13:54:56Z</time></trkpt><trkpt lat="50.42224232052438" lon="3.394908421750406"><ele>15.571428571428571</ele><time>2026-04-11T13:54:57Z</time></trkpt><trkpt lat="50.42220678156838" lon="3.3949955657746362"><ele>15.714285714285712</ele><time>2026-04-11T13:54:58Z</time></trkpt><trkpt lat="50.422169698310654" lon="3.3950864965779886"><ele>15.857142857142856</ele><time>2026-04-11T13:54:59Z</time></trkpt><trkpt lat="50.42213356695032" lon="3.3951750932938167"><ele>16.0</ele><time>2026-04-11T13:55:00Z</time></trkpt><trkpt lat="50.42209763306331" lon="3.3952632058051626"><ele>15.666666666666666</ele><time>2026-04-11T13:55:01Z</time></trkpt><trkpt lat="50.42206200475618" lon="3.3953505689806907"><ele>15.333333333333332</ele><time>2026-04-11T13:55:02Z</time></trkpt><trkpt lat="50.42199299780671" lon="3.395519778952241"><ele>15.0</ele><time>2026-04-11T13:55:04Z</time></trkpt><trkpt lat="50.42192574971401" lon="3.3956846760791257"><ele>14.666666666666668</ele><time>2026-04-11T13:55:06Z</time></trkpt><trkpt lat="50.42189063144842" lon="3.3957707886431345"><ele>14.333333333333334</ele><time>2026-04-11T13:55:07Z</time></trkpt><trkpt lat="50.42185620332351" lon="3.3958552088726415"><ele>14.0</ele><time>2026-04-11T13:55:08Z</time></trkpt><trkpt lat="50.421788077842976" lon="3.3960222573698244"><ele>13.833333333333334</ele><time>2026-04-11T13:55:10Z</time></trkpt><trkpt lat="50.421753879060056" lon="3.396106115298466"><ele>13.666666666666668</ele><time>2026-04-11T13:55:11Z</time></trkpt><trkpt lat="50.42171973014475" lon="3.396189721558182"><ele>13.5</ele><time>2026-04-11T13:55:12Z</time></trkpt><trkpt lat="50.421684992979465" lon="3.396274677753458"><ele>13.333333333333332</ele><time>2026-04-11T13:55:13Z</time></trkpt><trkpt lat="50.42161763140075" lon="3.396439423098441"><ele>13.166666666666666</ele><time>2026-04-11T13:55:15Z</time></trkpt><trkpt lat="50.42158278276721" lon="3.3965246518339334"><ele>13.0</ele><time>2026-04-11T13:55:16Z</time></trkpt><trkpt lat="50.42151454725655" lon="3.3966915345086197"><ele>13.285714285714285</ele><time>2026-04-11T13:55:18Z</time></trkpt><trkpt lat="50.421480405485035" lon="3.396775034617747"><ele>13.571428571428573</ele><time>2026-04-11T13:55:19Z</time></trkpt><trkpt lat="50.421414813071024" lon="3.3969345379116067"><ele>13.857142857142858</ele><time>2026-04-11T13:55:21Z</time></trkpt><trkpt lat="50.421380383450035" lon="3.3970179320369494"><ele>14.142857142857142</ele><time>2026-04-11T13:55:22Z</time></trkpt><trkpt lat="50.42134593179525" lon="3.3971013793911684"><ele>14.428571428571427</ele><time>2026-04-11T13:55:23Z</time></trkpt><trkpt lat="50.421311062655796" lon="3.397185838093922"><ele>14.714285714285715</ele><time>2026-04-11T13:55:24Z</time></trkpt><trkpt lat="50.421275069531" lon="3.397273019181368"><ele>15.0</ele><time>2026-04-11T13:55:25Z</time></trkpt><trkpt lat="50.421238270504" lon="3.3973621522819415"><ele>15.428571428571429</ele><time>2026-04-11T13:55:26Z</time></trkpt><trkpt lat="50.421203488528036" lon="3.397446399754488"><ele>15.857142857142858</ele><time>2026-04-11T13:55:27Z</time></trkpt><trkpt lat="50.421168175252554" lon="3.3975319342117083"><ele>16.285714285714285</ele><time>2026-04-11T13:55:28Z</time></trkpt><trkpt lat="50.42113377172083" lon="3.3976152650514297"><ele>16.714285714285715</ele><time>2026-04-11T13:55:29Z</time></trkpt><trkpt lat="50.42109624539704" lon="3.3977061599331733"><ele>17.142857142857142</ele><time>2026-04-11T13:55:30Z</time></trkpt><trkpt lat="50.42106190556211" lon="3.397789336387904"><ele>17.571428571428573</ele><time>2026-04-11T13:55:31Z</time></trkpt><trkpt lat="50.42102533187859" lon="3.3978779238383128"><ele>18.0</ele><time>2026-04-11T13:55:32Z</time></trkpt><trkpt lat="50.420957080631375" lon="3.3980432433383223"><ele>18.4</ele><time>2026-04-11T13:55:34Z</time></trkpt><trkpt lat="50.42092217442793" lon="3.398126923623676"><ele>18.8</ele><time>2026-04-11T13:55:35Z</time></trkpt><trkpt lat="50.42085833586696" lon="3.3982807140280995"><ele>19.2</ele><time>2026-04-11T13:55:37Z</time></trkpt><trkpt lat="50.42079075913807" lon="3.398443509268519"><ele>19.6</ele><time>2026-04-11T13:55:39Z</time></trkpt><trkpt lat="50.42075430630013" lon="3.39853132582645"><ele>20.0</ele><time>2026-04-11T13:55:40Z</time></trkpt><trkpt lat="50.42068748512603" lon="3.398692301228538"><ele>20.5</ele><time>2026-04-11T13:55:42Z</time></trkpt><trkpt lat="50.420622618973624" lon="3.3988476292881473"><ele>21.0</ele><time>2026-04-11T13:55:44Z</time></trkpt><trkpt lat="50.420559899122814" lon="3.3989977502441437"><ele>21.5</ele><time>2026-04-11T13:55:46Z</time></trkpt><trkpt lat="50.42049664075624" lon="3.3991491600858796"><ele>22.0</ele><time>2026-04-11T13:55:48Z</time></trkpt><trkpt lat="50.42043290178123" lon="3.3993017201959983"><ele>21.6</ele><time>2026-04-11T13:55:50Z</time></trkpt><trkpt lat="50.420365487830786" lon="3.3994630765241816"><ele>21.200000000000003</ele><time>2026-04-11T13:55:52Z</time></trkpt><trkpt lat="50.420300494670265" lon="3.399618638591474"><ele>20.8</ele><time>2026-04-11T13:55:54Z</time></trkpt><trkpt lat="50.420234910449075" lon="3.3997756152193963"><ele>20.4</ele><time>2026-04-11T13:55:56Z</time></trkpt><trkpt lat="50.42020022451792" lon="3.3998586366227053"><ele>20.0</ele><time>2026-04-11T13:55:57Z</time></trkpt><trkpt lat="50.42013366963311" lon="3.4000186213012995"><ele>20.0</ele><time>2026-04-11T13:55:59Z</time></trkpt><trkpt lat="50.420066363569575" lon="3.400181815703118"><ele>20.0</ele><time>2026-04-11T13:56:01Z</time></trkpt><trkpt lat="50.42003214385281" lon="3.40026478688888"><ele>20.0</ele><time>2026-04-11T13:56:02Z</time></trkpt><trkpt lat="50.41996536730955" lon="3.4004266972633177"><ele>20.0</ele><time>2026-04-11T13:56:04Z</time></trkpt><trkpt lat="50.41989927925088" lon="3.400586938467166"><ele>20.0</ele><time>2026-04-11T13:56:06Z</time></trkpt><trkpt lat="50.419875672993705" lon="3.4006850039393135"><ele>19.666666666666668</ele><time>2026-04-11T13:56:07Z</time></trkpt><trkpt lat="50.41979855437482" lon="3.400831162046421"><ele>19.333333333333336</ele><time>2026-04-11T13:56:09Z</time></trkpt><trkpt lat="50.41976189565935" lon="3.4009200470103518"><ele>19.0</ele><time>2026-04-11T13:56:10Z</time></trkpt><trkpt lat="50.419699671624016" lon="3.4010790667914783"><ele>18.666666666666668</ele><time>2026-04-11T13:56:12Z</time></trkpt><trkpt lat="50.41966264297721" lon="3.4011643175461383"><ele>18.333333333333332</ele><time>2026-04-11T13:56:13Z</time></trkpt><trkpt lat="50.419640608598144" lon="3.401258741738169"><ele>18.0</ele><time>2026-04-11T13:56:14Z</time></trkpt><trkpt lat="50.41956646814041" lon="3.401412538022895"><ele>17.4</ele><time>2026-04-11T13:56:16Z</time></trkpt><trkpt lat="50.419509156781196" lon="3.401582943190308"><ele>16.8</ele><time>2026-04-11T13:56:18Z</time></trkpt><trkpt lat="50.4194709472358" lon="3.401668430008602"><ele>16.2</ele><time>2026-04-11T13:56:19Z</time></trkpt><trkpt lat="50.41939957078016" lon="3.4018319095078895"><ele>15.6</ele><time>2026-04-11T13:56:21Z</time></trkpt><trkpt lat="50.419340477502146" lon="3.402002086562676"><ele>15.0</ele><time>2026-04-11T13:56:23Z</time></trkpt><trkpt lat="50.419270976600316" lon="3.4021686328055005"><ele>15.0</ele><time>2026-04-11T13:56:25Z</time></trkpt><trkpt lat="50.41921683192405" lon="3.402331466301024"><ele>15.0</ele><time>2026-04-11T13:56:27Z</time></trkpt><trkpt lat="50.41915926276031" lon="3.402495423228354"><ele>15.0</ele><time>2026-04-11T13:56:29Z</time></trkpt><trkpt lat="50.41910119371988" lon="3.402660216580239"><ele>15.0</ele><time>2026-04-11T13:56:31Z</time></trkpt><trkpt lat="50.41906306144337" lon="3.402743563104736"><ele>15.0</ele><time>2026-04-11T13:56:32Z</time></trkpt><trkpt lat="50.41901175108855" lon="3.402897284228353"><ele>15.5</ele><time>2026-04-11T13:56:34Z</time></trkpt><trkpt lat="50.41895383290866" lon="3.4030521266548646"><ele>16.0</ele><time>2026-04-11T13:56:36Z</time></trkpt><trkpt lat="50.418895462531864" lon="3.403219487877764"><ele>16.5</ele><time>2026-04-11T13:56:38Z</time></trkpt><trkpt lat="50.41884442659944" lon="3.403380901954955"><ele>17.0</ele><time>2026-04-11T13:56:40Z</time></trkpt><trkpt lat="50.418777016601105" lon="3.4035307176924046"><ele>17.2</ele><time>2026-04-11T13:56:42Z</time></trkpt><trkpt lat="50.41872354847612" lon="3.4036927414303744"><ele>17.4</ele><time>2026-04-11T13:56:44Z</time></trkpt><trkpt lat="50.41870880908582" lon="3.4037911404158097"><ele>17.6</ele><time>2026-04-11T13:56:45Z</time></trkpt><trkpt lat="50.41865470285165" lon="3.4039547373446792"><ele>17.8</ele><time>2026-04-11T13:56:47Z</time></trkpt><trkpt lat="50.41859811066999" lon="3.404106781337285"><ele>18.0</ele><time>2026-04-11T13:56:49Z</time></trkpt><trkpt lat="50.418543549257876" lon="3.4042699359780677"><ele>18.0</ele><time>2026-04-11T13:56:51Z</time></trkpt><trkpt lat="50.41849840954569" lon="3.4044320956595544"><ele>18.0</ele><time>2026-04-11T13:56:53Z</time></trkpt><trkpt lat="50.4184544864936" lon="3.404570951497814"><ele>18.0</ele><time>2026-04-11T13:56:55Z</time></trkpt><trkpt lat="50.41843114081068" lon="3.404667805859938"><ele>18.0</ele><time>2026-04-11T13:56:56Z</time></trkpt><trkpt lat="50.41838589706128" lon="3.4048253716712007"><ele>18.0</ele><time>2026-04-11T13:56:58Z</time></trkpt><trkpt lat="50.41833038183649" lon="3.4049683842289196"><ele>18.0</ele><time>2026-04-11T13:57:00Z</time></trkpt><trkpt lat="50.41829773751664" lon="3.4050822534645597"><ele>18.0</ele><time>2026-04-11T13:57:02Z</time></trkpt><trkpt lat="50.418416663196275" lon="3.405312465321538"><ele>18.0</ele><time>2026-04-11T13:57:04Z</time></trkpt><trkpt lat="50.4182528220735" lon="3.4052384061585874"><ele>18.0</ele><time>2026-04-11T13:57:07Z</time></trkpt><trkpt lat="50.41822351926579" lon="3.4053401066744677"><ele>18.0</ele><time>2026-04-11T13:57:09Z</time></trkpt><trkpt lat="50.418305638549114" lon="3.405393540803913"><ele>18.0</ele><time>2026-04-11T13:57:10Z</time></trkpt><trkpt lat="50.41823319777575" lon="3.4054364785324327"><ele>18.0</ele><time>2026-04-11T13:57:13Z</time></trkpt><trkpt lat="50.41816798824591" lon="3.405532851562818"><ele>18.0</ele><time>2026-04-11T13:57:15Z</time></trkpt><trkpt lat="50.418128461483086" lon="3.4056700482248"><ele>18.0</ele><time>2026-04-11T13:57:17Z</time></trkpt><trkpt lat="50.418086972288734" lon="3.4058174923705433"><ele>18.0</ele><time>2026-04-11T13:57:19Z</time></trkpt><trkpt lat="50.41804658885953" lon="3.405962767511615"><ele>18.0</ele><time>2026-04-11T13:57:21Z</time></trkpt><trkpt lat="50.41801214373845" lon="3.4061247831259256"><ele>18.0</ele><time>2026-04-11T13:57:23Z</time></trkpt><trkpt lat="50.417970810331994" lon="3.406260655867716"><ele>18.0</ele><time>2026-04-11T13:57:25Z</time></trkpt><trkpt lat="50.417929311443125" lon="3.4063997909207666"><ele>18.0</ele><time>2026-04-11T13:57:27Z</time></trkpt><trkpt lat="50.41789314804793" lon="3.4065296250504677"><ele>18.166666666666668</ele><time>2026-04-11T13:57:29Z</time></trkpt><trkpt lat="50.41785999437284" lon="3.4066574513515073"><ele>18.333333333333332</ele><time>2026-04-11T13:57:31Z</time></trkpt><trkpt lat="50.417817233823236" lon="3.406756508493991"><ele>18.5</ele><time>2026-04-11T13:57:33Z</time></trkpt><trkpt lat="50.41778719632312" lon="3.4068619609981416"><ele>18.666666666666664</ele><time>2026-04-11T13:57:35Z</time></trkpt><trkpt lat="50.41775215268239" lon="3.406983506679854"><ele>18.833333333333332</ele><time>2026-04-11T13:57:38Z</time></trkpt><trkpt lat="50.41772630601322" lon="3.4070814440784574"><ele>19.0</ele><time>2026-04-11T13:57:40Z</time></trkpt><trkpt lat="50.4176992031369" lon="3.4071939473860122"><ele>19.0</ele><time>2026-04-11T13:57:43Z</time></trkpt><trkpt lat="50.417674183206096" lon="3.407301224888933"><ele>19.0</ele><time>2026-04-11T13:57:47Z</time></trkpt><trkpt lat="50.417646875073565" lon="3.4074184907563607"><ele>19.0</ele><time>2026-04-11T13:57:49Z</time></trkpt><trkpt lat="50.41781587753197" lon="3.4074392518046834"><ele>19.0</ele><time>2026-04-11T13:57:52Z</time></trkpt><trkpt lat="50.41790689120573" lon="3.407426622266475"><ele>19.0</ele><time>2026-04-11T13:57:54Z</time></trkpt><trkpt lat="50.417985795231765" lon="3.4074155101115235"><ele>19.333333333333332</ele><time>2026-04-11T13:57:56Z</time></trkpt><trkpt lat="50.41806757314443" lon="3.407425435080446"><ele>19.666666666666664</ele><time>2026-04-11T13:57:58Z</time></trkpt><trkpt lat="50.418148512455524" lon="3.407411885414438"><ele>20.0</ele><time>2026-04-11T13:58:00Z</time></trkpt><trkpt lat="50.41822565804283" lon="3.4073988838316676"><ele>20.333333333333332</ele><time>2026-04-11T13:58:02Z</time></trkpt><trkpt lat="50.41829586110663" lon="3.4073919100745687"><ele>20.666666666666668</ele><time>2026-04-11T13:58:04Z</time></trkpt><trkpt lat="50.41836694525065" lon="3.407370849229488"><ele>21.0</ele><time>2026-04-11T13:58:06Z</time></trkpt><trkpt lat="50.41844200099341" lon="3.4073624188741145"><ele>21.0</ele><time>2026-04-11T13:58:08Z</time></trkpt><trkpt lat="50.4185432964643" lon="3.407352294844322"><ele>21.0</ele><time>2026-04-11T13:58:11Z</time></trkpt><trkpt lat="50.41862090032876" lon="3.407340793583562"><ele>21.0</ele><time>2026-04-11T13:58:13Z</time></trkpt><trkpt lat="50.41869233867279" lon="3.407324366494041"><ele>21.0</ele><time>2026-04-11T13:58:15Z</time></trkpt><trkpt lat="50.41876230924788" lon="3.407314200629718"><ele>21.0</ele><time>2026-04-11T13:58:17Z</time></trkpt><trkpt lat="50.41885772548881" lon="3.407307900317274"><ele>21.0</ele><time>2026-04-11T13:58:20Z</time></trkpt><trkpt lat="50.418924500272055" lon="3.4072966640766214"><ele>20.857142857142858</ele><time>2026-04-11T13:58:22Z</time></trkpt><trkpt lat="50.418997222169" lon="3.4072815872374225"><ele>20.714285714285715</ele><time>2026-04-11T13:58:24Z</time></trkpt><trkpt lat="50.419065140972734" lon="3.407272695350567"><ele>20.57142857142857</ele><time>2026-04-11T13:58:26Z</time></trkpt><trkpt lat="50.41915225010305" lon="3.407267750636653"><ele>20.42857142857143</ele><time>2026-04-11T13:58:29Z</time></trkpt><trkpt lat="50.41922110966005" lon="3.407256857234294"><ele>20.285714285714285</ele><time>2026-04-11T13:58:31Z</time></trkpt><trkpt lat="50.41929461035183" lon="3.4072529519210466"><ele>20.142857142857142</ele><time>2026-04-11T13:58:33Z</time></trkpt><trkpt lat="50.41936491579569" lon="3.407239761060894"><ele>20.0</ele><time>2026-04-11T13:58:35Z</time></trkpt><trkpt lat="50.419438536176585" lon="3.4072313779125527"><ele>20.0</ele><time>2026-04-11T13:58:37Z</time></trkpt><trkpt lat="50.419514622228654" lon="3.407219135911415"><ele>20.0</ele><time>2026-04-11T13:58:39Z</time></trkpt><trkpt lat="50.41959382368741" lon="3.4071865745347893"><ele>20.0</ele><time>2026-04-11T13:58:41Z</time></trkpt><trkpt lat="50.419676541374145" lon="3.407174929434204"><ele>20.0</ele><time>2026-04-11T13:58:43Z</time></trkpt><trkpt lat="50.419758077077475" lon="3.407183466701299"><ele>20.0</ele><time>2026-04-11T13:58:45Z</time></trkpt><trkpt lat="50.4198382299714" lon="3.4071732818098996"><ele>20.0</ele><time>2026-04-11T13:58:47Z</time></trkpt><trkpt lat="50.419909257979775" lon="3.4071581222836005"><ele>19.8</ele><time>2026-04-11T13:58:49Z</time></trkpt><trkpt lat="50.419983369508685" lon="3.4071328401729617"><ele>19.6</ele><time>2026-04-11T13:58:51Z</time></trkpt><trkpt lat="50.42008187228412" lon="3.407144385421758"><ele>19.4</ele><time>2026-04-11T13:58:53Z</time></trkpt><trkpt lat="50.42018293079454" lon="3.407130185008415"><ele>19.2</ele><time>2026-04-11T13:58:55Z</time></trkpt><trkpt lat="50.42027695594162" lon="3.4071166197451075"><ele>19.0</ele><time>2026-04-11T13:58:57Z</time></trkpt><trkpt lat="50.42037856647498" lon="3.4070778323877926"><ele>19.0</ele><time>2026-04-11T13:58:59Z</time></trkpt><trkpt lat="50.420475990428706" lon="3.407064679345195"><ele>19.0</ele><time>2026-04-11T13:59:01Z</time></trkpt><trkpt lat="50.42057198900747" lon="3.407051478731215"><ele>19.0</ele><time>2026-04-11T13:59:03Z</time></trkpt><trkpt lat="50.420666144683196" lon="3.4070609679984236"><ele>19.0</ele><time>2026-04-11T13:59:05Z</time></trkpt><trkpt lat="50.42075071647594" lon="3.4070455300464633"><ele>19.0</ele><time>2026-04-11T13:59:07Z</time></trkpt><trkpt lat="50.42083007399606" lon="3.407034526778881"><ele>18.8</ele><time>2026-04-11T13:59:09Z</time></trkpt><trkpt lat="50.42090417335142" lon="3.40699969591485"><ele>18.599999999999998</ele><time>2026-04-11T13:59:11Z</time></trkpt><trkpt lat="50.420987586680006" lon="3.4069784741886955"><ele>18.4</ele><time>2026-04-11T13:59:13Z</time></trkpt><trkpt lat="50.42106391248568" lon="3.4069580156990593"><ele>18.2</ele><time>2026-04-11T13:59:15Z</time></trkpt><trkpt lat="50.42111580961" lon="3.407195849892047"><ele>18.0</ele><time>2026-04-11T13:59:18Z</time></trkpt><trkpt lat="50.42106528999271" lon="3.407311177549162"><ele>17.6</ele><time>2026-04-11T13:59:20Z</time></trkpt><trkpt lat="50.42103013519287" lon="3.407421290525989"><ele>17.200000000000003</ele><time>2026-04-11T13:59:22Z</time></trkpt><trkpt lat="50.42096374894014" lon="3.4075182399858712"><ele>16.8</ele><time>2026-04-11T13:59:24Z</time></trkpt><trkpt lat="50.420886104276995" lon="3.4076052194055393"><ele>16.400000000000002</ele><time>2026-04-11T13:59:26Z</time></trkpt><trkpt lat="50.42079011509562" lon="3.40766384017097"><ele>16.0</ele><time>2026-04-11T13:59:28Z</time></trkpt><trkpt lat="50.42069438162809" lon="3.4077096726234966"><ele>16.0</ele><time>2026-04-11T13:59:30Z</time></trkpt><trkpt lat="50.42059793048887" lon="3.4077583638575613"><ele>16.0</ele><time>2026-04-11T13:59:32Z</time></trkpt><trkpt lat="50.42049905990533" lon="3.4077975520154373"><ele>16.0</ele><time>2026-04-11T13:59:34Z</time></trkpt><trkpt lat="50.42040106403603" lon="3.407846598205316"><ele>16.0</ele><time>2026-04-11T13:59:36Z</time></trkpt><trkpt lat="50.42030303718298" lon="3.4079018838060042"><ele>16.0</ele><time>2026-04-11T13:59:38Z</time></trkpt><trkpt lat="50.420201530747455" lon="3.407947054551918"><ele>16.8</ele><time>2026-04-11T13:59:40Z</time></trkpt><trkpt lat="50.42010586510006" lon="3.407995339219235"><ele>17.6</ele><time>2026-04-11T13:59:42Z</time></trkpt><trkpt lat="50.41999705538966" lon="3.4080437644139963"><ele>18.4</ele><time>2026-04-11T13:59:44Z</time></trkpt><trkpt lat="50.41990256140968" lon="3.4080938255227453"><ele>19.2</ele><time>2026-04-11T13:59:46Z</time></trkpt><trkpt lat="50.41981064750693" lon="3.4081508693275198"><ele>20.0</ele><time>2026-04-11T13:59:48Z</time></trkpt><trkpt lat="50.41971299351306" lon="3.408205181118763"><ele>20.2</ele><time>2026-04-11T13:59:50Z</time></trkpt><trkpt lat="50.419620212011544" lon="3.408276298199246"><ele>20.4</ele><time>2026-04-11T13:59:52Z</time></trkpt><trkpt lat="50.4195271561217" lon="3.4083444197282304"><ele>20.6</ele><time>2026-04-11T13:59:54Z</time></trkpt><trkpt lat="50.419429287441666" lon="3.4084254258282853"><ele>20.8</ele><time>2026-04-11T13:59:56Z</time></trkpt><trkpt lat="50.419331087690495" lon="3.408499732036003"><ele>21.0</ele><time>2026-04-11T13:59:58Z</time></trkpt><trkpt lat="50.419235319939865" lon="3.4085696366467246"><ele>21.0</ele><time>2026-04-11T14:00:00Z</time></trkpt><trkpt lat="50.41913827457379" lon="3.408633050966911"><ele>21.0</ele><time>2026-04-11T14:00:02Z</time></trkpt><trkpt lat="50.41905066672995" lon="3.4086972040382366"><ele>21.0</ele><time>2026-04-11T14:00:04Z</time></trkpt><trkpt lat="50.41896024705447" lon="3.408783008075868"><ele>21.0</ele><time>2026-04-11T14:00:06Z</time></trkpt><trkpt lat="50.41887664625376" lon="3.4088698520491336"><ele>21.0</ele><time>2026-04-11T14:00:08Z</time></trkpt><trkpt lat="50.41879655574546" lon="3.4089624203386637"><ele>21.200000000000003</ele><time>2026-04-11T14:00:10Z</time></trkpt><trkpt lat="50.41871641260198" lon="3.409054058167745"><ele>21.400000000000002</ele><time>2026-04-11T14:00:12Z</time></trkpt><trkpt lat="50.4186363004263" lon="3.409148703537245"><ele>21.6</ele><time>2026-04-11T14:00:14Z</time></trkpt><trkpt lat="50.418553010886825" lon="3.409233157558749"><ele>21.8</ele><time>2026-04-11T14:00:16Z</time></trkpt><trkpt lat="50.41848146660677" lon="3.4093431336976967"><ele>22.0</ele><time>2026-04-11T14:00:18Z</time></trkpt><trkpt lat="50.41839809688397" lon="3.40943776871349"><ele>22.0</ele><time>2026-04-11T14:00:20Z</time></trkpt><trkpt lat="50.418321609556514" lon="3.409539127022071"><ele>22.0</ele><time>2026-04-11T14:00:22Z</time></trkpt><trkpt lat="50.418242161728486" lon="3.4096613568622907"><ele>22.0</ele><time>2026-04-11T14:00:24Z</time></trkpt><trkpt lat="50.41815900238816" lon="3.409781750759874"><ele>22.0</ele><time>2026-04-11T14:00:26Z</time></trkpt><trkpt lat="50.41808479472109" lon="3.4099010554307565"><ele>22.0</ele><time>2026-04-11T14:00:28Z</time></trkpt><trkpt lat="50.41801746341075" lon="3.4100242011168453"><ele>22.0</ele><time>2026-04-11T14:00:30Z</time></trkpt><trkpt lat="50.417945897619056" lon="3.410137792437811"><ele>22.0</ele><time>2026-04-11T14:00:32Z</time></trkpt><trkpt lat="50.4178748279889" lon="3.4102588584360687"><ele>22.0</ele><time>2026-04-11T14:00:34Z</time></trkpt><trkpt lat="50.417812449033754" lon="3.4103831392704955"><ele>22.0</ele><time>2026-04-11T14:00:36Z</time></trkpt><trkpt lat="50.41774620207263" lon="3.410493403702351"><ele>22.0</ele><time>2026-04-11T14:00:38Z</time></trkpt><trkpt lat="50.41767901174494" lon="3.4105995756754974"><ele>22.0</ele><time>2026-04-11T14:00:40Z</time></trkpt><trkpt lat="50.41761323582988" lon="3.4107263692462864"><ele>22.0</ele><time>2026-04-11T14:00:42Z</time></trkpt><trkpt lat="50.417546754471964" lon="3.410838641993373"><ele>22.0</ele><time>2026-04-11T14:00:44Z</time></trkpt><trkpt lat="50.41748356872172" lon="3.4109511403016715"><ele>22.0</ele><time>2026-04-11T14:00:46Z</time></trkpt><trkpt lat="50.417421608342174" lon="3.4110693829284626"><ele>22.0</ele><time>2026-04-11T14:00:48Z</time></trkpt><trkpt lat="50.417365001918185" lon="3.411193850373936"><ele>22.0</ele><time>2026-04-11T14:00:50Z</time></trkpt><trkpt lat="50.41729943171498" lon="3.4113057466788073"><ele>22.0</ele><time>2026-04-11T14:00:52Z</time></trkpt><trkpt lat="50.41723101939496" lon="3.411416926412387"><ele>22.0</ele><time>2026-04-11T14:00:54Z</time></trkpt><trkpt lat="50.41718330142624" lon="3.411540556472333"><ele>22.0</ele><time>2026-04-11T14:00:56Z</time></trkpt><trkpt lat="50.41711593232183" lon="3.411667165670172"><ele>22.0</ele><time>2026-04-11T14:00:58Z</time></trkpt><trkpt lat="50.41705784140222" lon="3.411792959182242"><ele>21.6</ele><time>2026-04-11T14:01:00Z</time></trkpt><trkpt lat="50.41700195567759" lon="3.4119236086975504"><ele>21.200000000000003</ele><time>2026-04-11T14:01:02Z</time></trkpt><trkpt lat="50.416942660881666" lon="3.4120406036523705"><ele>20.8</ele><time>2026-04-11T14:01:04Z</time></trkpt><trkpt lat="50.41688550541728" lon="3.412172845496799"><ele>20.4</ele><time>2026-04-11T14:01:06Z</time></trkpt><trkpt lat="50.416828820303095" lon="3.412301013490937"><ele>20.0</ele><time>2026-04-11T14:01:08Z</time></trkpt><trkpt lat="50.41677108355671" lon="3.4124107719667895"><ele>20.0</ele><time>2026-04-11T14:01:10Z</time></trkpt><trkpt lat="50.416714658225956" lon="3.4125399514281667"><ele>20.0</ele><time>2026-04-11T14:01:12Z</time></trkpt><trkpt lat="50.4166609465713" lon="3.412668151648757"><ele>20.0</ele><time>2026-04-11T14:01:14Z</time></trkpt><trkpt lat="50.41661371150411" lon="3.4127878161208396"><ele>20.0</ele><time>2026-04-11T14:01:16Z</time></trkpt><trkpt lat="50.41655946888111" lon="3.4129137131280496"><ele>20.0</ele><time>2026-04-11T14:01:18Z</time></trkpt><trkpt lat="50.41650189462013" lon="3.4130407357215917"><ele>20.0</ele><time>2026-04-11T14:01:20Z</time></trkpt><trkpt lat="50.41644874668827" lon="3.4131669576525114"><ele>20.0</ele><time>2026-04-11T14:01:22Z</time></trkpt><trkpt lat="50.41639516719343" lon="3.41329395911472"><ele>20.0</ele><time>2026-04-11T14:01:24Z</time></trkpt><trkpt lat="50.416344740776196" lon="3.4134220033484266"><ele>20.0</ele><time>2026-04-11T14:01:26Z</time></trkpt><trkpt lat="50.416291916654274" lon="3.4135528730366635"><ele>20.0</ele><time>2026-04-11T14:01:28Z</time></trkpt><trkpt lat="50.416241147431194" lon="3.413681555842874"><ele>20.2</ele><time>2026-04-11T14:01:30Z</time></trkpt><trkpt lat="50.4161921693814" lon="3.413807021268842"><ele>20.4</ele><time>2026-04-11T14:01:32Z</time></trkpt><trkpt lat="50.416140848286105" lon="3.4139376990547636"><ele>20.6</ele><time>2026-04-11T14:01:34Z</time></trkpt><trkpt lat="50.416095687308584" lon="3.4140741898606173"><ele>20.8</ele><time>2026-04-11T14:01:36Z</time></trkpt><trkpt lat="50.41604879459718" lon="3.4141926423019404"><ele>21.0</ele><time>2026-04-11T14:01:38Z</time></trkpt><trkpt lat="50.41600534663576" lon="3.414311403581295"><ele>21.0</ele><time>2026-04-11T14:01:40Z</time></trkpt><trkpt lat="50.41585925795269" lon="3.414269457297739"><ele>21.0</ele><time>2026-04-11T14:01:41Z</time></trkpt><trkpt lat="50.415814150649275" lon="3.414396756422429"><ele>21.0</ele><time>2026-04-11T14:01:43Z</time></trkpt><trkpt lat="50.41576799897319" lon="3.414530304782364"><ele>21.0</ele><time>2026-04-11T14:01:45Z</time></trkpt><trkpt lat="50.41572334847864" lon="3.41466102089014"><ele>21.0</ele><time>2026-04-11T14:01:47Z</time></trkpt><trkpt lat="50.4156872565464" lon="3.4147666816316398"><ele>22.0</ele><time>2026-04-11T14:01:49Z</time></trkpt><trkpt lat="50.41583166887644" lon="3.4148394498322028"><ele>22.0</ele><time>2026-04-11T14:01:56Z</time></trkpt><trkpt lat="50.41585206269224" lon="3.4147304375805767"><ele>22.0</ele><time>2026-04-11T14:02:01Z</time></trkpt><trkpt lat="50.41585218503243" lon="3.414631457427274"><ele>21.0</ele><time>2026-04-11T14:02:04Z</time></trkpt></trkseg><trkseg><trkpt lat="50.41585543897493" lon="3.414714165084323"><ele>22.0</ele><time>2026-04-11T14:16:59Z</time></trkpt><trkpt lat="50.41581096062272" lon="3.4148165101337606"><ele>22.0</ele><time>2026-04-11T14:17:02.999Z</time></trkpt><trkpt lat="50.41576860936559" lon="3.414940249199601"><ele>22.0</ele><time>2026-04-11T14:17:05.999Z</time></trkpt><trkpt lat="50.415729875605344" lon="3.415038694666848"><ele>22.0</ele><time>2026-04-11T14:17:07.999Z</time></trkpt><trkpt lat="50.415699927233995" lon="3.4151499312495783"><ele>22.0</ele><time>2026-04-11T14:17:09.999Z</time></trkpt><trkpt lat="50.41566338345886" lon="3.415259920678277"><ele>22.0</ele><time>2026-04-11T14:17:11.999Z</time></trkpt><trkpt lat="50.41562170091732" lon="3.4153824377795026"><ele>22.166666666666664</ele><time>2026-04-11T14:17:13.999Z</time></trkpt><trkpt lat="50.415575123607866" lon="3.4154940599315067"><ele>22.333333333333332</ele><time>2026-04-11T14:17:15.999Z</time></trkpt><trkpt lat="50.41553531581636" lon="3.4156182419724823"><ele>22.5</ele><time>2026-04-11T14:17:17.999Z</time></trkpt><trkpt lat="50.41550001487498" lon="3.4157406439535496"><ele>22.666666666666668</ele><time>2026-04-11T14:17:19.999Z</time></trkpt><trkpt lat="50.41545869267821" lon="3.4158746574637293"><ele>22.833333333333336</ele><time>2026-04-11T14:17:21.999Z</time></trkpt><trkpt lat="50.415412535895946" lon="3.4160038718137096"><ele>23.0</ele><time>2026-04-11T14:17:23.999Z</time></trkpt><trkpt lat="50.4153716792112" lon="3.416144703139446"><ele>23.0</ele><time>2026-04-11T14:17:25.999Z</time></trkpt><trkpt lat="50.41532713354835" lon="3.416282678186691"><ele>23.0</ele><time>2026-04-11T14:17:27.999Z</time></trkpt><trkpt lat="50.415288663351305" lon="3.41641943053441"><ele>23.0</ele><time>2026-04-11T14:17:29.999Z</time></trkpt><trkpt lat="50.41524550244966" lon="3.4165601364023575"><ele>23.0</ele><time>2026-04-11T14:17:31.999Z</time></trkpt><trkpt lat="50.41520751951599" lon="3.416699976526964"><ele>23.0</ele><time>2026-04-11T14:17:33.999Z</time></trkpt><trkpt lat="50.41516465776619" lon="3.416840933511271"><ele>23.0</ele><time>2026-04-11T14:17:35.999Z</time></trkpt><trkpt lat="50.415122232304704" lon="3.4169770550200753"><ele>23.0</ele><time>2026-04-11T14:17:37.999Z</time></trkpt><trkpt lat="50.415079000730486" lon="3.4171156085786585"><ele>23.0</ele><time>2026-04-11T14:17:39.999Z</time></trkpt><trkpt lat="50.41503916267996" lon="3.417251725749656"><ele>23.0</ele><time>2026-04-11T14:17:41.999Z</time></trkpt><trkpt lat="50.415000457936635" lon="3.4173838368913025"><ele>23.0</ele><time>2026-04-11T14:17:43.999Z</time></trkpt><trkpt lat="50.414961107365045" lon="3.417516557510629"><ele>23.2</ele><time>2026-04-11T14:17:45.999Z</time></trkpt><trkpt lat="50.41492331691835" lon="3.4176481826736413"><ele>23.4</ele><time>2026-04-11T14:17:48Z</time></trkpt><trkpt lat="50.41487948133848" lon="3.4177838491722152"><ele>23.599999999999998</ele><time>2026-04-11T14:17:50Z</time></trkpt><trkpt lat="50.41483796795405" lon="3.4179225280505454"><ele>23.799999999999997</ele><time>2026-04-11T14:17:52Z</time></trkpt><trkpt lat="50.4147996903234" lon="3.418057518573855"><ele>24.0</ele><time>2026-04-11T14:17:54Z</time></trkpt><trkpt lat="50.41476067287653" lon="3.418191564141487"><ele>24.6</ele><time>2026-04-11T14:17:56Z</time></trkpt><trkpt lat="50.414710601811386" lon="3.418334018701732"><ele>25.2</ele><time>2026-04-11T14:17:58Z</time></trkpt><trkpt lat="50.414674193628564" lon="3.418475225847711"><ele>25.800000000000004</ele><time>2026-04-11T14:18:00Z</time></trkpt><trkpt lat="50.41462228898217" lon="3.41860138794756"><ele>26.400000000000002</ele><time>2026-04-11T14:18:02Z</time></trkpt><trkpt lat="50.41458572119426" lon="3.418751064375425"><ele>27.0</ele><time>2026-04-11T14:18:04Z</time></trkpt><trkpt lat="50.41453725174882" lon="3.418892793938237"><ele>27.0</ele><time>2026-04-11T14:18:06Z</time></trkpt><trkpt lat="50.4145038193097" lon="3.419038914682364"><ele>27.000000000000004</ele><time>2026-04-11T14:18:08Z</time></trkpt><trkpt lat="50.41445758933986" lon="3.4191765315408227"><ele>27.000000000000004</ele><time>2026-04-11T14:18:10Z</time></trkpt><trkpt lat="50.41441386357127" lon="3.419318217847579"><ele>27.0</ele><time>2026-04-11T14:18:12Z</time></trkpt><trkpt lat="50.41436939867541" lon="3.4194664048708083"><ele>27.0</ele><time>2026-04-11T14:18:14Z</time></trkpt><trkpt lat="50.41432661200402" lon="3.41960851376094"><ele>26.8</ele><time>2026-04-11T14:18:16Z</time></trkpt><trkpt lat="50.41428319722198" lon="3.4197568938718175"><ele>26.6</ele><time>2026-04-11T14:18:18Z</time></trkpt><trkpt lat="50.41424345620619" lon="3.419900189478132"><ele>26.400000000000002</ele><time>2026-04-11T14:18:20Z</time></trkpt><trkpt lat="50.41419909170057" lon="3.4200478639691614"><ele>26.200000000000003</ele><time>2026-04-11T14:18:22Z</time></trkpt><trkpt lat="50.41414702724841" lon="3.420194077210363"><ele>26.0</ele><time>2026-04-11T14:18:24Z</time></trkpt><trkpt lat="50.41410900165731" lon="3.420340075047857"><ele>25.8</ele><time>2026-04-11T14:18:26Z</time></trkpt><trkpt lat="50.41406275051458" lon="3.4204871841166007"><ele>25.6</ele><time>2026-04-11T14:18:28Z</time></trkpt><trkpt lat="50.4140208250247" lon="3.42063619611799"><ele>25.4</ele><time>2026-04-11T14:18:30Z</time></trkpt><trkpt lat="50.413978565571725" lon="3.4207870236113234"><ele>25.2</ele><time>2026-04-11T14:18:32Z</time></trkpt><trkpt lat="50.41393413428865" lon="3.4209387549728625"><ele>25.0</ele><time>2026-04-11T14:18:34Z</time></trkpt><trkpt lat="50.413886237075594" lon="3.421101637319742"><ele>25.0</ele><time>2026-04-11T14:18:36Z</time></trkpt><trkpt lat="50.413856323214176" lon="3.421240769875944"><ele>25.0</ele><time>2026-04-11T14:18:38Z</time></trkpt><trkpt lat="50.41380536517204" lon="3.4213772660530313"><ele>25.0</ele><time>2026-04-11T14:18:40Z</time></trkpt><trkpt lat="50.41375929410667" lon="3.4215203748929963"><ele>25.0</ele><time>2026-04-11T14:18:42Z</time></trkpt><trkpt lat="50.41372007378377" lon="3.4216708042895165"><ele>25.0</ele><time>2026-04-11T14:18:44Z</time></trkpt><trkpt lat="50.413683350145824" lon="3.4218036172213164"><ele>25.0</ele><time>2026-04-11T14:18:46Z</time></trkpt><trkpt lat="50.41363399645244" lon="3.4219522329979615"><ele>25.0</ele><time>2026-04-11T14:18:48Z</time></trkpt><trkpt lat="50.41359310394671" lon="3.4220995480354457"><ele>25.0</ele><time>2026-04-11T14:18:50Z</time></trkpt><trkpt lat="50.413549156658306" lon="3.422244900166192"><ele>25.0</ele><time>2026-04-11T14:18:52Z</time></trkpt><trkpt lat="50.413505765347686" lon="3.4223872238981103"><ele>25.0</ele><time>2026-04-11T14:18:54Z</time></trkpt><trkpt lat="50.41346197195365" lon="3.4225353937480447"><ele>25.0</ele><time>2026-04-11T14:18:56Z</time></trkpt><trkpt lat="50.413414305419174" lon="3.422688878514731"><ele>25.0</ele><time>2026-04-11T14:18:58Z</time></trkpt><trkpt lat="50.41337155922589" lon="3.4228409084659086"><ele>25.0</ele><time>2026-04-11T14:19:00Z</time></trkpt><trkpt lat="50.41332843174166" lon="3.4229995097276413"><ele>25.0</ele><time>2026-04-11T14:19:02Z</time></trkpt><trkpt lat="50.413284848318334" lon="3.4231489413336953"><ele>25.0</ele><time>2026-04-11T14:19:03.999Z</time></trkpt><trkpt lat="50.4132334056736" lon="3.42330493668753"><ele>25.0</ele><time>2026-04-11T14:19:05.999Z</time></trkpt><trkpt lat="50.41318565616542" lon="3.42347356465825"><ele>25.0</ele><time>2026-04-11T14:19:07.999Z</time></trkpt><trkpt lat="50.4131390248909" lon="3.4236324176275983"><ele>25.0</ele><time>2026-04-11T14:19:09.999Z</time></trkpt><trkpt lat="50.413085707812655" lon="3.423797872121439"><ele>25.0</ele><time>2026-04-11T14:19:11.999Z</time></trkpt><trkpt lat="50.413043992777254" lon="3.4239503453778117"><ele>25.0</ele><time>2026-04-11T14:19:13.999Z</time></trkpt><trkpt lat="50.41301920874396" lon="3.424043716280758"><ele>25.0</ele><time>2026-04-11T14:19:14.999Z</time></trkpt><trkpt lat="50.412969860664234" lon="3.4241998224876182"><ele>25.0</ele><time>2026-04-11T14:19:16.999Z</time></trkpt><trkpt lat="50.41293412242412" lon="3.424370135767658"><ele>25.0</ele><time>2026-04-11T14:19:18.999Z</time></trkpt><trkpt lat="50.41288680651995" lon="3.424522194682416"><ele>25.0</ele><time>2026-04-11T14:19:20.999Z</time></trkpt><trkpt lat="50.41283620655124" lon="3.4246747639573765"><ele>25.25</ele><time>2026-04-11T14:19:22.999Z</time></trkpt><trkpt lat="50.412787485405985" lon="3.4248468784414055"><ele>25.5</ele><time>2026-04-11T14:19:24.999Z</time></trkpt><trkpt lat="50.41273683479328" lon="3.4250032622568685"><ele>25.75</ele><time>2026-04-11T14:19:26.999Z</time></trkpt><trkpt lat="50.412690650021815" lon="3.4251626296100004"><ele>26.0</ele><time>2026-04-11T14:19:28.999Z</time></trkpt><trkpt lat="50.41264404145711" lon="3.425336473411217"><ele>26.0</ele><time>2026-04-11T14:19:30.999Z</time></trkpt><trkpt lat="50.41259638009045" lon="3.4254956547493127"><ele>26.0</ele><time>2026-04-11T14:19:32.999Z</time></trkpt><trkpt lat="50.41255207445269" lon="3.425652960212367"><ele>26.0</ele><time>2026-04-11T14:19:34.999Z</time></trkpt><trkpt lat="50.41249690546595" lon="3.4258098094235576"><ele>26.0</ele><time>2026-04-11T14:19:36.999Z</time></trkpt><trkpt lat="50.41245392978573" lon="3.4259604232407983"><ele>26.0</ele><time>2026-04-11T14:19:38.999Z</time></trkpt><trkpt lat="50.41241823794477" lon="3.426110683260567"><ele>26.0</ele><time>2026-04-11T14:19:40.999Z</time></trkpt><trkpt lat="50.4123606995877" lon="3.4262648883334728"><ele>26.0</ele><time>2026-04-11T14:19:42.999Z</time></trkpt><trkpt lat="50.41220878101654" lon="3.4262493981809707"><ele>26.0</ele><time>2026-04-11T14:19:43.999Z</time></trkpt><trkpt lat="50.412165381468185" lon="3.4263996274788946"><ele>26.0</ele><time>2026-04-11T14:19:45.999Z</time></trkpt><trkpt lat="50.412121453644644" lon="3.4265516851792825"><ele>26.8</ele><time>2026-04-11T14:19:47.999Z</time></trkpt><trkpt lat="50.41207904400958" lon="3.426698487812682"><ele>27.6</ele><time>2026-04-11T14:19:49.999Z</time></trkpt><trkpt lat="50.41203438724583" lon="3.4268541141460886"><ele>28.4</ele><time>2026-04-11T14:19:51.999Z</time></trkpt><trkpt lat="50.41199053565924" lon="3.4270081756593687"><ele>29.2</ele><time>2026-04-11T14:19:53.999Z</time></trkpt><trkpt lat="50.41194614899556" lon="3.4271641173843514"><ele>30.0</ele><time>2026-04-11T14:19:55.999Z</time></trkpt><trkpt lat="50.411904059998584" lon="3.4273119869074624"><ele>30.2</ele><time>2026-04-11T14:19:57.999Z</time></trkpt><trkpt lat="50.41186116202422" lon="3.4274626983833087"><ele>30.4</ele><time>2026-04-11T14:19:59.999Z</time></trkpt><trkpt lat="50.411819496842625" lon="3.4276090788962046"><ele>30.6</ele><time>2026-04-11T14:20:01.999Z</time></trkpt><trkpt lat="50.41177507783746" lon="3.42776513417211"><ele>30.8</ele><time>2026-04-11T14:20:04Z</time></trkpt><trkpt lat="50.411731435816925" lon="3.4279142716820767"><ele>31.0</ele><time>2026-04-11T14:20:06Z</time></trkpt><trkpt lat="50.41168742567067" lon="3.4280643032058618"><ele>30.6</ele><time>2026-04-11T14:20:08Z</time></trkpt><trkpt lat="50.41164304633788" lon="3.4282155932202083"><ele>30.200000000000003</ele><time>2026-04-11T14:20:10Z</time></trkpt><trkpt lat="50.41160077262415" lon="3.4283597046550964"><ele>29.799999999999997</ele><time>2026-04-11T14:20:12Z</time></trkpt><trkpt lat="50.41155587107961" lon="3.428512775138645"><ele>29.4</ele><time>2026-04-11T14:20:14Z</time></trkpt><trkpt lat="50.41151331342447" lon="3.4286578551861426"><ele>29.0</ele><time>2026-04-11T14:20:16Z</time></trkpt><trkpt lat="50.4114713502071" lon="3.4288009083749826"><ele>29.0</ele><time>2026-04-11T14:20:18Z</time></trkpt><trkpt lat="50.41143368718135" lon="3.428925801442051"><ele>29.0</ele><time>2026-04-11T14:20:20Z</time></trkpt><trkpt lat="50.41139305647122" lon="3.429063375500665"><ele>29.0</ele><time>2026-04-11T14:20:22Z</time></trkpt><trkpt lat="50.411353360198525" lon="3.429198671732316"><ele>29.0</ele><time>2026-04-11T14:20:24Z</time></trkpt><trkpt lat="50.41131109096486" lon="3.429342737430523"><ele>29.0</ele><time>2026-04-11T14:20:26Z</time></trkpt><trkpt lat="50.41126376040437" lon="3.4295040537311925"><ele>28.75</ele><time>2026-04-11T14:20:28Z</time></trkpt><trkpt lat="50.41121550241747" lon="3.429668530880305"><ele>28.5</ele><time>2026-04-11T14:20:30Z</time></trkpt><trkpt lat="50.41116957804445" lon="3.429825054003492"><ele>28.25</ele><time>2026-04-11T14:20:32Z</time></trkpt><trkpt lat="50.41112006587856" lon="3.4299938056708124"><ele>28.0</ele><time>2026-04-11T14:20:34Z</time></trkpt><trkpt lat="50.411072170974435" lon="3.430157045180091"><ele>28.0</ele><time>2026-04-11T14:20:36Z</time></trkpt><trkpt lat="50.4110271201937" lon="3.430310591070676"><ele>28.0</ele><time>2026-04-11T14:20:38Z</time></trkpt><trkpt lat="50.410979306075745" lon="3.4304735554313255"><ele>28.0</ele><time>2026-04-11T14:20:40Z</time></trkpt><trkpt lat="50.41093033380421" lon="3.43064046696771"><ele>28.0</ele><time>2026-04-11T14:20:42Z</time></trkpt><trkpt lat="50.41088016347555" lon="3.4308114619888905"><ele>28.0</ele><time>2026-04-11T14:20:44Z</time></trkpt><trkpt lat="50.410829497488216" lon="3.430984145875125"><ele>27.999999999999996</ele><time>2026-04-11T14:20:46Z</time></trkpt><trkpt lat="50.41078003531322" lon="3.4311527272319746"><ele>27.999999999999996</ele><time>2026-04-11T14:20:48Z</time></trkpt><trkpt lat="50.41075263638551" lon="3.4312461106122982"><ele>28.0</ele><time>2026-04-11T14:20:49Z</time></trkpt><trkpt lat="50.41070514890953" lon="3.4314079614990125"><ele>28.0</ele><time>2026-04-11T14:20:51Z</time></trkpt><trkpt lat="50.41067858147158" lon="3.4314985111359064"><ele>28.25</ele><time>2026-04-11T14:20:52Z</time></trkpt><trkpt lat="50.41062729156071" lon="3.43167332151555"><ele>28.5</ele><time>2026-04-11T14:20:54Z</time></trkpt><trkpt lat="50.41057964425362" lon="3.4318357175524294"><ele>28.75</ele><time>2026-04-11T14:20:56Z</time></trkpt><trkpt lat="50.41052902694343" lon="3.4320082358067867"><ele>29.0</ele><time>2026-04-11T14:20:58Z</time></trkpt><trkpt lat="50.4104787022956" lon="3.4321797564724843"><ele>28.25</ele><time>2026-04-11T14:21:00Z</time></trkpt><trkpt lat="50.41042958425079" lon="3.4323471655362385"><ele>27.5</ele><time>2026-04-11T14:21:01.999Z</time></trkpt><trkpt lat="50.410377637052626" lon="3.4325242159096785"><ele>26.75</ele><time>2026-04-11T14:21:03.999Z</time></trkpt><trkpt lat="50.410326933230564" lon="3.432697029074713"><ele>26.0</ele><time>2026-04-11T14:21:05.999Z</time></trkpt><trkpt lat="50.41027662608923" lon="3.4328703610912688"><ele>25.6</ele><time>2026-04-11T14:21:07.999Z</time></trkpt><trkpt lat="50.41022593273838" lon="3.4330452798484785"><ele>25.200000000000003</ele><time>2026-04-11T14:21:09.999Z</time></trkpt><trkpt lat="50.410176733385484" lon="3.4332150433883024"><ele>24.799999999999997</ele><time>2026-04-11T14:21:11.999Z</time></trkpt><trkpt lat="50.41012599920323" lon="3.4333887678637702"><ele>24.4</ele><time>2026-04-11T14:21:13.999Z</time></trkpt><trkpt lat="50.410099368005554" lon="3.433479120200134"><ele>24.0</ele><time>2026-04-11T14:21:14.999Z</time></trkpt><trkpt lat="50.41004862717302" lon="3.4336512693230943"><ele>24.0</ele><time>2026-04-11T14:21:16.999Z</time></trkpt><trkpt lat="50.40999718017366" lon="3.433825814847365"><ele>24.0</ele><time>2026-04-11T14:21:18.999Z</time></trkpt><trkpt lat="50.4099704804506" lon="3.433916399765627"><ele>24.0</ele><time>2026-04-11T14:21:19.999Z</time></trkpt><trkpt lat="50.40991908031161" lon="3.4340907856708984"><ele>24.0</ele><time>2026-04-11T14:21:21.999Z</time></trkpt><trkpt lat="50.40989095586747" lon="3.4341862040845315"><ele>24.0</ele><time>2026-04-11T14:21:22.999Z</time></trkpt><trkpt lat="50.409840525215785" lon="3.4343573013463824"><ele>24.0</ele><time>2026-04-11T14:21:24.999Z</time></trkpt><trkpt lat="50.409790052294916" lon="3.4345285415861717"><ele>24.0</ele><time>2026-04-11T14:21:26.999Z</time></trkpt><trkpt lat="50.40974019153269" lon="3.4346977052875873"><ele>24.0</ele><time>2026-04-11T14:21:28.999Z</time></trkpt><trkpt lat="50.40969227523388" lon="3.4348602722532466"><ele>24.0</ele><time>2026-04-11T14:21:30.999Z</time></trkpt><trkpt lat="50.40964316124445" lon="3.4350269020805375"><ele>24.2</ele><time>2026-04-11T14:21:32.999Z</time></trkpt><trkpt lat="50.409596764757495" lon="3.435184312345473"><ele>24.4</ele><time>2026-04-11T14:21:34.999Z</time></trkpt><trkpt lat="50.40954846799965" lon="3.4353481699932713"><ele>24.6</ele><time>2026-04-11T14:21:36.999Z</time></trkpt><trkpt lat="50.40950417157766" lon="3.4354988077654953"><ele>24.8</ele><time>2026-04-11T14:21:38.999Z</time></trkpt><trkpt lat="50.4094575596686" lon="3.4356573297436657"><ele>25.0</ele><time>2026-04-11T14:21:40.999Z</time></trkpt><trkpt lat="50.40941455877401" lon="3.4358015462161524"><ele>25.0</ele><time>2026-04-11T14:21:42.999Z</time></trkpt><trkpt lat="50.409370589982906" lon="3.435946761021025"><ele>25.0</ele><time>2026-04-11T14:21:44.999Z</time></trkpt><trkpt lat="50.409325607262" lon="3.43609532492453"><ele>25.0</ele><time>2026-04-11T14:21:46.999Z</time></trkpt><trkpt lat="50.40928211771431" lon="3.4362389563827347"><ele>25.0</ele><time>2026-04-11T14:21:48.999Z</time></trkpt><trkpt lat="50.40923956021491" lon="3.436375426033738"><ele>25.0</ele><time>2026-04-11T14:21:50.999Z</time></trkpt><trkpt lat="50.409193924798736" lon="3.436518165021223"><ele>24.8</ele><time>2026-04-11T14:21:52.999Z</time></trkpt><trkpt lat="50.40914792672636" lon="3.4366620378194463"><ele>24.6</ele><time>2026-04-11T14:21:54.999Z</time></trkpt><trkpt lat="50.40910248526343" lon="3.4368004046728475"><ele>24.4</ele><time>2026-04-11T14:21:56.999Z</time></trkpt><trkpt lat="50.40905618950623" lon="3.4369407869101947"><ele>24.2</ele><time>2026-04-11T14:21:59Z</time></trkpt><trkpt lat="50.409006272050235" lon="3.4370877301619402"><ele>24.0</ele><time>2026-04-11T14:22:01Z</time></trkpt><trkpt lat="50.40895899370832" lon="3.437226492157292"><ele>24.4</ele><time>2026-04-11T14:22:03Z</time></trkpt><trkpt lat="50.408910985216785" lon="3.437360959475949"><ele>24.799999999999997</ele><time>2026-04-11T14:22:05Z</time></trkpt><trkpt lat="50.40886257933518" lon="3.437496550774901"><ele>25.200000000000003</ele><time>2026-04-11T14:22:07Z</time></trkpt><trkpt lat="50.40881076821469" lon="3.437634247117365"><ele>25.6</ele><time>2026-04-11T14:22:09Z</time></trkpt><trkpt lat="50.40875868686966" lon="3.4377713428395555"><ele>26.0</ele><time>2026-04-11T14:22:11Z</time></trkpt><trkpt lat="50.40870671067721" lon="3.437907601629487"><ele>25.4</ele><time>2026-04-11T14:22:13Z</time></trkpt><trkpt lat="50.40865995964111" lon="3.438029702196787"><ele>24.8</ele><time>2026-04-11T14:22:15Z</time></trkpt><trkpt lat="50.40860631212579" lon="3.4381671019772533"><ele>24.2</ele><time>2026-04-11T14:22:17Z</time></trkpt><trkpt lat="50.408557503234164" lon="3.4382892983288516"><ele>23.599999999999998</ele><time>2026-04-11T14:22:19Z</time></trkpt><trkpt lat="50.40850217063068" lon="3.438419980808856"><ele>23.0</ele><time>2026-04-11T14:22:21Z</time></trkpt><trkpt lat="50.40844972425432" lon="3.4385361525853084"><ele>23.0</ele><time>2026-04-11T14:22:23Z</time></trkpt><trkpt lat="50.408392188517645" lon="3.4386608260916374"><ele>23.0</ele><time>2026-04-11T14:22:25Z</time></trkpt><trkpt lat="50.40833422289736" lon="3.4387863742500118"><ele>23.0</ele><time>2026-04-11T14:22:27Z</time></trkpt><trkpt lat="50.40827197766294" lon="3.4389195630808302"><ele>23.0</ele><time>2026-04-11T14:22:29Z</time></trkpt><trkpt lat="50.40821590079636" lon="3.4390382099795946"><ele>23.0</ele><time>2026-04-11T14:22:31Z</time></trkpt><trkpt lat="50.408158859478064" lon="3.4391562489019902"><ele>23.0</ele><time>2026-04-11T14:22:33Z</time></trkpt><trkpt lat="50.408100635991644" lon="3.4392737201504544"><ele>23.0</ele><time>2026-04-11T14:22:35Z</time></trkpt><trkpt lat="50.40804282719797" lon="3.439388642997797"><ele>23.0</ele><time>2026-04-11T14:22:37Z</time></trkpt><trkpt lat="50.40798590074739" lon="3.439499727654518"><ele>23.0</ele><time>2026-04-11T14:22:39Z</time></trkpt><trkpt lat="50.40792710514845" lon="3.4396119287953"><ele>23.0</ele><time>2026-04-11T14:22:41Z</time></trkpt><trkpt lat="50.40786863263282" lon="3.4397195236078835"><ele>23.0</ele><time>2026-04-11T14:22:43Z</time></trkpt><trkpt lat="50.407808758667585" lon="3.4398272891897514"><ele>23.0</ele><time>2026-04-11T14:22:45Z</time></trkpt><trkpt lat="50.40774809357209" lon="3.439934049905194"><ele>23.0</ele><time>2026-04-11T14:22:47Z</time></trkpt><trkpt lat="50.40769456918683" lon="3.4400256532501974"><ele>23.0</ele><time>2026-04-11T14:22:49Z</time></trkpt><trkpt lat="50.40763619788784" lon="3.440124300766063"><ele>23.0</ele><time>2026-04-11T14:22:51Z</time></trkpt><trkpt lat="50.407585503561435" lon="3.4402090250194504"><ele>23.0</ele><time>2026-04-11T14:22:53Z</time></trkpt><trkpt lat="50.40754258183263" lon="3.440308120461929"><ele>23.0</ele><time>2026-04-11T14:22:55Z</time></trkpt><trkpt lat="50.407520687437994" lon="3.4404099385120475"><ele>23.0</ele><time>2026-04-11T14:22:57Z</time></trkpt><trkpt lat="50.40790901684033" lon="3.4411071601155143"><ele>23.0</ele><time>2026-04-11T14:23:00Z</time></trkpt><trkpt lat="50.40789897666536" lon="3.441217448147201"><ele>23.0</ele><time>2026-04-11T14:23:02Z</time></trkpt><trkpt lat="50.4078332289749" lon="3.4412806767547774"><ele>23.0</ele><time>2026-04-11T14:23:04Z</time></trkpt><trkpt lat="50.407753539221666" lon="3.4413007427387114"><ele>23.0</ele><time>2026-04-11T14:23:07Z</time></trkpt><trkpt lat="50.40769356114398" lon="3.441347519385053"><ele>23.0</ele><time>2026-04-11T14:23:08Z</time></trkpt><trkpt lat="50.407614568760735" lon="3.4414250513560694"><ele>23.0</ele><time>2026-04-11T14:23:10Z</time></trkpt><trkpt lat="50.407552679623386" lon="3.4415220481148703"><ele>23.0</ele><time>2026-04-11T14:23:12Z</time></trkpt><trkpt lat="50.407529010361316" lon="3.4416500474837077"><ele>23.0</ele><time>2026-04-11T14:23:14Z</time></trkpt><trkpt lat="50.40751637306399" lon="3.4417774689333784"><ele>23.0</ele><time>2026-04-11T14:23:16Z</time></trkpt><trkpt lat="50.40748203820511" lon="3.441882111440736"><ele>23.0</ele><time>2026-04-11T14:23:18Z</time></trkpt><trkpt lat="50.40745066095134" lon="3.4420043144703376"><ele>23.0</ele><time>2026-04-11T14:23:20Z</time></trkpt><trkpt lat="50.40741743831136" lon="3.442116010281859"><ele>23.0</ele><time>2026-04-11T14:23:22Z</time></trkpt><trkpt lat="50.407400124801455" lon="3.442224258859599"><ele>23.5</ele><time>2026-04-11T14:23:24Z</time></trkpt><trkpt lat="50.40737622746519" lon="3.442348493824443"><ele>24.0</ele><time>2026-04-11T14:23:26Z</time></trkpt><trkpt lat="50.407343414593704" lon="3.4424672430446135"><ele>24.5</ele><time>2026-04-11T14:23:28Z</time></trkpt><trkpt lat="50.40730692473313" lon="3.4425850787914527"><ele>25.0</ele><time>2026-04-11T14:23:30Z</time></trkpt><trkpt lat="50.40727540523562" lon="3.4427046716206524"><ele>25.499999999999996</ele><time>2026-04-11T14:23:32Z</time></trkpt><trkpt lat="50.40724232698402" lon="3.4428201835984633"><ele>26.0</ele><time>2026-04-11T14:23:34Z</time></trkpt><trkpt lat="50.40720226093604" lon="3.4429257979200134"><ele>26.499999999999996</ele><time>2026-04-11T14:23:36Z</time></trkpt><trkpt lat="50.40717099041788" lon="3.4430435329621787"><ele>27.0</ele><time>2026-04-11T14:23:38Z</time></trkpt><trkpt lat="50.40713843806704" lon="3.4431605394102256"><ele>27.5</ele><time>2026-04-11T14:23:40Z</time></trkpt><trkpt lat="50.40710700925507" lon="3.4432863041906336"><ele>28.0</ele><time>2026-04-11T14:23:42Z</time></trkpt><trkpt lat="50.40706700539156" lon="3.443410622725965"><ele>28.499999999999996</ele><time>2026-04-11T14:23:44Z</time></trkpt><trkpt lat="50.40703288016901" lon="3.443542389047049"><ele>29.0</ele><time>2026-04-11T14:23:46Z</time></trkpt><trkpt lat="50.40699300277836" lon="3.4436640525040088"><ele>29.0</ele><time>2026-04-11T14:23:48Z</time></trkpt><trkpt lat="50.40695709929813" lon="3.4437885657505385"><ele>29.0</ele><time>2026-04-11T14:23:49.999Z</time></trkpt><trkpt lat="50.40693129751107" lon="3.443930323445438"><ele>29.0</ele><time>2026-04-11T14:23:51.999Z</time></trkpt><trkpt lat="50.406886658787265" lon="3.4440625968902046"><ele>29.0</ele><time>2026-04-11T14:23:53.999Z</time></trkpt><trkpt lat="50.40684330393225" lon="3.444197007929305"><ele>29.0</ele><time>2026-04-11T14:23:55.999Z</time></trkpt><trkpt lat="50.4068057378159" lon="3.4443282836725784"><ele>29.166666666666664</ele><time>2026-04-11T14:23:57.999Z</time></trkpt><trkpt lat="50.4067660653887" lon="3.4444555845464775"><ele>29.333333333333332</ele><time>2026-04-11T14:23:59.999Z</time></trkpt><trkpt lat="50.406726530964264" lon="3.4445824591316305"><ele>29.5</ele><time>2026-04-11T14:24:01.999Z</time></trkpt><trkpt lat="50.406688296775854" lon="3.4446999196177464"><ele>29.666666666666664</ele><time>2026-04-11T14:24:03.999Z</time></trkpt><trkpt lat="50.40665959884728" lon="3.444834141932904"><ele>29.833333333333332</ele><time>2026-04-11T14:24:05.999Z</time></trkpt><trkpt lat="50.406618119415405" lon="3.444963043284846"><ele>30.0</ele><time>2026-04-11T14:24:07.999Z</time></trkpt><trkpt lat="50.40657950041484" lon="3.445088462177992"><ele>30.0</ele><time>2026-04-11T14:24:09.999Z</time></trkpt><trkpt lat="50.406541712553334" lon="3.445219020548043"><ele>30.0</ele><time>2026-04-11T14:24:11.999Z</time></trkpt><trkpt lat="50.40650549606917" lon="3.4453518061964554"><ele>30.0</ele><time>2026-04-11T14:24:13.999Z</time></trkpt><trkpt lat="50.40646566110477" lon="3.4454805057703948"><ele>30.0</ele><time>2026-04-11T14:24:15.999Z</time></trkpt><trkpt lat="50.40643571178073" lon="3.445608484180777"><ele>30.0</ele><time>2026-04-11T14:24:17.999Z</time></trkpt><trkpt lat="50.40639336281561" lon="3.4457339396652222"><ele>30.0</ele><time>2026-04-11T14:24:19.999Z</time></trkpt><trkpt lat="50.40634811915629" lon="3.445859408439725"><ele>30.0</ele><time>2026-04-11T14:24:22Z</time></trkpt><trkpt lat="50.40631698426464" lon="3.4460110761991265"><ele>30.0</ele><time>2026-04-11T14:24:24Z</time></trkpt><trkpt lat="50.40627743882323" lon="3.446144293955117"><ele>30.0</ele><time>2026-04-11T14:24:26Z</time></trkpt><trkpt lat="50.406238072336805" lon="3.4462893190198196"><ele>30.0</ele><time>2026-04-11T14:24:28Z</time></trkpt><trkpt lat="50.40619527670632" lon="3.446424072145891"><ele>29.8</ele><time>2026-04-11T14:24:30Z</time></trkpt><trkpt lat="50.4061618990909" lon="3.4465700646417314"><ele>29.6</ele><time>2026-04-11T14:24:32Z</time></trkpt><trkpt lat="50.406123557655285" lon="3.446699109955518"><ele>29.4</ele><time>2026-04-11T14:24:34Z</time></trkpt><trkpt lat="50.40608325926233" lon="3.446824408766817"><ele>29.2</ele><time>2026-04-11T14:24:36Z</time></trkpt><trkpt lat="50.40604487422321" lon="3.4469757675601707"><ele>29.0</ele><time>2026-04-11T14:24:38Z</time></trkpt><trkpt lat="50.40599919019608" lon="3.447116784732106"><ele>28.6</ele><time>2026-04-11T14:24:40Z</time></trkpt><trkpt lat="50.40594927965076" lon="3.4472436702944345"><ele>28.2</ele><time>2026-04-11T14:24:42Z</time></trkpt><trkpt lat="50.405908115778935" lon="3.447393738262886"><ele>27.800000000000004</ele><time>2026-04-11T14:24:44Z</time></trkpt><trkpt lat="50.40586481381484" lon="3.4475387293065842"><ele>27.400000000000002</ele><time>2026-04-11T14:24:46Z</time></trkpt><trkpt lat="50.40582673672699" lon="3.4476932482868645"><ele>27.0</ele><time>2026-04-11T14:24:48Z</time></trkpt><trkpt lat="50.40578566071121" lon="3.4478369724894997"><ele>27.200000000000003</ele><time>2026-04-11T14:24:50Z</time></trkpt><trkpt lat="50.40574930556144" lon="3.447984103375079"><ele>27.400000000000002</ele><time>2026-04-11T14:24:52Z</time></trkpt><trkpt lat="50.40571270012497" lon="3.4481116256424778"><ele>27.599999999999998</ele><time>2026-04-11T14:24:54Z</time></trkpt><trkpt lat="50.405673877789646" lon="3.4482672992729064"><ele>27.799999999999997</ele><time>2026-04-11T14:24:56Z</time></trkpt><trkpt lat="50.405635374773254" lon="3.448405472993474"><ele>28.0</ele><time>2026-04-11T14:24:58Z</time></trkpt><trkpt lat="50.40558882973666" lon="3.4485477991424123"><ele>28.0</ele><time>2026-04-11T14:25:00Z</time></trkpt><trkpt lat="50.40555188539925" lon="3.448683740680179"><ele>27.999999999999996</ele><time>2026-04-11T14:25:02Z</time></trkpt><trkpt lat="50.40551540535969" lon="3.4488451290021196"><ele>27.999999999999996</ele><time>2026-04-11T14:25:04Z</time></trkpt><trkpt lat="50.40546994984869" lon="3.44898845789792"><ele>28.0</ele><time>2026-04-11T14:25:06Z</time></trkpt><trkpt lat="50.405426214687964" lon="3.4491313407703603"><ele>28.0</ele><time>2026-04-11T14:25:08Z</time></trkpt><trkpt lat="50.40538220610438" lon="3.4492783477890616"><ele>27.799999999999997</ele><time>2026-04-11T14:25:10Z</time></trkpt><trkpt lat="50.40533707856757" lon="3.4494152112978527"><ele>27.599999999999998</ele><time>2026-04-11T14:25:12Z</time></trkpt><trkpt lat="50.40533149856702" lon="3.4495225838312407"><ele>27.400000000000002</ele><time>2026-04-11T14:25:16Z</time></trkpt><trkpt lat="50.40528573487741" lon="3.4496315239940505"><ele>27.200000000000003</ele><time>2026-04-11T14:25:18Z</time></trkpt><trkpt lat="50.40522723393974" lon="3.44976441994637"><ele>27.0</ele><time>2026-04-11T14:25:20Z</time></trkpt><trkpt lat="50.40518320952692" lon="3.4499036623933046"><ele>27.0</ele><time>2026-04-11T14:25:22Z</time></trkpt><trkpt lat="50.40515632687832" lon="3.450000700571509"><ele>27.000000000000004</ele><time>2026-04-11T14:25:24Z</time></trkpt><trkpt lat="50.405126136881734" lon="3.4501057159512976"><ele>27.000000000000004</ele><time>2026-04-11T14:25:26Z</time></trkpt><trkpt lat="50.405083426494514" lon="3.450232724198699"><ele>27.0</ele><time>2026-04-11T14:25:28Z</time></trkpt><trkpt lat="50.405039171739524" lon="3.4503802206114726"><ele>27.0</ele><time>2026-04-11T14:25:30Z</time></trkpt><trkpt lat="50.404999250535774" lon="3.45057385320443"><ele>27.166666666666668</ele><time>2026-04-11T14:25:32Z</time></trkpt><trkpt lat="50.40496505955227" lon="3.450664106686805"><ele>27.333333333333336</ele><time>2026-04-11T14:25:34Z</time></trkpt><trkpt lat="50.40491809012481" lon="3.450812374254159"><ele>27.5</ele><time>2026-04-11T14:25:36Z</time></trkpt><trkpt lat="50.404881314806275" lon="3.450948957752815"><ele>27.666666666666668</ele><time>2026-04-11T14:25:38Z</time></trkpt><trkpt lat="50.40484130277499" lon="3.4510694742119465"><ele>27.833333333333336</ele><time>2026-04-11T14:25:40Z</time></trkpt><trkpt lat="50.40480008091053" lon="3.451191888617569"><ele>28.0</ele><time>2026-04-11T14:25:42Z</time></trkpt><trkpt lat="50.404760779269964" lon="3.451328451617848"><ele>28.0</ele><time>2026-04-11T14:25:44Z</time></trkpt><trkpt lat="50.40472639928804" lon="3.451474445417557"><ele>27.999999999999996</ele><time>2026-04-11T14:25:46Z</time></trkpt><trkpt lat="50.404678880723914" lon="3.451624116199883"><ele>27.999999999999996</ele><time>2026-04-11T14:25:48Z</time></trkpt><trkpt lat="50.40463219780037" lon="3.451774322033242"><ele>28.0</ele><time>2026-04-11T14:25:50Z</time></trkpt><trkpt lat="50.40458934845567" lon="3.451926214471124"><ele>28.0</ele><time>2026-04-11T14:25:52Z</time></trkpt><trkpt lat="50.40454815525233" lon="3.452077077414529"><ele>27.75</ele><time>2026-04-11T14:25:54Z</time></trkpt><trkpt lat="50.4044991263427" lon="3.452247473536679"><ele>27.5</ele><time>2026-04-11T14:25:56Z</time></trkpt><trkpt lat="50.40444806101645" lon="3.4524087960994168"><ele>27.25</ele><time>2026-04-11T14:25:58Z</time></trkpt><trkpt lat="50.40440414381508" lon="3.452581061872974"><ele>27.0</ele><time>2026-04-11T14:26:00Z</time></trkpt><trkpt lat="50.40435192610902" lon="3.452742801815705"><ele>27.0</ele><time>2026-04-11T14:26:02Z</time></trkpt><trkpt lat="50.404304010425435" lon="3.4528926736692322"><ele>27.000000000000004</ele><time>2026-04-11T14:26:04Z</time></trkpt><trkpt lat="50.40426639431652" lon="3.453052176189489"><ele>27.000000000000004</ele><time>2026-04-11T14:26:06Z</time></trkpt><trkpt lat="50.40421884691119" lon="3.4532088088931676"><ele>27.0</ele><time>2026-04-11T14:26:08Z</time></trkpt><trkpt lat="50.40417629296457" lon="3.453363318589894"><ele>27.0</ele><time>2026-04-11T14:26:10Z</time></trkpt><trkpt lat="50.40412202272561" lon="3.4535096192544645"><ele>27.200000000000003</ele><time>2026-04-11T14:26:12Z</time></trkpt><trkpt lat="50.40407724246325" lon="3.4536650915694014"><ele>27.400000000000002</ele><time>2026-04-11T14:26:14Z</time></trkpt><trkpt lat="50.404033737946065" lon="3.453812788392689"><ele>27.599999999999998</ele><time>2026-04-11T14:26:16Z</time></trkpt><trkpt lat="50.4039933642182" lon="3.4539680823580996"><ele>27.799999999999997</ele><time>2026-04-11T14:26:18Z</time></trkpt><trkpt lat="50.40394671967836" lon="3.4540982092876154"><ele>28.0</ele><time>2026-04-11T14:26:20Z</time></trkpt><trkpt lat="50.403903404949105" lon="3.45425071395862"><ele>28.2</ele><time>2026-04-11T14:26:22Z</time></trkpt><trkpt lat="50.40385984110204" lon="3.4543930080635468"><ele>28.4</ele><time>2026-04-11T14:26:24Z</time></trkpt><trkpt lat="50.403816979588996" lon="3.4545502888423356"><ele>28.599999999999998</ele><time>2026-04-11T14:26:26Z</time></trkpt><trkpt lat="50.4037719967122" lon="3.454690833393093"><ele>28.799999999999997</ele><time>2026-04-11T14:26:28Z</time></trkpt><trkpt lat="50.40372996110224" lon="3.454840958014483"><ele>29.0</ele><time>2026-04-11T14:26:30Z</time></trkpt><trkpt lat="50.40368455451765" lon="3.4550016744603225"><ele>29.0</ele><time>2026-04-11T14:26:32Z</time></trkpt><trkpt lat="50.40364419904281" lon="3.455151062782993"><ele>29.0</ele><time>2026-04-11T14:26:34Z</time></trkpt><trkpt lat="50.40360378809437" lon="3.4553051551090808"><ele>29.0</ele><time>2026-04-11T14:26:36Z</time></trkpt><trkpt lat="50.403556682127984" lon="3.455447310456096"><ele>29.0</ele><time>2026-04-11T14:26:38Z</time></trkpt><trkpt lat="50.403513161504215" lon="3.455583678683888"><ele>29.0</ele><time>2026-04-11T14:26:40Z</time></trkpt><trkpt lat="50.40346673239436" lon="3.455722919077232"><ele>29.0</ele><time>2026-04-11T14:26:42Z</time></trkpt><trkpt lat="50.40343520998485" lon="3.4558730822220034"><ele>29.0</ele><time>2026-04-11T14:26:44Z</time></trkpt><trkpt lat="50.40338735772086" lon="3.456014577603272"><ele>29.0</ele><time>2026-04-11T14:26:46Z</time></trkpt><trkpt lat="50.40334874080335" lon="3.4561652907495906"><ele>29.0</ele><time>2026-04-11T14:26:48Z</time></trkpt><trkpt lat="50.40330708359268" lon="3.4563088118121965"><ele>29.0</ele><time>2026-04-11T14:26:50Z</time></trkpt><trkpt lat="50.403262280460396" lon="3.4564437585747716"><ele>29.0</ele><time>2026-04-11T14:26:52Z</time></trkpt><trkpt lat="50.40322864222915" lon="3.456585640624576"><ele>29.0</ele><time>2026-04-11T14:26:54Z</time></trkpt><trkpt lat="50.403201043783554" lon="3.456726452456209"><ele>29.0</ele><time>2026-04-11T14:26:56Z</time></trkpt><trkpt lat="50.403159674402794" lon="3.4568488077790946"><ele>29.0</ele><time>2026-04-11T14:26:58Z</time></trkpt><trkpt lat="50.40311459254094" lon="3.4569664611451"><ele>29.0</ele><time>2026-04-11T14:27:00Z</time></trkpt><trkpt lat="50.40307860690238" lon="3.4570920111316714"><ele>28.833333333333332</ele><time>2026-04-11T14:27:02Z</time></trkpt><trkpt lat="50.40304906160804" lon="3.4572391552175428"><ele>28.666666666666664</ele><time>2026-04-11T14:27:04Z</time></trkpt><trkpt lat="50.403009255404406" lon="3.4573503375213943"><ele>28.5</ele><time>2026-04-11T14:27:06Z</time></trkpt><trkpt lat="50.402964158855525" lon="3.4574673331032333"><ele>28.333333333333336</ele><time>2026-04-11T14:27:08Z</time></trkpt><trkpt lat="50.40293024147543" lon="3.4575868429813097"><ele>28.166666666666668</ele><time>2026-04-11T14:27:10Z</time></trkpt><trkpt lat="50.40290090264613" lon="3.4577238800273613"><ele>28.0</ele><time>2026-04-11T14:27:12Z</time></trkpt><trkpt lat="50.40286320790048" lon="3.4578549376338663"><ele>27.166666666666668</ele><time>2026-04-11T14:27:14Z</time></trkpt><trkpt lat="50.40282196364527" lon="3.4579856599844767"><ele>26.333333333333336</ele><time>2026-04-11T14:27:16Z</time></trkpt><trkpt lat="50.40278002949902" lon="3.458113872620389"><ele>25.5</ele><time>2026-04-11T14:27:18Z</time></trkpt><trkpt lat="50.40272931770197" lon="3.4581907478584495"><ele>24.666666666666668</ele><time>2026-04-11T14:27:20Z</time></trkpt><trkpt lat="50.40267707982412" lon="3.458254547782482"><ele>23.833333333333336</ele><time>2026-04-11T14:27:22Z</time></trkpt><trkpt lat="50.40261029977984" lon="3.4582634852122265"><ele>23.0</ele><time>2026-04-11T14:27:24Z</time></trkpt><trkpt lat="50.40264776839687" lon="3.458436175596288"><ele>23.0</ele><time>2026-04-11T14:27:25Z</time></trkpt><trkpt lat="50.40263992401624" lon="3.4585678811084897"><ele>23.0</ele><time>2026-04-11T14:27:27Z</time></trkpt><trkpt lat="50.40260641337521" lon="3.458693728797092"><ele>23.0</ele><time>2026-04-11T14:27:29Z</time></trkpt><trkpt lat="50.402566444977296" lon="3.4588152692157856"><ele>23.0</ele><time>2026-04-11T14:27:31Z</time></trkpt><trkpt lat="50.40252713342987" lon="3.458935682176788"><ele>23.0</ele><time>2026-04-11T14:27:33Z</time></trkpt><trkpt lat="50.40249811293584" lon="3.4590720010260188"><ele>23.0</ele><time>2026-04-11T14:27:35Z</time></trkpt><trkpt lat="50.40245340834308" lon="3.459193742520483"><ele>23.0</ele><time>2026-04-11T14:27:37Z</time></trkpt><trkpt lat="50.402415274334736" lon="3.459327432628908"><ele>23.0</ele><time>2026-04-11T14:27:39Z</time></trkpt><trkpt lat="50.40237488313485" lon="3.4594626229053893"><ele>23.0</ele><time>2026-04-11T14:27:41Z</time></trkpt><trkpt lat="50.40233640027088" lon="3.4596041616032323"><ele>23.0</ele><time>2026-04-11T14:27:43Z</time></trkpt><trkpt lat="50.40229960735768" lon="3.4597517411858645"><ele>23.0</ele><time>2026-04-11T14:27:45Z</time></trkpt><trkpt lat="50.40225358644671" lon="3.459887473350298"><ele>23.0</ele><time>2026-04-11T14:27:47Z</time></trkpt><trkpt lat="50.40221105732783" lon="3.4600283788235475"><ele>23.0</ele><time>2026-04-11T14:27:49Z</time></trkpt><trkpt lat="50.402165786651636" lon="3.460168982236994"><ele>23.0</ele><time>2026-04-11T14:27:51Z</time></trkpt><trkpt lat="50.40212394861563" lon="3.460311586544694"><ele>23.0</ele><time>2026-04-11T14:27:53Z</time></trkpt><trkpt lat="50.40208439388082" lon="3.4604575719934343"><ele>23.0</ele><time>2026-04-11T14:27:55Z</time></trkpt><trkpt lat="50.40204184571606" lon="3.4605961450329876"><ele>23.0</ele><time>2026-04-11T14:27:57Z</time></trkpt><trkpt lat="50.402004991583944" lon="3.46073231591542"><ele>23.0</ele><time>2026-04-11T14:27:59Z</time></trkpt><trkpt lat="50.40197595253605" lon="3.460860015223528"><ele>23.0</ele><time>2026-04-11T14:28:01Z</time></trkpt><trkpt lat="50.4019579137464" lon="3.460983688270507"><ele>23.0</ele><time>2026-04-11T14:28:03Z</time></trkpt><trkpt lat="50.401954490191095" lon="3.4611178727132996"><ele>23.0</ele><time>2026-04-11T14:28:06Z</time></trkpt><trkpt lat="50.40185199114307" lon="3.4612399576765043"><ele>22.799999999999997</ele><time>2026-04-11T14:28:09Z</time></trkpt><trkpt lat="50.40176200877068" lon="3.4612860482571417"><ele>22.6</ele><time>2026-04-11T14:28:11Z</time></trkpt><trkpt lat="50.40167440427106" lon="3.4613460484032883"><ele>22.4</ele><time>2026-04-11T14:28:13Z</time></trkpt><trkpt lat="50.401582362095326" lon="3.461409555522584"><ele>22.200000000000003</ele><time>2026-04-11T14:28:15Z</time></trkpt><trkpt lat="50.401489948891786" lon="3.46147873440751"><ele>22.0</ele><time>2026-04-11T14:28:16.999Z</time></trkpt><trkpt lat="50.40139993138612" lon="3.4615405625744855"><ele>22.0</ele><time>2026-04-11T14:28:18.999Z</time></trkpt><trkpt lat="50.40130644182099" lon="3.4616005119300017"><ele>22.0</ele><time>2026-04-11T14:28:20.999Z</time></trkpt><trkpt lat="50.401216909689374" lon="3.4616662633056605"><ele>22.0</ele><time>2026-04-11T14:28:22.999Z</time></trkpt><trkpt lat="50.40112324281339" lon="3.4617333608838923"><ele>22.0</ele><time>2026-04-11T14:28:25Z</time></trkpt><trkpt lat="50.401026580957584" lon="3.461803635308872"><ele>22.0</ele><time>2026-04-11T14:28:27Z</time></trkpt><trkpt lat="50.40093116158251" lon="3.4618689531089113"><ele>22.0</ele><time>2026-04-11T14:28:29Z</time></trkpt><trkpt lat="50.40083600676239" lon="3.4619258295517286"><ele>22.0</ele><time>2026-04-11T14:28:31Z</time></trkpt><trkpt lat="50.400740163107955" lon="3.4619904605086336"><ele>22.0</ele><time>2026-04-11T14:28:33Z</time></trkpt><trkpt lat="50.40064144359988" lon="3.4620569922088635"><ele>22.0</ele><time>2026-04-11T14:28:35Z</time></trkpt><trkpt lat="50.400542429589336" lon="3.4621300284480476"><ele>22.0</ele><time>2026-04-11T14:28:37Z</time></trkpt><trkpt lat="50.400442676038814" lon="3.4621941727093737"><ele>22.25</ele><time>2026-04-11T14:28:39Z</time></trkpt><trkpt lat="50.4003400513107" lon="3.4622597750342647"><ele>22.5</ele><time>2026-04-11T14:28:41Z</time></trkpt><trkpt lat="50.40023531649454" lon="3.462324739780871"><ele>22.75</ele><time>2026-04-11T14:28:43Z</time></trkpt><trkpt lat="50.40012905980634" lon="3.462396260210246"><ele>23.0</ele><time>2026-04-11T14:28:45Z</time></trkpt><trkpt lat="50.40002180580731" lon="3.462476055695684"><ele>23.0</ele><time>2026-04-11T14:28:47Z</time></trkpt><trkpt lat="50.39996505792637" lon="3.4625210034521636"><ele>23.0</ele><time>2026-04-11T14:28:48Z</time></trkpt><trkpt lat="50.39990716170362" lon="3.4625639616561648"><ele>23.0</ele><time>2026-04-11T14:28:49Z</time></trkpt><trkpt lat="50.39985142405335" lon="3.4626172193708378"><ele>23.0</ele><time>2026-04-11T14:28:50Z</time></trkpt><trkpt lat="50.39975203326891" lon="3.4627105060409242"><ele>23.0</ele><time>2026-04-11T14:28:52Z</time></trkpt><trkpt lat="50.3996534482586" lon="3.462816868602217"><ele>23.0</ele><time>2026-04-11T14:28:54Z</time></trkpt><trkpt lat="50.3995598904506" lon="3.4629282519710283"><ele>22.75</ele><time>2026-04-11T14:28:56Z</time></trkpt><trkpt lat="50.39946889808804" lon="3.463055504289991"><ele>22.5</ele><time>2026-04-11T14:28:58Z</time></trkpt><trkpt lat="50.399373371382474" lon="3.463179745216322"><ele>22.25</ele><time>2026-04-11T14:29:00Z</time></trkpt><trkpt lat="50.399272901793005" lon="3.4632880512914217"><ele>22.0</ele><time>2026-04-11T14:29:02Z</time></trkpt><trkpt lat="50.39918368711325" lon="3.4634195970549495"><ele>22.0</ele><time>2026-04-11T14:29:04Z</time></trkpt><trkpt lat="50.39908873670748" lon="3.463530711571006"><ele>22.0</ele><time>2026-04-11T14:29:06Z</time></trkpt><trkpt lat="50.39900797480217" lon="3.463658859165325"><ele>22.0</ele><time>2026-04-11T14:29:08Z</time></trkpt><trkpt lat="50.3989087323917" lon="3.4637402836338205"><ele>22.0</ele><time>2026-04-11T14:29:10Z</time></trkpt><trkpt lat="50.398827465476884" lon="3.4638398928328913"><ele>22.0</ele><time>2026-04-11T14:29:12Z</time></trkpt><trkpt lat="50.3987782884017" lon="3.463903381295768"><ele>21.8</ele><time>2026-04-11T14:29:13Z</time></trkpt><trkpt lat="50.39872658964288" lon="3.4639636855551954"><ele>21.6</ele><time>2026-04-11T14:29:14Z</time></trkpt><trkpt lat="50.39864493108831" lon="3.4640702679946256"><ele>21.400000000000002</ele><time>2026-04-11T14:29:16Z</time></trkpt><trkpt lat="50.39855915079957" lon="3.4641884108041188"><ele>21.200000000000003</ele><time>2026-04-11T14:29:18Z</time></trkpt><trkpt lat="50.39847258263879" lon="3.464295629596886"><ele>21.0</ele><time>2026-04-11T14:29:20Z</time></trkpt><trkpt lat="50.398382598395266" lon="3.4644026690849485"><ele>21.0</ele><time>2026-04-11T14:29:22Z</time></trkpt><trkpt lat="50.398287954715876" lon="3.4645112030249114"><ele>21.0</ele><time>2026-04-11T14:29:24Z</time></trkpt><trkpt lat="50.398201291715075" lon="3.4646177595549106"><ele>21.0</ele><time>2026-04-11T14:29:26Z</time></trkpt><trkpt lat="50.39811875749518" lon="3.4647276905474578"><ele>21.0</ele><time>2026-04-11T14:29:28Z</time></trkpt><trkpt lat="50.398032065909725" lon="3.464827905262587"><ele>21.0</ele><time>2026-04-11T14:29:30Z</time></trkpt><trkpt lat="50.39794715854432" lon="3.464935209504478"><ele>21.0</ele><time>2026-04-11T14:29:32Z</time></trkpt><trkpt lat="50.397865061051846" lon="3.465045292138761"><ele>21.0</ele><time>2026-04-11T14:29:34Z</time></trkpt><trkpt lat="50.397781950057" lon="3.4651405813507172"><ele>21.0</ele><time>2026-04-11T14:29:36Z</time></trkpt><trkpt lat="50.3977052632218" lon="3.465243133289376"><ele>21.0</ele><time>2026-04-11T14:29:38Z</time></trkpt><trkpt lat="50.39762190847997" lon="3.465341571457492"><ele>21.0</ele><time>2026-04-11T14:29:40Z</time></trkpt><trkpt lat="50.39754019730175" lon="3.4654356015816004"><ele>20.8</ele><time>2026-04-11T14:29:42Z</time></trkpt><trkpt lat="50.397457768097176" lon="3.465531124137751"><ele>20.6</ele><time>2026-04-11T14:29:44Z</time></trkpt><trkpt lat="50.39738650897901" lon="3.4656296298228395"><ele>20.4</ele><time>2026-04-11T14:29:46Z</time></trkpt><trkpt lat="50.39730832449047" lon="3.465727458563018"><ele>20.2</ele><time>2026-04-11T14:29:48Z</time></trkpt><trkpt lat="50.39723318255764" lon="3.4658304892636234"><ele>20.0</ele><time>2026-04-11T14:29:50Z</time></trkpt><trkpt lat="50.3971564748637" lon="3.465921316470428"><ele>20.0</ele><time>2026-04-11T14:29:52Z</time></trkpt><trkpt lat="50.397077218245265" lon="3.4660185123018388"><ele>20.0</ele><time>2026-04-11T14:29:54Z</time></trkpt><trkpt lat="50.396998624486265" lon="3.4661207836151138"><ele>20.0</ele><time>2026-04-11T14:29:56Z</time></trkpt><trkpt lat="50.39691591215968" lon="3.4662106290546606"><ele>20.0</ele><time>2026-04-11T14:29:58Z</time></trkpt><trkpt lat="50.39683404355531" lon="3.466315595112589"><ele>20.0</ele><time>2026-04-11T14:30:00Z</time></trkpt><trkpt lat="50.3967550810797" lon="3.4664157309559593"><ele>20.2</ele><time>2026-04-11T14:30:02Z</time></trkpt><trkpt lat="50.39667429052838" lon="3.466519508909737"><ele>20.4</ele><time>2026-04-11T14:30:04Z</time></trkpt><trkpt lat="50.396597963173264" lon="3.4666167333270885"><ele>20.6</ele><time>2026-04-11T14:30:06Z</time></trkpt><trkpt lat="50.3965193032892" lon="3.466719006012226"><ele>20.8</ele><time>2026-04-11T14:30:08Z</time></trkpt><trkpt lat="50.396443218342554" lon="3.466809687988174"><ele>21.0</ele><time>2026-04-11T14:30:10Z</time></trkpt><trkpt lat="50.39635581805613" lon="3.466904510449207"><ele>21.0</ele><time>2026-04-11T14:30:12Z</time></trkpt><trkpt lat="50.39627088818297" lon="3.4669763188493268"><ele>21.0</ele><time>2026-04-11T14:30:14Z</time></trkpt><trkpt lat="50.396171584157464" lon="3.467079324361536"><ele>21.0</ele><time>2026-04-11T14:30:16Z</time></trkpt><trkpt lat="50.39610213858254" lon="3.467180244781145"><ele>21.0</ele><time>2026-04-11T14:30:18Z</time></trkpt><trkpt lat="50.39602958417786" lon="3.4672734332422195"><ele>21.0</ele><time>2026-04-11T14:30:20Z</time></trkpt><trkpt lat="50.39595418491228" lon="3.4673678833372628"><ele>21.0</ele><time>2026-04-11T14:30:22Z</time></trkpt><trkpt lat="50.39587650428315" lon="3.4674753160592173"><ele>21.0</ele><time>2026-04-11T14:30:24Z</time></trkpt><trkpt lat="50.39580059459363" lon="3.467560937900851"><ele>21.0</ele><time>2026-04-11T14:30:26Z</time></trkpt><trkpt lat="50.39573079982936" lon="3.467649450697801"><ele>21.0</ele><time>2026-04-11T14:30:28Z</time></trkpt><trkpt lat="50.3956511694414" lon="3.4677461322603684"><ele>21.0</ele><time>2026-04-11T14:30:30Z</time></trkpt><trkpt lat="50.395567962097346" lon="3.4678465791572695"><ele>21.0</ele><time>2026-04-11T14:30:32Z</time></trkpt><trkpt lat="50.39549381552834" lon="3.467940500374493"><ele>21.0</ele><time>2026-04-11T14:30:34Z</time></trkpt><trkpt lat="50.39541774651478" lon="3.468021921050609"><ele>21.0</ele><time>2026-04-11T14:30:36Z</time></trkpt><trkpt lat="50.39534325616425" lon="3.4681145649877707"><ele>21.0</ele><time>2026-04-11T14:30:38Z</time></trkpt><trkpt lat="50.39526771267654" lon="3.4682196531521132"><ele>21.0</ele><time>2026-04-11T14:30:40Z</time></trkpt><trkpt lat="50.39518803946732" lon="3.4683155573969002"><ele>21.0</ele><time>2026-04-11T14:30:42Z</time></trkpt><trkpt lat="50.395106809155976" lon="3.4684022288150036"><ele>21.0</ele><time>2026-04-11T14:30:44Z</time></trkpt><trkpt lat="50.39502594610679" lon="3.468479842616259"><ele>21.0</ele><time>2026-04-11T14:30:46Z</time></trkpt><trkpt lat="50.39495749608166" lon="3.468584671576103"><ele>21.0</ele><time>2026-04-11T14:30:48Z</time></trkpt><trkpt lat="50.39487991084963" lon="3.468674710411301"><ele>21.0</ele><time>2026-04-11T14:30:50Z</time></trkpt><trkpt lat="50.39480825722227" lon="3.4687713711761954"><ele>21.333333333333332</ele><time>2026-04-11T14:30:52Z</time></trkpt><trkpt lat="50.39474394004546" lon="3.4688494160559236"><ele>21.666666666666668</ele><time>2026-04-11T14:30:54Z</time></trkpt><trkpt lat="50.39467579219654" lon="3.4689414987516507"><ele>22.0</ele><time>2026-04-11T14:30:56Z</time></trkpt><trkpt lat="50.394612088382885" lon="3.469036416858562"><ele>22.333333333333336</ele><time>2026-04-11T14:30:58Z</time></trkpt><trkpt lat="50.39454543704706" lon="3.4691315845925486"><ele>22.666666666666668</ele><time>2026-04-11T14:31:00Z</time></trkpt><trkpt lat="50.3944711632705" lon="3.4692185349398224"><ele>23.0</ele><time>2026-04-11T14:31:02Z</time></trkpt><trkpt lat="50.394398392628645" lon="3.4693157729201105"><ele>23.2</ele><time>2026-04-11T14:31:04Z</time></trkpt><trkpt lat="50.394313978180286" lon="3.469401845938989"><ele>23.4</ele><time>2026-04-11T14:31:06Z</time></trkpt><trkpt lat="50.394232871370974" lon="3.4694971429259445"><ele>23.599999999999998</ele><time>2026-04-11T14:31:08Z</time></trkpt><trkpt lat="50.39415558303629" lon="3.4695953394591945"><ele>23.799999999999997</ele><time>2026-04-11T14:31:10Z</time></trkpt><trkpt lat="50.39408031196099" lon="3.469694551575673"><ele>24.0</ele><time>2026-04-11T14:31:12Z</time></trkpt><trkpt lat="50.39400733738009" lon="3.4698052877378767"><ele>24.0</ele><time>2026-04-11T14:31:14Z</time></trkpt><trkpt lat="50.39393683477497" lon="3.469910756890798"><ele>24.0</ele><time>2026-04-11T14:31:16Z</time></trkpt><trkpt lat="50.393883998935806" lon="3.470026712931448"><ele>24.0</ele><time>2026-04-11T14:31:18Z</time></trkpt><trkpt lat="50.39382510386172" lon="3.4701667835289802"><ele>24.0</ele><time>2026-04-11T14:31:20Z</time></trkpt><trkpt lat="50.39377537814584" lon="3.470306855816209"><ele>24.0</ele><time>2026-04-11T14:31:22Z</time></trkpt><trkpt lat="50.39372583259948" lon="3.470443832645384"><ele>24.4</ele><time>2026-04-11T14:31:24Z</time></trkpt><trkpt lat="50.393682170429756" lon="3.470596610089201"><ele>24.799999999999997</ele><time>2026-04-11T14:31:26Z</time></trkpt><trkpt lat="50.39363321312925" lon="3.4707247685140694"><ele>25.200000000000003</ele><time>2026-04-11T14:31:28Z</time></trkpt><trkpt lat="50.39357753670647" lon="3.470860310365836"><ele>25.6</ele><time>2026-04-11T14:31:30Z</time></trkpt><trkpt lat="50.39352571075721" lon="3.4710032639684507"><ele>26.0</ele><time>2026-04-11T14:31:32Z</time></trkpt><trkpt lat="50.393478257548445" lon="3.471157017762077"><ele>26.0</ele><time>2026-04-11T14:31:34Z</time></trkpt><trkpt lat="50.393428765093326" lon="3.471289862886527"><ele>26.0</ele><time>2026-04-11T14:31:36Z</time></trkpt><trkpt lat="50.39338275064092" lon="3.4714347031323167"><ele>26.0</ele><time>2026-04-11T14:31:38Z</time></trkpt><trkpt lat="50.3933360932358" lon="3.4715636283211966"><ele>26.0</ele><time>2026-04-11T14:31:40Z</time></trkpt><trkpt lat="50.393289233908355" lon="3.471695682902015"><ele>26.0</ele><time>2026-04-11T14:31:42Z</time></trkpt><trkpt lat="50.39323959418187" lon="3.471835757218347"><ele>26.0</ele><time>2026-04-11T14:31:44Z</time></trkpt><trkpt lat="50.39320323842019" lon="3.471984464417556"><ele>26.0</ele><time>2026-04-11T14:31:46Z</time></trkpt><trkpt lat="50.39315950314494" lon="3.4721185949961426"><ele>26.0</ele><time>2026-04-11T14:31:48Z</time></trkpt><trkpt lat="50.393129617814495" lon="3.472273797022749"><ele>26.0</ele><time>2026-04-11T14:31:50Z</time></trkpt><trkpt lat="50.39310698241325" lon="3.472417072049596"><ele>26.0</ele><time>2026-04-11T14:31:52Z</time></trkpt><trkpt lat="50.393082169316585" lon="3.4725566231576033"><ele>25.8</ele><time>2026-04-11T14:31:54Z</time></trkpt><trkpt lat="50.39304419281569" lon="3.4726715775146793"><ele>25.6</ele><time>2026-04-11T14:31:56Z</time></trkpt><trkpt lat="50.393021011662384" lon="3.4728207747312196"><ele>25.4</ele><time>2026-04-11T14:31:58Z</time></trkpt><trkpt lat="50.39299764878207" lon="3.4729530844259235"><ele>25.2</ele><time>2026-04-11T14:32:00Z</time></trkpt><trkpt lat="50.39296954374944" lon="3.47309766629505"><ele>25.0</ele><time>2026-04-11T14:32:02Z</time></trkpt><trkpt lat="50.39295150413656" lon="3.4732421287507393"><ele>25.0</ele><time>2026-04-11T14:32:04Z</time></trkpt><trkpt lat="50.39291169917668" lon="3.4733736270649374"><ele>25.0</ele><time>2026-04-11T14:32:06Z</time></trkpt><trkpt lat="50.39288545011722" lon="3.4735182504720834"><ele>25.0</ele><time>2026-04-11T14:32:08Z</time></trkpt><trkpt lat="50.39286181629463" lon="3.473666372425191"><ele>25.0</ele><time>2026-04-11T14:32:10Z</time></trkpt><trkpt lat="50.392842972811984" lon="3.4737869217428483"><ele>25.0</ele><time>2026-04-11T14:32:12Z</time></trkpt><trkpt lat="50.39280930790779" lon="3.473931153825705"><ele>25.4</ele><time>2026-04-11T14:32:14Z</time></trkpt><trkpt lat="50.392773607942935" lon="3.4740740010299045"><ele>25.8</ele><time>2026-04-11T14:32:16Z</time></trkpt><trkpt lat="50.39274839349189" lon="3.47421116224864"><ele>26.200000000000003</ele><time>2026-04-11T14:32:18Z</time></trkpt><trkpt lat="50.39272557421233" lon="3.4743407453167263"><ele>26.6</ele><time>2026-04-11T14:32:20Z</time></trkpt><trkpt lat="50.39269863168441" lon="3.4744775870589115"><ele>27.0</ele><time>2026-04-11T14:32:22Z</time></trkpt><trkpt lat="50.39267690741142" lon="3.4746299634483218"><ele>27.200000000000003</ele><time>2026-04-11T14:32:24Z</time></trkpt><trkpt lat="50.392653273880924" lon="3.474766064945949"><ele>27.400000000000002</ele><time>2026-04-11T14:32:26Z</time></trkpt><trkpt lat="50.39262442122032" lon="3.4749090888657346"><ele>27.599999999999998</ele><time>2026-04-11T14:32:28Z</time></trkpt><trkpt lat="50.392590834089496" lon="3.475047846697642"><ele>27.799999999999997</ele><time>2026-04-11T14:32:30Z</time></trkpt><trkpt lat="50.3925937173972" lon="3.475183358265408"><ele>28.0</ele><time>2026-04-11T14:32:32Z</time></trkpt><trkpt lat="50.39257146947416" lon="3.475324705678378"><ele>28.0</ele><time>2026-04-11T14:32:34Z</time></trkpt><trkpt lat="50.39253831358035" lon="3.475448719992858"><ele>27.999999999999996</ele><time>2026-04-11T14:32:36Z</time></trkpt><trkpt lat="50.392500839367315" lon="3.4755909846475266"><ele>27.999999999999996</ele><time>2026-04-11T14:32:38Z</time></trkpt><trkpt lat="50.39246703655908" lon="3.4757236778586833"><ele>28.0</ele><time>2026-04-11T14:32:40Z</time></trkpt><trkpt lat="50.392445557588296" lon="3.475869791695083"><ele>28.0</ele><time>2026-04-11T14:32:42Z</time></trkpt><trkpt lat="50.39243303233403" lon="3.4760168531795324"><ele>28.0</ele><time>2026-04-11T14:32:44Z</time></trkpt><trkpt lat="50.39240062995423" lon="3.4761677786298013"><ele>27.999999999999996</ele><time>2026-04-11T14:32:46Z</time></trkpt><trkpt lat="50.39238568840125" lon="3.476317740764207"><ele>27.999999999999996</ele><time>2026-04-11T14:32:48Z</time></trkpt><trkpt lat="50.39234637263713" lon="3.4764618006370394"><ele>28.0</ele><time>2026-04-11T14:32:50Z</time></trkpt><trkpt lat="50.39231764847628" lon="3.476604672621182"><ele>28.0</ele><time>2026-04-11T14:32:52Z</time></trkpt><trkpt lat="50.39228928256051" lon="3.47674226349336"><ele>27.799999999999997</ele><time>2026-04-11T14:32:54Z</time></trkpt><trkpt lat="50.39226028475001" lon="3.4768923405390932"><ele>27.599999999999998</ele><time>2026-04-11T14:32:56Z</time></trkpt><trkpt lat="50.39223696866034" lon="3.477049756562912"><ele>27.400000000000002</ele><time>2026-04-11T14:32:58Z</time></trkpt><trkpt lat="50.39220137770318" lon="3.477192832755486"><ele>27.200000000000003</ele><time>2026-04-11T14:33:00Z</time></trkpt><trkpt lat="50.392186366213025" lon="3.477354693523529"><ele>27.0</ele><time>2026-04-11T14:33:02Z</time></trkpt><trkpt lat="50.39215330176932" lon="3.4775165081600075"><ele>27.0</ele><time>2026-04-11T14:33:04Z</time></trkpt><trkpt lat="50.39211970487094" lon="3.477644777462736"><ele>27.000000000000004</ele><time>2026-04-11T14:33:06Z</time></trkpt><trkpt lat="50.39208192148696" lon="3.4777959952801645"><ele>27.000000000000004</ele><time>2026-04-11T14:33:08Z</time></trkpt><trkpt lat="50.39205939110259" lon="3.477933624995698"><ele>27.0</ele><time>2026-04-11T14:33:10Z</time></trkpt><trkpt lat="50.392037058229754" lon="3.4780753122694814"><ele>27.0</ele><time>2026-04-11T14:33:12Z</time></trkpt><trkpt lat="50.39202934701162" lon="3.4782255370805055"><ele>27.0</ele><time>2026-04-11T14:33:14Z</time></trkpt><trkpt lat="50.39201211893674" lon="3.478388911674302"><ele>27.000000000000004</ele><time>2026-04-11T14:33:16Z</time></trkpt><trkpt lat="50.392003629642915" lon="3.478528171306475"><ele>27.000000000000004</ele><time>2026-04-11T14:33:18Z</time></trkpt><trkpt lat="50.392004667734106" lon="3.478663084852242"><ele>27.0</ele><time>2026-04-11T14:33:20Z</time></trkpt><trkpt lat="50.39199860740856" lon="3.4788162283469712"><ele>27.0</ele><time>2026-04-11T14:33:22Z</time></trkpt><trkpt lat="50.39199248547784" lon="3.4789617058620377"><ele>27.0</ele><time>2026-04-11T14:33:24Z</time></trkpt><trkpt lat="50.39199294543139" lon="3.4791198296571353"><ele>27.000000000000004</ele><time>2026-04-11T14:33:26Z</time></trkpt><trkpt lat="50.39197760007311" lon="3.4792792507773873"><ele>27.000000000000004</ele><time>2026-04-11T14:33:28Z</time></trkpt><trkpt lat="50.39197726828453" lon="3.4794472603544917"><ele>27.0</ele><time>2026-04-11T14:33:30Z</time></trkpt><trkpt lat="50.391978304616906" lon="3.4796113843124536"><ele>27.0</ele><time>2026-04-11T14:33:32Z</time></trkpt><trkpt lat="50.39197931327075" lon="3.479771344934172"><ele>27.0</ele><time>2026-04-11T14:33:34Z</time></trkpt><trkpt lat="50.39198069763743" lon="3.4799259884658413"><ele>27.000000000000004</ele><time>2026-04-11T14:33:36Z</time></trkpt><trkpt lat="50.39198199509412" lon="3.480083010595118"><ele>27.000000000000004</ele><time>2026-04-11T14:33:38Z</time></trkpt><trkpt lat="50.391998512728364" lon="3.4802360729505653"><ele>27.0</ele><time>2026-04-11T14:33:40Z</time></trkpt><trkpt lat="50.39199961928669" lon="3.4803995796595775"><ele>27.0</ele><time>2026-04-11T14:33:42Z</time></trkpt><trkpt lat="50.391986526419856" lon="3.4805618722182112"><ele>27.200000000000003</ele><time>2026-04-11T14:33:44Z</time></trkpt><trkpt lat="50.391987969647474" lon="3.480705713825747"><ele>27.400000000000002</ele><time>2026-04-11T14:33:46Z</time></trkpt><trkpt lat="50.39198951340012" lon="3.480857099122848"><ele>27.599999999999998</ele><time>2026-04-11T14:33:48Z</time></trkpt><trkpt lat="50.392005200374044" lon="3.4810261531341586"><ele>27.799999999999997</ele><time>2026-04-11T14:33:50Z</time></trkpt><trkpt lat="50.39198588077762" lon="3.4811855814457147"><ele>28.0</ele><time>2026-04-11T14:33:52Z</time></trkpt><trkpt lat="50.391948065081394" lon="3.481348769196627"><ele>28.25</ele><time>2026-04-11T14:33:54Z</time></trkpt><trkpt lat="50.39194587422225" lon="3.4815168697451906"><ele>28.5</ele><time>2026-04-11T14:33:56Z</time></trkpt><trkpt lat="50.39198885609103" lon="3.4816599056857798"><ele>28.75</ele><time>2026-04-11T14:33:58Z</time></trkpt><trkpt lat="50.39212777113978" lon="3.4816899400151224"><ele>29.0</ele><time>2026-04-11T14:34:00Z</time></trkpt><trkpt lat="50.392191794707294" lon="3.481828879045717"><ele>29.0</ele><time>2026-04-11T14:34:02Z</time></trkpt><trkpt lat="50.392249600181366" lon="3.481969763093685"><ele>29.0</ele><time>2026-04-11T14:34:04Z</time></trkpt><trkpt lat="50.39230952106171" lon="3.4821218274280596"><ele>29.0</ele><time>2026-04-11T14:34:06Z</time></trkpt><trkpt lat="50.39236848716535" lon="3.4822643939064926"><ele>29.0</ele><time>2026-04-11T14:34:08Z</time></trkpt><trkpt lat="50.39241986507576" lon="3.482422236454114"><ele>29.0</ele><time>2026-04-11T14:34:10Z</time></trkpt><trkpt lat="50.39246420132986" lon="3.4825766980848947"><ele>29.5</ele><time>2026-04-11T14:34:12Z</time></trkpt><trkpt lat="50.39249672549752" lon="3.4827328225239174"><ele>30.0</ele><time>2026-04-11T14:34:14Z</time></trkpt><trkpt lat="50.392511766804596" lon="3.4829135960812856"><ele>30.5</ele><time>2026-04-11T14:34:16Z</time></trkpt><trkpt lat="50.39247821053771" lon="3.483091873562867"><ele>31.0</ele><time>2026-04-11T14:34:18Z</time></trkpt><trkpt lat="50.39243994453659" lon="3.483268636069516"><ele>31.0</ele><time>2026-04-11T14:34:20Z</time></trkpt><trkpt lat="50.392429477900876" lon="3.4833694773172867"><ele>31.000000000000004</ele><time>2026-04-11T14:34:21Z</time></trkpt><trkpt lat="50.39242011992292" lon="3.4834693778102306"><ele>31.0</ele><time>2026-04-11T14:34:22Z</time></trkpt><trkpt lat="50.39238517052787" lon="3.483655536565394"><ele>31.0</ele><time>2026-04-11T14:34:24Z</time></trkpt><trkpt lat="50.39235439757093" lon="3.4837463206842174"><ele>31.000000000000004</ele><time>2026-04-11T14:34:25Z</time></trkpt><trkpt lat="50.39232622354868" lon="3.48383557537715"><ele>31.0</ele><time>2026-04-11T14:34:26Z</time></trkpt><trkpt lat="50.39229436561931" lon="3.483928146489026"><ele>31.0</ele><time>2026-04-11T14:34:27Z</time></trkpt><trkpt lat="50.39223501394711" lon="3.484100310434388"><ele>30.500000000000004</ele><time>2026-04-11T14:34:29Z</time></trkpt><trkpt lat="50.39220063618182" lon="3.484183413458609"><ele>30.0</ele><time>2026-04-11T14:34:30Z</time></trkpt><trkpt lat="50.39215740406283" lon="3.4842676942335435"><ele>29.5</ele><time>2026-04-11T14:34:31Z</time></trkpt><trkpt lat="50.39211067289448" lon="3.4843408291802573"><ele>29.0</ele><time>2026-04-11T14:34:32Z</time></trkpt><trkpt lat="50.392052999573565" lon="3.484414845183188"><ele>28.500000000000004</ele><time>2026-04-11T14:34:33Z</time></trkpt><trkpt lat="50.391962904514116" lon="3.484511845709078"><ele>28.0</ele><time>2026-04-11T14:34:35Z</time></trkpt><trkpt lat="50.391875644061756" lon="3.4846338083463992"><ele>27.75</ele><time>2026-04-11T14:34:37Z</time></trkpt><trkpt lat="50.3917854412881" lon="3.484748363168436"><ele>27.5</ele><time>2026-04-11T14:34:39Z</time></trkpt><trkpt lat="50.39170162578661" lon="3.484855070840408"><ele>27.25</ele><time>2026-04-11T14:34:41Z</time></trkpt><trkpt lat="50.391605116957265" lon="3.484954043894302"><ele>27.0</ele><time>2026-04-11T14:34:43Z</time></trkpt><trkpt lat="50.391514643031066" lon="3.4850619769735376"><ele>27.0</ele><time>2026-04-11T14:34:45Z</time></trkpt><trkpt lat="50.39144095877543" lon="3.4851596330587737"><ele>27.000000000000004</ele><time>2026-04-11T14:34:47Z</time></trkpt><trkpt lat="50.39134078440336" lon="3.485257563349856"><ele>27.000000000000004</ele><time>2026-04-11T14:34:49Z</time></trkpt><trkpt lat="50.39124977245525" lon="3.4853562014093487"><ele>27.0</ele><time>2026-04-11T14:34:51Z</time></trkpt><trkpt lat="50.39115393192198" lon="3.4854592300257146"><ele>27.0</ele><time>2026-04-11T14:34:53Z</time></trkpt><trkpt lat="50.39106698392422" lon="3.4855644839041373"><ele>26.75</ele><time>2026-04-11T14:34:55Z</time></trkpt><trkpt lat="50.3909735201768" lon="3.48567783391777"><ele>26.5</ele><time>2026-04-11T14:34:57Z</time></trkpt><trkpt lat="50.39088351272276" lon="3.485782103312897"><ele>26.25</ele><time>2026-04-11T14:34:59Z</time></trkpt><trkpt lat="50.39079457283851" lon="3.4858985792110793"><ele>26.0</ele><time>2026-04-11T14:35:01Z</time></trkpt><trkpt lat="50.39070378039874" lon="3.4860087161247213"><ele>26.0</ele><time>2026-04-11T14:35:03Z</time></trkpt><trkpt lat="50.3906106200484" lon="3.4861116141007162"><ele>26.0</ele><time>2026-04-11T14:35:05Z</time></trkpt><trkpt lat="50.390524076668285" lon="3.486191376538201"><ele>26.0</ele><time>2026-04-11T14:35:07Z</time></trkpt><trkpt lat="50.39042684246463" lon="3.4862718492073688"><ele>26.0</ele><time>2026-04-11T14:35:09Z</time></trkpt><trkpt lat="50.39033782361617" lon="3.4863457513865197"><ele>26.0</ele><time>2026-04-11T14:35:11Z</time></trkpt><trkpt lat="50.39024037162169" lon="3.4864359595179235"><ele>26.5</ele><time>2026-04-11T14:35:13Z</time></trkpt><trkpt lat="50.39013470305671" lon="3.486525679365253"><ele>27.0</ele><time>2026-04-11T14:35:15Z</time></trkpt><trkpt lat="50.390034141061825" lon="3.486606899615922"><ele>27.5</ele><time>2026-04-11T14:35:17Z</time></trkpt><trkpt lat="50.38993647702234" lon="3.48668506012567"><ele>28.0</ele><time>2026-04-11T14:35:19Z</time></trkpt><trkpt lat="50.38984435381947" lon="3.4867699155753025"><ele>28.0</ele><time>2026-04-11T14:35:21Z</time></trkpt><trkpt lat="50.38975313859741" lon="3.486847180153337"><ele>27.999999999999996</ele><time>2026-04-11T14:35:23Z</time></trkpt><trkpt lat="50.38965062292839" lon="3.4869122811812896"><ele>27.999999999999996</ele><time>2026-04-11T14:35:25Z</time></trkpt><trkpt lat="50.389562073610236" lon="3.486999911562332"><ele>28.0</ele><time>2026-04-11T14:35:27Z</time></trkpt><trkpt lat="50.389465413676746" lon="3.4870805005062238"><ele>28.0</ele><time>2026-04-11T14:35:29Z</time></trkpt><trkpt lat="50.3893643331351" lon="3.4871552153648286"><ele>27.799999999999997</ele><time>2026-04-11T14:35:31Z</time></trkpt><trkpt lat="50.38926893739706" lon="3.487245478357123"><ele>27.599999999999998</ele><time>2026-04-11T14:35:33Z</time></trkpt><trkpt lat="50.389175352364404" lon="3.4873213926725057"><ele>27.400000000000002</ele><time>2026-04-11T14:35:35Z</time></trkpt><trkpt lat="50.38908591812011" lon="3.487405856423246"><ele>27.200000000000003</ele><time>2026-04-11T14:35:37Z</time></trkpt><trkpt lat="50.38898772507747" lon="3.487480982068138"><ele>27.0</ele><time>2026-04-11T14:35:39Z</time></trkpt><trkpt lat="50.388892623675424" lon="3.487563301780894"><ele>27.200000000000003</ele><time>2026-04-11T14:35:41Z</time></trkpt><trkpt lat="50.388792045746726" lon="3.4876460729958567"><ele>27.400000000000002</ele><time>2026-04-11T14:35:43Z</time></trkpt><trkpt lat="50.38869183691709" lon="3.48771321984952"><ele>27.599999999999998</ele><time>2026-04-11T14:35:45Z</time></trkpt><trkpt lat="50.388597514530225" lon="3.487783641687954"><ele>27.799999999999997</ele><time>2026-04-11T14:35:47Z</time></trkpt><trkpt lat="50.38850664988563" lon="3.4878238316298615"><ele>28.0</ele><time>2026-04-11T14:35:49Z</time></trkpt><trkpt lat="50.3884284284808" lon="3.48787776506665"><ele>27.833333333333336</ele><time>2026-04-11T14:35:51Z</time></trkpt><trkpt lat="50.38836919494583" lon="3.4879492237583447"><ele>27.666666666666668</ele><time>2026-04-11T14:35:53Z</time></trkpt><trkpt lat="50.38829654968926" lon="3.4879682989597143"><ele>27.5</ele><time>2026-04-11T14:35:55Z</time></trkpt><trkpt lat="50.3882152664391" lon="3.4880224296793694"><ele>27.333333333333336</ele><time>2026-04-11T14:35:57Z</time></trkpt><trkpt lat="50.38812488803801" lon="3.4880833115560534"><ele>27.166666666666668</ele><time>2026-04-11T14:35:59Z</time></trkpt><trkpt lat="50.388026736312575" lon="3.488134074739188"><ele>27.0</ele><time>2026-04-11T14:36:01Z</time></trkpt><trkpt lat="50.38792110572903" lon="3.4882053676276445"><ele>27.6</ele><time>2026-04-11T14:36:03Z</time></trkpt><trkpt lat="50.387826493121295" lon="3.4882954306547957"><ele>28.200000000000003</ele><time>2026-04-11T14:36:05Z</time></trkpt><trkpt lat="50.38772813770598" lon="3.4883796019853386"><ele>28.8</ele><time>2026-04-11T14:36:07Z</time></trkpt><trkpt lat="50.387628480700144" lon="3.4884545548141843"><ele>29.4</ele><time>2026-04-11T14:36:09Z</time></trkpt><trkpt lat="50.38753701569063" lon="3.4885232612034422"><ele>30.0</ele><time>2026-04-11T14:36:11Z</time></trkpt><trkpt lat="50.387440593902326" lon="3.488583238927698"><ele>30.0</ele><time>2026-04-11T14:36:13Z</time></trkpt><trkpt lat="50.38735561259074" lon="3.488651699316499"><ele>30.0</ele><time>2026-04-11T14:36:15Z</time></trkpt><trkpt lat="50.38727695061739" lon="3.4887201246792996"><ele>30.0</ele><time>2026-04-11T14:36:17Z</time></trkpt><trkpt lat="50.38720269626577" lon="3.4887761998107507"><ele>30.0</ele><time>2026-04-11T14:36:19Z</time></trkpt><trkpt lat="50.3871397482672" lon="3.488833821955491"><ele>30.0</ele><time>2026-04-11T14:36:21Z</time></trkpt><trkpt lat="50.387076718723776" lon="3.4888700133458324"><ele>30.0</ele><time>2026-04-11T14:36:23Z</time></trkpt><trkpt lat="50.38699647037324" lon="3.4888937152309016"><ele>29.857142857142858</ele><time>2026-04-11T14:36:25Z</time></trkpt><trkpt lat="50.386924159301486" lon="3.488909325315456"><ele>29.714285714285715</ele><time>2026-04-11T14:36:27Z</time></trkpt><trkpt lat="50.38684873835902" lon="3.488886833237248"><ele>29.571428571428573</ele><time>2026-04-11T14:36:29Z</time></trkpt><trkpt lat="50.386784995481335" lon="3.4888736610676854"><ele>29.42857142857143</ele><time>2026-04-11T14:36:31Z</time></trkpt><trkpt lat="50.38671739921991" lon="3.4888688572601607"><ele>29.285714285714285</ele><time>2026-04-11T14:36:33Z</time></trkpt><trkpt lat="50.386640387694115" lon="3.4888633843491164"><ele>29.142857142857146</ele><time>2026-04-11T14:36:35Z</time></trkpt><trkpt lat="50.38665566547731" lon="3.488963830421489"><ele>29.000000000000004</ele><time>2026-04-11T14:36:38Z</time></trkpt><trkpt lat="50.38648987362938" lon="3.4892608719807785"><ele>28.999999999999996</ele><time>2026-04-11T14:36:51Z</time></trkpt><trkpt lat="50.386414233019885" lon="3.489347082595129"><ele>29.0</ele><time>2026-04-11T14:36:53Z</time></trkpt><trkpt lat="50.38633631982468" lon="3.4894359685308274"><ele>29.0</ele><time>2026-04-11T14:36:55Z</time></trkpt><trkpt lat="50.38627213647717" lon="3.4894329509037907"><ele>29.0</ele><time>2026-04-11T14:36:56Z</time></trkpt><trkpt lat="50.38619106725609" lon="3.489486042082808"><ele>28.999999999999996</ele><time>2026-04-11T14:36:58Z</time></trkpt><trkpt lat="50.38612913141671" lon="3.489521276425612"><ele>29.0</ele><time>2026-04-11T14:36:59Z</time></trkpt><trkpt lat="50.38603225824171" lon="3.4895978102137275"><ele>28.799999999999997</ele><time>2026-04-11T14:37:01Z</time></trkpt><trkpt lat="50.3859360884474" lon="3.4896683726863498"><ele>28.599999999999998</ele><time>2026-04-11T14:37:03Z</time></trkpt><trkpt lat="50.38584214421819" lon="3.4897442666022997"><ele>28.4</ele><time>2026-04-11T14:37:05Z</time></trkpt><trkpt lat="50.38574066339896" lon="3.4898234022102255"><ele>28.2</ele><time>2026-04-11T14:37:07Z</time></trkpt><trkpt lat="50.38565762439555" lon="3.489885764730343"><ele>28.0</ele><time>2026-04-11T14:37:09Z</time></trkpt><trkpt lat="50.385566793689684" lon="3.489953312715838"><ele>28.0</ele><time>2026-04-11T14:37:11Z</time></trkpt><trkpt lat="50.38547525874735" lon="3.4900436263787027"><ele>27.999999999999996</ele><time>2026-04-11T14:37:13Z</time></trkpt><trkpt lat="50.38538844668289" lon="3.4901098372083053"><ele>27.999999999999996</ele><time>2026-04-11T14:37:15Z</time></trkpt><trkpt lat="50.38529118169191" lon="3.4901802285242804"><ele>28.0</ele><time>2026-04-11T14:37:17Z</time></trkpt><trkpt lat="50.38520325583529" lon="3.4902585448144166"><ele>28.0</ele><time>2026-04-11T14:37:19Z</time></trkpt><trkpt lat="50.38511611562334" lon="3.4903065868159"><ele>28.0</ele><time>2026-04-11T14:37:21Z</time></trkpt><trkpt lat="50.38504082884417" lon="3.4903743803569465"><ele>27.999999999999996</ele><time>2026-04-11T14:37:23Z</time></trkpt><trkpt lat="50.38496104153605" lon="3.490418486072016"><ele>27.999999999999996</ele><time>2026-04-11T14:37:25Z</time></trkpt><trkpt lat="50.38487848369972" lon="3.490493734571104"><ele>28.0</ele><time>2026-04-11T14:37:27Z</time></trkpt><trkpt lat="50.384801195112985" lon="3.49056471406493"><ele>28.0</ele><time>2026-04-11T14:37:29Z</time></trkpt><trkpt lat="50.384716002359774" lon="3.490636070638908"><ele>28.4</ele><time>2026-04-11T14:37:31Z</time></trkpt><trkpt lat="50.38461763816727" lon="3.4906915529869806"><ele>28.799999999999997</ele><time>2026-04-11T14:37:33Z</time></trkpt><trkpt lat="50.38453860489671" lon="3.490753230025433"><ele>29.2</ele><time>2026-04-11T14:37:35Z</time></trkpt><trkpt lat="50.384454980848616" lon="3.4908272567666003"><ele>29.6</ele><time>2026-04-11T14:37:37Z</time></trkpt><trkpt lat="50.38436643468569" lon="3.490886090829021"><ele>30.0</ele><time>2026-04-11T14:37:39Z</time></trkpt><trkpt lat="50.38427607954875" lon="3.4909502739703626"><ele>30.0</ele><time>2026-04-11T14:37:41Z</time></trkpt><trkpt lat="50.38418732332043" lon="3.491022197044286"><ele>30.0</ele><time>2026-04-11T14:37:43Z</time></trkpt><trkpt lat="50.38410350244349" lon="3.491084491199036"><ele>30.0</ele><time>2026-04-11T14:37:45Z</time></trkpt><trkpt lat="50.3840162597956" lon="3.491150427825744"><ele>30.0</ele><time>2026-04-11T14:37:47Z</time></trkpt><trkpt lat="50.383937591293034" lon="3.491202526062715"><ele>30.0</ele><time>2026-04-11T14:37:49Z</time></trkpt><trkpt lat="50.38383709981294" lon="3.491271083127661"><ele>30.6</ele><time>2026-04-11T14:37:51Z</time></trkpt><trkpt lat="50.38374557176975" lon="3.4913351619884816"><ele>31.2</ele><time>2026-04-11T14:37:53Z</time></trkpt><trkpt lat="50.383650487939235" lon="3.4913913115487394"><ele>31.799999999999997</ele><time>2026-04-11T14:37:55Z</time></trkpt><trkpt lat="50.383560030749635" lon="3.4914706569236196"><ele>32.4</ele><time>2026-04-11T14:37:57Z</time></trkpt><trkpt lat="50.383468356491115" lon="3.491542907507308"><ele>33.0</ele><time>2026-04-11T14:37:59Z</time></trkpt><trkpt lat="50.383373629200904" lon="3.4916137962175577"><ele>33.0</ele><time>2026-04-11T14:38:01Z</time></trkpt><trkpt lat="50.3832857503661" lon="3.491678578522163"><ele>33.0</ele><time>2026-04-11T14:38:03Z</time></trkpt><trkpt lat="50.383197432945856" lon="3.4917476254396678"><ele>33.0</ele><time>2026-04-11T14:38:05Z</time></trkpt><trkpt lat="50.38310774056597" lon="3.491806380966759"><ele>33.0</ele><time>2026-04-11T14:38:07Z</time></trkpt><trkpt lat="50.38301537046648" lon="3.4918681776849807"><ele>33.0</ele><time>2026-04-11T14:38:09Z</time></trkpt><trkpt lat="50.38292766629159" lon="3.4919347722242566"><ele>33.199999999999996</ele><time>2026-04-11T14:38:11Z</time></trkpt><trkpt lat="50.38285326075869" lon="3.492002469173905"><ele>33.4</ele><time>2026-04-11T14:38:13Z</time></trkpt><trkpt lat="50.382763374872155" lon="3.492061105814339"><ele>33.599999999999994</ele><time>2026-04-11T14:38:15Z</time></trkpt><trkpt lat="50.38265726807869" lon="3.4921088290951765"><ele>33.8</ele><time>2026-04-11T14:38:17Z</time></trkpt><trkpt lat="50.38257465324109" lon="3.492173099274721"><ele>34.0</ele><time>2026-04-11T14:38:19Z</time></trkpt><trkpt lat="50.38248100897655" lon="3.4922500614627694"><ele>34.0</ele><time>2026-04-11T14:38:21Z</time></trkpt><trkpt lat="50.38238973635374" lon="3.4923024788503247"><ele>34.0</ele><time>2026-04-11T14:38:23Z</time></trkpt><trkpt lat="50.38230084591328" lon="3.492389622880852"><ele>34.0</ele><time>2026-04-11T14:38:25Z</time></trkpt><trkpt lat="50.38221061345784" lon="3.492450761926862"><ele>34.0</ele><time>2026-04-11T14:38:27Z</time></trkpt><trkpt lat="50.38212013952483" lon="3.4925316300475155"><ele>34.0</ele><time>2026-04-11T14:38:29Z</time></trkpt><trkpt lat="50.38202996060703" lon="3.492611209754406"><ele>34.2</ele><time>2026-04-11T14:38:31Z</time></trkpt><trkpt lat="50.38194864462959" lon="3.492701308626453"><ele>34.4</ele><time>2026-04-11T14:38:33Z</time></trkpt><trkpt lat="50.38186270439479" lon="3.492793738485139"><ele>34.6</ele><time>2026-04-11T14:38:35Z</time></trkpt><trkpt lat="50.381781820982845" lon="3.492886472879692"><ele>34.8</ele><time>2026-04-11T14:38:37Z</time></trkpt><trkpt lat="50.381696975518075" lon="3.4929689747332606"><ele>35.0</ele><time>2026-04-11T14:38:39Z</time></trkpt><trkpt lat="50.38160648699917" lon="3.4930481759962078"><ele>34.8</ele><time>2026-04-11T14:38:41Z</time></trkpt><trkpt lat="50.38153205428709" lon="3.493141018185997"><ele>34.6</ele><time>2026-04-11T14:38:43Z</time></trkpt><trkpt lat="50.381436991238886" lon="3.493214254738512"><ele>34.4</ele><time>2026-04-11T14:38:45Z</time></trkpt><trkpt lat="50.38135151643101" lon="3.4933050913842676"><ele>34.2</ele><time>2026-04-11T14:38:47Z</time></trkpt><trkpt lat="50.38126409926062" lon="3.493371289039892"><ele>34.0</ele><time>2026-04-11T14:38:49Z</time></trkpt><trkpt lat="50.381177159798945" lon="3.4934629335235434"><ele>34.0</ele><time>2026-04-11T14:38:51Z</time></trkpt><trkpt lat="50.38109382800409" lon="3.4935152341054514"><ele>34.0</ele><time>2026-04-11T14:38:53Z</time></trkpt><trkpt lat="50.381015671454065" lon="3.4936009094698925"><ele>34.0</ele><time>2026-04-11T14:38:55Z</time></trkpt><trkpt lat="50.38092966042447" lon="3.493682708337963"><ele>34.0</ele><time>2026-04-11T14:38:57Z</time></trkpt><trkpt lat="50.380850382066534" lon="3.4937398459847038"><ele>34.0</ele><time>2026-04-11T14:38:59Z</time></trkpt><trkpt lat="50.38076253972071" lon="3.493829922258345"><ele>33.6</ele><time>2026-04-11T14:39:01Z</time></trkpt><trkpt lat="50.38068372303577" lon="3.493924127998785"><ele>33.2</ele><time>2026-04-11T14:39:03Z</time></trkpt><trkpt lat="50.38060632624462" lon="3.4939862543170332"><ele>32.800000000000004</ele><time>2026-04-11T14:39:05Z</time></trkpt><trkpt lat="50.38052690112625" lon="3.494056136460852"><ele>32.4</ele><time>2026-04-11T14:39:07Z</time></trkpt><trkpt lat="50.380449621218645" lon="3.494109486397703"><ele>32.0</ele><time>2026-04-11T14:39:09Z</time></trkpt><trkpt lat="50.380370277424106" lon="3.4941972751310177"><ele>32.666666666666664</ele><time>2026-04-11T14:39:11Z</time></trkpt><trkpt lat="50.38029897030117" lon="3.494269231821957"><ele>33.33333333333333</ele><time>2026-04-11T14:39:13Z</time></trkpt><trkpt lat="50.3802287706549" lon="3.4943420233383273"><ele>34.0</ele><time>2026-04-11T14:39:15Z</time></trkpt><trkpt lat="50.380159770025394" lon="3.4944165711253863"><ele>34.666666666666664</ele><time>2026-04-11T14:39:17Z</time></trkpt><trkpt lat="50.380083634370315" lon="3.494494849150446"><ele>35.333333333333336</ele><time>2026-04-11T14:39:19Z</time></trkpt><trkpt lat="50.38000310228711" lon="3.494576819742499"><ele>36.0</ele><time>2026-04-11T14:39:21Z</time></trkpt><trkpt lat="50.37992342927693" lon="3.494655866975227"><ele>36.0</ele><time>2026-04-11T14:39:23Z</time></trkpt><trkpt lat="50.379845408251974" lon="3.4947380140849287"><ele>36.0</ele><time>2026-04-11T14:39:25Z</time></trkpt><trkpt lat="50.37976276255848" lon="3.4948122497630836"><ele>36.0</ele><time>2026-04-11T14:39:27Z</time></trkpt><trkpt lat="50.37968362278421" lon="3.4948964865881997"><ele>36.0</ele><time>2026-04-11T14:39:29Z</time></trkpt><trkpt lat="50.37960135118158" lon="3.494962348545059"><ele>36.0</ele><time>2026-04-11T14:39:31Z</time></trkpt><trkpt lat="50.3795222010437" lon="3.4950336677421454"><ele>36.4</ele><time>2026-04-11T14:39:33Z</time></trkpt><trkpt lat="50.37944296591334" lon="3.4951172423901977"><ele>36.8</ele><time>2026-04-11T14:39:35Z</time></trkpt><trkpt lat="50.37936174492816" lon="3.4951830663013226"><ele>37.199999999999996</ele><time>2026-04-11T14:39:37Z</time></trkpt><trkpt lat="50.37928323948075" lon="3.495265302908047"><ele>37.6</ele><time>2026-04-11T14:39:39Z</time></trkpt><trkpt lat="50.3791981370079" lon="3.4953461835503146"><ele>38.0</ele><time>2026-04-11T14:39:41Z</time></trkpt><trkpt lat="50.37912053692393" lon="3.4954298366628"><ele>38.0</ele><time>2026-04-11T14:39:43Z</time></trkpt><trkpt lat="50.37904009487497" lon="3.4954894704705595"><ele>38.0</ele><time>2026-04-11T14:39:45Z</time></trkpt><trkpt lat="50.378963724844404" lon="3.4955673147749295"><ele>38.0</ele><time>2026-04-11T14:39:47Z</time></trkpt><trkpt lat="50.378883999809524" lon="3.4956418550496844"><ele>38.0</ele><time>2026-04-11T14:39:49Z</time></trkpt><trkpt lat="50.37880680245043" lon="3.495704294247789"><ele>38.0</ele><time>2026-04-11T14:39:51Z</time></trkpt><trkpt lat="50.3787276920442" lon="3.495770419905923"><ele>38.0</ele><time>2026-04-11T14:39:53Z</time></trkpt><trkpt lat="50.378652241672896" lon="3.495850855625876"><ele>38.199999999999996</ele><time>2026-04-11T14:39:55Z</time></trkpt><trkpt lat="50.37857414909328" lon="3.4959164040847344"><ele>38.4</ele><time>2026-04-11T14:39:57Z</time></trkpt><trkpt lat="50.378495009833806" lon="3.4959928553625264"><ele>38.599999999999994</ele><time>2026-04-11T14:39:59Z</time></trkpt><trkpt lat="50.37841107729303" lon="3.496042382816803"><ele>38.8</ele><time>2026-04-11T14:40:01Z</time></trkpt><trkpt lat="50.37836977296196" lon="3.4961570146261587"><ele>39.0</ele><time>2026-04-11T14:40:03Z</time></trkpt><trkpt lat="50.378270762537326" lon="3.4961914107123726"><ele>39.0</ele><time>2026-04-11T14:40:05Z</time></trkpt><trkpt lat="50.37819869954303" lon="3.4962698244740116"><ele>39.0</ele><time>2026-04-11T14:40:07Z</time></trkpt><trkpt lat="50.37812100217512" lon="3.4963628654516694"><ele>39.0</ele><time>2026-04-11T14:40:09Z</time></trkpt><trkpt lat="50.37804041078785" lon="3.4964441961510326"><ele>39.0</ele><time>2026-04-11T14:40:11Z</time></trkpt><trkpt lat="50.37796955944845" lon="3.496510853777243"><ele>39.0</ele><time>2026-04-11T14:40:13Z</time></trkpt><trkpt lat="50.37789293978527" lon="3.496607665629109"><ele>39.166666666666664</ele><time>2026-04-11T14:40:15Z</time></trkpt><trkpt lat="50.37781991655759" lon="3.4966685907290134"><ele>39.333333333333336</ele><time>2026-04-11T14:40:17Z</time></trkpt><trkpt lat="50.37773651608732" lon="3.4967569237224367"><ele>39.5</ele><time>2026-04-11T14:40:19Z</time></trkpt><trkpt lat="50.37765950507625" lon="3.4968230448798754"><ele>39.66666666666667</ele><time>2026-04-11T14:40:21Z</time></trkpt><trkpt lat="50.37758674642714" lon="3.496901682228046"><ele>39.833333333333336</ele><time>2026-04-11T14:40:23Z</time></trkpt><trkpt lat="50.37750760425884" lon="3.496966118785177"><ele>40.0</ele><time>2026-04-11T14:40:25Z</time></trkpt><trkpt lat="50.377428429774135" lon="3.4970439406134806"><ele>39.833333333333336</ele><time>2026-04-11T14:40:27Z</time></trkpt><trkpt lat="50.37734979518417" lon="3.497113196992691"><ele>39.66666666666667</ele><time>2026-04-11T14:40:29Z</time></trkpt><trkpt lat="50.37728429679104" lon="3.4971917815355247"><ele>39.5</ele><time>2026-04-11T14:40:31Z</time></trkpt><trkpt lat="50.37721595829378" lon="3.4972552280465545"><ele>39.333333333333336</ele><time>2026-04-11T14:40:33Z</time></trkpt><trkpt lat="50.37713867319998" lon="3.4973165699512356"><ele>39.166666666666664</ele><time>2026-04-11T14:40:35Z</time></trkpt><trkpt lat="50.37707049495887" lon="3.497386603943993"><ele>39.0</ele><time>2026-04-11T14:40:37Z</time></trkpt><trkpt lat="50.37699863350778" lon="3.497447183303243"><ele>39.666666666666664</ele><time>2026-04-11T14:40:39Z</time></trkpt><trkpt lat="50.37692719908885" lon="3.497529033538062"><ele>40.333333333333336</ele><time>2026-04-11T14:40:41Z</time></trkpt><trkpt lat="50.376855803159295" lon="3.497603416992438"><ele>41.0</ele><time>2026-04-11T14:40:43Z</time></trkpt><trkpt lat="50.3767795535969" lon="3.4976552096799547"><ele>41.66666666666667</ele><time>2026-04-11T14:40:45Z</time></trkpt><trkpt lat="50.37672373150944" lon="3.497704489679751"><ele>42.333333333333336</ele><time>2026-04-11T14:40:46Z</time></trkpt><trkpt lat="50.376659573818" lon="3.497769564846949"><ele>43.0</ele><time>2026-04-11T14:40:48.001Z</time></trkpt><trkpt lat="50.376591584508134" lon="3.4978404188647647"><ele>43.0</ele><time>2026-04-11T14:40:50.001Z</time></trkpt><trkpt lat="50.37652252389815" lon="3.49790500010529"><ele>43.0</ele><time>2026-04-11T14:40:52.001Z</time></trkpt><trkpt lat="50.376454389013944" lon="3.4979654210333844"><ele>43.0</ele><time>2026-04-11T14:40:54Z</time></trkpt><trkpt lat="50.37638588372166" lon="3.498030024098541"><ele>43.0</ele><time>2026-04-11T14:40:56Z</time></trkpt><trkpt lat="50.376309116892585" lon="3.4980974866499848"><ele>43.0</ele><time>2026-04-11T14:40:58Z</time></trkpt><trkpt lat="50.37623376770839" lon="3.4981691069581426"><ele>43.0</ele><time>2026-04-11T14:41:00Z</time></trkpt><trkpt lat="50.37616061466623" lon="3.498240348146926"><ele>43.16666666666667</ele><time>2026-04-11T14:41:02Z</time></trkpt><trkpt lat="50.37608721837163" lon="3.4983109410910056"><ele>43.333333333333336</ele><time>2026-04-11T14:41:04Z</time></trkpt><trkpt lat="50.37601091851588" lon="3.4983754661478352"><ele>43.5</ele><time>2026-04-11T14:41:06Z</time></trkpt><trkpt lat="50.37593604749854" lon="3.498451355327141"><ele>43.666666666666664</ele><time>2026-04-11T14:41:08Z</time></trkpt><trkpt lat="50.375859298489395" lon="3.498517105284302"><ele>43.83333333333333</ele><time>2026-04-11T14:41:10Z</time></trkpt><trkpt lat="50.375786797929216" lon="3.498589978995775"><ele>44.0</ele><time>2026-04-11T14:41:12Z</time></trkpt><trkpt lat="50.37570820713116" lon="3.498670427458013"><ele>43.800000000000004</ele><time>2026-04-11T14:41:14Z</time></trkpt><trkpt lat="50.375633751002425" lon="3.4987513709286784"><ele>43.6</ele><time>2026-04-11T14:41:16Z</time></trkpt><trkpt lat="50.375552369434004" lon="3.498829491103412"><ele>43.4</ele><time>2026-04-11T14:41:18Z</time></trkpt><trkpt lat="50.37547448458796" lon="3.4989067706376384"><ele>43.2</ele><time>2026-04-11T14:41:20Z</time></trkpt><trkpt lat="50.37539877094605" lon="3.4989680105586736"><ele>43.0</ele><time>2026-04-11T14:41:22Z</time></trkpt><trkpt lat="50.375314252932625" lon="3.4990391495587287"><ele>43.599999999999994</ele><time>2026-04-11T14:41:24Z</time></trkpt><trkpt lat="50.375234473597715" lon="3.499112195334757"><ele>44.199999999999996</ele><time>2026-04-11T14:41:26Z</time></trkpt><trkpt lat="50.37516215279399" lon="3.49918772929451"><ele>44.8</ele><time>2026-04-11T14:41:28Z</time></trkpt><trkpt lat="50.37508874959266" lon="3.4992611500808004"><ele>45.4</ele><time>2026-04-11T14:41:30Z</time></trkpt><trkpt lat="50.375005795427946" lon="3.499326367601808"><ele>46.0</ele><time>2026-04-11T14:41:32Z</time></trkpt><trkpt lat="50.374923887343705" lon="3.4994042727997887"><ele>46.0</ele><time>2026-04-11T14:41:34Z</time></trkpt><trkpt lat="50.374844871474686" lon="3.499477134308463"><ele>46.0</ele><time>2026-04-11T14:41:36Z</time></trkpt><trkpt lat="50.374776267273965" lon="3.499549294037119"><ele>46.0</ele><time>2026-04-11T14:41:38Z</time></trkpt><trkpt lat="50.3747015959935" lon="3.4996108670660173"><ele>46.0</ele><time>2026-04-11T14:41:40Z</time></trkpt><trkpt lat="50.37463007274996" lon="3.4996786616111653"><ele>46.0</ele><time>2026-04-11T14:41:42Z</time></trkpt><trkpt lat="50.374560347177884" lon="3.4997478462104095"><ele>46.0</ele><time>2026-04-11T14:41:44Z</time></trkpt><trkpt lat="50.37449172190253" lon="3.499821360253029"><ele>46.0</ele><time>2026-04-11T14:41:46Z</time></trkpt><trkpt lat="50.374417572087054" lon="3.49988770538386"><ele>46.0</ele><time>2026-04-11T14:41:48Z</time></trkpt><trkpt lat="50.37434022586366" lon="3.499954680731"><ele>46.0</ele><time>2026-04-11T14:41:50Z</time></trkpt><trkpt lat="50.37426742182672" lon="3.500029313996335"><ele>46.0</ele><time>2026-04-11T14:41:52Z</time></trkpt><trkpt lat="50.37419707579119" lon="3.5001010837897555"><ele>46.0</ele><time>2026-04-11T14:41:54Z</time></trkpt><trkpt lat="50.374125992047354" lon="3.500170622880867"><ele>46.0</ele><time>2026-04-11T14:41:56Z</time></trkpt><trkpt lat="50.37405303979663" lon="3.500234004084978"><ele>46.0</ele><time>2026-04-11T14:41:58Z</time></trkpt><trkpt lat="50.373980634841544" lon="3.500296971919505"><ele>46.0</ele><time>2026-04-11T14:42:00Z</time></trkpt><trkpt lat="50.37390752602657" lon="3.5003663814209527"><ele>46.0</ele><time>2026-04-11T14:42:02Z</time></trkpt><trkpt lat="50.37384248204921" lon="3.5004345787123956"><ele>46.0</ele><time>2026-04-11T14:42:04Z</time></trkpt><trkpt lat="50.37377670147672" lon="3.5004852891598626"><ele>46.0</ele><time>2026-04-11T14:42:06Z</time></trkpt><trkpt lat="50.37371380433433" lon="3.5005457213017412"><ele>46.0</ele><time>2026-04-11T14:42:08Z</time></trkpt><trkpt lat="50.3736507448593" lon="3.500606749006572"><ele>46.333333333333336</ele><time>2026-04-11T14:42:10Z</time></trkpt><trkpt lat="50.373587106345845" lon="3.500665785089757"><ele>46.66666666666667</ele><time>2026-04-11T14:42:12Z</time></trkpt><trkpt lat="50.37352762480895" lon="3.5007188879194144"><ele>47.0</ele><time>2026-04-11T14:42:14Z</time></trkpt><trkpt lat="50.37346223398219" lon="3.500789734101039"><ele>47.333333333333336</ele><time>2026-04-11T14:42:16Z</time></trkpt><trkpt lat="50.37339484592131" lon="3.500846858519706"><ele>47.666666666666664</ele><time>2026-04-11T14:42:18Z</time></trkpt><trkpt lat="50.373318508288364" lon="3.500922888549454"><ele>48.0</ele><time>2026-04-11T14:42:20Z</time></trkpt><trkpt lat="50.37324558811486" lon="3.5009982987509094"><ele>48.0</ele><time>2026-04-11T14:42:22Z</time></trkpt><trkpt lat="50.37317587059413" lon="3.501069352686353"><ele>48.0</ele><time>2026-04-11T14:42:24Z</time></trkpt><trkpt lat="50.373100156726196" lon="3.501140029892367"><ele>48.0</ele><time>2026-04-11T14:42:26Z</time></trkpt><trkpt lat="50.37303178182984" lon="3.5012039475688477"><ele>48.0</ele><time>2026-04-11T14:42:28Z</time></trkpt><trkpt lat="50.37296142550503" lon="3.5012638124690416"><ele>48.0</ele><time>2026-04-11T14:42:30Z</time></trkpt><trkpt lat="50.37288719549592" lon="3.501337372029234"><ele>48.0</ele><time>2026-04-11T14:42:32Z</time></trkpt><trkpt lat="50.37281187603275" lon="3.501402312001718"><ele>48.599999999999994</ele><time>2026-04-11T14:42:34Z</time></trkpt><trkpt lat="50.37273291605015" lon="3.5014761866854887"><ele>49.199999999999996</ele><time>2026-04-11T14:42:36Z</time></trkpt><trkpt lat="50.3726499393041" lon="3.501562854604765"><ele>49.8</ele><time>2026-04-11T14:42:38Z</time></trkpt><trkpt lat="50.37256419386692" lon="3.501651961328553"><ele>50.4</ele><time>2026-04-11T14:42:40Z</time></trkpt><trkpt lat="50.37248047546712" lon="3.501732127613037"><ele>51.0</ele><time>2026-04-11T14:42:42Z</time></trkpt><trkpt lat="50.3724017245303" lon="3.5018157178062266"><ele>51.0</ele><time>2026-04-11T14:42:44Z</time></trkpt><trkpt lat="50.37231710197228" lon="3.5018934326515847"><ele>51.0</ele><time>2026-04-11T14:42:46Z</time></trkpt><trkpt lat="50.372238655016076" lon="3.501982907163135"><ele>51.0</ele><time>2026-04-11T14:42:48Z</time></trkpt><trkpt lat="50.37215003025584" lon="3.5020564295827636"><ele>51.0</ele><time>2026-04-11T14:42:50Z</time></trkpt><trkpt lat="50.37206469067022" lon="3.502127761689727"><ele>51.0</ele><time>2026-04-11T14:42:52Z</time></trkpt><trkpt lat="50.371982982319814" lon="3.502201904532614"><ele>51.0</ele><time>2026-04-11T14:42:54Z</time></trkpt><trkpt lat="50.37190045775268" lon="3.5022804604454687"><ele>51.0</ele><time>2026-04-11T14:42:56Z</time></trkpt><trkpt lat="50.37181854058496" lon="3.5023641119328586"><ele>51.0</ele><time>2026-04-11T14:42:58Z</time></trkpt><trkpt lat="50.371739841193126" lon="3.502440495527919"><ele>51.0</ele><time>2026-04-11T14:43:00Z</time></trkpt><trkpt lat="50.371663782307785" lon="3.5025166125419838"><ele>51.0</ele><time>2026-04-11T14:43:02Z</time></trkpt><trkpt lat="50.371576151619884" lon="3.5026049446446716"><ele>51.0</ele><time>2026-04-11T14:43:04Z</time></trkpt><trkpt lat="50.37149074319068" lon="3.5026852480227126"><ele>51.0</ele><time>2026-04-11T14:43:06Z</time></trkpt><trkpt lat="50.37140508521807" lon="3.5027679195859642"><ele>51.0</ele><time>2026-04-11T14:43:08Z</time></trkpt><trkpt lat="50.37131703735535" lon="3.502838166060371"><ele>51.0</ele><time>2026-04-11T14:43:10Z</time></trkpt><trkpt lat="50.371249663048786" lon="3.502912607040976"><ele>51.0</ele><time>2026-04-11T14:43:12Z</time></trkpt><trkpt lat="50.37119376011418" lon="3.5029695717192078"><ele>51.0</ele><time>2026-04-11T14:43:15Z</time></trkpt><trkpt lat="50.3711069999798" lon="3.503010832203024"><ele>50.833333333333336</ele><time>2026-04-11T14:43:18Z</time></trkpt><trkpt lat="50.37103518024892" lon="3.502980821447251"><ele>50.66666666666667</ele><time>2026-04-11T14:43:20Z</time></trkpt><trkpt lat="50.37095823375387" lon="3.5029084916837885"><ele>50.5</ele><time>2026-04-11T14:43:22Z</time></trkpt><trkpt lat="50.37086046253001" lon="3.5028787447110545"><ele>50.333333333333336</ele><time>2026-04-11T14:43:24Z</time></trkpt><trkpt lat="50.37079922970294" lon="3.5029671401387703"><ele>50.16666666666667</ele><time>2026-04-11T14:43:25Z</time></trkpt><trkpt lat="50.370769072719376" lon="3.503057508432192"><ele>50.0</ele><time>2026-04-11T14:43:26Z</time></trkpt><trkpt lat="50.37076241303787" lon="3.5032102500094946"><ele>50.0</ele><time>2026-04-11T14:43:28Z</time></trkpt><trkpt lat="50.370738372906935" lon="3.5033374316908583"><ele>50.0</ele><time>2026-04-11T14:43:30Z</time></trkpt><trkpt lat="50.37068242131111" lon="3.5034376126627396"><ele>50.0</ele><time>2026-04-11T14:43:32Z</time></trkpt><trkpt lat="50.37059044598039" lon="3.503505055547696"><ele>50.0</ele><time>2026-04-11T14:43:34Z</time></trkpt><trkpt lat="50.37051185702608" lon="3.5035790767669206"><ele>50.0</ele><time>2026-04-11T14:43:36Z</time></trkpt><trkpt lat="50.37043618739094" lon="3.5036551005781846"><ele>49.8</ele><time>2026-04-11T14:43:38Z</time></trkpt><trkpt lat="50.370364479804294" lon="3.5037175063226207"><ele>49.6</ele><time>2026-04-11T14:43:40Z</time></trkpt><trkpt lat="50.3702990922211" lon="3.5037933648304667"><ele>49.400000000000006</ele><time>2026-04-11T14:43:43Z</time></trkpt><trkpt lat="50.37021768831193" lon="3.503842747308906"><ele>49.2</ele><time>2026-04-11T14:43:45Z</time></trkpt><trkpt lat="50.37012929514348" lon="3.503937942329067"><ele>49.0</ele><time>2026-04-11T14:43:47Z</time></trkpt><trkpt lat="50.37005469192929" lon="3.5040781530467555"><ele>48.83333333333333</ele><time>2026-04-11T14:43:49Z</time></trkpt><trkpt lat="50.36996866518684" lon="3.504198635977649"><ele>48.666666666666664</ele><time>2026-04-11T14:43:51Z</time></trkpt><trkpt lat="50.36992368011579" lon="3.504277005440169"><ele>48.5</ele><time>2026-04-11T14:43:52Z</time></trkpt><trkpt lat="50.36988232977172" lon="3.5043625914810583"><ele>48.33333333333333</ele><time>2026-04-11T14:43:53Z</time></trkpt><trkpt lat="50.36983741379322" lon="3.504444756312408"><ele>48.166666666666664</ele><time>2026-04-11T14:43:54Z</time></trkpt><trkpt lat="50.369790523253556" lon="3.5045208689225764"><ele>48.0</ele><time>2026-04-11T14:43:55Z</time></trkpt><trkpt lat="50.36974380989973" lon="3.504595183048349"><ele>47.71428571428571</ele><time>2026-04-11T14:43:56Z</time></trkpt><trkpt lat="50.36969566819369" lon="3.50467253558351"><ele>47.42857142857143</ele><time>2026-04-11T14:43:57Z</time></trkpt><trkpt lat="50.36964446680715" lon="3.5047469551938786"><ele>47.14285714285714</ele><time>2026-04-11T14:43:58Z</time></trkpt><trkpt lat="50.3695957105799" lon="3.5048289187255017"><ele>46.857142857142854</ele><time>2026-04-11T14:43:59Z</time></trkpt><trkpt lat="50.36954582738749" lon="3.504909652861588"><ele>46.57142857142857</ele><time>2026-04-11T14:44:00Z</time></trkpt><trkpt lat="50.369495845442216" lon="3.504986298788007"><ele>46.285714285714285</ele><time>2026-04-11T14:44:01Z</time></trkpt><trkpt lat="50.369443319799" lon="3.505076959760528"><ele>46.0</ele><time>2026-04-11T14:44:02Z</time></trkpt><trkpt lat="50.36939811431032" lon="3.5051697057906552"><ele>46.0</ele><time>2026-04-11T14:44:03Z</time></trkpt><trkpt lat="50.36934086797407" lon="3.5052577068482265"><ele>46.0</ele><time>2026-04-11T14:44:04Z</time></trkpt><trkpt lat="50.369286681863244" lon="3.5053414766914006"><ele>46.0</ele><time>2026-04-11T14:44:05Z</time></trkpt><trkpt lat="50.36923127377527" lon="3.505430843302104"><ele>46.0</ele><time>2026-04-11T14:44:06Z</time></trkpt><trkpt lat="50.36917617636646" lon="3.505521873148432"><ele>46.0</ele><time>2026-04-11T14:44:07Z</time></trkpt><trkpt lat="50.36912084773791" lon="3.5056216861197464"><ele>46.0</ele><time>2026-04-11T14:44:08Z</time></trkpt><trkpt lat="50.369075326925895" lon="3.505731329722096"><ele>45.66666666666667</ele><time>2026-04-11T14:44:09Z</time></trkpt><trkpt lat="50.36902797587998" lon="3.5058369373000486"><ele>45.333333333333336</ele><time>2026-04-11T14:44:10Z</time></trkpt><trkpt lat="50.36898726647417" lon="3.5059503958204647"><ele>45.0</ele><time>2026-04-11T14:44:11Z</time></trkpt><trkpt lat="50.3689474617043" lon="3.506068958860029"><ele>44.666666666666664</ele><time>2026-04-11T14:44:12Z</time></trkpt><trkpt lat="50.36891496394031" lon="3.5061990805517227"><ele>44.33333333333333</ele><time>2026-04-11T14:44:13Z</time></trkpt><trkpt lat="50.368883788807224" lon="3.506326217541849"><ele>44.0</ele><time>2026-04-11T14:44:14Z</time></trkpt><trkpt lat="50.36884743530194" lon="3.506457850901865"><ele>43.800000000000004</ele><time>2026-04-11T14:44:15Z</time></trkpt><trkpt lat="50.36881544401626" lon="3.5065849772048394"><ele>43.6</ele><time>2026-04-11T14:44:16Z</time></trkpt><trkpt lat="50.36877567367883" lon="3.5067084198982132"><ele>43.4</ele><time>2026-04-11T14:44:17Z</time></trkpt><trkpt lat="50.368731277436396" lon="3.506830953196661"><ele>43.2</ele><time>2026-04-11T14:44:18Z</time></trkpt><trkpt lat="50.36868681175647" lon="3.5069474960712634"><ele>43.0</ele><time>2026-04-11T14:44:19Z</time></trkpt><trkpt lat="50.36862548002857" lon="3.5071012047892225"><ele>42.8</ele><time>2026-04-11T14:44:20Z</time></trkpt><trkpt lat="50.368572592879694" lon="3.5071918193853167"><ele>42.599999999999994</ele><time>2026-04-11T14:44:21Z</time></trkpt><trkpt lat="50.36851862074946" lon="3.507296367893077"><ele>42.400000000000006</ele><time>2026-04-11T14:44:22Z</time></trkpt><trkpt lat="50.368455944577654" lon="3.5074275786503786"><ele>42.2</ele><time>2026-04-11T14:44:23Z</time></trkpt><trkpt lat="50.368399311903275" lon="3.507541197446695"><ele>42.0</ele><time>2026-04-11T14:44:24Z</time></trkpt><trkpt lat="50.368343006712834" lon="3.50766402452102"><ele>42.0</ele><time>2026-04-11T14:44:25Z</time></trkpt><trkpt lat="50.36828747670665" lon="3.5077779700126164"><ele>42.0</ele><time>2026-04-11T14:44:26Z</time></trkpt><trkpt lat="50.36823333938795" lon="3.507882800769914"><ele>42.0</ele><time>2026-04-11T14:44:27Z</time></trkpt><trkpt lat="50.36817893260411" lon="3.5080009479813925"><ele>42.0</ele><time>2026-04-11T14:44:28Z</time></trkpt><trkpt lat="50.36812530341665" lon="3.508105771202767"><ele>42.0</ele><time>2026-04-11T14:44:29Z</time></trkpt><trkpt lat="50.36807330265145" lon="3.508212318814201"><ele>42.0</ele><time>2026-04-11T14:44:30Z</time></trkpt><trkpt lat="50.36802621443712" lon="3.5083188329154744"><ele>41.6</ele><time>2026-04-11T14:44:31Z</time></trkpt><trkpt lat="50.36797407241177" lon="3.508421669765456"><ele>41.2</ele><time>2026-04-11T14:44:32Z</time></trkpt><trkpt lat="50.36792492773515" lon="3.5085246402498296"><ele>40.8</ele><time>2026-04-11T14:44:33Z</time></trkpt><trkpt lat="50.36786312368153" lon="3.508651480935366"><ele>40.4</ele><time>2026-04-11T14:44:35Z</time></trkpt><trkpt lat="50.36779746531604" lon="3.5087765708351526"><ele>40.0</ele><time>2026-04-11T14:44:37Z</time></trkpt><trkpt lat="50.36773037126217" lon="3.5089264307126435"><ele>39.833333333333336</ele><time>2026-04-11T14:44:39Z</time></trkpt><trkpt lat="50.36769042093062" lon="3.509004459283235"><ele>39.66666666666667</ele><time>2026-04-11T14:44:40Z</time></trkpt><trkpt lat="50.36764677860311" lon="3.5090944688399133"><ele>39.5</ele><time>2026-04-11T14:44:41Z</time></trkpt><trkpt lat="50.36760805539345" lon="3.5091785583983732"><ele>39.333333333333336</ele><time>2026-04-11T14:44:42Z</time></trkpt><trkpt lat="50.36756787606917" lon="3.5092668924060786"><ele>39.166666666666664</ele><time>2026-04-11T14:44:43Z</time></trkpt><trkpt lat="50.367527528604626" lon="3.509351361506993"><ele>39.0</ele><time>2026-04-11T14:44:44Z</time></trkpt><trkpt lat="50.36744999162984" lon="3.5095100170332776"><ele>39.0</ele><time>2026-04-11T14:44:46Z</time></trkpt><trkpt lat="50.367406459407825" lon="3.5095831811346874"><ele>39.0</ele><time>2026-04-11T14:44:47Z</time></trkpt><trkpt lat="50.367327902661394" lon="3.509731084581018"><ele>39.0</ele><time>2026-04-11T14:44:49Z</time></trkpt><trkpt lat="50.36724984954568" lon="3.5098914118462137"><ele>39.0</ele><time>2026-04-11T14:44:51Z</time></trkpt><trkpt lat="50.36721502485439" lon="3.509986571868247"><ele>39.0</ele><time>2026-04-11T14:44:52Z</time></trkpt><trkpt lat="50.36714204059818" lon="3.5101296680718956"><ele>39.0</ele><time>2026-04-11T14:44:54Z</time></trkpt><trkpt lat="50.36710397526392" lon="3.510212245192497"><ele>39.0</ele><time>2026-04-11T14:44:55Z</time></trkpt><trkpt lat="50.367044511787945" lon="3.5103262082694493"><ele>39.0</ele><time>2026-04-11T14:44:57Z</time></trkpt><trkpt lat="50.36700032259712" lon="3.510422196104734"><ele>39.0</ele><time>2026-04-11T14:44:59Z</time></trkpt><trkpt lat="50.36693080407063" lon="3.5105291537634717"><ele>39.0</ele><time>2026-04-11T14:45:01Z</time></trkpt><trkpt lat="50.366848740577076" lon="3.5106724813472137"><ele>38.833333333333336</ele><time>2026-04-11T14:45:03Z</time></trkpt><trkpt lat="50.36680941195151" lon="3.510752602197126"><ele>38.666666666666664</ele><time>2026-04-11T14:45:04Z</time></trkpt><trkpt lat="50.36678746173302" lon="3.510855672770507"><ele>38.5</ele><time>2026-04-11T14:45:05Z</time></trkpt><trkpt lat="50.36672744925358" lon="3.5110234642362474"><ele>38.33333333333333</ele><time>2026-04-11T14:45:07Z</time></trkpt><trkpt lat="50.36669224322803" lon="3.5111378582693615"><ele>38.166666666666664</ele><time>2026-04-11T14:45:08Z</time></trkpt><trkpt lat="50.36666473252025" lon="3.5112624931402014"><ele>38.0</ele><time>2026-04-11T14:45:09Z</time></trkpt><trkpt lat="50.366627968140016" lon="3.5113716865887765"><ele>37.33333333333333</ele><time>2026-04-11T14:45:10Z</time></trkpt><trkpt lat="50.366594457267595" lon="3.5114931727357828"><ele>36.666666666666664</ele><time>2026-04-11T14:45:11Z</time></trkpt><trkpt lat="50.366556580458635" lon="3.511588048756209"><ele>36.0</ele><time>2026-04-11T14:45:12Z</time></trkpt><trkpt lat="50.36651815173803" lon="3.511717948613675"><ele>35.333333333333336</ele><time>2026-04-11T14:45:13Z</time></trkpt><trkpt lat="50.36647895133535" lon="3.511855742383104"><ele>34.66666666666667</ele><time>2026-04-11T14:45:14Z</time></trkpt><trkpt lat="50.36644245897841" lon="3.5119759643011967"><ele>34.0</ele><time>2026-04-11T14:45:15Z</time></trkpt><trkpt lat="50.36640672892341" lon="3.5121055136893813"><ele>33.833333333333336</ele><time>2026-04-11T14:45:16Z</time></trkpt><trkpt lat="50.36637691498341" lon="3.51222041150476"><ele>33.66666666666667</ele><time>2026-04-11T14:45:17Z</time></trkpt><trkpt lat="50.36633539609044" lon="3.512349749780783"><ele>33.5</ele><time>2026-04-11T14:45:18Z</time></trkpt><trkpt lat="50.366296141176996" lon="3.5124705258905426"><ele>33.333333333333336</ele><time>2026-04-11T14:45:19Z</time></trkpt><trkpt lat="50.366274880684664" lon="3.512572196655091"><ele>33.166666666666664</ele><time>2026-04-11T14:45:20Z</time></trkpt><trkpt lat="50.366233664907426" lon="3.512691397696286"><ele>33.0</ele><time>2026-04-11T14:45:21Z</time></trkpt><trkpt lat="50.366200715609054" lon="3.5127900776478023"><ele>32.666666666666664</ele><time>2026-04-11T14:45:22Z</time></trkpt><trkpt lat="50.36617131566704" lon="3.512909229733627"><ele>32.333333333333336</ele><time>2026-04-11T14:45:23Z</time></trkpt><trkpt lat="50.36611388623377" lon="3.5130516493931063"><ele>32.0</ele><time>2026-04-11T14:45:25Z</time></trkpt><trkpt lat="50.36608895307526" lon="3.513145308862615"><ele>31.666666666666668</ele><time>2026-04-11T14:45:26Z</time></trkpt><trkpt lat="50.36604452107567" lon="3.5132767369021227"><ele>31.333333333333336</ele><time>2026-04-11T14:45:28Z</time></trkpt><trkpt lat="50.36601481296958" lon="3.513369650896342"><ele>31.0</ele><time>2026-04-11T14:45:30Z</time></trkpt><trkpt lat="50.36597512193294" lon="3.513496448870415"><ele>31.0</ele><time>2026-04-11T14:45:35Z</time></trkpt><trkpt lat="50.36593412607921" lon="3.513590093673958"><ele>31.0</ele><time>2026-04-11T14:45:37Z</time></trkpt><trkpt lat="50.36588829930393" lon="3.513681277386069"><ele>31.0</ele><time>2026-04-11T14:45:39Z</time></trkpt><trkpt lat="50.36582148688329" lon="3.5137767570932437"><ele>31.0</ele><time>2026-04-11T14:45:41Z</time></trkpt><trkpt lat="50.36576598026445" lon="3.5139211103517605"><ele>31.0</ele><time>2026-04-11T14:45:43Z</time></trkpt><trkpt lat="50.36571545268366" lon="3.514080773764888"><ele>30.4</ele><time>2026-04-11T14:45:45Z</time></trkpt><trkpt lat="50.36568540888521" lon="3.5141773017988895"><ele>29.8</ele><time>2026-04-11T14:45:46Z</time></trkpt><trkpt lat="50.36563024310147" lon="3.5143542022472367"><ele>29.199999999999996</ele><time>2026-04-11T14:45:48Z</time></trkpt><trkpt lat="50.36557203025642" lon="3.5145346114248173"><ele>28.599999999999998</ele><time>2026-04-11T14:45:50Z</time></trkpt><trkpt lat="50.36553687492929" lon="3.514670929006473"><ele>28.0</ele><time>2026-04-11T14:45:52Z</time></trkpt><trkpt lat="50.3655011612068" lon="3.514775155905578"><ele>27.2</ele><time>2026-04-11T14:45:54Z</time></trkpt><trkpt lat="50.365548317622086" lon="3.5149081204066195"><ele>26.4</ele><time>2026-04-11T14:45:58Z</time></trkpt><trkpt lat="50.3655031713715" lon="3.5149862488386137"><ele>25.599999999999998</ele><time>2026-04-11T14:46:00Z</time></trkpt><trkpt lat="50.36545813623325" lon="3.515119089031773"><ele>24.799999999999997</ele><time>2026-04-11T14:46:02Z</time></trkpt><trkpt lat="50.36539856985699" lon="3.5152922799202337"><ele>24.0</ele><time>2026-04-11T14:46:04Z</time></trkpt><trkpt lat="50.365353214733226" lon="3.5154345861042575"><ele>23.5</ele><time>2026-04-11T14:46:06Z</time></trkpt><trkpt lat="50.36531181987192" lon="3.515598790301622"><ele>23.0</ele><time>2026-04-11T14:46:08Z</time></trkpt><trkpt lat="50.365253986941205" lon="3.515760028671358"><ele>22.5</ele><time>2026-04-11T14:46:10Z</time></trkpt><trkpt lat="50.36524000310805" lon="3.515948595371763"><ele>22.0</ele><time>2026-04-11T14:46:12Z</time></trkpt><trkpt lat="50.36522330371592" lon="3.5161155498857517"><ele>21.8</ele><time>2026-04-11T14:46:14Z</time></trkpt><trkpt lat="50.365185246371084" lon="3.5162518460320045"><ele>21.6</ele><time>2026-04-11T14:46:16Z</time></trkpt><trkpt lat="50.36515905639552" lon="3.5164269917074287"><ele>21.400000000000002</ele><time>2026-04-11T14:46:18Z</time></trkpt><trkpt lat="50.36515774103132" lon="3.516584541013827"><ele>21.200000000000003</ele><time>2026-04-11T14:46:20Z</time></trkpt><trkpt lat="50.36514875099194" lon="3.516735117043725"><ele>21.0</ele><time>2026-04-11T14:46:22Z</time></trkpt><trkpt lat="50.3651091966558" lon="3.5168978293072213"><ele>21.0</ele><time>2026-04-11T14:46:24Z</time></trkpt><trkpt lat="50.36509447199599" lon="3.517050834790195"><ele>21.0</ele><time>2026-04-11T14:46:26Z</time></trkpt><trkpt lat="50.36507101616824" lon="3.517222324297849"><ele>21.0</ele><time>2026-04-11T14:46:28Z</time></trkpt><trkpt lat="50.36505198200676" lon="3.5173173975050895"><ele>21.0</ele><time>2026-04-11T14:46:29Z</time></trkpt><trkpt lat="50.365013020690036" lon="3.5174971433436206"><ele>21.0</ele><time>2026-04-11T14:46:31Z</time></trkpt><trkpt lat="50.36499991469731" lon="3.5176665881592317"><ele>21.0</ele><time>2026-04-11T14:46:33Z</time></trkpt><trkpt lat="50.36497513893539" lon="3.5177624977203394"><ele>21.0</ele><time>2026-04-11T14:46:34Z</time></trkpt><trkpt lat="50.364947802916525" lon="3.5178695303804903"><ele>21.0</ele><time>2026-04-11T14:46:35Z</time></trkpt><trkpt lat="50.36493420794338" lon="3.518022516249702"><ele>21.0</ele><time>2026-04-11T14:46:37Z</time></trkpt><trkpt lat="50.36491054193711" lon="3.5181932788305588"><ele>21.0</ele><time>2026-04-11T14:46:39Z</time></trkpt><trkpt lat="50.364883480044" lon="3.5183120085962485"><ele>21.0</ele><time>2026-04-11T14:46:41Z</time></trkpt><trkpt lat="50.364868798050956" lon="3.518413955955471"><ele>21.333333333333332</ele><time>2026-04-11T14:46:43Z</time></trkpt><trkpt lat="50.364821837632945" lon="3.518502385407259"><ele>21.666666666666668</ele><time>2026-04-11T14:46:45Z</time></trkpt><trkpt lat="50.36475202142855" lon="3.5186032971952494"><ele>22.0</ele><time>2026-04-11T14:46:48Z</time></trkpt><trkpt lat="50.36470979787433" lon="3.5186959283018417"><ele>22.333333333333336</ele><time>2026-04-11T14:46:50Z</time></trkpt><trkpt lat="50.364708768781874" lon="3.5188464768412735"><ele>22.666666666666668</ele><time>2026-04-11T14:46:53Z</time></trkpt><trkpt lat="50.3647324689488" lon="3.518940680537754"><ele>23.0</ele><time>2026-04-11T14:46:55Z</time></trkpt><trkpt lat="50.36475745908901" lon="3.519051092619531"><ele>23.2</ele><time>2026-04-11T14:46:57Z</time></trkpt><trkpt lat="50.36467645065249" lon="3.519165092563895"><ele>23.4</ele><time>2026-04-11T14:46:59Z</time></trkpt><trkpt lat="50.364652726127225" lon="3.5192865635889903"><ele>23.599999999999998</ele><time>2026-04-11T14:47:01Z</time></trkpt><trkpt lat="50.36470791751272" lon="3.51937903288895"><ele>23.799999999999997</ele><time>2026-04-11T14:47:03Z</time></trkpt><trkpt lat="50.364693421536565" lon="3.5195342191843273"><ele>24.0</ele><time>2026-04-11T14:47:05Z</time></trkpt><trkpt lat="50.36468881413431" lon="3.5197065967264476"><ele>24.333333333333332</ele><time>2026-04-11T14:47:07Z</time></trkpt><trkpt lat="50.36466135463623" lon="3.519824118021627"><ele>24.666666666666664</ele><time>2026-04-11T14:47:09Z</time></trkpt><trkpt lat="50.3646443549432" lon="3.519927553930074"><ele>25.0</ele><time>2026-04-11T14:47:11Z</time></trkpt><trkpt lat="50.36466762107737" lon="3.52006369286631"><ele>25.333333333333332</ele><time>2026-04-11T14:47:13Z</time></trkpt><trkpt lat="50.36465460806903" lon="3.5201632903344247"><ele>25.666666666666664</ele><time>2026-04-11T14:47:14Z</time></trkpt><trkpt lat="50.36463060182455" lon="3.5203312896143717"><ele>26.0</ele><time>2026-04-11T14:47:16Z</time></trkpt><trkpt lat="50.36464574649617" lon="3.5204291194880644"><ele>26.0</ele><time>2026-04-11T14:47:17Z</time></trkpt><trkpt lat="50.36462420798094" lon="3.5205975502837044"><ele>26.0</ele><time>2026-04-11T14:47:19Z</time></trkpt><trkpt lat="50.36459666053099" lon="3.5206942390975096"><ele>26.0</ele><time>2026-04-11T14:47:20Z</time></trkpt><trkpt lat="50.36459748594191" lon="3.520827011439624"><ele>26.0</ele><time>2026-04-11T14:47:22Z</time></trkpt><trkpt lat="50.36459049577383" lon="3.520966605378243"><ele>26.0</ele><time>2026-04-11T14:47:24Z</time></trkpt><trkpt lat="50.364574482322425" lon="3.52115401165508"><ele>26.0</ele><time>2026-04-11T14:47:26Z</time></trkpt><trkpt lat="50.36455073878319" lon="3.521267871812967"><ele>26.0</ele><time>2026-04-11T14:47:27Z</time></trkpt><trkpt lat="50.36452581080278" lon="3.521434665076848"><ele>26.0</ele><time>2026-04-11T14:47:29Z</time></trkpt><trkpt lat="50.364507491562556" lon="3.5215295673843205"><ele>26.0</ele><time>2026-04-11T14:47:30Z</time></trkpt><trkpt lat="50.36449721976959" lon="3.521677445356664"><ele>26.0</ele><time>2026-04-11T14:47:32Z</time></trkpt><trkpt lat="50.36449074406133" lon="3.521855397248664"><ele>26.0</ele><time>2026-04-11T14:47:34Z</time></trkpt><trkpt lat="50.36446948002556" lon="3.52203004266475"><ele>26.0</ele><time>2026-04-11T14:47:36Z</time></trkpt><trkpt lat="50.36445102917273" lon="3.5221684983505632"><ele>26.0</ele><time>2026-04-11T14:47:38Z</time></trkpt><trkpt lat="50.36444092354783" lon="3.522320600275962"><ele>26.0</ele><time>2026-04-11T14:47:40Z</time></trkpt><trkpt lat="50.36442875173367" lon="3.522469376059745"><ele>26.0</ele><time>2026-04-11T14:47:42Z</time></trkpt><trkpt lat="50.36439986922316" lon="3.5225670183773072"><ele>25.999999999999996</ele><time>2026-04-11T14:47:44Z</time></trkpt><trkpt lat="50.36438739600517" lon="3.522700705828582"><ele>26.0</ele><time>2026-04-11T14:47:48Z</time></trkpt><trkpt lat="50.36440875577616" lon="3.5228138901466592"><ele>26.0</ele><time>2026-04-11T14:47:51Z</time></trkpt><trkpt lat="50.364347154008094" lon="3.522867150639711"><ele>26.0</ele><time>2026-04-11T14:48:02Z</time></trkpt><trkpt lat="50.364279745063044" lon="3.5228722868130546"><ele>25.999999999999996</ele><time>2026-04-11T14:48:07Z</time></trkpt><trkpt lat="50.36426251645726" lon="3.5230106127367686"><ele>26.0</ele><time>2026-04-11T14:48:11Z</time></trkpt><trkpt lat="50.364232914640134" lon="3.523105665789484"><ele>26.200000000000003</ele><time>2026-04-11T14:48:13Z</time></trkpt><trkpt lat="50.364217833277344" lon="3.5232541116765175"><ele>26.400000000000002</ele><time>2026-04-11T14:48:15Z</time></trkpt><trkpt lat="50.36411183695088" lon="3.523340799004151"><ele>26.6</ele><time>2026-04-11T14:48:18Z</time></trkpt><trkpt lat="50.36401722710745" lon="3.52333218877449"><ele>26.8</ele><time>2026-04-11T14:48:20Z</time></trkpt><trkpt lat="50.36392928820987" lon="3.5233483621775075"><ele>27.0</ele><time>2026-04-11T14:48:22Z</time></trkpt><trkpt lat="50.36384611371437" lon="3.5233407504477032"><ele>26.6</ele><time>2026-04-11T14:48:24Z</time></trkpt><trkpt lat="50.36374580770338" lon="3.5233473048480946"><ele>26.200000000000003</ele><time>2026-04-11T14:48:26Z</time></trkpt><trkpt lat="50.363642608212395" lon="3.5233484306550427"><ele>25.8</ele><time>2026-04-11T14:48:28Z</time></trkpt><trkpt lat="50.36356711114369" lon="3.523347956381175"><ele>25.4</ele><time>2026-04-11T14:48:30Z</time></trkpt><trkpt lat="50.36345870462757" lon="3.523352435031634"><ele>25.0</ele><time>2026-04-11T14:48:32Z</time></trkpt><trkpt lat="50.36336656163132" lon="3.523345495717317"><ele>25.0</ele><time>2026-04-11T14:48:34Z</time></trkpt><trkpt lat="50.36327698295282" lon="3.523397458983041"><ele>25.0</ele><time>2026-04-11T14:48:36Z</time></trkpt><trkpt lat="50.36320662051125" lon="3.5235074452758792"><ele>25.0</ele><time>2026-04-11T14:48:38Z</time></trkpt><trkpt lat="50.36316351915365" lon="3.523650441026199"><ele>25.0</ele><time>2026-04-11T14:48:40Z</time></trkpt><trkpt lat="50.36313122318435" lon="3.5237669116646986"><ele>25.0</ele><time>2026-04-11T14:48:42Z</time></trkpt><trkpt lat="50.36308244526822" lon="3.523891676141249"><ele>25.000000000000004</ele><time>2026-04-11T14:48:44Z</time></trkpt><trkpt lat="50.36304275875355" lon="3.524014215196317"><ele>25.0</ele><time>2026-04-11T14:48:46Z</time></trkpt><trkpt lat="50.363009839195854" lon="3.5241259756259735"><ele>25.0</ele><time>2026-04-11T14:48:48Z</time></trkpt><trkpt lat="50.36294715893969" lon="3.524213894241007"><ele>25.0</ele><time>2026-04-11T14:48:50Z</time></trkpt><trkpt lat="50.362925696028874" lon="3.5243243629418526"><ele>25.000000000000004</ele><time>2026-04-11T14:48:52Z</time></trkpt><trkpt lat="50.36289251066739" lon="3.524423742726437"><ele>25.0</ele><time>2026-04-11T14:48:54Z</time></trkpt><trkpt lat="50.3628613789157" lon="3.5245211184754783"><ele>24.714285714285715</ele><time>2026-04-11T14:48:56Z</time></trkpt><trkpt lat="50.36283145969776" lon="3.5246245324712313"><ele>24.42857142857143</ele><time>2026-04-11T14:48:58Z</time></trkpt><trkpt lat="50.36279338401788" lon="3.524732155408931"><ele>24.142857142857146</ele><time>2026-04-11T14:49:00Z</time></trkpt><trkpt lat="50.362756577749586" lon="3.5248318402915255"><ele>23.857142857142858</ele><time>2026-04-11T14:49:02Z</time></trkpt><trkpt lat="50.36272775565402" lon="3.5249365214820085"><ele>23.57142857142857</ele><time>2026-04-11T14:49:04Z</time></trkpt><trkpt lat="50.362698928000974" lon="3.5250414295192005"><ele>23.28571428571429</ele><time>2026-04-11T14:49:06Z</time></trkpt><trkpt lat="50.36266647664568" lon="3.52513614145547"><ele>23.0</ele><time>2026-04-11T14:49:08Z</time></trkpt><trkpt lat="50.362655660903016" lon="3.5252608072340736"><ele>23.0</ele><time>2026-04-11T14:49:10Z</time></trkpt><trkpt lat="50.36260405699216" lon="3.5253622642592393"><ele>23.0</ele><time>2026-04-11T14:49:12Z</time></trkpt><trkpt lat="50.36252688357438" lon="3.5254398157975255"><ele>23.0</ele><time>2026-04-11T14:49:14Z</time></trkpt><trkpt lat="50.3624632852546" lon="3.525505697673171"><ele>23.0</ele><time>2026-04-11T14:49:15.999Z</time></trkpt><trkpt lat="50.362376674962206" lon="3.525568188862433"><ele>23.0</ele><time>2026-04-11T14:49:17.999Z</time></trkpt><trkpt lat="50.36230425933463" lon="3.5256421977115204"><ele>23.0</ele><time>2026-04-11T14:49:19.999Z</time></trkpt><trkpt lat="50.36221848111339" lon="3.5257259388521525"><ele>23.0</ele><time>2026-04-11T14:49:21.999Z</time></trkpt><trkpt lat="50.36214831492635" lon="3.5258132582936312"><ele>23.0</ele><time>2026-04-11T14:49:23.999Z</time></trkpt><trkpt lat="50.36207579005296" lon="3.5259058656258926"><ele>23.0</ele><time>2026-04-11T14:49:25.999Z</time></trkpt><trkpt lat="50.36200346573824" lon="3.5259618840976144"><ele>23.0</ele><time>2026-04-11T14:49:27.999Z</time></trkpt><trkpt lat="50.361922587856284" lon="3.5258816345520367"><ele>23.0</ele><time>2026-04-11T14:49:29.999Z</time></trkpt><trkpt lat="50.36186107092998" lon="3.5257946039836265"><ele>23.0</ele><time>2026-04-11T14:49:31.999Z</time></trkpt><trkpt lat="50.36176417939976" lon="3.5257681757653025"><ele>23.0</ele><time>2026-04-11T14:49:33.999Z</time></trkpt><trkpt lat="50.3616536152892" lon="3.525731113908792"><ele>23.0</ele><time>2026-04-11T14:49:36Z</time></trkpt><trkpt lat="50.3615517372781" lon="3.5257231027368547"><ele>23.0</ele><time>2026-04-11T14:49:38Z</time></trkpt><trkpt lat="50.361455772767236" lon="3.525676285333934"><ele>23.0</ele><time>2026-04-11T14:49:40Z</time></trkpt><trkpt lat="50.36135095866158" lon="3.5256792124216365"><ele>23.0</ele><time>2026-04-11T14:49:42Z</time></trkpt><trkpt lat="50.36125049732265" lon="3.5256738330574713"><ele>23.2</ele><time>2026-04-11T14:49:44Z</time></trkpt><trkpt lat="50.361148594081804" lon="3.5256427088503304"><ele>23.4</ele><time>2026-04-11T14:49:46Z</time></trkpt><trkpt lat="50.36104185132342" lon="3.5256331514349566"><ele>23.599999999999998</ele><time>2026-04-11T14:49:48Z</time></trkpt><trkpt lat="50.3609510722888" lon="3.5256027832870105"><ele>23.799999999999997</ele><time>2026-04-11T14:49:50Z</time></trkpt><trkpt lat="50.360836944805136" lon="3.5255603649039466"><ele>24.0</ele><time>2026-04-11T14:49:52Z</time></trkpt><trkpt lat="50.36073662172216" lon="3.5255420288165644"><ele>24.0</ele><time>2026-04-11T14:49:54Z</time></trkpt><trkpt lat="50.36062274805839" lon="3.5255477472495795"><ele>24.0</ele><time>2026-04-11T14:49:56Z</time></trkpt><trkpt lat="50.360521219606035" lon="3.525587206858818"><ele>24.0</ele><time>2026-04-11T14:49:58Z</time></trkpt><trkpt lat="50.36043172062369" lon="3.525632215157351"><ele>24.0</ele><time>2026-04-11T14:50:00Z</time></trkpt><trkpt lat="50.360373677061034" lon="3.5256843119690964"><ele>24.0</ele><time>2026-04-11T14:50:01Z</time></trkpt><trkpt lat="50.360299058149145" lon="3.525644209027837"><ele>24.0</ele><time>2026-04-11T14:50:03Z</time></trkpt><trkpt lat="50.36021671458542" lon="3.5255613947156763"><ele>24.0</ele><time>2026-04-11T14:50:05Z</time></trkpt><trkpt lat="50.36014354049996" lon="3.5254819542649156"><ele>24.0</ele><time>2026-04-11T14:50:07Z</time></trkpt><trkpt lat="50.36008309845679" lon="3.525383812812904"><ele>24.0</ele><time>2026-04-11T14:50:09Z</time></trkpt><trkpt lat="50.360045762205964" lon="3.525282610310354"><ele>24.0</ele><time>2026-04-11T14:50:11Z</time></trkpt><trkpt lat="50.3599949681221" lon="3.5251729213132563"><ele>24.0</ele><time>2026-04-11T14:50:13Z</time></trkpt><trkpt lat="50.35994019265396" lon="3.5250559166458695"><ele>24.0</ele><time>2026-04-11T14:50:15Z</time></trkpt><trkpt lat="50.359898529680734" lon="3.524955822361765"><ele>24.0</ele><time>2026-04-11T14:50:17Z</time></trkpt><trkpt lat="50.359870446351714" lon="3.5248404460435743"><ele>24.0</ele><time>2026-04-11T14:50:22Z</time></trkpt><trkpt lat="50.35982723932349" lon="3.524745748725111"><ele>24.0</ele><time>2026-04-11T14:50:24Z</time></trkpt><trkpt lat="50.35973977570987" lon="3.5247087109805753"><ele>24.0</ele><time>2026-04-11T14:50:26Z</time></trkpt><trkpt lat="50.359651782183136" lon="3.5246387530941212"><ele>24.0</ele><time>2026-04-11T14:50:28Z</time></trkpt><trkpt lat="50.35956576907306" lon="3.5245715406457356"><ele>25.0</ele><time>2026-04-11T14:50:30Z</time></trkpt><trkpt lat="50.359478790787946" lon="3.5245210802178755"><ele>26.0</ele><time>2026-04-11T14:50:32Z</time></trkpt><trkpt lat="50.35939009533766" lon="3.524471530128295"><ele>27.0</ele><time>2026-04-11T14:50:34Z</time></trkpt><trkpt lat="50.35931274687652" lon="3.52443387762871"><ele>28.0</ele><time>2026-04-11T14:50:36Z</time></trkpt><trkpt lat="50.359229433677065" lon="3.5244094478697905"><ele>29.0</ele><time>2026-04-11T14:50:38Z</time></trkpt><trkpt lat="50.35915327725531" lon="3.524368296593953"><ele>30.0</ele><time>2026-04-11T14:50:40Z</time></trkpt><trkpt lat="50.359074630011435" lon="3.5243063961417516"><ele>30.0</ele><time>2026-04-11T14:50:42Z</time></trkpt><trkpt lat="50.35899921552924" lon="3.52420358728115"><ele>30.0</ele><time>2026-04-11T14:50:44Z</time></trkpt><trkpt lat="50.35892367779085" lon="3.5241376734166363"><ele>30.0</ele><time>2026-04-11T14:50:46Z</time></trkpt><trkpt lat="50.35884276982206" lon="3.524103000913372"><ele>30.0</ele><time>2026-04-11T14:50:48Z</time></trkpt><trkpt lat="50.35877689240102" lon="3.5240506509008904"><ele>30.0</ele><time>2026-04-11T14:50:50Z</time></trkpt><trkpt lat="50.3587061043855" lon="3.523992960526518"><ele>30.0</ele><time>2026-04-11T14:50:52Z</time></trkpt><trkpt lat="50.35866133413653" lon="3.5238921621483064"><ele>30.2</ele><time>2026-04-11T14:50:55Z</time></trkpt><trkpt lat="50.35862923909032" lon="3.523779076651309"><ele>30.4</ele><time>2026-04-11T14:50:58Z</time></trkpt><trkpt lat="50.35866587832094" lon="3.5235893890602954"><ele>30.6</ele><time>2026-04-11T14:51:01Z</time></trkpt><trkpt lat="50.35871158418787" lon="3.5234384469918605"><ele>30.8</ele><time>2026-04-11T14:51:03Z</time></trkpt><trkpt lat="50.358749878325405" lon="3.523290367399038"><ele>31.0</ele><time>2026-04-11T14:51:05Z</time></trkpt><trkpt lat="50.35877199385995" lon="3.5231390484606155"><ele>30.666666666666668</ele><time>2026-04-11T14:51:07Z</time></trkpt><trkpt lat="50.35881050241932" lon="3.523012455826798"><ele>30.333333333333336</ele><time>2026-04-11T14:51:09Z</time></trkpt><trkpt lat="50.358826008363884" lon="3.5228915577484563"><ele>30.0</ele><time>2026-04-11T14:51:11Z</time></trkpt><trkpt lat="50.358826202289734" lon="3.5227739288823163"><ele>29.666666666666664</ele><time>2026-04-11T14:51:13Z</time></trkpt><trkpt lat="50.35879741822709" lon="3.522685407456122"><ele>29.333333333333332</ele><time>2026-04-11T14:51:15Z</time></trkpt><trkpt lat="50.35868555859964" lon="3.522615369896033"><ele>29.0</ele><time>2026-04-11T14:51:17Z</time></trkpt><trkpt lat="50.35859925273028" lon="3.522552450697185"><ele>28.799999999999997</ele><time>2026-04-11T14:51:19Z</time></trkpt><trkpt lat="50.358508742161476" lon="3.52248447386527"><ele>28.599999999999998</ele><time>2026-04-11T14:51:21Z</time></trkpt><trkpt lat="50.358420156902426" lon="3.522409900105244"><ele>28.4</ele><time>2026-04-11T14:51:23.001Z</time></trkpt><trkpt lat="50.358326736329836" lon="3.522336815140165"><ele>28.2</ele><time>2026-04-11T14:51:25.001Z</time></trkpt><trkpt lat="50.35824652945685" lon="3.5222742662419795"><ele>28.0</ele><time>2026-04-11T14:51:27.001Z</time></trkpt><trkpt lat="50.35816663401057" lon="3.522221022602652"><ele>28.0</ele><time>2026-04-11T14:51:29.001Z</time></trkpt><trkpt lat="50.35808083645263" lon="3.5221443742904093"><ele>27.999999999999996</ele><time>2026-04-11T14:51:31.001Z</time></trkpt><trkpt lat="50.35798933997397" lon="3.522094112969185"><ele>27.999999999999996</ele><time>2026-04-11T14:51:33Z</time></trkpt><trkpt lat="50.35790941773211" lon="3.5220346585755578"><ele>28.0</ele><time>2026-04-11T14:51:35Z</time></trkpt><trkpt lat="50.357809130601204" lon="3.5219461887091086"><ele>28.0</ele><time>2026-04-11T14:51:37Z</time></trkpt><trkpt lat="50.35772299888091" lon="3.521878230513963"><ele>28.0</ele><time>2026-04-11T14:51:39Z</time></trkpt><trkpt lat="50.357625987476176" lon="3.5218188431084365"><ele>27.999999999999996</ele><time>2026-04-11T14:51:41Z</time></trkpt><trkpt lat="50.35753269722149" lon="3.5217512787111587"><ele>27.999999999999996</ele><time>2026-04-11T14:51:43Z</time></trkpt><trkpt lat="50.357456792812044" lon="3.521657866067256"><ele>28.0</ele><time>2026-04-11T14:51:45Z</time></trkpt><trkpt lat="50.35739704315912" lon="3.5216236963655234"><ele>28.0</ele><time>2026-04-11T14:51:47Z</time></trkpt><trkpt lat="50.35725253613189" lon="3.5219264749084855"><ele>28.000000000000004</ele><time>2026-04-11T14:51:50Z</time></trkpt><trkpt lat="50.35721761809765" lon="3.522042689118324"><ele>28.0</ele><time>2026-04-11T14:51:52Z</time></trkpt><trkpt lat="50.35721659543498" lon="3.522187408918008"><ele>28.0</ele><time>2026-04-11T14:51:54Z</time></trkpt><trkpt lat="50.35721988673808" lon="3.522314410495805"><ele>28.0</ele><time>2026-04-11T14:51:56Z</time></trkpt><trkpt lat="50.3572252372224" lon="3.522430422901277"><ele>28.000000000000004</ele><time>2026-04-11T14:51:58Z</time></trkpt><trkpt lat="50.3572230323181" lon="3.5225472001176277"><ele>28.0</ele><time>2026-04-11T14:52:00Z</time></trkpt><trkpt lat="50.357212431785975" lon="3.522671618623603"><ele>28.000000000000004</ele><time>2026-04-11T14:52:02Z</time></trkpt><trkpt lat="50.35719730142067" lon="3.5227975407226824"><ele>28.0</ele><time>2026-04-11T14:52:05Z</time></trkpt><trkpt lat="50.357174124103395" lon="3.5228944309060872"><ele>28.0</ele><time>2026-04-11T14:52:08Z</time></trkpt><trkpt lat="50.35713331862176" lon="3.523010652294611"><ele>28.0</ele><time>2026-04-11T14:52:10Z</time></trkpt><trkpt lat="50.357072674840005" lon="3.5231520434558705"><ele>28.000000000000004</ele><time>2026-04-11T14:52:12Z</time></trkpt><trkpt lat="50.35703366375429" lon="3.5232446956547876"><ele>28.0</ele><time>2026-04-11T14:52:13Z</time></trkpt><trkpt lat="50.3569685042895" lon="3.523409352417372"><ele>28.2</ele><time>2026-04-11T14:52:15Z</time></trkpt><trkpt lat="50.35691652812682" lon="3.523578261811718"><ele>28.4</ele><time>2026-04-11T14:52:17Z</time></trkpt><trkpt lat="50.35685111297854" lon="3.523729308166707"><ele>28.599999999999998</ele><time>2026-04-11T14:52:19Z</time></trkpt><trkpt lat="50.35683205535606" lon="3.5238304354693417"><ele>28.799999999999997</ele><time>2026-04-11T14:52:20Z</time></trkpt><trkpt lat="50.356801259218834" lon="3.5239245647024138"><ele>29.0</ele><time>2026-04-11T14:52:21Z</time></trkpt><trkpt lat="50.356744809797334" lon="3.524106604001409"><ele>28.6</ele><time>2026-04-11T14:52:23Z</time></trkpt><trkpt lat="50.35672179553199" lon="3.524216726169298"><ele>28.2</ele><time>2026-04-11T14:52:24Z</time></trkpt><trkpt lat="50.3566877922534" lon="3.5243095766088226"><ele>27.800000000000004</ele><time>2026-04-11T14:52:25Z</time></trkpt><trkpt lat="50.35664360688892" lon="3.524500279475693"><ele>27.400000000000002</ele><time>2026-04-11T14:52:27Z</time></trkpt><trkpt lat="50.35656492745845" lon="3.524607849819842"><ele>27.0</ele><time>2026-04-11T14:52:29Z</time></trkpt><trkpt lat="50.35646594572375" lon="3.5246828799032097"><ele>26.8</ele><time>2026-04-11T14:52:31.001Z</time></trkpt><trkpt lat="50.35640478774384" lon="3.5248040098553215"><ele>26.6</ele><time>2026-04-11T14:52:33.001Z</time></trkpt><trkpt lat="50.35632788882015" lon="3.5249024153307933"><ele>26.400000000000002</ele><time>2026-04-11T14:52:35.001Z</time></trkpt><trkpt lat="50.356257640920354" lon="3.5250244614965127"><ele>26.200000000000003</ele><time>2026-04-11T14:52:37.001Z</time></trkpt><trkpt lat="50.35619296236036" lon="3.5251166129112894"><ele>26.0</ele><time>2026-04-11T14:52:39.001Z</time></trkpt><trkpt lat="50.3561294634001" lon="3.5251883975532214"><ele>29.0</ele><time>2026-04-11T14:52:41.001Z</time></trkpt><trkpt lat="50.356064817714056" lon="3.5251545027017084"><ele>29.0</ele><time>2026-04-11T14:52:43.001Z</time></trkpt><trkpt lat="50.355986822355426" lon="3.525118738128815"><ele>29.0</ele><time>2026-04-11T14:52:46.001Z</time></trkpt><trkpt lat="50.35592802410714" lon="3.5250749999255615"><ele>29.0</ele><time>2026-04-11T14:52:49.001Z</time></trkpt><trkpt lat="50.35585168110378" lon="3.5249991778644154"><ele>29.0</ele><time>2026-04-11T14:52:54.001Z</time></trkpt></trkseg></trk></gpx>